<?xml version="1.0" encoding="UTF-8" standalone="no" ?>
<gpx xmlns="http://www.topografix.com/GPX/1/1" xmlns:xsi="http://www.w3.org/2001/XMLSchema-instance" xsi:schemaLocation="http://www.topografix.com/GPX/1/1 http://www.topografix.com/GPX/1/1/gpx.xsd" version="1.1" creator="VisuGPX - https://www.visugpx.com">
  <metadata>
    <name>Rando septmont</name>
  </metadata>
  <trk>
    <name><![CDATA[Trace 1760962840000]]></name>
    <trkseg>
      <trkpt lat="49.3346" lon="3.35842">
        <ele>119.1</ele>
        <time>2025-10-20T12:20:40.000Z</time>
      </trkpt>
      <trkpt lat="49.3346" lon="3.35842">
        <ele>119.1</ele>
        <time>2025-10-20T12:20:41.000Z</time>
      </trkpt>
      <trkpt lat="49.3346" lon="3.35842">
        <ele>119.1</ele>
        <time>2025-10-20T12:20:42.000Z</time>
      </trkpt>
      <trkpt lat="49.3346" lon="3.35842">
        <ele>119.1</ele>
        <time>2025-10-20T12:20:43.000Z</time>
      </trkpt>
      <trkpt lat="49.3346" lon="3.35842">
        <ele>119.1</ele>
        <time>2025-10-20T12:20:44.000Z</time>
      </trkpt>
      <trkpt lat="49.33462" lon="3.35842">
        <ele>117.6</ele>
        <time>2025-10-20T12:20:45.000Z</time>
      </trkpt>
      <trkpt lat="49.33462" lon="3.35842">
        <ele>117.2</ele>
        <time>2025-10-20T12:20:46.000Z</time>
      </trkpt>
      <trkpt lat="49.33462" lon="3.35841">
        <ele>117</ele>
        <time>2025-10-20T12:20:47.000Z</time>
      </trkpt>
      <trkpt lat="49.33462" lon="3.35841">
        <ele>116.7</ele>
        <time>2025-10-20T12:20:48.000Z</time>
      </trkpt>
      <trkpt lat="49.33462" lon="3.3584">
        <ele>116.1</ele>
        <time>2025-10-20T12:20:49.000Z</time>
      </trkpt>
      <trkpt lat="49.33461" lon="3.35839">
        <ele>115.7</ele>
        <time>2025-10-20T12:20:50.000Z</time>
      </trkpt>
      <trkpt lat="49.33461" lon="3.35839">
        <ele>115.3</ele>
        <time>2025-10-20T12:20:51.000Z</time>
      </trkpt>
      <trkpt lat="49.33461" lon="3.35838">
        <ele>114.9</ele>
        <time>2025-10-20T12:20:52.000Z</time>
      </trkpt>
      <trkpt lat="49.33461" lon="3.35837">
        <ele>114.4</ele>
        <time>2025-10-20T12:20:53.000Z</time>
      </trkpt>
      <trkpt lat="49.33461" lon="3.35836">
        <ele>113.9</ele>
        <time>2025-10-20T12:20:54.000Z</time>
      </trkpt>
      <trkpt lat="49.33461" lon="3.35836">
        <ele>113.6</ele>
        <time>2025-10-20T12:20:55.000Z</time>
      </trkpt>
      <trkpt lat="49.33462" lon="3.35835">
        <ele>113.2</ele>
        <time>2025-10-20T12:20:56.000Z</time>
      </trkpt>
      <trkpt lat="49.33462" lon="3.35834">
        <ele>113</ele>
        <time>2025-10-20T12:20:57.000Z</time>
      </trkpt>
      <trkpt lat="49.33462" lon="3.35834">
        <ele>112.6</ele>
        <time>2025-10-20T12:20:58.000Z</time>
      </trkpt>
      <trkpt lat="49.33462" lon="3.35834">
        <ele>112.5</ele>
        <time>2025-10-20T12:20:59.000Z</time>
      </trkpt>
      <trkpt lat="49.33462" lon="3.35834">
        <ele>112.5</ele>
        <time>2025-10-20T12:21:00.000Z</time>
      </trkpt>
      <trkpt lat="49.33462" lon="3.35835">
        <ele>112.5</ele>
        <time>2025-10-20T12:21:01.000Z</time>
      </trkpt>
      <trkpt lat="49.33462" lon="3.35835">
        <ele>112.5</ele>
        <time>2025-10-20T12:21:02.000Z</time>
      </trkpt>
      <trkpt lat="49.33462" lon="3.35837">
        <ele>112.5</ele>
        <time>2025-10-20T12:21:03.000Z</time>
      </trkpt>
      <trkpt lat="49.33462" lon="3.35837">
        <ele>112.3</ele>
        <time>2025-10-20T12:21:04.000Z</time>
      </trkpt>
      <trkpt lat="49.33462" lon="3.35837">
        <ele>111.9</ele>
        <time>2025-10-20T12:21:05.000Z</time>
      </trkpt>
      <trkpt lat="49.33462" lon="3.35837">
        <ele>111.5</ele>
        <time>2025-10-20T12:21:06.000Z</time>
      </trkpt>
      <trkpt lat="49.33463" lon="3.35837">
        <ele>111.4</ele>
        <time>2025-10-20T12:21:07.000Z</time>
      </trkpt>
      <trkpt lat="49.33463" lon="3.35837">
        <ele>111.3</ele>
        <time>2025-10-20T12:21:08.000Z</time>
      </trkpt>
      <trkpt lat="49.33463" lon="3.35836">
        <ele>111.3</ele>
        <time>2025-10-20T12:21:09.000Z</time>
      </trkpt>
      <trkpt lat="49.33464" lon="3.35837">
        <ele>111.1</ele>
        <time>2025-10-20T12:21:10.000Z</time>
      </trkpt>
      <trkpt lat="49.33464" lon="3.35837">
        <ele>111.1</ele>
        <time>2025-10-20T12:21:11.000Z</time>
      </trkpt>
      <trkpt lat="49.33464" lon="3.35837">
        <ele>111.2</ele>
        <time>2025-10-20T12:21:12.000Z</time>
      </trkpt>
      <trkpt lat="49.33464" lon="3.35837">
        <ele>111.3</ele>
        <time>2025-10-20T12:21:13.000Z</time>
      </trkpt>
      <trkpt lat="49.33464" lon="3.35837">
        <ele>111.1</ele>
        <time>2025-10-20T12:21:14.000Z</time>
      </trkpt>
      <trkpt lat="49.33464" lon="3.35837">
        <ele>111.1</ele>
        <time>2025-10-20T12:21:15.000Z</time>
      </trkpt>
      <trkpt lat="49.33464" lon="3.35837">
        <ele>111.1</ele>
        <time>2025-10-20T12:21:16.000Z</time>
      </trkpt>
      <trkpt lat="49.33464" lon="3.35837">
        <ele>111.1</ele>
        <time>2025-10-20T12:21:17.000Z</time>
      </trkpt>
      <trkpt lat="49.33464" lon="3.35837">
        <ele>111.1</ele>
        <time>2025-10-20T12:21:18.000Z</time>
      </trkpt>
      <trkpt lat="49.33464" lon="3.35837">
        <ele>111.1</ele>
        <time>2025-10-20T12:21:19.000Z</time>
      </trkpt>
      <trkpt lat="49.33464" lon="3.35837">
        <ele>111.1</ele>
        <time>2025-10-20T12:21:20.000Z</time>
      </trkpt>
      <trkpt lat="49.33464" lon="3.35837">
        <ele>111.1</ele>
        <time>2025-10-20T12:21:21.000Z</time>
      </trkpt>
      <trkpt lat="49.33464" lon="3.35837">
        <ele>111.1</ele>
        <time>2025-10-20T12:21:22.000Z</time>
      </trkpt>
      <trkpt lat="49.33464" lon="3.35837">
        <ele>111.1</ele>
        <time>2025-10-20T12:21:23.000Z</time>
      </trkpt>
      <trkpt lat="49.33464" lon="3.35837">
        <ele>111.1</ele>
        <time>2025-10-20T12:21:24.000Z</time>
      </trkpt>
      <trkpt lat="49.33464" lon="3.35837">
        <ele>111.1</ele>
        <time>2025-10-20T12:21:25.000Z</time>
      </trkpt>
      <trkpt lat="49.33464" lon="3.35837">
        <ele>111.1</ele>
        <time>2025-10-20T12:21:26.000Z</time>
      </trkpt>
      <trkpt lat="49.33464" lon="3.35837">
        <ele>111.1</ele>
        <time>2025-10-20T12:21:27.000Z</time>
      </trkpt>
      <trkpt lat="49.33464" lon="3.35837">
        <ele>111.1</ele>
        <time>2025-10-20T12:21:28.000Z</time>
      </trkpt>
      <trkpt lat="49.33464" lon="3.35837">
        <ele>111.1</ele>
        <time>2025-10-20T12:21:29.000Z</time>
      </trkpt>
      <trkpt lat="49.33464" lon="3.35837">
        <ele>111.1</ele>
        <time>2025-10-20T12:21:30.000Z</time>
      </trkpt>
      <trkpt lat="49.33464" lon="3.35837">
        <ele>111.1</ele>
        <time>2025-10-20T12:21:31.000Z</time>
      </trkpt>
      <trkpt lat="49.33464" lon="3.35837">
        <ele>111.1</ele>
        <time>2025-10-20T12:21:32.000Z</time>
      </trkpt>
      <trkpt lat="49.33464" lon="3.35837">
        <ele>111.1</ele>
        <time>2025-10-20T12:21:33.000Z</time>
      </trkpt>
      <trkpt lat="49.33464" lon="3.35837">
        <ele>111.1</ele>
        <time>2025-10-20T12:21:34.000Z</time>
      </trkpt>
      <trkpt lat="49.33464" lon="3.35837">
        <ele>111.1</ele>
        <time>2025-10-20T12:21:35.000Z</time>
      </trkpt>
      <trkpt lat="49.33464" lon="3.35837">
        <ele>111.1</ele>
        <time>2025-10-20T12:21:36.000Z</time>
      </trkpt>
      <trkpt lat="49.33464" lon="3.35837">
        <ele>111.1</ele>
        <time>2025-10-20T12:21:37.000Z</time>
      </trkpt>
      <trkpt lat="49.33464" lon="3.35837">
        <ele>111.1</ele>
        <time>2025-10-20T12:21:38.000Z</time>
      </trkpt>
      <trkpt lat="49.33464" lon="3.35837">
        <ele>111.1</ele>
        <time>2025-10-20T12:21:39.000Z</time>
      </trkpt>
      <trkpt lat="49.33464" lon="3.35837">
        <ele>111.1</ele>
        <time>2025-10-20T12:21:40.000Z</time>
      </trkpt>
      <trkpt lat="49.33464" lon="3.35837">
        <ele>111.1</ele>
        <time>2025-10-20T12:21:41.000Z</time>
      </trkpt>
      <trkpt lat="49.33464" lon="3.35837">
        <ele>111.1</ele>
        <time>2025-10-20T12:21:42.000Z</time>
      </trkpt>
      <trkpt lat="49.33464" lon="3.35837">
        <ele>111.1</ele>
        <time>2025-10-20T12:21:43.000Z</time>
      </trkpt>
      <trkpt lat="49.33464" lon="3.35837">
        <ele>111.1</ele>
        <time>2025-10-20T12:21:44.000Z</time>
      </trkpt>
      <trkpt lat="49.33464" lon="3.35837">
        <ele>111.1</ele>
        <time>2025-10-20T12:21:45.000Z</time>
      </trkpt>
      <trkpt lat="49.33462" lon="3.35833">
        <ele>112.1</ele>
        <time>2025-10-20T12:21:46.000Z</time>
      </trkpt>
      <trkpt lat="49.33461" lon="3.35831">
        <ele>112.1</ele>
        <time>2025-10-20T12:21:47.000Z</time>
      </trkpt>
      <trkpt lat="49.33461" lon="3.35829">
        <ele>112</ele>
        <time>2025-10-20T12:21:48.000Z</time>
      </trkpt>
      <trkpt lat="49.3346" lon="3.35827">
        <ele>111.8</ele>
        <time>2025-10-20T12:21:49.000Z</time>
      </trkpt>
      <trkpt lat="49.33459" lon="3.35825">
        <ele>111.8</ele>
        <time>2025-10-20T12:21:50.000Z</time>
      </trkpt>
      <trkpt lat="49.33458" lon="3.35823">
        <ele>111.8</ele>
        <time>2025-10-20T12:21:51.000Z</time>
      </trkpt>
      <trkpt lat="49.33457" lon="3.35821">
        <ele>112.1</ele>
        <time>2025-10-20T12:21:52.000Z</time>
      </trkpt>
      <trkpt lat="49.33457" lon="3.35819">
        <ele>112.2</ele>
        <time>2025-10-20T12:21:53.000Z</time>
      </trkpt>
      <trkpt lat="49.33456" lon="3.35817">
        <ele>112.3</ele>
        <time>2025-10-20T12:21:54.000Z</time>
      </trkpt>
      <trkpt lat="49.33455" lon="3.35815">
        <ele>112.5</ele>
        <time>2025-10-20T12:21:55.000Z</time>
      </trkpt>
      <trkpt lat="49.33455" lon="3.35814">
        <ele>112.8</ele>
        <time>2025-10-20T12:21:56.000Z</time>
      </trkpt>
      <trkpt lat="49.33454" lon="3.35814">
        <ele>113.1</ele>
        <time>2025-10-20T12:21:57.000Z</time>
      </trkpt>
      <trkpt lat="49.33453" lon="3.35814">
        <ele>113.1</ele>
        <time>2025-10-20T12:21:58.000Z</time>
      </trkpt>
      <trkpt lat="49.33452" lon="3.35813">
        <ele>113.1</ele>
        <time>2025-10-20T12:21:59.000Z</time>
      </trkpt>
      <trkpt lat="49.33453" lon="3.35813">
        <ele>113.2</ele>
        <time>2025-10-20T12:22:00.000Z</time>
      </trkpt>
      <trkpt lat="49.33453" lon="3.35812">
        <ele>113.2</ele>
        <time>2025-10-20T12:22:01.000Z</time>
      </trkpt>
      <trkpt lat="49.33452" lon="3.35811">
        <ele>112.9</ele>
        <time>2025-10-20T12:22:02.000Z</time>
      </trkpt>
      <trkpt lat="49.33452" lon="3.35811">
        <ele>112.3</ele>
        <time>2025-10-20T12:22:03.000Z</time>
      </trkpt>
      <trkpt lat="49.33451" lon="3.35811">
        <ele>111.9</ele>
        <time>2025-10-20T12:22:04.000Z</time>
      </trkpt>
      <trkpt lat="49.3345" lon="3.35812">
        <ele>111.2</ele>
        <time>2025-10-20T12:22:05.000Z</time>
      </trkpt>
      <trkpt lat="49.33449" lon="3.35812">
        <ele>110.5</ele>
        <time>2025-10-20T12:22:06.000Z</time>
      </trkpt>
      <trkpt lat="49.33448" lon="3.35812">
        <ele>110.4</ele>
        <time>2025-10-20T12:22:07.000Z</time>
      </trkpt>
      <trkpt lat="49.33446" lon="3.35811">
        <ele>110</ele>
        <time>2025-10-20T12:22:08.000Z</time>
      </trkpt>
      <trkpt lat="49.33445" lon="3.35811">
        <ele>109.9</ele>
        <time>2025-10-20T12:22:09.000Z</time>
      </trkpt>
      <trkpt lat="49.33444" lon="3.3581">
        <ele>109.9</ele>
        <time>2025-10-20T12:22:10.000Z</time>
      </trkpt>
      <trkpt lat="49.33443" lon="3.35809">
        <ele>109.9</ele>
        <time>2025-10-20T12:22:11.000Z</time>
      </trkpt>
      <trkpt lat="49.33441" lon="3.35806">
        <ele>109.8</ele>
        <time>2025-10-20T12:22:12.000Z</time>
      </trkpt>
      <trkpt lat="49.33439" lon="3.35804">
        <ele>109.8</ele>
        <time>2025-10-20T12:22:13.000Z</time>
      </trkpt>
      <trkpt lat="49.33437" lon="3.35803">
        <ele>109.9</ele>
        <time>2025-10-20T12:22:14.000Z</time>
      </trkpt>
      <trkpt lat="49.33436" lon="3.35802">
        <ele>109.8</ele>
        <time>2025-10-20T12:22:15.000Z</time>
      </trkpt>
      <trkpt lat="49.33435" lon="3.35801">
        <ele>109.8</ele>
        <time>2025-10-20T12:22:16.000Z</time>
      </trkpt>
      <trkpt lat="49.33434" lon="3.35799">
        <ele>109.6</ele>
        <time>2025-10-20T12:22:17.000Z</time>
      </trkpt>
      <trkpt lat="49.33433" lon="3.35798">
        <ele>109.6</ele>
        <time>2025-10-20T12:22:18.000Z</time>
      </trkpt>
      <trkpt lat="49.33431" lon="3.35797">
        <ele>109.6</ele>
        <time>2025-10-20T12:22:19.000Z</time>
      </trkpt>
      <trkpt lat="49.33429" lon="3.35797">
        <ele>109.6</ele>
        <time>2025-10-20T12:22:20.000Z</time>
      </trkpt>
      <trkpt lat="49.33428" lon="3.35796">
        <ele>109.5</ele>
        <time>2025-10-20T12:22:21.000Z</time>
      </trkpt>
      <trkpt lat="49.33427" lon="3.35795">
        <ele>109</ele>
        <time>2025-10-20T12:22:22.000Z</time>
      </trkpt>
      <trkpt lat="49.33425" lon="3.35795">
        <ele>108.6</ele>
        <time>2025-10-20T12:22:23.000Z</time>
      </trkpt>
      <trkpt lat="49.33424" lon="3.35794">
        <ele>108.3</ele>
        <time>2025-10-20T12:22:24.000Z</time>
      </trkpt>
      <trkpt lat="49.33423" lon="3.35794">
        <ele>107.8</ele>
        <time>2025-10-20T12:22:25.000Z</time>
      </trkpt>
      <trkpt lat="49.33421" lon="3.35793">
        <ele>107.6</ele>
        <time>2025-10-20T12:22:26.000Z</time>
      </trkpt>
      <trkpt lat="49.3342" lon="3.35792">
        <ele>107.4</ele>
        <time>2025-10-20T12:22:27.000Z</time>
      </trkpt>
      <trkpt lat="49.33419" lon="3.35791">
        <ele>107.2</ele>
        <time>2025-10-20T12:22:28.000Z</time>
      </trkpt>
      <trkpt lat="49.33418" lon="3.3579">
        <ele>107</ele>
        <time>2025-10-20T12:22:29.000Z</time>
      </trkpt>
      <trkpt lat="49.33418" lon="3.35789">
        <ele>107.1</ele>
        <time>2025-10-20T12:22:30.000Z</time>
      </trkpt>
      <trkpt lat="49.33417" lon="3.35788">
        <ele>106.5</ele>
        <time>2025-10-20T12:22:31.000Z</time>
      </trkpt>
      <trkpt lat="49.33415" lon="3.35788">
        <ele>106.4</ele>
        <time>2025-10-20T12:22:32.000Z</time>
      </trkpt>
      <trkpt lat="49.33414" lon="3.35787">
        <ele>106.3</ele>
        <time>2025-10-20T12:22:33.000Z</time>
      </trkpt>
      <trkpt lat="49.33413" lon="3.35785">
        <ele>106.2</ele>
        <time>2025-10-20T12:22:34.000Z</time>
      </trkpt>
      <trkpt lat="49.33412" lon="3.35784">
        <ele>106.1</ele>
        <time>2025-10-20T12:22:35.000Z</time>
      </trkpt>
      <trkpt lat="49.33411" lon="3.35783">
        <ele>106.1</ele>
        <time>2025-10-20T12:22:36.000Z</time>
      </trkpt>
      <trkpt lat="49.3341" lon="3.35782">
        <ele>106</ele>
        <time>2025-10-20T12:22:37.000Z</time>
      </trkpt>
      <trkpt lat="49.33409" lon="3.35782">
        <ele>106.1</ele>
        <time>2025-10-20T12:22:38.000Z</time>
      </trkpt>
      <trkpt lat="49.33408" lon="3.35781">
        <ele>105.9</ele>
        <time>2025-10-20T12:22:39.000Z</time>
      </trkpt>
      <trkpt lat="49.33407" lon="3.3578">
        <ele>105.8</ele>
        <time>2025-10-20T12:22:40.000Z</time>
      </trkpt>
      <trkpt lat="49.33406" lon="3.35779">
        <ele>106</ele>
        <time>2025-10-20T12:22:41.000Z</time>
      </trkpt>
      <trkpt lat="49.33405" lon="3.35778">
        <ele>106.3</ele>
        <time>2025-10-20T12:22:42.000Z</time>
      </trkpt>
      <trkpt lat="49.33403" lon="3.35777">
        <ele>106.3</ele>
        <time>2025-10-20T12:22:43.000Z</time>
      </trkpt>
      <trkpt lat="49.33402" lon="3.35776">
        <ele>106.4</ele>
        <time>2025-10-20T12:22:44.000Z</time>
      </trkpt>
      <trkpt lat="49.33401" lon="3.35776">
        <ele>106.5</ele>
        <time>2025-10-20T12:22:45.000Z</time>
      </trkpt>
      <trkpt lat="49.334" lon="3.35775">
        <ele>106.5</ele>
        <time>2025-10-20T12:22:46.000Z</time>
      </trkpt>
      <trkpt lat="49.33399" lon="3.35774">
        <ele>106.9</ele>
        <time>2025-10-20T12:22:47.000Z</time>
      </trkpt>
      <trkpt lat="49.33398" lon="3.35773">
        <ele>107.6</ele>
        <time>2025-10-20T12:22:48.000Z</time>
      </trkpt>
      <trkpt lat="49.33396" lon="3.35773">
        <ele>107.6</ele>
        <time>2025-10-20T12:22:49.000Z</time>
      </trkpt>
      <trkpt lat="49.33395" lon="3.35772">
        <ele>107.5</ele>
        <time>2025-10-20T12:22:50.000Z</time>
      </trkpt>
      <trkpt lat="49.33394" lon="3.35771">
        <ele>107.6</ele>
        <time>2025-10-20T12:22:51.000Z</time>
      </trkpt>
      <trkpt lat="49.33393" lon="3.35769">
        <ele>107.3</ele>
        <time>2025-10-20T12:22:52.000Z</time>
      </trkpt>
      <trkpt lat="49.33392" lon="3.35768">
        <ele>107</ele>
        <time>2025-10-20T12:22:53.000Z</time>
      </trkpt>
      <trkpt lat="49.3339" lon="3.35766">
        <ele>107.5</ele>
        <time>2025-10-20T12:22:54.000Z</time>
      </trkpt>
      <trkpt lat="49.3339" lon="3.35765">
        <ele>107.9</ele>
        <time>2025-10-20T12:22:55.000Z</time>
      </trkpt>
      <trkpt lat="49.33388" lon="3.35764">
        <ele>108.4</ele>
        <time>2025-10-20T12:22:56.000Z</time>
      </trkpt>
      <trkpt lat="49.33387" lon="3.35764">
        <ele>108.4</ele>
        <time>2025-10-20T12:22:57.000Z</time>
      </trkpt>
      <trkpt lat="49.33386" lon="3.35763">
        <ele>108.7</ele>
        <time>2025-10-20T12:22:58.000Z</time>
      </trkpt>
      <trkpt lat="49.33385" lon="3.35762">
        <ele>108.9</ele>
        <time>2025-10-20T12:22:59.000Z</time>
      </trkpt>
      <trkpt lat="49.33383" lon="3.35761">
        <ele>109</ele>
        <time>2025-10-20T12:23:00.000Z</time>
      </trkpt>
      <trkpt lat="49.33382" lon="3.35759">
        <ele>108.9</ele>
        <time>2025-10-20T12:23:01.000Z</time>
      </trkpt>
      <trkpt lat="49.3338" lon="3.35759">
        <ele>108.3</ele>
        <time>2025-10-20T12:23:02.000Z</time>
      </trkpt>
      <trkpt lat="49.33378" lon="3.35758">
        <ele>107.9</ele>
        <time>2025-10-20T12:23:03.000Z</time>
      </trkpt>
      <trkpt lat="49.33377" lon="3.35758">
        <ele>107.8</ele>
        <time>2025-10-20T12:23:04.000Z</time>
      </trkpt>
      <trkpt lat="49.33376" lon="3.35757">
        <ele>107.4</ele>
        <time>2025-10-20T12:23:05.000Z</time>
      </trkpt>
      <trkpt lat="49.33375" lon="3.35756">
        <ele>106.8</ele>
        <time>2025-10-20T12:23:06.000Z</time>
      </trkpt>
      <trkpt lat="49.33374" lon="3.35755">
        <ele>106.5</ele>
        <time>2025-10-20T12:23:07.000Z</time>
      </trkpt>
      <trkpt lat="49.33373" lon="3.35754">
        <ele>106.3</ele>
        <time>2025-10-20T12:23:08.000Z</time>
      </trkpt>
      <trkpt lat="49.33371" lon="3.35753">
        <ele>106.1</ele>
        <time>2025-10-20T12:23:09.000Z</time>
      </trkpt>
      <trkpt lat="49.3337" lon="3.35752">
        <ele>105.7</ele>
        <time>2025-10-20T12:23:10.000Z</time>
      </trkpt>
      <trkpt lat="49.33369" lon="3.35751">
        <ele>105.3</ele>
        <time>2025-10-20T12:23:11.000Z</time>
      </trkpt>
      <trkpt lat="49.33368" lon="3.3575">
        <ele>105.1</ele>
        <time>2025-10-20T12:23:12.000Z</time>
      </trkpt>
      <trkpt lat="49.33367" lon="3.35749">
        <ele>105.1</ele>
        <time>2025-10-20T12:23:13.000Z</time>
      </trkpt>
      <trkpt lat="49.33365" lon="3.35748">
        <ele>104.9</ele>
        <time>2025-10-20T12:23:14.000Z</time>
      </trkpt>
      <trkpt lat="49.33364" lon="3.35748">
        <ele>104.7</ele>
        <time>2025-10-20T12:23:15.000Z</time>
      </trkpt>
      <trkpt lat="49.33363" lon="3.35747">
        <ele>104.8</ele>
        <time>2025-10-20T12:23:16.000Z</time>
      </trkpt>
      <trkpt lat="49.33362" lon="3.35745">
        <ele>104.8</ele>
        <time>2025-10-20T12:23:17.000Z</time>
      </trkpt>
      <trkpt lat="49.33361" lon="3.35745">
        <ele>104.8</ele>
        <time>2025-10-20T12:23:18.000Z</time>
      </trkpt>
      <trkpt lat="49.33359" lon="3.35745">
        <ele>105</ele>
        <time>2025-10-20T12:23:19.000Z</time>
      </trkpt>
      <trkpt lat="49.33358" lon="3.35744">
        <ele>105</ele>
        <time>2025-10-20T12:23:20.000Z</time>
      </trkpt>
      <trkpt lat="49.33357" lon="3.35743">
        <ele>105.1</ele>
        <time>2025-10-20T12:23:21.000Z</time>
      </trkpt>
      <trkpt lat="49.33355" lon="3.35742">
        <ele>105.3</ele>
        <time>2025-10-20T12:23:22.000Z</time>
      </trkpt>
      <trkpt lat="49.33354" lon="3.35741">
        <ele>105.2</ele>
        <time>2025-10-20T12:23:23.000Z</time>
      </trkpt>
      <trkpt lat="49.33353" lon="3.35739">
        <ele>105.3</ele>
        <time>2025-10-20T12:23:24.000Z</time>
      </trkpt>
      <trkpt lat="49.33352" lon="3.35738">
        <ele>105.4</ele>
        <time>2025-10-20T12:23:25.000Z</time>
      </trkpt>
      <trkpt lat="49.33351" lon="3.35738">
        <ele>105.5</ele>
        <time>2025-10-20T12:23:26.000Z</time>
      </trkpt>
      <trkpt lat="49.3335" lon="3.35737">
        <ele>105.4</ele>
        <time>2025-10-20T12:23:27.000Z</time>
      </trkpt>
      <trkpt lat="49.33348" lon="3.35736">
        <ele>105.2</ele>
        <time>2025-10-20T12:23:28.000Z</time>
      </trkpt>
      <trkpt lat="49.33347" lon="3.35736">
        <ele>105.2</ele>
        <time>2025-10-20T12:23:29.000Z</time>
      </trkpt>
      <trkpt lat="49.33346" lon="3.35735">
        <ele>105.3</ele>
        <time>2025-10-20T12:23:30.000Z</time>
      </trkpt>
      <trkpt lat="49.33345" lon="3.35734">
        <ele>104.9</ele>
        <time>2025-10-20T12:23:31.000Z</time>
      </trkpt>
      <trkpt lat="49.33345" lon="3.35732">
        <ele>105</ele>
        <time>2025-10-20T12:23:32.000Z</time>
      </trkpt>
      <trkpt lat="49.33343" lon="3.35731">
        <ele>105.1</ele>
        <time>2025-10-20T12:23:33.000Z</time>
      </trkpt>
      <trkpt lat="49.33342" lon="3.35731">
        <ele>105.1</ele>
        <time>2025-10-20T12:23:34.000Z</time>
      </trkpt>
      <trkpt lat="49.33341" lon="3.35731">
        <ele>105.2</ele>
        <time>2025-10-20T12:23:35.000Z</time>
      </trkpt>
      <trkpt lat="49.33339" lon="3.3573">
        <ele>105.3</ele>
        <time>2025-10-20T12:23:36.000Z</time>
      </trkpt>
      <trkpt lat="49.33338" lon="3.3573">
        <ele>105.1</ele>
        <time>2025-10-20T12:23:37.000Z</time>
      </trkpt>
      <trkpt lat="49.33337" lon="3.35728">
        <ele>104.7</ele>
        <time>2025-10-20T12:23:38.000Z</time>
      </trkpt>
      <trkpt lat="49.33335" lon="3.35727">
        <ele>104.1</ele>
        <time>2025-10-20T12:23:39.000Z</time>
      </trkpt>
      <trkpt lat="49.33334" lon="3.35726">
        <ele>103.8</ele>
        <time>2025-10-20T12:23:40.000Z</time>
      </trkpt>
      <trkpt lat="49.33333" lon="3.35725">
        <ele>103.4</ele>
        <time>2025-10-20T12:23:41.000Z</time>
      </trkpt>
      <trkpt lat="49.33332" lon="3.35724">
        <ele>103.1</ele>
        <time>2025-10-20T12:23:42.000Z</time>
      </trkpt>
      <trkpt lat="49.33331" lon="3.35723">
        <ele>102.6</ele>
        <time>2025-10-20T12:23:43.000Z</time>
      </trkpt>
      <trkpt lat="49.3333" lon="3.35722">
        <ele>102.3</ele>
        <time>2025-10-20T12:23:44.000Z</time>
      </trkpt>
      <trkpt lat="49.33329" lon="3.35721">
        <ele>102.7</ele>
        <time>2025-10-20T12:23:45.000Z</time>
      </trkpt>
      <trkpt lat="49.33328" lon="3.3572">
        <ele>102.3</ele>
        <time>2025-10-20T12:23:46.000Z</time>
      </trkpt>
      <trkpt lat="49.33327" lon="3.35719">
        <ele>101.9</ele>
        <time>2025-10-20T12:23:47.000Z</time>
      </trkpt>
      <trkpt lat="49.33325" lon="3.35718">
        <ele>101.9</ele>
        <time>2025-10-20T12:23:48.000Z</time>
      </trkpt>
      <trkpt lat="49.33324" lon="3.35718">
        <ele>102</ele>
        <time>2025-10-20T12:23:49.000Z</time>
      </trkpt>
      <trkpt lat="49.33322" lon="3.35717">
        <ele>101.9</ele>
        <time>2025-10-20T12:23:50.000Z</time>
      </trkpt>
      <trkpt lat="49.33321" lon="3.35716">
        <ele>102.1</ele>
        <time>2025-10-20T12:23:51.000Z</time>
      </trkpt>
      <trkpt lat="49.3332" lon="3.35715">
        <ele>102.5</ele>
        <time>2025-10-20T12:23:52.000Z</time>
      </trkpt>
      <trkpt lat="49.33319" lon="3.35714">
        <ele>102.7</ele>
        <time>2025-10-20T12:23:53.000Z</time>
      </trkpt>
      <trkpt lat="49.33317" lon="3.35713">
        <ele>102.6</ele>
        <time>2025-10-20T12:23:54.000Z</time>
      </trkpt>
      <trkpt lat="49.33316" lon="3.35713">
        <ele>102.5</ele>
        <time>2025-10-20T12:23:55.000Z</time>
      </trkpt>
      <trkpt lat="49.33314" lon="3.35712">
        <ele>102.5</ele>
        <time>2025-10-20T12:23:56.000Z</time>
      </trkpt>
      <trkpt lat="49.33313" lon="3.35711">
        <ele>102.9</ele>
        <time>2025-10-20T12:23:57.000Z</time>
      </trkpt>
      <trkpt lat="49.33311" lon="3.35711">
        <ele>103.5</ele>
        <time>2025-10-20T12:23:58.000Z</time>
      </trkpt>
      <trkpt lat="49.3331" lon="3.3571">
        <ele>104.3</ele>
        <time>2025-10-20T12:23:59.000Z</time>
      </trkpt>
      <trkpt lat="49.33308" lon="3.35708">
        <ele>104.7</ele>
        <time>2025-10-20T12:24:00.000Z</time>
      </trkpt>
      <trkpt lat="49.33307" lon="3.35707">
        <ele>104.9</ele>
        <time>2025-10-20T12:24:01.000Z</time>
      </trkpt>
      <trkpt lat="49.33306" lon="3.35706">
        <ele>105.1</ele>
        <time>2025-10-20T12:24:02.000Z</time>
      </trkpt>
      <trkpt lat="49.33305" lon="3.35705">
        <ele>105.2</ele>
        <time>2025-10-20T12:24:03.000Z</time>
      </trkpt>
      <trkpt lat="49.33304" lon="3.35704">
        <ele>105.4</ele>
        <time>2025-10-20T12:24:04.000Z</time>
      </trkpt>
      <trkpt lat="49.33303" lon="3.35703">
        <ele>105.5</ele>
        <time>2025-10-20T12:24:05.000Z</time>
      </trkpt>
      <trkpt lat="49.33302" lon="3.35703">
        <ele>105.5</ele>
        <time>2025-10-20T12:24:06.000Z</time>
      </trkpt>
      <trkpt lat="49.33301" lon="3.35702">
        <ele>105.3</ele>
        <time>2025-10-20T12:24:07.000Z</time>
      </trkpt>
      <trkpt lat="49.33299" lon="3.35701">
        <ele>105.3</ele>
        <time>2025-10-20T12:24:08.000Z</time>
      </trkpt>
      <trkpt lat="49.33298" lon="3.357">
        <ele>105</ele>
        <time>2025-10-20T12:24:09.000Z</time>
      </trkpt>
      <trkpt lat="49.33297" lon="3.35698">
        <ele>104.4</ele>
        <time>2025-10-20T12:24:10.000Z</time>
      </trkpt>
      <trkpt lat="49.33296" lon="3.35697">
        <ele>103.6</ele>
        <time>2025-10-20T12:24:11.000Z</time>
      </trkpt>
      <trkpt lat="49.33295" lon="3.35697">
        <ele>102.9</ele>
        <time>2025-10-20T12:24:12.000Z</time>
      </trkpt>
      <trkpt lat="49.33293" lon="3.35697">
        <ele>102.7</ele>
        <time>2025-10-20T12:24:13.000Z</time>
      </trkpt>
      <trkpt lat="49.33292" lon="3.35695">
        <ele>102.3</ele>
        <time>2025-10-20T12:24:14.000Z</time>
      </trkpt>
      <trkpt lat="49.33292" lon="3.35695">
        <ele>101.8</ele>
        <time>2025-10-20T12:24:15.000Z</time>
      </trkpt>
      <trkpt lat="49.3329" lon="3.35694">
        <ele>101.5</ele>
        <time>2025-10-20T12:24:16.000Z</time>
      </trkpt>
      <trkpt lat="49.33289" lon="3.35692">
        <ele>101.3</ele>
        <time>2025-10-20T12:24:17.000Z</time>
      </trkpt>
      <trkpt lat="49.33288" lon="3.35692">
        <ele>101.1</ele>
        <time>2025-10-20T12:24:18.000Z</time>
      </trkpt>
      <trkpt lat="49.33287" lon="3.35691">
        <ele>101</ele>
        <time>2025-10-20T12:24:19.000Z</time>
      </trkpt>
      <trkpt lat="49.33285" lon="3.3569">
        <ele>101</ele>
        <time>2025-10-20T12:24:20.000Z</time>
      </trkpt>
      <trkpt lat="49.33284" lon="3.35689">
        <ele>100.8</ele>
        <time>2025-10-20T12:24:21.000Z</time>
      </trkpt>
      <trkpt lat="49.33283" lon="3.35687">
        <ele>100.5</ele>
        <time>2025-10-20T12:24:22.000Z</time>
      </trkpt>
      <trkpt lat="49.33282" lon="3.35687">
        <ele>100.5</ele>
        <time>2025-10-20T12:24:23.000Z</time>
      </trkpt>
      <trkpt lat="49.33281" lon="3.35686">
        <ele>100.5</ele>
        <time>2025-10-20T12:24:24.000Z</time>
      </trkpt>
      <trkpt lat="49.33279" lon="3.35685">
        <ele>100.6</ele>
        <time>2025-10-20T12:24:25.000Z</time>
      </trkpt>
      <trkpt lat="49.33278" lon="3.35684">
        <ele>100.6</ele>
        <time>2025-10-20T12:24:26.000Z</time>
      </trkpt>
      <trkpt lat="49.33277" lon="3.35683">
        <ele>100.7</ele>
        <time>2025-10-20T12:24:27.000Z</time>
      </trkpt>
      <trkpt lat="49.33275" lon="3.35682">
        <ele>101</ele>
        <time>2025-10-20T12:24:28.000Z</time>
      </trkpt>
      <trkpt lat="49.33274" lon="3.35681">
        <ele>101.3</ele>
        <time>2025-10-20T12:24:29.000Z</time>
      </trkpt>
      <trkpt lat="49.33273" lon="3.3568">
        <ele>101.7</ele>
        <time>2025-10-20T12:24:30.000Z</time>
      </trkpt>
      <trkpt lat="49.33272" lon="3.35679">
        <ele>101.9</ele>
        <time>2025-10-20T12:24:31.000Z</time>
      </trkpt>
      <trkpt lat="49.3327" lon="3.35678">
        <ele>102</ele>
        <time>2025-10-20T12:24:32.000Z</time>
      </trkpt>
      <trkpt lat="49.33269" lon="3.35677">
        <ele>102.1</ele>
        <time>2025-10-20T12:24:33.000Z</time>
      </trkpt>
      <trkpt lat="49.33268" lon="3.35676">
        <ele>102.1</ele>
        <time>2025-10-20T12:24:34.000Z</time>
      </trkpt>
      <trkpt lat="49.33266" lon="3.35675">
        <ele>102.4</ele>
        <time>2025-10-20T12:24:35.000Z</time>
      </trkpt>
      <trkpt lat="49.33265" lon="3.35674">
        <ele>102.5</ele>
        <time>2025-10-20T12:24:36.000Z</time>
      </trkpt>
      <trkpt lat="49.33264" lon="3.35673">
        <ele>102.9</ele>
        <time>2025-10-20T12:24:37.000Z</time>
      </trkpt>
      <trkpt lat="49.33263" lon="3.35672">
        <ele>103</ele>
        <time>2025-10-20T12:24:38.000Z</time>
      </trkpt>
      <trkpt lat="49.33262" lon="3.35671">
        <ele>103</ele>
        <time>2025-10-20T12:24:39.000Z</time>
      </trkpt>
      <trkpt lat="49.33261" lon="3.3567">
        <ele>102.7</ele>
        <time>2025-10-20T12:24:40.000Z</time>
      </trkpt>
      <trkpt lat="49.3326" lon="3.35669">
        <ele>102.5</ele>
        <time>2025-10-20T12:24:41.000Z</time>
      </trkpt>
      <trkpt lat="49.33259" lon="3.35668">
        <ele>102.2</ele>
        <time>2025-10-20T12:24:42.000Z</time>
      </trkpt>
      <trkpt lat="49.33259" lon="3.35667">
        <ele>102.2</ele>
        <time>2025-10-20T12:24:43.000Z</time>
      </trkpt>
      <trkpt lat="49.33258" lon="3.35666">
        <ele>102.3</ele>
        <time>2025-10-20T12:24:44.000Z</time>
      </trkpt>
      <trkpt lat="49.33256" lon="3.35666">
        <ele>102.5</ele>
        <time>2025-10-20T12:24:45.000Z</time>
      </trkpt>
      <trkpt lat="49.33255" lon="3.35665">
        <ele>102.4</ele>
        <time>2025-10-20T12:24:46.000Z</time>
      </trkpt>
      <trkpt lat="49.33254" lon="3.35664">
        <ele>102.4</ele>
        <time>2025-10-20T12:24:47.000Z</time>
      </trkpt>
      <trkpt lat="49.33253" lon="3.35663">
        <ele>102.3</ele>
        <time>2025-10-20T12:24:48.000Z</time>
      </trkpt>
      <trkpt lat="49.33252" lon="3.35662">
        <ele>102</ele>
        <time>2025-10-20T12:24:49.000Z</time>
      </trkpt>
      <trkpt lat="49.3325" lon="3.35661">
        <ele>102.1</ele>
        <time>2025-10-20T12:24:50.000Z</time>
      </trkpt>
      <trkpt lat="49.33249" lon="3.35661">
        <ele>101.7</ele>
        <time>2025-10-20T12:24:51.000Z</time>
      </trkpt>
      <trkpt lat="49.33248" lon="3.3566">
        <ele>101.4</ele>
        <time>2025-10-20T12:24:52.000Z</time>
      </trkpt>
      <trkpt lat="49.33246" lon="3.35659">
        <ele>101.5</ele>
        <time>2025-10-20T12:24:53.000Z</time>
      </trkpt>
      <trkpt lat="49.33245" lon="3.35658">
        <ele>102</ele>
        <time>2025-10-20T12:24:54.000Z</time>
      </trkpt>
      <trkpt lat="49.33244" lon="3.35657">
        <ele>102.3</ele>
        <time>2025-10-20T12:24:55.000Z</time>
      </trkpt>
      <trkpt lat="49.33243" lon="3.35656">
        <ele>102.6</ele>
        <time>2025-10-20T12:24:56.000Z</time>
      </trkpt>
      <trkpt lat="49.33241" lon="3.35656">
        <ele>102.6</ele>
        <time>2025-10-20T12:24:57.000Z</time>
      </trkpt>
      <trkpt lat="49.3324" lon="3.35655">
        <ele>102.5</ele>
        <time>2025-10-20T12:24:58.000Z</time>
      </trkpt>
      <trkpt lat="49.33239" lon="3.35654">
        <ele>102.4</ele>
        <time>2025-10-20T12:24:59.000Z</time>
      </trkpt>
      <trkpt lat="49.33238" lon="3.35653">
        <ele>102.2</ele>
        <time>2025-10-20T12:25:00.000Z</time>
      </trkpt>
      <trkpt lat="49.33237" lon="3.35652">
        <ele>101.9</ele>
        <time>2025-10-20T12:25:01.000Z</time>
      </trkpt>
      <trkpt lat="49.33236" lon="3.35651">
        <ele>101.6</ele>
        <time>2025-10-20T12:25:02.000Z</time>
      </trkpt>
      <trkpt lat="49.33235" lon="3.3565">
        <ele>101.5</ele>
        <time>2025-10-20T12:25:03.000Z</time>
      </trkpt>
      <trkpt lat="49.33233" lon="3.35649">
        <ele>101.4</ele>
        <time>2025-10-20T12:25:04.000Z</time>
      </trkpt>
      <trkpt lat="49.33232" lon="3.35648">
        <ele>101.5</ele>
        <time>2025-10-20T12:25:05.000Z</time>
      </trkpt>
      <trkpt lat="49.3323" lon="3.35647">
        <ele>101.5</ele>
        <time>2025-10-20T12:25:06.000Z</time>
      </trkpt>
      <trkpt lat="49.33229" lon="3.35647">
        <ele>101.5</ele>
        <time>2025-10-20T12:25:07.000Z</time>
      </trkpt>
      <trkpt lat="49.33228" lon="3.35646">
        <ele>101.3</ele>
        <time>2025-10-20T12:25:08.000Z</time>
      </trkpt>
      <trkpt lat="49.33227" lon="3.35645">
        <ele>101.3</ele>
        <time>2025-10-20T12:25:09.000Z</time>
      </trkpt>
      <trkpt lat="49.33226" lon="3.35644">
        <ele>101.2</ele>
        <time>2025-10-20T12:25:10.000Z</time>
      </trkpt>
      <trkpt lat="49.33224" lon="3.35643">
        <ele>101.1</ele>
        <time>2025-10-20T12:25:11.000Z</time>
      </trkpt>
      <trkpt lat="49.33223" lon="3.35642">
        <ele>101</ele>
        <time>2025-10-20T12:25:12.000Z</time>
      </trkpt>
      <trkpt lat="49.33222" lon="3.3564">
        <ele>101.2</ele>
        <time>2025-10-20T12:25:13.000Z</time>
      </trkpt>
      <trkpt lat="49.33221" lon="3.35639">
        <ele>101.4</ele>
        <time>2025-10-20T12:25:14.000Z</time>
      </trkpt>
      <trkpt lat="49.33219" lon="3.35638">
        <ele>101.5</ele>
        <time>2025-10-20T12:25:15.000Z</time>
      </trkpt>
      <trkpt lat="49.33218" lon="3.35637">
        <ele>101.5</ele>
        <time>2025-10-20T12:25:16.000Z</time>
      </trkpt>
      <trkpt lat="49.33217" lon="3.35635">
        <ele>101.5</ele>
        <time>2025-10-20T12:25:17.000Z</time>
      </trkpt>
      <trkpt lat="49.33216" lon="3.35634">
        <ele>101.6</ele>
        <time>2025-10-20T12:25:18.000Z</time>
      </trkpt>
      <trkpt lat="49.33214" lon="3.35634">
        <ele>101.6</ele>
        <time>2025-10-20T12:25:19.000Z</time>
      </trkpt>
      <trkpt lat="49.33213" lon="3.35633">
        <ele>101.4</ele>
        <time>2025-10-20T12:25:20.000Z</time>
      </trkpt>
      <trkpt lat="49.33212" lon="3.35632">
        <ele>101.5</ele>
        <time>2025-10-20T12:25:21.000Z</time>
      </trkpt>
      <trkpt lat="49.3321" lon="3.35631">
        <ele>101.6</ele>
        <time>2025-10-20T12:25:22.000Z</time>
      </trkpt>
      <trkpt lat="49.33209" lon="3.3563">
        <ele>101.7</ele>
        <time>2025-10-20T12:25:23.000Z</time>
      </trkpt>
      <trkpt lat="49.33208" lon="3.35629">
        <ele>101.5</ele>
        <time>2025-10-20T12:25:24.000Z</time>
      </trkpt>
      <trkpt lat="49.33207" lon="3.35629">
        <ele>101.4</ele>
        <time>2025-10-20T12:25:25.000Z</time>
      </trkpt>
      <trkpt lat="49.33206" lon="3.35628">
        <ele>101.1</ele>
        <time>2025-10-20T12:25:26.000Z</time>
      </trkpt>
      <trkpt lat="49.33205" lon="3.35628">
        <ele>100.8</ele>
        <time>2025-10-20T12:25:27.000Z</time>
      </trkpt>
      <trkpt lat="49.33204" lon="3.35628">
        <ele>100.9</ele>
        <time>2025-10-20T12:25:28.000Z</time>
      </trkpt>
      <trkpt lat="49.33203" lon="3.35627">
        <ele>101</ele>
        <time>2025-10-20T12:25:29.000Z</time>
      </trkpt>
      <trkpt lat="49.33203" lon="3.35626">
        <ele>100.8</ele>
        <time>2025-10-20T12:25:30.000Z</time>
      </trkpt>
      <trkpt lat="49.33202" lon="3.35625">
        <ele>100.6</ele>
        <time>2025-10-20T12:25:31.000Z</time>
      </trkpt>
      <trkpt lat="49.33201" lon="3.35624">
        <ele>100.6</ele>
        <time>2025-10-20T12:25:32.000Z</time>
      </trkpt>
      <trkpt lat="49.332" lon="3.35624">
        <ele>100.4</ele>
        <time>2025-10-20T12:25:33.000Z</time>
      </trkpt>
      <trkpt lat="49.33199" lon="3.35623">
        <ele>100.1</ele>
        <time>2025-10-20T12:25:34.000Z</time>
      </trkpt>
      <trkpt lat="49.33198" lon="3.35622">
        <ele>99.9</ele>
        <time>2025-10-20T12:25:35.000Z</time>
      </trkpt>
      <trkpt lat="49.33197" lon="3.35621">
        <ele>99.4</ele>
        <time>2025-10-20T12:25:36.000Z</time>
      </trkpt>
      <trkpt lat="49.33196" lon="3.3562">
        <ele>98.9</ele>
        <time>2025-10-20T12:25:37.000Z</time>
      </trkpt>
      <trkpt lat="49.33195" lon="3.35619">
        <ele>98.8</ele>
        <time>2025-10-20T12:25:38.000Z</time>
      </trkpt>
      <trkpt lat="49.33194" lon="3.35618">
        <ele>99.1</ele>
        <time>2025-10-20T12:25:39.000Z</time>
      </trkpt>
      <trkpt lat="49.33192" lon="3.35617">
        <ele>99.3</ele>
        <time>2025-10-20T12:25:40.000Z</time>
      </trkpt>
      <trkpt lat="49.33191" lon="3.35617">
        <ele>99.7</ele>
        <time>2025-10-20T12:25:41.000Z</time>
      </trkpt>
      <trkpt lat="49.3319" lon="3.35616">
        <ele>100</ele>
        <time>2025-10-20T12:25:42.000Z</time>
      </trkpt>
      <trkpt lat="49.33189" lon="3.35615">
        <ele>100.1</ele>
        <time>2025-10-20T12:25:43.000Z</time>
      </trkpt>
      <trkpt lat="49.33188" lon="3.35613">
        <ele>100.4</ele>
        <time>2025-10-20T12:25:44.000Z</time>
      </trkpt>
      <trkpt lat="49.33187" lon="3.35612">
        <ele>100.4</ele>
        <time>2025-10-20T12:25:45.000Z</time>
      </trkpt>
      <trkpt lat="49.33186" lon="3.35611">
        <ele>100.6</ele>
        <time>2025-10-20T12:25:46.000Z</time>
      </trkpt>
      <trkpt lat="49.33185" lon="3.3561">
        <ele>100.6</ele>
        <time>2025-10-20T12:25:47.000Z</time>
      </trkpt>
      <trkpt lat="49.33183" lon="3.35609">
        <ele>100.6</ele>
        <time>2025-10-20T12:25:48.000Z</time>
      </trkpt>
      <trkpt lat="49.33182" lon="3.35608">
        <ele>100.5</ele>
        <time>2025-10-20T12:25:49.000Z</time>
      </trkpt>
      <trkpt lat="49.33181" lon="3.35607">
        <ele>100.4</ele>
        <time>2025-10-20T12:25:50.000Z</time>
      </trkpt>
      <trkpt lat="49.33179" lon="3.35606">
        <ele>100.3</ele>
        <time>2025-10-20T12:25:51.000Z</time>
      </trkpt>
      <trkpt lat="49.33178" lon="3.35605">
        <ele>100.1</ele>
        <time>2025-10-20T12:25:52.000Z</time>
      </trkpt>
      <trkpt lat="49.33176" lon="3.35604">
        <ele>100</ele>
        <time>2025-10-20T12:25:53.000Z</time>
      </trkpt>
      <trkpt lat="49.33175" lon="3.35603">
        <ele>100</ele>
        <time>2025-10-20T12:25:54.000Z</time>
      </trkpt>
      <trkpt lat="49.33174" lon="3.35602">
        <ele>100.1</ele>
        <time>2025-10-20T12:25:55.000Z</time>
      </trkpt>
      <trkpt lat="49.33172" lon="3.35602">
        <ele>100.4</ele>
        <time>2025-10-20T12:25:56.000Z</time>
      </trkpt>
      <trkpt lat="49.33171" lon="3.35601">
        <ele>100.1</ele>
        <time>2025-10-20T12:25:57.000Z</time>
      </trkpt>
      <trkpt lat="49.33171" lon="3.356">
        <ele>99.7</ele>
        <time>2025-10-20T12:25:58.000Z</time>
      </trkpt>
      <trkpt lat="49.33169" lon="3.356">
        <ele>99.3</ele>
        <time>2025-10-20T12:25:59.000Z</time>
      </trkpt>
      <trkpt lat="49.33168" lon="3.35599">
        <ele>99</ele>
        <time>2025-10-20T12:26:00.000Z</time>
      </trkpt>
      <trkpt lat="49.33168" lon="3.35598">
        <ele>99.1</ele>
        <time>2025-10-20T12:26:01.000Z</time>
      </trkpt>
      <trkpt lat="49.33167" lon="3.35598">
        <ele>99</ele>
        <time>2025-10-20T12:26:02.000Z</time>
      </trkpt>
      <trkpt lat="49.33165" lon="3.35597">
        <ele>98.6</ele>
        <time>2025-10-20T12:26:03.000Z</time>
      </trkpt>
      <trkpt lat="49.33164" lon="3.35596">
        <ele>98.2</ele>
        <time>2025-10-20T12:26:04.000Z</time>
      </trkpt>
      <trkpt lat="49.33163" lon="3.35595">
        <ele>97.8</ele>
        <time>2025-10-20T12:26:05.000Z</time>
      </trkpt>
      <trkpt lat="49.33162" lon="3.35593">
        <ele>97.4</ele>
        <time>2025-10-20T12:26:06.000Z</time>
      </trkpt>
      <trkpt lat="49.3316" lon="3.35592">
        <ele>97.2</ele>
        <time>2025-10-20T12:26:07.000Z</time>
      </trkpt>
      <trkpt lat="49.33159" lon="3.35592">
        <ele>96.8</ele>
        <time>2025-10-20T12:26:08.000Z</time>
      </trkpt>
      <trkpt lat="49.33158" lon="3.35591">
        <ele>96.5</ele>
        <time>2025-10-20T12:26:09.000Z</time>
      </trkpt>
      <trkpt lat="49.33157" lon="3.35591">
        <ele>96.2</ele>
        <time>2025-10-20T12:26:10.000Z</time>
      </trkpt>
      <trkpt lat="49.33155" lon="3.3559">
        <ele>96.2</ele>
        <time>2025-10-20T12:26:11.000Z</time>
      </trkpt>
      <trkpt lat="49.33153" lon="3.35589">
        <ele>96.4</ele>
        <time>2025-10-20T12:26:12.000Z</time>
      </trkpt>
      <trkpt lat="49.33152" lon="3.35588">
        <ele>96.5</ele>
        <time>2025-10-20T12:26:13.000Z</time>
      </trkpt>
      <trkpt lat="49.3315" lon="3.35587">
        <ele>96.8</ele>
        <time>2025-10-20T12:26:14.000Z</time>
      </trkpt>
      <trkpt lat="49.33149" lon="3.35586">
        <ele>97.1</ele>
        <time>2025-10-20T12:26:15.000Z</time>
      </trkpt>
      <trkpt lat="49.33147" lon="3.35584">
        <ele>97.6</ele>
        <time>2025-10-20T12:26:16.000Z</time>
      </trkpt>
      <trkpt lat="49.33146" lon="3.35583">
        <ele>98.2</ele>
        <time>2025-10-20T12:26:17.000Z</time>
      </trkpt>
      <trkpt lat="49.33145" lon="3.35582">
        <ele>98.3</ele>
        <time>2025-10-20T12:26:18.000Z</time>
      </trkpt>
      <trkpt lat="49.33143" lon="3.35581">
        <ele>98.4</ele>
        <time>2025-10-20T12:26:19.000Z</time>
      </trkpt>
      <trkpt lat="49.33142" lon="3.3558">
        <ele>98.3</ele>
        <time>2025-10-20T12:26:20.000Z</time>
      </trkpt>
      <trkpt lat="49.33141" lon="3.3558">
        <ele>98.3</ele>
        <time>2025-10-20T12:26:21.000Z</time>
      </trkpt>
      <trkpt lat="49.33139" lon="3.35579">
        <ele>98.2</ele>
        <time>2025-10-20T12:26:22.000Z</time>
      </trkpt>
      <trkpt lat="49.33138" lon="3.35579">
        <ele>98</ele>
        <time>2025-10-20T12:26:23.000Z</time>
      </trkpt>
      <trkpt lat="49.33136" lon="3.35578">
        <ele>97.8</ele>
        <time>2025-10-20T12:26:24.000Z</time>
      </trkpt>
      <trkpt lat="49.33135" lon="3.35578">
        <ele>98.1</ele>
        <time>2025-10-20T12:26:25.000Z</time>
      </trkpt>
      <trkpt lat="49.33133" lon="3.35578">
        <ele>98.2</ele>
        <time>2025-10-20T12:26:26.000Z</time>
      </trkpt>
      <trkpt lat="49.33132" lon="3.35578">
        <ele>98.6</ele>
        <time>2025-10-20T12:26:27.000Z</time>
      </trkpt>
      <trkpt lat="49.33131" lon="3.35577">
        <ele>98.8</ele>
        <time>2025-10-20T12:26:28.000Z</time>
      </trkpt>
      <trkpt lat="49.33129" lon="3.35577">
        <ele>99.1</ele>
        <time>2025-10-20T12:26:29.000Z</time>
      </trkpt>
      <trkpt lat="49.33128" lon="3.35577">
        <ele>99.3</ele>
        <time>2025-10-20T12:26:30.000Z</time>
      </trkpt>
      <trkpt lat="49.33127" lon="3.35576">
        <ele>99.5</ele>
        <time>2025-10-20T12:26:31.000Z</time>
      </trkpt>
      <trkpt lat="49.33125" lon="3.35576">
        <ele>99.5</ele>
        <time>2025-10-20T12:26:32.000Z</time>
      </trkpt>
      <trkpt lat="49.33124" lon="3.35575">
        <ele>99.4</ele>
        <time>2025-10-20T12:26:33.000Z</time>
      </trkpt>
      <trkpt lat="49.33122" lon="3.35575">
        <ele>99.4</ele>
        <time>2025-10-20T12:26:34.000Z</time>
      </trkpt>
      <trkpt lat="49.33121" lon="3.35575">
        <ele>99.3</ele>
        <time>2025-10-20T12:26:35.000Z</time>
      </trkpt>
      <trkpt lat="49.3312" lon="3.35575">
        <ele>99.3</ele>
        <time>2025-10-20T12:26:36.000Z</time>
      </trkpt>
      <trkpt lat="49.33119" lon="3.35575">
        <ele>99</ele>
        <time>2025-10-20T12:26:37.000Z</time>
      </trkpt>
      <trkpt lat="49.33117" lon="3.35574">
        <ele>99</ele>
        <time>2025-10-20T12:26:38.000Z</time>
      </trkpt>
      <trkpt lat="49.33116" lon="3.35574">
        <ele>98.8</ele>
        <time>2025-10-20T12:26:39.000Z</time>
      </trkpt>
      <trkpt lat="49.33115" lon="3.35575">
        <ele>98.4</ele>
        <time>2025-10-20T12:26:40.000Z</time>
      </trkpt>
      <trkpt lat="49.33114" lon="3.35576">
        <ele>98.2</ele>
        <time>2025-10-20T12:26:41.000Z</time>
      </trkpt>
      <trkpt lat="49.33112" lon="3.35576">
        <ele>98.1</ele>
        <time>2025-10-20T12:26:42.000Z</time>
      </trkpt>
      <trkpt lat="49.3311" lon="3.35577">
        <ele>98.4</ele>
        <time>2025-10-20T12:26:43.000Z</time>
      </trkpt>
      <trkpt lat="49.33109" lon="3.35578">
        <ele>98.5</ele>
        <time>2025-10-20T12:26:44.000Z</time>
      </trkpt>
      <trkpt lat="49.33107" lon="3.35579">
        <ele>98.8</ele>
        <time>2025-10-20T12:26:45.000Z</time>
      </trkpt>
      <trkpt lat="49.33105" lon="3.3558">
        <ele>98.9</ele>
        <time>2025-10-20T12:26:46.000Z</time>
      </trkpt>
      <trkpt lat="49.33104" lon="3.35581">
        <ele>99.1</ele>
        <time>2025-10-20T12:26:47.000Z</time>
      </trkpt>
      <trkpt lat="49.33103" lon="3.35581">
        <ele>99.3</ele>
        <time>2025-10-20T12:26:48.000Z</time>
      </trkpt>
      <trkpt lat="49.33102" lon="3.35582">
        <ele>99.4</ele>
        <time>2025-10-20T12:26:49.000Z</time>
      </trkpt>
      <trkpt lat="49.33101" lon="3.35581">
        <ele>99.2</ele>
        <time>2025-10-20T12:26:50.000Z</time>
      </trkpt>
      <trkpt lat="49.331" lon="3.35581">
        <ele>99.1</ele>
        <time>2025-10-20T12:26:51.000Z</time>
      </trkpt>
      <trkpt lat="49.33099" lon="3.35581">
        <ele>98.9</ele>
        <time>2025-10-20T12:26:52.000Z</time>
      </trkpt>
      <trkpt lat="49.33097" lon="3.3558">
        <ele>98.3</ele>
        <time>2025-10-20T12:26:53.000Z</time>
      </trkpt>
      <trkpt lat="49.33096" lon="3.35579">
        <ele>97.7</ele>
        <time>2025-10-20T12:26:54.000Z</time>
      </trkpt>
      <trkpt lat="49.33095" lon="3.35578">
        <ele>97.5</ele>
        <time>2025-10-20T12:26:55.000Z</time>
      </trkpt>
      <trkpt lat="49.33094" lon="3.35578">
        <ele>97.6</ele>
        <time>2025-10-20T12:26:56.000Z</time>
      </trkpt>
      <trkpt lat="49.33092" lon="3.35577">
        <ele>97.8</ele>
        <time>2025-10-20T12:26:57.000Z</time>
      </trkpt>
      <trkpt lat="49.3309" lon="3.35576">
        <ele>97.9</ele>
        <time>2025-10-20T12:26:58.000Z</time>
      </trkpt>
      <trkpt lat="49.33089" lon="3.35575">
        <ele>98.2</ele>
        <time>2025-10-20T12:26:59.000Z</time>
      </trkpt>
      <trkpt lat="49.33087" lon="3.35573">
        <ele>98.5</ele>
        <time>2025-10-20T12:27:00.000Z</time>
      </trkpt>
      <trkpt lat="49.33086" lon="3.35573">
        <ele>98.3</ele>
        <time>2025-10-20T12:27:01.000Z</time>
      </trkpt>
      <trkpt lat="49.33085" lon="3.35572">
        <ele>98.1</ele>
        <time>2025-10-20T12:27:02.000Z</time>
      </trkpt>
      <trkpt lat="49.33083" lon="3.35571">
        <ele>98.1</ele>
        <time>2025-10-20T12:27:03.000Z</time>
      </trkpt>
      <trkpt lat="49.33082" lon="3.3557">
        <ele>98</ele>
        <time>2025-10-20T12:27:04.000Z</time>
      </trkpt>
      <trkpt lat="49.33081" lon="3.35569">
        <ele>98.1</ele>
        <time>2025-10-20T12:27:05.000Z</time>
      </trkpt>
      <trkpt lat="49.3308" lon="3.35568">
        <ele>98.2</ele>
        <time>2025-10-20T12:27:06.000Z</time>
      </trkpt>
      <trkpt lat="49.33078" lon="3.35567">
        <ele>98.3</ele>
        <time>2025-10-20T12:27:07.000Z</time>
      </trkpt>
      <trkpt lat="49.33077" lon="3.35566">
        <ele>98.5</ele>
        <time>2025-10-20T12:27:08.000Z</time>
      </trkpt>
      <trkpt lat="49.33075" lon="3.35564">
        <ele>98.6</ele>
        <time>2025-10-20T12:27:09.000Z</time>
      </trkpt>
      <trkpt lat="49.33074" lon="3.35563">
        <ele>98.9</ele>
        <time>2025-10-20T12:27:10.000Z</time>
      </trkpt>
      <trkpt lat="49.33072" lon="3.35562">
        <ele>99.3</ele>
        <time>2025-10-20T12:27:11.000Z</time>
      </trkpt>
      <trkpt lat="49.33071" lon="3.35561">
        <ele>99.2</ele>
        <time>2025-10-20T12:27:12.000Z</time>
      </trkpt>
      <trkpt lat="49.3307" lon="3.35561">
        <ele>99.2</ele>
        <time>2025-10-20T12:27:13.000Z</time>
      </trkpt>
      <trkpt lat="49.33069" lon="3.35559">
        <ele>98.9</ele>
        <time>2025-10-20T12:27:14.000Z</time>
      </trkpt>
      <trkpt lat="49.33068" lon="3.35558">
        <ele>98.8</ele>
        <time>2025-10-20T12:27:15.000Z</time>
      </trkpt>
      <trkpt lat="49.33067" lon="3.35558">
        <ele>98.6</ele>
        <time>2025-10-20T12:27:16.000Z</time>
      </trkpt>
      <trkpt lat="49.33065" lon="3.35557">
        <ele>98.8</ele>
        <time>2025-10-20T12:27:17.000Z</time>
      </trkpt>
      <trkpt lat="49.33064" lon="3.35556">
        <ele>98.9</ele>
        <time>2025-10-20T12:27:18.000Z</time>
      </trkpt>
      <trkpt lat="49.33063" lon="3.35555">
        <ele>98.8</ele>
        <time>2025-10-20T12:27:19.000Z</time>
      </trkpt>
      <trkpt lat="49.33062" lon="3.35554">
        <ele>98.7</ele>
        <time>2025-10-20T12:27:20.000Z</time>
      </trkpt>
      <trkpt lat="49.3306" lon="3.35553">
        <ele>98.9</ele>
        <time>2025-10-20T12:27:21.000Z</time>
      </trkpt>
      <trkpt lat="49.33059" lon="3.35553">
        <ele>98.8</ele>
        <time>2025-10-20T12:27:22.000Z</time>
      </trkpt>
      <trkpt lat="49.33058" lon="3.35552">
        <ele>98.5</ele>
        <time>2025-10-20T12:27:23.000Z</time>
      </trkpt>
      <trkpt lat="49.33056" lon="3.35551">
        <ele>98.3</ele>
        <time>2025-10-20T12:27:24.000Z</time>
      </trkpt>
      <trkpt lat="49.33055" lon="3.3555">
        <ele>98.4</ele>
        <time>2025-10-20T12:27:25.000Z</time>
      </trkpt>
      <trkpt lat="49.33054" lon="3.35549">
        <ele>98.1</ele>
        <time>2025-10-20T12:27:26.000Z</time>
      </trkpt>
      <trkpt lat="49.33053" lon="3.35548">
        <ele>97.7</ele>
        <time>2025-10-20T12:27:27.000Z</time>
      </trkpt>
      <trkpt lat="49.33052" lon="3.35548">
        <ele>97.5</ele>
        <time>2025-10-20T12:27:28.000Z</time>
      </trkpt>
      <trkpt lat="49.33051" lon="3.35547">
        <ele>97.4</ele>
        <time>2025-10-20T12:27:29.000Z</time>
      </trkpt>
      <trkpt lat="49.3305" lon="3.35546">
        <ele>97.3</ele>
        <time>2025-10-20T12:27:30.000Z</time>
      </trkpt>
      <trkpt lat="49.33049" lon="3.35545">
        <ele>97</ele>
        <time>2025-10-20T12:27:31.000Z</time>
      </trkpt>
      <trkpt lat="49.33047" lon="3.35545">
        <ele>96.9</ele>
        <time>2025-10-20T12:27:32.000Z</time>
      </trkpt>
      <trkpt lat="49.33046" lon="3.35544">
        <ele>96.8</ele>
        <time>2025-10-20T12:27:33.000Z</time>
      </trkpt>
      <trkpt lat="49.33045" lon="3.35544">
        <ele>96.7</ele>
        <time>2025-10-20T12:27:34.000Z</time>
      </trkpt>
      <trkpt lat="49.33043" lon="3.35544">
        <ele>96.5</ele>
        <time>2025-10-20T12:27:35.000Z</time>
      </trkpt>
      <trkpt lat="49.33042" lon="3.35543">
        <ele>96.4</ele>
        <time>2025-10-20T12:27:36.000Z</time>
      </trkpt>
      <trkpt lat="49.33041" lon="3.35542">
        <ele>95.9</ele>
        <time>2025-10-20T12:27:37.000Z</time>
      </trkpt>
      <trkpt lat="49.33039" lon="3.35541">
        <ele>95.9</ele>
        <time>2025-10-20T12:27:38.000Z</time>
      </trkpt>
      <trkpt lat="49.33038" lon="3.3554">
        <ele>96</ele>
        <time>2025-10-20T12:27:39.000Z</time>
      </trkpt>
      <trkpt lat="49.33037" lon="3.35538">
        <ele>96.2</ele>
        <time>2025-10-20T12:27:40.000Z</time>
      </trkpt>
      <trkpt lat="49.33036" lon="3.35537">
        <ele>96.2</ele>
        <time>2025-10-20T12:27:41.000Z</time>
      </trkpt>
      <trkpt lat="49.33034" lon="3.35535">
        <ele>96.5</ele>
        <time>2025-10-20T12:27:42.000Z</time>
      </trkpt>
      <trkpt lat="49.33033" lon="3.35534">
        <ele>96.2</ele>
        <time>2025-10-20T12:27:43.000Z</time>
      </trkpt>
      <trkpt lat="49.33031" lon="3.35533">
        <ele>96.1</ele>
        <time>2025-10-20T12:27:44.000Z</time>
      </trkpt>
      <trkpt lat="49.3303" lon="3.35532">
        <ele>96.2</ele>
        <time>2025-10-20T12:27:45.000Z</time>
      </trkpt>
      <trkpt lat="49.33029" lon="3.35532">
        <ele>96.5</ele>
        <time>2025-10-20T12:27:46.000Z</time>
      </trkpt>
      <trkpt lat="49.33028" lon="3.35531">
        <ele>97</ele>
        <time>2025-10-20T12:27:47.000Z</time>
      </trkpt>
      <trkpt lat="49.33027" lon="3.3553">
        <ele>97.2</ele>
        <time>2025-10-20T12:27:48.000Z</time>
      </trkpt>
      <trkpt lat="49.33026" lon="3.35529">
        <ele>97.4</ele>
        <time>2025-10-20T12:27:49.000Z</time>
      </trkpt>
      <trkpt lat="49.33024" lon="3.35528">
        <ele>97.6</ele>
        <time>2025-10-20T12:27:50.000Z</time>
      </trkpt>
      <trkpt lat="49.33023" lon="3.35527">
        <ele>97.2</ele>
        <time>2025-10-20T12:27:51.000Z</time>
      </trkpt>
      <trkpt lat="49.33022" lon="3.35525">
        <ele>97.2</ele>
        <time>2025-10-20T12:27:52.000Z</time>
      </trkpt>
      <trkpt lat="49.33021" lon="3.35524">
        <ele>97.3</ele>
        <time>2025-10-20T12:27:53.000Z</time>
      </trkpt>
      <trkpt lat="49.33019" lon="3.35524">
        <ele>97.3</ele>
        <time>2025-10-20T12:27:54.000Z</time>
      </trkpt>
      <trkpt lat="49.33019" lon="3.35523">
        <ele>97.4</ele>
        <time>2025-10-20T12:27:55.000Z</time>
      </trkpt>
      <trkpt lat="49.33017" lon="3.35523">
        <ele>97.2</ele>
        <time>2025-10-20T12:27:56.000Z</time>
      </trkpt>
      <trkpt lat="49.33016" lon="3.35522">
        <ele>97.1</ele>
        <time>2025-10-20T12:27:57.000Z</time>
      </trkpt>
      <trkpt lat="49.33014" lon="3.35522">
        <ele>97.2</ele>
        <time>2025-10-20T12:27:58.000Z</time>
      </trkpt>
      <trkpt lat="49.33013" lon="3.3552">
        <ele>97.3</ele>
        <time>2025-10-20T12:27:59.000Z</time>
      </trkpt>
      <trkpt lat="49.33012" lon="3.35519">
        <ele>97.3</ele>
        <time>2025-10-20T12:28:00.000Z</time>
      </trkpt>
      <trkpt lat="49.33011" lon="3.35518">
        <ele>97.1</ele>
        <time>2025-10-20T12:28:01.000Z</time>
      </trkpt>
      <trkpt lat="49.33009" lon="3.35518">
        <ele>97</ele>
        <time>2025-10-20T12:28:02.000Z</time>
      </trkpt>
      <trkpt lat="49.33007" lon="3.35517">
        <ele>96.7</ele>
        <time>2025-10-20T12:28:03.000Z</time>
      </trkpt>
      <trkpt lat="49.33006" lon="3.35517">
        <ele>96.4</ele>
        <time>2025-10-20T12:28:04.000Z</time>
      </trkpt>
      <trkpt lat="49.33005" lon="3.35516">
        <ele>96</ele>
        <time>2025-10-20T12:28:05.000Z</time>
      </trkpt>
      <trkpt lat="49.33004" lon="3.35515">
        <ele>95.4</ele>
        <time>2025-10-20T12:28:06.000Z</time>
      </trkpt>
      <trkpt lat="49.33003" lon="3.35514">
        <ele>95</ele>
        <time>2025-10-20T12:28:07.000Z</time>
      </trkpt>
      <trkpt lat="49.33002" lon="3.35512">
        <ele>95</ele>
        <time>2025-10-20T12:28:08.000Z</time>
      </trkpt>
      <trkpt lat="49.33" lon="3.35512">
        <ele>94.8</ele>
        <time>2025-10-20T12:28:09.000Z</time>
      </trkpt>
      <trkpt lat="49.32999" lon="3.35511">
        <ele>94.9</ele>
        <time>2025-10-20T12:28:10.000Z</time>
      </trkpt>
      <trkpt lat="49.32998" lon="3.3551">
        <ele>95</ele>
        <time>2025-10-20T12:28:11.000Z</time>
      </trkpt>
      <trkpt lat="49.32997" lon="3.3551">
        <ele>95.2</ele>
        <time>2025-10-20T12:28:12.000Z</time>
      </trkpt>
      <trkpt lat="49.32996" lon="3.3551">
        <ele>95.4</ele>
        <time>2025-10-20T12:28:13.000Z</time>
      </trkpt>
      <trkpt lat="49.32996" lon="3.35509">
        <ele>95.4</ele>
        <time>2025-10-20T12:28:14.000Z</time>
      </trkpt>
      <trkpt lat="49.32996" lon="3.35508">
        <ele>95.5</ele>
        <time>2025-10-20T12:28:15.000Z</time>
      </trkpt>
      <trkpt lat="49.32996" lon="3.35506">
        <ele>95.4</ele>
        <time>2025-10-20T12:28:16.000Z</time>
      </trkpt>
      <trkpt lat="49.32996" lon="3.35504">
        <ele>95.3</ele>
        <time>2025-10-20T12:28:17.000Z</time>
      </trkpt>
      <trkpt lat="49.32996" lon="3.35502">
        <ele>95.3</ele>
        <time>2025-10-20T12:28:18.000Z</time>
      </trkpt>
      <trkpt lat="49.32996" lon="3.35501">
        <ele>95.2</ele>
        <time>2025-10-20T12:28:19.000Z</time>
      </trkpt>
      <trkpt lat="49.32996" lon="3.35499">
        <ele>95.1</ele>
        <time>2025-10-20T12:28:20.000Z</time>
      </trkpt>
      <trkpt lat="49.32996" lon="3.35496">
        <ele>95.4</ele>
        <time>2025-10-20T12:28:21.000Z</time>
      </trkpt>
      <trkpt lat="49.32996" lon="3.35493">
        <ele>95.7</ele>
        <time>2025-10-20T12:28:22.000Z</time>
      </trkpt>
      <trkpt lat="49.32997" lon="3.35491">
        <ele>95.9</ele>
        <time>2025-10-20T12:28:23.000Z</time>
      </trkpt>
      <trkpt lat="49.32997" lon="3.35488">
        <ele>96.1</ele>
        <time>2025-10-20T12:28:24.000Z</time>
      </trkpt>
      <trkpt lat="49.32998" lon="3.35486">
        <ele>96.7</ele>
        <time>2025-10-20T12:28:25.000Z</time>
      </trkpt>
      <trkpt lat="49.32998" lon="3.35484">
        <ele>97.4</ele>
        <time>2025-10-20T12:28:26.000Z</time>
      </trkpt>
      <trkpt lat="49.32998" lon="3.35482">
        <ele>98</ele>
        <time>2025-10-20T12:28:27.000Z</time>
      </trkpt>
      <trkpt lat="49.32998" lon="3.3548">
        <ele>98.7</ele>
        <time>2025-10-20T12:28:28.000Z</time>
      </trkpt>
      <trkpt lat="49.32998" lon="3.35479">
        <ele>99.3</ele>
        <time>2025-10-20T12:28:29.000Z</time>
      </trkpt>
      <trkpt lat="49.32999" lon="3.35477">
        <ele>99.9</ele>
        <time>2025-10-20T12:28:30.000Z</time>
      </trkpt>
      <trkpt lat="49.32999" lon="3.35476">
        <ele>100.1</ele>
        <time>2025-10-20T12:28:31.000Z</time>
      </trkpt>
      <trkpt lat="49.33" lon="3.35474">
        <ele>100.4</ele>
        <time>2025-10-20T12:28:32.000Z</time>
      </trkpt>
      <trkpt lat="49.33" lon="3.35472">
        <ele>100.5</ele>
        <time>2025-10-20T12:28:33.000Z</time>
      </trkpt>
      <trkpt lat="49.33001" lon="3.3547">
        <ele>101</ele>
        <time>2025-10-20T12:28:34.000Z</time>
      </trkpt>
      <trkpt lat="49.33001" lon="3.35467">
        <ele>101.2</ele>
        <time>2025-10-20T12:28:35.000Z</time>
      </trkpt>
      <trkpt lat="49.33002" lon="3.35466">
        <ele>101.4</ele>
        <time>2025-10-20T12:28:36.000Z</time>
      </trkpt>
      <trkpt lat="49.33002" lon="3.35464">
        <ele>101.8</ele>
        <time>2025-10-20T12:28:37.000Z</time>
      </trkpt>
      <trkpt lat="49.33003" lon="3.35463">
        <ele>101.8</ele>
        <time>2025-10-20T12:28:38.000Z</time>
      </trkpt>
      <trkpt lat="49.33003" lon="3.3546">
        <ele>102</ele>
        <time>2025-10-20T12:28:39.000Z</time>
      </trkpt>
      <trkpt lat="49.33004" lon="3.35458">
        <ele>102.3</ele>
        <time>2025-10-20T12:28:40.000Z</time>
      </trkpt>
      <trkpt lat="49.33004" lon="3.35456">
        <ele>102.2</ele>
        <time>2025-10-20T12:28:41.000Z</time>
      </trkpt>
      <trkpt lat="49.33005" lon="3.35454">
        <ele>102.2</ele>
        <time>2025-10-20T12:28:42.000Z</time>
      </trkpt>
      <trkpt lat="49.33005" lon="3.35452">
        <ele>102.1</ele>
        <time>2025-10-20T12:28:43.000Z</time>
      </trkpt>
      <trkpt lat="49.33006" lon="3.3545">
        <ele>102.3</ele>
        <time>2025-10-20T12:28:44.000Z</time>
      </trkpt>
      <trkpt lat="49.33008" lon="3.35448">
        <ele>102.5</ele>
        <time>2025-10-20T12:28:45.000Z</time>
      </trkpt>
      <trkpt lat="49.33009" lon="3.35447">
        <ele>102.6</ele>
        <time>2025-10-20T12:28:46.000Z</time>
      </trkpt>
      <trkpt lat="49.3301" lon="3.35445">
        <ele>102.3</ele>
        <time>2025-10-20T12:28:47.000Z</time>
      </trkpt>
      <trkpt lat="49.33011" lon="3.35444">
        <ele>101.8</ele>
        <time>2025-10-20T12:28:48.000Z</time>
      </trkpt>
      <trkpt lat="49.33011" lon="3.35442">
        <ele>101.2</ele>
        <time>2025-10-20T12:28:49.000Z</time>
      </trkpt>
      <trkpt lat="49.33012" lon="3.35441">
        <ele>100.9</ele>
        <time>2025-10-20T12:28:50.000Z</time>
      </trkpt>
      <trkpt lat="49.33013" lon="3.35439">
        <ele>101.1</ele>
        <time>2025-10-20T12:28:51.000Z</time>
      </trkpt>
      <trkpt lat="49.33013" lon="3.35438">
        <ele>101.1</ele>
        <time>2025-10-20T12:28:52.000Z</time>
      </trkpt>
      <trkpt lat="49.33013" lon="3.35436">
        <ele>100.7</ele>
        <time>2025-10-20T12:28:53.000Z</time>
      </trkpt>
      <trkpt lat="49.33013" lon="3.35434">
        <ele>100.7</ele>
        <time>2025-10-20T12:28:54.000Z</time>
      </trkpt>
      <trkpt lat="49.33014" lon="3.35432">
        <ele>100.7</ele>
        <time>2025-10-20T12:28:55.000Z</time>
      </trkpt>
      <trkpt lat="49.33015" lon="3.3543">
        <ele>100.9</ele>
        <time>2025-10-20T12:28:56.000Z</time>
      </trkpt>
      <trkpt lat="49.33015" lon="3.35429">
        <ele>101</ele>
        <time>2025-10-20T12:28:57.000Z</time>
      </trkpt>
      <trkpt lat="49.33016" lon="3.35427">
        <ele>100.7</ele>
        <time>2025-10-20T12:28:58.000Z</time>
      </trkpt>
      <trkpt lat="49.33016" lon="3.35425">
        <ele>100.3</ele>
        <time>2025-10-20T12:28:59.000Z</time>
      </trkpt>
      <trkpt lat="49.33017" lon="3.35424">
        <ele>99.9</ele>
        <time>2025-10-20T12:29:00.000Z</time>
      </trkpt>
      <trkpt lat="49.33018" lon="3.35422">
        <ele>99.8</ele>
        <time>2025-10-20T12:29:01.000Z</time>
      </trkpt>
      <trkpt lat="49.33019" lon="3.3542">
        <ele>99.4</ele>
        <time>2025-10-20T12:29:02.000Z</time>
      </trkpt>
      <trkpt lat="49.3302" lon="3.35418">
        <ele>98.9</ele>
        <time>2025-10-20T12:29:03.000Z</time>
      </trkpt>
      <trkpt lat="49.3302" lon="3.35417">
        <ele>98.2</ele>
        <time>2025-10-20T12:29:04.000Z</time>
      </trkpt>
      <trkpt lat="49.33021" lon="3.35415">
        <ele>97.7</ele>
        <time>2025-10-20T12:29:05.000Z</time>
      </trkpt>
      <trkpt lat="49.33021" lon="3.35413">
        <ele>97.5</ele>
        <time>2025-10-20T12:29:06.000Z</time>
      </trkpt>
      <trkpt lat="49.33022" lon="3.35411">
        <ele>96.8</ele>
        <time>2025-10-20T12:29:07.000Z</time>
      </trkpt>
      <trkpt lat="49.33023" lon="3.35409">
        <ele>96.2</ele>
        <time>2025-10-20T12:29:08.000Z</time>
      </trkpt>
      <trkpt lat="49.33023" lon="3.35407">
        <ele>95.7</ele>
        <time>2025-10-20T12:29:09.000Z</time>
      </trkpt>
      <trkpt lat="49.33024" lon="3.35405">
        <ele>95.5</ele>
        <time>2025-10-20T12:29:10.000Z</time>
      </trkpt>
      <trkpt lat="49.33025" lon="3.35403">
        <ele>95.6</ele>
        <time>2025-10-20T12:29:11.000Z</time>
      </trkpt>
      <trkpt lat="49.33026" lon="3.35401">
        <ele>95.6</ele>
        <time>2025-10-20T12:29:12.000Z</time>
      </trkpt>
      <trkpt lat="49.33027" lon="3.35399">
        <ele>95.2</ele>
        <time>2025-10-20T12:29:13.000Z</time>
      </trkpt>
      <trkpt lat="49.33027" lon="3.35396">
        <ele>95.3</ele>
        <time>2025-10-20T12:29:14.000Z</time>
      </trkpt>
      <trkpt lat="49.33028" lon="3.35394">
        <ele>95.4</ele>
        <time>2025-10-20T12:29:15.000Z</time>
      </trkpt>
      <trkpt lat="49.33028" lon="3.35392">
        <ele>95.2</ele>
        <time>2025-10-20T12:29:16.000Z</time>
      </trkpt>
      <trkpt lat="49.33029" lon="3.3539">
        <ele>95.4</ele>
        <time>2025-10-20T12:29:17.000Z</time>
      </trkpt>
      <trkpt lat="49.3303" lon="3.35388">
        <ele>95.5</ele>
        <time>2025-10-20T12:29:18.000Z</time>
      </trkpt>
      <trkpt lat="49.3303" lon="3.35387">
        <ele>95.5</ele>
        <time>2025-10-20T12:29:19.000Z</time>
      </trkpt>
      <trkpt lat="49.33031" lon="3.35386">
        <ele>95.3</ele>
        <time>2025-10-20T12:29:20.000Z</time>
      </trkpt>
      <trkpt lat="49.33032" lon="3.35385">
        <ele>95</ele>
        <time>2025-10-20T12:29:21.000Z</time>
      </trkpt>
      <trkpt lat="49.33033" lon="3.35383">
        <ele>94.7</ele>
        <time>2025-10-20T12:29:22.000Z</time>
      </trkpt>
      <trkpt lat="49.33034" lon="3.35382">
        <ele>95</ele>
        <time>2025-10-20T12:29:23.000Z</time>
      </trkpt>
      <trkpt lat="49.33035" lon="3.3538">
        <ele>94.8</ele>
        <time>2025-10-20T12:29:24.000Z</time>
      </trkpt>
      <trkpt lat="49.33036" lon="3.35378">
        <ele>94.7</ele>
        <time>2025-10-20T12:29:25.000Z</time>
      </trkpt>
      <trkpt lat="49.33037" lon="3.35376">
        <ele>94.5</ele>
        <time>2025-10-20T12:29:26.000Z</time>
      </trkpt>
      <trkpt lat="49.33038" lon="3.35374">
        <ele>94.7</ele>
        <time>2025-10-20T12:29:27.000Z</time>
      </trkpt>
      <trkpt lat="49.33039" lon="3.35373">
        <ele>94.9</ele>
        <time>2025-10-20T12:29:28.000Z</time>
      </trkpt>
      <trkpt lat="49.33039" lon="3.35371">
        <ele>95</ele>
        <time>2025-10-20T12:29:29.000Z</time>
      </trkpt>
      <trkpt lat="49.33039" lon="3.35369">
        <ele>95</ele>
        <time>2025-10-20T12:29:30.000Z</time>
      </trkpt>
      <trkpt lat="49.33039" lon="3.35366">
        <ele>94.9</ele>
        <time>2025-10-20T12:29:31.000Z</time>
      </trkpt>
      <trkpt lat="49.3304" lon="3.35364">
        <ele>94.9</ele>
        <time>2025-10-20T12:29:32.000Z</time>
      </trkpt>
      <trkpt lat="49.3304" lon="3.35361">
        <ele>94.8</ele>
        <time>2025-10-20T12:29:33.000Z</time>
      </trkpt>
      <trkpt lat="49.33041" lon="3.35359">
        <ele>95</ele>
        <time>2025-10-20T12:29:34.000Z</time>
      </trkpt>
      <trkpt lat="49.33041" lon="3.35358">
        <ele>95.1</ele>
        <time>2025-10-20T12:29:35.000Z</time>
      </trkpt>
      <trkpt lat="49.33042" lon="3.35356">
        <ele>95</ele>
        <time>2025-10-20T12:29:36.000Z</time>
      </trkpt>
      <trkpt lat="49.33042" lon="3.35355">
        <ele>95.2</ele>
        <time>2025-10-20T12:29:37.000Z</time>
      </trkpt>
      <trkpt lat="49.33043" lon="3.35353">
        <ele>95.3</ele>
        <time>2025-10-20T12:29:38.000Z</time>
      </trkpt>
      <trkpt lat="49.33044" lon="3.35351">
        <ele>95.6</ele>
        <time>2025-10-20T12:29:39.000Z</time>
      </trkpt>
      <trkpt lat="49.33045" lon="3.35351">
        <ele>95.5</ele>
        <time>2025-10-20T12:29:40.000Z</time>
      </trkpt>
      <trkpt lat="49.33045" lon="3.3535">
        <ele>95.4</ele>
        <time>2025-10-20T12:29:41.000Z</time>
      </trkpt>
      <trkpt lat="49.33046" lon="3.35348">
        <ele>95.4</ele>
        <time>2025-10-20T12:29:42.000Z</time>
      </trkpt>
      <trkpt lat="49.33046" lon="3.35346">
        <ele>95.7</ele>
        <time>2025-10-20T12:29:43.000Z</time>
      </trkpt>
      <trkpt lat="49.33047" lon="3.35344">
        <ele>95.5</ele>
        <time>2025-10-20T12:29:44.000Z</time>
      </trkpt>
      <trkpt lat="49.33048" lon="3.35342">
        <ele>94.9</ele>
        <time>2025-10-20T12:29:45.000Z</time>
      </trkpt>
      <trkpt lat="49.33049" lon="3.35339">
        <ele>94.5</ele>
        <time>2025-10-20T12:29:46.000Z</time>
      </trkpt>
      <trkpt lat="49.33049" lon="3.35338">
        <ele>94.1</ele>
        <time>2025-10-20T12:29:47.000Z</time>
      </trkpt>
      <trkpt lat="49.3305" lon="3.35336">
        <ele>93.9</ele>
        <time>2025-10-20T12:29:48.000Z</time>
      </trkpt>
      <trkpt lat="49.33051" lon="3.35334">
        <ele>93.5</ele>
        <time>2025-10-20T12:29:49.000Z</time>
      </trkpt>
      <trkpt lat="49.33052" lon="3.35332">
        <ele>93.5</ele>
        <time>2025-10-20T12:29:50.000Z</time>
      </trkpt>
      <trkpt lat="49.33054" lon="3.35331">
        <ele>93.7</ele>
        <time>2025-10-20T12:29:51.000Z</time>
      </trkpt>
      <trkpt lat="49.33055" lon="3.35328">
        <ele>94.2</ele>
        <time>2025-10-20T12:29:52.000Z</time>
      </trkpt>
      <trkpt lat="49.33056" lon="3.35327">
        <ele>94.5</ele>
        <time>2025-10-20T12:29:53.000Z</time>
      </trkpt>
      <trkpt lat="49.33057" lon="3.35325">
        <ele>94.8</ele>
        <time>2025-10-20T12:29:54.000Z</time>
      </trkpt>
      <trkpt lat="49.33058" lon="3.35324">
        <ele>94.8</ele>
        <time>2025-10-20T12:29:55.000Z</time>
      </trkpt>
      <trkpt lat="49.33059" lon="3.35322">
        <ele>94.5</ele>
        <time>2025-10-20T12:29:56.000Z</time>
      </trkpt>
      <trkpt lat="49.33059" lon="3.3532">
        <ele>94.8</ele>
        <time>2025-10-20T12:29:57.000Z</time>
      </trkpt>
      <trkpt lat="49.3306" lon="3.35318">
        <ele>95</ele>
        <time>2025-10-20T12:29:58.000Z</time>
      </trkpt>
      <trkpt lat="49.3306" lon="3.35317">
        <ele>94.9</ele>
        <time>2025-10-20T12:29:59.000Z</time>
      </trkpt>
      <trkpt lat="49.33061" lon="3.35315">
        <ele>94.6</ele>
        <time>2025-10-20T12:30:00.000Z</time>
      </trkpt>
      <trkpt lat="49.33061" lon="3.35314">
        <ele>94.5</ele>
        <time>2025-10-20T12:30:01.000Z</time>
      </trkpt>
      <trkpt lat="49.33062" lon="3.35312">
        <ele>94.6</ele>
        <time>2025-10-20T12:30:02.000Z</time>
      </trkpt>
      <trkpt lat="49.33063" lon="3.3531">
        <ele>94</ele>
        <time>2025-10-20T12:30:03.000Z</time>
      </trkpt>
      <trkpt lat="49.33064" lon="3.35308">
        <ele>93.6</ele>
        <time>2025-10-20T12:30:04.000Z</time>
      </trkpt>
      <trkpt lat="49.33065" lon="3.35306">
        <ele>93.5</ele>
        <time>2025-10-20T12:30:05.000Z</time>
      </trkpt>
      <trkpt lat="49.33066" lon="3.35305">
        <ele>93.6</ele>
        <time>2025-10-20T12:30:06.000Z</time>
      </trkpt>
      <trkpt lat="49.33067" lon="3.35304">
        <ele>93.8</ele>
        <time>2025-10-20T12:30:07.000Z</time>
      </trkpt>
      <trkpt lat="49.33068" lon="3.35303">
        <ele>93.9</ele>
        <time>2025-10-20T12:30:08.000Z</time>
      </trkpt>
      <trkpt lat="49.33068" lon="3.35301">
        <ele>93.9</ele>
        <time>2025-10-20T12:30:09.000Z</time>
      </trkpt>
      <trkpt lat="49.33069" lon="3.35299">
        <ele>93.8</ele>
        <time>2025-10-20T12:30:10.000Z</time>
      </trkpt>
      <trkpt lat="49.3307" lon="3.35298">
        <ele>93.8</ele>
        <time>2025-10-20T12:30:11.000Z</time>
      </trkpt>
      <trkpt lat="49.33071" lon="3.35296">
        <ele>93.9</ele>
        <time>2025-10-20T12:30:12.000Z</time>
      </trkpt>
      <trkpt lat="49.33071" lon="3.35295">
        <ele>93.9</ele>
        <time>2025-10-20T12:30:13.000Z</time>
      </trkpt>
      <trkpt lat="49.33072" lon="3.35293">
        <ele>94.1</ele>
        <time>2025-10-20T12:30:14.000Z</time>
      </trkpt>
      <trkpt lat="49.33073" lon="3.35291">
        <ele>94</ele>
        <time>2025-10-20T12:30:15.000Z</time>
      </trkpt>
      <trkpt lat="49.33074" lon="3.3529">
        <ele>94.1</ele>
        <time>2025-10-20T12:30:16.000Z</time>
      </trkpt>
      <trkpt lat="49.33075" lon="3.35289">
        <ele>94.1</ele>
        <time>2025-10-20T12:30:17.000Z</time>
      </trkpt>
      <trkpt lat="49.33076" lon="3.35287">
        <ele>94.2</ele>
        <time>2025-10-20T12:30:18.000Z</time>
      </trkpt>
      <trkpt lat="49.33077" lon="3.35285">
        <ele>94.5</ele>
        <time>2025-10-20T12:30:19.000Z</time>
      </trkpt>
      <trkpt lat="49.33077" lon="3.35282">
        <ele>94.6</ele>
        <time>2025-10-20T12:30:20.000Z</time>
      </trkpt>
      <trkpt lat="49.33077" lon="3.3528">
        <ele>94.8</ele>
        <time>2025-10-20T12:30:21.000Z</time>
      </trkpt>
      <trkpt lat="49.33077" lon="3.35277">
        <ele>95</ele>
        <time>2025-10-20T12:30:22.000Z</time>
      </trkpt>
      <trkpt lat="49.33077" lon="3.35276">
        <ele>95</ele>
        <time>2025-10-20T12:30:23.000Z</time>
      </trkpt>
      <trkpt lat="49.33078" lon="3.35275">
        <ele>95.4</ele>
        <time>2025-10-20T12:30:24.000Z</time>
      </trkpt>
      <trkpt lat="49.33078" lon="3.35273">
        <ele>95.9</ele>
        <time>2025-10-20T12:30:25.000Z</time>
      </trkpt>
      <trkpt lat="49.33078" lon="3.35271">
        <ele>96.4</ele>
        <time>2025-10-20T12:30:26.000Z</time>
      </trkpt>
      <trkpt lat="49.33078" lon="3.35268">
        <ele>96.7</ele>
        <time>2025-10-20T12:30:27.000Z</time>
      </trkpt>
      <trkpt lat="49.33078" lon="3.35266">
        <ele>97</ele>
        <time>2025-10-20T12:30:28.000Z</time>
      </trkpt>
      <trkpt lat="49.33078" lon="3.35264">
        <ele>96.8</ele>
        <time>2025-10-20T12:30:29.000Z</time>
      </trkpt>
      <trkpt lat="49.33079" lon="3.35263">
        <ele>96.8</ele>
        <time>2025-10-20T12:30:30.000Z</time>
      </trkpt>
      <trkpt lat="49.33079" lon="3.35261">
        <ele>96.4</ele>
        <time>2025-10-20T12:30:31.000Z</time>
      </trkpt>
      <trkpt lat="49.33079" lon="3.35259">
        <ele>96.1</ele>
        <time>2025-10-20T12:30:32.000Z</time>
      </trkpt>
      <trkpt lat="49.33079" lon="3.35257">
        <ele>96.2</ele>
        <time>2025-10-20T12:30:33.000Z</time>
      </trkpt>
      <trkpt lat="49.33079" lon="3.35254">
        <ele>96.2</ele>
        <time>2025-10-20T12:30:34.000Z</time>
      </trkpt>
      <trkpt lat="49.33079" lon="3.35253">
        <ele>96.2</ele>
        <time>2025-10-20T12:30:35.000Z</time>
      </trkpt>
      <trkpt lat="49.33079" lon="3.35251">
        <ele>95.9</ele>
        <time>2025-10-20T12:30:36.000Z</time>
      </trkpt>
      <trkpt lat="49.33079" lon="3.3525">
        <ele>95.6</ele>
        <time>2025-10-20T12:30:37.000Z</time>
      </trkpt>
      <trkpt lat="49.33079" lon="3.35248">
        <ele>95.1</ele>
        <time>2025-10-20T12:30:38.000Z</time>
      </trkpt>
      <trkpt lat="49.33079" lon="3.35245">
        <ele>94.7</ele>
        <time>2025-10-20T12:30:39.000Z</time>
      </trkpt>
      <trkpt lat="49.33079" lon="3.35244">
        <ele>94.3</ele>
        <time>2025-10-20T12:30:40.000Z</time>
      </trkpt>
      <trkpt lat="49.33079" lon="3.35242">
        <ele>93.9</ele>
        <time>2025-10-20T12:30:41.000Z</time>
      </trkpt>
      <trkpt lat="49.33078" lon="3.3524">
        <ele>93.6</ele>
        <time>2025-10-20T12:30:42.000Z</time>
      </trkpt>
      <trkpt lat="49.33078" lon="3.35238">
        <ele>93.4</ele>
        <time>2025-10-20T12:30:43.000Z</time>
      </trkpt>
      <trkpt lat="49.33079" lon="3.35235">
        <ele>93.1</ele>
        <time>2025-10-20T12:30:44.000Z</time>
      </trkpt>
      <trkpt lat="49.33078" lon="3.35233">
        <ele>93.1</ele>
        <time>2025-10-20T12:30:45.000Z</time>
      </trkpt>
      <trkpt lat="49.33078" lon="3.35231">
        <ele>92.6</ele>
        <time>2025-10-20T12:30:46.000Z</time>
      </trkpt>
      <trkpt lat="49.33078" lon="3.35229">
        <ele>92.1</ele>
        <time>2025-10-20T12:30:47.000Z</time>
      </trkpt>
      <trkpt lat="49.33078" lon="3.35226">
        <ele>92</ele>
        <time>2025-10-20T12:30:48.000Z</time>
      </trkpt>
      <trkpt lat="49.33078" lon="3.35224">
        <ele>91.4</ele>
        <time>2025-10-20T12:30:49.000Z</time>
      </trkpt>
      <trkpt lat="49.33078" lon="3.35222">
        <ele>91.1</ele>
        <time>2025-10-20T12:30:50.000Z</time>
      </trkpt>
      <trkpt lat="49.33078" lon="3.3522">
        <ele>91.1</ele>
        <time>2025-10-20T12:30:51.000Z</time>
      </trkpt>
      <trkpt lat="49.33078" lon="3.35218">
        <ele>91.4</ele>
        <time>2025-10-20T12:30:52.000Z</time>
      </trkpt>
      <trkpt lat="49.33078" lon="3.35216">
        <ele>91.6</ele>
        <time>2025-10-20T12:30:53.000Z</time>
      </trkpt>
      <trkpt lat="49.33078" lon="3.35213">
        <ele>92.1</ele>
        <time>2025-10-20T12:30:54.000Z</time>
      </trkpt>
      <trkpt lat="49.33078" lon="3.35211">
        <ele>92.4</ele>
        <time>2025-10-20T12:30:55.000Z</time>
      </trkpt>
      <trkpt lat="49.33078" lon="3.3521">
        <ele>92.5</ele>
        <time>2025-10-20T12:30:56.000Z</time>
      </trkpt>
      <trkpt lat="49.33079" lon="3.35207">
        <ele>92.7</ele>
        <time>2025-10-20T12:30:57.000Z</time>
      </trkpt>
      <trkpt lat="49.33079" lon="3.35205">
        <ele>92.9</ele>
        <time>2025-10-20T12:30:58.000Z</time>
      </trkpt>
      <trkpt lat="49.3308" lon="3.35203">
        <ele>93</ele>
        <time>2025-10-20T12:30:59.000Z</time>
      </trkpt>
      <trkpt lat="49.3308" lon="3.35201">
        <ele>93.4</ele>
        <time>2025-10-20T12:31:00.000Z</time>
      </trkpt>
      <trkpt lat="49.33081" lon="3.35198">
        <ele>92.7</ele>
        <time>2025-10-20T12:31:01.000Z</time>
      </trkpt>
      <trkpt lat="49.33082" lon="3.35197">
        <ele>92.9</ele>
        <time>2025-10-20T12:31:02.000Z</time>
      </trkpt>
      <trkpt lat="49.33082" lon="3.35195">
        <ele>93</ele>
        <time>2025-10-20T12:31:03.000Z</time>
      </trkpt>
      <trkpt lat="49.33082" lon="3.35193">
        <ele>92.7</ele>
        <time>2025-10-20T12:31:04.000Z</time>
      </trkpt>
      <trkpt lat="49.33083" lon="3.35191">
        <ele>92.4</ele>
        <time>2025-10-20T12:31:05.000Z</time>
      </trkpt>
      <trkpt lat="49.33083" lon="3.35189">
        <ele>92.6</ele>
        <time>2025-10-20T12:31:06.000Z</time>
      </trkpt>
      <trkpt lat="49.33083" lon="3.35187">
        <ele>92.7</ele>
        <time>2025-10-20T12:31:07.000Z</time>
      </trkpt>
      <trkpt lat="49.33084" lon="3.35184">
        <ele>92.7</ele>
        <time>2025-10-20T12:31:08.000Z</time>
      </trkpt>
      <trkpt lat="49.33084" lon="3.35182">
        <ele>92.2</ele>
        <time>2025-10-20T12:31:09.000Z</time>
      </trkpt>
      <trkpt lat="49.33084" lon="3.3518">
        <ele>91.8</ele>
        <time>2025-10-20T12:31:10.000Z</time>
      </trkpt>
      <trkpt lat="49.33085" lon="3.35178">
        <ele>91.9</ele>
        <time>2025-10-20T12:31:11.000Z</time>
      </trkpt>
      <trkpt lat="49.33085" lon="3.35176">
        <ele>92.5</ele>
        <time>2025-10-20T12:31:12.000Z</time>
      </trkpt>
      <trkpt lat="49.33085" lon="3.35174">
        <ele>92.7</ele>
        <time>2025-10-20T12:31:13.000Z</time>
      </trkpt>
      <trkpt lat="49.33086" lon="3.35173">
        <ele>92.7</ele>
        <time>2025-10-20T12:31:14.000Z</time>
      </trkpt>
      <trkpt lat="49.33086" lon="3.35171">
        <ele>93</ele>
        <time>2025-10-20T12:31:15.000Z</time>
      </trkpt>
      <trkpt lat="49.33087" lon="3.3517">
        <ele>93</ele>
        <time>2025-10-20T12:31:16.000Z</time>
      </trkpt>
      <trkpt lat="49.33087" lon="3.35168">
        <ele>93.3</ele>
        <time>2025-10-20T12:31:17.000Z</time>
      </trkpt>
      <trkpt lat="49.33088" lon="3.35167">
        <ele>93.2</ele>
        <time>2025-10-20T12:31:18.000Z</time>
      </trkpt>
      <trkpt lat="49.33088" lon="3.35165">
        <ele>93.3</ele>
        <time>2025-10-20T12:31:19.000Z</time>
      </trkpt>
      <trkpt lat="49.33088" lon="3.35163">
        <ele>93.2</ele>
        <time>2025-10-20T12:31:20.000Z</time>
      </trkpt>
      <trkpt lat="49.33089" lon="3.35161">
        <ele>93.2</ele>
        <time>2025-10-20T12:31:21.000Z</time>
      </trkpt>
      <trkpt lat="49.33089" lon="3.3516">
        <ele>93.2</ele>
        <time>2025-10-20T12:31:22.000Z</time>
      </trkpt>
      <trkpt lat="49.3309" lon="3.35158">
        <ele>93.1</ele>
        <time>2025-10-20T12:31:23.000Z</time>
      </trkpt>
      <trkpt lat="49.3309" lon="3.35156">
        <ele>93.1</ele>
        <time>2025-10-20T12:31:24.000Z</time>
      </trkpt>
      <trkpt lat="49.33091" lon="3.35154">
        <ele>93.1</ele>
        <time>2025-10-20T12:31:25.000Z</time>
      </trkpt>
      <trkpt lat="49.33091" lon="3.35152">
        <ele>93.2</ele>
        <time>2025-10-20T12:31:26.000Z</time>
      </trkpt>
      <trkpt lat="49.33092" lon="3.3515">
        <ele>93.8</ele>
        <time>2025-10-20T12:31:27.000Z</time>
      </trkpt>
      <trkpt lat="49.33092" lon="3.35148">
        <ele>94.1</ele>
        <time>2025-10-20T12:31:28.000Z</time>
      </trkpt>
      <trkpt lat="49.33092" lon="3.35145">
        <ele>94.6</ele>
        <time>2025-10-20T12:31:29.000Z</time>
      </trkpt>
      <trkpt lat="49.33092" lon="3.35143">
        <ele>94.7</ele>
        <time>2025-10-20T12:31:30.000Z</time>
      </trkpt>
      <trkpt lat="49.33092" lon="3.3514">
        <ele>95</ele>
        <time>2025-10-20T12:31:31.000Z</time>
      </trkpt>
      <trkpt lat="49.33092" lon="3.35138">
        <ele>94.9</ele>
        <time>2025-10-20T12:31:32.000Z</time>
      </trkpt>
      <trkpt lat="49.33092" lon="3.35135">
        <ele>94.9</ele>
        <time>2025-10-20T12:31:33.000Z</time>
      </trkpt>
      <trkpt lat="49.33092" lon="3.35133">
        <ele>95.1</ele>
        <time>2025-10-20T12:31:34.000Z</time>
      </trkpt>
      <trkpt lat="49.33093" lon="3.35131">
        <ele>95.4</ele>
        <time>2025-10-20T12:31:35.000Z</time>
      </trkpt>
      <trkpt lat="49.33093" lon="3.35128">
        <ele>95.7</ele>
        <time>2025-10-20T12:31:36.000Z</time>
      </trkpt>
      <trkpt lat="49.33093" lon="3.35126">
        <ele>95.7</ele>
        <time>2025-10-20T12:31:37.000Z</time>
      </trkpt>
      <trkpt lat="49.33092" lon="3.35124">
        <ele>96.1</ele>
        <time>2025-10-20T12:31:38.000Z</time>
      </trkpt>
      <trkpt lat="49.33093" lon="3.35122">
        <ele>96.2</ele>
        <time>2025-10-20T12:31:39.000Z</time>
      </trkpt>
      <trkpt lat="49.33092" lon="3.35119">
        <ele>96.4</ele>
        <time>2025-10-20T12:31:40.000Z</time>
      </trkpt>
      <trkpt lat="49.33092" lon="3.35118">
        <ele>96.6</ele>
        <time>2025-10-20T12:31:41.000Z</time>
      </trkpt>
      <trkpt lat="49.33092" lon="3.35116">
        <ele>96.8</ele>
        <time>2025-10-20T12:31:42.000Z</time>
      </trkpt>
      <trkpt lat="49.33092" lon="3.35113">
        <ele>97.3</ele>
        <time>2025-10-20T12:31:43.000Z</time>
      </trkpt>
      <trkpt lat="49.33092" lon="3.35111">
        <ele>97.9</ele>
        <time>2025-10-20T12:31:44.000Z</time>
      </trkpt>
      <trkpt lat="49.33093" lon="3.35108">
        <ele>98.2</ele>
        <time>2025-10-20T12:31:45.000Z</time>
      </trkpt>
      <trkpt lat="49.33093" lon="3.35106">
        <ele>98.5</ele>
        <time>2025-10-20T12:31:46.000Z</time>
      </trkpt>
      <trkpt lat="49.33093" lon="3.35104">
        <ele>99.3</ele>
        <time>2025-10-20T12:31:47.000Z</time>
      </trkpt>
      <trkpt lat="49.33093" lon="3.35102">
        <ele>99.8</ele>
        <time>2025-10-20T12:31:48.000Z</time>
      </trkpt>
      <trkpt lat="49.33093" lon="3.351">
        <ele>100</ele>
        <time>2025-10-20T12:31:49.000Z</time>
      </trkpt>
      <trkpt lat="49.33093" lon="3.35098">
        <ele>99.9</ele>
        <time>2025-10-20T12:31:50.000Z</time>
      </trkpt>
      <trkpt lat="49.33093" lon="3.35097">
        <ele>99.5</ele>
        <time>2025-10-20T12:31:51.000Z</time>
      </trkpt>
      <trkpt lat="49.33093" lon="3.35094">
        <ele>99</ele>
        <time>2025-10-20T12:31:52.000Z</time>
      </trkpt>
      <trkpt lat="49.33092" lon="3.35092">
        <ele>99</ele>
        <time>2025-10-20T12:31:53.000Z</time>
      </trkpt>
      <trkpt lat="49.33092" lon="3.35089">
        <ele>98.8</ele>
        <time>2025-10-20T12:31:54.000Z</time>
      </trkpt>
      <trkpt lat="49.33092" lon="3.35087">
        <ele>98.5</ele>
        <time>2025-10-20T12:31:55.000Z</time>
      </trkpt>
      <trkpt lat="49.33092" lon="3.35085">
        <ele>98.4</ele>
        <time>2025-10-20T12:31:56.000Z</time>
      </trkpt>
      <trkpt lat="49.33092" lon="3.35082">
        <ele>98.5</ele>
        <time>2025-10-20T12:31:57.000Z</time>
      </trkpt>
      <trkpt lat="49.33092" lon="3.3508">
        <ele>98.8</ele>
        <time>2025-10-20T12:31:58.000Z</time>
      </trkpt>
      <trkpt lat="49.33092" lon="3.35078">
        <ele>98.9</ele>
        <time>2025-10-20T12:31:59.000Z</time>
      </trkpt>
      <trkpt lat="49.33092" lon="3.35076">
        <ele>98.7</ele>
        <time>2025-10-20T12:32:00.000Z</time>
      </trkpt>
      <trkpt lat="49.33092" lon="3.35074">
        <ele>98.5</ele>
        <time>2025-10-20T12:32:01.000Z</time>
      </trkpt>
      <trkpt lat="49.33092" lon="3.35072">
        <ele>98.4</ele>
        <time>2025-10-20T12:32:02.000Z</time>
      </trkpt>
      <trkpt lat="49.33093" lon="3.3507">
        <ele>98.2</ele>
        <time>2025-10-20T12:32:03.000Z</time>
      </trkpt>
      <trkpt lat="49.33093" lon="3.35069">
        <ele>98.3</ele>
        <time>2025-10-20T12:32:04.000Z</time>
      </trkpt>
      <trkpt lat="49.33093" lon="3.35067">
        <ele>98.1</ele>
        <time>2025-10-20T12:32:05.000Z</time>
      </trkpt>
      <trkpt lat="49.33093" lon="3.35065">
        <ele>97.8</ele>
        <time>2025-10-20T12:32:06.000Z</time>
      </trkpt>
      <trkpt lat="49.33093" lon="3.35063">
        <ele>97.4</ele>
        <time>2025-10-20T12:32:07.000Z</time>
      </trkpt>
      <trkpt lat="49.33093" lon="3.35061">
        <ele>96.9</ele>
        <time>2025-10-20T12:32:08.000Z</time>
      </trkpt>
      <trkpt lat="49.33093" lon="3.35059">
        <ele>96.9</ele>
        <time>2025-10-20T12:32:09.000Z</time>
      </trkpt>
      <trkpt lat="49.33093" lon="3.35057">
        <ele>96.7</ele>
        <time>2025-10-20T12:32:10.000Z</time>
      </trkpt>
      <trkpt lat="49.33093" lon="3.35055">
        <ele>96.3</ele>
        <time>2025-10-20T12:32:11.000Z</time>
      </trkpt>
      <trkpt lat="49.33093" lon="3.35053">
        <ele>95.8</ele>
        <time>2025-10-20T12:32:12.000Z</time>
      </trkpt>
      <trkpt lat="49.33093" lon="3.35051">
        <ele>95.8</ele>
        <time>2025-10-20T12:32:13.000Z</time>
      </trkpt>
      <trkpt lat="49.33093" lon="3.35049">
        <ele>95.6</ele>
        <time>2025-10-20T12:32:14.000Z</time>
      </trkpt>
      <trkpt lat="49.33093" lon="3.35047">
        <ele>95.7</ele>
        <time>2025-10-20T12:32:15.000Z</time>
      </trkpt>
      <trkpt lat="49.33093" lon="3.35045">
        <ele>95.4</ele>
        <time>2025-10-20T12:32:16.000Z</time>
      </trkpt>
      <trkpt lat="49.33092" lon="3.35043">
        <ele>95.2</ele>
        <time>2025-10-20T12:32:17.000Z</time>
      </trkpt>
      <trkpt lat="49.33092" lon="3.35041">
        <ele>95.2</ele>
        <time>2025-10-20T12:32:18.000Z</time>
      </trkpt>
      <trkpt lat="49.33092" lon="3.35039">
        <ele>95.2</ele>
        <time>2025-10-20T12:32:19.000Z</time>
      </trkpt>
      <trkpt lat="49.33092" lon="3.35035">
        <ele>95.3</ele>
        <time>2025-10-20T12:32:20.000Z</time>
      </trkpt>
      <trkpt lat="49.33091" lon="3.35033">
        <ele>95.6</ele>
        <time>2025-10-20T12:32:21.000Z</time>
      </trkpt>
      <trkpt lat="49.33091" lon="3.35031">
        <ele>96.1</ele>
        <time>2025-10-20T12:32:22.000Z</time>
      </trkpt>
      <trkpt lat="49.33091" lon="3.35028">
        <ele>96.6</ele>
        <time>2025-10-20T12:32:23.000Z</time>
      </trkpt>
      <trkpt lat="49.33091" lon="3.35026">
        <ele>96.8</ele>
        <time>2025-10-20T12:32:24.000Z</time>
      </trkpt>
      <trkpt lat="49.33091" lon="3.35024">
        <ele>96.9</ele>
        <time>2025-10-20T12:32:25.000Z</time>
      </trkpt>
      <trkpt lat="49.33091" lon="3.35021">
        <ele>96.9</ele>
        <time>2025-10-20T12:32:26.000Z</time>
      </trkpt>
      <trkpt lat="49.33091" lon="3.35019">
        <ele>97.2</ele>
        <time>2025-10-20T12:32:27.000Z</time>
      </trkpt>
      <trkpt lat="49.3309" lon="3.35017">
        <ele>97.2</ele>
        <time>2025-10-20T12:32:28.000Z</time>
      </trkpt>
      <trkpt lat="49.3309" lon="3.35016">
        <ele>97.1</ele>
        <time>2025-10-20T12:32:29.000Z</time>
      </trkpt>
      <trkpt lat="49.3309" lon="3.35014">
        <ele>97.1</ele>
        <time>2025-10-20T12:32:30.000Z</time>
      </trkpt>
      <trkpt lat="49.3309" lon="3.35012">
        <ele>97</ele>
        <time>2025-10-20T12:32:31.000Z</time>
      </trkpt>
      <trkpt lat="49.3309" lon="3.3501">
        <ele>97</ele>
        <time>2025-10-20T12:32:32.000Z</time>
      </trkpt>
      <trkpt lat="49.33089" lon="3.35008">
        <ele>96.8</ele>
        <time>2025-10-20T12:32:33.000Z</time>
      </trkpt>
      <trkpt lat="49.33089" lon="3.35007">
        <ele>96.6</ele>
        <time>2025-10-20T12:32:34.000Z</time>
      </trkpt>
      <trkpt lat="49.33089" lon="3.35005">
        <ele>96.3</ele>
        <time>2025-10-20T12:32:35.000Z</time>
      </trkpt>
      <trkpt lat="49.33089" lon="3.35003">
        <ele>96.2</ele>
        <time>2025-10-20T12:32:36.000Z</time>
      </trkpt>
      <trkpt lat="49.33089" lon="3.35001">
        <ele>96.1</ele>
        <time>2025-10-20T12:32:37.000Z</time>
      </trkpt>
      <trkpt lat="49.33088" lon="3.34998">
        <ele>96</ele>
        <time>2025-10-20T12:32:38.000Z</time>
      </trkpt>
      <trkpt lat="49.33088" lon="3.34995">
        <ele>96.1</ele>
        <time>2025-10-20T12:32:39.000Z</time>
      </trkpt>
      <trkpt lat="49.33088" lon="3.34992">
        <ele>96.1</ele>
        <time>2025-10-20T12:32:40.000Z</time>
      </trkpt>
      <trkpt lat="49.33088" lon="3.3499">
        <ele>96.1</ele>
        <time>2025-10-20T12:32:41.000Z</time>
      </trkpt>
      <trkpt lat="49.33087" lon="3.34989">
        <ele>96.3</ele>
        <time>2025-10-20T12:32:42.000Z</time>
      </trkpt>
      <trkpt lat="49.33087" lon="3.34986">
        <ele>96.5</ele>
        <time>2025-10-20T12:32:43.000Z</time>
      </trkpt>
      <trkpt lat="49.33087" lon="3.34984">
        <ele>96.5</ele>
        <time>2025-10-20T12:32:44.000Z</time>
      </trkpt>
      <trkpt lat="49.33087" lon="3.34982">
        <ele>96.6</ele>
        <time>2025-10-20T12:32:45.000Z</time>
      </trkpt>
      <trkpt lat="49.33087" lon="3.3498">
        <ele>96.5</ele>
        <time>2025-10-20T12:32:46.000Z</time>
      </trkpt>
      <trkpt lat="49.33087" lon="3.34978">
        <ele>96.6</ele>
        <time>2025-10-20T12:32:47.000Z</time>
      </trkpt>
      <trkpt lat="49.33087" lon="3.34975">
        <ele>96.6</ele>
        <time>2025-10-20T12:32:48.000Z</time>
      </trkpt>
      <trkpt lat="49.33087" lon="3.34973">
        <ele>96.6</ele>
        <time>2025-10-20T12:32:49.000Z</time>
      </trkpt>
      <trkpt lat="49.33086" lon="3.34971">
        <ele>96.6</ele>
        <time>2025-10-20T12:32:50.000Z</time>
      </trkpt>
      <trkpt lat="49.33085" lon="3.34969">
        <ele>96.5</ele>
        <time>2025-10-20T12:32:51.000Z</time>
      </trkpt>
      <trkpt lat="49.33085" lon="3.34968">
        <ele>96.8</ele>
        <time>2025-10-20T12:32:52.000Z</time>
      </trkpt>
      <trkpt lat="49.33085" lon="3.34966">
        <ele>96.8</ele>
        <time>2025-10-20T12:32:53.000Z</time>
      </trkpt>
      <trkpt lat="49.33084" lon="3.34964">
        <ele>96.7</ele>
        <time>2025-10-20T12:32:54.000Z</time>
      </trkpt>
      <trkpt lat="49.33084" lon="3.34963">
        <ele>96.5</ele>
        <time>2025-10-20T12:32:55.000Z</time>
      </trkpt>
      <trkpt lat="49.33084" lon="3.34961">
        <ele>96.5</ele>
        <time>2025-10-20T12:32:56.000Z</time>
      </trkpt>
      <trkpt lat="49.33083" lon="3.34959">
        <ele>96.5</ele>
        <time>2025-10-20T12:32:57.000Z</time>
      </trkpt>
      <trkpt lat="49.33083" lon="3.34956">
        <ele>96.4</ele>
        <time>2025-10-20T12:32:58.000Z</time>
      </trkpt>
      <trkpt lat="49.33082" lon="3.34954">
        <ele>96.5</ele>
        <time>2025-10-20T12:32:59.000Z</time>
      </trkpt>
      <trkpt lat="49.33083" lon="3.34952">
        <ele>96.6</ele>
        <time>2025-10-20T12:33:00.000Z</time>
      </trkpt>
      <trkpt lat="49.33082" lon="3.3495">
        <ele>96.9</ele>
        <time>2025-10-20T12:33:01.000Z</time>
      </trkpt>
      <trkpt lat="49.33082" lon="3.34949">
        <ele>97.3</ele>
        <time>2025-10-20T12:33:02.000Z</time>
      </trkpt>
      <trkpt lat="49.33082" lon="3.34946">
        <ele>97.7</ele>
        <time>2025-10-20T12:33:03.000Z</time>
      </trkpt>
      <trkpt lat="49.33081" lon="3.34943">
        <ele>97.8</ele>
        <time>2025-10-20T12:33:04.000Z</time>
      </trkpt>
      <trkpt lat="49.33081" lon="3.34941">
        <ele>98.3</ele>
        <time>2025-10-20T12:33:05.000Z</time>
      </trkpt>
      <trkpt lat="49.33081" lon="3.34939">
        <ele>98.2</ele>
        <time>2025-10-20T12:33:06.000Z</time>
      </trkpt>
      <trkpt lat="49.3308" lon="3.34937">
        <ele>98</ele>
        <time>2025-10-20T12:33:07.000Z</time>
      </trkpt>
      <trkpt lat="49.3308" lon="3.34935">
        <ele>97.6</ele>
        <time>2025-10-20T12:33:08.000Z</time>
      </trkpt>
      <trkpt lat="49.3308" lon="3.34933">
        <ele>97.3</ele>
        <time>2025-10-20T12:33:09.000Z</time>
      </trkpt>
      <trkpt lat="49.3308" lon="3.34931">
        <ele>97</ele>
        <time>2025-10-20T12:33:10.000Z</time>
      </trkpt>
      <trkpt lat="49.3308" lon="3.34929">
        <ele>96.5</ele>
        <time>2025-10-20T12:33:11.000Z</time>
      </trkpt>
      <trkpt lat="49.3308" lon="3.34927">
        <ele>96.2</ele>
        <time>2025-10-20T12:33:12.000Z</time>
      </trkpt>
      <trkpt lat="49.33079" lon="3.34926">
        <ele>96</ele>
        <time>2025-10-20T12:33:13.000Z</time>
      </trkpt>
      <trkpt lat="49.33079" lon="3.34923">
        <ele>95.9</ele>
        <time>2025-10-20T12:33:14.000Z</time>
      </trkpt>
      <trkpt lat="49.33079" lon="3.34921">
        <ele>96.3</ele>
        <time>2025-10-20T12:33:15.000Z</time>
      </trkpt>
      <trkpt lat="49.33079" lon="3.3492">
        <ele>96.5</ele>
        <time>2025-10-20T12:33:16.000Z</time>
      </trkpt>
      <trkpt lat="49.33078" lon="3.34918">
        <ele>96.8</ele>
        <time>2025-10-20T12:33:17.000Z</time>
      </trkpt>
      <trkpt lat="49.33078" lon="3.34915">
        <ele>96.9</ele>
        <time>2025-10-20T12:33:18.000Z</time>
      </trkpt>
      <trkpt lat="49.33078" lon="3.34913">
        <ele>96.7</ele>
        <time>2025-10-20T12:33:19.000Z</time>
      </trkpt>
      <trkpt lat="49.33078" lon="3.34911">
        <ele>96.4</ele>
        <time>2025-10-20T12:33:20.000Z</time>
      </trkpt>
      <trkpt lat="49.33077" lon="3.34908">
        <ele>96.5</ele>
        <time>2025-10-20T12:33:21.000Z</time>
      </trkpt>
      <trkpt lat="49.33077" lon="3.34906">
        <ele>96.4</ele>
        <time>2025-10-20T12:33:22.000Z</time>
      </trkpt>
      <trkpt lat="49.33077" lon="3.34904">
        <ele>96.5</ele>
        <time>2025-10-20T12:33:23.000Z</time>
      </trkpt>
      <trkpt lat="49.33077" lon="3.34902">
        <ele>96.3</ele>
        <time>2025-10-20T12:33:24.000Z</time>
      </trkpt>
      <trkpt lat="49.33077" lon="3.34901">
        <ele>96.2</ele>
        <time>2025-10-20T12:33:25.000Z</time>
      </trkpt>
      <trkpt lat="49.33076" lon="3.34899">
        <ele>95.7</ele>
        <time>2025-10-20T12:33:26.000Z</time>
      </trkpt>
      <trkpt lat="49.33076" lon="3.34897">
        <ele>95.2</ele>
        <time>2025-10-20T12:33:27.000Z</time>
      </trkpt>
      <trkpt lat="49.33075" lon="3.34895">
        <ele>94.8</ele>
        <time>2025-10-20T12:33:28.000Z</time>
      </trkpt>
      <trkpt lat="49.33075" lon="3.34892">
        <ele>94.5</ele>
        <time>2025-10-20T12:33:29.000Z</time>
      </trkpt>
      <trkpt lat="49.33075" lon="3.3489">
        <ele>94.1</ele>
        <time>2025-10-20T12:33:30.000Z</time>
      </trkpt>
      <trkpt lat="49.33075" lon="3.34888">
        <ele>93.9</ele>
        <time>2025-10-20T12:33:31.000Z</time>
      </trkpt>
      <trkpt lat="49.33074" lon="3.34886">
        <ele>93.7</ele>
        <time>2025-10-20T12:33:32.000Z</time>
      </trkpt>
      <trkpt lat="49.33074" lon="3.34884">
        <ele>93.5</ele>
        <time>2025-10-20T12:33:33.000Z</time>
      </trkpt>
      <trkpt lat="49.33073" lon="3.34881">
        <ele>93.1</ele>
        <time>2025-10-20T12:33:34.000Z</time>
      </trkpt>
      <trkpt lat="49.33073" lon="3.34879">
        <ele>92.5</ele>
        <time>2025-10-20T12:33:35.000Z</time>
      </trkpt>
      <trkpt lat="49.33072" lon="3.34877">
        <ele>92.3</ele>
        <time>2025-10-20T12:33:36.000Z</time>
      </trkpt>
      <trkpt lat="49.33072" lon="3.34875">
        <ele>92.3</ele>
        <time>2025-10-20T12:33:37.000Z</time>
      </trkpt>
      <trkpt lat="49.33071" lon="3.34873">
        <ele>92.3</ele>
        <time>2025-10-20T12:33:38.000Z</time>
      </trkpt>
      <trkpt lat="49.33071" lon="3.3487">
        <ele>92.2</ele>
        <time>2025-10-20T12:33:39.000Z</time>
      </trkpt>
      <trkpt lat="49.3307" lon="3.34868">
        <ele>92.1</ele>
        <time>2025-10-20T12:33:40.000Z</time>
      </trkpt>
      <trkpt lat="49.3307" lon="3.34866">
        <ele>92</ele>
        <time>2025-10-20T12:33:41.000Z</time>
      </trkpt>
      <trkpt lat="49.33069" lon="3.34864">
        <ele>91.8</ele>
        <time>2025-10-20T12:33:42.000Z</time>
      </trkpt>
      <trkpt lat="49.33069" lon="3.34862">
        <ele>91.4</ele>
        <time>2025-10-20T12:33:43.000Z</time>
      </trkpt>
      <trkpt lat="49.33069" lon="3.3486">
        <ele>91.7</ele>
        <time>2025-10-20T12:33:44.000Z</time>
      </trkpt>
      <trkpt lat="49.33068" lon="3.34857">
        <ele>92</ele>
        <time>2025-10-20T12:33:45.000Z</time>
      </trkpt>
      <trkpt lat="49.33068" lon="3.34855">
        <ele>92.4</ele>
        <time>2025-10-20T12:33:46.000Z</time>
      </trkpt>
      <trkpt lat="49.33067" lon="3.34853">
        <ele>92.7</ele>
        <time>2025-10-20T12:33:47.000Z</time>
      </trkpt>
      <trkpt lat="49.33067" lon="3.34851">
        <ele>93.2</ele>
        <time>2025-10-20T12:33:48.000Z</time>
      </trkpt>
      <trkpt lat="49.33067" lon="3.34848">
        <ele>93.7</ele>
        <time>2025-10-20T12:33:49.000Z</time>
      </trkpt>
      <trkpt lat="49.33067" lon="3.34846">
        <ele>94.1</ele>
        <time>2025-10-20T12:33:50.000Z</time>
      </trkpt>
      <trkpt lat="49.33066" lon="3.34844">
        <ele>94.2</ele>
        <time>2025-10-20T12:33:51.000Z</time>
      </trkpt>
      <trkpt lat="49.33065" lon="3.34842">
        <ele>94.4</ele>
        <time>2025-10-20T12:33:52.000Z</time>
      </trkpt>
      <trkpt lat="49.33065" lon="3.34839">
        <ele>94.7</ele>
        <time>2025-10-20T12:33:53.000Z</time>
      </trkpt>
      <trkpt lat="49.33065" lon="3.34837">
        <ele>94.7</ele>
        <time>2025-10-20T12:33:54.000Z</time>
      </trkpt>
      <trkpt lat="49.33065" lon="3.34836">
        <ele>94.7</ele>
        <time>2025-10-20T12:33:55.000Z</time>
      </trkpt>
      <trkpt lat="49.33065" lon="3.34834">
        <ele>94.5</ele>
        <time>2025-10-20T12:33:56.000Z</time>
      </trkpt>
      <trkpt lat="49.33065" lon="3.34833">
        <ele>94.4</ele>
        <time>2025-10-20T12:33:57.000Z</time>
      </trkpt>
      <trkpt lat="49.33064" lon="3.3483">
        <ele>94.6</ele>
        <time>2025-10-20T12:33:58.000Z</time>
      </trkpt>
      <trkpt lat="49.33064" lon="3.34827">
        <ele>94.9</ele>
        <time>2025-10-20T12:33:59.000Z</time>
      </trkpt>
      <trkpt lat="49.33063" lon="3.34825">
        <ele>94.8</ele>
        <time>2025-10-20T12:34:00.000Z</time>
      </trkpt>
      <trkpt lat="49.33063" lon="3.34824">
        <ele>94.7</ele>
        <time>2025-10-20T12:34:01.000Z</time>
      </trkpt>
      <trkpt lat="49.33063" lon="3.34822">
        <ele>94.5</ele>
        <time>2025-10-20T12:34:02.000Z</time>
      </trkpt>
      <trkpt lat="49.33062" lon="3.3482">
        <ele>94.5</ele>
        <time>2025-10-20T12:34:03.000Z</time>
      </trkpt>
      <trkpt lat="49.33062" lon="3.34818">
        <ele>94.6</ele>
        <time>2025-10-20T12:34:04.000Z</time>
      </trkpt>
      <trkpt lat="49.33063" lon="3.34816">
        <ele>94.6</ele>
        <time>2025-10-20T12:34:05.000Z</time>
      </trkpt>
      <trkpt lat="49.33062" lon="3.34814">
        <ele>94.7</ele>
        <time>2025-10-20T12:34:06.000Z</time>
      </trkpt>
      <trkpt lat="49.33062" lon="3.34812">
        <ele>94.7</ele>
        <time>2025-10-20T12:34:07.000Z</time>
      </trkpt>
      <trkpt lat="49.33062" lon="3.3481">
        <ele>94.5</ele>
        <time>2025-10-20T12:34:08.000Z</time>
      </trkpt>
      <trkpt lat="49.33061" lon="3.34807">
        <ele>94.5</ele>
        <time>2025-10-20T12:34:09.000Z</time>
      </trkpt>
      <trkpt lat="49.33061" lon="3.34805">
        <ele>94.3</ele>
        <time>2025-10-20T12:34:10.000Z</time>
      </trkpt>
      <trkpt lat="49.3306" lon="3.34803">
        <ele>94.3</ele>
        <time>2025-10-20T12:34:11.000Z</time>
      </trkpt>
      <trkpt lat="49.3306" lon="3.34801">
        <ele>94.2</ele>
        <time>2025-10-20T12:34:12.000Z</time>
      </trkpt>
      <trkpt lat="49.3306" lon="3.34799">
        <ele>94</ele>
        <time>2025-10-20T12:34:13.000Z</time>
      </trkpt>
      <trkpt lat="49.3306" lon="3.34796">
        <ele>93.8</ele>
        <time>2025-10-20T12:34:14.000Z</time>
      </trkpt>
      <trkpt lat="49.33059" lon="3.34794">
        <ele>93.5</ele>
        <time>2025-10-20T12:34:15.000Z</time>
      </trkpt>
      <trkpt lat="49.33059" lon="3.34792">
        <ele>93.7</ele>
        <time>2025-10-20T12:34:16.000Z</time>
      </trkpt>
      <trkpt lat="49.33059" lon="3.3479">
        <ele>93.8</ele>
        <time>2025-10-20T12:34:17.000Z</time>
      </trkpt>
      <trkpt lat="49.33058" lon="3.34788">
        <ele>93.8</ele>
        <time>2025-10-20T12:34:18.000Z</time>
      </trkpt>
      <trkpt lat="49.33058" lon="3.34786">
        <ele>94</ele>
        <time>2025-10-20T12:34:19.000Z</time>
      </trkpt>
      <trkpt lat="49.33058" lon="3.34784">
        <ele>94.3</ele>
        <time>2025-10-20T12:34:20.000Z</time>
      </trkpt>
      <trkpt lat="49.33058" lon="3.34782">
        <ele>94.5</ele>
        <time>2025-10-20T12:34:21.000Z</time>
      </trkpt>
      <trkpt lat="49.33058" lon="3.34779">
        <ele>94.6</ele>
        <time>2025-10-20T12:34:22.000Z</time>
      </trkpt>
      <trkpt lat="49.33058" lon="3.34777">
        <ele>94.9</ele>
        <time>2025-10-20T12:34:23.000Z</time>
      </trkpt>
      <trkpt lat="49.33057" lon="3.34775">
        <ele>95.1</ele>
        <time>2025-10-20T12:34:24.000Z</time>
      </trkpt>
      <trkpt lat="49.33057" lon="3.34773">
        <ele>95.4</ele>
        <time>2025-10-20T12:34:25.000Z</time>
      </trkpt>
      <trkpt lat="49.33057" lon="3.3477">
        <ele>95.6</ele>
        <time>2025-10-20T12:34:26.000Z</time>
      </trkpt>
      <trkpt lat="49.33057" lon="3.34768">
        <ele>95.7</ele>
        <time>2025-10-20T12:34:27.000Z</time>
      </trkpt>
      <trkpt lat="49.33057" lon="3.34766">
        <ele>95.9</ele>
        <time>2025-10-20T12:34:28.000Z</time>
      </trkpt>
      <trkpt lat="49.33056" lon="3.34764">
        <ele>96.1</ele>
        <time>2025-10-20T12:34:29.000Z</time>
      </trkpt>
      <trkpt lat="49.33056" lon="3.34763">
        <ele>96.3</ele>
        <time>2025-10-20T12:34:30.000Z</time>
      </trkpt>
      <trkpt lat="49.33056" lon="3.34761">
        <ele>96.5</ele>
        <time>2025-10-20T12:34:31.000Z</time>
      </trkpt>
      <trkpt lat="49.33055" lon="3.34759">
        <ele>96.7</ele>
        <time>2025-10-20T12:34:32.000Z</time>
      </trkpt>
      <trkpt lat="49.33055" lon="3.34758">
        <ele>96.9</ele>
        <time>2025-10-20T12:34:33.000Z</time>
      </trkpt>
      <trkpt lat="49.33055" lon="3.34756">
        <ele>96.8</ele>
        <time>2025-10-20T12:34:34.000Z</time>
      </trkpt>
      <trkpt lat="49.33055" lon="3.34753">
        <ele>96.1</ele>
        <time>2025-10-20T12:34:35.000Z</time>
      </trkpt>
      <trkpt lat="49.33055" lon="3.34751">
        <ele>95.9</ele>
        <time>2025-10-20T12:34:36.000Z</time>
      </trkpt>
      <trkpt lat="49.33054" lon="3.34749">
        <ele>96</ele>
        <time>2025-10-20T12:34:37.000Z</time>
      </trkpt>
      <trkpt lat="49.33054" lon="3.34747">
        <ele>96</ele>
        <time>2025-10-20T12:34:38.000Z</time>
      </trkpt>
      <trkpt lat="49.33054" lon="3.34745">
        <ele>96</ele>
        <time>2025-10-20T12:34:39.000Z</time>
      </trkpt>
      <trkpt lat="49.33053" lon="3.34742">
        <ele>96.2</ele>
        <time>2025-10-20T12:34:40.000Z</time>
      </trkpt>
      <trkpt lat="49.33053" lon="3.34739">
        <ele>96.2</ele>
        <time>2025-10-20T12:34:41.000Z</time>
      </trkpt>
      <trkpt lat="49.33053" lon="3.34738">
        <ele>96.1</ele>
        <time>2025-10-20T12:34:42.000Z</time>
      </trkpt>
      <trkpt lat="49.33052" lon="3.34736">
        <ele>96.3</ele>
        <time>2025-10-20T12:34:43.000Z</time>
      </trkpt>
      <trkpt lat="49.33052" lon="3.34734">
        <ele>96.4</ele>
        <time>2025-10-20T12:34:44.000Z</time>
      </trkpt>
      <trkpt lat="49.33051" lon="3.34732">
        <ele>96.8</ele>
        <time>2025-10-20T12:34:45.000Z</time>
      </trkpt>
      <trkpt lat="49.33051" lon="3.3473">
        <ele>96.9</ele>
        <time>2025-10-20T12:34:46.000Z</time>
      </trkpt>
      <trkpt lat="49.33051" lon="3.34728">
        <ele>96.8</ele>
        <time>2025-10-20T12:34:47.000Z</time>
      </trkpt>
      <trkpt lat="49.33051" lon="3.34726">
        <ele>96.8</ele>
        <time>2025-10-20T12:34:48.000Z</time>
      </trkpt>
      <trkpt lat="49.3305" lon="3.34724">
        <ele>96.9</ele>
        <time>2025-10-20T12:34:49.000Z</time>
      </trkpt>
      <trkpt lat="49.3305" lon="3.34721">
        <ele>97</ele>
        <time>2025-10-20T12:34:50.000Z</time>
      </trkpt>
      <trkpt lat="49.3305" lon="3.34719">
        <ele>97</ele>
        <time>2025-10-20T12:34:51.000Z</time>
      </trkpt>
      <trkpt lat="49.33049" lon="3.34717">
        <ele>96.3</ele>
        <time>2025-10-20T12:34:52.000Z</time>
      </trkpt>
      <trkpt lat="49.33049" lon="3.34715">
        <ele>95.9</ele>
        <time>2025-10-20T12:34:53.000Z</time>
      </trkpt>
      <trkpt lat="49.33049" lon="3.34713">
        <ele>95.6</ele>
        <time>2025-10-20T12:34:54.000Z</time>
      </trkpt>
      <trkpt lat="49.33049" lon="3.34711">
        <ele>95.4</ele>
        <time>2025-10-20T12:34:55.000Z</time>
      </trkpt>
      <trkpt lat="49.33048" lon="3.34709">
        <ele>95.6</ele>
        <time>2025-10-20T12:34:56.000Z</time>
      </trkpt>
      <trkpt lat="49.33048" lon="3.34707">
        <ele>96</ele>
        <time>2025-10-20T12:34:57.000Z</time>
      </trkpt>
      <trkpt lat="49.33047" lon="3.34705">
        <ele>96.3</ele>
        <time>2025-10-20T12:34:58.000Z</time>
      </trkpt>
      <trkpt lat="49.33047" lon="3.34702">
        <ele>96.6</ele>
        <time>2025-10-20T12:34:59.000Z</time>
      </trkpt>
      <trkpt lat="49.33047" lon="3.347">
        <ele>97.1</ele>
        <time>2025-10-20T12:35:00.000Z</time>
      </trkpt>
      <trkpt lat="49.33047" lon="3.34697">
        <ele>97.2</ele>
        <time>2025-10-20T12:35:01.000Z</time>
      </trkpt>
      <trkpt lat="49.33046" lon="3.34695">
        <ele>97.2</ele>
        <time>2025-10-20T12:35:02.000Z</time>
      </trkpt>
      <trkpt lat="49.33046" lon="3.34692">
        <ele>97</ele>
        <time>2025-10-20T12:35:03.000Z</time>
      </trkpt>
      <trkpt lat="49.33046" lon="3.3469">
        <ele>96.8</ele>
        <time>2025-10-20T12:35:04.000Z</time>
      </trkpt>
      <trkpt lat="49.33046" lon="3.34688">
        <ele>96</ele>
        <time>2025-10-20T12:35:05.000Z</time>
      </trkpt>
      <trkpt lat="49.33046" lon="3.34688">
        <ele>95.5</ele>
        <time>2025-10-20T12:35:06.000Z</time>
      </trkpt>
      <trkpt lat="49.33046" lon="3.34686">
        <ele>95.3</ele>
        <time>2025-10-20T12:35:07.000Z</time>
      </trkpt>
      <trkpt lat="49.33045" lon="3.34683">
        <ele>95</ele>
        <time>2025-10-20T12:35:08.000Z</time>
      </trkpt>
      <trkpt lat="49.33045" lon="3.34681">
        <ele>95.5</ele>
        <time>2025-10-20T12:35:09.000Z</time>
      </trkpt>
      <trkpt lat="49.33045" lon="3.34679">
        <ele>95.7</ele>
        <time>2025-10-20T12:35:10.000Z</time>
      </trkpt>
      <trkpt lat="49.33044" lon="3.34677">
        <ele>95.7</ele>
        <time>2025-10-20T12:35:11.000Z</time>
      </trkpt>
      <trkpt lat="49.33044" lon="3.34674">
        <ele>95.6</ele>
        <time>2025-10-20T12:35:12.000Z</time>
      </trkpt>
      <trkpt lat="49.33044" lon="3.34672">
        <ele>95.6</ele>
        <time>2025-10-20T12:35:13.000Z</time>
      </trkpt>
      <trkpt lat="49.33044" lon="3.34669">
        <ele>95.6</ele>
        <time>2025-10-20T12:35:14.000Z</time>
      </trkpt>
      <trkpt lat="49.33043" lon="3.34667">
        <ele>95.4</ele>
        <time>2025-10-20T12:35:15.000Z</time>
      </trkpt>
      <trkpt lat="49.33042" lon="3.34666">
        <ele>95.4</ele>
        <time>2025-10-20T12:35:16.000Z</time>
      </trkpt>
      <trkpt lat="49.33042" lon="3.34664">
        <ele>95.4</ele>
        <time>2025-10-20T12:35:17.000Z</time>
      </trkpt>
      <trkpt lat="49.33042" lon="3.34663">
        <ele>95.3</ele>
        <time>2025-10-20T12:35:18.000Z</time>
      </trkpt>
      <trkpt lat="49.33042" lon="3.34661">
        <ele>94.9</ele>
        <time>2025-10-20T12:35:19.000Z</time>
      </trkpt>
      <trkpt lat="49.33042" lon="3.34659">
        <ele>94.7</ele>
        <time>2025-10-20T12:35:20.000Z</time>
      </trkpt>
      <trkpt lat="49.33041" lon="3.34657">
        <ele>94.5</ele>
        <time>2025-10-20T12:35:21.000Z</time>
      </trkpt>
      <trkpt lat="49.3304" lon="3.34655">
        <ele>94.6</ele>
        <time>2025-10-20T12:35:22.000Z</time>
      </trkpt>
      <trkpt lat="49.33039" lon="3.34653">
        <ele>94.8</ele>
        <time>2025-10-20T12:35:23.000Z</time>
      </trkpt>
      <trkpt lat="49.33038" lon="3.3465">
        <ele>95.1</ele>
        <time>2025-10-20T12:35:24.000Z</time>
      </trkpt>
      <trkpt lat="49.33037" lon="3.34648">
        <ele>95.6</ele>
        <time>2025-10-20T12:35:25.000Z</time>
      </trkpt>
      <trkpt lat="49.33037" lon="3.34646">
        <ele>96</ele>
        <time>2025-10-20T12:35:26.000Z</time>
      </trkpt>
      <trkpt lat="49.33037" lon="3.34643">
        <ele>96.1</ele>
        <time>2025-10-20T12:35:27.000Z</time>
      </trkpt>
      <trkpt lat="49.33037" lon="3.34641">
        <ele>95.6</ele>
        <time>2025-10-20T12:35:28.000Z</time>
      </trkpt>
      <trkpt lat="49.33037" lon="3.34639">
        <ele>95.3</ele>
        <time>2025-10-20T12:35:29.000Z</time>
      </trkpt>
      <trkpt lat="49.33036" lon="3.34637">
        <ele>95.7</ele>
        <time>2025-10-20T12:35:30.000Z</time>
      </trkpt>
      <trkpt lat="49.33036" lon="3.34635">
        <ele>95.9</ele>
        <time>2025-10-20T12:35:31.000Z</time>
      </trkpt>
      <trkpt lat="49.33035" lon="3.34632">
        <ele>95.3</ele>
        <time>2025-10-20T12:35:32.000Z</time>
      </trkpt>
      <trkpt lat="49.33035" lon="3.3463">
        <ele>95.2</ele>
        <time>2025-10-20T12:35:33.000Z</time>
      </trkpt>
      <trkpt lat="49.33034" lon="3.34628">
        <ele>95.6</ele>
        <time>2025-10-20T12:35:34.000Z</time>
      </trkpt>
      <trkpt lat="49.33033" lon="3.34626">
        <ele>95.9</ele>
        <time>2025-10-20T12:35:35.000Z</time>
      </trkpt>
      <trkpt lat="49.33032" lon="3.34624">
        <ele>96.3</ele>
        <time>2025-10-20T12:35:36.000Z</time>
      </trkpt>
      <trkpt lat="49.33032" lon="3.34622">
        <ele>96.5</ele>
        <time>2025-10-20T12:35:37.000Z</time>
      </trkpt>
      <trkpt lat="49.33032" lon="3.3462">
        <ele>96.7</ele>
        <time>2025-10-20T12:35:38.000Z</time>
      </trkpt>
      <trkpt lat="49.33032" lon="3.34618">
        <ele>96.8</ele>
        <time>2025-10-20T12:35:39.000Z</time>
      </trkpt>
      <trkpt lat="49.33032" lon="3.34616">
        <ele>97.1</ele>
        <time>2025-10-20T12:35:40.000Z</time>
      </trkpt>
      <trkpt lat="49.33032" lon="3.34614">
        <ele>97.2</ele>
        <time>2025-10-20T12:35:41.000Z</time>
      </trkpt>
      <trkpt lat="49.33031" lon="3.34612">
        <ele>97.4</ele>
        <time>2025-10-20T12:35:42.000Z</time>
      </trkpt>
      <trkpt lat="49.33031" lon="3.3461">
        <ele>97</ele>
        <time>2025-10-20T12:35:43.000Z</time>
      </trkpt>
      <trkpt lat="49.33031" lon="3.34607">
        <ele>96.6</ele>
        <time>2025-10-20T12:35:44.000Z</time>
      </trkpt>
      <trkpt lat="49.33031" lon="3.34605">
        <ele>96.5</ele>
        <time>2025-10-20T12:35:45.000Z</time>
      </trkpt>
      <trkpt lat="49.3303" lon="3.34603">
        <ele>96.3</ele>
        <time>2025-10-20T12:35:46.000Z</time>
      </trkpt>
      <trkpt lat="49.3303" lon="3.346">
        <ele>96.2</ele>
        <time>2025-10-20T12:35:47.000Z</time>
      </trkpt>
      <trkpt lat="49.3303" lon="3.34598">
        <ele>96.2</ele>
        <time>2025-10-20T12:35:48.000Z</time>
      </trkpt>
      <trkpt lat="49.3303" lon="3.34596">
        <ele>96.1</ele>
        <time>2025-10-20T12:35:49.000Z</time>
      </trkpt>
      <trkpt lat="49.3303" lon="3.34594">
        <ele>96.2</ele>
        <time>2025-10-20T12:35:50.000Z</time>
      </trkpt>
      <trkpt lat="49.3303" lon="3.34593">
        <ele>96</ele>
        <time>2025-10-20T12:35:51.000Z</time>
      </trkpt>
      <trkpt lat="49.3303" lon="3.34591">
        <ele>95.9</ele>
        <time>2025-10-20T12:35:52.000Z</time>
      </trkpt>
      <trkpt lat="49.3303" lon="3.34589">
        <ele>95.7</ele>
        <time>2025-10-20T12:35:53.000Z</time>
      </trkpt>
      <trkpt lat="49.3303" lon="3.34587">
        <ele>95.5</ele>
        <time>2025-10-20T12:35:54.000Z</time>
      </trkpt>
      <trkpt lat="49.3303" lon="3.34585">
        <ele>95.6</ele>
        <time>2025-10-20T12:35:55.000Z</time>
      </trkpt>
      <trkpt lat="49.3303" lon="3.34582">
        <ele>95.4</ele>
        <time>2025-10-20T12:35:56.000Z</time>
      </trkpt>
      <trkpt lat="49.3303" lon="3.3458">
        <ele>95.2</ele>
        <time>2025-10-20T12:35:57.000Z</time>
      </trkpt>
      <trkpt lat="49.3303" lon="3.34578">
        <ele>94.8</ele>
        <time>2025-10-20T12:35:58.000Z</time>
      </trkpt>
      <trkpt lat="49.3303" lon="3.34576">
        <ele>94.4</ele>
        <time>2025-10-20T12:35:59.000Z</time>
      </trkpt>
      <trkpt lat="49.3303" lon="3.34575">
        <ele>94</ele>
        <time>2025-10-20T12:36:00.000Z</time>
      </trkpt>
      <trkpt lat="49.33029" lon="3.34572">
        <ele>94</ele>
        <time>2025-10-20T12:36:01.000Z</time>
      </trkpt>
      <trkpt lat="49.33029" lon="3.34569">
        <ele>93.8</ele>
        <time>2025-10-20T12:36:02.000Z</time>
      </trkpt>
      <trkpt lat="49.33028" lon="3.34567">
        <ele>93.5</ele>
        <time>2025-10-20T12:36:03.000Z</time>
      </trkpt>
      <trkpt lat="49.33028" lon="3.34564">
        <ele>93.5</ele>
        <time>2025-10-20T12:36:04.000Z</time>
      </trkpt>
      <trkpt lat="49.33027" lon="3.34562">
        <ele>93.9</ele>
        <time>2025-10-20T12:36:05.000Z</time>
      </trkpt>
      <trkpt lat="49.33026" lon="3.3456">
        <ele>93.6</ele>
        <time>2025-10-20T12:36:06.000Z</time>
      </trkpt>
      <trkpt lat="49.33026" lon="3.34559">
        <ele>93.8</ele>
        <time>2025-10-20T12:36:07.000Z</time>
      </trkpt>
      <trkpt lat="49.33026" lon="3.34556">
        <ele>93.7</ele>
        <time>2025-10-20T12:36:08.000Z</time>
      </trkpt>
      <trkpt lat="49.33025" lon="3.34553">
        <ele>93.6</ele>
        <time>2025-10-20T12:36:09.000Z</time>
      </trkpt>
      <trkpt lat="49.33024" lon="3.34551">
        <ele>93.8</ele>
        <time>2025-10-20T12:36:10.000Z</time>
      </trkpt>
      <trkpt lat="49.33024" lon="3.34549">
        <ele>93.9</ele>
        <time>2025-10-20T12:36:11.000Z</time>
      </trkpt>
      <trkpt lat="49.33024" lon="3.34547">
        <ele>93.8</ele>
        <time>2025-10-20T12:36:12.000Z</time>
      </trkpt>
      <trkpt lat="49.33023" lon="3.34546">
        <ele>93.3</ele>
        <time>2025-10-20T12:36:13.000Z</time>
      </trkpt>
      <trkpt lat="49.33023" lon="3.34544">
        <ele>93.2</ele>
        <time>2025-10-20T12:36:14.000Z</time>
      </trkpt>
      <trkpt lat="49.33022" lon="3.34542">
        <ele>92.9</ele>
        <time>2025-10-20T12:36:15.000Z</time>
      </trkpt>
      <trkpt lat="49.33021" lon="3.34539">
        <ele>92.8</ele>
        <time>2025-10-20T12:36:16.000Z</time>
      </trkpt>
      <trkpt lat="49.33021" lon="3.34538">
        <ele>92.7</ele>
        <time>2025-10-20T12:36:17.000Z</time>
      </trkpt>
      <trkpt lat="49.33022" lon="3.34536">
        <ele>92.6</ele>
        <time>2025-10-20T12:36:18.000Z</time>
      </trkpt>
      <trkpt lat="49.33022" lon="3.34534">
        <ele>92.4</ele>
        <time>2025-10-20T12:36:19.000Z</time>
      </trkpt>
      <trkpt lat="49.33022" lon="3.34532">
        <ele>92.2</ele>
        <time>2025-10-20T12:36:20.000Z</time>
      </trkpt>
      <trkpt lat="49.33022" lon="3.3453">
        <ele>92.4</ele>
        <time>2025-10-20T12:36:21.000Z</time>
      </trkpt>
      <trkpt lat="49.33022" lon="3.34528">
        <ele>92.5</ele>
        <time>2025-10-20T12:36:22.000Z</time>
      </trkpt>
      <trkpt lat="49.33022" lon="3.34526">
        <ele>92.7</ele>
        <time>2025-10-20T12:36:23.000Z</time>
      </trkpt>
      <trkpt lat="49.33021" lon="3.34524">
        <ele>92.6</ele>
        <time>2025-10-20T12:36:24.000Z</time>
      </trkpt>
      <trkpt lat="49.33021" lon="3.34521">
        <ele>92.7</ele>
        <time>2025-10-20T12:36:25.000Z</time>
      </trkpt>
      <trkpt lat="49.3302" lon="3.34519">
        <ele>92.9</ele>
        <time>2025-10-20T12:36:26.000Z</time>
      </trkpt>
      <trkpt lat="49.3302" lon="3.34516">
        <ele>93.1</ele>
        <time>2025-10-20T12:36:27.000Z</time>
      </trkpt>
      <trkpt lat="49.3302" lon="3.34514">
        <ele>93</ele>
        <time>2025-10-20T12:36:28.000Z</time>
      </trkpt>
      <trkpt lat="49.33019" lon="3.34513">
        <ele>93.1</ele>
        <time>2025-10-20T12:36:29.000Z</time>
      </trkpt>
      <trkpt lat="49.33019" lon="3.34511">
        <ele>93.3</ele>
        <time>2025-10-20T12:36:30.000Z</time>
      </trkpt>
      <trkpt lat="49.33019" lon="3.34509">
        <ele>93.3</ele>
        <time>2025-10-20T12:36:31.000Z</time>
      </trkpt>
      <trkpt lat="49.33019" lon="3.34507">
        <ele>93.4</ele>
        <time>2025-10-20T12:36:32.000Z</time>
      </trkpt>
      <trkpt lat="49.33018" lon="3.34505">
        <ele>93.7</ele>
        <time>2025-10-20T12:36:33.000Z</time>
      </trkpt>
      <trkpt lat="49.33018" lon="3.34502">
        <ele>93.7</ele>
        <time>2025-10-20T12:36:34.000Z</time>
      </trkpt>
      <trkpt lat="49.33018" lon="3.345">
        <ele>93.5</ele>
        <time>2025-10-20T12:36:35.000Z</time>
      </trkpt>
      <trkpt lat="49.33017" lon="3.34497">
        <ele>93.3</ele>
        <time>2025-10-20T12:36:36.000Z</time>
      </trkpt>
      <trkpt lat="49.33017" lon="3.34495">
        <ele>93.1</ele>
        <time>2025-10-20T12:36:37.000Z</time>
      </trkpt>
      <trkpt lat="49.33017" lon="3.34493">
        <ele>92.6</ele>
        <time>2025-10-20T12:36:38.000Z</time>
      </trkpt>
      <trkpt lat="49.33017" lon="3.34491">
        <ele>92.8</ele>
        <time>2025-10-20T12:36:39.000Z</time>
      </trkpt>
      <trkpt lat="49.33017" lon="3.34489">
        <ele>92.5</ele>
        <time>2025-10-20T12:36:40.000Z</time>
      </trkpt>
      <trkpt lat="49.33017" lon="3.34487">
        <ele>92.1</ele>
        <time>2025-10-20T12:36:41.000Z</time>
      </trkpt>
      <trkpt lat="49.33016" lon="3.34485">
        <ele>91.9</ele>
        <time>2025-10-20T12:36:42.000Z</time>
      </trkpt>
      <trkpt lat="49.33016" lon="3.34482">
        <ele>91.7</ele>
        <time>2025-10-20T12:36:43.000Z</time>
      </trkpt>
      <trkpt lat="49.33016" lon="3.3448">
        <ele>91.5</ele>
        <time>2025-10-20T12:36:44.000Z</time>
      </trkpt>
      <trkpt lat="49.33016" lon="3.34478">
        <ele>91.4</ele>
        <time>2025-10-20T12:36:45.000Z</time>
      </trkpt>
      <trkpt lat="49.33015" lon="3.34477">
        <ele>91.1</ele>
        <time>2025-10-20T12:36:46.000Z</time>
      </trkpt>
      <trkpt lat="49.33015" lon="3.34475">
        <ele>90.8</ele>
        <time>2025-10-20T12:36:47.000Z</time>
      </trkpt>
      <trkpt lat="49.33015" lon="3.34473">
        <ele>91.1</ele>
        <time>2025-10-20T12:36:48.000Z</time>
      </trkpt>
      <trkpt lat="49.33014" lon="3.3447">
        <ele>91</ele>
        <time>2025-10-20T12:36:49.000Z</time>
      </trkpt>
      <trkpt lat="49.33014" lon="3.34468">
        <ele>90.7</ele>
        <time>2025-10-20T12:36:50.000Z</time>
      </trkpt>
      <trkpt lat="49.33014" lon="3.34466">
        <ele>90.6</ele>
        <time>2025-10-20T12:36:51.000Z</time>
      </trkpt>
      <trkpt lat="49.33014" lon="3.34463">
        <ele>91.1</ele>
        <time>2025-10-20T12:36:52.000Z</time>
      </trkpt>
      <trkpt lat="49.33013" lon="3.34461">
        <ele>91.2</ele>
        <time>2025-10-20T12:36:53.000Z</time>
      </trkpt>
      <trkpt lat="49.33013" lon="3.34458">
        <ele>91.4</ele>
        <time>2025-10-20T12:36:54.000Z</time>
      </trkpt>
      <trkpt lat="49.33013" lon="3.34456">
        <ele>91.4</ele>
        <time>2025-10-20T12:36:55.000Z</time>
      </trkpt>
      <trkpt lat="49.33012" lon="3.34454">
        <ele>91.2</ele>
        <time>2025-10-20T12:36:56.000Z</time>
      </trkpt>
      <trkpt lat="49.33012" lon="3.34451">
        <ele>91.3</ele>
        <time>2025-10-20T12:36:57.000Z</time>
      </trkpt>
      <trkpt lat="49.33012" lon="3.34449">
        <ele>91.3</ele>
        <time>2025-10-20T12:36:58.000Z</time>
      </trkpt>
      <trkpt lat="49.33012" lon="3.34447">
        <ele>91.4</ele>
        <time>2025-10-20T12:36:59.000Z</time>
      </trkpt>
      <trkpt lat="49.33011" lon="3.34446">
        <ele>91.6</ele>
        <time>2025-10-20T12:37:00.000Z</time>
      </trkpt>
      <trkpt lat="49.33011" lon="3.34443">
        <ele>91.7</ele>
        <time>2025-10-20T12:37:01.000Z</time>
      </trkpt>
      <trkpt lat="49.33011" lon="3.3444">
        <ele>92.1</ele>
        <time>2025-10-20T12:37:02.000Z</time>
      </trkpt>
      <trkpt lat="49.3301" lon="3.34437">
        <ele>93</ele>
        <time>2025-10-20T12:37:03.000Z</time>
      </trkpt>
      <trkpt lat="49.3301" lon="3.34435">
        <ele>93.4</ele>
        <time>2025-10-20T12:37:04.000Z</time>
      </trkpt>
      <trkpt lat="49.33009" lon="3.34433">
        <ele>93.4</ele>
        <time>2025-10-20T12:37:05.000Z</time>
      </trkpt>
      <trkpt lat="49.33009" lon="3.34431">
        <ele>93.5</ele>
        <time>2025-10-20T12:37:06.000Z</time>
      </trkpt>
      <trkpt lat="49.33009" lon="3.34428">
        <ele>93.5</ele>
        <time>2025-10-20T12:37:07.000Z</time>
      </trkpt>
      <trkpt lat="49.33009" lon="3.34426">
        <ele>93.6</ele>
        <time>2025-10-20T12:37:08.000Z</time>
      </trkpt>
      <trkpt lat="49.33009" lon="3.34424">
        <ele>93.7</ele>
        <time>2025-10-20T12:37:09.000Z</time>
      </trkpt>
      <trkpt lat="49.33009" lon="3.34421">
        <ele>93.8</ele>
        <time>2025-10-20T12:37:10.000Z</time>
      </trkpt>
      <trkpt lat="49.33009" lon="3.34419">
        <ele>94</ele>
        <time>2025-10-20T12:37:11.000Z</time>
      </trkpt>
      <trkpt lat="49.33008" lon="3.34416">
        <ele>94.1</ele>
        <time>2025-10-20T12:37:12.000Z</time>
      </trkpt>
      <trkpt lat="49.33008" lon="3.34414">
        <ele>94.3</ele>
        <time>2025-10-20T12:37:13.000Z</time>
      </trkpt>
      <trkpt lat="49.33008" lon="3.34411">
        <ele>94.3</ele>
        <time>2025-10-20T12:37:14.000Z</time>
      </trkpt>
      <trkpt lat="49.33007" lon="3.34409">
        <ele>94.4</ele>
        <time>2025-10-20T12:37:15.000Z</time>
      </trkpt>
      <trkpt lat="49.33007" lon="3.34407">
        <ele>94.3</ele>
        <time>2025-10-20T12:37:16.000Z</time>
      </trkpt>
      <trkpt lat="49.33007" lon="3.34405">
        <ele>94.3</ele>
        <time>2025-10-20T12:37:17.000Z</time>
      </trkpt>
      <trkpt lat="49.33007" lon="3.34402">
        <ele>94.4</ele>
        <time>2025-10-20T12:37:18.000Z</time>
      </trkpt>
      <trkpt lat="49.33007" lon="3.34399">
        <ele>94.6</ele>
        <time>2025-10-20T12:37:19.000Z</time>
      </trkpt>
      <trkpt lat="49.33006" lon="3.34397">
        <ele>94.8</ele>
        <time>2025-10-20T12:37:20.000Z</time>
      </trkpt>
      <trkpt lat="49.33006" lon="3.34394">
        <ele>94.9</ele>
        <time>2025-10-20T12:37:21.000Z</time>
      </trkpt>
      <trkpt lat="49.33006" lon="3.34392">
        <ele>95.1</ele>
        <time>2025-10-20T12:37:22.000Z</time>
      </trkpt>
      <trkpt lat="49.33005" lon="3.3439">
        <ele>95.2</ele>
        <time>2025-10-20T12:37:23.000Z</time>
      </trkpt>
      <trkpt lat="49.33005" lon="3.34389">
        <ele>95.4</ele>
        <time>2025-10-20T12:37:24.000Z</time>
      </trkpt>
      <trkpt lat="49.33004" lon="3.34387">
        <ele>95.4</ele>
        <time>2025-10-20T12:37:25.000Z</time>
      </trkpt>
      <trkpt lat="49.33004" lon="3.34385">
        <ele>95.4</ele>
        <time>2025-10-20T12:37:26.000Z</time>
      </trkpt>
      <trkpt lat="49.33004" lon="3.34382">
        <ele>95.2</ele>
        <time>2025-10-20T12:37:27.000Z</time>
      </trkpt>
      <trkpt lat="49.33004" lon="3.3438">
        <ele>95.2</ele>
        <time>2025-10-20T12:37:28.000Z</time>
      </trkpt>
      <trkpt lat="49.33004" lon="3.34378">
        <ele>95.2</ele>
        <time>2025-10-20T12:37:29.000Z</time>
      </trkpt>
      <trkpt lat="49.33004" lon="3.34376">
        <ele>95.2</ele>
        <time>2025-10-20T12:37:30.000Z</time>
      </trkpt>
      <trkpt lat="49.33004" lon="3.34374">
        <ele>94.9</ele>
        <time>2025-10-20T12:37:31.000Z</time>
      </trkpt>
      <trkpt lat="49.33004" lon="3.34372">
        <ele>94.7</ele>
        <time>2025-10-20T12:37:32.000Z</time>
      </trkpt>
      <trkpt lat="49.33004" lon="3.3437">
        <ele>94.6</ele>
        <time>2025-10-20T12:37:33.000Z</time>
      </trkpt>
      <trkpt lat="49.33004" lon="3.34368">
        <ele>94.7</ele>
        <time>2025-10-20T12:37:34.000Z</time>
      </trkpt>
      <trkpt lat="49.33003" lon="3.34367">
        <ele>94.7</ele>
        <time>2025-10-20T12:37:35.000Z</time>
      </trkpt>
      <trkpt lat="49.33003" lon="3.34365">
        <ele>94.7</ele>
        <time>2025-10-20T12:37:36.000Z</time>
      </trkpt>
      <trkpt lat="49.33003" lon="3.34363">
        <ele>94.5</ele>
        <time>2025-10-20T12:37:37.000Z</time>
      </trkpt>
      <trkpt lat="49.33003" lon="3.34361">
        <ele>94.2</ele>
        <time>2025-10-20T12:37:38.000Z</time>
      </trkpt>
      <trkpt lat="49.33003" lon="3.34358">
        <ele>94.5</ele>
        <time>2025-10-20T12:37:39.000Z</time>
      </trkpt>
      <trkpt lat="49.33003" lon="3.34355">
        <ele>94.7</ele>
        <time>2025-10-20T12:37:40.000Z</time>
      </trkpt>
      <trkpt lat="49.33002" lon="3.34352">
        <ele>94.8</ele>
        <time>2025-10-20T12:37:41.000Z</time>
      </trkpt>
      <trkpt lat="49.33002" lon="3.3435">
        <ele>94.7</ele>
        <time>2025-10-20T12:37:42.000Z</time>
      </trkpt>
      <trkpt lat="49.33002" lon="3.34347">
        <ele>95.1</ele>
        <time>2025-10-20T12:37:43.000Z</time>
      </trkpt>
      <trkpt lat="49.33002" lon="3.34345">
        <ele>95.4</ele>
        <time>2025-10-20T12:37:44.000Z</time>
      </trkpt>
      <trkpt lat="49.33002" lon="3.34342">
        <ele>95.4</ele>
        <time>2025-10-20T12:37:45.000Z</time>
      </trkpt>
      <trkpt lat="49.33002" lon="3.3434">
        <ele>95.9</ele>
        <time>2025-10-20T12:37:46.000Z</time>
      </trkpt>
      <trkpt lat="49.33002" lon="3.34338">
        <ele>96</ele>
        <time>2025-10-20T12:37:47.000Z</time>
      </trkpt>
      <trkpt lat="49.33002" lon="3.34336">
        <ele>96.1</ele>
        <time>2025-10-20T12:37:48.000Z</time>
      </trkpt>
      <trkpt lat="49.33003" lon="3.34334">
        <ele>95.5</ele>
        <time>2025-10-20T12:37:49.000Z</time>
      </trkpt>
      <trkpt lat="49.33003" lon="3.34332">
        <ele>95.2</ele>
        <time>2025-10-20T12:37:50.000Z</time>
      </trkpt>
      <trkpt lat="49.33003" lon="3.3433">
        <ele>95</ele>
        <time>2025-10-20T12:37:51.000Z</time>
      </trkpt>
      <trkpt lat="49.33003" lon="3.34328">
        <ele>95</ele>
        <time>2025-10-20T12:37:52.000Z</time>
      </trkpt>
      <trkpt lat="49.33003" lon="3.34325">
        <ele>95.2</ele>
        <time>2025-10-20T12:37:53.000Z</time>
      </trkpt>
      <trkpt lat="49.33003" lon="3.34323">
        <ele>95</ele>
        <time>2025-10-20T12:37:54.000Z</time>
      </trkpt>
      <trkpt lat="49.33003" lon="3.3432">
        <ele>94.9</ele>
        <time>2025-10-20T12:37:55.000Z</time>
      </trkpt>
      <trkpt lat="49.33003" lon="3.34317">
        <ele>94.9</ele>
        <time>2025-10-20T12:37:56.000Z</time>
      </trkpt>
      <trkpt lat="49.33002" lon="3.34315">
        <ele>94.8</ele>
        <time>2025-10-20T12:37:57.000Z</time>
      </trkpt>
      <trkpt lat="49.33002" lon="3.34313">
        <ele>94.8</ele>
        <time>2025-10-20T12:37:58.000Z</time>
      </trkpt>
      <trkpt lat="49.33003" lon="3.34311">
        <ele>94.6</ele>
        <time>2025-10-20T12:37:59.000Z</time>
      </trkpt>
      <trkpt lat="49.33003" lon="3.34309">
        <ele>94.3</ele>
        <time>2025-10-20T12:38:00.000Z</time>
      </trkpt>
      <trkpt lat="49.33004" lon="3.34307">
        <ele>93.8</ele>
        <time>2025-10-20T12:38:01.000Z</time>
      </trkpt>
      <trkpt lat="49.33003" lon="3.34305">
        <ele>93.8</ele>
        <time>2025-10-20T12:38:02.000Z</time>
      </trkpt>
      <trkpt lat="49.33004" lon="3.34303">
        <ele>93.6</ele>
        <time>2025-10-20T12:38:03.000Z</time>
      </trkpt>
      <trkpt lat="49.33004" lon="3.34301">
        <ele>93.4</ele>
        <time>2025-10-20T12:38:04.000Z</time>
      </trkpt>
      <trkpt lat="49.33004" lon="3.34299">
        <ele>92.9</ele>
        <time>2025-10-20T12:38:05.000Z</time>
      </trkpt>
      <trkpt lat="49.33004" lon="3.34297">
        <ele>92.6</ele>
        <time>2025-10-20T12:38:06.000Z</time>
      </trkpt>
      <trkpt lat="49.33004" lon="3.34295">
        <ele>92.4</ele>
        <time>2025-10-20T12:38:07.000Z</time>
      </trkpt>
      <trkpt lat="49.33004" lon="3.34293">
        <ele>92.2</ele>
        <time>2025-10-20T12:38:08.000Z</time>
      </trkpt>
      <trkpt lat="49.33004" lon="3.34291">
        <ele>92.4</ele>
        <time>2025-10-20T12:38:09.000Z</time>
      </trkpt>
      <trkpt lat="49.33004" lon="3.34289">
        <ele>92.8</ele>
        <time>2025-10-20T12:38:10.000Z</time>
      </trkpt>
      <trkpt lat="49.33004" lon="3.34286">
        <ele>93.2</ele>
        <time>2025-10-20T12:38:11.000Z</time>
      </trkpt>
      <trkpt lat="49.33004" lon="3.34284">
        <ele>94</ele>
        <time>2025-10-20T12:38:12.000Z</time>
      </trkpt>
      <trkpt lat="49.33005" lon="3.34282">
        <ele>94.1</ele>
        <time>2025-10-20T12:38:13.000Z</time>
      </trkpt>
      <trkpt lat="49.33005" lon="3.3428">
        <ele>94.2</ele>
        <time>2025-10-20T12:38:14.000Z</time>
      </trkpt>
      <trkpt lat="49.33005" lon="3.34278">
        <ele>93.9</ele>
        <time>2025-10-20T12:38:15.000Z</time>
      </trkpt>
      <trkpt lat="49.33005" lon="3.34276">
        <ele>93.9</ele>
        <time>2025-10-20T12:38:16.000Z</time>
      </trkpt>
      <trkpt lat="49.33005" lon="3.34274">
        <ele>93.9</ele>
        <time>2025-10-20T12:38:17.000Z</time>
      </trkpt>
      <trkpt lat="49.33005" lon="3.34271">
        <ele>93.8</ele>
        <time>2025-10-20T12:38:18.000Z</time>
      </trkpt>
      <trkpt lat="49.33005" lon="3.3427">
        <ele>94.2</ele>
        <time>2025-10-20T12:38:19.000Z</time>
      </trkpt>
      <trkpt lat="49.33005" lon="3.34268">
        <ele>93.7</ele>
        <time>2025-10-20T12:38:20.000Z</time>
      </trkpt>
      <trkpt lat="49.33005" lon="3.34266">
        <ele>93.1</ele>
        <time>2025-10-20T12:38:21.000Z</time>
      </trkpt>
      <trkpt lat="49.33005" lon="3.34264">
        <ele>93</ele>
        <time>2025-10-20T12:38:22.000Z</time>
      </trkpt>
      <trkpt lat="49.33005" lon="3.34262">
        <ele>92.9</ele>
        <time>2025-10-20T12:38:23.000Z</time>
      </trkpt>
      <trkpt lat="49.33005" lon="3.3426">
        <ele>92.8</ele>
        <time>2025-10-20T12:38:24.000Z</time>
      </trkpt>
      <trkpt lat="49.33005" lon="3.34258">
        <ele>92.9</ele>
        <time>2025-10-20T12:38:25.000Z</time>
      </trkpt>
      <trkpt lat="49.33005" lon="3.34255">
        <ele>93</ele>
        <time>2025-10-20T12:38:26.000Z</time>
      </trkpt>
      <trkpt lat="49.33005" lon="3.34252">
        <ele>93.7</ele>
        <time>2025-10-20T12:38:27.000Z</time>
      </trkpt>
      <trkpt lat="49.33005" lon="3.34248">
        <ele>94.3</ele>
        <time>2025-10-20T12:38:28.000Z</time>
      </trkpt>
      <trkpt lat="49.33005" lon="3.34245">
        <ele>94.4</ele>
        <time>2025-10-20T12:38:29.000Z</time>
      </trkpt>
      <trkpt lat="49.33006" lon="3.34242">
        <ele>94.5</ele>
        <time>2025-10-20T12:38:30.000Z</time>
      </trkpt>
      <trkpt lat="49.33006" lon="3.34241">
        <ele>94.8</ele>
        <time>2025-10-20T12:38:31.000Z</time>
      </trkpt>
      <trkpt lat="49.33006" lon="3.34238">
        <ele>94.8</ele>
        <time>2025-10-20T12:38:32.000Z</time>
      </trkpt>
      <trkpt lat="49.33006" lon="3.34236">
        <ele>95.1</ele>
        <time>2025-10-20T12:38:33.000Z</time>
      </trkpt>
      <trkpt lat="49.33007" lon="3.34234">
        <ele>95.4</ele>
        <time>2025-10-20T12:38:34.000Z</time>
      </trkpt>
      <trkpt lat="49.33007" lon="3.34232">
        <ele>95.4</ele>
        <time>2025-10-20T12:38:35.000Z</time>
      </trkpt>
      <trkpt lat="49.33007" lon="3.34229">
        <ele>95.4</ele>
        <time>2025-10-20T12:38:36.000Z</time>
      </trkpt>
      <trkpt lat="49.33007" lon="3.34227">
        <ele>95.3</ele>
        <time>2025-10-20T12:38:37.000Z</time>
      </trkpt>
      <trkpt lat="49.33008" lon="3.34225">
        <ele>95</ele>
        <time>2025-10-20T12:38:38.000Z</time>
      </trkpt>
      <trkpt lat="49.33008" lon="3.34223">
        <ele>95.1</ele>
        <time>2025-10-20T12:38:39.000Z</time>
      </trkpt>
      <trkpt lat="49.33008" lon="3.34221">
        <ele>95.2</ele>
        <time>2025-10-20T12:38:40.000Z</time>
      </trkpt>
      <trkpt lat="49.33008" lon="3.34219">
        <ele>95.2</ele>
        <time>2025-10-20T12:38:41.000Z</time>
      </trkpt>
      <trkpt lat="49.33008" lon="3.34217">
        <ele>95</ele>
        <time>2025-10-20T12:38:42.000Z</time>
      </trkpt>
      <trkpt lat="49.33008" lon="3.34215">
        <ele>94.5</ele>
        <time>2025-10-20T12:38:43.000Z</time>
      </trkpt>
      <trkpt lat="49.33008" lon="3.34214">
        <ele>94.1</ele>
        <time>2025-10-20T12:38:44.000Z</time>
      </trkpt>
      <trkpt lat="49.33009" lon="3.34212">
        <ele>93.7</ele>
        <time>2025-10-20T12:38:45.000Z</time>
      </trkpt>
      <trkpt lat="49.33009" lon="3.3421">
        <ele>92.8</ele>
        <time>2025-10-20T12:38:46.000Z</time>
      </trkpt>
      <trkpt lat="49.3301" lon="3.34207">
        <ele>92.4</ele>
        <time>2025-10-20T12:38:47.000Z</time>
      </trkpt>
      <trkpt lat="49.3301" lon="3.34205">
        <ele>92</ele>
        <time>2025-10-20T12:38:48.000Z</time>
      </trkpt>
      <trkpt lat="49.3301" lon="3.34203">
        <ele>91.6</ele>
        <time>2025-10-20T12:38:49.000Z</time>
      </trkpt>
      <trkpt lat="49.3301" lon="3.34201">
        <ele>91.5</ele>
        <time>2025-10-20T12:38:50.000Z</time>
      </trkpt>
      <trkpt lat="49.3301" lon="3.34199">
        <ele>91.2</ele>
        <time>2025-10-20T12:38:51.000Z</time>
      </trkpt>
      <trkpt lat="49.3301" lon="3.34197">
        <ele>91.2</ele>
        <time>2025-10-20T12:38:52.000Z</time>
      </trkpt>
      <trkpt lat="49.3301" lon="3.34194">
        <ele>91.5</ele>
        <time>2025-10-20T12:38:53.000Z</time>
      </trkpt>
      <trkpt lat="49.33009" lon="3.34192">
        <ele>92</ele>
        <time>2025-10-20T12:38:54.000Z</time>
      </trkpt>
      <trkpt lat="49.3301" lon="3.3419">
        <ele>92.1</ele>
        <time>2025-10-20T12:38:55.000Z</time>
      </trkpt>
      <trkpt lat="49.33009" lon="3.34186">
        <ele>92.4</ele>
        <time>2025-10-20T12:38:56.000Z</time>
      </trkpt>
      <trkpt lat="49.33009" lon="3.34183">
        <ele>92.7</ele>
        <time>2025-10-20T12:38:57.000Z</time>
      </trkpt>
      <trkpt lat="49.33009" lon="3.34181">
        <ele>93</ele>
        <time>2025-10-20T12:38:58.000Z</time>
      </trkpt>
      <trkpt lat="49.33009" lon="3.34179">
        <ele>93.5</ele>
        <time>2025-10-20T12:38:59.000Z</time>
      </trkpt>
      <trkpt lat="49.33009" lon="3.34176">
        <ele>93.7</ele>
        <time>2025-10-20T12:39:00.000Z</time>
      </trkpt>
      <trkpt lat="49.33009" lon="3.34174">
        <ele>94.2</ele>
        <time>2025-10-20T12:39:01.000Z</time>
      </trkpt>
      <trkpt lat="49.33009" lon="3.34172">
        <ele>94.5</ele>
        <time>2025-10-20T12:39:02.000Z</time>
      </trkpt>
      <trkpt lat="49.33009" lon="3.3417">
        <ele>94.6</ele>
        <time>2025-10-20T12:39:03.000Z</time>
      </trkpt>
      <trkpt lat="49.33009" lon="3.34169">
        <ele>94.6</ele>
        <time>2025-10-20T12:39:04.000Z</time>
      </trkpt>
      <trkpt lat="49.33009" lon="3.34167">
        <ele>95</ele>
        <time>2025-10-20T12:39:05.000Z</time>
      </trkpt>
      <trkpt lat="49.33009" lon="3.34164">
        <ele>94.9</ele>
        <time>2025-10-20T12:39:06.000Z</time>
      </trkpt>
      <trkpt lat="49.3301" lon="3.34162">
        <ele>94.8</ele>
        <time>2025-10-20T12:39:07.000Z</time>
      </trkpt>
      <trkpt lat="49.3301" lon="3.3416">
        <ele>94.8</ele>
        <time>2025-10-20T12:39:08.000Z</time>
      </trkpt>
      <trkpt lat="49.3301" lon="3.34158">
        <ele>94.8</ele>
        <time>2025-10-20T12:39:09.000Z</time>
      </trkpt>
      <trkpt lat="49.3301" lon="3.34156">
        <ele>95</ele>
        <time>2025-10-20T12:39:10.000Z</time>
      </trkpt>
      <trkpt lat="49.33011" lon="3.34154">
        <ele>95.4</ele>
        <time>2025-10-20T12:39:11.000Z</time>
      </trkpt>
      <trkpt lat="49.33011" lon="3.34152">
        <ele>95.4</ele>
        <time>2025-10-20T12:39:12.000Z</time>
      </trkpt>
      <trkpt lat="49.33011" lon="3.3415">
        <ele>95.3</ele>
        <time>2025-10-20T12:39:13.000Z</time>
      </trkpt>
      <trkpt lat="49.33011" lon="3.34148">
        <ele>95</ele>
        <time>2025-10-20T12:39:14.000Z</time>
      </trkpt>
      <trkpt lat="49.33011" lon="3.34145">
        <ele>94.9</ele>
        <time>2025-10-20T12:39:15.000Z</time>
      </trkpt>
      <trkpt lat="49.33011" lon="3.34143">
        <ele>94.8</ele>
        <time>2025-10-20T12:39:16.000Z</time>
      </trkpt>
      <trkpt lat="49.33011" lon="3.34141">
        <ele>94.6</ele>
        <time>2025-10-20T12:39:17.000Z</time>
      </trkpt>
      <trkpt lat="49.3301" lon="3.34139">
        <ele>94.6</ele>
        <time>2025-10-20T12:39:18.000Z</time>
      </trkpt>
      <trkpt lat="49.3301" lon="3.34136">
        <ele>94.8</ele>
        <time>2025-10-20T12:39:19.000Z</time>
      </trkpt>
      <trkpt lat="49.3301" lon="3.34134">
        <ele>95.1</ele>
        <time>2025-10-20T12:39:20.000Z</time>
      </trkpt>
      <trkpt lat="49.3301" lon="3.34131">
        <ele>95.3</ele>
        <time>2025-10-20T12:39:21.000Z</time>
      </trkpt>
      <trkpt lat="49.3301" lon="3.34129">
        <ele>95.6</ele>
        <time>2025-10-20T12:39:22.000Z</time>
      </trkpt>
      <trkpt lat="49.33009" lon="3.34126">
        <ele>95.6</ele>
        <time>2025-10-20T12:39:23.000Z</time>
      </trkpt>
      <trkpt lat="49.33009" lon="3.34124">
        <ele>95.6</ele>
        <time>2025-10-20T12:39:24.000Z</time>
      </trkpt>
      <trkpt lat="49.33009" lon="3.34122">
        <ele>95.7</ele>
        <time>2025-10-20T12:39:25.000Z</time>
      </trkpt>
      <trkpt lat="49.33009" lon="3.34119">
        <ele>95.9</ele>
        <time>2025-10-20T12:39:26.000Z</time>
      </trkpt>
      <trkpt lat="49.33009" lon="3.34116">
        <ele>96.4</ele>
        <time>2025-10-20T12:39:27.000Z</time>
      </trkpt>
      <trkpt lat="49.33009" lon="3.34114">
        <ele>96.6</ele>
        <time>2025-10-20T12:39:28.000Z</time>
      </trkpt>
      <trkpt lat="49.33009" lon="3.34112">
        <ele>96.4</ele>
        <time>2025-10-20T12:39:29.000Z</time>
      </trkpt>
      <trkpt lat="49.33009" lon="3.3411">
        <ele>96.4</ele>
        <time>2025-10-20T12:39:30.000Z</time>
      </trkpt>
      <trkpt lat="49.33009" lon="3.34108">
        <ele>96.4</ele>
        <time>2025-10-20T12:39:31.000Z</time>
      </trkpt>
      <trkpt lat="49.33009" lon="3.34106">
        <ele>96.8</ele>
        <time>2025-10-20T12:39:32.000Z</time>
      </trkpt>
      <trkpt lat="49.3301" lon="3.34104">
        <ele>96.6</ele>
        <time>2025-10-20T12:39:33.000Z</time>
      </trkpt>
      <trkpt lat="49.3301" lon="3.34102">
        <ele>96.5</ele>
        <time>2025-10-20T12:39:34.000Z</time>
      </trkpt>
      <trkpt lat="49.3301" lon="3.341">
        <ele>96.3</ele>
        <time>2025-10-20T12:39:35.000Z</time>
      </trkpt>
      <trkpt lat="49.3301" lon="3.34098">
        <ele>95.8</ele>
        <time>2025-10-20T12:39:36.000Z</time>
      </trkpt>
      <trkpt lat="49.3301" lon="3.34096">
        <ele>95.5</ele>
        <time>2025-10-20T12:39:37.000Z</time>
      </trkpt>
      <trkpt lat="49.33011" lon="3.34094">
        <ele>95.2</ele>
        <time>2025-10-20T12:39:38.000Z</time>
      </trkpt>
      <trkpt lat="49.3301" lon="3.34092">
        <ele>94.8</ele>
        <time>2025-10-20T12:39:39.000Z</time>
      </trkpt>
      <trkpt lat="49.3301" lon="3.3409">
        <ele>94.1</ele>
        <time>2025-10-20T12:39:40.000Z</time>
      </trkpt>
      <trkpt lat="49.3301" lon="3.34088">
        <ele>93.5</ele>
        <time>2025-10-20T12:39:41.000Z</time>
      </trkpt>
      <trkpt lat="49.3301" lon="3.34085">
        <ele>93.2</ele>
        <time>2025-10-20T12:39:42.000Z</time>
      </trkpt>
      <trkpt lat="49.3301" lon="3.34083">
        <ele>92.7</ele>
        <time>2025-10-20T12:39:43.000Z</time>
      </trkpt>
      <trkpt lat="49.3301" lon="3.34082">
        <ele>92.5</ele>
        <time>2025-10-20T12:39:44.000Z</time>
      </trkpt>
      <trkpt lat="49.3301" lon="3.3408">
        <ele>92.4</ele>
        <time>2025-10-20T12:39:45.000Z</time>
      </trkpt>
      <trkpt lat="49.3301" lon="3.34077">
        <ele>92.4</ele>
        <time>2025-10-20T12:39:46.000Z</time>
      </trkpt>
      <trkpt lat="49.3301" lon="3.34074">
        <ele>92.6</ele>
        <time>2025-10-20T12:39:47.000Z</time>
      </trkpt>
      <trkpt lat="49.3301" lon="3.34072">
        <ele>93.1</ele>
        <time>2025-10-20T12:39:48.000Z</time>
      </trkpt>
      <trkpt lat="49.33009" lon="3.34069">
        <ele>93.2</ele>
        <time>2025-10-20T12:39:49.000Z</time>
      </trkpt>
      <trkpt lat="49.33009" lon="3.34067">
        <ele>93.4</ele>
        <time>2025-10-20T12:39:50.000Z</time>
      </trkpt>
      <trkpt lat="49.33009" lon="3.34066">
        <ele>93.4</ele>
        <time>2025-10-20T12:39:51.000Z</time>
      </trkpt>
      <trkpt lat="49.33009" lon="3.34063">
        <ele>93.2</ele>
        <time>2025-10-20T12:39:52.000Z</time>
      </trkpt>
      <trkpt lat="49.33008" lon="3.34061">
        <ele>93</ele>
        <time>2025-10-20T12:39:53.000Z</time>
      </trkpt>
      <trkpt lat="49.33008" lon="3.34059">
        <ele>92.7</ele>
        <time>2025-10-20T12:39:54.000Z</time>
      </trkpt>
      <trkpt lat="49.33009" lon="3.34057">
        <ele>92.5</ele>
        <time>2025-10-20T12:39:55.000Z</time>
      </trkpt>
      <trkpt lat="49.33009" lon="3.34055">
        <ele>92.3</ele>
        <time>2025-10-20T12:39:56.000Z</time>
      </trkpt>
      <trkpt lat="49.33009" lon="3.34053">
        <ele>92.1</ele>
        <time>2025-10-20T12:39:57.000Z</time>
      </trkpt>
      <trkpt lat="49.33008" lon="3.34051">
        <ele>92.4</ele>
        <time>2025-10-20T12:39:58.000Z</time>
      </trkpt>
      <trkpt lat="49.33008" lon="3.34049">
        <ele>92.7</ele>
        <time>2025-10-20T12:39:59.000Z</time>
      </trkpt>
      <trkpt lat="49.33009" lon="3.34047">
        <ele>92.5</ele>
        <time>2025-10-20T12:40:00.000Z</time>
      </trkpt>
      <trkpt lat="49.33009" lon="3.34045">
        <ele>92.2</ele>
        <time>2025-10-20T12:40:01.000Z</time>
      </trkpt>
      <trkpt lat="49.33009" lon="3.34043">
        <ele>91.8</ele>
        <time>2025-10-20T12:40:02.000Z</time>
      </trkpt>
      <trkpt lat="49.33009" lon="3.3404">
        <ele>91.5</ele>
        <time>2025-10-20T12:40:03.000Z</time>
      </trkpt>
      <trkpt lat="49.33009" lon="3.34039">
        <ele>91.2</ele>
        <time>2025-10-20T12:40:04.000Z</time>
      </trkpt>
      <trkpt lat="49.33009" lon="3.34037">
        <ele>91.4</ele>
        <time>2025-10-20T12:40:05.000Z</time>
      </trkpt>
      <trkpt lat="49.33009" lon="3.34035">
        <ele>91.4</ele>
        <time>2025-10-20T12:40:06.000Z</time>
      </trkpt>
      <trkpt lat="49.33009" lon="3.34033">
        <ele>91.6</ele>
        <time>2025-10-20T12:40:07.000Z</time>
      </trkpt>
      <trkpt lat="49.33008" lon="3.34031">
        <ele>91.6</ele>
        <time>2025-10-20T12:40:08.000Z</time>
      </trkpt>
      <trkpt lat="49.33008" lon="3.34029">
        <ele>91.5</ele>
        <time>2025-10-20T12:40:09.000Z</time>
      </trkpt>
      <trkpt lat="49.33008" lon="3.34026">
        <ele>91.8</ele>
        <time>2025-10-20T12:40:10.000Z</time>
      </trkpt>
      <trkpt lat="49.33007" lon="3.34024">
        <ele>91.6</ele>
        <time>2025-10-20T12:40:11.000Z</time>
      </trkpt>
      <trkpt lat="49.33007" lon="3.34022">
        <ele>91.1</ele>
        <time>2025-10-20T12:40:12.000Z</time>
      </trkpt>
      <trkpt lat="49.33006" lon="3.3402">
        <ele>91.1</ele>
        <time>2025-10-20T12:40:13.000Z</time>
      </trkpt>
      <trkpt lat="49.33006" lon="3.34018">
        <ele>91.2</ele>
        <time>2025-10-20T12:40:14.000Z</time>
      </trkpt>
      <trkpt lat="49.33006" lon="3.34015">
        <ele>91.5</ele>
        <time>2025-10-20T12:40:15.000Z</time>
      </trkpt>
      <trkpt lat="49.33006" lon="3.34013">
        <ele>91.9</ele>
        <time>2025-10-20T12:40:16.000Z</time>
      </trkpt>
      <trkpt lat="49.33005" lon="3.34011">
        <ele>92.2</ele>
        <time>2025-10-20T12:40:17.000Z</time>
      </trkpt>
      <trkpt lat="49.33005" lon="3.34009">
        <ele>92.5</ele>
        <time>2025-10-20T12:40:18.000Z</time>
      </trkpt>
      <trkpt lat="49.33005" lon="3.34008">
        <ele>92.5</ele>
        <time>2025-10-20T12:40:19.000Z</time>
      </trkpt>
      <trkpt lat="49.33005" lon="3.34006">
        <ele>92.2</ele>
        <time>2025-10-20T12:40:20.000Z</time>
      </trkpt>
      <trkpt lat="49.33005" lon="3.34005">
        <ele>92.2</ele>
        <time>2025-10-20T12:40:21.000Z</time>
      </trkpt>
      <trkpt lat="49.33005" lon="3.34002">
        <ele>92.1</ele>
        <time>2025-10-20T12:40:22.000Z</time>
      </trkpt>
      <trkpt lat="49.33005" lon="3.34">
        <ele>91.7</ele>
        <time>2025-10-20T12:40:23.000Z</time>
      </trkpt>
      <trkpt lat="49.33005" lon="3.33998">
        <ele>91.8</ele>
        <time>2025-10-20T12:40:24.000Z</time>
      </trkpt>
      <trkpt lat="49.33005" lon="3.33996">
        <ele>91.4</ele>
        <time>2025-10-20T12:40:25.000Z</time>
      </trkpt>
      <trkpt lat="49.33004" lon="3.33994">
        <ele>91.1</ele>
        <time>2025-10-20T12:40:26.000Z</time>
      </trkpt>
      <trkpt lat="49.33004" lon="3.33993">
        <ele>91</ele>
        <time>2025-10-20T12:40:27.000Z</time>
      </trkpt>
      <trkpt lat="49.33004" lon="3.33991">
        <ele>91.3</ele>
        <time>2025-10-20T12:40:28.000Z</time>
      </trkpt>
      <trkpt lat="49.33004" lon="3.33989">
        <ele>91.6</ele>
        <time>2025-10-20T12:40:29.000Z</time>
      </trkpt>
      <trkpt lat="49.33003" lon="3.33986">
        <ele>91.2</ele>
        <time>2025-10-20T12:40:30.000Z</time>
      </trkpt>
      <trkpt lat="49.33003" lon="3.33984">
        <ele>90.9</ele>
        <time>2025-10-20T12:40:31.000Z</time>
      </trkpt>
      <trkpt lat="49.33003" lon="3.33981">
        <ele>90.7</ele>
        <time>2025-10-20T12:40:32.000Z</time>
      </trkpt>
      <trkpt lat="49.33002" lon="3.33979">
        <ele>90.6</ele>
        <time>2025-10-20T12:40:33.000Z</time>
      </trkpt>
      <trkpt lat="49.33002" lon="3.33976">
        <ele>90.7</ele>
        <time>2025-10-20T12:40:34.000Z</time>
      </trkpt>
      <trkpt lat="49.33001" lon="3.33973">
        <ele>90.5</ele>
        <time>2025-10-20T12:40:35.000Z</time>
      </trkpt>
      <trkpt lat="49.33001" lon="3.3397">
        <ele>90.6</ele>
        <time>2025-10-20T12:40:36.000Z</time>
      </trkpt>
      <trkpt lat="49.33" lon="3.33967">
        <ele>90.6</ele>
        <time>2025-10-20T12:40:37.000Z</time>
      </trkpt>
      <trkpt lat="49.33" lon="3.33965">
        <ele>90.6</ele>
        <time>2025-10-20T12:40:38.000Z</time>
      </trkpt>
      <trkpt lat="49.32999" lon="3.33962">
        <ele>90.9</ele>
        <time>2025-10-20T12:40:39.000Z</time>
      </trkpt>
      <trkpt lat="49.32999" lon="3.33961">
        <ele>91.1</ele>
        <time>2025-10-20T12:40:40.000Z</time>
      </trkpt>
      <trkpt lat="49.32998" lon="3.33959">
        <ele>91.3</ele>
        <time>2025-10-20T12:40:41.000Z</time>
      </trkpt>
      <trkpt lat="49.32998" lon="3.33957">
        <ele>91.6</ele>
        <time>2025-10-20T12:40:42.000Z</time>
      </trkpt>
      <trkpt lat="49.32998" lon="3.33954">
        <ele>91.9</ele>
        <time>2025-10-20T12:40:43.000Z</time>
      </trkpt>
      <trkpt lat="49.32997" lon="3.33952">
        <ele>92</ele>
        <time>2025-10-20T12:40:44.000Z</time>
      </trkpt>
      <trkpt lat="49.32997" lon="3.3395">
        <ele>92.3</ele>
        <time>2025-10-20T12:40:45.000Z</time>
      </trkpt>
      <trkpt lat="49.32997" lon="3.33948">
        <ele>92.6</ele>
        <time>2025-10-20T12:40:46.000Z</time>
      </trkpt>
      <trkpt lat="49.32996" lon="3.33946">
        <ele>92.9</ele>
        <time>2025-10-20T12:40:47.000Z</time>
      </trkpt>
      <trkpt lat="49.32996" lon="3.33944">
        <ele>93.2</ele>
        <time>2025-10-20T12:40:48.000Z</time>
      </trkpt>
      <trkpt lat="49.32996" lon="3.33941">
        <ele>93.4</ele>
        <time>2025-10-20T12:40:49.000Z</time>
      </trkpt>
      <trkpt lat="49.32995" lon="3.33939">
        <ele>93.7</ele>
        <time>2025-10-20T12:40:50.000Z</time>
      </trkpt>
      <trkpt lat="49.32995" lon="3.33937">
        <ele>93.6</ele>
        <time>2025-10-20T12:40:51.000Z</time>
      </trkpt>
      <trkpt lat="49.32995" lon="3.33935">
        <ele>93.7</ele>
        <time>2025-10-20T12:40:52.000Z</time>
      </trkpt>
      <trkpt lat="49.32994" lon="3.33934">
        <ele>94.1</ele>
        <time>2025-10-20T12:40:53.000Z</time>
      </trkpt>
      <trkpt lat="49.32994" lon="3.33932">
        <ele>94.2</ele>
        <time>2025-10-20T12:40:54.000Z</time>
      </trkpt>
      <trkpt lat="49.32994" lon="3.33929">
        <ele>94.3</ele>
        <time>2025-10-20T12:40:55.000Z</time>
      </trkpt>
      <trkpt lat="49.32993" lon="3.33928">
        <ele>94.2</ele>
        <time>2025-10-20T12:40:56.000Z</time>
      </trkpt>
      <trkpt lat="49.32993" lon="3.33925">
        <ele>94</ele>
        <time>2025-10-20T12:40:57.000Z</time>
      </trkpt>
      <trkpt lat="49.32992" lon="3.33923">
        <ele>93.9</ele>
        <time>2025-10-20T12:40:58.000Z</time>
      </trkpt>
      <trkpt lat="49.32991" lon="3.3392">
        <ele>93.6</ele>
        <time>2025-10-20T12:40:59.000Z</time>
      </trkpt>
      <trkpt lat="49.32991" lon="3.33918">
        <ele>93.7</ele>
        <time>2025-10-20T12:41:00.000Z</time>
      </trkpt>
      <trkpt lat="49.3299" lon="3.33917">
        <ele>93.2</ele>
        <time>2025-10-20T12:41:01.000Z</time>
      </trkpt>
      <trkpt lat="49.3299" lon="3.33915">
        <ele>93.2</ele>
        <time>2025-10-20T12:41:02.000Z</time>
      </trkpt>
      <trkpt lat="49.3299" lon="3.33913">
        <ele>93.3</ele>
        <time>2025-10-20T12:41:03.000Z</time>
      </trkpt>
      <trkpt lat="49.32989" lon="3.33912">
        <ele>93.3</ele>
        <time>2025-10-20T12:41:04.000Z</time>
      </trkpt>
      <trkpt lat="49.32989" lon="3.3391">
        <ele>93.2</ele>
        <time>2025-10-20T12:41:05.000Z</time>
      </trkpt>
      <trkpt lat="49.3299" lon="3.33908">
        <ele>93.3</ele>
        <time>2025-10-20T12:41:06.000Z</time>
      </trkpt>
      <trkpt lat="49.32989" lon="3.33906">
        <ele>93.4</ele>
        <time>2025-10-20T12:41:07.000Z</time>
      </trkpt>
      <trkpt lat="49.32989" lon="3.33903">
        <ele>93.7</ele>
        <time>2025-10-20T12:41:08.000Z</time>
      </trkpt>
      <trkpt lat="49.32989" lon="3.339">
        <ele>94</ele>
        <time>2025-10-20T12:41:09.000Z</time>
      </trkpt>
      <trkpt lat="49.32988" lon="3.33898">
        <ele>94.3</ele>
        <time>2025-10-20T12:41:10.000Z</time>
      </trkpt>
      <trkpt lat="49.32987" lon="3.33895">
        <ele>94.5</ele>
        <time>2025-10-20T12:41:11.000Z</time>
      </trkpt>
      <trkpt lat="49.32987" lon="3.33893">
        <ele>94.2</ele>
        <time>2025-10-20T12:41:12.000Z</time>
      </trkpt>
      <trkpt lat="49.32987" lon="3.33891">
        <ele>94.2</ele>
        <time>2025-10-20T12:41:13.000Z</time>
      </trkpt>
      <trkpt lat="49.32987" lon="3.33888">
        <ele>94.1</ele>
        <time>2025-10-20T12:41:14.000Z</time>
      </trkpt>
      <trkpt lat="49.32987" lon="3.33887">
        <ele>93.9</ele>
        <time>2025-10-20T12:41:15.000Z</time>
      </trkpt>
      <trkpt lat="49.32986" lon="3.33884">
        <ele>93.8</ele>
        <time>2025-10-20T12:41:16.000Z</time>
      </trkpt>
      <trkpt lat="49.32986" lon="3.33882">
        <ele>93.8</ele>
        <time>2025-10-20T12:41:17.000Z</time>
      </trkpt>
      <trkpt lat="49.32986" lon="3.3388">
        <ele>93.7</ele>
        <time>2025-10-20T12:41:18.000Z</time>
      </trkpt>
      <trkpt lat="49.32985" lon="3.33877">
        <ele>93.8</ele>
        <time>2025-10-20T12:41:19.000Z</time>
      </trkpt>
      <trkpt lat="49.32985" lon="3.33874">
        <ele>93.8</ele>
        <time>2025-10-20T12:41:20.000Z</time>
      </trkpt>
      <trkpt lat="49.32985" lon="3.33872">
        <ele>93.7</ele>
        <time>2025-10-20T12:41:21.000Z</time>
      </trkpt>
      <trkpt lat="49.32985" lon="3.33871">
        <ele>93.5</ele>
        <time>2025-10-20T12:41:22.000Z</time>
      </trkpt>
      <trkpt lat="49.32985" lon="3.33869">
        <ele>93.5</ele>
        <time>2025-10-20T12:41:23.000Z</time>
      </trkpt>
      <trkpt lat="49.32985" lon="3.33867">
        <ele>93.6</ele>
        <time>2025-10-20T12:41:24.000Z</time>
      </trkpt>
      <trkpt lat="49.32985" lon="3.33864">
        <ele>93.6</ele>
        <time>2025-10-20T12:41:25.000Z</time>
      </trkpt>
      <trkpt lat="49.32985" lon="3.33862">
        <ele>93.9</ele>
        <time>2025-10-20T12:41:26.000Z</time>
      </trkpt>
      <trkpt lat="49.32985" lon="3.3386">
        <ele>94.4</ele>
        <time>2025-10-20T12:41:27.000Z</time>
      </trkpt>
      <trkpt lat="49.32984" lon="3.33858">
        <ele>94.9</ele>
        <time>2025-10-20T12:41:28.000Z</time>
      </trkpt>
      <trkpt lat="49.32984" lon="3.33856">
        <ele>95.1</ele>
        <time>2025-10-20T12:41:29.000Z</time>
      </trkpt>
      <trkpt lat="49.32984" lon="3.33853">
        <ele>95.1</ele>
        <time>2025-10-20T12:41:30.000Z</time>
      </trkpt>
      <trkpt lat="49.32984" lon="3.3385">
        <ele>95.2</ele>
        <time>2025-10-20T12:41:31.000Z</time>
      </trkpt>
      <trkpt lat="49.32984" lon="3.33848">
        <ele>95</ele>
        <time>2025-10-20T12:41:32.000Z</time>
      </trkpt>
      <trkpt lat="49.32984" lon="3.33845">
        <ele>94.6</ele>
        <time>2025-10-20T12:41:33.000Z</time>
      </trkpt>
      <trkpt lat="49.32984" lon="3.33843">
        <ele>94.1</ele>
        <time>2025-10-20T12:41:34.000Z</time>
      </trkpt>
      <trkpt lat="49.32983" lon="3.3384">
        <ele>93.8</ele>
        <time>2025-10-20T12:41:35.000Z</time>
      </trkpt>
      <trkpt lat="49.32983" lon="3.33836">
        <ele>93.5</ele>
        <time>2025-10-20T12:41:36.000Z</time>
      </trkpt>
      <trkpt lat="49.32984" lon="3.33833">
        <ele>93.4</ele>
        <time>2025-10-20T12:41:37.000Z</time>
      </trkpt>
      <trkpt lat="49.32984" lon="3.33831">
        <ele>93.5</ele>
        <time>2025-10-20T12:41:38.000Z</time>
      </trkpt>
      <trkpt lat="49.32984" lon="3.33829">
        <ele>93.6</ele>
        <time>2025-10-20T12:41:39.000Z</time>
      </trkpt>
      <trkpt lat="49.32984" lon="3.33826">
        <ele>93.6</ele>
        <time>2025-10-20T12:41:40.000Z</time>
      </trkpt>
      <trkpt lat="49.32982" lon="3.33823">
        <ele>93.9</ele>
        <time>2025-10-20T12:41:41.000Z</time>
      </trkpt>
      <trkpt lat="49.32981" lon="3.33821">
        <ele>94.3</ele>
        <time>2025-10-20T12:41:42.000Z</time>
      </trkpt>
      <trkpt lat="49.32982" lon="3.33818">
        <ele>94.5</ele>
        <time>2025-10-20T12:41:43.000Z</time>
      </trkpt>
      <trkpt lat="49.32981" lon="3.33815">
        <ele>94.1</ele>
        <time>2025-10-20T12:41:44.000Z</time>
      </trkpt>
      <trkpt lat="49.32981" lon="3.33813">
        <ele>94.2</ele>
        <time>2025-10-20T12:41:45.000Z</time>
      </trkpt>
      <trkpt lat="49.32981" lon="3.33811">
        <ele>94.2</ele>
        <time>2025-10-20T12:41:46.000Z</time>
      </trkpt>
      <trkpt lat="49.32981" lon="3.33809">
        <ele>94</ele>
        <time>2025-10-20T12:41:47.000Z</time>
      </trkpt>
      <trkpt lat="49.32981" lon="3.33807">
        <ele>94.7</ele>
        <time>2025-10-20T12:41:48.000Z</time>
      </trkpt>
      <trkpt lat="49.32981" lon="3.33805">
        <ele>94.8</ele>
        <time>2025-10-20T12:41:49.000Z</time>
      </trkpt>
      <trkpt lat="49.32982" lon="3.33803">
        <ele>94.7</ele>
        <time>2025-10-20T12:41:50.000Z</time>
      </trkpt>
      <trkpt lat="49.32982" lon="3.33801">
        <ele>94.7</ele>
        <time>2025-10-20T12:41:51.000Z</time>
      </trkpt>
      <trkpt lat="49.32982" lon="3.33799">
        <ele>94.7</ele>
        <time>2025-10-20T12:41:52.000Z</time>
      </trkpt>
      <trkpt lat="49.32982" lon="3.33796">
        <ele>94.3</ele>
        <time>2025-10-20T12:41:53.000Z</time>
      </trkpt>
      <trkpt lat="49.32982" lon="3.33793">
        <ele>94</ele>
        <time>2025-10-20T12:41:54.000Z</time>
      </trkpt>
      <trkpt lat="49.32982" lon="3.33791">
        <ele>93.9</ele>
        <time>2025-10-20T12:41:55.000Z</time>
      </trkpt>
      <trkpt lat="49.32982" lon="3.33789">
        <ele>93.6</ele>
        <time>2025-10-20T12:41:56.000Z</time>
      </trkpt>
      <trkpt lat="49.32982" lon="3.33787">
        <ele>93.6</ele>
        <time>2025-10-20T12:41:57.000Z</time>
      </trkpt>
      <trkpt lat="49.32983" lon="3.33785">
        <ele>93.6</ele>
        <time>2025-10-20T12:41:58.000Z</time>
      </trkpt>
      <trkpt lat="49.32983" lon="3.33782">
        <ele>93.4</ele>
        <time>2025-10-20T12:41:59.000Z</time>
      </trkpt>
      <trkpt lat="49.32982" lon="3.33779">
        <ele>93.9</ele>
        <time>2025-10-20T12:42:00.000Z</time>
      </trkpt>
      <trkpt lat="49.32982" lon="3.33777">
        <ele>93.9</ele>
        <time>2025-10-20T12:42:01.000Z</time>
      </trkpt>
      <trkpt lat="49.32982" lon="3.33774">
        <ele>94.2</ele>
        <time>2025-10-20T12:42:02.000Z</time>
      </trkpt>
      <trkpt lat="49.32982" lon="3.33771">
        <ele>94.5</ele>
        <time>2025-10-20T12:42:03.000Z</time>
      </trkpt>
      <trkpt lat="49.32982" lon="3.33769">
        <ele>94.1</ele>
        <time>2025-10-20T12:42:04.000Z</time>
      </trkpt>
      <trkpt lat="49.32982" lon="3.33767">
        <ele>93.7</ele>
        <time>2025-10-20T12:42:05.000Z</time>
      </trkpt>
      <trkpt lat="49.32982" lon="3.33765">
        <ele>93.7</ele>
        <time>2025-10-20T12:42:06.000Z</time>
      </trkpt>
      <trkpt lat="49.32982" lon="3.33763">
        <ele>94</ele>
        <time>2025-10-20T12:42:07.000Z</time>
      </trkpt>
      <trkpt lat="49.32983" lon="3.3376">
        <ele>94.3</ele>
        <time>2025-10-20T12:42:08.000Z</time>
      </trkpt>
      <trkpt lat="49.32983" lon="3.33758">
        <ele>94.5</ele>
        <time>2025-10-20T12:42:09.000Z</time>
      </trkpt>
      <trkpt lat="49.32983" lon="3.33756">
        <ele>94.9</ele>
        <time>2025-10-20T12:42:10.000Z</time>
      </trkpt>
      <trkpt lat="49.32984" lon="3.33754">
        <ele>95.4</ele>
        <time>2025-10-20T12:42:11.000Z</time>
      </trkpt>
      <trkpt lat="49.32984" lon="3.33752">
        <ele>95.4</ele>
        <time>2025-10-20T12:42:12.000Z</time>
      </trkpt>
      <trkpt lat="49.32984" lon="3.3375">
        <ele>95.3</ele>
        <time>2025-10-20T12:42:13.000Z</time>
      </trkpt>
      <trkpt lat="49.32985" lon="3.33748">
        <ele>95</ele>
        <time>2025-10-20T12:42:14.000Z</time>
      </trkpt>
      <trkpt lat="49.32985" lon="3.33745">
        <ele>95</ele>
        <time>2025-10-20T12:42:15.000Z</time>
      </trkpt>
      <trkpt lat="49.32986" lon="3.33744">
        <ele>94.9</ele>
        <time>2025-10-20T12:42:16.000Z</time>
      </trkpt>
      <trkpt lat="49.32986" lon="3.33742">
        <ele>94.8</ele>
        <time>2025-10-20T12:42:17.000Z</time>
      </trkpt>
      <trkpt lat="49.32986" lon="3.33739">
        <ele>94.9</ele>
        <time>2025-10-20T12:42:18.000Z</time>
      </trkpt>
      <trkpt lat="49.32987" lon="3.33736">
        <ele>95</ele>
        <time>2025-10-20T12:42:19.000Z</time>
      </trkpt>
      <trkpt lat="49.32987" lon="3.33733">
        <ele>95.1</ele>
        <time>2025-10-20T12:42:20.000Z</time>
      </trkpt>
      <trkpt lat="49.32988" lon="3.33731">
        <ele>94.7</ele>
        <time>2025-10-20T12:42:21.000Z</time>
      </trkpt>
      <trkpt lat="49.32988" lon="3.33728">
        <ele>94.6</ele>
        <time>2025-10-20T12:42:22.000Z</time>
      </trkpt>
      <trkpt lat="49.32988" lon="3.33725">
        <ele>94.8</ele>
        <time>2025-10-20T12:42:23.000Z</time>
      </trkpt>
      <trkpt lat="49.32988" lon="3.33723">
        <ele>95.2</ele>
        <time>2025-10-20T12:42:24.000Z</time>
      </trkpt>
      <trkpt lat="49.32989" lon="3.3372">
        <ele>95.5</ele>
        <time>2025-10-20T12:42:25.000Z</time>
      </trkpt>
      <trkpt lat="49.32989" lon="3.33718">
        <ele>95.4</ele>
        <time>2025-10-20T12:42:26.000Z</time>
      </trkpt>
      <trkpt lat="49.3299" lon="3.33716">
        <ele>95</ele>
        <time>2025-10-20T12:42:27.000Z</time>
      </trkpt>
      <trkpt lat="49.3299" lon="3.33714">
        <ele>95</ele>
        <time>2025-10-20T12:42:28.000Z</time>
      </trkpt>
      <trkpt lat="49.32991" lon="3.33712">
        <ele>94.7</ele>
        <time>2025-10-20T12:42:29.000Z</time>
      </trkpt>
      <trkpt lat="49.32992" lon="3.33709">
        <ele>94.6</ele>
        <time>2025-10-20T12:42:30.000Z</time>
      </trkpt>
      <trkpt lat="49.32992" lon="3.33707">
        <ele>94.5</ele>
        <time>2025-10-20T12:42:31.000Z</time>
      </trkpt>
      <trkpt lat="49.32993" lon="3.33706">
        <ele>94.2</ele>
        <time>2025-10-20T12:42:32.000Z</time>
      </trkpt>
      <trkpt lat="49.32993" lon="3.33704">
        <ele>93.7</ele>
        <time>2025-10-20T12:42:33.000Z</time>
      </trkpt>
      <trkpt lat="49.32994" lon="3.33702">
        <ele>94</ele>
        <time>2025-10-20T12:42:34.000Z</time>
      </trkpt>
      <trkpt lat="49.32994" lon="3.337">
        <ele>94.1</ele>
        <time>2025-10-20T12:42:35.000Z</time>
      </trkpt>
      <trkpt lat="49.32994" lon="3.33697">
        <ele>94.1</ele>
        <time>2025-10-20T12:42:36.000Z</time>
      </trkpt>
      <trkpt lat="49.32994" lon="3.33695">
        <ele>94.3</ele>
        <time>2025-10-20T12:42:37.000Z</time>
      </trkpt>
      <trkpt lat="49.32995" lon="3.33692">
        <ele>94.6</ele>
        <time>2025-10-20T12:42:38.000Z</time>
      </trkpt>
      <trkpt lat="49.32996" lon="3.3369">
        <ele>94.4</ele>
        <time>2025-10-20T12:42:39.000Z</time>
      </trkpt>
      <trkpt lat="49.32996" lon="3.33689">
        <ele>94.8</ele>
        <time>2025-10-20T12:42:40.000Z</time>
      </trkpt>
      <trkpt lat="49.32996" lon="3.33687">
        <ele>95</ele>
        <time>2025-10-20T12:42:41.000Z</time>
      </trkpt>
      <trkpt lat="49.32996" lon="3.33684">
        <ele>95.2</ele>
        <time>2025-10-20T12:42:42.000Z</time>
      </trkpt>
      <trkpt lat="49.32997" lon="3.33682">
        <ele>95.5</ele>
        <time>2025-10-20T12:42:43.000Z</time>
      </trkpt>
      <trkpt lat="49.32998" lon="3.33679">
        <ele>95.7</ele>
        <time>2025-10-20T12:42:44.000Z</time>
      </trkpt>
      <trkpt lat="49.32999" lon="3.33677">
        <ele>95.7</ele>
        <time>2025-10-20T12:42:45.000Z</time>
      </trkpt>
      <trkpt lat="49.32999" lon="3.33675">
        <ele>95.6</ele>
        <time>2025-10-20T12:42:46.000Z</time>
      </trkpt>
      <trkpt lat="49.33" lon="3.33673">
        <ele>95.9</ele>
        <time>2025-10-20T12:42:47.000Z</time>
      </trkpt>
      <trkpt lat="49.33001" lon="3.3367">
        <ele>96.4</ele>
        <time>2025-10-20T12:42:48.000Z</time>
      </trkpt>
      <trkpt lat="49.33001" lon="3.33668">
        <ele>96.9</ele>
        <time>2025-10-20T12:42:49.000Z</time>
      </trkpt>
      <trkpt lat="49.33001" lon="3.33665">
        <ele>97.2</ele>
        <time>2025-10-20T12:42:50.000Z</time>
      </trkpt>
      <trkpt lat="49.33002" lon="3.33664">
        <ele>96.9</ele>
        <time>2025-10-20T12:42:51.000Z</time>
      </trkpt>
      <trkpt lat="49.33003" lon="3.33662">
        <ele>96.8</ele>
        <time>2025-10-20T12:42:52.000Z</time>
      </trkpt>
      <trkpt lat="49.33003" lon="3.33659">
        <ele>96.6</ele>
        <time>2025-10-20T12:42:53.000Z</time>
      </trkpt>
      <trkpt lat="49.33004" lon="3.33657">
        <ele>96.6</ele>
        <time>2025-10-20T12:42:54.000Z</time>
      </trkpt>
      <trkpt lat="49.33005" lon="3.33655">
        <ele>96.8</ele>
        <time>2025-10-20T12:42:55.000Z</time>
      </trkpt>
      <trkpt lat="49.33006" lon="3.33653">
        <ele>96.7</ele>
        <time>2025-10-20T12:42:56.000Z</time>
      </trkpt>
      <trkpt lat="49.33006" lon="3.33652">
        <ele>97.1</ele>
        <time>2025-10-20T12:42:57.000Z</time>
      </trkpt>
      <trkpt lat="49.33007" lon="3.33651">
        <ele>97.2</ele>
        <time>2025-10-20T12:42:58.000Z</time>
      </trkpt>
      <trkpt lat="49.33008" lon="3.33649">
        <ele>97</ele>
        <time>2025-10-20T12:42:59.000Z</time>
      </trkpt>
      <trkpt lat="49.33009" lon="3.33647">
        <ele>97</ele>
        <time>2025-10-20T12:43:00.000Z</time>
      </trkpt>
      <trkpt lat="49.3301" lon="3.33646">
        <ele>97</ele>
        <time>2025-10-20T12:43:01.000Z</time>
      </trkpt>
      <trkpt lat="49.33011" lon="3.33645">
        <ele>96.7</ele>
        <time>2025-10-20T12:43:02.000Z</time>
      </trkpt>
      <trkpt lat="49.33012" lon="3.33644">
        <ele>96.6</ele>
        <time>2025-10-20T12:43:03.000Z</time>
      </trkpt>
      <trkpt lat="49.33013" lon="3.33642">
        <ele>96.5</ele>
        <time>2025-10-20T12:43:04.000Z</time>
      </trkpt>
      <trkpt lat="49.33014" lon="3.33641">
        <ele>96.5</ele>
        <time>2025-10-20T12:43:05.000Z</time>
      </trkpt>
      <trkpt lat="49.33015" lon="3.33639">
        <ele>96.6</ele>
        <time>2025-10-20T12:43:06.000Z</time>
      </trkpt>
      <trkpt lat="49.33016" lon="3.33637">
        <ele>96.6</ele>
        <time>2025-10-20T12:43:07.000Z</time>
      </trkpt>
      <trkpt lat="49.33017" lon="3.33635">
        <ele>96.6</ele>
        <time>2025-10-20T12:43:08.000Z</time>
      </trkpt>
      <trkpt lat="49.33018" lon="3.33633">
        <ele>96.7</ele>
        <time>2025-10-20T12:43:09.000Z</time>
      </trkpt>
      <trkpt lat="49.33019" lon="3.33632">
        <ele>96.8</ele>
        <time>2025-10-20T12:43:10.000Z</time>
      </trkpt>
      <trkpt lat="49.3302" lon="3.3363">
        <ele>97</ele>
        <time>2025-10-20T12:43:11.000Z</time>
      </trkpt>
      <trkpt lat="49.33021" lon="3.33628">
        <ele>97.2</ele>
        <time>2025-10-20T12:43:12.000Z</time>
      </trkpt>
      <trkpt lat="49.33022" lon="3.33626">
        <ele>97.5</ele>
        <time>2025-10-20T12:43:13.000Z</time>
      </trkpt>
      <trkpt lat="49.33023" lon="3.33625">
        <ele>97.3</ele>
        <time>2025-10-20T12:43:14.000Z</time>
      </trkpt>
      <trkpt lat="49.33024" lon="3.33622">
        <ele>97.1</ele>
        <time>2025-10-20T12:43:15.000Z</time>
      </trkpt>
      <trkpt lat="49.33024" lon="3.33619">
        <ele>97</ele>
        <time>2025-10-20T12:43:16.000Z</time>
      </trkpt>
      <trkpt lat="49.33025" lon="3.33617">
        <ele>96.9</ele>
        <time>2025-10-20T12:43:17.000Z</time>
      </trkpt>
      <trkpt lat="49.33026" lon="3.33615">
        <ele>96.9</ele>
        <time>2025-10-20T12:43:18.000Z</time>
      </trkpt>
      <trkpt lat="49.33027" lon="3.33613">
        <ele>96.9</ele>
        <time>2025-10-20T12:43:19.000Z</time>
      </trkpt>
      <trkpt lat="49.33028" lon="3.33611">
        <ele>97</ele>
        <time>2025-10-20T12:43:20.000Z</time>
      </trkpt>
      <trkpt lat="49.33029" lon="3.33609">
        <ele>97</ele>
        <time>2025-10-20T12:43:21.000Z</time>
      </trkpt>
      <trkpt lat="49.3303" lon="3.33607">
        <ele>96.9</ele>
        <time>2025-10-20T12:43:22.000Z</time>
      </trkpt>
      <trkpt lat="49.33031" lon="3.33606">
        <ele>96.8</ele>
        <time>2025-10-20T12:43:23.000Z</time>
      </trkpt>
      <trkpt lat="49.33032" lon="3.33604">
        <ele>96.4</ele>
        <time>2025-10-20T12:43:24.000Z</time>
      </trkpt>
      <trkpt lat="49.33033" lon="3.33602">
        <ele>96.1</ele>
        <time>2025-10-20T12:43:25.000Z</time>
      </trkpt>
      <trkpt lat="49.33034" lon="3.33601">
        <ele>96</ele>
        <time>2025-10-20T12:43:26.000Z</time>
      </trkpt>
      <trkpt lat="49.33035" lon="3.336">
        <ele>95.7</ele>
        <time>2025-10-20T12:43:27.000Z</time>
      </trkpt>
      <trkpt lat="49.33036" lon="3.33597">
        <ele>95.6</ele>
        <time>2025-10-20T12:43:28.000Z</time>
      </trkpt>
      <trkpt lat="49.33037" lon="3.33596">
        <ele>95.6</ele>
        <time>2025-10-20T12:43:29.000Z</time>
      </trkpt>
      <trkpt lat="49.33038" lon="3.33594">
        <ele>95.2</ele>
        <time>2025-10-20T12:43:30.000Z</time>
      </trkpt>
      <trkpt lat="49.33039" lon="3.33591">
        <ele>94.9</ele>
        <time>2025-10-20T12:43:31.000Z</time>
      </trkpt>
      <trkpt lat="49.3304" lon="3.33589">
        <ele>94.6</ele>
        <time>2025-10-20T12:43:32.000Z</time>
      </trkpt>
      <trkpt lat="49.33041" lon="3.33588">
        <ele>94.8</ele>
        <time>2025-10-20T12:43:33.000Z</time>
      </trkpt>
      <trkpt lat="49.33042" lon="3.33586">
        <ele>94.7</ele>
        <time>2025-10-20T12:43:34.000Z</time>
      </trkpt>
      <trkpt lat="49.33043" lon="3.33585">
        <ele>94.7</ele>
        <time>2025-10-20T12:43:35.000Z</time>
      </trkpt>
      <trkpt lat="49.33044" lon="3.33583">
        <ele>94.6</ele>
        <time>2025-10-20T12:43:36.000Z</time>
      </trkpt>
      <trkpt lat="49.33045" lon="3.3358">
        <ele>94.4</ele>
        <time>2025-10-20T12:43:37.000Z</time>
      </trkpt>
      <trkpt lat="49.33046" lon="3.33579">
        <ele>94.2</ele>
        <time>2025-10-20T12:43:38.000Z</time>
      </trkpt>
      <trkpt lat="49.33047" lon="3.33577">
        <ele>93.9</ele>
        <time>2025-10-20T12:43:39.000Z</time>
      </trkpt>
      <trkpt lat="49.33048" lon="3.33575">
        <ele>93.7</ele>
        <time>2025-10-20T12:43:40.000Z</time>
      </trkpt>
      <trkpt lat="49.33049" lon="3.33574">
        <ele>93.6</ele>
        <time>2025-10-20T12:43:41.000Z</time>
      </trkpt>
      <trkpt lat="49.33051" lon="3.33572">
        <ele>93.5</ele>
        <time>2025-10-20T12:43:42.000Z</time>
      </trkpt>
      <trkpt lat="49.33051" lon="3.3357">
        <ele>93.4</ele>
        <time>2025-10-20T12:43:43.000Z</time>
      </trkpt>
      <trkpt lat="49.33052" lon="3.33568">
        <ele>93.1</ele>
        <time>2025-10-20T12:43:44.000Z</time>
      </trkpt>
      <trkpt lat="49.33052" lon="3.33566">
        <ele>93</ele>
        <time>2025-10-20T12:43:45.000Z</time>
      </trkpt>
      <trkpt lat="49.33053" lon="3.33563">
        <ele>93.1</ele>
        <time>2025-10-20T12:43:46.000Z</time>
      </trkpt>
      <trkpt lat="49.33053" lon="3.33561">
        <ele>93</ele>
        <time>2025-10-20T12:43:47.000Z</time>
      </trkpt>
      <trkpt lat="49.33054" lon="3.3356">
        <ele>93.2</ele>
        <time>2025-10-20T12:43:48.000Z</time>
      </trkpt>
      <trkpt lat="49.33055" lon="3.33557">
        <ele>93.8</ele>
        <time>2025-10-20T12:43:49.000Z</time>
      </trkpt>
      <trkpt lat="49.33056" lon="3.33555">
        <ele>94.4</ele>
        <time>2025-10-20T12:43:50.000Z</time>
      </trkpt>
      <trkpt lat="49.33056" lon="3.33552">
        <ele>95</ele>
        <time>2025-10-20T12:43:51.000Z</time>
      </trkpt>
      <trkpt lat="49.33058" lon="3.33551">
        <ele>95</ele>
        <time>2025-10-20T12:43:52.000Z</time>
      </trkpt>
      <trkpt lat="49.33059" lon="3.33549">
        <ele>94.9</ele>
        <time>2025-10-20T12:43:53.000Z</time>
      </trkpt>
      <trkpt lat="49.3306" lon="3.33547">
        <ele>94.8</ele>
        <time>2025-10-20T12:43:54.000Z</time>
      </trkpt>
      <trkpt lat="49.3306" lon="3.33545">
        <ele>95.3</ele>
        <time>2025-10-20T12:43:55.000Z</time>
      </trkpt>
      <trkpt lat="49.33061" lon="3.33542">
        <ele>95.1</ele>
        <time>2025-10-20T12:43:56.000Z</time>
      </trkpt>
      <trkpt lat="49.33062" lon="3.33541">
        <ele>95.2</ele>
        <time>2025-10-20T12:43:57.000Z</time>
      </trkpt>
      <trkpt lat="49.33062" lon="3.33539">
        <ele>95.1</ele>
        <time>2025-10-20T12:43:58.000Z</time>
      </trkpt>
      <trkpt lat="49.33063" lon="3.33538">
        <ele>95.2</ele>
        <time>2025-10-20T12:43:59.000Z</time>
      </trkpt>
      <trkpt lat="49.33064" lon="3.33536">
        <ele>95</ele>
        <time>2025-10-20T12:44:00.000Z</time>
      </trkpt>
      <trkpt lat="49.33065" lon="3.33534">
        <ele>95</ele>
        <time>2025-10-20T12:44:01.000Z</time>
      </trkpt>
      <trkpt lat="49.33066" lon="3.33532">
        <ele>94.8</ele>
        <time>2025-10-20T12:44:02.000Z</time>
      </trkpt>
      <trkpt lat="49.33068" lon="3.3353">
        <ele>94.5</ele>
        <time>2025-10-20T12:44:03.000Z</time>
      </trkpt>
      <trkpt lat="49.33069" lon="3.33528">
        <ele>94.4</ele>
        <time>2025-10-20T12:44:04.000Z</time>
      </trkpt>
      <trkpt lat="49.3307" lon="3.33526">
        <ele>94.3</ele>
        <time>2025-10-20T12:44:05.000Z</time>
      </trkpt>
      <trkpt lat="49.33072" lon="3.33524">
        <ele>94.3</ele>
        <time>2025-10-20T12:44:06.000Z</time>
      </trkpt>
      <trkpt lat="49.33072" lon="3.33521">
        <ele>94.8</ele>
        <time>2025-10-20T12:44:07.000Z</time>
      </trkpt>
      <trkpt lat="49.33073" lon="3.3352">
        <ele>95</ele>
        <time>2025-10-20T12:44:08.000Z</time>
      </trkpt>
      <trkpt lat="49.33074" lon="3.33518">
        <ele>95.5</ele>
        <time>2025-10-20T12:44:09.000Z</time>
      </trkpt>
      <trkpt lat="49.33075" lon="3.33516">
        <ele>95.8</ele>
        <time>2025-10-20T12:44:10.000Z</time>
      </trkpt>
      <trkpt lat="49.33076" lon="3.33514">
        <ele>96.1</ele>
        <time>2025-10-20T12:44:11.000Z</time>
      </trkpt>
      <trkpt lat="49.33077" lon="3.33512">
        <ele>96.5</ele>
        <time>2025-10-20T12:44:12.000Z</time>
      </trkpt>
      <trkpt lat="49.33078" lon="3.33511">
        <ele>96.9</ele>
        <time>2025-10-20T12:44:13.000Z</time>
      </trkpt>
      <trkpt lat="49.33079" lon="3.3351">
        <ele>96.8</ele>
        <time>2025-10-20T12:44:14.000Z</time>
      </trkpt>
      <trkpt lat="49.3308" lon="3.33508">
        <ele>96.4</ele>
        <time>2025-10-20T12:44:15.000Z</time>
      </trkpt>
      <trkpt lat="49.33081" lon="3.33507">
        <ele>96</ele>
        <time>2025-10-20T12:44:16.000Z</time>
      </trkpt>
      <trkpt lat="49.33082" lon="3.33505">
        <ele>95.7</ele>
        <time>2025-10-20T12:44:17.000Z</time>
      </trkpt>
      <trkpt lat="49.33082" lon="3.33503">
        <ele>95.6</ele>
        <time>2025-10-20T12:44:18.000Z</time>
      </trkpt>
      <trkpt lat="49.33082" lon="3.33499">
        <ele>95.6</ele>
        <time>2025-10-20T12:44:19.000Z</time>
      </trkpt>
      <trkpt lat="49.33083" lon="3.33498">
        <ele>95.8</ele>
        <time>2025-10-20T12:44:20.000Z</time>
      </trkpt>
      <trkpt lat="49.33084" lon="3.33496">
        <ele>96</ele>
        <time>2025-10-20T12:44:21.000Z</time>
      </trkpt>
      <trkpt lat="49.33085" lon="3.33493">
        <ele>95.9</ele>
        <time>2025-10-20T12:44:22.000Z</time>
      </trkpt>
      <trkpt lat="49.33085" lon="3.33491">
        <ele>95.8</ele>
        <time>2025-10-20T12:44:23.000Z</time>
      </trkpt>
      <trkpt lat="49.33086" lon="3.33489">
        <ele>95.7</ele>
        <time>2025-10-20T12:44:24.000Z</time>
      </trkpt>
      <trkpt lat="49.33088" lon="3.33487">
        <ele>95.6</ele>
        <time>2025-10-20T12:44:25.000Z</time>
      </trkpt>
      <trkpt lat="49.33088" lon="3.33485">
        <ele>95.7</ele>
        <time>2025-10-20T12:44:26.000Z</time>
      </trkpt>
      <trkpt lat="49.33089" lon="3.33484">
        <ele>95.8</ele>
        <time>2025-10-20T12:44:27.000Z</time>
      </trkpt>
      <trkpt lat="49.3309" lon="3.33483">
        <ele>95.6</ele>
        <time>2025-10-20T12:44:28.000Z</time>
      </trkpt>
      <trkpt lat="49.3309" lon="3.3348">
        <ele>95.2</ele>
        <time>2025-10-20T12:44:29.000Z</time>
      </trkpt>
      <trkpt lat="49.33091" lon="3.33478">
        <ele>94.9</ele>
        <time>2025-10-20T12:44:30.000Z</time>
      </trkpt>
      <trkpt lat="49.33091" lon="3.33476">
        <ele>94.5</ele>
        <time>2025-10-20T12:44:31.000Z</time>
      </trkpt>
      <trkpt lat="49.33093" lon="3.33475">
        <ele>94</ele>
        <time>2025-10-20T12:44:32.000Z</time>
      </trkpt>
      <trkpt lat="49.33094" lon="3.33473">
        <ele>93.8</ele>
        <time>2025-10-20T12:44:33.000Z</time>
      </trkpt>
      <trkpt lat="49.33095" lon="3.33472">
        <ele>93.5</ele>
        <time>2025-10-20T12:44:34.000Z</time>
      </trkpt>
      <trkpt lat="49.33097" lon="3.3347">
        <ele>93.4</ele>
        <time>2025-10-20T12:44:35.000Z</time>
      </trkpt>
      <trkpt lat="49.33098" lon="3.33468">
        <ele>93.1</ele>
        <time>2025-10-20T12:44:36.000Z</time>
      </trkpt>
      <trkpt lat="49.33098" lon="3.33465">
        <ele>92.8</ele>
        <time>2025-10-20T12:44:37.000Z</time>
      </trkpt>
      <trkpt lat="49.33099" lon="3.33462">
        <ele>93</ele>
        <time>2025-10-20T12:44:38.000Z</time>
      </trkpt>
      <trkpt lat="49.331" lon="3.3346">
        <ele>93.2</ele>
        <time>2025-10-20T12:44:39.000Z</time>
      </trkpt>
      <trkpt lat="49.33101" lon="3.33459">
        <ele>93.3</ele>
        <time>2025-10-20T12:44:40.000Z</time>
      </trkpt>
      <trkpt lat="49.33102" lon="3.33457">
        <ele>93.3</ele>
        <time>2025-10-20T12:44:41.000Z</time>
      </trkpt>
      <trkpt lat="49.33103" lon="3.33455">
        <ele>93.4</ele>
        <time>2025-10-20T12:44:42.000Z</time>
      </trkpt>
      <trkpt lat="49.33103" lon="3.33452">
        <ele>93.8</ele>
        <time>2025-10-20T12:44:43.000Z</time>
      </trkpt>
      <trkpt lat="49.33104" lon="3.33449">
        <ele>94.1</ele>
        <time>2025-10-20T12:44:44.000Z</time>
      </trkpt>
      <trkpt lat="49.33105" lon="3.33446">
        <ele>94.5</ele>
        <time>2025-10-20T12:44:45.000Z</time>
      </trkpt>
      <trkpt lat="49.33106" lon="3.33445">
        <ele>94.6</ele>
        <time>2025-10-20T12:44:46.000Z</time>
      </trkpt>
      <trkpt lat="49.33107" lon="3.33443">
        <ele>94.6</ele>
        <time>2025-10-20T12:44:47.000Z</time>
      </trkpt>
      <trkpt lat="49.33107" lon="3.33441">
        <ele>94.8</ele>
        <time>2025-10-20T12:44:48.000Z</time>
      </trkpt>
      <trkpt lat="49.33108" lon="3.33439">
        <ele>95.1</ele>
        <time>2025-10-20T12:44:49.000Z</time>
      </trkpt>
      <trkpt lat="49.33109" lon="3.33437">
        <ele>95.1</ele>
        <time>2025-10-20T12:44:50.000Z</time>
      </trkpt>
      <trkpt lat="49.3311" lon="3.33436">
        <ele>94.8</ele>
        <time>2025-10-20T12:44:51.000Z</time>
      </trkpt>
      <trkpt lat="49.33111" lon="3.33433">
        <ele>95</ele>
        <time>2025-10-20T12:44:52.000Z</time>
      </trkpt>
      <trkpt lat="49.33112" lon="3.33431">
        <ele>95.1</ele>
        <time>2025-10-20T12:44:53.000Z</time>
      </trkpt>
      <trkpt lat="49.33114" lon="3.33429">
        <ele>95.4</ele>
        <time>2025-10-20T12:44:54.000Z</time>
      </trkpt>
      <trkpt lat="49.33115" lon="3.33427">
        <ele>95.9</ele>
        <time>2025-10-20T12:44:55.000Z</time>
      </trkpt>
      <trkpt lat="49.33116" lon="3.33425">
        <ele>96.3</ele>
        <time>2025-10-20T12:44:56.000Z</time>
      </trkpt>
      <trkpt lat="49.33117" lon="3.33424">
        <ele>96.5</ele>
        <time>2025-10-20T12:44:57.000Z</time>
      </trkpt>
      <trkpt lat="49.33117" lon="3.33421">
        <ele>96.7</ele>
        <time>2025-10-20T12:44:58.000Z</time>
      </trkpt>
      <trkpt lat="49.33118" lon="3.3342">
        <ele>96.5</ele>
        <time>2025-10-20T12:44:59.000Z</time>
      </trkpt>
      <trkpt lat="49.33119" lon="3.33418">
        <ele>96.6</ele>
        <time>2025-10-20T12:45:00.000Z</time>
      </trkpt>
      <trkpt lat="49.33119" lon="3.33416">
        <ele>96.7</ele>
        <time>2025-10-20T12:45:01.000Z</time>
      </trkpt>
      <trkpt lat="49.3312" lon="3.33414">
        <ele>96.5</ele>
        <time>2025-10-20T12:45:02.000Z</time>
      </trkpt>
      <trkpt lat="49.3312" lon="3.33413">
        <ele>96.1</ele>
        <time>2025-10-20T12:45:03.000Z</time>
      </trkpt>
      <trkpt lat="49.3312" lon="3.33413">
        <ele>96.1</ele>
        <time>2025-10-20T12:45:04.000Z</time>
      </trkpt>
      <trkpt lat="49.3312" lon="3.33413">
        <ele>96.2</ele>
        <time>2025-10-20T12:45:05.000Z</time>
      </trkpt>
      <trkpt lat="49.3312" lon="3.33413">
        <ele>96.5</ele>
        <time>2025-10-20T12:45:06.000Z</time>
      </trkpt>
      <trkpt lat="49.3312" lon="3.33413">
        <ele>96.6</ele>
        <time>2025-10-20T12:45:07.000Z</time>
      </trkpt>
      <trkpt lat="49.3312" lon="3.33414">
        <ele>96.9</ele>
        <time>2025-10-20T12:45:08.000Z</time>
      </trkpt>
      <trkpt lat="49.3312" lon="3.33414">
        <ele>97.1</ele>
        <time>2025-10-20T12:45:09.000Z</time>
      </trkpt>
      <trkpt lat="49.3312" lon="3.33414">
        <ele>97.5</ele>
        <time>2025-10-20T12:45:10.000Z</time>
      </trkpt>
      <trkpt lat="49.3312" lon="3.33414">
        <ele>97.7</ele>
        <time>2025-10-20T12:45:11.000Z</time>
      </trkpt>
      <trkpt lat="49.3312" lon="3.33414">
        <ele>97.9</ele>
        <time>2025-10-20T12:45:12.000Z</time>
      </trkpt>
      <trkpt lat="49.3312" lon="3.33414">
        <ele>98</ele>
        <time>2025-10-20T12:45:13.000Z</time>
      </trkpt>
      <trkpt lat="49.3312" lon="3.33414">
        <ele>98</ele>
        <time>2025-10-20T12:45:14.000Z</time>
      </trkpt>
      <trkpt lat="49.3312" lon="3.33414">
        <ele>98</ele>
        <time>2025-10-20T12:45:15.000Z</time>
      </trkpt>
      <trkpt lat="49.3312" lon="3.33414">
        <ele>98</ele>
        <time>2025-10-20T12:45:16.000Z</time>
      </trkpt>
      <trkpt lat="49.3312" lon="3.33414">
        <ele>98</ele>
        <time>2025-10-20T12:45:17.000Z</time>
      </trkpt>
      <trkpt lat="49.3312" lon="3.33414">
        <ele>98</ele>
        <time>2025-10-20T12:45:18.000Z</time>
      </trkpt>
      <trkpt lat="49.3312" lon="3.33414">
        <ele>98</ele>
        <time>2025-10-20T12:45:19.000Z</time>
      </trkpt>
      <trkpt lat="49.3312" lon="3.33414">
        <ele>98</ele>
        <time>2025-10-20T12:45:20.000Z</time>
      </trkpt>
      <trkpt lat="49.3312" lon="3.33414">
        <ele>98</ele>
        <time>2025-10-20T12:45:21.000Z</time>
      </trkpt>
      <trkpt lat="49.3312" lon="3.33414">
        <ele>98</ele>
        <time>2025-10-20T12:45:22.000Z</time>
      </trkpt>
      <trkpt lat="49.3312" lon="3.33414">
        <ele>98</ele>
        <time>2025-10-20T12:45:23.000Z</time>
      </trkpt>
      <trkpt lat="49.3312" lon="3.33414">
        <ele>98</ele>
        <time>2025-10-20T12:45:24.000Z</time>
      </trkpt>
      <trkpt lat="49.3312" lon="3.33414">
        <ele>98</ele>
        <time>2025-10-20T12:45:25.000Z</time>
      </trkpt>
      <trkpt lat="49.3312" lon="3.33414">
        <ele>98</ele>
        <time>2025-10-20T12:45:26.000Z</time>
      </trkpt>
      <trkpt lat="49.3312" lon="3.33414">
        <ele>98</ele>
        <time>2025-10-20T12:45:27.000Z</time>
      </trkpt>
      <trkpt lat="49.3312" lon="3.33414">
        <ele>98</ele>
        <time>2025-10-20T12:45:28.000Z</time>
      </trkpt>
      <trkpt lat="49.3312" lon="3.33414">
        <ele>98</ele>
        <time>2025-10-20T12:45:29.000Z</time>
      </trkpt>
      <trkpt lat="49.3312" lon="3.33414">
        <ele>98</ele>
        <time>2025-10-20T12:45:30.000Z</time>
      </trkpt>
      <trkpt lat="49.3312" lon="3.33414">
        <ele>98</ele>
        <time>2025-10-20T12:45:31.000Z</time>
      </trkpt>
      <trkpt lat="49.3312" lon="3.33414">
        <ele>98</ele>
        <time>2025-10-20T12:45:32.000Z</time>
      </trkpt>
      <trkpt lat="49.3312" lon="3.33414">
        <ele>98</ele>
        <time>2025-10-20T12:45:33.000Z</time>
      </trkpt>
      <trkpt lat="49.3312" lon="3.33414">
        <ele>98</ele>
        <time>2025-10-20T12:45:34.000Z</time>
      </trkpt>
      <trkpt lat="49.3312" lon="3.33414">
        <ele>98</ele>
        <time>2025-10-20T12:45:35.000Z</time>
      </trkpt>
      <trkpt lat="49.3312" lon="3.33414">
        <ele>98</ele>
        <time>2025-10-20T12:45:36.000Z</time>
      </trkpt>
      <trkpt lat="49.3312" lon="3.33414">
        <ele>98</ele>
        <time>2025-10-20T12:45:37.000Z</time>
      </trkpt>
      <trkpt lat="49.3312" lon="3.33414">
        <ele>98</ele>
        <time>2025-10-20T12:45:38.000Z</time>
      </trkpt>
      <trkpt lat="49.3312" lon="3.33414">
        <ele>98</ele>
        <time>2025-10-20T12:45:39.000Z</time>
      </trkpt>
      <trkpt lat="49.3312" lon="3.33414">
        <ele>98</ele>
        <time>2025-10-20T12:45:40.000Z</time>
      </trkpt>
      <trkpt lat="49.3312" lon="3.33414">
        <ele>98</ele>
        <time>2025-10-20T12:45:41.000Z</time>
      </trkpt>
      <trkpt lat="49.3312" lon="3.33414">
        <ele>98</ele>
        <time>2025-10-20T12:45:42.000Z</time>
      </trkpt>
      <trkpt lat="49.3312" lon="3.33414">
        <ele>98</ele>
        <time>2025-10-20T12:45:43.000Z</time>
      </trkpt>
      <trkpt lat="49.3312" lon="3.33414">
        <ele>98</ele>
        <time>2025-10-20T12:45:44.000Z</time>
      </trkpt>
      <trkpt lat="49.3312" lon="3.33414">
        <ele>98</ele>
        <time>2025-10-20T12:45:45.000Z</time>
      </trkpt>
      <trkpt lat="49.3312" lon="3.33414">
        <ele>98</ele>
        <time>2025-10-20T12:45:46.000Z</time>
      </trkpt>
      <trkpt lat="49.3312" lon="3.33414">
        <ele>98</ele>
        <time>2025-10-20T12:45:47.000Z</time>
      </trkpt>
      <trkpt lat="49.3312" lon="3.33414">
        <ele>98</ele>
        <time>2025-10-20T12:45:48.000Z</time>
      </trkpt>
      <trkpt lat="49.3312" lon="3.33414">
        <ele>98</ele>
        <time>2025-10-20T12:45:49.000Z</time>
      </trkpt>
      <trkpt lat="49.3312" lon="3.33414">
        <ele>98</ele>
        <time>2025-10-20T12:45:50.000Z</time>
      </trkpt>
      <trkpt lat="49.3312" lon="3.33414">
        <ele>98</ele>
        <time>2025-10-20T12:45:51.000Z</time>
      </trkpt>
      <trkpt lat="49.3312" lon="3.33414">
        <ele>98</ele>
        <time>2025-10-20T12:45:52.000Z</time>
      </trkpt>
      <trkpt lat="49.3312" lon="3.33414">
        <ele>98</ele>
        <time>2025-10-20T12:45:53.000Z</time>
      </trkpt>
      <trkpt lat="49.3312" lon="3.33414">
        <ele>98</ele>
        <time>2025-10-20T12:45:54.000Z</time>
      </trkpt>
      <trkpt lat="49.3312" lon="3.33414">
        <ele>98</ele>
        <time>2025-10-20T12:45:55.000Z</time>
      </trkpt>
      <trkpt lat="49.3312" lon="3.33414">
        <ele>98</ele>
        <time>2025-10-20T12:45:56.000Z</time>
      </trkpt>
      <trkpt lat="49.3312" lon="3.33414">
        <ele>98</ele>
        <time>2025-10-20T12:45:57.000Z</time>
      </trkpt>
      <trkpt lat="49.3312" lon="3.33414">
        <ele>98</ele>
        <time>2025-10-20T12:45:58.000Z</time>
      </trkpt>
      <trkpt lat="49.3312" lon="3.33414">
        <ele>98</ele>
        <time>2025-10-20T12:45:59.000Z</time>
      </trkpt>
      <trkpt lat="49.3312" lon="3.33414">
        <ele>98</ele>
        <time>2025-10-20T12:46:00.000Z</time>
      </trkpt>
      <trkpt lat="49.3312" lon="3.33414">
        <ele>98</ele>
        <time>2025-10-20T12:46:01.000Z</time>
      </trkpt>
      <trkpt lat="49.3312" lon="3.33414">
        <ele>98</ele>
        <time>2025-10-20T12:46:02.000Z</time>
      </trkpt>
      <trkpt lat="49.3312" lon="3.33414">
        <ele>98</ele>
        <time>2025-10-20T12:46:03.000Z</time>
      </trkpt>
      <trkpt lat="49.3312" lon="3.33414">
        <ele>98</ele>
        <time>2025-10-20T12:46:04.000Z</time>
      </trkpt>
      <trkpt lat="49.3312" lon="3.33414">
        <ele>98</ele>
        <time>2025-10-20T12:46:05.000Z</time>
      </trkpt>
      <trkpt lat="49.3312" lon="3.33414">
        <ele>98</ele>
        <time>2025-10-20T12:46:06.000Z</time>
      </trkpt>
      <trkpt lat="49.3312" lon="3.33414">
        <ele>98</ele>
        <time>2025-10-20T12:46:07.000Z</time>
      </trkpt>
      <trkpt lat="49.3312" lon="3.33414">
        <ele>98</ele>
        <time>2025-10-20T12:46:08.000Z</time>
      </trkpt>
      <trkpt lat="49.3312" lon="3.33414">
        <ele>98</ele>
        <time>2025-10-20T12:46:09.000Z</time>
      </trkpt>
      <trkpt lat="49.3312" lon="3.33414">
        <ele>98</ele>
        <time>2025-10-20T12:46:10.000Z</time>
      </trkpt>
      <trkpt lat="49.3312" lon="3.33414">
        <ele>98</ele>
        <time>2025-10-20T12:46:11.000Z</time>
      </trkpt>
      <trkpt lat="49.3312" lon="3.33414">
        <ele>98</ele>
        <time>2025-10-20T12:46:12.000Z</time>
      </trkpt>
      <trkpt lat="49.3312" lon="3.33414">
        <ele>98</ele>
        <time>2025-10-20T12:46:13.000Z</time>
      </trkpt>
      <trkpt lat="49.3312" lon="3.33414">
        <ele>98</ele>
        <time>2025-10-20T12:46:14.000Z</time>
      </trkpt>
      <trkpt lat="49.3312" lon="3.33414">
        <ele>98</ele>
        <time>2025-10-20T12:46:15.000Z</time>
      </trkpt>
      <trkpt lat="49.3312" lon="3.33414">
        <ele>98</ele>
        <time>2025-10-20T12:46:16.000Z</time>
      </trkpt>
      <trkpt lat="49.3312" lon="3.33414">
        <ele>98</ele>
        <time>2025-10-20T12:46:17.000Z</time>
      </trkpt>
      <trkpt lat="49.3312" lon="3.33414">
        <ele>98</ele>
        <time>2025-10-20T12:46:18.000Z</time>
      </trkpt>
      <trkpt lat="49.3312" lon="3.33414">
        <ele>98</ele>
        <time>2025-10-20T12:46:19.000Z</time>
      </trkpt>
      <trkpt lat="49.3312" lon="3.33414">
        <ele>98</ele>
        <time>2025-10-20T12:46:20.000Z</time>
      </trkpt>
      <trkpt lat="49.3312" lon="3.33414">
        <ele>98</ele>
        <time>2025-10-20T12:46:21.000Z</time>
      </trkpt>
      <trkpt lat="49.3312" lon="3.33414">
        <ele>98</ele>
        <time>2025-10-20T12:46:22.000Z</time>
      </trkpt>
      <trkpt lat="49.3312" lon="3.33414">
        <ele>98</ele>
        <time>2025-10-20T12:46:23.000Z</time>
      </trkpt>
      <trkpt lat="49.3312" lon="3.33414">
        <ele>98</ele>
        <time>2025-10-20T12:46:24.000Z</time>
      </trkpt>
      <trkpt lat="49.3312" lon="3.33414">
        <ele>98</ele>
        <time>2025-10-20T12:46:25.000Z</time>
      </trkpt>
      <trkpt lat="49.3312" lon="3.33414">
        <ele>98</ele>
        <time>2025-10-20T12:46:26.000Z</time>
      </trkpt>
      <trkpt lat="49.3312" lon="3.33414">
        <ele>98</ele>
        <time>2025-10-20T12:46:27.000Z</time>
      </trkpt>
      <trkpt lat="49.3312" lon="3.33414">
        <ele>98</ele>
        <time>2025-10-20T12:46:28.000Z</time>
      </trkpt>
      <trkpt lat="49.3312" lon="3.33414">
        <ele>98</ele>
        <time>2025-10-20T12:46:29.000Z</time>
      </trkpt>
      <trkpt lat="49.3312" lon="3.33414">
        <ele>98</ele>
        <time>2025-10-20T12:46:30.000Z</time>
      </trkpt>
      <trkpt lat="49.3312" lon="3.33414">
        <ele>98</ele>
        <time>2025-10-20T12:46:31.000Z</time>
      </trkpt>
      <trkpt lat="49.3312" lon="3.33414">
        <ele>98</ele>
        <time>2025-10-20T12:46:32.000Z</time>
      </trkpt>
      <trkpt lat="49.3312" lon="3.33414">
        <ele>98</ele>
        <time>2025-10-20T12:46:33.000Z</time>
      </trkpt>
      <trkpt lat="49.3312" lon="3.33414">
        <ele>98</ele>
        <time>2025-10-20T12:46:34.000Z</time>
      </trkpt>
      <trkpt lat="49.3312" lon="3.33414">
        <ele>98</ele>
        <time>2025-10-20T12:46:35.000Z</time>
      </trkpt>
      <trkpt lat="49.3312" lon="3.33414">
        <ele>98</ele>
        <time>2025-10-20T12:46:36.000Z</time>
      </trkpt>
      <trkpt lat="49.3312" lon="3.33414">
        <ele>101.1</ele>
        <time>2025-10-20T12:46:37.000Z</time>
      </trkpt>
      <trkpt lat="49.3312" lon="3.33414">
        <ele>101.1</ele>
        <time>2025-10-20T12:46:38.000Z</time>
      </trkpt>
      <trkpt lat="49.3312" lon="3.33414">
        <ele>101.1</ele>
        <time>2025-10-20T12:46:39.000Z</time>
      </trkpt>
      <trkpt lat="49.3312" lon="3.33414">
        <ele>101.1</ele>
        <time>2025-10-20T12:46:40.000Z</time>
      </trkpt>
      <trkpt lat="49.3312" lon="3.33414">
        <ele>101.1</ele>
        <time>2025-10-20T12:46:41.000Z</time>
      </trkpt>
      <trkpt lat="49.3312" lon="3.33414">
        <ele>101.1</ele>
        <time>2025-10-20T12:46:42.000Z</time>
      </trkpt>
      <trkpt lat="49.3312" lon="3.33414">
        <ele>101.1</ele>
        <time>2025-10-20T12:46:43.000Z</time>
      </trkpt>
      <trkpt lat="49.3312" lon="3.33414">
        <ele>101.1</ele>
        <time>2025-10-20T12:46:44.000Z</time>
      </trkpt>
      <trkpt lat="49.3312" lon="3.33414">
        <ele>101.1</ele>
        <time>2025-10-20T12:46:45.000Z</time>
      </trkpt>
      <trkpt lat="49.3312" lon="3.33414">
        <ele>101.1</ele>
        <time>2025-10-20T12:46:46.000Z</time>
      </trkpt>
      <trkpt lat="49.3312" lon="3.33414">
        <ele>101.1</ele>
        <time>2025-10-20T12:46:47.000Z</time>
      </trkpt>
      <trkpt lat="49.3312" lon="3.33414">
        <ele>101.1</ele>
        <time>2025-10-20T12:46:48.000Z</time>
      </trkpt>
      <trkpt lat="49.3312" lon="3.33414">
        <ele>101.1</ele>
        <time>2025-10-20T12:46:49.000Z</time>
      </trkpt>
      <trkpt lat="49.3312" lon="3.33414">
        <ele>101.1</ele>
        <time>2025-10-20T12:46:50.000Z</time>
      </trkpt>
      <trkpt lat="49.3312" lon="3.33414">
        <ele>101.1</ele>
        <time>2025-10-20T12:46:51.000Z</time>
      </trkpt>
      <trkpt lat="49.3312" lon="3.33414">
        <ele>101.1</ele>
        <time>2025-10-20T12:46:52.000Z</time>
      </trkpt>
      <trkpt lat="49.3312" lon="3.33414">
        <ele>101.1</ele>
        <time>2025-10-20T12:46:53.000Z</time>
      </trkpt>
      <trkpt lat="49.3312" lon="3.33414">
        <ele>101.1</ele>
        <time>2025-10-20T12:46:54.000Z</time>
      </trkpt>
      <trkpt lat="49.3312" lon="3.33414">
        <ele>101.1</ele>
        <time>2025-10-20T12:46:55.000Z</time>
      </trkpt>
      <trkpt lat="49.3312" lon="3.33414">
        <ele>101.1</ele>
        <time>2025-10-20T12:46:56.000Z</time>
      </trkpt>
      <trkpt lat="49.3312" lon="3.33414">
        <ele>101.1</ele>
        <time>2025-10-20T12:46:57.000Z</time>
      </trkpt>
      <trkpt lat="49.3312" lon="3.33414">
        <ele>101.1</ele>
        <time>2025-10-20T12:46:58.000Z</time>
      </trkpt>
      <trkpt lat="49.3312" lon="3.33414">
        <ele>101.1</ele>
        <time>2025-10-20T12:46:59.000Z</time>
      </trkpt>
      <trkpt lat="49.3312" lon="3.33414">
        <ele>101.1</ele>
        <time>2025-10-20T12:47:00.000Z</time>
      </trkpt>
      <trkpt lat="49.3312" lon="3.33414">
        <ele>101.1</ele>
        <time>2025-10-20T12:47:01.000Z</time>
      </trkpt>
      <trkpt lat="49.3312" lon="3.33414">
        <ele>101.1</ele>
        <time>2025-10-20T12:47:02.000Z</time>
      </trkpt>
      <trkpt lat="49.3312" lon="3.33414">
        <ele>101.1</ele>
        <time>2025-10-20T12:47:03.000Z</time>
      </trkpt>
      <trkpt lat="49.3312" lon="3.33414">
        <ele>101.1</ele>
        <time>2025-10-20T12:47:04.000Z</time>
      </trkpt>
      <trkpt lat="49.33119" lon="3.33409">
        <ele>99.8</ele>
        <time>2025-10-20T12:47:05.000Z</time>
      </trkpt>
      <trkpt lat="49.33119" lon="3.33409">
        <ele>99.8</ele>
        <time>2025-10-20T12:47:06.000Z</time>
      </trkpt>
      <trkpt lat="49.33119" lon="3.33409">
        <ele>99.8</ele>
        <time>2025-10-20T12:47:07.000Z</time>
      </trkpt>
      <trkpt lat="49.3312" lon="3.33408">
        <ele>99.8</ele>
        <time>2025-10-20T12:47:08.000Z</time>
      </trkpt>
      <trkpt lat="49.3312" lon="3.33408">
        <ele>99.8</ele>
        <time>2025-10-20T12:47:09.000Z</time>
      </trkpt>
      <trkpt lat="49.3312" lon="3.33409">
        <ele>99.7</ele>
        <time>2025-10-20T12:47:10.000Z</time>
      </trkpt>
      <trkpt lat="49.3312" lon="3.33409">
        <ele>99.8</ele>
        <time>2025-10-20T12:47:11.000Z</time>
      </trkpt>
      <trkpt lat="49.3312" lon="3.33409">
        <ele>99.6</ele>
        <time>2025-10-20T12:47:12.000Z</time>
      </trkpt>
      <trkpt lat="49.3312" lon="3.33409">
        <ele>99.5</ele>
        <time>2025-10-20T12:47:13.000Z</time>
      </trkpt>
      <trkpt lat="49.3312" lon="3.33409">
        <ele>99.3</ele>
        <time>2025-10-20T12:47:14.000Z</time>
      </trkpt>
      <trkpt lat="49.3312" lon="3.33409">
        <ele>99.3</ele>
        <time>2025-10-20T12:47:15.000Z</time>
      </trkpt>
      <trkpt lat="49.3312" lon="3.33409">
        <ele>99.3</ele>
        <time>2025-10-20T12:47:16.000Z</time>
      </trkpt>
      <trkpt lat="49.3312" lon="3.33409">
        <ele>99.3</ele>
        <time>2025-10-20T12:47:17.000Z</time>
      </trkpt>
      <trkpt lat="49.33121" lon="3.33409">
        <ele>99.2</ele>
        <time>2025-10-20T12:47:18.000Z</time>
      </trkpt>
      <trkpt lat="49.33121" lon="3.33409">
        <ele>99.1</ele>
        <time>2025-10-20T12:47:19.000Z</time>
      </trkpt>
      <trkpt lat="49.33121" lon="3.3341">
        <ele>99.2</ele>
        <time>2025-10-20T12:47:20.000Z</time>
      </trkpt>
      <trkpt lat="49.33121" lon="3.3341">
        <ele>99.3</ele>
        <time>2025-10-20T12:47:21.000Z</time>
      </trkpt>
      <trkpt lat="49.3312" lon="3.3341">
        <ele>99.4</ele>
        <time>2025-10-20T12:47:22.000Z</time>
      </trkpt>
      <trkpt lat="49.33121" lon="3.3341">
        <ele>99.5</ele>
        <time>2025-10-20T12:47:23.000Z</time>
      </trkpt>
      <trkpt lat="49.33121" lon="3.33409">
        <ele>99.6</ele>
        <time>2025-10-20T12:47:24.000Z</time>
      </trkpt>
      <trkpt lat="49.3312" lon="3.33409">
        <ele>99.8</ele>
        <time>2025-10-20T12:47:25.000Z</time>
      </trkpt>
      <trkpt lat="49.3312" lon="3.33409">
        <ele>100</ele>
        <time>2025-10-20T12:47:26.000Z</time>
      </trkpt>
      <trkpt lat="49.3312" lon="3.33409">
        <ele>100.1</ele>
        <time>2025-10-20T12:47:27.000Z</time>
      </trkpt>
      <trkpt lat="49.3312" lon="3.3341">
        <ele>100.2</ele>
        <time>2025-10-20T12:47:28.000Z</time>
      </trkpt>
      <trkpt lat="49.3312" lon="3.33411">
        <ele>100.2</ele>
        <time>2025-10-20T12:47:29.000Z</time>
      </trkpt>
      <trkpt lat="49.3312" lon="3.33411">
        <ele>100.1</ele>
        <time>2025-10-20T12:47:30.000Z</time>
      </trkpt>
      <trkpt lat="49.3312" lon="3.33411">
        <ele>99.9</ele>
        <time>2025-10-20T12:47:31.000Z</time>
      </trkpt>
      <trkpt lat="49.3312" lon="3.33412">
        <ele>99.8</ele>
        <time>2025-10-20T12:47:32.000Z</time>
      </trkpt>
      <trkpt lat="49.3312" lon="3.33412">
        <ele>99.8</ele>
        <time>2025-10-20T12:47:33.000Z</time>
      </trkpt>
      <trkpt lat="49.3312" lon="3.33412">
        <ele>99.8</ele>
        <time>2025-10-20T12:47:34.000Z</time>
      </trkpt>
      <trkpt lat="49.3312" lon="3.33412">
        <ele>99.8</ele>
        <time>2025-10-20T12:47:35.000Z</time>
      </trkpt>
      <trkpt lat="49.3312" lon="3.33412">
        <ele>99.8</ele>
        <time>2025-10-20T12:47:36.000Z</time>
      </trkpt>
      <trkpt lat="49.3312" lon="3.33412">
        <ele>99.8</ele>
        <time>2025-10-20T12:47:37.000Z</time>
      </trkpt>
      <trkpt lat="49.3312" lon="3.33412">
        <ele>99.8</ele>
        <time>2025-10-20T12:47:38.000Z</time>
      </trkpt>
      <trkpt lat="49.3312" lon="3.33412">
        <ele>99.8</ele>
        <time>2025-10-20T12:47:39.000Z</time>
      </trkpt>
      <trkpt lat="49.3312" lon="3.33412">
        <ele>99.8</ele>
        <time>2025-10-20T12:47:40.000Z</time>
      </trkpt>
      <trkpt lat="49.3312" lon="3.33412">
        <ele>99.8</ele>
        <time>2025-10-20T12:47:41.000Z</time>
      </trkpt>
      <trkpt lat="49.3312" lon="3.33412">
        <ele>99.8</ele>
        <time>2025-10-20T12:47:42.000Z</time>
      </trkpt>
      <trkpt lat="49.3312" lon="3.33412">
        <ele>99.8</ele>
        <time>2025-10-20T12:47:43.000Z</time>
      </trkpt>
      <trkpt lat="49.3312" lon="3.33412">
        <ele>99.8</ele>
        <time>2025-10-20T12:47:44.000Z</time>
      </trkpt>
      <trkpt lat="49.3312" lon="3.33412">
        <ele>99.8</ele>
        <time>2025-10-20T12:47:45.000Z</time>
      </trkpt>
      <trkpt lat="49.3312" lon="3.33412">
        <ele>99.8</ele>
        <time>2025-10-20T12:47:46.000Z</time>
      </trkpt>
      <trkpt lat="49.3312" lon="3.33412">
        <ele>99.8</ele>
        <time>2025-10-20T12:47:47.000Z</time>
      </trkpt>
      <trkpt lat="49.3312" lon="3.33412">
        <ele>99.8</ele>
        <time>2025-10-20T12:47:48.000Z</time>
      </trkpt>
      <trkpt lat="49.3312" lon="3.33412">
        <ele>99.8</ele>
        <time>2025-10-20T12:47:49.000Z</time>
      </trkpt>
      <trkpt lat="49.3312" lon="3.33412">
        <ele>99.8</ele>
        <time>2025-10-20T12:47:50.000Z</time>
      </trkpt>
      <trkpt lat="49.3312" lon="3.33412">
        <ele>99.8</ele>
        <time>2025-10-20T12:47:51.000Z</time>
      </trkpt>
      <trkpt lat="49.3312" lon="3.33412">
        <ele>99.8</ele>
        <time>2025-10-20T12:47:52.000Z</time>
      </trkpt>
      <trkpt lat="49.3312" lon="3.33412">
        <ele>99.8</ele>
        <time>2025-10-20T12:47:53.000Z</time>
      </trkpt>
      <trkpt lat="49.3312" lon="3.33412">
        <ele>99.8</ele>
        <time>2025-10-20T12:47:54.000Z</time>
      </trkpt>
      <trkpt lat="49.3312" lon="3.33412">
        <ele>99.8</ele>
        <time>2025-10-20T12:47:55.000Z</time>
      </trkpt>
      <trkpt lat="49.3312" lon="3.33412">
        <ele>99.8</ele>
        <time>2025-10-20T12:47:56.000Z</time>
      </trkpt>
      <trkpt lat="49.3312" lon="3.33412">
        <ele>99.8</ele>
        <time>2025-10-20T12:47:57.000Z</time>
      </trkpt>
      <trkpt lat="49.3312" lon="3.33412">
        <ele>99.8</ele>
        <time>2025-10-20T12:47:58.000Z</time>
      </trkpt>
      <trkpt lat="49.3312" lon="3.33412">
        <ele>99.8</ele>
        <time>2025-10-20T12:47:59.000Z</time>
      </trkpt>
      <trkpt lat="49.3312" lon="3.33412">
        <ele>99.8</ele>
        <time>2025-10-20T12:48:00.000Z</time>
      </trkpt>
      <trkpt lat="49.3312" lon="3.33412">
        <ele>99.8</ele>
        <time>2025-10-20T12:48:01.000Z</time>
      </trkpt>
      <trkpt lat="49.33117" lon="3.33407">
        <ele>100.5</ele>
        <time>2025-10-20T12:48:02.000Z</time>
      </trkpt>
      <trkpt lat="49.33117" lon="3.33406">
        <ele>100.5</ele>
        <time>2025-10-20T12:48:03.000Z</time>
      </trkpt>
      <trkpt lat="49.33116" lon="3.33406">
        <ele>100.5</ele>
        <time>2025-10-20T12:48:04.000Z</time>
      </trkpt>
      <trkpt lat="49.33116" lon="3.33405">
        <ele>100.6</ele>
        <time>2025-10-20T12:48:05.000Z</time>
      </trkpt>
      <trkpt lat="49.33115" lon="3.33404">
        <ele>100.5</ele>
        <time>2025-10-20T12:48:06.000Z</time>
      </trkpt>
      <trkpt lat="49.33114" lon="3.33402">
        <ele>100.7</ele>
        <time>2025-10-20T12:48:07.000Z</time>
      </trkpt>
      <trkpt lat="49.33114" lon="3.33401">
        <ele>100.6</ele>
        <time>2025-10-20T12:48:08.000Z</time>
      </trkpt>
      <trkpt lat="49.33114" lon="3.334">
        <ele>100.5</ele>
        <time>2025-10-20T12:48:09.000Z</time>
      </trkpt>
      <trkpt lat="49.33112" lon="3.33399">
        <ele>100.4</ele>
        <time>2025-10-20T12:48:10.000Z</time>
      </trkpt>
      <trkpt lat="49.33111" lon="3.33397">
        <ele>100.3</ele>
        <time>2025-10-20T12:48:11.000Z</time>
      </trkpt>
      <trkpt lat="49.33111" lon="3.33396">
        <ele>100.2</ele>
        <time>2025-10-20T12:48:12.000Z</time>
      </trkpt>
      <trkpt lat="49.3311" lon="3.33395">
        <ele>100.1</ele>
        <time>2025-10-20T12:48:13.000Z</time>
      </trkpt>
      <trkpt lat="49.33108" lon="3.33393">
        <ele>100</ele>
        <time>2025-10-20T12:48:14.000Z</time>
      </trkpt>
      <trkpt lat="49.33107" lon="3.33392">
        <ele>100.3</ele>
        <time>2025-10-20T12:48:15.000Z</time>
      </trkpt>
      <trkpt lat="49.33106" lon="3.33391">
        <ele>100.6</ele>
        <time>2025-10-20T12:48:16.000Z</time>
      </trkpt>
      <trkpt lat="49.33104" lon="3.3339">
        <ele>100.5</ele>
        <time>2025-10-20T12:48:17.000Z</time>
      </trkpt>
      <trkpt lat="49.33103" lon="3.3339">
        <ele>100.4</ele>
        <time>2025-10-20T12:48:18.000Z</time>
      </trkpt>
      <trkpt lat="49.33102" lon="3.33389">
        <ele>100.1</ele>
        <time>2025-10-20T12:48:19.000Z</time>
      </trkpt>
      <trkpt lat="49.331" lon="3.33388">
        <ele>100.3</ele>
        <time>2025-10-20T12:48:20.000Z</time>
      </trkpt>
      <trkpt lat="49.33099" lon="3.33387">
        <ele>100.4</ele>
        <time>2025-10-20T12:48:21.000Z</time>
      </trkpt>
      <trkpt lat="49.33098" lon="3.33386">
        <ele>101.1</ele>
        <time>2025-10-20T12:48:22.000Z</time>
      </trkpt>
      <trkpt lat="49.33097" lon="3.33385">
        <ele>101.2</ele>
        <time>2025-10-20T12:48:23.000Z</time>
      </trkpt>
      <trkpt lat="49.33096" lon="3.33384">
        <ele>101.7</ele>
        <time>2025-10-20T12:48:24.000Z</time>
      </trkpt>
      <trkpt lat="49.33095" lon="3.33384">
        <ele>102</ele>
        <time>2025-10-20T12:48:25.000Z</time>
      </trkpt>
      <trkpt lat="49.33094" lon="3.33383">
        <ele>102.5</ele>
        <time>2025-10-20T12:48:26.000Z</time>
      </trkpt>
      <trkpt lat="49.33093" lon="3.33382">
        <ele>102.3</ele>
        <time>2025-10-20T12:48:27.000Z</time>
      </trkpt>
      <trkpt lat="49.33091" lon="3.33381">
        <ele>102.5</ele>
        <time>2025-10-20T12:48:28.000Z</time>
      </trkpt>
      <trkpt lat="49.3309" lon="3.3338">
        <ele>102.5</ele>
        <time>2025-10-20T12:48:29.000Z</time>
      </trkpt>
      <trkpt lat="49.33089" lon="3.33379">
        <ele>102.6</ele>
        <time>2025-10-20T12:48:30.000Z</time>
      </trkpt>
      <trkpt lat="49.33088" lon="3.33377">
        <ele>102.7</ele>
        <time>2025-10-20T12:48:31.000Z</time>
      </trkpt>
      <trkpt lat="49.33086" lon="3.33376">
        <ele>102.6</ele>
        <time>2025-10-20T12:48:32.000Z</time>
      </trkpt>
      <trkpt lat="49.33085" lon="3.33374">
        <ele>102.7</ele>
        <time>2025-10-20T12:48:33.000Z</time>
      </trkpt>
      <trkpt lat="49.33084" lon="3.33373">
        <ele>102.5</ele>
        <time>2025-10-20T12:48:34.000Z</time>
      </trkpt>
      <trkpt lat="49.33082" lon="3.33373">
        <ele>102.2</ele>
        <time>2025-10-20T12:48:35.000Z</time>
      </trkpt>
      <trkpt lat="49.33081" lon="3.33372">
        <ele>102</ele>
        <time>2025-10-20T12:48:36.000Z</time>
      </trkpt>
      <trkpt lat="49.3308" lon="3.3337">
        <ele>101.6</ele>
        <time>2025-10-20T12:48:37.000Z</time>
      </trkpt>
      <trkpt lat="49.33079" lon="3.33369">
        <ele>100.7</ele>
        <time>2025-10-20T12:48:38.000Z</time>
      </trkpt>
      <trkpt lat="49.33078" lon="3.33368">
        <ele>100.1</ele>
        <time>2025-10-20T12:48:39.000Z</time>
      </trkpt>
      <trkpt lat="49.33077" lon="3.33367">
        <ele>99.8</ele>
        <time>2025-10-20T12:48:40.000Z</time>
      </trkpt>
      <trkpt lat="49.33077" lon="3.33366">
        <ele>99.6</ele>
        <time>2025-10-20T12:48:41.000Z</time>
      </trkpt>
      <trkpt lat="49.33077" lon="3.33365">
        <ele>99.7</ele>
        <time>2025-10-20T12:48:42.000Z</time>
      </trkpt>
      <trkpt lat="49.33077" lon="3.33364">
        <ele>99.9</ele>
        <time>2025-10-20T12:48:43.000Z</time>
      </trkpt>
      <trkpt lat="49.33076" lon="3.33364">
        <ele>100.1</ele>
        <time>2025-10-20T12:48:44.000Z</time>
      </trkpt>
      <trkpt lat="49.33075" lon="3.33363">
        <ele>100.2</ele>
        <time>2025-10-20T12:48:45.000Z</time>
      </trkpt>
      <trkpt lat="49.33074" lon="3.33362">
        <ele>100.4</ele>
        <time>2025-10-20T12:48:46.000Z</time>
      </trkpt>
      <trkpt lat="49.33073" lon="3.33361">
        <ele>100.6</ele>
        <time>2025-10-20T12:48:47.000Z</time>
      </trkpt>
      <trkpt lat="49.33072" lon="3.3336">
        <ele>100.4</ele>
        <time>2025-10-20T12:48:48.000Z</time>
      </trkpt>
      <trkpt lat="49.33071" lon="3.33359">
        <ele>100.2</ele>
        <time>2025-10-20T12:48:49.000Z</time>
      </trkpt>
      <trkpt lat="49.3307" lon="3.33358">
        <ele>100.1</ele>
        <time>2025-10-20T12:48:50.000Z</time>
      </trkpt>
      <trkpt lat="49.33069" lon="3.33357">
        <ele>100.1</ele>
        <time>2025-10-20T12:48:51.000Z</time>
      </trkpt>
      <trkpt lat="49.33068" lon="3.33356">
        <ele>100.2</ele>
        <time>2025-10-20T12:48:52.000Z</time>
      </trkpt>
      <trkpt lat="49.33066" lon="3.33356">
        <ele>100</ele>
        <time>2025-10-20T12:48:53.000Z</time>
      </trkpt>
      <trkpt lat="49.33065" lon="3.33355">
        <ele>99.8</ele>
        <time>2025-10-20T12:48:54.000Z</time>
      </trkpt>
      <trkpt lat="49.33065" lon="3.33354">
        <ele>99.8</ele>
        <time>2025-10-20T12:48:55.000Z</time>
      </trkpt>
      <trkpt lat="49.33063" lon="3.33352">
        <ele>99.7</ele>
        <time>2025-10-20T12:48:56.000Z</time>
      </trkpt>
      <trkpt lat="49.33062" lon="3.33351">
        <ele>99.4</ele>
        <time>2025-10-20T12:48:57.000Z</time>
      </trkpt>
      <trkpt lat="49.33061" lon="3.33349">
        <ele>99</ele>
        <time>2025-10-20T12:48:58.000Z</time>
      </trkpt>
      <trkpt lat="49.3306" lon="3.33348">
        <ele>98.9</ele>
        <time>2025-10-20T12:48:59.000Z</time>
      </trkpt>
      <trkpt lat="49.33059" lon="3.33346">
        <ele>98.8</ele>
        <time>2025-10-20T12:49:00.000Z</time>
      </trkpt>
      <trkpt lat="49.33057" lon="3.33345">
        <ele>98.6</ele>
        <time>2025-10-20T12:49:01.000Z</time>
      </trkpt>
      <trkpt lat="49.33056" lon="3.33343">
        <ele>98.5</ele>
        <time>2025-10-20T12:49:02.000Z</time>
      </trkpt>
      <trkpt lat="49.33055" lon="3.33342">
        <ele>98.4</ele>
        <time>2025-10-20T12:49:03.000Z</time>
      </trkpt>
      <trkpt lat="49.33054" lon="3.33341">
        <ele>98.3</ele>
        <time>2025-10-20T12:49:04.000Z</time>
      </trkpt>
      <trkpt lat="49.33053" lon="3.3334">
        <ele>98.2</ele>
        <time>2025-10-20T12:49:05.000Z</time>
      </trkpt>
      <trkpt lat="49.33052" lon="3.33339">
        <ele>98</ele>
        <time>2025-10-20T12:49:06.000Z</time>
      </trkpt>
      <trkpt lat="49.33051" lon="3.33338">
        <ele>98.1</ele>
        <time>2025-10-20T12:49:07.000Z</time>
      </trkpt>
      <trkpt lat="49.3305" lon="3.33337">
        <ele>98.1</ele>
        <time>2025-10-20T12:49:08.000Z</time>
      </trkpt>
      <trkpt lat="49.3305" lon="3.33336">
        <ele>97.8</ele>
        <time>2025-10-20T12:49:09.000Z</time>
      </trkpt>
      <trkpt lat="49.33049" lon="3.33335">
        <ele>97.8</ele>
        <time>2025-10-20T12:49:10.000Z</time>
      </trkpt>
      <trkpt lat="49.33048" lon="3.33334">
        <ele>97.9</ele>
        <time>2025-10-20T12:49:11.000Z</time>
      </trkpt>
      <trkpt lat="49.33047" lon="3.33332">
        <ele>98.2</ele>
        <time>2025-10-20T12:49:12.000Z</time>
      </trkpt>
      <trkpt lat="49.33046" lon="3.33331">
        <ele>98.2</ele>
        <time>2025-10-20T12:49:13.000Z</time>
      </trkpt>
      <trkpt lat="49.33045" lon="3.33329">
        <ele>98.2</ele>
        <time>2025-10-20T12:49:14.000Z</time>
      </trkpt>
      <trkpt lat="49.33044" lon="3.33328">
        <ele>97.9</ele>
        <time>2025-10-20T12:49:15.000Z</time>
      </trkpt>
      <trkpt lat="49.33043" lon="3.33326">
        <ele>97.8</ele>
        <time>2025-10-20T12:49:16.000Z</time>
      </trkpt>
      <trkpt lat="49.33041" lon="3.33325">
        <ele>97.8</ele>
        <time>2025-10-20T12:49:17.000Z</time>
      </trkpt>
      <trkpt lat="49.3304" lon="3.33324">
        <ele>97.9</ele>
        <time>2025-10-20T12:49:18.000Z</time>
      </trkpt>
      <trkpt lat="49.33039" lon="3.33323">
        <ele>98.2</ele>
        <time>2025-10-20T12:49:19.000Z</time>
      </trkpt>
      <trkpt lat="49.33038" lon="3.33321">
        <ele>98.4</ele>
        <time>2025-10-20T12:49:20.000Z</time>
      </trkpt>
      <trkpt lat="49.33037" lon="3.33319">
        <ele>98.3</ele>
        <time>2025-10-20T12:49:21.000Z</time>
      </trkpt>
      <trkpt lat="49.33035" lon="3.33317">
        <ele>98.5</ele>
        <time>2025-10-20T12:49:22.000Z</time>
      </trkpt>
      <trkpt lat="49.33034" lon="3.33315">
        <ele>98.5</ele>
        <time>2025-10-20T12:49:23.000Z</time>
      </trkpt>
      <trkpt lat="49.33033" lon="3.33313">
        <ele>98.4</ele>
        <time>2025-10-20T12:49:24.000Z</time>
      </trkpt>
      <trkpt lat="49.33033" lon="3.33311">
        <ele>98.4</ele>
        <time>2025-10-20T12:49:25.000Z</time>
      </trkpt>
      <trkpt lat="49.33032" lon="3.3331">
        <ele>98.2</ele>
        <time>2025-10-20T12:49:26.000Z</time>
      </trkpt>
      <trkpt lat="49.3303" lon="3.33308">
        <ele>98.2</ele>
        <time>2025-10-20T12:49:27.000Z</time>
      </trkpt>
      <trkpt lat="49.33029" lon="3.33307">
        <ele>98.1</ele>
        <time>2025-10-20T12:49:28.000Z</time>
      </trkpt>
      <trkpt lat="49.33028" lon="3.33306">
        <ele>98</ele>
        <time>2025-10-20T12:49:29.000Z</time>
      </trkpt>
      <trkpt lat="49.33027" lon="3.33304">
        <ele>97.9</ele>
        <time>2025-10-20T12:49:30.000Z</time>
      </trkpt>
      <trkpt lat="49.33026" lon="3.33302">
        <ele>97.4</ele>
        <time>2025-10-20T12:49:31.000Z</time>
      </trkpt>
      <trkpt lat="49.33025" lon="3.333">
        <ele>97.1</ele>
        <time>2025-10-20T12:49:32.000Z</time>
      </trkpt>
      <trkpt lat="49.33024" lon="3.33299">
        <ele>97.1</ele>
        <time>2025-10-20T12:49:33.000Z</time>
      </trkpt>
      <trkpt lat="49.33023" lon="3.33297">
        <ele>97.3</ele>
        <time>2025-10-20T12:49:34.000Z</time>
      </trkpt>
      <trkpt lat="49.33021" lon="3.33297">
        <ele>97.5</ele>
        <time>2025-10-20T12:49:35.000Z</time>
      </trkpt>
      <trkpt lat="49.3302" lon="3.33297">
        <ele>97.4</ele>
        <time>2025-10-20T12:49:36.000Z</time>
      </trkpt>
      <trkpt lat="49.33019" lon="3.33297">
        <ele>97.4</ele>
        <time>2025-10-20T12:49:37.000Z</time>
      </trkpt>
      <trkpt lat="49.33018" lon="3.33297">
        <ele>97.6</ele>
        <time>2025-10-20T12:49:38.000Z</time>
      </trkpt>
      <trkpt lat="49.33016" lon="3.33297">
        <ele>97.8</ele>
        <time>2025-10-20T12:49:39.000Z</time>
      </trkpt>
      <trkpt lat="49.33015" lon="3.33296">
        <ele>97.9</ele>
        <time>2025-10-20T12:49:40.000Z</time>
      </trkpt>
      <trkpt lat="49.33013" lon="3.33296">
        <ele>98.1</ele>
        <time>2025-10-20T12:49:41.000Z</time>
      </trkpt>
      <trkpt lat="49.33011" lon="3.33295">
        <ele>98</ele>
        <time>2025-10-20T12:49:42.000Z</time>
      </trkpt>
      <trkpt lat="49.33009" lon="3.33294">
        <ele>97.9</ele>
        <time>2025-10-20T12:49:43.000Z</time>
      </trkpt>
      <trkpt lat="49.33008" lon="3.33293">
        <ele>98.1</ele>
        <time>2025-10-20T12:49:44.000Z</time>
      </trkpt>
      <trkpt lat="49.33006" lon="3.33292">
        <ele>98.3</ele>
        <time>2025-10-20T12:49:45.000Z</time>
      </trkpt>
      <trkpt lat="49.33005" lon="3.33292">
        <ele>98.4</ele>
        <time>2025-10-20T12:49:46.000Z</time>
      </trkpt>
      <trkpt lat="49.33004" lon="3.33291">
        <ele>98.6</ele>
        <time>2025-10-20T12:49:47.000Z</time>
      </trkpt>
      <trkpt lat="49.33004" lon="3.3329">
        <ele>99.1</ele>
        <time>2025-10-20T12:49:48.000Z</time>
      </trkpt>
      <trkpt lat="49.33003" lon="3.33288">
        <ele>99.4</ele>
        <time>2025-10-20T12:49:49.000Z</time>
      </trkpt>
      <trkpt lat="49.33003" lon="3.33286">
        <ele>99.8</ele>
        <time>2025-10-20T12:49:50.000Z</time>
      </trkpt>
      <trkpt lat="49.33002" lon="3.33283">
        <ele>100.2</ele>
        <time>2025-10-20T12:49:51.000Z</time>
      </trkpt>
      <trkpt lat="49.33002" lon="3.33282">
        <ele>100.8</ele>
        <time>2025-10-20T12:49:52.000Z</time>
      </trkpt>
      <trkpt lat="49.33001" lon="3.3328">
        <ele>101.5</ele>
        <time>2025-10-20T12:49:53.000Z</time>
      </trkpt>
      <trkpt lat="49.33001" lon="3.3328">
        <ele>102</ele>
        <time>2025-10-20T12:49:54.000Z</time>
      </trkpt>
      <trkpt lat="49.33" lon="3.33278">
        <ele>102.3</ele>
        <time>2025-10-20T12:49:55.000Z</time>
      </trkpt>
      <trkpt lat="49.32999" lon="3.33275">
        <ele>102.4</ele>
        <time>2025-10-20T12:49:56.000Z</time>
      </trkpt>
      <trkpt lat="49.32998" lon="3.33274">
        <ele>102.5</ele>
        <time>2025-10-20T12:49:57.000Z</time>
      </trkpt>
      <trkpt lat="49.32997" lon="3.33272">
        <ele>102.6</ele>
        <time>2025-10-20T12:49:58.000Z</time>
      </trkpt>
      <trkpt lat="49.32996" lon="3.3327">
        <ele>102.7</ele>
        <time>2025-10-20T12:49:59.000Z</time>
      </trkpt>
      <trkpt lat="49.32995" lon="3.33268">
        <ele>102.4</ele>
        <time>2025-10-20T12:50:00.000Z</time>
      </trkpt>
      <trkpt lat="49.32993" lon="3.33266">
        <ele>102.1</ele>
        <time>2025-10-20T12:50:01.000Z</time>
      </trkpt>
      <trkpt lat="49.32992" lon="3.33264">
        <ele>102</ele>
        <time>2025-10-20T12:50:02.000Z</time>
      </trkpt>
      <trkpt lat="49.32991" lon="3.33262">
        <ele>101.6</ele>
        <time>2025-10-20T12:50:03.000Z</time>
      </trkpt>
      <trkpt lat="49.3299" lon="3.33261">
        <ele>101.4</ele>
        <time>2025-10-20T12:50:04.000Z</time>
      </trkpt>
      <trkpt lat="49.32989" lon="3.3326">
        <ele>101.2</ele>
        <time>2025-10-20T12:50:05.000Z</time>
      </trkpt>
      <trkpt lat="49.32988" lon="3.33258">
        <ele>101.6</ele>
        <time>2025-10-20T12:50:06.000Z</time>
      </trkpt>
      <trkpt lat="49.32988" lon="3.33257">
        <ele>101.8</ele>
        <time>2025-10-20T12:50:07.000Z</time>
      </trkpt>
      <trkpt lat="49.32987" lon="3.33255">
        <ele>102.1</ele>
        <time>2025-10-20T12:50:08.000Z</time>
      </trkpt>
      <trkpt lat="49.32986" lon="3.33253">
        <ele>102.5</ele>
        <time>2025-10-20T12:50:09.000Z</time>
      </trkpt>
      <trkpt lat="49.32986" lon="3.33252">
        <ele>102.5</ele>
        <time>2025-10-20T12:50:10.000Z</time>
      </trkpt>
      <trkpt lat="49.32985" lon="3.33251">
        <ele>102.8</ele>
        <time>2025-10-20T12:50:11.000Z</time>
      </trkpt>
      <trkpt lat="49.32984" lon="3.3325">
        <ele>102.8</ele>
        <time>2025-10-20T12:50:12.000Z</time>
      </trkpt>
      <trkpt lat="49.32983" lon="3.33248">
        <ele>102.9</ele>
        <time>2025-10-20T12:50:13.000Z</time>
      </trkpt>
      <trkpt lat="49.32982" lon="3.33247">
        <ele>103</ele>
        <time>2025-10-20T12:50:14.000Z</time>
      </trkpt>
      <trkpt lat="49.32981" lon="3.33246">
        <ele>103.1</ele>
        <time>2025-10-20T12:50:15.000Z</time>
      </trkpt>
      <trkpt lat="49.3298" lon="3.33244">
        <ele>103.4</ele>
        <time>2025-10-20T12:50:16.000Z</time>
      </trkpt>
      <trkpt lat="49.32979" lon="3.33242">
        <ele>103.5</ele>
        <time>2025-10-20T12:50:17.000Z</time>
      </trkpt>
      <trkpt lat="49.32977" lon="3.33241">
        <ele>103.7</ele>
        <time>2025-10-20T12:50:18.000Z</time>
      </trkpt>
      <trkpt lat="49.32976" lon="3.33239">
        <ele>103.8</ele>
        <time>2025-10-20T12:50:19.000Z</time>
      </trkpt>
      <trkpt lat="49.32975" lon="3.33238">
        <ele>103.8</ele>
        <time>2025-10-20T12:50:20.000Z</time>
      </trkpt>
      <trkpt lat="49.32975" lon="3.33236">
        <ele>103.7</ele>
        <time>2025-10-20T12:50:21.000Z</time>
      </trkpt>
      <trkpt lat="49.32974" lon="3.33235">
        <ele>103.7</ele>
        <time>2025-10-20T12:50:22.000Z</time>
      </trkpt>
      <trkpt lat="49.32973" lon="3.33233">
        <ele>103.9</ele>
        <time>2025-10-20T12:50:23.000Z</time>
      </trkpt>
      <trkpt lat="49.32972" lon="3.33232">
        <ele>104.2</ele>
        <time>2025-10-20T12:50:24.000Z</time>
      </trkpt>
      <trkpt lat="49.32971" lon="3.3323">
        <ele>104.3</ele>
        <time>2025-10-20T12:50:25.000Z</time>
      </trkpt>
      <trkpt lat="49.3297" lon="3.33229">
        <ele>104.6</ele>
        <time>2025-10-20T12:50:26.000Z</time>
      </trkpt>
      <trkpt lat="49.3297" lon="3.33228">
        <ele>104.7</ele>
        <time>2025-10-20T12:50:27.000Z</time>
      </trkpt>
      <trkpt lat="49.32969" lon="3.33227">
        <ele>104.9</ele>
        <time>2025-10-20T12:50:28.000Z</time>
      </trkpt>
      <trkpt lat="49.32967" lon="3.33225">
        <ele>105</ele>
        <time>2025-10-20T12:50:29.000Z</time>
      </trkpt>
      <trkpt lat="49.32966" lon="3.33223">
        <ele>104.7</ele>
        <time>2025-10-20T12:50:30.000Z</time>
      </trkpt>
      <trkpt lat="49.32964" lon="3.33221">
        <ele>104.5</ele>
        <time>2025-10-20T12:50:31.000Z</time>
      </trkpt>
      <trkpt lat="49.32963" lon="3.3322">
        <ele>104.4</ele>
        <time>2025-10-20T12:50:32.000Z</time>
      </trkpt>
      <trkpt lat="49.32961" lon="3.33219">
        <ele>104.7</ele>
        <time>2025-10-20T12:50:33.000Z</time>
      </trkpt>
      <trkpt lat="49.3296" lon="3.33218">
        <ele>105.1</ele>
        <time>2025-10-20T12:50:34.000Z</time>
      </trkpt>
      <trkpt lat="49.32959" lon="3.33216">
        <ele>105.8</ele>
        <time>2025-10-20T12:50:35.000Z</time>
      </trkpt>
      <trkpt lat="49.32958" lon="3.33214">
        <ele>106</ele>
        <time>2025-10-20T12:50:36.000Z</time>
      </trkpt>
      <trkpt lat="49.32957" lon="3.33213">
        <ele>106</ele>
        <time>2025-10-20T12:50:37.000Z</time>
      </trkpt>
      <trkpt lat="49.32956" lon="3.33212">
        <ele>105.8</ele>
        <time>2025-10-20T12:50:38.000Z</time>
      </trkpt>
      <trkpt lat="49.32955" lon="3.3321">
        <ele>105.4</ele>
        <time>2025-10-20T12:50:39.000Z</time>
      </trkpt>
      <trkpt lat="49.32954" lon="3.33208">
        <ele>105.3</ele>
        <time>2025-10-20T12:50:40.000Z</time>
      </trkpt>
      <trkpt lat="49.32953" lon="3.33207">
        <ele>105.2</ele>
        <time>2025-10-20T12:50:41.000Z</time>
      </trkpt>
      <trkpt lat="49.32952" lon="3.33205">
        <ele>105.3</ele>
        <time>2025-10-20T12:50:42.000Z</time>
      </trkpt>
      <trkpt lat="49.32951" lon="3.33204">
        <ele>105.6</ele>
        <time>2025-10-20T12:50:43.000Z</time>
      </trkpt>
      <trkpt lat="49.32949" lon="3.33204">
        <ele>105.7</ele>
        <time>2025-10-20T12:50:44.000Z</time>
      </trkpt>
      <trkpt lat="49.32948" lon="3.33204">
        <ele>106</ele>
        <time>2025-10-20T12:50:45.000Z</time>
      </trkpt>
      <trkpt lat="49.32947" lon="3.33204">
        <ele>106.3</ele>
        <time>2025-10-20T12:50:46.000Z</time>
      </trkpt>
      <trkpt lat="49.32945" lon="3.33203">
        <ele>106.6</ele>
        <time>2025-10-20T12:50:47.000Z</time>
      </trkpt>
      <trkpt lat="49.32943" lon="3.33202">
        <ele>106.7</ele>
        <time>2025-10-20T12:50:48.000Z</time>
      </trkpt>
      <trkpt lat="49.32941" lon="3.332">
        <ele>106</ele>
        <time>2025-10-20T12:50:49.000Z</time>
      </trkpt>
      <trkpt lat="49.3294" lon="3.33198">
        <ele>105.5</ele>
        <time>2025-10-20T12:50:50.000Z</time>
      </trkpt>
      <trkpt lat="49.32939" lon="3.33197">
        <ele>105</ele>
        <time>2025-10-20T12:50:51.000Z</time>
      </trkpt>
      <trkpt lat="49.32938" lon="3.33196">
        <ele>104.8</ele>
        <time>2025-10-20T12:50:52.000Z</time>
      </trkpt>
      <trkpt lat="49.32936" lon="3.33195">
        <ele>104.2</ele>
        <time>2025-10-20T12:50:53.000Z</time>
      </trkpt>
      <trkpt lat="49.32935" lon="3.33193">
        <ele>103.7</ele>
        <time>2025-10-20T12:50:54.000Z</time>
      </trkpt>
      <trkpt lat="49.32934" lon="3.33191">
        <ele>103.4</ele>
        <time>2025-10-20T12:50:55.000Z</time>
      </trkpt>
      <trkpt lat="49.32933" lon="3.3319">
        <ele>103</ele>
        <time>2025-10-20T12:50:56.000Z</time>
      </trkpt>
      <trkpt lat="49.32932" lon="3.33188">
        <ele>102.9</ele>
        <time>2025-10-20T12:50:57.000Z</time>
      </trkpt>
      <trkpt lat="49.32931" lon="3.33187">
        <ele>102.7</ele>
        <time>2025-10-20T12:50:58.000Z</time>
      </trkpt>
      <trkpt lat="49.3293" lon="3.33186">
        <ele>102.6</ele>
        <time>2025-10-20T12:50:59.000Z</time>
      </trkpt>
      <trkpt lat="49.32929" lon="3.33185">
        <ele>103</ele>
        <time>2025-10-20T12:51:00.000Z</time>
      </trkpt>
      <trkpt lat="49.32928" lon="3.33183">
        <ele>103.1</ele>
        <time>2025-10-20T12:51:01.000Z</time>
      </trkpt>
      <trkpt lat="49.32926" lon="3.33182">
        <ele>102.7</ele>
        <time>2025-10-20T12:51:02.000Z</time>
      </trkpt>
      <trkpt lat="49.32924" lon="3.3318">
        <ele>102.3</ele>
        <time>2025-10-20T12:51:03.000Z</time>
      </trkpt>
      <trkpt lat="49.32923" lon="3.33179">
        <ele>102.2</ele>
        <time>2025-10-20T12:51:04.000Z</time>
      </trkpt>
      <trkpt lat="49.32922" lon="3.33177">
        <ele>102.1</ele>
        <time>2025-10-20T12:51:05.000Z</time>
      </trkpt>
      <trkpt lat="49.32921" lon="3.33176">
        <ele>102.2</ele>
        <time>2025-10-20T12:51:06.000Z</time>
      </trkpt>
      <trkpt lat="49.32919" lon="3.33175">
        <ele>102.1</ele>
        <time>2025-10-20T12:51:07.000Z</time>
      </trkpt>
      <trkpt lat="49.32918" lon="3.33174">
        <ele>102.1</ele>
        <time>2025-10-20T12:51:08.000Z</time>
      </trkpt>
      <trkpt lat="49.32916" lon="3.33173">
        <ele>102.1</ele>
        <time>2025-10-20T12:51:09.000Z</time>
      </trkpt>
      <trkpt lat="49.32915" lon="3.33171">
        <ele>101.8</ele>
        <time>2025-10-20T12:51:10.000Z</time>
      </trkpt>
      <trkpt lat="49.32913" lon="3.3317">
        <ele>101.8</ele>
        <time>2025-10-20T12:51:11.000Z</time>
      </trkpt>
      <trkpt lat="49.32912" lon="3.33168">
        <ele>101.8</ele>
        <time>2025-10-20T12:51:12.000Z</time>
      </trkpt>
      <trkpt lat="49.32911" lon="3.33167">
        <ele>101.9</ele>
        <time>2025-10-20T12:51:13.000Z</time>
      </trkpt>
      <trkpt lat="49.32909" lon="3.33167">
        <ele>101.8</ele>
        <time>2025-10-20T12:51:14.000Z</time>
      </trkpt>
      <trkpt lat="49.32908" lon="3.33167">
        <ele>101.7</ele>
        <time>2025-10-20T12:51:15.000Z</time>
      </trkpt>
      <trkpt lat="49.32907" lon="3.33166">
        <ele>101.8</ele>
        <time>2025-10-20T12:51:16.000Z</time>
      </trkpt>
      <trkpt lat="49.32906" lon="3.33165">
        <ele>101.9</ele>
        <time>2025-10-20T12:51:17.000Z</time>
      </trkpt>
      <trkpt lat="49.32905" lon="3.33164">
        <ele>102.1</ele>
        <time>2025-10-20T12:51:18.000Z</time>
      </trkpt>
      <trkpt lat="49.32904" lon="3.33163">
        <ele>102.4</ele>
        <time>2025-10-20T12:51:19.000Z</time>
      </trkpt>
      <trkpt lat="49.32902" lon="3.33162">
        <ele>102.5</ele>
        <time>2025-10-20T12:51:20.000Z</time>
      </trkpt>
      <trkpt lat="49.32901" lon="3.33161">
        <ele>102.6</ele>
        <time>2025-10-20T12:51:21.000Z</time>
      </trkpt>
      <trkpt lat="49.32899" lon="3.33159">
        <ele>102.7</ele>
        <time>2025-10-20T12:51:22.000Z</time>
      </trkpt>
      <trkpt lat="49.32898" lon="3.33158">
        <ele>102.8</ele>
        <time>2025-10-20T12:51:23.000Z</time>
      </trkpt>
      <trkpt lat="49.32896" lon="3.33156">
        <ele>102.9</ele>
        <time>2025-10-20T12:51:24.000Z</time>
      </trkpt>
      <trkpt lat="49.32895" lon="3.33155">
        <ele>103.2</ele>
        <time>2025-10-20T12:51:25.000Z</time>
      </trkpt>
      <trkpt lat="49.32894" lon="3.33153">
        <ele>103.6</ele>
        <time>2025-10-20T12:51:26.000Z</time>
      </trkpt>
      <trkpt lat="49.32892" lon="3.33152">
        <ele>103.6</ele>
        <time>2025-10-20T12:51:27.000Z</time>
      </trkpt>
      <trkpt lat="49.32891" lon="3.3315">
        <ele>103.5</ele>
        <time>2025-10-20T12:51:28.000Z</time>
      </trkpt>
      <trkpt lat="49.3289" lon="3.33149">
        <ele>103.4</ele>
        <time>2025-10-20T12:51:29.000Z</time>
      </trkpt>
      <trkpt lat="49.32888" lon="3.33147">
        <ele>103.4</ele>
        <time>2025-10-20T12:51:30.000Z</time>
      </trkpt>
      <trkpt lat="49.32887" lon="3.33146">
        <ele>103.3</ele>
        <time>2025-10-20T12:51:31.000Z</time>
      </trkpt>
      <trkpt lat="49.32885" lon="3.33145">
        <ele>103.2</ele>
        <time>2025-10-20T12:51:32.000Z</time>
      </trkpt>
      <trkpt lat="49.32884" lon="3.33144">
        <ele>103.1</ele>
        <time>2025-10-20T12:51:33.000Z</time>
      </trkpt>
      <trkpt lat="49.32883" lon="3.33143">
        <ele>102.8</ele>
        <time>2025-10-20T12:51:34.000Z</time>
      </trkpt>
      <trkpt lat="49.32882" lon="3.33143">
        <ele>102.7</ele>
        <time>2025-10-20T12:51:35.000Z</time>
      </trkpt>
      <trkpt lat="49.32882" lon="3.33141">
        <ele>103</ele>
        <time>2025-10-20T12:51:36.000Z</time>
      </trkpt>
      <trkpt lat="49.32882" lon="3.33141">
        <ele>103.3</ele>
        <time>2025-10-20T12:51:37.000Z</time>
      </trkpt>
      <trkpt lat="49.32881" lon="3.3314">
        <ele>104.1</ele>
        <time>2025-10-20T12:51:38.000Z</time>
      </trkpt>
      <trkpt lat="49.3288" lon="3.3314">
        <ele>104.5</ele>
        <time>2025-10-20T12:51:39.000Z</time>
      </trkpt>
      <trkpt lat="49.32879" lon="3.33141">
        <ele>105</ele>
        <time>2025-10-20T12:51:40.000Z</time>
      </trkpt>
      <trkpt lat="49.32879" lon="3.3314">
        <ele>105</ele>
        <time>2025-10-20T12:51:41.000Z</time>
      </trkpt>
      <trkpt lat="49.32879" lon="3.3314">
        <ele>105.4</ele>
        <time>2025-10-20T12:51:42.000Z</time>
      </trkpt>
      <trkpt lat="49.32878" lon="3.3314">
        <ele>105.5</ele>
        <time>2025-10-20T12:51:43.000Z</time>
      </trkpt>
      <trkpt lat="49.32877" lon="3.33139">
        <ele>105.7</ele>
        <time>2025-10-20T12:51:44.000Z</time>
      </trkpt>
      <trkpt lat="49.32875" lon="3.33138">
        <ele>105.8</ele>
        <time>2025-10-20T12:51:45.000Z</time>
      </trkpt>
      <trkpt lat="49.32874" lon="3.33136">
        <ele>106.2</ele>
        <time>2025-10-20T12:51:46.000Z</time>
      </trkpt>
      <trkpt lat="49.32872" lon="3.33134">
        <ele>106.2</ele>
        <time>2025-10-20T12:51:47.000Z</time>
      </trkpt>
      <trkpt lat="49.3287" lon="3.33133">
        <ele>106</ele>
        <time>2025-10-20T12:51:48.000Z</time>
      </trkpt>
      <trkpt lat="49.32868" lon="3.33131">
        <ele>105.6</ele>
        <time>2025-10-20T12:51:49.000Z</time>
      </trkpt>
      <trkpt lat="49.32866" lon="3.33129">
        <ele>105</ele>
        <time>2025-10-20T12:51:50.000Z</time>
      </trkpt>
      <trkpt lat="49.32864" lon="3.33128">
        <ele>104.6</ele>
        <time>2025-10-20T12:51:51.000Z</time>
      </trkpt>
      <trkpt lat="49.32861" lon="3.33127">
        <ele>104.6</ele>
        <time>2025-10-20T12:51:52.000Z</time>
      </trkpt>
      <trkpt lat="49.3286" lon="3.33126">
        <ele>104.4</ele>
        <time>2025-10-20T12:51:53.000Z</time>
      </trkpt>
      <trkpt lat="49.32858" lon="3.33124">
        <ele>104.4</ele>
        <time>2025-10-20T12:51:54.000Z</time>
      </trkpt>
      <trkpt lat="49.32857" lon="3.33123">
        <ele>104.6</ele>
        <time>2025-10-20T12:51:55.000Z</time>
      </trkpt>
      <trkpt lat="49.32856" lon="3.33122">
        <ele>104.6</ele>
        <time>2025-10-20T12:51:56.000Z</time>
      </trkpt>
      <trkpt lat="49.32855" lon="3.33121">
        <ele>104.9</ele>
        <time>2025-10-20T12:51:57.000Z</time>
      </trkpt>
      <trkpt lat="49.32854" lon="3.33121">
        <ele>105.2</ele>
        <time>2025-10-20T12:51:58.000Z</time>
      </trkpt>
      <trkpt lat="49.32852" lon="3.3312">
        <ele>105.2</ele>
        <time>2025-10-20T12:51:59.000Z</time>
      </trkpt>
      <trkpt lat="49.32851" lon="3.3312">
        <ele>105.2</ele>
        <time>2025-10-20T12:52:00.000Z</time>
      </trkpt>
      <trkpt lat="49.32849" lon="3.33118">
        <ele>105.3</ele>
        <time>2025-10-20T12:52:01.000Z</time>
      </trkpt>
      <trkpt lat="49.32848" lon="3.33117">
        <ele>105.4</ele>
        <time>2025-10-20T12:52:02.000Z</time>
      </trkpt>
      <trkpt lat="49.32846" lon="3.33117">
        <ele>105.3</ele>
        <time>2025-10-20T12:52:03.000Z</time>
      </trkpt>
      <trkpt lat="49.32844" lon="3.33116">
        <ele>105.3</ele>
        <time>2025-10-20T12:52:04.000Z</time>
      </trkpt>
      <trkpt lat="49.32843" lon="3.33114">
        <ele>105.3</ele>
        <time>2025-10-20T12:52:05.000Z</time>
      </trkpt>
      <trkpt lat="49.32842" lon="3.33113">
        <ele>105.6</ele>
        <time>2025-10-20T12:52:06.000Z</time>
      </trkpt>
      <trkpt lat="49.32841" lon="3.33112">
        <ele>105.8</ele>
        <time>2025-10-20T12:52:07.000Z</time>
      </trkpt>
      <trkpt lat="49.32839" lon="3.33111">
        <ele>106.1</ele>
        <time>2025-10-20T12:52:08.000Z</time>
      </trkpt>
      <trkpt lat="49.32838" lon="3.33111">
        <ele>106.3</ele>
        <time>2025-10-20T12:52:09.000Z</time>
      </trkpt>
      <trkpt lat="49.32836" lon="3.3311">
        <ele>106.5</ele>
        <time>2025-10-20T12:52:10.000Z</time>
      </trkpt>
      <trkpt lat="49.32835" lon="3.33108">
        <ele>106.7</ele>
        <time>2025-10-20T12:52:11.000Z</time>
      </trkpt>
      <trkpt lat="49.32834" lon="3.33107">
        <ele>107.3</ele>
        <time>2025-10-20T12:52:12.000Z</time>
      </trkpt>
      <trkpt lat="49.32832" lon="3.33105">
        <ele>107.2</ele>
        <time>2025-10-20T12:52:13.000Z</time>
      </trkpt>
      <trkpt lat="49.32831" lon="3.33104">
        <ele>106.9</ele>
        <time>2025-10-20T12:52:14.000Z</time>
      </trkpt>
      <trkpt lat="49.32829" lon="3.33103">
        <ele>106.9</ele>
        <time>2025-10-20T12:52:15.000Z</time>
      </trkpt>
      <trkpt lat="49.32828" lon="3.33102">
        <ele>106.8</ele>
        <time>2025-10-20T12:52:16.000Z</time>
      </trkpt>
      <trkpt lat="49.32826" lon="3.33101">
        <ele>106.8</ele>
        <time>2025-10-20T12:52:17.000Z</time>
      </trkpt>
      <trkpt lat="49.32825" lon="3.331">
        <ele>106.8</ele>
        <time>2025-10-20T12:52:18.000Z</time>
      </trkpt>
      <trkpt lat="49.32823" lon="3.33099">
        <ele>106.9</ele>
        <time>2025-10-20T12:52:19.000Z</time>
      </trkpt>
      <trkpt lat="49.32822" lon="3.33099">
        <ele>107.2</ele>
        <time>2025-10-20T12:52:20.000Z</time>
      </trkpt>
      <trkpt lat="49.32821" lon="3.33098">
        <ele>107.8</ele>
        <time>2025-10-20T12:52:21.000Z</time>
      </trkpt>
      <trkpt lat="49.3282" lon="3.33096">
        <ele>108.3</ele>
        <time>2025-10-20T12:52:22.000Z</time>
      </trkpt>
      <trkpt lat="49.32819" lon="3.33095">
        <ele>108.7</ele>
        <time>2025-10-20T12:52:23.000Z</time>
      </trkpt>
      <trkpt lat="49.32818" lon="3.33094">
        <ele>108.9</ele>
        <time>2025-10-20T12:52:24.000Z</time>
      </trkpt>
      <trkpt lat="49.32816" lon="3.33093">
        <ele>109.5</ele>
        <time>2025-10-20T12:52:25.000Z</time>
      </trkpt>
      <trkpt lat="49.32815" lon="3.33092">
        <ele>110.1</ele>
        <time>2025-10-20T12:52:26.000Z</time>
      </trkpt>
      <trkpt lat="49.32814" lon="3.33092">
        <ele>110.9</ele>
        <time>2025-10-20T12:52:27.000Z</time>
      </trkpt>
      <trkpt lat="49.32813" lon="3.33091">
        <ele>111.6</ele>
        <time>2025-10-20T12:52:28.000Z</time>
      </trkpt>
      <trkpt lat="49.32811" lon="3.3309">
        <ele>112.6</ele>
        <time>2025-10-20T12:52:29.000Z</time>
      </trkpt>
      <trkpt lat="49.3281" lon="3.3309">
        <ele>113.4</ele>
        <time>2025-10-20T12:52:30.000Z</time>
      </trkpt>
      <trkpt lat="49.32809" lon="3.33088">
        <ele>114</ele>
        <time>2025-10-20T12:52:31.000Z</time>
      </trkpt>
      <trkpt lat="49.32807" lon="3.33086">
        <ele>114.4</ele>
        <time>2025-10-20T12:52:32.000Z</time>
      </trkpt>
      <trkpt lat="49.32806" lon="3.33084">
        <ele>114.1</ele>
        <time>2025-10-20T12:52:33.000Z</time>
      </trkpt>
      <trkpt lat="49.32805" lon="3.33082">
        <ele>113.7</ele>
        <time>2025-10-20T12:52:34.000Z</time>
      </trkpt>
      <trkpt lat="49.32805" lon="3.33079">
        <ele>112.7</ele>
        <time>2025-10-20T12:52:35.000Z</time>
      </trkpt>
      <trkpt lat="49.32805" lon="3.33077">
        <ele>112.3</ele>
        <time>2025-10-20T12:52:36.000Z</time>
      </trkpt>
      <trkpt lat="49.32804" lon="3.33076">
        <ele>112.1</ele>
        <time>2025-10-20T12:52:37.000Z</time>
      </trkpt>
      <trkpt lat="49.32803" lon="3.33076">
        <ele>112.1</ele>
        <time>2025-10-20T12:52:38.000Z</time>
      </trkpt>
      <trkpt lat="49.32803" lon="3.33076">
        <ele>111.9</ele>
        <time>2025-10-20T12:52:39.000Z</time>
      </trkpt>
      <trkpt lat="49.32802" lon="3.33076">
        <ele>111.8</ele>
        <time>2025-10-20T12:52:40.000Z</time>
      </trkpt>
      <trkpt lat="49.32802" lon="3.33075">
        <ele>111.2</ele>
        <time>2025-10-20T12:52:41.000Z</time>
      </trkpt>
      <trkpt lat="49.32801" lon="3.33075">
        <ele>110.9</ele>
        <time>2025-10-20T12:52:42.000Z</time>
      </trkpt>
      <trkpt lat="49.328" lon="3.33075">
        <ele>110.5</ele>
        <time>2025-10-20T12:52:43.000Z</time>
      </trkpt>
      <trkpt lat="49.328" lon="3.33074">
        <ele>110</ele>
        <time>2025-10-20T12:52:44.000Z</time>
      </trkpt>
      <trkpt lat="49.328" lon="3.33074">
        <ele>109.7</ele>
        <time>2025-10-20T12:52:45.000Z</time>
      </trkpt>
      <trkpt lat="49.32799" lon="3.33074">
        <ele>109.6</ele>
        <time>2025-10-20T12:52:46.000Z</time>
      </trkpt>
      <trkpt lat="49.32798" lon="3.33073">
        <ele>109.2</ele>
        <time>2025-10-20T12:52:47.000Z</time>
      </trkpt>
      <trkpt lat="49.32797" lon="3.33073">
        <ele>108.9</ele>
        <time>2025-10-20T12:52:48.000Z</time>
      </trkpt>
      <trkpt lat="49.32796" lon="3.33072">
        <ele>108.7</ele>
        <time>2025-10-20T12:52:49.000Z</time>
      </trkpt>
      <trkpt lat="49.32794" lon="3.33072">
        <ele>108.7</ele>
        <time>2025-10-20T12:52:50.000Z</time>
      </trkpt>
      <trkpt lat="49.32793" lon="3.33072">
        <ele>108.6</ele>
        <time>2025-10-20T12:52:51.000Z</time>
      </trkpt>
      <trkpt lat="49.32791" lon="3.33073">
        <ele>108</ele>
        <time>2025-10-20T12:52:52.000Z</time>
      </trkpt>
      <trkpt lat="49.3279" lon="3.33073">
        <ele>107.5</ele>
        <time>2025-10-20T12:52:53.000Z</time>
      </trkpt>
      <trkpt lat="49.32788" lon="3.33073">
        <ele>107.1</ele>
        <time>2025-10-20T12:52:54.000Z</time>
      </trkpt>
      <trkpt lat="49.32787" lon="3.33074">
        <ele>106.8</ele>
        <time>2025-10-20T12:52:55.000Z</time>
      </trkpt>
      <trkpt lat="49.32785" lon="3.33074">
        <ele>106.5</ele>
        <time>2025-10-20T12:52:56.000Z</time>
      </trkpt>
      <trkpt lat="49.32784" lon="3.33074">
        <ele>106.6</ele>
        <time>2025-10-20T12:52:57.000Z</time>
      </trkpt>
      <trkpt lat="49.32782" lon="3.33074">
        <ele>106.6</ele>
        <time>2025-10-20T12:52:58.000Z</time>
      </trkpt>
      <trkpt lat="49.32781" lon="3.33075">
        <ele>106.1</ele>
        <time>2025-10-20T12:52:59.000Z</time>
      </trkpt>
      <trkpt lat="49.32779" lon="3.33076">
        <ele>105.4</ele>
        <time>2025-10-20T12:53:00.000Z</time>
      </trkpt>
      <trkpt lat="49.32777" lon="3.33076">
        <ele>104.8</ele>
        <time>2025-10-20T12:53:01.000Z</time>
      </trkpt>
      <trkpt lat="49.32775" lon="3.33077">
        <ele>104.1</ele>
        <time>2025-10-20T12:53:02.000Z</time>
      </trkpt>
      <trkpt lat="49.32773" lon="3.33077">
        <ele>103.6</ele>
        <time>2025-10-20T12:53:03.000Z</time>
      </trkpt>
      <trkpt lat="49.3277" lon="3.33078">
        <ele>102.4</ele>
        <time>2025-10-20T12:53:04.000Z</time>
      </trkpt>
      <trkpt lat="49.32769" lon="3.33079">
        <ele>101.4</ele>
        <time>2025-10-20T12:53:05.000Z</time>
      </trkpt>
      <trkpt lat="49.32767" lon="3.3308">
        <ele>100.4</ele>
        <time>2025-10-20T12:53:06.000Z</time>
      </trkpt>
      <trkpt lat="49.32765" lon="3.3308">
        <ele>100</ele>
        <time>2025-10-20T12:53:07.000Z</time>
      </trkpt>
      <trkpt lat="49.32764" lon="3.3308">
        <ele>99.6</ele>
        <time>2025-10-20T12:53:08.000Z</time>
      </trkpt>
      <trkpt lat="49.32762" lon="3.33081">
        <ele>99.4</ele>
        <time>2025-10-20T12:53:09.000Z</time>
      </trkpt>
      <trkpt lat="49.32761" lon="3.33081">
        <ele>99.4</ele>
        <time>2025-10-20T12:53:10.000Z</time>
      </trkpt>
      <trkpt lat="49.3276" lon="3.33082">
        <ele>99.5</ele>
        <time>2025-10-20T12:53:11.000Z</time>
      </trkpt>
      <trkpt lat="49.32759" lon="3.33082">
        <ele>99.6</ele>
        <time>2025-10-20T12:53:12.000Z</time>
      </trkpt>
      <trkpt lat="49.32758" lon="3.33083">
        <ele>99.9</ele>
        <time>2025-10-20T12:53:13.000Z</time>
      </trkpt>
      <trkpt lat="49.32756" lon="3.33083">
        <ele>100.5</ele>
        <time>2025-10-20T12:53:14.000Z</time>
      </trkpt>
      <trkpt lat="49.32755" lon="3.33084">
        <ele>100.9</ele>
        <time>2025-10-20T12:53:15.000Z</time>
      </trkpt>
      <trkpt lat="49.32754" lon="3.33085">
        <ele>101.1</ele>
        <time>2025-10-20T12:53:16.000Z</time>
      </trkpt>
      <trkpt lat="49.32753" lon="3.33086">
        <ele>101.2</ele>
        <time>2025-10-20T12:53:17.000Z</time>
      </trkpt>
      <trkpt lat="49.32751" lon="3.33087">
        <ele>101.2</ele>
        <time>2025-10-20T12:53:18.000Z</time>
      </trkpt>
      <trkpt lat="49.3275" lon="3.33088">
        <ele>101.1</ele>
        <time>2025-10-20T12:53:19.000Z</time>
      </trkpt>
      <trkpt lat="49.32749" lon="3.33089">
        <ele>100.8</ele>
        <time>2025-10-20T12:53:20.000Z</time>
      </trkpt>
      <trkpt lat="49.32748" lon="3.33089">
        <ele>100.2</ele>
        <time>2025-10-20T12:53:21.000Z</time>
      </trkpt>
      <trkpt lat="49.32747" lon="3.33089">
        <ele>99.9</ele>
        <time>2025-10-20T12:53:22.000Z</time>
      </trkpt>
      <trkpt lat="49.32747" lon="3.33089">
        <ele>99.6</ele>
        <time>2025-10-20T12:53:23.000Z</time>
      </trkpt>
      <trkpt lat="49.32746" lon="3.33089">
        <ele>99.5</ele>
        <time>2025-10-20T12:53:24.000Z</time>
      </trkpt>
      <trkpt lat="49.32745" lon="3.33087">
        <ele>99.4</ele>
        <time>2025-10-20T12:53:25.000Z</time>
      </trkpt>
      <trkpt lat="49.32744" lon="3.33086">
        <ele>99.5</ele>
        <time>2025-10-20T12:53:26.000Z</time>
      </trkpt>
      <trkpt lat="49.32743" lon="3.33085">
        <ele>99.6</ele>
        <time>2025-10-20T12:53:27.000Z</time>
      </trkpt>
      <trkpt lat="49.32742" lon="3.33083">
        <ele>99.8</ele>
        <time>2025-10-20T12:53:28.000Z</time>
      </trkpt>
      <trkpt lat="49.3274" lon="3.33083">
        <ele>99.7</ele>
        <time>2025-10-20T12:53:29.000Z</time>
      </trkpt>
      <trkpt lat="49.32739" lon="3.33083">
        <ele>100.2</ele>
        <time>2025-10-20T12:53:30.000Z</time>
      </trkpt>
      <trkpt lat="49.32738" lon="3.33083">
        <ele>100.4</ele>
        <time>2025-10-20T12:53:31.000Z</time>
      </trkpt>
      <trkpt lat="49.32737" lon="3.33083">
        <ele>100.4</ele>
        <time>2025-10-20T12:53:32.000Z</time>
      </trkpt>
      <trkpt lat="49.32736" lon="3.33083">
        <ele>100.8</ele>
        <time>2025-10-20T12:53:33.000Z</time>
      </trkpt>
      <trkpt lat="49.32734" lon="3.33083">
        <ele>101.1</ele>
        <time>2025-10-20T12:53:34.000Z</time>
      </trkpt>
      <trkpt lat="49.32733" lon="3.33083">
        <ele>101.1</ele>
        <time>2025-10-20T12:53:35.000Z</time>
      </trkpt>
      <trkpt lat="49.32731" lon="3.33082">
        <ele>101.2</ele>
        <time>2025-10-20T12:53:36.000Z</time>
      </trkpt>
      <trkpt lat="49.3273" lon="3.33082">
        <ele>101.3</ele>
        <time>2025-10-20T12:53:37.000Z</time>
      </trkpt>
      <trkpt lat="49.32729" lon="3.33081">
        <ele>101.2</ele>
        <time>2025-10-20T12:53:38.000Z</time>
      </trkpt>
      <trkpt lat="49.32727" lon="3.3308">
        <ele>101.2</ele>
        <time>2025-10-20T12:53:39.000Z</time>
      </trkpt>
      <trkpt lat="49.32726" lon="3.33079">
        <ele>100.9</ele>
        <time>2025-10-20T12:53:40.000Z</time>
      </trkpt>
      <trkpt lat="49.32724" lon="3.33078">
        <ele>101</ele>
        <time>2025-10-20T12:53:41.000Z</time>
      </trkpt>
      <trkpt lat="49.32723" lon="3.33077">
        <ele>101.1</ele>
        <time>2025-10-20T12:53:42.000Z</time>
      </trkpt>
      <trkpt lat="49.32722" lon="3.33076">
        <ele>101</ele>
        <time>2025-10-20T12:53:43.000Z</time>
      </trkpt>
      <trkpt lat="49.3272" lon="3.33075">
        <ele>101.2</ele>
        <time>2025-10-20T12:53:44.000Z</time>
      </trkpt>
      <trkpt lat="49.32719" lon="3.33074">
        <ele>101.4</ele>
        <time>2025-10-20T12:53:45.000Z</time>
      </trkpt>
      <trkpt lat="49.32718" lon="3.33072">
        <ele>101.5</ele>
        <time>2025-10-20T12:53:46.000Z</time>
      </trkpt>
      <trkpt lat="49.32717" lon="3.33071">
        <ele>101.9</ele>
        <time>2025-10-20T12:53:47.000Z</time>
      </trkpt>
      <trkpt lat="49.32716" lon="3.33069">
        <ele>102.1</ele>
        <time>2025-10-20T12:53:48.000Z</time>
      </trkpt>
      <trkpt lat="49.32715" lon="3.33067">
        <ele>102.2</ele>
        <time>2025-10-20T12:53:49.000Z</time>
      </trkpt>
      <trkpt lat="49.32715" lon="3.33064">
        <ele>102.4</ele>
        <time>2025-10-20T12:53:50.000Z</time>
      </trkpt>
      <trkpt lat="49.32715" lon="3.33062">
        <ele>102.7</ele>
        <time>2025-10-20T12:53:51.000Z</time>
      </trkpt>
      <trkpt lat="49.32714" lon="3.33061">
        <ele>103</ele>
        <time>2025-10-20T12:53:52.000Z</time>
      </trkpt>
      <trkpt lat="49.32714" lon="3.33059">
        <ele>103.4</ele>
        <time>2025-10-20T12:53:53.000Z</time>
      </trkpt>
      <trkpt lat="49.32714" lon="3.33056">
        <ele>103.8</ele>
        <time>2025-10-20T12:53:54.000Z</time>
      </trkpt>
      <trkpt lat="49.32714" lon="3.33053">
        <ele>104</ele>
        <time>2025-10-20T12:53:55.000Z</time>
      </trkpt>
      <trkpt lat="49.32714" lon="3.33051">
        <ele>104.2</ele>
        <time>2025-10-20T12:53:56.000Z</time>
      </trkpt>
      <trkpt lat="49.32714" lon="3.33049">
        <ele>104.1</ele>
        <time>2025-10-20T12:53:57.000Z</time>
      </trkpt>
      <trkpt lat="49.32714" lon="3.33047">
        <ele>104</ele>
        <time>2025-10-20T12:53:58.000Z</time>
      </trkpt>
      <trkpt lat="49.32714" lon="3.33044">
        <ele>103.8</ele>
        <time>2025-10-20T12:53:59.000Z</time>
      </trkpt>
      <trkpt lat="49.32714" lon="3.33042">
        <ele>103.4</ele>
        <time>2025-10-20T12:54:00.000Z</time>
      </trkpt>
      <trkpt lat="49.32714" lon="3.3304">
        <ele>103.1</ele>
        <time>2025-10-20T12:54:01.000Z</time>
      </trkpt>
      <trkpt lat="49.32715" lon="3.33038">
        <ele>102.6</ele>
        <time>2025-10-20T12:54:02.000Z</time>
      </trkpt>
      <trkpt lat="49.32715" lon="3.33037">
        <ele>102.1</ele>
        <time>2025-10-20T12:54:03.000Z</time>
      </trkpt>
      <trkpt lat="49.32715" lon="3.33036">
        <ele>101.8</ele>
        <time>2025-10-20T12:54:04.000Z</time>
      </trkpt>
      <trkpt lat="49.32715" lon="3.33036">
        <ele>101.6</ele>
        <time>2025-10-20T12:54:05.000Z</time>
      </trkpt>
      <trkpt lat="49.32715" lon="3.33034">
        <ele>101.3</ele>
        <time>2025-10-20T12:54:06.000Z</time>
      </trkpt>
      <trkpt lat="49.32714" lon="3.33033">
        <ele>101.2</ele>
        <time>2025-10-20T12:54:07.000Z</time>
      </trkpt>
      <trkpt lat="49.32713" lon="3.33031">
        <ele>101</ele>
        <time>2025-10-20T12:54:08.000Z</time>
      </trkpt>
      <trkpt lat="49.32713" lon="3.33029">
        <ele>100.7</ele>
        <time>2025-10-20T12:54:09.000Z</time>
      </trkpt>
      <trkpt lat="49.32712" lon="3.33027">
        <ele>100.6</ele>
        <time>2025-10-20T12:54:10.000Z</time>
      </trkpt>
      <trkpt lat="49.32711" lon="3.33025">
        <ele>100.8</ele>
        <time>2025-10-20T12:54:11.000Z</time>
      </trkpt>
      <trkpt lat="49.3271" lon="3.33023">
        <ele>100.9</ele>
        <time>2025-10-20T12:54:12.000Z</time>
      </trkpt>
      <trkpt lat="49.3271" lon="3.33021">
        <ele>100.9</ele>
        <time>2025-10-20T12:54:13.000Z</time>
      </trkpt>
      <trkpt lat="49.3271" lon="3.33018">
        <ele>100.8</ele>
        <time>2025-10-20T12:54:14.000Z</time>
      </trkpt>
      <trkpt lat="49.3271" lon="3.33016">
        <ele>100.8</ele>
        <time>2025-10-20T12:54:15.000Z</time>
      </trkpt>
      <trkpt lat="49.3271" lon="3.33013">
        <ele>100.7</ele>
        <time>2025-10-20T12:54:16.000Z</time>
      </trkpt>
      <trkpt lat="49.3271" lon="3.33011">
        <ele>100.5</ele>
        <time>2025-10-20T12:54:17.000Z</time>
      </trkpt>
      <trkpt lat="49.3271" lon="3.33009">
        <ele>100.4</ele>
        <time>2025-10-20T12:54:18.000Z</time>
      </trkpt>
      <trkpt lat="49.3271" lon="3.33006">
        <ele>100.3</ele>
        <time>2025-10-20T12:54:19.000Z</time>
      </trkpt>
      <trkpt lat="49.3271" lon="3.33004">
        <ele>100.3</ele>
        <time>2025-10-20T12:54:20.000Z</time>
      </trkpt>
      <trkpt lat="49.3271" lon="3.33002">
        <ele>100</ele>
        <time>2025-10-20T12:54:21.000Z</time>
      </trkpt>
      <trkpt lat="49.3271" lon="3.32999">
        <ele>99.7</ele>
        <time>2025-10-20T12:54:22.000Z</time>
      </trkpt>
      <trkpt lat="49.3271" lon="3.32996">
        <ele>99.6</ele>
        <time>2025-10-20T12:54:23.000Z</time>
      </trkpt>
      <trkpt lat="49.3271" lon="3.32994">
        <ele>99.6</ele>
        <time>2025-10-20T12:54:24.000Z</time>
      </trkpt>
      <trkpt lat="49.3271" lon="3.32992">
        <ele>99.5</ele>
        <time>2025-10-20T12:54:25.000Z</time>
      </trkpt>
      <trkpt lat="49.3271" lon="3.32989">
        <ele>99.3</ele>
        <time>2025-10-20T12:54:26.000Z</time>
      </trkpt>
      <trkpt lat="49.32709" lon="3.32988">
        <ele>99.2</ele>
        <time>2025-10-20T12:54:27.000Z</time>
      </trkpt>
      <trkpt lat="49.32709" lon="3.32986">
        <ele>99.2</ele>
        <time>2025-10-20T12:54:28.000Z</time>
      </trkpt>
      <trkpt lat="49.32709" lon="3.32983">
        <ele>99</ele>
        <time>2025-10-20T12:54:29.000Z</time>
      </trkpt>
      <trkpt lat="49.32708" lon="3.32981">
        <ele>98.8</ele>
        <time>2025-10-20T12:54:30.000Z</time>
      </trkpt>
      <trkpt lat="49.32708" lon="3.32979">
        <ele>98.7</ele>
        <time>2025-10-20T12:54:31.000Z</time>
      </trkpt>
      <trkpt lat="49.32707" lon="3.32977">
        <ele>98.6</ele>
        <time>2025-10-20T12:54:32.000Z</time>
      </trkpt>
      <trkpt lat="49.32706" lon="3.32976">
        <ele>98.7</ele>
        <time>2025-10-20T12:54:33.000Z</time>
      </trkpt>
      <trkpt lat="49.32705" lon="3.32974">
        <ele>98.3</ele>
        <time>2025-10-20T12:54:34.000Z</time>
      </trkpt>
      <trkpt lat="49.32704" lon="3.32972">
        <ele>98</ele>
        <time>2025-10-20T12:54:35.000Z</time>
      </trkpt>
      <trkpt lat="49.32704" lon="3.3297">
        <ele>97.7</ele>
        <time>2025-10-20T12:54:36.000Z</time>
      </trkpt>
      <trkpt lat="49.32703" lon="3.32968">
        <ele>97.6</ele>
        <time>2025-10-20T12:54:37.000Z</time>
      </trkpt>
      <trkpt lat="49.32702" lon="3.32966">
        <ele>97.5</ele>
        <time>2025-10-20T12:54:38.000Z</time>
      </trkpt>
      <trkpt lat="49.32701" lon="3.32964">
        <ele>97.3</ele>
        <time>2025-10-20T12:54:39.000Z</time>
      </trkpt>
      <trkpt lat="49.327" lon="3.32962">
        <ele>97.3</ele>
        <time>2025-10-20T12:54:40.000Z</time>
      </trkpt>
      <trkpt lat="49.327" lon="3.3296">
        <ele>97.2</ele>
        <time>2025-10-20T12:54:41.000Z</time>
      </trkpt>
      <trkpt lat="49.32699" lon="3.32958">
        <ele>97.3</ele>
        <time>2025-10-20T12:54:42.000Z</time>
      </trkpt>
      <trkpt lat="49.32699" lon="3.32956">
        <ele>97.5</ele>
        <time>2025-10-20T12:54:43.000Z</time>
      </trkpt>
      <trkpt lat="49.32698" lon="3.32954">
        <ele>97.6</ele>
        <time>2025-10-20T12:54:44.000Z</time>
      </trkpt>
      <trkpt lat="49.32697" lon="3.32953">
        <ele>97.7</ele>
        <time>2025-10-20T12:54:45.000Z</time>
      </trkpt>
      <trkpt lat="49.32696" lon="3.32951">
        <ele>97.6</ele>
        <time>2025-10-20T12:54:46.000Z</time>
      </trkpt>
      <trkpt lat="49.32695" lon="3.32949">
        <ele>97.6</ele>
        <time>2025-10-20T12:54:47.000Z</time>
      </trkpt>
      <trkpt lat="49.32695" lon="3.32948">
        <ele>97.4</ele>
        <time>2025-10-20T12:54:48.000Z</time>
      </trkpt>
      <trkpt lat="49.32693" lon="3.32946">
        <ele>97.3</ele>
        <time>2025-10-20T12:54:49.000Z</time>
      </trkpt>
      <trkpt lat="49.32692" lon="3.32944">
        <ele>97.4</ele>
        <time>2025-10-20T12:54:50.000Z</time>
      </trkpt>
      <trkpt lat="49.32692" lon="3.32942">
        <ele>97.6</ele>
        <time>2025-10-20T12:54:51.000Z</time>
      </trkpt>
      <trkpt lat="49.32691" lon="3.3294">
        <ele>97.8</ele>
        <time>2025-10-20T12:54:52.000Z</time>
      </trkpt>
      <trkpt lat="49.3269" lon="3.32939">
        <ele>97.8</ele>
        <time>2025-10-20T12:54:53.000Z</time>
      </trkpt>
      <trkpt lat="49.32689" lon="3.32937">
        <ele>98.2</ele>
        <time>2025-10-20T12:54:54.000Z</time>
      </trkpt>
      <trkpt lat="49.32688" lon="3.32936">
        <ele>98.5</ele>
        <time>2025-10-20T12:54:55.000Z</time>
      </trkpt>
      <trkpt lat="49.32687" lon="3.32934">
        <ele>98.9</ele>
        <time>2025-10-20T12:54:56.000Z</time>
      </trkpt>
      <trkpt lat="49.32686" lon="3.32933">
        <ele>99.3</ele>
        <time>2025-10-20T12:54:57.000Z</time>
      </trkpt>
      <trkpt lat="49.32685" lon="3.32931">
        <ele>99.5</ele>
        <time>2025-10-20T12:54:58.000Z</time>
      </trkpt>
      <trkpt lat="49.32684" lon="3.32929">
        <ele>99.5</ele>
        <time>2025-10-20T12:54:59.000Z</time>
      </trkpt>
      <trkpt lat="49.32682" lon="3.32928">
        <ele>99.7</ele>
        <time>2025-10-20T12:55:00.000Z</time>
      </trkpt>
      <trkpt lat="49.32681" lon="3.32926">
        <ele>99.8</ele>
        <time>2025-10-20T12:55:01.000Z</time>
      </trkpt>
      <trkpt lat="49.3268" lon="3.32925">
        <ele>99.8</ele>
        <time>2025-10-20T12:55:02.000Z</time>
      </trkpt>
      <trkpt lat="49.32679" lon="3.32923">
        <ele>99.8</ele>
        <time>2025-10-20T12:55:03.000Z</time>
      </trkpt>
      <trkpt lat="49.32678" lon="3.32922">
        <ele>99.7</ele>
        <time>2025-10-20T12:55:04.000Z</time>
      </trkpt>
      <trkpt lat="49.32678" lon="3.3292">
        <ele>99.9</ele>
        <time>2025-10-20T12:55:05.000Z</time>
      </trkpt>
      <trkpt lat="49.32677" lon="3.32918">
        <ele>99.8</ele>
        <time>2025-10-20T12:55:06.000Z</time>
      </trkpt>
      <trkpt lat="49.32676" lon="3.32916">
        <ele>99.6</ele>
        <time>2025-10-20T12:55:07.000Z</time>
      </trkpt>
      <trkpt lat="49.32676" lon="3.32914">
        <ele>99.4</ele>
        <time>2025-10-20T12:55:08.000Z</time>
      </trkpt>
      <trkpt lat="49.32675" lon="3.32913">
        <ele>99.5</ele>
        <time>2025-10-20T12:55:09.000Z</time>
      </trkpt>
      <trkpt lat="49.32675" lon="3.32911">
        <ele>99.6</ele>
        <time>2025-10-20T12:55:10.000Z</time>
      </trkpt>
      <trkpt lat="49.32674" lon="3.3291">
        <ele>99.9</ele>
        <time>2025-10-20T12:55:11.000Z</time>
      </trkpt>
      <trkpt lat="49.32674" lon="3.3291">
        <ele>100</ele>
        <time>2025-10-20T12:55:12.000Z</time>
      </trkpt>
      <trkpt lat="49.32673" lon="3.32909">
        <ele>100.1</ele>
        <time>2025-10-20T12:55:13.000Z</time>
      </trkpt>
      <trkpt lat="49.32672" lon="3.32909">
        <ele>100.1</ele>
        <time>2025-10-20T12:55:14.000Z</time>
      </trkpt>
      <trkpt lat="49.32671" lon="3.32908">
        <ele>100</ele>
        <time>2025-10-20T12:55:15.000Z</time>
      </trkpt>
      <trkpt lat="49.32671" lon="3.32907">
        <ele>99.6</ele>
        <time>2025-10-20T12:55:16.000Z</time>
      </trkpt>
      <trkpt lat="49.3267" lon="3.32906">
        <ele>99.5</ele>
        <time>2025-10-20T12:55:17.000Z</time>
      </trkpt>
      <trkpt lat="49.3267" lon="3.32905">
        <ele>99.4</ele>
        <time>2025-10-20T12:55:18.000Z</time>
      </trkpt>
      <trkpt lat="49.32669" lon="3.32904">
        <ele>99.2</ele>
        <time>2025-10-20T12:55:19.000Z</time>
      </trkpt>
      <trkpt lat="49.32668" lon="3.32903">
        <ele>99</ele>
        <time>2025-10-20T12:55:20.000Z</time>
      </trkpt>
      <trkpt lat="49.32668" lon="3.32901">
        <ele>98.7</ele>
        <time>2025-10-20T12:55:21.000Z</time>
      </trkpt>
      <trkpt lat="49.32667" lon="3.329">
        <ele>98.7</ele>
        <time>2025-10-20T12:55:22.000Z</time>
      </trkpt>
      <trkpt lat="49.32667" lon="3.32899">
        <ele>98.6</ele>
        <time>2025-10-20T12:55:23.000Z</time>
      </trkpt>
      <trkpt lat="49.32666" lon="3.32896">
        <ele>98.4</ele>
        <time>2025-10-20T12:55:24.000Z</time>
      </trkpt>
      <trkpt lat="49.32665" lon="3.32894">
        <ele>98</ele>
        <time>2025-10-20T12:55:25.000Z</time>
      </trkpt>
      <trkpt lat="49.32663" lon="3.32892">
        <ele>97.9</ele>
        <time>2025-10-20T12:55:26.000Z</time>
      </trkpt>
      <trkpt lat="49.32662" lon="3.32889">
        <ele>97.4</ele>
        <time>2025-10-20T12:55:27.000Z</time>
      </trkpt>
      <trkpt lat="49.3266" lon="3.32884">
        <ele>97.6</ele>
        <time>2025-10-20T12:55:28.000Z</time>
      </trkpt>
      <trkpt lat="49.32658" lon="3.32879">
        <ele>97.9</ele>
        <time>2025-10-20T12:55:29.000Z</time>
      </trkpt>
      <trkpt lat="49.32656" lon="3.32877">
        <ele>99.1</ele>
        <time>2025-10-20T12:55:30.000Z</time>
      </trkpt>
      <trkpt lat="49.32655" lon="3.32875">
        <ele>99.5</ele>
        <time>2025-10-20T12:55:31.000Z</time>
      </trkpt>
      <trkpt lat="49.32654" lon="3.32873">
        <ele>99.8</ele>
        <time>2025-10-20T12:55:32.000Z</time>
      </trkpt>
      <trkpt lat="49.32654" lon="3.3287">
        <ele>100.3</ele>
        <time>2025-10-20T12:55:33.000Z</time>
      </trkpt>
      <trkpt lat="49.32653" lon="3.32869">
        <ele>100.5</ele>
        <time>2025-10-20T12:55:34.000Z</time>
      </trkpt>
      <trkpt lat="49.32653" lon="3.32866">
        <ele>100.7</ele>
        <time>2025-10-20T12:55:35.000Z</time>
      </trkpt>
      <trkpt lat="49.32652" lon="3.32864">
        <ele>100.9</ele>
        <time>2025-10-20T12:55:36.000Z</time>
      </trkpt>
      <trkpt lat="49.32652" lon="3.32862">
        <ele>101.1</ele>
        <time>2025-10-20T12:55:37.000Z</time>
      </trkpt>
      <trkpt lat="49.32651" lon="3.3286">
        <ele>101</ele>
        <time>2025-10-20T12:55:38.000Z</time>
      </trkpt>
      <trkpt lat="49.3265" lon="3.32858">
        <ele>100.9</ele>
        <time>2025-10-20T12:55:39.000Z</time>
      </trkpt>
      <trkpt lat="49.32649" lon="3.32856">
        <ele>100.7</ele>
        <time>2025-10-20T12:55:40.000Z</time>
      </trkpt>
      <trkpt lat="49.32649" lon="3.32854">
        <ele>100.7</ele>
        <time>2025-10-20T12:55:41.000Z</time>
      </trkpt>
      <trkpt lat="49.32648" lon="3.32853">
        <ele>100.4</ele>
        <time>2025-10-20T12:55:42.000Z</time>
      </trkpt>
      <trkpt lat="49.32647" lon="3.32851">
        <ele>100.3</ele>
        <time>2025-10-20T12:55:43.000Z</time>
      </trkpt>
      <trkpt lat="49.32646" lon="3.32849">
        <ele>100.1</ele>
        <time>2025-10-20T12:55:44.000Z</time>
      </trkpt>
      <trkpt lat="49.32645" lon="3.32847">
        <ele>100</ele>
        <time>2025-10-20T12:55:45.000Z</time>
      </trkpt>
      <trkpt lat="49.32644" lon="3.32846">
        <ele>99.7</ele>
        <time>2025-10-20T12:55:46.000Z</time>
      </trkpt>
      <trkpt lat="49.32644" lon="3.32844">
        <ele>99.6</ele>
        <time>2025-10-20T12:55:47.000Z</time>
      </trkpt>
      <trkpt lat="49.32643" lon="3.32842">
        <ele>99.8</ele>
        <time>2025-10-20T12:55:48.000Z</time>
      </trkpt>
      <trkpt lat="49.32642" lon="3.32841">
        <ele>100.2</ele>
        <time>2025-10-20T12:55:49.000Z</time>
      </trkpt>
      <trkpt lat="49.32641" lon="3.3284">
        <ele>100.6</ele>
        <time>2025-10-20T12:55:50.000Z</time>
      </trkpt>
      <trkpt lat="49.3264" lon="3.32839">
        <ele>100.9</ele>
        <time>2025-10-20T12:55:51.000Z</time>
      </trkpt>
      <trkpt lat="49.32639" lon="3.32837">
        <ele>101.1</ele>
        <time>2025-10-20T12:55:52.000Z</time>
      </trkpt>
      <trkpt lat="49.32638" lon="3.32836">
        <ele>101.3</ele>
        <time>2025-10-20T12:55:53.000Z</time>
      </trkpt>
      <trkpt lat="49.32637" lon="3.32834">
        <ele>101.5</ele>
        <time>2025-10-20T12:55:54.000Z</time>
      </trkpt>
      <trkpt lat="49.32636" lon="3.32833">
        <ele>101.8</ele>
        <time>2025-10-20T12:55:55.000Z</time>
      </trkpt>
      <trkpt lat="49.32636" lon="3.32831">
        <ele>102.1</ele>
        <time>2025-10-20T12:55:56.000Z</time>
      </trkpt>
      <trkpt lat="49.32635" lon="3.3283">
        <ele>102.3</ele>
        <time>2025-10-20T12:55:57.000Z</time>
      </trkpt>
      <trkpt lat="49.32634" lon="3.32828">
        <ele>102.3</ele>
        <time>2025-10-20T12:55:58.000Z</time>
      </trkpt>
      <trkpt lat="49.32634" lon="3.32826">
        <ele>102.3</ele>
        <time>2025-10-20T12:55:59.000Z</time>
      </trkpt>
      <trkpt lat="49.32634" lon="3.32824">
        <ele>102.2</ele>
        <time>2025-10-20T12:56:00.000Z</time>
      </trkpt>
      <trkpt lat="49.32633" lon="3.32821">
        <ele>102</ele>
        <time>2025-10-20T12:56:01.000Z</time>
      </trkpt>
      <trkpt lat="49.32632" lon="3.32819">
        <ele>101.7</ele>
        <time>2025-10-20T12:56:02.000Z</time>
      </trkpt>
      <trkpt lat="49.32632" lon="3.32817">
        <ele>101.6</ele>
        <time>2025-10-20T12:56:03.000Z</time>
      </trkpt>
      <trkpt lat="49.32631" lon="3.32815">
        <ele>101.4</ele>
        <time>2025-10-20T12:56:04.000Z</time>
      </trkpt>
      <trkpt lat="49.3263" lon="3.32813">
        <ele>101.2</ele>
        <time>2025-10-20T12:56:05.000Z</time>
      </trkpt>
      <trkpt lat="49.32629" lon="3.32812">
        <ele>101.2</ele>
        <time>2025-10-20T12:56:06.000Z</time>
      </trkpt>
      <trkpt lat="49.32628" lon="3.3281">
        <ele>101.3</ele>
        <time>2025-10-20T12:56:07.000Z</time>
      </trkpt>
      <trkpt lat="49.32627" lon="3.32808">
        <ele>101.6</ele>
        <time>2025-10-20T12:56:08.000Z</time>
      </trkpt>
      <trkpt lat="49.32626" lon="3.32807">
        <ele>101.8</ele>
        <time>2025-10-20T12:56:09.000Z</time>
      </trkpt>
      <trkpt lat="49.32625" lon="3.32805">
        <ele>101.7</ele>
        <time>2025-10-20T12:56:10.000Z</time>
      </trkpt>
      <trkpt lat="49.32624" lon="3.32803">
        <ele>101.8</ele>
        <time>2025-10-20T12:56:11.000Z</time>
      </trkpt>
      <trkpt lat="49.32623" lon="3.32802">
        <ele>101.9</ele>
        <time>2025-10-20T12:56:12.000Z</time>
      </trkpt>
      <trkpt lat="49.32622" lon="3.328">
        <ele>102</ele>
        <time>2025-10-20T12:56:13.000Z</time>
      </trkpt>
      <trkpt lat="49.32622" lon="3.32798">
        <ele>102</ele>
        <time>2025-10-20T12:56:14.000Z</time>
      </trkpt>
      <trkpt lat="49.32621" lon="3.32796">
        <ele>101.9</ele>
        <time>2025-10-20T12:56:15.000Z</time>
      </trkpt>
      <trkpt lat="49.3262" lon="3.32794">
        <ele>101.7</ele>
        <time>2025-10-20T12:56:16.000Z</time>
      </trkpt>
      <trkpt lat="49.3262" lon="3.32792">
        <ele>101.7</ele>
        <time>2025-10-20T12:56:17.000Z</time>
      </trkpt>
      <trkpt lat="49.32619" lon="3.32789">
        <ele>101.5</ele>
        <time>2025-10-20T12:56:18.000Z</time>
      </trkpt>
      <trkpt lat="49.32619" lon="3.32787">
        <ele>101.4</ele>
        <time>2025-10-20T12:56:19.000Z</time>
      </trkpt>
      <trkpt lat="49.32619" lon="3.32785">
        <ele>101.2</ele>
        <time>2025-10-20T12:56:20.000Z</time>
      </trkpt>
      <trkpt lat="49.32618" lon="3.32783">
        <ele>101.2</ele>
        <time>2025-10-20T12:56:21.000Z</time>
      </trkpt>
      <trkpt lat="49.32618" lon="3.3278">
        <ele>101</ele>
        <time>2025-10-20T12:56:22.000Z</time>
      </trkpt>
      <trkpt lat="49.32617" lon="3.32778">
        <ele>100.9</ele>
        <time>2025-10-20T12:56:23.000Z</time>
      </trkpt>
      <trkpt lat="49.32616" lon="3.32776">
        <ele>100.8</ele>
        <time>2025-10-20T12:56:24.000Z</time>
      </trkpt>
      <trkpt lat="49.32616" lon="3.32774">
        <ele>100.8</ele>
        <time>2025-10-20T12:56:25.000Z</time>
      </trkpt>
      <trkpt lat="49.32615" lon="3.32772">
        <ele>101.1</ele>
        <time>2025-10-20T12:56:26.000Z</time>
      </trkpt>
      <trkpt lat="49.32614" lon="3.32771">
        <ele>101.2</ele>
        <time>2025-10-20T12:56:27.000Z</time>
      </trkpt>
      <trkpt lat="49.32614" lon="3.32769">
        <ele>101.6</ele>
        <time>2025-10-20T12:56:28.000Z</time>
      </trkpt>
      <trkpt lat="49.32613" lon="3.32767">
        <ele>101.9</ele>
        <time>2025-10-20T12:56:29.000Z</time>
      </trkpt>
      <trkpt lat="49.32612" lon="3.32766">
        <ele>102.1</ele>
        <time>2025-10-20T12:56:30.000Z</time>
      </trkpt>
      <trkpt lat="49.32611" lon="3.32764">
        <ele>102.1</ele>
        <time>2025-10-20T12:56:31.000Z</time>
      </trkpt>
      <trkpt lat="49.3261" lon="3.32762">
        <ele>101.9</ele>
        <time>2025-10-20T12:56:32.000Z</time>
      </trkpt>
      <trkpt lat="49.32609" lon="3.32761">
        <ele>101.9</ele>
        <time>2025-10-20T12:56:33.000Z</time>
      </trkpt>
      <trkpt lat="49.32608" lon="3.32759">
        <ele>101.6</ele>
        <time>2025-10-20T12:56:34.000Z</time>
      </trkpt>
      <trkpt lat="49.32607" lon="3.32756">
        <ele>101.2</ele>
        <time>2025-10-20T12:56:35.000Z</time>
      </trkpt>
      <trkpt lat="49.32606" lon="3.32755">
        <ele>101.3</ele>
        <time>2025-10-20T12:56:36.000Z</time>
      </trkpt>
      <trkpt lat="49.32605" lon="3.32754">
        <ele>100.8</ele>
        <time>2025-10-20T12:56:37.000Z</time>
      </trkpt>
      <trkpt lat="49.32604" lon="3.32752">
        <ele>101</ele>
        <time>2025-10-20T12:56:38.000Z</time>
      </trkpt>
      <trkpt lat="49.32603" lon="3.32751">
        <ele>100.9</ele>
        <time>2025-10-20T12:56:39.000Z</time>
      </trkpt>
      <trkpt lat="49.32601" lon="3.3275">
        <ele>100.8</ele>
        <time>2025-10-20T12:56:40.000Z</time>
      </trkpt>
      <trkpt lat="49.32601" lon="3.32748">
        <ele>100.9</ele>
        <time>2025-10-20T12:56:41.000Z</time>
      </trkpt>
      <trkpt lat="49.32599" lon="3.32746">
        <ele>100.5</ele>
        <time>2025-10-20T12:56:42.000Z</time>
      </trkpt>
      <trkpt lat="49.32598" lon="3.32744">
        <ele>100.4</ele>
        <time>2025-10-20T12:56:43.000Z</time>
      </trkpt>
      <trkpt lat="49.32597" lon="3.32742">
        <ele>100.5</ele>
        <time>2025-10-20T12:56:44.000Z</time>
      </trkpt>
      <trkpt lat="49.32596" lon="3.32741">
        <ele>100.5</ele>
        <time>2025-10-20T12:56:45.000Z</time>
      </trkpt>
      <trkpt lat="49.32595" lon="3.3274">
        <ele>100.6</ele>
        <time>2025-10-20T12:56:46.000Z</time>
      </trkpt>
      <trkpt lat="49.32594" lon="3.32738">
        <ele>100.7</ele>
        <time>2025-10-20T12:56:47.000Z</time>
      </trkpt>
      <trkpt lat="49.32593" lon="3.32737">
        <ele>100.5</ele>
        <time>2025-10-20T12:56:48.000Z</time>
      </trkpt>
      <trkpt lat="49.32591" lon="3.32736">
        <ele>100.3</ele>
        <time>2025-10-20T12:56:49.000Z</time>
      </trkpt>
      <trkpt lat="49.3259" lon="3.32735">
        <ele>100.3</ele>
        <time>2025-10-20T12:56:50.000Z</time>
      </trkpt>
      <trkpt lat="49.32589" lon="3.32733">
        <ele>100.4</ele>
        <time>2025-10-20T12:56:51.000Z</time>
      </trkpt>
      <trkpt lat="49.32589" lon="3.32732">
        <ele>100.5</ele>
        <time>2025-10-20T12:56:52.000Z</time>
      </trkpt>
      <trkpt lat="49.32588" lon="3.32731">
        <ele>100.7</ele>
        <time>2025-10-20T12:56:53.000Z</time>
      </trkpt>
      <trkpt lat="49.32587" lon="3.32729">
        <ele>100.7</ele>
        <time>2025-10-20T12:56:54.000Z</time>
      </trkpt>
      <trkpt lat="49.32585" lon="3.32728">
        <ele>100.7</ele>
        <time>2025-10-20T12:56:55.000Z</time>
      </trkpt>
      <trkpt lat="49.32584" lon="3.32727">
        <ele>100.9</ele>
        <time>2025-10-20T12:56:56.000Z</time>
      </trkpt>
      <trkpt lat="49.32583" lon="3.32725">
        <ele>100.9</ele>
        <time>2025-10-20T12:56:57.000Z</time>
      </trkpt>
      <trkpt lat="49.32582" lon="3.32723">
        <ele>101.1</ele>
        <time>2025-10-20T12:56:58.000Z</time>
      </trkpt>
      <trkpt lat="49.32581" lon="3.32722">
        <ele>101.2</ele>
        <time>2025-10-20T12:56:59.000Z</time>
      </trkpt>
      <trkpt lat="49.3258" lon="3.32721">
        <ele>101.4</ele>
        <time>2025-10-20T12:57:00.000Z</time>
      </trkpt>
      <trkpt lat="49.32579" lon="3.3272">
        <ele>101.4</ele>
        <time>2025-10-20T12:57:01.000Z</time>
      </trkpt>
      <trkpt lat="49.32578" lon="3.32719">
        <ele>101.6</ele>
        <time>2025-10-20T12:57:02.000Z</time>
      </trkpt>
      <trkpt lat="49.32577" lon="3.32718">
        <ele>101.8</ele>
        <time>2025-10-20T12:57:03.000Z</time>
      </trkpt>
      <trkpt lat="49.32576" lon="3.32716">
        <ele>101.7</ele>
        <time>2025-10-20T12:57:04.000Z</time>
      </trkpt>
      <trkpt lat="49.32574" lon="3.32715">
        <ele>101.6</ele>
        <time>2025-10-20T12:57:05.000Z</time>
      </trkpt>
      <trkpt lat="49.32573" lon="3.32713">
        <ele>101.5</ele>
        <time>2025-10-20T12:57:06.000Z</time>
      </trkpt>
      <trkpt lat="49.32573" lon="3.32712">
        <ele>102</ele>
        <time>2025-10-20T12:57:07.000Z</time>
      </trkpt>
      <trkpt lat="49.32572" lon="3.32711">
        <ele>102.4</ele>
        <time>2025-10-20T12:57:08.000Z</time>
      </trkpt>
      <trkpt lat="49.32571" lon="3.32709">
        <ele>102.4</ele>
        <time>2025-10-20T12:57:09.000Z</time>
      </trkpt>
      <trkpt lat="49.32569" lon="3.32708">
        <ele>102.3</ele>
        <time>2025-10-20T12:57:10.000Z</time>
      </trkpt>
      <trkpt lat="49.32568" lon="3.32706">
        <ele>102.2</ele>
        <time>2025-10-20T12:57:11.000Z</time>
      </trkpt>
      <trkpt lat="49.32567" lon="3.32705">
        <ele>102.1</ele>
        <time>2025-10-20T12:57:12.000Z</time>
      </trkpt>
      <trkpt lat="49.32566" lon="3.32704">
        <ele>102.1</ele>
        <time>2025-10-20T12:57:13.000Z</time>
      </trkpt>
      <trkpt lat="49.32565" lon="3.32703">
        <ele>102.2</ele>
        <time>2025-10-20T12:57:14.000Z</time>
      </trkpt>
      <trkpt lat="49.32564" lon="3.32702">
        <ele>102.3</ele>
        <time>2025-10-20T12:57:15.000Z</time>
      </trkpt>
      <trkpt lat="49.32563" lon="3.32701">
        <ele>102.4</ele>
        <time>2025-10-20T12:57:16.000Z</time>
      </trkpt>
      <trkpt lat="49.32562" lon="3.32699">
        <ele>102.8</ele>
        <time>2025-10-20T12:57:17.000Z</time>
      </trkpt>
      <trkpt lat="49.32561" lon="3.32698">
        <ele>103.2</ele>
        <time>2025-10-20T12:57:18.000Z</time>
      </trkpt>
      <trkpt lat="49.3256" lon="3.32696">
        <ele>103.4</ele>
        <time>2025-10-20T12:57:19.000Z</time>
      </trkpt>
      <trkpt lat="49.32559" lon="3.32695">
        <ele>103.7</ele>
        <time>2025-10-20T12:57:20.000Z</time>
      </trkpt>
      <trkpt lat="49.32558" lon="3.32693">
        <ele>103.9</ele>
        <time>2025-10-20T12:57:21.000Z</time>
      </trkpt>
      <trkpt lat="49.32557" lon="3.32691">
        <ele>104</ele>
        <time>2025-10-20T12:57:22.000Z</time>
      </trkpt>
      <trkpt lat="49.32556" lon="3.3269">
        <ele>104.6</ele>
        <time>2025-10-20T12:57:23.000Z</time>
      </trkpt>
      <trkpt lat="49.32555" lon="3.32689">
        <ele>105.1</ele>
        <time>2025-10-20T12:57:24.000Z</time>
      </trkpt>
      <trkpt lat="49.32554" lon="3.32687">
        <ele>105.8</ele>
        <time>2025-10-20T12:57:25.000Z</time>
      </trkpt>
      <trkpt lat="49.32553" lon="3.32686">
        <ele>106.2</ele>
        <time>2025-10-20T12:57:26.000Z</time>
      </trkpt>
      <trkpt lat="49.32553" lon="3.32685">
        <ele>106.9</ele>
        <time>2025-10-20T12:57:27.000Z</time>
      </trkpt>
      <trkpt lat="49.32552" lon="3.32684">
        <ele>107.3</ele>
        <time>2025-10-20T12:57:28.000Z</time>
      </trkpt>
      <trkpt lat="49.32551" lon="3.32682">
        <ele>107.6</ele>
        <time>2025-10-20T12:57:29.000Z</time>
      </trkpt>
      <trkpt lat="49.3255" lon="3.32681">
        <ele>107.6</ele>
        <time>2025-10-20T12:57:30.000Z</time>
      </trkpt>
      <trkpt lat="49.32548" lon="3.32679">
        <ele>107.4</ele>
        <time>2025-10-20T12:57:31.000Z</time>
      </trkpt>
      <trkpt lat="49.32547" lon="3.32678">
        <ele>107.3</ele>
        <time>2025-10-20T12:57:32.000Z</time>
      </trkpt>
      <trkpt lat="49.32546" lon="3.32676">
        <ele>107.3</ele>
        <time>2025-10-20T12:57:33.000Z</time>
      </trkpt>
      <trkpt lat="49.32545" lon="3.32675">
        <ele>107.3</ele>
        <time>2025-10-20T12:57:34.000Z</time>
      </trkpt>
      <trkpt lat="49.32544" lon="3.32673">
        <ele>107.3</ele>
        <time>2025-10-20T12:57:35.000Z</time>
      </trkpt>
      <trkpt lat="49.32543" lon="3.32672">
        <ele>107.3</ele>
        <time>2025-10-20T12:57:36.000Z</time>
      </trkpt>
      <trkpt lat="49.32542" lon="3.32671">
        <ele>106.8</ele>
        <time>2025-10-20T12:57:37.000Z</time>
      </trkpt>
      <trkpt lat="49.32541" lon="3.32669">
        <ele>106.3</ele>
        <time>2025-10-20T12:57:38.000Z</time>
      </trkpt>
      <trkpt lat="49.32539" lon="3.32668">
        <ele>106.2</ele>
        <time>2025-10-20T12:57:39.000Z</time>
      </trkpt>
      <trkpt lat="49.32538" lon="3.32666">
        <ele>106.5</ele>
        <time>2025-10-20T12:57:40.000Z</time>
      </trkpt>
      <trkpt lat="49.32537" lon="3.32665">
        <ele>106.2</ele>
        <time>2025-10-20T12:57:41.000Z</time>
      </trkpt>
      <trkpt lat="49.32536" lon="3.32663">
        <ele>106.2</ele>
        <time>2025-10-20T12:57:42.000Z</time>
      </trkpt>
      <trkpt lat="49.32535" lon="3.32662">
        <ele>106.2</ele>
        <time>2025-10-20T12:57:43.000Z</time>
      </trkpt>
      <trkpt lat="49.32534" lon="3.32661">
        <ele>106.1</ele>
        <time>2025-10-20T12:57:44.000Z</time>
      </trkpt>
      <trkpt lat="49.32532" lon="3.32659">
        <ele>106.1</ele>
        <time>2025-10-20T12:57:45.000Z</time>
      </trkpt>
      <trkpt lat="49.32531" lon="3.32657">
        <ele>105.8</ele>
        <time>2025-10-20T12:57:46.000Z</time>
      </trkpt>
      <trkpt lat="49.3253" lon="3.32656">
        <ele>105.1</ele>
        <time>2025-10-20T12:57:47.000Z</time>
      </trkpt>
      <trkpt lat="49.32529" lon="3.32654">
        <ele>104.6</ele>
        <time>2025-10-20T12:57:48.000Z</time>
      </trkpt>
      <trkpt lat="49.32528" lon="3.32652">
        <ele>103.9</ele>
        <time>2025-10-20T12:57:49.000Z</time>
      </trkpt>
      <trkpt lat="49.32527" lon="3.3265">
        <ele>102.9</ele>
        <time>2025-10-20T12:57:50.000Z</time>
      </trkpt>
      <trkpt lat="49.32526" lon="3.32648">
        <ele>102.2</ele>
        <time>2025-10-20T12:57:51.000Z</time>
      </trkpt>
      <trkpt lat="49.32525" lon="3.32647">
        <ele>101.9</ele>
        <time>2025-10-20T12:57:52.000Z</time>
      </trkpt>
      <trkpt lat="49.32524" lon="3.32644">
        <ele>101.4</ele>
        <time>2025-10-20T12:57:53.000Z</time>
      </trkpt>
      <trkpt lat="49.32524" lon="3.32643">
        <ele>101.3</ele>
        <time>2025-10-20T12:57:54.000Z</time>
      </trkpt>
      <trkpt lat="49.32523" lon="3.3264">
        <ele>101.5</ele>
        <time>2025-10-20T12:57:55.000Z</time>
      </trkpt>
      <trkpt lat="49.32523" lon="3.32639">
        <ele>101.7</ele>
        <time>2025-10-20T12:57:56.000Z</time>
      </trkpt>
      <trkpt lat="49.32523" lon="3.32637">
        <ele>101.9</ele>
        <time>2025-10-20T12:57:57.000Z</time>
      </trkpt>
      <trkpt lat="49.32524" lon="3.32635">
        <ele>102</ele>
        <time>2025-10-20T12:57:58.000Z</time>
      </trkpt>
      <trkpt lat="49.32524" lon="3.32632">
        <ele>102.1</ele>
        <time>2025-10-20T12:57:59.000Z</time>
      </trkpt>
      <trkpt lat="49.32525" lon="3.3263">
        <ele>102.1</ele>
        <time>2025-10-20T12:58:00.000Z</time>
      </trkpt>
      <trkpt lat="49.32526" lon="3.32628">
        <ele>102.3</ele>
        <time>2025-10-20T12:58:01.000Z</time>
      </trkpt>
      <trkpt lat="49.32526" lon="3.32626">
        <ele>102.4</ele>
        <time>2025-10-20T12:58:02.000Z</time>
      </trkpt>
      <trkpt lat="49.32527" lon="3.32624">
        <ele>102.4</ele>
        <time>2025-10-20T12:58:03.000Z</time>
      </trkpt>
      <trkpt lat="49.32527" lon="3.32622">
        <ele>102.4</ele>
        <time>2025-10-20T12:58:04.000Z</time>
      </trkpt>
      <trkpt lat="49.32528" lon="3.3262">
        <ele>102.4</ele>
        <time>2025-10-20T12:58:05.000Z</time>
      </trkpt>
      <trkpt lat="49.32529" lon="3.32618">
        <ele>102.6</ele>
        <time>2025-10-20T12:58:06.000Z</time>
      </trkpt>
      <trkpt lat="49.3253" lon="3.32616">
        <ele>102.5</ele>
        <time>2025-10-20T12:58:07.000Z</time>
      </trkpt>
      <trkpt lat="49.3253" lon="3.32614">
        <ele>102.6</ele>
        <time>2025-10-20T12:58:08.000Z</time>
      </trkpt>
      <trkpt lat="49.32531" lon="3.32612">
        <ele>102.6</ele>
        <time>2025-10-20T12:58:09.000Z</time>
      </trkpt>
      <trkpt lat="49.32532" lon="3.3261">
        <ele>102.7</ele>
        <time>2025-10-20T12:58:10.000Z</time>
      </trkpt>
      <trkpt lat="49.32532" lon="3.32609">
        <ele>103.2</ele>
        <time>2025-10-20T12:58:11.000Z</time>
      </trkpt>
      <trkpt lat="49.32532" lon="3.32608">
        <ele>103.1</ele>
        <time>2025-10-20T12:58:12.000Z</time>
      </trkpt>
      <trkpt lat="49.32533" lon="3.32607">
        <ele>103</ele>
        <time>2025-10-20T12:58:13.000Z</time>
      </trkpt>
      <trkpt lat="49.32533" lon="3.32606">
        <ele>102.8</ele>
        <time>2025-10-20T12:58:14.000Z</time>
      </trkpt>
      <trkpt lat="49.32533" lon="3.32605">
        <ele>102.9</ele>
        <time>2025-10-20T12:58:15.000Z</time>
      </trkpt>
      <trkpt lat="49.32533" lon="3.32604">
        <ele>103</ele>
        <time>2025-10-20T12:58:16.000Z</time>
      </trkpt>
      <trkpt lat="49.32533" lon="3.32603">
        <ele>103.1</ele>
        <time>2025-10-20T12:58:17.000Z</time>
      </trkpt>
      <trkpt lat="49.32533" lon="3.32602">
        <ele>103.2</ele>
        <time>2025-10-20T12:58:18.000Z</time>
      </trkpt>
      <trkpt lat="49.32534" lon="3.32601">
        <ele>103.2</ele>
        <time>2025-10-20T12:58:19.000Z</time>
      </trkpt>
      <trkpt lat="49.32534" lon="3.326">
        <ele>103.4</ele>
        <time>2025-10-20T12:58:20.000Z</time>
      </trkpt>
      <trkpt lat="49.32535" lon="3.32599">
        <ele>103.5</ele>
        <time>2025-10-20T12:58:21.000Z</time>
      </trkpt>
      <trkpt lat="49.32535" lon="3.32598">
        <ele>103.3</ele>
        <time>2025-10-20T12:58:22.000Z</time>
      </trkpt>
      <trkpt lat="49.32536" lon="3.32597">
        <ele>103.5</ele>
        <time>2025-10-20T12:58:23.000Z</time>
      </trkpt>
      <trkpt lat="49.32536" lon="3.32595">
        <ele>103.3</ele>
        <time>2025-10-20T12:58:24.000Z</time>
      </trkpt>
      <trkpt lat="49.32537" lon="3.32593">
        <ele>103</ele>
        <time>2025-10-20T12:58:25.000Z</time>
      </trkpt>
      <trkpt lat="49.32537" lon="3.32591">
        <ele>103.2</ele>
        <time>2025-10-20T12:58:26.000Z</time>
      </trkpt>
      <trkpt lat="49.32538" lon="3.3259">
        <ele>103.3</ele>
        <time>2025-10-20T12:58:27.000Z</time>
      </trkpt>
      <trkpt lat="49.32539" lon="3.32588">
        <ele>103.4</ele>
        <time>2025-10-20T12:58:28.000Z</time>
      </trkpt>
      <trkpt lat="49.32539" lon="3.32586">
        <ele>103.4</ele>
        <time>2025-10-20T12:58:29.000Z</time>
      </trkpt>
      <trkpt lat="49.3254" lon="3.32585">
        <ele>103.7</ele>
        <time>2025-10-20T12:58:30.000Z</time>
      </trkpt>
      <trkpt lat="49.3254" lon="3.32584">
        <ele>104.3</ele>
        <time>2025-10-20T12:58:31.000Z</time>
      </trkpt>
      <trkpt lat="49.32541" lon="3.32583">
        <ele>105</ele>
        <time>2025-10-20T12:58:32.000Z</time>
      </trkpt>
      <trkpt lat="49.32541" lon="3.32581">
        <ele>105.2</ele>
        <time>2025-10-20T12:58:33.000Z</time>
      </trkpt>
      <trkpt lat="49.32542" lon="3.32579">
        <ele>105.4</ele>
        <time>2025-10-20T12:58:34.000Z</time>
      </trkpt>
      <trkpt lat="49.32543" lon="3.32577">
        <ele>105.1</ele>
        <time>2025-10-20T12:58:35.000Z</time>
      </trkpt>
      <trkpt lat="49.32544" lon="3.32575">
        <ele>104.8</ele>
        <time>2025-10-20T12:58:36.000Z</time>
      </trkpt>
      <trkpt lat="49.32545" lon="3.32574">
        <ele>104.4</ele>
        <time>2025-10-20T12:58:37.000Z</time>
      </trkpt>
      <trkpt lat="49.32546" lon="3.32573">
        <ele>104.3</ele>
        <time>2025-10-20T12:58:38.000Z</time>
      </trkpt>
      <trkpt lat="49.32547" lon="3.32571">
        <ele>104</ele>
        <time>2025-10-20T12:58:39.000Z</time>
      </trkpt>
      <trkpt lat="49.32548" lon="3.3257">
        <ele>104</ele>
        <time>2025-10-20T12:58:40.000Z</time>
      </trkpt>
      <trkpt lat="49.32549" lon="3.32568">
        <ele>104.1</ele>
        <time>2025-10-20T12:58:41.000Z</time>
      </trkpt>
      <trkpt lat="49.3255" lon="3.32567">
        <ele>104.1</ele>
        <time>2025-10-20T12:58:42.000Z</time>
      </trkpt>
      <trkpt lat="49.32551" lon="3.32565">
        <ele>104</ele>
        <time>2025-10-20T12:58:43.000Z</time>
      </trkpt>
      <trkpt lat="49.32552" lon="3.32563">
        <ele>104</ele>
        <time>2025-10-20T12:58:44.000Z</time>
      </trkpt>
      <trkpt lat="49.32553" lon="3.32561">
        <ele>104.3</ele>
        <time>2025-10-20T12:58:45.000Z</time>
      </trkpt>
      <trkpt lat="49.32554" lon="3.3256">
        <ele>104.6</ele>
        <time>2025-10-20T12:58:46.000Z</time>
      </trkpt>
      <trkpt lat="49.32555" lon="3.32558">
        <ele>104.9</ele>
        <time>2025-10-20T12:58:47.000Z</time>
      </trkpt>
      <trkpt lat="49.32556" lon="3.32556">
        <ele>104.8</ele>
        <time>2025-10-20T12:58:48.000Z</time>
      </trkpt>
      <trkpt lat="49.32557" lon="3.32555">
        <ele>104.7</ele>
        <time>2025-10-20T12:58:49.000Z</time>
      </trkpt>
      <trkpt lat="49.32558" lon="3.32554">
        <ele>104.7</ele>
        <time>2025-10-20T12:58:50.000Z</time>
      </trkpt>
      <trkpt lat="49.32559" lon="3.32552">
        <ele>104.6</ele>
        <time>2025-10-20T12:58:51.000Z</time>
      </trkpt>
      <trkpt lat="49.3256" lon="3.32551">
        <ele>104.3</ele>
        <time>2025-10-20T12:58:52.000Z</time>
      </trkpt>
      <trkpt lat="49.32562" lon="3.3255">
        <ele>103.8</ele>
        <time>2025-10-20T12:58:53.000Z</time>
      </trkpt>
      <trkpt lat="49.32563" lon="3.32548">
        <ele>103.3</ele>
        <time>2025-10-20T12:58:54.000Z</time>
      </trkpt>
      <trkpt lat="49.32564" lon="3.32547">
        <ele>102.8</ele>
        <time>2025-10-20T12:58:55.000Z</time>
      </trkpt>
      <trkpt lat="49.32565" lon="3.32546">
        <ele>102.3</ele>
        <time>2025-10-20T12:58:56.000Z</time>
      </trkpt>
      <trkpt lat="49.32566" lon="3.32544">
        <ele>102</ele>
        <time>2025-10-20T12:58:57.000Z</time>
      </trkpt>
      <trkpt lat="49.32567" lon="3.32543">
        <ele>101.7</ele>
        <time>2025-10-20T12:58:58.000Z</time>
      </trkpt>
      <trkpt lat="49.32568" lon="3.32543">
        <ele>101.7</ele>
        <time>2025-10-20T12:58:59.000Z</time>
      </trkpt>
      <trkpt lat="49.32569" lon="3.32542">
        <ele>101.7</ele>
        <time>2025-10-20T12:59:00.000Z</time>
      </trkpt>
      <trkpt lat="49.3257" lon="3.3254">
        <ele>101.7</ele>
        <time>2025-10-20T12:59:01.000Z</time>
      </trkpt>
      <trkpt lat="49.32571" lon="3.32539">
        <ele>101.9</ele>
        <time>2025-10-20T12:59:02.000Z</time>
      </trkpt>
      <trkpt lat="49.32572" lon="3.32538">
        <ele>102.3</ele>
        <time>2025-10-20T12:59:03.000Z</time>
      </trkpt>
      <trkpt lat="49.32573" lon="3.32537">
        <ele>102.3</ele>
        <time>2025-10-20T12:59:04.000Z</time>
      </trkpt>
      <trkpt lat="49.32573" lon="3.32535">
        <ele>102.3</ele>
        <time>2025-10-20T12:59:05.000Z</time>
      </trkpt>
      <trkpt lat="49.32574" lon="3.32534">
        <ele>102.4</ele>
        <time>2025-10-20T12:59:06.000Z</time>
      </trkpt>
      <trkpt lat="49.32575" lon="3.32532">
        <ele>102.7</ele>
        <time>2025-10-20T12:59:07.000Z</time>
      </trkpt>
      <trkpt lat="49.32575" lon="3.3253">
        <ele>102.9</ele>
        <time>2025-10-20T12:59:08.000Z</time>
      </trkpt>
      <trkpt lat="49.32576" lon="3.32528">
        <ele>103</ele>
        <time>2025-10-20T12:59:09.000Z</time>
      </trkpt>
      <trkpt lat="49.32577" lon="3.32527">
        <ele>103</ele>
        <time>2025-10-20T12:59:10.000Z</time>
      </trkpt>
      <trkpt lat="49.32578" lon="3.32525">
        <ele>103</ele>
        <time>2025-10-20T12:59:11.000Z</time>
      </trkpt>
      <trkpt lat="49.32579" lon="3.32524">
        <ele>102.9</ele>
        <time>2025-10-20T12:59:12.000Z</time>
      </trkpt>
      <trkpt lat="49.3258" lon="3.32522">
        <ele>102.8</ele>
        <time>2025-10-20T12:59:13.000Z</time>
      </trkpt>
      <trkpt lat="49.32581" lon="3.3252">
        <ele>102.6</ele>
        <time>2025-10-20T12:59:14.000Z</time>
      </trkpt>
      <trkpt lat="49.32582" lon="3.32519">
        <ele>102.5</ele>
        <time>2025-10-20T12:59:15.000Z</time>
      </trkpt>
      <trkpt lat="49.32583" lon="3.32517">
        <ele>101.9</ele>
        <time>2025-10-20T12:59:16.000Z</time>
      </trkpt>
      <trkpt lat="49.32585" lon="3.32515">
        <ele>101.6</ele>
        <time>2025-10-20T12:59:17.000Z</time>
      </trkpt>
      <trkpt lat="49.32586" lon="3.32513">
        <ele>101.3</ele>
        <time>2025-10-20T12:59:18.000Z</time>
      </trkpt>
      <trkpt lat="49.32587" lon="3.32512">
        <ele>101</ele>
        <time>2025-10-20T12:59:19.000Z</time>
      </trkpt>
      <trkpt lat="49.32588" lon="3.3251">
        <ele>100.7</ele>
        <time>2025-10-20T12:59:20.000Z</time>
      </trkpt>
      <trkpt lat="49.3259" lon="3.32508">
        <ele>100.6</ele>
        <time>2025-10-20T12:59:21.000Z</time>
      </trkpt>
      <trkpt lat="49.32591" lon="3.32507">
        <ele>100.7</ele>
        <time>2025-10-20T12:59:22.000Z</time>
      </trkpt>
      <trkpt lat="49.32591" lon="3.32506">
        <ele>100.7</ele>
        <time>2025-10-20T12:59:23.000Z</time>
      </trkpt>
      <trkpt lat="49.32592" lon="3.32504">
        <ele>100.5</ele>
        <time>2025-10-20T12:59:24.000Z</time>
      </trkpt>
      <trkpt lat="49.32594" lon="3.32503">
        <ele>100.4</ele>
        <time>2025-10-20T12:59:25.000Z</time>
      </trkpt>
      <trkpt lat="49.32595" lon="3.32502">
        <ele>100.4</ele>
        <time>2025-10-20T12:59:26.000Z</time>
      </trkpt>
      <trkpt lat="49.32596" lon="3.32501">
        <ele>100.4</ele>
        <time>2025-10-20T12:59:27.000Z</time>
      </trkpt>
      <trkpt lat="49.32598" lon="3.325">
        <ele>100.4</ele>
        <time>2025-10-20T12:59:28.000Z</time>
      </trkpt>
      <trkpt lat="49.32599" lon="3.32499">
        <ele>100.4</ele>
        <time>2025-10-20T12:59:29.000Z</time>
      </trkpt>
      <trkpt lat="49.32601" lon="3.32498">
        <ele>100.4</ele>
        <time>2025-10-20T12:59:30.000Z</time>
      </trkpt>
      <trkpt lat="49.32602" lon="3.32498">
        <ele>100.3</ele>
        <time>2025-10-20T12:59:31.000Z</time>
      </trkpt>
      <trkpt lat="49.32604" lon="3.32497">
        <ele>100.2</ele>
        <time>2025-10-20T12:59:32.000Z</time>
      </trkpt>
      <trkpt lat="49.32605" lon="3.32497">
        <ele>100.2</ele>
        <time>2025-10-20T12:59:33.000Z</time>
      </trkpt>
      <trkpt lat="49.32606" lon="3.32496">
        <ele>100.4</ele>
        <time>2025-10-20T12:59:34.000Z</time>
      </trkpt>
      <trkpt lat="49.32608" lon="3.32496">
        <ele>100.5</ele>
        <time>2025-10-20T12:59:35.000Z</time>
      </trkpt>
      <trkpt lat="49.32609" lon="3.32495">
        <ele>100.5</ele>
        <time>2025-10-20T12:59:36.000Z</time>
      </trkpt>
      <trkpt lat="49.3261" lon="3.32494">
        <ele>100.6</ele>
        <time>2025-10-20T12:59:37.000Z</time>
      </trkpt>
      <trkpt lat="49.32612" lon="3.32493">
        <ele>100.8</ele>
        <time>2025-10-20T12:59:38.000Z</time>
      </trkpt>
      <trkpt lat="49.32613" lon="3.32492">
        <ele>101.3</ele>
        <time>2025-10-20T12:59:39.000Z</time>
      </trkpt>
      <trkpt lat="49.32614" lon="3.32492">
        <ele>101.6</ele>
        <time>2025-10-20T12:59:40.000Z</time>
      </trkpt>
      <trkpt lat="49.32615" lon="3.32491">
        <ele>101.8</ele>
        <time>2025-10-20T12:59:41.000Z</time>
      </trkpt>
      <trkpt lat="49.32616" lon="3.3249">
        <ele>101.9</ele>
        <time>2025-10-20T12:59:42.000Z</time>
      </trkpt>
      <trkpt lat="49.32618" lon="3.3249">
        <ele>102.1</ele>
        <time>2025-10-20T12:59:43.000Z</time>
      </trkpt>
      <trkpt lat="49.32619" lon="3.32489">
        <ele>102.4</ele>
        <time>2025-10-20T12:59:44.000Z</time>
      </trkpt>
      <trkpt lat="49.3262" lon="3.32489">
        <ele>102.3</ele>
        <time>2025-10-20T12:59:45.000Z</time>
      </trkpt>
      <trkpt lat="49.32622" lon="3.32488">
        <ele>102.3</ele>
        <time>2025-10-20T12:59:46.000Z</time>
      </trkpt>
      <trkpt lat="49.32623" lon="3.32488">
        <ele>102.3</ele>
        <time>2025-10-20T12:59:47.000Z</time>
      </trkpt>
      <trkpt lat="49.32625" lon="3.32487">
        <ele>102.2</ele>
        <time>2025-10-20T12:59:48.000Z</time>
      </trkpt>
      <trkpt lat="49.32626" lon="3.32486">
        <ele>102.1</ele>
        <time>2025-10-20T12:59:49.000Z</time>
      </trkpt>
      <trkpt lat="49.32627" lon="3.32486">
        <ele>102.2</ele>
        <time>2025-10-20T12:59:50.000Z</time>
      </trkpt>
      <trkpt lat="49.32628" lon="3.32486">
        <ele>102.5</ele>
        <time>2025-10-20T12:59:51.000Z</time>
      </trkpt>
      <trkpt lat="49.3263" lon="3.32485">
        <ele>102.5</ele>
        <time>2025-10-20T12:59:52.000Z</time>
      </trkpt>
      <trkpt lat="49.32631" lon="3.32484">
        <ele>102.5</ele>
        <time>2025-10-20T12:59:53.000Z</time>
      </trkpt>
      <trkpt lat="49.32633" lon="3.32483">
        <ele>102.3</ele>
        <time>2025-10-20T12:59:54.000Z</time>
      </trkpt>
      <trkpt lat="49.32634" lon="3.32483">
        <ele>102.2</ele>
        <time>2025-10-20T12:59:55.000Z</time>
      </trkpt>
      <trkpt lat="49.32636" lon="3.32482">
        <ele>102.1</ele>
        <time>2025-10-20T12:59:56.000Z</time>
      </trkpt>
      <trkpt lat="49.32637" lon="3.32481">
        <ele>101.8</ele>
        <time>2025-10-20T12:59:57.000Z</time>
      </trkpt>
      <trkpt lat="49.32638" lon="3.3248">
        <ele>101.6</ele>
        <time>2025-10-20T12:59:58.000Z</time>
      </trkpt>
      <trkpt lat="49.3264" lon="3.3248">
        <ele>101.7</ele>
        <time>2025-10-20T12:59:59.000Z</time>
      </trkpt>
      <trkpt lat="49.32641" lon="3.32479">
        <ele>101.7</ele>
        <time>2025-10-20T13:00:00.000Z</time>
      </trkpt>
      <trkpt lat="49.32642" lon="3.32479">
        <ele>101.5</ele>
        <time>2025-10-20T13:00:01.000Z</time>
      </trkpt>
      <trkpt lat="49.32644" lon="3.32478">
        <ele>101.4</ele>
        <time>2025-10-20T13:00:02.000Z</time>
      </trkpt>
      <trkpt lat="49.32645" lon="3.32477">
        <ele>101.3</ele>
        <time>2025-10-20T13:00:03.000Z</time>
      </trkpt>
      <trkpt lat="49.32646" lon="3.32477">
        <ele>101.2</ele>
        <time>2025-10-20T13:00:04.000Z</time>
      </trkpt>
      <trkpt lat="49.32648" lon="3.32476">
        <ele>101.1</ele>
        <time>2025-10-20T13:00:05.000Z</time>
      </trkpt>
      <trkpt lat="49.32649" lon="3.32475">
        <ele>101.1</ele>
        <time>2025-10-20T13:00:06.000Z</time>
      </trkpt>
      <trkpt lat="49.3265" lon="3.32475">
        <ele>101</ele>
        <time>2025-10-20T13:00:07.000Z</time>
      </trkpt>
      <trkpt lat="49.32652" lon="3.32474">
        <ele>100.9</ele>
        <time>2025-10-20T13:00:08.000Z</time>
      </trkpt>
      <trkpt lat="49.32653" lon="3.32474">
        <ele>100.7</ele>
        <time>2025-10-20T13:00:09.000Z</time>
      </trkpt>
      <trkpt lat="49.32655" lon="3.32474">
        <ele>100.5</ele>
        <time>2025-10-20T13:00:10.000Z</time>
      </trkpt>
      <trkpt lat="49.32656" lon="3.32473">
        <ele>100.4</ele>
        <time>2025-10-20T13:00:11.000Z</time>
      </trkpt>
      <trkpt lat="49.32658" lon="3.32472">
        <ele>100.2</ele>
        <time>2025-10-20T13:00:12.000Z</time>
      </trkpt>
      <trkpt lat="49.32659" lon="3.32472">
        <ele>100.2</ele>
        <time>2025-10-20T13:00:13.000Z</time>
      </trkpt>
      <trkpt lat="49.3266" lon="3.32471">
        <ele>100.2</ele>
        <time>2025-10-20T13:00:14.000Z</time>
      </trkpt>
      <trkpt lat="49.32662" lon="3.32471">
        <ele>100.2</ele>
        <time>2025-10-20T13:00:15.000Z</time>
      </trkpt>
      <trkpt lat="49.32663" lon="3.3247">
        <ele>100.1</ele>
        <time>2025-10-20T13:00:16.000Z</time>
      </trkpt>
      <trkpt lat="49.32664" lon="3.32469">
        <ele>100.2</ele>
        <time>2025-10-20T13:00:17.000Z</time>
      </trkpt>
      <trkpt lat="49.32666" lon="3.32468">
        <ele>100.5</ele>
        <time>2025-10-20T13:00:18.000Z</time>
      </trkpt>
      <trkpt lat="49.32668" lon="3.32467">
        <ele>100.4</ele>
        <time>2025-10-20T13:00:19.000Z</time>
      </trkpt>
      <trkpt lat="49.32668" lon="3.32466">
        <ele>100.6</ele>
        <time>2025-10-20T13:00:20.000Z</time>
      </trkpt>
      <trkpt lat="49.32669" lon="3.32465">
        <ele>100.4</ele>
        <time>2025-10-20T13:00:21.000Z</time>
      </trkpt>
      <trkpt lat="49.3267" lon="3.32464">
        <ele>100.6</ele>
        <time>2025-10-20T13:00:22.000Z</time>
      </trkpt>
      <trkpt lat="49.32671" lon="3.32463">
        <ele>100.7</ele>
        <time>2025-10-20T13:00:23.000Z</time>
      </trkpt>
      <trkpt lat="49.32672" lon="3.32461">
        <ele>100.8</ele>
        <time>2025-10-20T13:00:24.000Z</time>
      </trkpt>
      <trkpt lat="49.32673" lon="3.3246">
        <ele>100.9</ele>
        <time>2025-10-20T13:00:25.000Z</time>
      </trkpt>
      <trkpt lat="49.32674" lon="3.32459">
        <ele>100.9</ele>
        <time>2025-10-20T13:00:26.000Z</time>
      </trkpt>
      <trkpt lat="49.32674" lon="3.32457">
        <ele>101.1</ele>
        <time>2025-10-20T13:00:27.000Z</time>
      </trkpt>
      <trkpt lat="49.32675" lon="3.32455">
        <ele>101.3</ele>
        <time>2025-10-20T13:00:28.000Z</time>
      </trkpt>
      <trkpt lat="49.32676" lon="3.32454">
        <ele>101.4</ele>
        <time>2025-10-20T13:00:29.000Z</time>
      </trkpt>
      <trkpt lat="49.32677" lon="3.32452">
        <ele>101.5</ele>
        <time>2025-10-20T13:00:30.000Z</time>
      </trkpt>
      <trkpt lat="49.32677" lon="3.3245">
        <ele>101.6</ele>
        <time>2025-10-20T13:00:31.000Z</time>
      </trkpt>
      <trkpt lat="49.32678" lon="3.32448">
        <ele>101.9</ele>
        <time>2025-10-20T13:00:32.000Z</time>
      </trkpt>
      <trkpt lat="49.32679" lon="3.32446">
        <ele>102.1</ele>
        <time>2025-10-20T13:00:33.000Z</time>
      </trkpt>
      <trkpt lat="49.3268" lon="3.32444">
        <ele>102.2</ele>
        <time>2025-10-20T13:00:34.000Z</time>
      </trkpt>
      <trkpt lat="49.32681" lon="3.32441">
        <ele>102.2</ele>
        <time>2025-10-20T13:00:35.000Z</time>
      </trkpt>
      <trkpt lat="49.32681" lon="3.3244">
        <ele>102.2</ele>
        <time>2025-10-20T13:00:36.000Z</time>
      </trkpt>
      <trkpt lat="49.32682" lon="3.32438">
        <ele>102</ele>
        <time>2025-10-20T13:00:37.000Z</time>
      </trkpt>
      <trkpt lat="49.32683" lon="3.32436">
        <ele>102.1</ele>
        <time>2025-10-20T13:00:38.000Z</time>
      </trkpt>
      <trkpt lat="49.32684" lon="3.32434">
        <ele>102.2</ele>
        <time>2025-10-20T13:00:39.000Z</time>
      </trkpt>
      <trkpt lat="49.32685" lon="3.32432">
        <ele>102.1</ele>
        <time>2025-10-20T13:00:40.000Z</time>
      </trkpt>
      <trkpt lat="49.32686" lon="3.32431">
        <ele>102.2</ele>
        <time>2025-10-20T13:00:41.000Z</time>
      </trkpt>
      <trkpt lat="49.32686" lon="3.32429">
        <ele>102.2</ele>
        <time>2025-10-20T13:00:42.000Z</time>
      </trkpt>
      <trkpt lat="49.32687" lon="3.32427">
        <ele>102.4</ele>
        <time>2025-10-20T13:00:43.000Z</time>
      </trkpt>
      <trkpt lat="49.32688" lon="3.32425">
        <ele>102.5</ele>
        <time>2025-10-20T13:00:44.000Z</time>
      </trkpt>
      <trkpt lat="49.32689" lon="3.32423">
        <ele>102.7</ele>
        <time>2025-10-20T13:00:45.000Z</time>
      </trkpt>
      <trkpt lat="49.32689" lon="3.32421">
        <ele>102.8</ele>
        <time>2025-10-20T13:00:46.000Z</time>
      </trkpt>
      <trkpt lat="49.3269" lon="3.32419">
        <ele>103.2</ele>
        <time>2025-10-20T13:00:47.000Z</time>
      </trkpt>
      <trkpt lat="49.32691" lon="3.32417">
        <ele>103.3</ele>
        <time>2025-10-20T13:00:48.000Z</time>
      </trkpt>
      <trkpt lat="49.32692" lon="3.32415">
        <ele>103.2</ele>
        <time>2025-10-20T13:00:49.000Z</time>
      </trkpt>
      <trkpt lat="49.32693" lon="3.32413">
        <ele>103.3</ele>
        <time>2025-10-20T13:00:50.000Z</time>
      </trkpt>
      <trkpt lat="49.32693" lon="3.32411">
        <ele>103.6</ele>
        <time>2025-10-20T13:00:51.000Z</time>
      </trkpt>
      <trkpt lat="49.32694" lon="3.32409">
        <ele>103.9</ele>
        <time>2025-10-20T13:00:52.000Z</time>
      </trkpt>
      <trkpt lat="49.32695" lon="3.32407">
        <ele>104</ele>
        <time>2025-10-20T13:00:53.000Z</time>
      </trkpt>
      <trkpt lat="49.32696" lon="3.32405">
        <ele>104.2</ele>
        <time>2025-10-20T13:00:54.000Z</time>
      </trkpt>
      <trkpt lat="49.32697" lon="3.32403">
        <ele>104.7</ele>
        <time>2025-10-20T13:00:55.000Z</time>
      </trkpt>
      <trkpt lat="49.32698" lon="3.32401">
        <ele>104.9</ele>
        <time>2025-10-20T13:00:56.000Z</time>
      </trkpt>
      <trkpt lat="49.32699" lon="3.32399">
        <ele>105</ele>
        <time>2025-10-20T13:00:57.000Z</time>
      </trkpt>
      <trkpt lat="49.327" lon="3.32397">
        <ele>105.2</ele>
        <time>2025-10-20T13:00:58.000Z</time>
      </trkpt>
      <trkpt lat="49.32701" lon="3.32395">
        <ele>105</ele>
        <time>2025-10-20T13:00:59.000Z</time>
      </trkpt>
      <trkpt lat="49.32702" lon="3.32393">
        <ele>104.8</ele>
        <time>2025-10-20T13:01:00.000Z</time>
      </trkpt>
      <trkpt lat="49.32703" lon="3.32391">
        <ele>104.8</ele>
        <time>2025-10-20T13:01:01.000Z</time>
      </trkpt>
      <trkpt lat="49.32704" lon="3.3239">
        <ele>105.1</ele>
        <time>2025-10-20T13:01:02.000Z</time>
      </trkpt>
      <trkpt lat="49.32705" lon="3.32388">
        <ele>105.3</ele>
        <time>2025-10-20T13:01:03.000Z</time>
      </trkpt>
      <trkpt lat="49.32706" lon="3.32386">
        <ele>105.6</ele>
        <time>2025-10-20T13:01:04.000Z</time>
      </trkpt>
      <trkpt lat="49.32706" lon="3.32384">
        <ele>105.5</ele>
        <time>2025-10-20T13:01:05.000Z</time>
      </trkpt>
      <trkpt lat="49.32707" lon="3.32382">
        <ele>105.4</ele>
        <time>2025-10-20T13:01:06.000Z</time>
      </trkpt>
      <trkpt lat="49.32707" lon="3.32381">
        <ele>105.6</ele>
        <time>2025-10-20T13:01:07.000Z</time>
      </trkpt>
      <trkpt lat="49.32708" lon="3.32379">
        <ele>106.1</ele>
        <time>2025-10-20T13:01:08.000Z</time>
      </trkpt>
      <trkpt lat="49.32708" lon="3.32377">
        <ele>106.2</ele>
        <time>2025-10-20T13:01:09.000Z</time>
      </trkpt>
      <trkpt lat="49.32709" lon="3.32375">
        <ele>106.5</ele>
        <time>2025-10-20T13:01:10.000Z</time>
      </trkpt>
      <trkpt lat="49.3271" lon="3.32373">
        <ele>106.5</ele>
        <time>2025-10-20T13:01:11.000Z</time>
      </trkpt>
      <trkpt lat="49.3271" lon="3.32371">
        <ele>106.3</ele>
        <time>2025-10-20T13:01:12.000Z</time>
      </trkpt>
      <trkpt lat="49.32711" lon="3.32369">
        <ele>106.2</ele>
        <time>2025-10-20T13:01:13.000Z</time>
      </trkpt>
      <trkpt lat="49.32712" lon="3.32367">
        <ele>106.2</ele>
        <time>2025-10-20T13:01:14.000Z</time>
      </trkpt>
      <trkpt lat="49.32713" lon="3.32365">
        <ele>106.3</ele>
        <time>2025-10-20T13:01:15.000Z</time>
      </trkpt>
      <trkpt lat="49.32713" lon="3.32363">
        <ele>106.3</ele>
        <time>2025-10-20T13:01:16.000Z</time>
      </trkpt>
      <trkpt lat="49.32714" lon="3.32361">
        <ele>106.5</ele>
        <time>2025-10-20T13:01:17.000Z</time>
      </trkpt>
      <trkpt lat="49.32715" lon="3.32359">
        <ele>106.5</ele>
        <time>2025-10-20T13:01:18.000Z</time>
      </trkpt>
      <trkpt lat="49.32716" lon="3.32357">
        <ele>106.6</ele>
        <time>2025-10-20T13:01:19.000Z</time>
      </trkpt>
      <trkpt lat="49.32716" lon="3.32355">
        <ele>106.6</ele>
        <time>2025-10-20T13:01:20.000Z</time>
      </trkpt>
      <trkpt lat="49.32717" lon="3.32354">
        <ele>106.5</ele>
        <time>2025-10-20T13:01:21.000Z</time>
      </trkpt>
      <trkpt lat="49.32718" lon="3.32351">
        <ele>106.5</ele>
        <time>2025-10-20T13:01:22.000Z</time>
      </trkpt>
      <trkpt lat="49.32719" lon="3.3235">
        <ele>106.4</ele>
        <time>2025-10-20T13:01:23.000Z</time>
      </trkpt>
      <trkpt lat="49.32719" lon="3.32348">
        <ele>106.3</ele>
        <time>2025-10-20T13:01:24.000Z</time>
      </trkpt>
      <trkpt lat="49.3272" lon="3.32346">
        <ele>106.2</ele>
        <time>2025-10-20T13:01:25.000Z</time>
      </trkpt>
      <trkpt lat="49.3272" lon="3.32344">
        <ele>105.9</ele>
        <time>2025-10-20T13:01:26.000Z</time>
      </trkpt>
      <trkpt lat="49.32721" lon="3.32343">
        <ele>105.7</ele>
        <time>2025-10-20T13:01:27.000Z</time>
      </trkpt>
      <trkpt lat="49.32722" lon="3.32341">
        <ele>105.6</ele>
        <time>2025-10-20T13:01:28.000Z</time>
      </trkpt>
      <trkpt lat="49.32722" lon="3.32339">
        <ele>105.7</ele>
        <time>2025-10-20T13:01:29.000Z</time>
      </trkpt>
      <trkpt lat="49.32723" lon="3.32337">
        <ele>105.7</ele>
        <time>2025-10-20T13:01:30.000Z</time>
      </trkpt>
      <trkpt lat="49.32724" lon="3.32335">
        <ele>105.7</ele>
        <time>2025-10-20T13:01:31.000Z</time>
      </trkpt>
      <trkpt lat="49.32724" lon="3.32332">
        <ele>105.7</ele>
        <time>2025-10-20T13:01:32.000Z</time>
      </trkpt>
      <trkpt lat="49.32725" lon="3.3233">
        <ele>105.5</ele>
        <time>2025-10-20T13:01:33.000Z</time>
      </trkpt>
      <trkpt lat="49.32726" lon="3.32328">
        <ele>105.4</ele>
        <time>2025-10-20T13:01:34.000Z</time>
      </trkpt>
      <trkpt lat="49.32726" lon="3.32326">
        <ele>105.4</ele>
        <time>2025-10-20T13:01:35.000Z</time>
      </trkpt>
      <trkpt lat="49.32727" lon="3.32324">
        <ele>105.4</ele>
        <time>2025-10-20T13:01:36.000Z</time>
      </trkpt>
      <trkpt lat="49.32728" lon="3.32322">
        <ele>105.3</ele>
        <time>2025-10-20T13:01:37.000Z</time>
      </trkpt>
      <trkpt lat="49.32729" lon="3.32321">
        <ele>105.3</ele>
        <time>2025-10-20T13:01:38.000Z</time>
      </trkpt>
      <trkpt lat="49.3273" lon="3.32319">
        <ele>105.4</ele>
        <time>2025-10-20T13:01:39.000Z</time>
      </trkpt>
      <trkpt lat="49.32731" lon="3.32317">
        <ele>105.6</ele>
        <time>2025-10-20T13:01:40.000Z</time>
      </trkpt>
      <trkpt lat="49.32731" lon="3.32315">
        <ele>105.7</ele>
        <time>2025-10-20T13:01:41.000Z</time>
      </trkpt>
      <trkpt lat="49.32732" lon="3.32313">
        <ele>105.8</ele>
        <time>2025-10-20T13:01:42.000Z</time>
      </trkpt>
      <trkpt lat="49.32732" lon="3.32311">
        <ele>105.9</ele>
        <time>2025-10-20T13:01:43.000Z</time>
      </trkpt>
      <trkpt lat="49.32733" lon="3.32308">
        <ele>105.8</ele>
        <time>2025-10-20T13:01:44.000Z</time>
      </trkpt>
      <trkpt lat="49.32734" lon="3.32306">
        <ele>105.6</ele>
        <time>2025-10-20T13:01:45.000Z</time>
      </trkpt>
      <trkpt lat="49.32734" lon="3.32304">
        <ele>105.6</ele>
        <time>2025-10-20T13:01:46.000Z</time>
      </trkpt>
      <trkpt lat="49.32735" lon="3.32302">
        <ele>105.8</ele>
        <time>2025-10-20T13:01:47.000Z</time>
      </trkpt>
      <trkpt lat="49.32735" lon="3.323">
        <ele>106</ele>
        <time>2025-10-20T13:01:48.000Z</time>
      </trkpt>
      <trkpt lat="49.32735" lon="3.32297">
        <ele>106</ele>
        <time>2025-10-20T13:01:49.000Z</time>
      </trkpt>
      <trkpt lat="49.32735" lon="3.32295">
        <ele>106.2</ele>
        <time>2025-10-20T13:01:50.000Z</time>
      </trkpt>
      <trkpt lat="49.32735" lon="3.32293">
        <ele>106.1</ele>
        <time>2025-10-20T13:01:51.000Z</time>
      </trkpt>
      <trkpt lat="49.32735" lon="3.32291">
        <ele>106.3</ele>
        <time>2025-10-20T13:01:52.000Z</time>
      </trkpt>
      <trkpt lat="49.32735" lon="3.32289">
        <ele>106.7</ele>
        <time>2025-10-20T13:01:53.000Z</time>
      </trkpt>
      <trkpt lat="49.32735" lon="3.32286">
        <ele>106.8</ele>
        <time>2025-10-20T13:01:54.000Z</time>
      </trkpt>
      <trkpt lat="49.32734" lon="3.32285">
        <ele>107</ele>
        <time>2025-10-20T13:01:55.000Z</time>
      </trkpt>
      <trkpt lat="49.32733" lon="3.32283">
        <ele>107.2</ele>
        <time>2025-10-20T13:01:56.000Z</time>
      </trkpt>
      <trkpt lat="49.32733" lon="3.32281">
        <ele>107.2</ele>
        <time>2025-10-20T13:01:57.000Z</time>
      </trkpt>
      <trkpt lat="49.32732" lon="3.32279">
        <ele>107.4</ele>
        <time>2025-10-20T13:01:58.000Z</time>
      </trkpt>
      <trkpt lat="49.32731" lon="3.32277">
        <ele>107.5</ele>
        <time>2025-10-20T13:01:59.000Z</time>
      </trkpt>
      <trkpt lat="49.3273" lon="3.32275">
        <ele>107.8</ele>
        <time>2025-10-20T13:02:00.000Z</time>
      </trkpt>
      <trkpt lat="49.32729" lon="3.32274">
        <ele>108.2</ele>
        <time>2025-10-20T13:02:01.000Z</time>
      </trkpt>
      <trkpt lat="49.32728" lon="3.32273">
        <ele>108.6</ele>
        <time>2025-10-20T13:02:02.000Z</time>
      </trkpt>
      <trkpt lat="49.32727" lon="3.32271">
        <ele>108.7</ele>
        <time>2025-10-20T13:02:03.000Z</time>
      </trkpt>
      <trkpt lat="49.32726" lon="3.32269">
        <ele>109</ele>
        <time>2025-10-20T13:02:04.000Z</time>
      </trkpt>
      <trkpt lat="49.32726" lon="3.32268">
        <ele>109.3</ele>
        <time>2025-10-20T13:02:05.000Z</time>
      </trkpt>
      <trkpt lat="49.32724" lon="3.32267">
        <ele>109.7</ele>
        <time>2025-10-20T13:02:06.000Z</time>
      </trkpt>
      <trkpt lat="49.32724" lon="3.32266">
        <ele>110</ele>
        <time>2025-10-20T13:02:07.000Z</time>
      </trkpt>
      <trkpt lat="49.32723" lon="3.32264">
        <ele>110.4</ele>
        <time>2025-10-20T13:02:08.000Z</time>
      </trkpt>
      <trkpt lat="49.32721" lon="3.32264">
        <ele>110.7</ele>
        <time>2025-10-20T13:02:09.000Z</time>
      </trkpt>
      <trkpt lat="49.3272" lon="3.32262">
        <ele>110.8</ele>
        <time>2025-10-20T13:02:10.000Z</time>
      </trkpt>
      <trkpt lat="49.32719" lon="3.32261">
        <ele>110.9</ele>
        <time>2025-10-20T13:02:11.000Z</time>
      </trkpt>
      <trkpt lat="49.32718" lon="3.3226">
        <ele>111.1</ele>
        <time>2025-10-20T13:02:12.000Z</time>
      </trkpt>
      <trkpt lat="49.32717" lon="3.32258">
        <ele>111.2</ele>
        <time>2025-10-20T13:02:13.000Z</time>
      </trkpt>
      <trkpt lat="49.32716" lon="3.32256">
        <ele>111.3</ele>
        <time>2025-10-20T13:02:14.000Z</time>
      </trkpt>
      <trkpt lat="49.32715" lon="3.32254">
        <ele>111.2</ele>
        <time>2025-10-20T13:02:15.000Z</time>
      </trkpt>
      <trkpt lat="49.32714" lon="3.32253">
        <ele>111.2</ele>
        <time>2025-10-20T13:02:16.000Z</time>
      </trkpt>
      <trkpt lat="49.32713" lon="3.32252">
        <ele>111.5</ele>
        <time>2025-10-20T13:02:17.000Z</time>
      </trkpt>
      <trkpt lat="49.32711" lon="3.32251">
        <ele>111.7</ele>
        <time>2025-10-20T13:02:18.000Z</time>
      </trkpt>
      <trkpt lat="49.3271" lon="3.3225">
        <ele>111.9</ele>
        <time>2025-10-20T13:02:19.000Z</time>
      </trkpt>
      <trkpt lat="49.32709" lon="3.32248">
        <ele>111.8</ele>
        <time>2025-10-20T13:02:20.000Z</time>
      </trkpt>
      <trkpt lat="49.32708" lon="3.32246">
        <ele>111.9</ele>
        <time>2025-10-20T13:02:21.000Z</time>
      </trkpt>
      <trkpt lat="49.32707" lon="3.32245">
        <ele>112.3</ele>
        <time>2025-10-20T13:02:22.000Z</time>
      </trkpt>
      <trkpt lat="49.32706" lon="3.32244">
        <ele>112.8</ele>
        <time>2025-10-20T13:02:23.000Z</time>
      </trkpt>
      <trkpt lat="49.32705" lon="3.32243">
        <ele>113.2</ele>
        <time>2025-10-20T13:02:24.000Z</time>
      </trkpt>
      <trkpt lat="49.32704" lon="3.32242">
        <ele>113.4</ele>
        <time>2025-10-20T13:02:25.000Z</time>
      </trkpt>
      <trkpt lat="49.32703" lon="3.3224">
        <ele>113.5</ele>
        <time>2025-10-20T13:02:26.000Z</time>
      </trkpt>
      <trkpt lat="49.32701" lon="3.32239">
        <ele>113.7</ele>
        <time>2025-10-20T13:02:27.000Z</time>
      </trkpt>
      <trkpt lat="49.327" lon="3.32237">
        <ele>113.6</ele>
        <time>2025-10-20T13:02:28.000Z</time>
      </trkpt>
      <trkpt lat="49.32699" lon="3.32235">
        <ele>113.3</ele>
        <time>2025-10-20T13:02:29.000Z</time>
      </trkpt>
      <trkpt lat="49.32697" lon="3.32234">
        <ele>113.1</ele>
        <time>2025-10-20T13:02:30.000Z</time>
      </trkpt>
      <trkpt lat="49.32697" lon="3.32232">
        <ele>113</ele>
        <time>2025-10-20T13:02:31.000Z</time>
      </trkpt>
      <trkpt lat="49.32696" lon="3.32231">
        <ele>113.1</ele>
        <time>2025-10-20T13:02:32.000Z</time>
      </trkpt>
      <trkpt lat="49.32695" lon="3.32229">
        <ele>113.1</ele>
        <time>2025-10-20T13:02:33.000Z</time>
      </trkpt>
      <trkpt lat="49.32694" lon="3.32228">
        <ele>113.1</ele>
        <time>2025-10-20T13:02:34.000Z</time>
      </trkpt>
      <trkpt lat="49.32693" lon="3.32227">
        <ele>113.4</ele>
        <time>2025-10-20T13:02:35.000Z</time>
      </trkpt>
      <trkpt lat="49.32692" lon="3.32225">
        <ele>113.4</ele>
        <time>2025-10-20T13:02:36.000Z</time>
      </trkpt>
      <trkpt lat="49.32691" lon="3.32224">
        <ele>113.6</ele>
        <time>2025-10-20T13:02:37.000Z</time>
      </trkpt>
      <trkpt lat="49.3269" lon="3.32223">
        <ele>113.9</ele>
        <time>2025-10-20T13:02:38.000Z</time>
      </trkpt>
      <trkpt lat="49.32689" lon="3.32221">
        <ele>114.2</ele>
        <time>2025-10-20T13:02:39.000Z</time>
      </trkpt>
      <trkpt lat="49.32688" lon="3.3222">
        <ele>114.4</ele>
        <time>2025-10-20T13:02:40.000Z</time>
      </trkpt>
      <trkpt lat="49.32687" lon="3.32219">
        <ele>114.7</ele>
        <time>2025-10-20T13:02:41.000Z</time>
      </trkpt>
      <trkpt lat="49.32685" lon="3.32217">
        <ele>114.7</ele>
        <time>2025-10-20T13:02:42.000Z</time>
      </trkpt>
      <trkpt lat="49.32684" lon="3.32215">
        <ele>114.7</ele>
        <time>2025-10-20T13:02:43.000Z</time>
      </trkpt>
      <trkpt lat="49.32683" lon="3.32213">
        <ele>114.8</ele>
        <time>2025-10-20T13:02:44.000Z</time>
      </trkpt>
      <trkpt lat="49.32682" lon="3.32211">
        <ele>114.9</ele>
        <time>2025-10-20T13:02:45.000Z</time>
      </trkpt>
      <trkpt lat="49.32681" lon="3.3221">
        <ele>114.7</ele>
        <time>2025-10-20T13:02:46.000Z</time>
      </trkpt>
      <trkpt lat="49.32679" lon="3.32208">
        <ele>114.4</ele>
        <time>2025-10-20T13:02:47.000Z</time>
      </trkpt>
      <trkpt lat="49.32678" lon="3.32206">
        <ele>114.2</ele>
        <time>2025-10-20T13:02:48.000Z</time>
      </trkpt>
      <trkpt lat="49.32677" lon="3.32204">
        <ele>113.5</ele>
        <time>2025-10-20T13:02:49.000Z</time>
      </trkpt>
      <trkpt lat="49.32676" lon="3.32201">
        <ele>112.8</ele>
        <time>2025-10-20T13:02:50.000Z</time>
      </trkpt>
      <trkpt lat="49.32675" lon="3.322">
        <ele>112.4</ele>
        <time>2025-10-20T13:02:51.000Z</time>
      </trkpt>
      <trkpt lat="49.32674" lon="3.32198">
        <ele>112.1</ele>
        <time>2025-10-20T13:02:52.000Z</time>
      </trkpt>
      <trkpt lat="49.32673" lon="3.32197">
        <ele>112</ele>
        <time>2025-10-20T13:02:53.000Z</time>
      </trkpt>
      <trkpt lat="49.32672" lon="3.32195">
        <ele>111.6</ele>
        <time>2025-10-20T13:02:54.000Z</time>
      </trkpt>
      <trkpt lat="49.32671" lon="3.32194">
        <ele>111.4</ele>
        <time>2025-10-20T13:02:55.000Z</time>
      </trkpt>
      <trkpt lat="49.3267" lon="3.32193">
        <ele>111.4</ele>
        <time>2025-10-20T13:02:56.000Z</time>
      </trkpt>
      <trkpt lat="49.32669" lon="3.32191">
        <ele>111.3</ele>
        <time>2025-10-20T13:02:57.000Z</time>
      </trkpt>
      <trkpt lat="49.32668" lon="3.3219">
        <ele>111.4</ele>
        <time>2025-10-20T13:02:58.000Z</time>
      </trkpt>
      <trkpt lat="49.32667" lon="3.32188">
        <ele>111.6</ele>
        <time>2025-10-20T13:02:59.000Z</time>
      </trkpt>
      <trkpt lat="49.32666" lon="3.32187">
        <ele>111.9</ele>
        <time>2025-10-20T13:03:00.000Z</time>
      </trkpt>
      <trkpt lat="49.32665" lon="3.32186">
        <ele>112.3</ele>
        <time>2025-10-20T13:03:01.000Z</time>
      </trkpt>
      <trkpt lat="49.32665" lon="3.32184">
        <ele>112.8</ele>
        <time>2025-10-20T13:03:02.000Z</time>
      </trkpt>
      <trkpt lat="49.32664" lon="3.32183">
        <ele>113.3</ele>
        <time>2025-10-20T13:03:03.000Z</time>
      </trkpt>
      <trkpt lat="49.32663" lon="3.32181">
        <ele>113.7</ele>
        <time>2025-10-20T13:03:04.000Z</time>
      </trkpt>
      <trkpt lat="49.32662" lon="3.3218">
        <ele>114</ele>
        <time>2025-10-20T13:03:05.000Z</time>
      </trkpt>
      <trkpt lat="49.32662" lon="3.32178">
        <ele>114.3</ele>
        <time>2025-10-20T13:03:06.000Z</time>
      </trkpt>
      <trkpt lat="49.32661" lon="3.32176">
        <ele>114.5</ele>
        <time>2025-10-20T13:03:07.000Z</time>
      </trkpt>
      <trkpt lat="49.3266" lon="3.32175">
        <ele>114.6</ele>
        <time>2025-10-20T13:03:08.000Z</time>
      </trkpt>
      <trkpt lat="49.32659" lon="3.32173">
        <ele>114.5</ele>
        <time>2025-10-20T13:03:09.000Z</time>
      </trkpt>
      <trkpt lat="49.32658" lon="3.32171">
        <ele>114.5</ele>
        <time>2025-10-20T13:03:10.000Z</time>
      </trkpt>
      <trkpt lat="49.32657" lon="3.3217">
        <ele>114.5</ele>
        <time>2025-10-20T13:03:11.000Z</time>
      </trkpt>
      <trkpt lat="49.32656" lon="3.32168">
        <ele>114.7</ele>
        <time>2025-10-20T13:03:12.000Z</time>
      </trkpt>
      <trkpt lat="49.32656" lon="3.32166">
        <ele>114.6</ele>
        <time>2025-10-20T13:03:13.000Z</time>
      </trkpt>
      <trkpt lat="49.32655" lon="3.32165">
        <ele>114.6</ele>
        <time>2025-10-20T13:03:14.000Z</time>
      </trkpt>
      <trkpt lat="49.32655" lon="3.32164">
        <ele>114.7</ele>
        <time>2025-10-20T13:03:15.000Z</time>
      </trkpt>
      <trkpt lat="49.32654" lon="3.32162">
        <ele>114.9</ele>
        <time>2025-10-20T13:03:16.000Z</time>
      </trkpt>
      <trkpt lat="49.32654" lon="3.3216">
        <ele>115.2</ele>
        <time>2025-10-20T13:03:17.000Z</time>
      </trkpt>
      <trkpt lat="49.32654" lon="3.32159">
        <ele>115.6</ele>
        <time>2025-10-20T13:03:18.000Z</time>
      </trkpt>
      <trkpt lat="49.32653" lon="3.32157">
        <ele>116</ele>
        <time>2025-10-20T13:03:19.000Z</time>
      </trkpt>
      <trkpt lat="49.32652" lon="3.32156">
        <ele>116.6</ele>
        <time>2025-10-20T13:03:20.000Z</time>
      </trkpt>
      <trkpt lat="49.32651" lon="3.32154">
        <ele>116.9</ele>
        <time>2025-10-20T13:03:21.000Z</time>
      </trkpt>
      <trkpt lat="49.3265" lon="3.32151">
        <ele>116.8</ele>
        <time>2025-10-20T13:03:22.000Z</time>
      </trkpt>
      <trkpt lat="49.32649" lon="3.32149">
        <ele>116.7</ele>
        <time>2025-10-20T13:03:23.000Z</time>
      </trkpt>
      <trkpt lat="49.32648" lon="3.32147">
        <ele>116.7</ele>
        <time>2025-10-20T13:03:24.000Z</time>
      </trkpt>
      <trkpt lat="49.32647" lon="3.32145">
        <ele>116.7</ele>
        <time>2025-10-20T13:03:25.000Z</time>
      </trkpt>
      <trkpt lat="49.32646" lon="3.32143">
        <ele>116.9</ele>
        <time>2025-10-20T13:03:26.000Z</time>
      </trkpt>
      <trkpt lat="49.32644" lon="3.32141">
        <ele>116.6</ele>
        <time>2025-10-20T13:03:27.000Z</time>
      </trkpt>
      <trkpt lat="49.32643" lon="3.32139">
        <ele>116.3</ele>
        <time>2025-10-20T13:03:28.000Z</time>
      </trkpt>
      <trkpt lat="49.32642" lon="3.32137">
        <ele>116.1</ele>
        <time>2025-10-20T13:03:29.000Z</time>
      </trkpt>
      <trkpt lat="49.32641" lon="3.32135">
        <ele>115.9</ele>
        <time>2025-10-20T13:03:30.000Z</time>
      </trkpt>
      <trkpt lat="49.3264" lon="3.32133">
        <ele>115.9</ele>
        <time>2025-10-20T13:03:31.000Z</time>
      </trkpt>
      <trkpt lat="49.32639" lon="3.32132">
        <ele>115.8</ele>
        <time>2025-10-20T13:03:32.000Z</time>
      </trkpt>
      <trkpt lat="49.32638" lon="3.3213">
        <ele>115.6</ele>
        <time>2025-10-20T13:03:33.000Z</time>
      </trkpt>
      <trkpt lat="49.32637" lon="3.32128">
        <ele>115.4</ele>
        <time>2025-10-20T13:03:34.000Z</time>
      </trkpt>
      <trkpt lat="49.32636" lon="3.32127">
        <ele>115.2</ele>
        <time>2025-10-20T13:03:35.000Z</time>
      </trkpt>
      <trkpt lat="49.32635" lon="3.32125">
        <ele>115.1</ele>
        <time>2025-10-20T13:03:36.000Z</time>
      </trkpt>
      <trkpt lat="49.32634" lon="3.32123">
        <ele>115</ele>
        <time>2025-10-20T13:03:37.000Z</time>
      </trkpt>
      <trkpt lat="49.32633" lon="3.32122">
        <ele>114.8</ele>
        <time>2025-10-20T13:03:38.000Z</time>
      </trkpt>
      <trkpt lat="49.32631" lon="3.3212">
        <ele>114.5</ele>
        <time>2025-10-20T13:03:39.000Z</time>
      </trkpt>
      <trkpt lat="49.32631" lon="3.32119">
        <ele>114.4</ele>
        <time>2025-10-20T13:03:40.000Z</time>
      </trkpt>
      <trkpt lat="49.32629" lon="3.32118">
        <ele>114.1</ele>
        <time>2025-10-20T13:03:41.000Z</time>
      </trkpt>
      <trkpt lat="49.32629" lon="3.32117">
        <ele>114.2</ele>
        <time>2025-10-20T13:03:42.000Z</time>
      </trkpt>
      <trkpt lat="49.32628" lon="3.32115">
        <ele>114.4</ele>
        <time>2025-10-20T13:03:43.000Z</time>
      </trkpt>
      <trkpt lat="49.32627" lon="3.32114">
        <ele>114.7</ele>
        <time>2025-10-20T13:03:44.000Z</time>
      </trkpt>
      <trkpt lat="49.32626" lon="3.32113">
        <ele>114.9</ele>
        <time>2025-10-20T13:03:45.000Z</time>
      </trkpt>
      <trkpt lat="49.32625" lon="3.32111">
        <ele>114.9</ele>
        <time>2025-10-20T13:03:46.000Z</time>
      </trkpt>
      <trkpt lat="49.32625" lon="3.3211">
        <ele>114.9</ele>
        <time>2025-10-20T13:03:47.000Z</time>
      </trkpt>
      <trkpt lat="49.32624" lon="3.32109">
        <ele>115.2</ele>
        <time>2025-10-20T13:03:48.000Z</time>
      </trkpt>
      <trkpt lat="49.32623" lon="3.32107">
        <ele>115.5</ele>
        <time>2025-10-20T13:03:49.000Z</time>
      </trkpt>
      <trkpt lat="49.32622" lon="3.32106">
        <ele>115.8</ele>
        <time>2025-10-20T13:03:50.000Z</time>
      </trkpt>
      <trkpt lat="49.32621" lon="3.32105">
        <ele>116</ele>
        <time>2025-10-20T13:03:51.000Z</time>
      </trkpt>
      <trkpt lat="49.3262" lon="3.32103">
        <ele>116.3</ele>
        <time>2025-10-20T13:03:52.000Z</time>
      </trkpt>
      <trkpt lat="49.32619" lon="3.32102">
        <ele>116.5</ele>
        <time>2025-10-20T13:03:53.000Z</time>
      </trkpt>
      <trkpt lat="49.32618" lon="3.32101">
        <ele>116.8</ele>
        <time>2025-10-20T13:03:54.000Z</time>
      </trkpt>
      <trkpt lat="49.32617" lon="3.32099">
        <ele>117</ele>
        <time>2025-10-20T13:03:55.000Z</time>
      </trkpt>
      <trkpt lat="49.32617" lon="3.32098">
        <ele>117.4</ele>
        <time>2025-10-20T13:03:56.000Z</time>
      </trkpt>
      <trkpt lat="49.32616" lon="3.32096">
        <ele>117.6</ele>
        <time>2025-10-20T13:03:57.000Z</time>
      </trkpt>
      <trkpt lat="49.32615" lon="3.32095">
        <ele>117.8</ele>
        <time>2025-10-20T13:03:58.000Z</time>
      </trkpt>
      <trkpt lat="49.32614" lon="3.32093">
        <ele>118.1</ele>
        <time>2025-10-20T13:03:59.000Z</time>
      </trkpt>
      <trkpt lat="49.32613" lon="3.32092">
        <ele>118.4</ele>
        <time>2025-10-20T13:04:00.000Z</time>
      </trkpt>
      <trkpt lat="49.32612" lon="3.32091">
        <ele>118.7</ele>
        <time>2025-10-20T13:04:01.000Z</time>
      </trkpt>
      <trkpt lat="49.32611" lon="3.32089">
        <ele>118.9</ele>
        <time>2025-10-20T13:04:02.000Z</time>
      </trkpt>
      <trkpt lat="49.32609" lon="3.32088">
        <ele>119</ele>
        <time>2025-10-20T13:04:03.000Z</time>
      </trkpt>
      <trkpt lat="49.32608" lon="3.32087">
        <ele>119.3</ele>
        <time>2025-10-20T13:04:04.000Z</time>
      </trkpt>
      <trkpt lat="49.32607" lon="3.32086">
        <ele>119.5</ele>
        <time>2025-10-20T13:04:05.000Z</time>
      </trkpt>
      <trkpt lat="49.32607" lon="3.32084">
        <ele>119.9</ele>
        <time>2025-10-20T13:04:06.000Z</time>
      </trkpt>
      <trkpt lat="49.32606" lon="3.32082">
        <ele>120.4</ele>
        <time>2025-10-20T13:04:07.000Z</time>
      </trkpt>
      <trkpt lat="49.32605" lon="3.32081">
        <ele>121</ele>
        <time>2025-10-20T13:04:08.000Z</time>
      </trkpt>
      <trkpt lat="49.32604" lon="3.32079">
        <ele>121.3</ele>
        <time>2025-10-20T13:04:09.000Z</time>
      </trkpt>
      <trkpt lat="49.32603" lon="3.32078">
        <ele>121.5</ele>
        <time>2025-10-20T13:04:10.000Z</time>
      </trkpt>
      <trkpt lat="49.32602" lon="3.32077">
        <ele>121.7</ele>
        <time>2025-10-20T13:04:11.000Z</time>
      </trkpt>
      <trkpt lat="49.32602" lon="3.32076">
        <ele>122.1</ele>
        <time>2025-10-20T13:04:12.000Z</time>
      </trkpt>
      <trkpt lat="49.32601" lon="3.32074">
        <ele>122.5</ele>
        <time>2025-10-20T13:04:13.000Z</time>
      </trkpt>
      <trkpt lat="49.326" lon="3.32073">
        <ele>123.1</ele>
        <time>2025-10-20T13:04:14.000Z</time>
      </trkpt>
      <trkpt lat="49.32599" lon="3.32072">
        <ele>123.7</ele>
        <time>2025-10-20T13:04:15.000Z</time>
      </trkpt>
      <trkpt lat="49.32598" lon="3.32071">
        <ele>124.2</ele>
        <time>2025-10-20T13:04:16.000Z</time>
      </trkpt>
      <trkpt lat="49.32598" lon="3.32069">
        <ele>124.6</ele>
        <time>2025-10-20T13:04:17.000Z</time>
      </trkpt>
      <trkpt lat="49.32597" lon="3.32068">
        <ele>125</ele>
        <time>2025-10-20T13:04:18.000Z</time>
      </trkpt>
      <trkpt lat="49.32596" lon="3.32067">
        <ele>125.2</ele>
        <time>2025-10-20T13:04:19.000Z</time>
      </trkpt>
      <trkpt lat="49.32595" lon="3.32065">
        <ele>125.4</ele>
        <time>2025-10-20T13:04:20.000Z</time>
      </trkpt>
      <trkpt lat="49.32593" lon="3.32063">
        <ele>125</ele>
        <time>2025-10-20T13:04:21.000Z</time>
      </trkpt>
      <trkpt lat="49.32592" lon="3.32061">
        <ele>124.6</ele>
        <time>2025-10-20T13:04:22.000Z</time>
      </trkpt>
      <trkpt lat="49.32591" lon="3.32059">
        <ele>124.2</ele>
        <time>2025-10-20T13:04:23.000Z</time>
      </trkpt>
      <trkpt lat="49.3259" lon="3.32058">
        <ele>124</ele>
        <time>2025-10-20T13:04:24.000Z</time>
      </trkpt>
      <trkpt lat="49.32589" lon="3.32056">
        <ele>123.9</ele>
        <time>2025-10-20T13:04:25.000Z</time>
      </trkpt>
      <trkpt lat="49.32588" lon="3.32054">
        <ele>123.9</ele>
        <time>2025-10-20T13:04:26.000Z</time>
      </trkpt>
      <trkpt lat="49.32587" lon="3.32052">
        <ele>123.8</ele>
        <time>2025-10-20T13:04:27.000Z</time>
      </trkpt>
      <trkpt lat="49.32586" lon="3.3205">
        <ele>123.5</ele>
        <time>2025-10-20T13:04:28.000Z</time>
      </trkpt>
      <trkpt lat="49.32585" lon="3.32048">
        <ele>123.3</ele>
        <time>2025-10-20T13:04:29.000Z</time>
      </trkpt>
      <trkpt lat="49.32584" lon="3.32047">
        <ele>123.1</ele>
        <time>2025-10-20T13:04:30.000Z</time>
      </trkpt>
      <trkpt lat="49.32583" lon="3.32045">
        <ele>123.2</ele>
        <time>2025-10-20T13:04:31.000Z</time>
      </trkpt>
      <trkpt lat="49.32582" lon="3.32044">
        <ele>123.2</ele>
        <time>2025-10-20T13:04:32.000Z</time>
      </trkpt>
      <trkpt lat="49.32581" lon="3.32043">
        <ele>123.3</ele>
        <time>2025-10-20T13:04:33.000Z</time>
      </trkpt>
      <trkpt lat="49.3258" lon="3.32041">
        <ele>123.3</ele>
        <time>2025-10-20T13:04:34.000Z</time>
      </trkpt>
      <trkpt lat="49.32579" lon="3.32039">
        <ele>123.4</ele>
        <time>2025-10-20T13:04:35.000Z</time>
      </trkpt>
      <trkpt lat="49.32578" lon="3.32038">
        <ele>123.6</ele>
        <time>2025-10-20T13:04:36.000Z</time>
      </trkpt>
      <trkpt lat="49.32577" lon="3.32036">
        <ele>123.6</ele>
        <time>2025-10-20T13:04:37.000Z</time>
      </trkpt>
      <trkpt lat="49.32576" lon="3.32035">
        <ele>123.7</ele>
        <time>2025-10-20T13:04:38.000Z</time>
      </trkpt>
      <trkpt lat="49.32575" lon="3.32033">
        <ele>123.8</ele>
        <time>2025-10-20T13:04:39.000Z</time>
      </trkpt>
      <trkpt lat="49.32574" lon="3.32031">
        <ele>123.7</ele>
        <time>2025-10-20T13:04:40.000Z</time>
      </trkpt>
      <trkpt lat="49.32573" lon="3.3203">
        <ele>123.9</ele>
        <time>2025-10-20T13:04:41.000Z</time>
      </trkpt>
      <trkpt lat="49.32573" lon="3.32028">
        <ele>124</ele>
        <time>2025-10-20T13:04:42.000Z</time>
      </trkpt>
      <trkpt lat="49.32572" lon="3.32026">
        <ele>124.2</ele>
        <time>2025-10-20T13:04:43.000Z</time>
      </trkpt>
      <trkpt lat="49.32571" lon="3.32025">
        <ele>124.5</ele>
        <time>2025-10-20T13:04:44.000Z</time>
      </trkpt>
      <trkpt lat="49.3257" lon="3.32023">
        <ele>124.9</ele>
        <time>2025-10-20T13:04:45.000Z</time>
      </trkpt>
      <trkpt lat="49.32569" lon="3.32022">
        <ele>125.1</ele>
        <time>2025-10-20T13:04:46.000Z</time>
      </trkpt>
      <trkpt lat="49.32568" lon="3.3202">
        <ele>125.3</ele>
        <time>2025-10-20T13:04:47.000Z</time>
      </trkpt>
      <trkpt lat="49.32567" lon="3.32018">
        <ele>125.3</ele>
        <time>2025-10-20T13:04:48.000Z</time>
      </trkpt>
      <trkpt lat="49.32566" lon="3.32016">
        <ele>125.6</ele>
        <time>2025-10-20T13:04:49.000Z</time>
      </trkpt>
      <trkpt lat="49.32565" lon="3.32014">
        <ele>125.8</ele>
        <time>2025-10-20T13:04:50.000Z</time>
      </trkpt>
      <trkpt lat="49.32564" lon="3.32013">
        <ele>125.9</ele>
        <time>2025-10-20T13:04:51.000Z</time>
      </trkpt>
      <trkpt lat="49.32563" lon="3.32011">
        <ele>125.6</ele>
        <time>2025-10-20T13:04:52.000Z</time>
      </trkpt>
      <trkpt lat="49.32562" lon="3.32009">
        <ele>125.3</ele>
        <time>2025-10-20T13:04:53.000Z</time>
      </trkpt>
      <trkpt lat="49.3256" lon="3.32007">
        <ele>125.3</ele>
        <time>2025-10-20T13:04:54.000Z</time>
      </trkpt>
      <trkpt lat="49.32559" lon="3.32006">
        <ele>125.5</ele>
        <time>2025-10-20T13:04:55.000Z</time>
      </trkpt>
      <trkpt lat="49.32558" lon="3.32004">
        <ele>125.5</ele>
        <time>2025-10-20T13:04:56.000Z</time>
      </trkpt>
      <trkpt lat="49.32558" lon="3.32003">
        <ele>125.6</ele>
        <time>2025-10-20T13:04:57.000Z</time>
      </trkpt>
      <trkpt lat="49.32557" lon="3.32002">
        <ele>126</ele>
        <time>2025-10-20T13:04:58.000Z</time>
      </trkpt>
      <trkpt lat="49.32556" lon="3.32">
        <ele>126.2</ele>
        <time>2025-10-20T13:04:59.000Z</time>
      </trkpt>
      <trkpt lat="49.32554" lon="3.31998">
        <ele>126.3</ele>
        <time>2025-10-20T13:05:00.000Z</time>
      </trkpt>
      <trkpt lat="49.32553" lon="3.31997">
        <ele>126.1</ele>
        <time>2025-10-20T13:05:01.000Z</time>
      </trkpt>
      <trkpt lat="49.32552" lon="3.31995">
        <ele>125.8</ele>
        <time>2025-10-20T13:05:02.000Z</time>
      </trkpt>
      <trkpt lat="49.32551" lon="3.31994">
        <ele>125.7</ele>
        <time>2025-10-20T13:05:03.000Z</time>
      </trkpt>
      <trkpt lat="49.3255" lon="3.31993">
        <ele>125.7</ele>
        <time>2025-10-20T13:05:04.000Z</time>
      </trkpt>
      <trkpt lat="49.32549" lon="3.31991">
        <ele>125.7</ele>
        <time>2025-10-20T13:05:05.000Z</time>
      </trkpt>
      <trkpt lat="49.32548" lon="3.3199">
        <ele>125.9</ele>
        <time>2025-10-20T13:05:06.000Z</time>
      </trkpt>
      <trkpt lat="49.32548" lon="3.31988">
        <ele>126.3</ele>
        <time>2025-10-20T13:05:07.000Z</time>
      </trkpt>
      <trkpt lat="49.32547" lon="3.31987">
        <ele>126.6</ele>
        <time>2025-10-20T13:05:08.000Z</time>
      </trkpt>
      <trkpt lat="49.32546" lon="3.31985">
        <ele>126.6</ele>
        <time>2025-10-20T13:05:09.000Z</time>
      </trkpt>
      <trkpt lat="49.32545" lon="3.31983">
        <ele>126.8</ele>
        <time>2025-10-20T13:05:10.000Z</time>
      </trkpt>
      <trkpt lat="49.32544" lon="3.31982">
        <ele>126.8</ele>
        <time>2025-10-20T13:05:11.000Z</time>
      </trkpt>
      <trkpt lat="49.32543" lon="3.31981">
        <ele>126.8</ele>
        <time>2025-10-20T13:05:12.000Z</time>
      </trkpt>
      <trkpt lat="49.32542" lon="3.31979">
        <ele>127.1</ele>
        <time>2025-10-20T13:05:13.000Z</time>
      </trkpt>
      <trkpt lat="49.32541" lon="3.31978">
        <ele>127.2</ele>
        <time>2025-10-20T13:05:14.000Z</time>
      </trkpt>
      <trkpt lat="49.3254" lon="3.31976">
        <ele>127.2</ele>
        <time>2025-10-20T13:05:15.000Z</time>
      </trkpt>
      <trkpt lat="49.32539" lon="3.31974">
        <ele>127</ele>
        <time>2025-10-20T13:05:16.000Z</time>
      </trkpt>
      <trkpt lat="49.32538" lon="3.31972">
        <ele>126.8</ele>
        <time>2025-10-20T13:05:17.000Z</time>
      </trkpt>
      <trkpt lat="49.32538" lon="3.31971">
        <ele>126.8</ele>
        <time>2025-10-20T13:05:18.000Z</time>
      </trkpt>
      <trkpt lat="49.32537" lon="3.31969">
        <ele>126.7</ele>
        <time>2025-10-20T13:05:19.000Z</time>
      </trkpt>
      <trkpt lat="49.32536" lon="3.31968">
        <ele>126.8</ele>
        <time>2025-10-20T13:05:20.000Z</time>
      </trkpt>
      <trkpt lat="49.32536" lon="3.31967">
        <ele>127.2</ele>
        <time>2025-10-20T13:05:21.000Z</time>
      </trkpt>
      <trkpt lat="49.32535" lon="3.31965">
        <ele>127.1</ele>
        <time>2025-10-20T13:05:22.000Z</time>
      </trkpt>
      <trkpt lat="49.32534" lon="3.31963">
        <ele>127.1</ele>
        <time>2025-10-20T13:05:23.000Z</time>
      </trkpt>
      <trkpt lat="49.32533" lon="3.31962">
        <ele>127.3</ele>
        <time>2025-10-20T13:05:24.000Z</time>
      </trkpt>
      <trkpt lat="49.32532" lon="3.3196">
        <ele>127.6</ele>
        <time>2025-10-20T13:05:25.000Z</time>
      </trkpt>
      <trkpt lat="49.32531" lon="3.31958">
        <ele>127.8</ele>
        <time>2025-10-20T13:05:26.000Z</time>
      </trkpt>
      <trkpt lat="49.32529" lon="3.31957">
        <ele>127.8</ele>
        <time>2025-10-20T13:05:27.000Z</time>
      </trkpt>
      <trkpt lat="49.32528" lon="3.31956">
        <ele>127.8</ele>
        <time>2025-10-20T13:05:28.000Z</time>
      </trkpt>
      <trkpt lat="49.32527" lon="3.31954">
        <ele>127.8</ele>
        <time>2025-10-20T13:05:29.000Z</time>
      </trkpt>
      <trkpt lat="49.32526" lon="3.31953">
        <ele>127.7</ele>
        <time>2025-10-20T13:05:30.000Z</time>
      </trkpt>
      <trkpt lat="49.32524" lon="3.31951">
        <ele>127.7</ele>
        <time>2025-10-20T13:05:31.000Z</time>
      </trkpt>
      <trkpt lat="49.32524" lon="3.31949">
        <ele>127.5</ele>
        <time>2025-10-20T13:05:32.000Z</time>
      </trkpt>
      <trkpt lat="49.32523" lon="3.31947">
        <ele>127.3</ele>
        <time>2025-10-20T13:05:33.000Z</time>
      </trkpt>
      <trkpt lat="49.32521" lon="3.31945">
        <ele>127</ele>
        <time>2025-10-20T13:05:34.000Z</time>
      </trkpt>
      <trkpt lat="49.3252" lon="3.31944">
        <ele>126.6</ele>
        <time>2025-10-20T13:05:35.000Z</time>
      </trkpt>
      <trkpt lat="49.32519" lon="3.31943">
        <ele>126.4</ele>
        <time>2025-10-20T13:05:36.000Z</time>
      </trkpt>
      <trkpt lat="49.32518" lon="3.31941">
        <ele>126.3</ele>
        <time>2025-10-20T13:05:37.000Z</time>
      </trkpt>
      <trkpt lat="49.32517" lon="3.3194">
        <ele>125.9</ele>
        <time>2025-10-20T13:05:38.000Z</time>
      </trkpt>
      <trkpt lat="49.32516" lon="3.31938">
        <ele>125.7</ele>
        <time>2025-10-20T13:05:39.000Z</time>
      </trkpt>
      <trkpt lat="49.32515" lon="3.31937">
        <ele>125.3</ele>
        <time>2025-10-20T13:05:40.000Z</time>
      </trkpt>
      <trkpt lat="49.32514" lon="3.31935">
        <ele>125.3</ele>
        <time>2025-10-20T13:05:41.000Z</time>
      </trkpt>
      <trkpt lat="49.32513" lon="3.31933">
        <ele>125</ele>
        <time>2025-10-20T13:05:42.000Z</time>
      </trkpt>
      <trkpt lat="49.32512" lon="3.31932">
        <ele>125</ele>
        <time>2025-10-20T13:05:43.000Z</time>
      </trkpt>
      <trkpt lat="49.32511" lon="3.3193">
        <ele>125.3</ele>
        <time>2025-10-20T13:05:44.000Z</time>
      </trkpt>
      <trkpt lat="49.32509" lon="3.31928">
        <ele>125.5</ele>
        <time>2025-10-20T13:05:45.000Z</time>
      </trkpt>
      <trkpt lat="49.32508" lon="3.31926">
        <ele>125.7</ele>
        <time>2025-10-20T13:05:46.000Z</time>
      </trkpt>
      <trkpt lat="49.32507" lon="3.31925">
        <ele>125.7</ele>
        <time>2025-10-20T13:05:47.000Z</time>
      </trkpt>
      <trkpt lat="49.32506" lon="3.31923">
        <ele>125.7</ele>
        <time>2025-10-20T13:05:48.000Z</time>
      </trkpt>
      <trkpt lat="49.32505" lon="3.31921">
        <ele>125.7</ele>
        <time>2025-10-20T13:05:49.000Z</time>
      </trkpt>
      <trkpt lat="49.32504" lon="3.3192">
        <ele>126</ele>
        <time>2025-10-20T13:05:50.000Z</time>
      </trkpt>
      <trkpt lat="49.32503" lon="3.31918">
        <ele>126</ele>
        <time>2025-10-20T13:05:51.000Z</time>
      </trkpt>
      <trkpt lat="49.32502" lon="3.31917">
        <ele>126.2</ele>
        <time>2025-10-20T13:05:52.000Z</time>
      </trkpt>
      <trkpt lat="49.32501" lon="3.31915">
        <ele>126.2</ele>
        <time>2025-10-20T13:05:53.000Z</time>
      </trkpt>
      <trkpt lat="49.325" lon="3.31913">
        <ele>126.2</ele>
        <time>2025-10-20T13:05:54.000Z</time>
      </trkpt>
      <trkpt lat="49.32499" lon="3.31912">
        <ele>126.5</ele>
        <time>2025-10-20T13:05:55.000Z</time>
      </trkpt>
      <trkpt lat="49.32499" lon="3.31911">
        <ele>126.9</ele>
        <time>2025-10-20T13:05:56.000Z</time>
      </trkpt>
      <trkpt lat="49.32498" lon="3.3191">
        <ele>127.3</ele>
        <time>2025-10-20T13:05:57.000Z</time>
      </trkpt>
      <trkpt lat="49.32498" lon="3.31908">
        <ele>128.1</ele>
        <time>2025-10-20T13:05:58.000Z</time>
      </trkpt>
      <trkpt lat="49.32497" lon="3.31907">
        <ele>128.9</ele>
        <time>2025-10-20T13:05:59.000Z</time>
      </trkpt>
      <trkpt lat="49.32496" lon="3.31906">
        <ele>129.7</ele>
        <time>2025-10-20T13:06:00.000Z</time>
      </trkpt>
      <trkpt lat="49.32495" lon="3.31905">
        <ele>130.4</ele>
        <time>2025-10-20T13:06:01.000Z</time>
      </trkpt>
      <trkpt lat="49.32494" lon="3.31903">
        <ele>130.9</ele>
        <time>2025-10-20T13:06:02.000Z</time>
      </trkpt>
      <trkpt lat="49.32493" lon="3.31902">
        <ele>131.2</ele>
        <time>2025-10-20T13:06:03.000Z</time>
      </trkpt>
      <trkpt lat="49.32492" lon="3.31901">
        <ele>131.6</ele>
        <time>2025-10-20T13:06:04.000Z</time>
      </trkpt>
      <trkpt lat="49.32491" lon="3.31899">
        <ele>132.1</ele>
        <time>2025-10-20T13:06:05.000Z</time>
      </trkpt>
      <trkpt lat="49.32491" lon="3.31897">
        <ele>132.4</ele>
        <time>2025-10-20T13:06:06.000Z</time>
      </trkpt>
      <trkpt lat="49.32489" lon="3.31895">
        <ele>132.5</ele>
        <time>2025-10-20T13:06:07.000Z</time>
      </trkpt>
      <trkpt lat="49.32489" lon="3.31893">
        <ele>132.5</ele>
        <time>2025-10-20T13:06:08.000Z</time>
      </trkpt>
      <trkpt lat="49.32488" lon="3.31891">
        <ele>132.3</ele>
        <time>2025-10-20T13:06:09.000Z</time>
      </trkpt>
      <trkpt lat="49.32487" lon="3.31889">
        <ele>132.5</ele>
        <time>2025-10-20T13:06:10.000Z</time>
      </trkpt>
      <trkpt lat="49.32486" lon="3.31888">
        <ele>132.5</ele>
        <time>2025-10-20T13:06:11.000Z</time>
      </trkpt>
      <trkpt lat="49.32485" lon="3.31886">
        <ele>132.7</ele>
        <time>2025-10-20T13:06:12.000Z</time>
      </trkpt>
      <trkpt lat="49.32485" lon="3.31884">
        <ele>132.9</ele>
        <time>2025-10-20T13:06:13.000Z</time>
      </trkpt>
      <trkpt lat="49.32484" lon="3.31883">
        <ele>133.2</ele>
        <time>2025-10-20T13:06:14.000Z</time>
      </trkpt>
      <trkpt lat="49.32483" lon="3.31881">
        <ele>133.6</ele>
        <time>2025-10-20T13:06:15.000Z</time>
      </trkpt>
      <trkpt lat="49.32482" lon="3.31879">
        <ele>133.3</ele>
        <time>2025-10-20T13:06:16.000Z</time>
      </trkpt>
      <trkpt lat="49.32481" lon="3.31877">
        <ele>133.1</ele>
        <time>2025-10-20T13:06:17.000Z</time>
      </trkpt>
      <trkpt lat="49.3248" lon="3.31875">
        <ele>133</ele>
        <time>2025-10-20T13:06:18.000Z</time>
      </trkpt>
      <trkpt lat="49.32479" lon="3.31872">
        <ele>132.8</ele>
        <time>2025-10-20T13:06:19.000Z</time>
      </trkpt>
      <trkpt lat="49.32478" lon="3.3187">
        <ele>132.5</ele>
        <time>2025-10-20T13:06:20.000Z</time>
      </trkpt>
      <trkpt lat="49.32477" lon="3.31869">
        <ele>132.6</ele>
        <time>2025-10-20T13:06:21.000Z</time>
      </trkpt>
      <trkpt lat="49.32476" lon="3.31867">
        <ele>132.8</ele>
        <time>2025-10-20T13:06:22.000Z</time>
      </trkpt>
      <trkpt lat="49.32475" lon="3.31866">
        <ele>133</ele>
        <time>2025-10-20T13:06:23.000Z</time>
      </trkpt>
      <trkpt lat="49.32474" lon="3.31864">
        <ele>132.9</ele>
        <time>2025-10-20T13:06:24.000Z</time>
      </trkpt>
      <trkpt lat="49.32473" lon="3.31863">
        <ele>133.1</ele>
        <time>2025-10-20T13:06:25.000Z</time>
      </trkpt>
      <trkpt lat="49.32472" lon="3.31861">
        <ele>133.3</ele>
        <time>2025-10-20T13:06:26.000Z</time>
      </trkpt>
      <trkpt lat="49.32472" lon="3.3186">
        <ele>133.6</ele>
        <time>2025-10-20T13:06:27.000Z</time>
      </trkpt>
      <trkpt lat="49.32471" lon="3.31858">
        <ele>133.6</ele>
        <time>2025-10-20T13:06:28.000Z</time>
      </trkpt>
      <trkpt lat="49.3247" lon="3.31856">
        <ele>133.4</ele>
        <time>2025-10-20T13:06:29.000Z</time>
      </trkpt>
      <trkpt lat="49.32469" lon="3.31854">
        <ele>133.5</ele>
        <time>2025-10-20T13:06:30.000Z</time>
      </trkpt>
      <trkpt lat="49.32468" lon="3.31851">
        <ele>133.2</ele>
        <time>2025-10-20T13:06:31.000Z</time>
      </trkpt>
      <trkpt lat="49.32467" lon="3.31849">
        <ele>133.2</ele>
        <time>2025-10-20T13:06:32.000Z</time>
      </trkpt>
      <trkpt lat="49.32466" lon="3.31848">
        <ele>133.3</ele>
        <time>2025-10-20T13:06:33.000Z</time>
      </trkpt>
      <trkpt lat="49.32465" lon="3.31845">
        <ele>133.4</ele>
        <time>2025-10-20T13:06:34.000Z</time>
      </trkpt>
      <trkpt lat="49.32464" lon="3.31843">
        <ele>133.3</ele>
        <time>2025-10-20T13:06:35.000Z</time>
      </trkpt>
      <trkpt lat="49.32463" lon="3.31841">
        <ele>133.1</ele>
        <time>2025-10-20T13:06:36.000Z</time>
      </trkpt>
      <trkpt lat="49.32462" lon="3.31839">
        <ele>133</ele>
        <time>2025-10-20T13:06:37.000Z</time>
      </trkpt>
      <trkpt lat="49.32461" lon="3.31837">
        <ele>133.1</ele>
        <time>2025-10-20T13:06:38.000Z</time>
      </trkpt>
      <trkpt lat="49.32461" lon="3.31835">
        <ele>133.1</ele>
        <time>2025-10-20T13:06:39.000Z</time>
      </trkpt>
      <trkpt lat="49.3246" lon="3.31834">
        <ele>133.6</ele>
        <time>2025-10-20T13:06:40.000Z</time>
      </trkpt>
      <trkpt lat="49.32459" lon="3.31833">
        <ele>134.1</ele>
        <time>2025-10-20T13:06:41.000Z</time>
      </trkpt>
      <trkpt lat="49.32458" lon="3.31832">
        <ele>134.4</ele>
        <time>2025-10-20T13:06:42.000Z</time>
      </trkpt>
      <trkpt lat="49.32457" lon="3.3183">
        <ele>134.7</ele>
        <time>2025-10-20T13:06:43.000Z</time>
      </trkpt>
      <trkpt lat="49.32456" lon="3.31829">
        <ele>134.8</ele>
        <time>2025-10-20T13:06:44.000Z</time>
      </trkpt>
      <trkpt lat="49.32456" lon="3.31828">
        <ele>135</ele>
        <time>2025-10-20T13:06:45.000Z</time>
      </trkpt>
      <trkpt lat="49.32455" lon="3.31826">
        <ele>135.2</ele>
        <time>2025-10-20T13:06:46.000Z</time>
      </trkpt>
      <trkpt lat="49.32454" lon="3.31825">
        <ele>135.6</ele>
        <time>2025-10-20T13:06:47.000Z</time>
      </trkpt>
      <trkpt lat="49.32454" lon="3.31824">
        <ele>136.2</ele>
        <time>2025-10-20T13:06:48.000Z</time>
      </trkpt>
      <trkpt lat="49.32453" lon="3.31822">
        <ele>136.6</ele>
        <time>2025-10-20T13:06:49.000Z</time>
      </trkpt>
      <trkpt lat="49.32453" lon="3.3182">
        <ele>136.9</ele>
        <time>2025-10-20T13:06:50.000Z</time>
      </trkpt>
      <trkpt lat="49.32452" lon="3.31819">
        <ele>137.2</ele>
        <time>2025-10-20T13:06:51.000Z</time>
      </trkpt>
      <trkpt lat="49.32451" lon="3.31817">
        <ele>137.6</ele>
        <time>2025-10-20T13:06:52.000Z</time>
      </trkpt>
      <trkpt lat="49.32451" lon="3.31815">
        <ele>137.8</ele>
        <time>2025-10-20T13:06:53.000Z</time>
      </trkpt>
      <trkpt lat="49.3245" lon="3.31814">
        <ele>137.9</ele>
        <time>2025-10-20T13:06:54.000Z</time>
      </trkpt>
      <trkpt lat="49.3245" lon="3.31812">
        <ele>138.2</ele>
        <time>2025-10-20T13:06:55.000Z</time>
      </trkpt>
      <trkpt lat="49.32449" lon="3.3181">
        <ele>138.4</ele>
        <time>2025-10-20T13:06:56.000Z</time>
      </trkpt>
      <trkpt lat="49.32448" lon="3.31809">
        <ele>138.6</ele>
        <time>2025-10-20T13:06:57.000Z</time>
      </trkpt>
      <trkpt lat="49.32447" lon="3.31807">
        <ele>138.6</ele>
        <time>2025-10-20T13:06:58.000Z</time>
      </trkpt>
      <trkpt lat="49.32446" lon="3.31806">
        <ele>138.8</ele>
        <time>2025-10-20T13:06:59.000Z</time>
      </trkpt>
      <trkpt lat="49.32445" lon="3.31804">
        <ele>138.9</ele>
        <time>2025-10-20T13:07:00.000Z</time>
      </trkpt>
      <trkpt lat="49.32444" lon="3.31802">
        <ele>138.8</ele>
        <time>2025-10-20T13:07:01.000Z</time>
      </trkpt>
      <trkpt lat="49.32444" lon="3.31799">
        <ele>138.7</ele>
        <time>2025-10-20T13:07:02.000Z</time>
      </trkpt>
      <trkpt lat="49.32443" lon="3.31797">
        <ele>138.7</ele>
        <time>2025-10-20T13:07:03.000Z</time>
      </trkpt>
      <trkpt lat="49.32441" lon="3.31794">
        <ele>138.3</ele>
        <time>2025-10-20T13:07:04.000Z</time>
      </trkpt>
      <trkpt lat="49.3244" lon="3.31791">
        <ele>138</ele>
        <time>2025-10-20T13:07:05.000Z</time>
      </trkpt>
      <trkpt lat="49.32439" lon="3.31789">
        <ele>137.8</ele>
        <time>2025-10-20T13:07:06.000Z</time>
      </trkpt>
      <trkpt lat="49.32438" lon="3.31787">
        <ele>137.6</ele>
        <time>2025-10-20T13:07:07.000Z</time>
      </trkpt>
      <trkpt lat="49.32436" lon="3.31786">
        <ele>137.2</ele>
        <time>2025-10-20T13:07:08.000Z</time>
      </trkpt>
      <trkpt lat="49.32435" lon="3.31785">
        <ele>137.5</ele>
        <time>2025-10-20T13:07:09.000Z</time>
      </trkpt>
      <trkpt lat="49.32434" lon="3.31783">
        <ele>137.6</ele>
        <time>2025-10-20T13:07:10.000Z</time>
      </trkpt>
      <trkpt lat="49.32433" lon="3.31781">
        <ele>137.2</ele>
        <time>2025-10-20T13:07:11.000Z</time>
      </trkpt>
      <trkpt lat="49.32432" lon="3.31779">
        <ele>136.8</ele>
        <time>2025-10-20T13:07:12.000Z</time>
      </trkpt>
      <trkpt lat="49.3243" lon="3.31777">
        <ele>136.5</ele>
        <time>2025-10-20T13:07:13.000Z</time>
      </trkpt>
      <trkpt lat="49.32429" lon="3.31775">
        <ele>136.3</ele>
        <time>2025-10-20T13:07:14.000Z</time>
      </trkpt>
      <trkpt lat="49.32427" lon="3.31773">
        <ele>135.7</ele>
        <time>2025-10-20T13:07:15.000Z</time>
      </trkpt>
      <trkpt lat="49.32426" lon="3.31771">
        <ele>135.5</ele>
        <time>2025-10-20T13:07:16.000Z</time>
      </trkpt>
      <trkpt lat="49.32425" lon="3.31769">
        <ele>135.3</ele>
        <time>2025-10-20T13:07:17.000Z</time>
      </trkpt>
      <trkpt lat="49.32424" lon="3.31767">
        <ele>134.8</ele>
        <time>2025-10-20T13:07:18.000Z</time>
      </trkpt>
      <trkpt lat="49.32423" lon="3.31766">
        <ele>134.3</ele>
        <time>2025-10-20T13:07:19.000Z</time>
      </trkpt>
      <trkpt lat="49.32422" lon="3.31764">
        <ele>134</ele>
        <time>2025-10-20T13:07:20.000Z</time>
      </trkpt>
      <trkpt lat="49.32421" lon="3.31762">
        <ele>133.9</ele>
        <time>2025-10-20T13:07:21.000Z</time>
      </trkpt>
      <trkpt lat="49.3242" lon="3.3176">
        <ele>133.9</ele>
        <time>2025-10-20T13:07:22.000Z</time>
      </trkpt>
      <trkpt lat="49.32419" lon="3.31758">
        <ele>133.7</ele>
        <time>2025-10-20T13:07:23.000Z</time>
      </trkpt>
      <trkpt lat="49.32418" lon="3.31756">
        <ele>133.3</ele>
        <time>2025-10-20T13:07:24.000Z</time>
      </trkpt>
      <trkpt lat="49.32418" lon="3.31754">
        <ele>133</ele>
        <time>2025-10-20T13:07:25.000Z</time>
      </trkpt>
      <trkpt lat="49.32417" lon="3.31751">
        <ele>132.7</ele>
        <time>2025-10-20T13:07:26.000Z</time>
      </trkpt>
      <trkpt lat="49.32415" lon="3.31749">
        <ele>132.5</ele>
        <time>2025-10-20T13:07:27.000Z</time>
      </trkpt>
      <trkpt lat="49.32414" lon="3.31747">
        <ele>132.5</ele>
        <time>2025-10-20T13:07:28.000Z</time>
      </trkpt>
      <trkpt lat="49.32413" lon="3.31745">
        <ele>132.4</ele>
        <time>2025-10-20T13:07:29.000Z</time>
      </trkpt>
      <trkpt lat="49.32413" lon="3.31744">
        <ele>132.4</ele>
        <time>2025-10-20T13:07:30.000Z</time>
      </trkpt>
      <trkpt lat="49.32411" lon="3.31742">
        <ele>132.4</ele>
        <time>2025-10-20T13:07:31.000Z</time>
      </trkpt>
      <trkpt lat="49.3241" lon="3.3174">
        <ele>132.5</ele>
        <time>2025-10-20T13:07:32.000Z</time>
      </trkpt>
      <trkpt lat="49.3241" lon="3.31738">
        <ele>132.4</ele>
        <time>2025-10-20T13:07:33.000Z</time>
      </trkpt>
      <trkpt lat="49.32409" lon="3.31736">
        <ele>132.4</ele>
        <time>2025-10-20T13:07:34.000Z</time>
      </trkpt>
      <trkpt lat="49.32408" lon="3.31734">
        <ele>132.2</ele>
        <time>2025-10-20T13:07:35.000Z</time>
      </trkpt>
      <trkpt lat="49.32406" lon="3.31732">
        <ele>131.8</ele>
        <time>2025-10-20T13:07:36.000Z</time>
      </trkpt>
      <trkpt lat="49.32406" lon="3.31729">
        <ele>131.4</ele>
        <time>2025-10-20T13:07:37.000Z</time>
      </trkpt>
      <trkpt lat="49.32405" lon="3.31727">
        <ele>131.3</ele>
        <time>2025-10-20T13:07:38.000Z</time>
      </trkpt>
      <trkpt lat="49.32404" lon="3.31725">
        <ele>131.1</ele>
        <time>2025-10-20T13:07:39.000Z</time>
      </trkpt>
      <trkpt lat="49.32403" lon="3.31724">
        <ele>130.9</ele>
        <time>2025-10-20T13:07:40.000Z</time>
      </trkpt>
      <trkpt lat="49.32402" lon="3.31722">
        <ele>131</ele>
        <time>2025-10-20T13:07:41.000Z</time>
      </trkpt>
      <trkpt lat="49.32401" lon="3.3172">
        <ele>131.1</ele>
        <time>2025-10-20T13:07:42.000Z</time>
      </trkpt>
      <trkpt lat="49.324" lon="3.31718">
        <ele>131.1</ele>
        <time>2025-10-20T13:07:43.000Z</time>
      </trkpt>
      <trkpt lat="49.32399" lon="3.31716">
        <ele>131.1</ele>
        <time>2025-10-20T13:07:44.000Z</time>
      </trkpt>
      <trkpt lat="49.32398" lon="3.31714">
        <ele>131</ele>
        <time>2025-10-20T13:07:45.000Z</time>
      </trkpt>
      <trkpt lat="49.32397" lon="3.31712">
        <ele>131.1</ele>
        <time>2025-10-20T13:07:46.000Z</time>
      </trkpt>
      <trkpt lat="49.32396" lon="3.31711">
        <ele>131.4</ele>
        <time>2025-10-20T13:07:47.000Z</time>
      </trkpt>
      <trkpt lat="49.32395" lon="3.31709">
        <ele>131.5</ele>
        <time>2025-10-20T13:07:48.000Z</time>
      </trkpt>
      <trkpt lat="49.32394" lon="3.31707">
        <ele>131.7</ele>
        <time>2025-10-20T13:07:49.000Z</time>
      </trkpt>
      <trkpt lat="49.32393" lon="3.31705">
        <ele>131.6</ele>
        <time>2025-10-20T13:07:50.000Z</time>
      </trkpt>
      <trkpt lat="49.32392" lon="3.31703">
        <ele>131.6</ele>
        <time>2025-10-20T13:07:51.000Z</time>
      </trkpt>
      <trkpt lat="49.32391" lon="3.31701">
        <ele>131.7</ele>
        <time>2025-10-20T13:07:52.000Z</time>
      </trkpt>
      <trkpt lat="49.3239" lon="3.31699">
        <ele>131.4</ele>
        <time>2025-10-20T13:07:53.000Z</time>
      </trkpt>
      <trkpt lat="49.32389" lon="3.31697">
        <ele>131.4</ele>
        <time>2025-10-20T13:07:54.000Z</time>
      </trkpt>
      <trkpt lat="49.32389" lon="3.31695">
        <ele>131.4</ele>
        <time>2025-10-20T13:07:55.000Z</time>
      </trkpt>
      <trkpt lat="49.32388" lon="3.31694">
        <ele>131.5</ele>
        <time>2025-10-20T13:07:56.000Z</time>
      </trkpt>
      <trkpt lat="49.32387" lon="3.31692">
        <ele>131.8</ele>
        <time>2025-10-20T13:07:57.000Z</time>
      </trkpt>
      <trkpt lat="49.32386" lon="3.31691">
        <ele>131.7</ele>
        <time>2025-10-20T13:07:58.000Z</time>
      </trkpt>
      <trkpt lat="49.32385" lon="3.31689">
        <ele>131.7</ele>
        <time>2025-10-20T13:07:59.000Z</time>
      </trkpt>
      <trkpt lat="49.32384" lon="3.31687">
        <ele>131.7</ele>
        <time>2025-10-20T13:08:00.000Z</time>
      </trkpt>
      <trkpt lat="49.32383" lon="3.31685">
        <ele>131.2</ele>
        <time>2025-10-20T13:08:01.000Z</time>
      </trkpt>
      <trkpt lat="49.32382" lon="3.31684">
        <ele>130.9</ele>
        <time>2025-10-20T13:08:02.000Z</time>
      </trkpt>
      <trkpt lat="49.32381" lon="3.31682">
        <ele>130.7</ele>
        <time>2025-10-20T13:08:03.000Z</time>
      </trkpt>
      <trkpt lat="49.3238" lon="3.31681">
        <ele>130.6</ele>
        <time>2025-10-20T13:08:04.000Z</time>
      </trkpt>
      <trkpt lat="49.32379" lon="3.31679">
        <ele>130.7</ele>
        <time>2025-10-20T13:08:05.000Z</time>
      </trkpt>
      <trkpt lat="49.32378" lon="3.31677">
        <ele>130.6</ele>
        <time>2025-10-20T13:08:06.000Z</time>
      </trkpt>
      <trkpt lat="49.32378" lon="3.31675">
        <ele>130.9</ele>
        <time>2025-10-20T13:08:07.000Z</time>
      </trkpt>
      <trkpt lat="49.32377" lon="3.31673">
        <ele>130.9</ele>
        <time>2025-10-20T13:08:08.000Z</time>
      </trkpt>
      <trkpt lat="49.32376" lon="3.31671">
        <ele>131</ele>
        <time>2025-10-20T13:08:09.000Z</time>
      </trkpt>
      <trkpt lat="49.32375" lon="3.31669">
        <ele>131.2</ele>
        <time>2025-10-20T13:08:10.000Z</time>
      </trkpt>
      <trkpt lat="49.32374" lon="3.31667">
        <ele>131.2</ele>
        <time>2025-10-20T13:08:11.000Z</time>
      </trkpt>
      <trkpt lat="49.32373" lon="3.31666">
        <ele>131</ele>
        <time>2025-10-20T13:08:12.000Z</time>
      </trkpt>
      <trkpt lat="49.32372" lon="3.31664">
        <ele>130.9</ele>
        <time>2025-10-20T13:08:13.000Z</time>
      </trkpt>
      <trkpt lat="49.32371" lon="3.31663">
        <ele>130.9</ele>
        <time>2025-10-20T13:08:14.000Z</time>
      </trkpt>
      <trkpt lat="49.3237" lon="3.31661">
        <ele>130.8</ele>
        <time>2025-10-20T13:08:15.000Z</time>
      </trkpt>
      <trkpt lat="49.32369" lon="3.31659">
        <ele>130.7</ele>
        <time>2025-10-20T13:08:16.000Z</time>
      </trkpt>
      <trkpt lat="49.32368" lon="3.31656">
        <ele>130.4</ele>
        <time>2025-10-20T13:08:17.000Z</time>
      </trkpt>
      <trkpt lat="49.32367" lon="3.31653">
        <ele>130.1</ele>
        <time>2025-10-20T13:08:18.000Z</time>
      </trkpt>
      <trkpt lat="49.32366" lon="3.31651">
        <ele>129.9</ele>
        <time>2025-10-20T13:08:19.000Z</time>
      </trkpt>
      <trkpt lat="49.32364" lon="3.31649">
        <ele>130</ele>
        <time>2025-10-20T13:08:20.000Z</time>
      </trkpt>
      <trkpt lat="49.32363" lon="3.31647">
        <ele>129.8</ele>
        <time>2025-10-20T13:08:21.000Z</time>
      </trkpt>
      <trkpt lat="49.32363" lon="3.31646">
        <ele>130</ele>
        <time>2025-10-20T13:08:22.000Z</time>
      </trkpt>
      <trkpt lat="49.32361" lon="3.31644">
        <ele>130.2</ele>
        <time>2025-10-20T13:08:23.000Z</time>
      </trkpt>
      <trkpt lat="49.3236" lon="3.31642">
        <ele>130.2</ele>
        <time>2025-10-20T13:08:24.000Z</time>
      </trkpt>
      <trkpt lat="49.3236" lon="3.3164">
        <ele>130.1</ele>
        <time>2025-10-20T13:08:25.000Z</time>
      </trkpt>
      <trkpt lat="49.32359" lon="3.31639">
        <ele>130.1</ele>
        <time>2025-10-20T13:08:26.000Z</time>
      </trkpt>
      <trkpt lat="49.32358" lon="3.31637">
        <ele>130.2</ele>
        <time>2025-10-20T13:08:27.000Z</time>
      </trkpt>
      <trkpt lat="49.32357" lon="3.31636">
        <ele>130.3</ele>
        <time>2025-10-20T13:08:28.000Z</time>
      </trkpt>
      <trkpt lat="49.32356" lon="3.31634">
        <ele>130</ele>
        <time>2025-10-20T13:08:29.000Z</time>
      </trkpt>
      <trkpt lat="49.32355" lon="3.31632">
        <ele>129.5</ele>
        <time>2025-10-20T13:08:30.000Z</time>
      </trkpt>
      <trkpt lat="49.32354" lon="3.3163">
        <ele>129.1</ele>
        <time>2025-10-20T13:08:31.000Z</time>
      </trkpt>
      <trkpt lat="49.32353" lon="3.31628">
        <ele>128.9</ele>
        <time>2025-10-20T13:08:32.000Z</time>
      </trkpt>
      <trkpt lat="49.32353" lon="3.31626">
        <ele>128.9</ele>
        <time>2025-10-20T13:08:33.000Z</time>
      </trkpt>
      <trkpt lat="49.32352" lon="3.31623">
        <ele>128.9</ele>
        <time>2025-10-20T13:08:34.000Z</time>
      </trkpt>
      <trkpt lat="49.32352" lon="3.31621">
        <ele>128.7</ele>
        <time>2025-10-20T13:08:35.000Z</time>
      </trkpt>
      <trkpt lat="49.32351" lon="3.31619">
        <ele>128.8</ele>
        <time>2025-10-20T13:08:36.000Z</time>
      </trkpt>
      <trkpt lat="49.3235" lon="3.31617">
        <ele>129.1</ele>
        <time>2025-10-20T13:08:37.000Z</time>
      </trkpt>
      <trkpt lat="49.32349" lon="3.31615">
        <ele>129.1</ele>
        <time>2025-10-20T13:08:38.000Z</time>
      </trkpt>
      <trkpt lat="49.32348" lon="3.31613">
        <ele>129.1</ele>
        <time>2025-10-20T13:08:39.000Z</time>
      </trkpt>
      <trkpt lat="49.32348" lon="3.31611">
        <ele>128.8</ele>
        <time>2025-10-20T13:08:40.000Z</time>
      </trkpt>
      <trkpt lat="49.32347" lon="3.31609">
        <ele>128.6</ele>
        <time>2025-10-20T13:08:41.000Z</time>
      </trkpt>
      <trkpt lat="49.32346" lon="3.31607">
        <ele>128.3</ele>
        <time>2025-10-20T13:08:42.000Z</time>
      </trkpt>
      <trkpt lat="49.32345" lon="3.31605">
        <ele>128</ele>
        <time>2025-10-20T13:08:43.000Z</time>
      </trkpt>
      <trkpt lat="49.32344" lon="3.31603">
        <ele>127.5</ele>
        <time>2025-10-20T13:08:44.000Z</time>
      </trkpt>
      <trkpt lat="49.32343" lon="3.31601">
        <ele>127.5</ele>
        <time>2025-10-20T13:08:45.000Z</time>
      </trkpt>
      <trkpt lat="49.32343" lon="3.31599">
        <ele>127.7</ele>
        <time>2025-10-20T13:08:46.000Z</time>
      </trkpt>
      <trkpt lat="49.32342" lon="3.31598">
        <ele>128.1</ele>
        <time>2025-10-20T13:08:47.000Z</time>
      </trkpt>
      <trkpt lat="49.32341" lon="3.31596">
        <ele>128.3</ele>
        <time>2025-10-20T13:08:48.000Z</time>
      </trkpt>
      <trkpt lat="49.3234" lon="3.31594">
        <ele>128.5</ele>
        <time>2025-10-20T13:08:49.000Z</time>
      </trkpt>
      <trkpt lat="49.32339" lon="3.31592">
        <ele>128.7</ele>
        <time>2025-10-20T13:08:50.000Z</time>
      </trkpt>
      <trkpt lat="49.32338" lon="3.3159">
        <ele>128.6</ele>
        <time>2025-10-20T13:08:51.000Z</time>
      </trkpt>
      <trkpt lat="49.32337" lon="3.31587">
        <ele>128.7</ele>
        <time>2025-10-20T13:08:52.000Z</time>
      </trkpt>
      <trkpt lat="49.32336" lon="3.31586">
        <ele>128.6</ele>
        <time>2025-10-20T13:08:53.000Z</time>
      </trkpt>
      <trkpt lat="49.32335" lon="3.31584">
        <ele>128.6</ele>
        <time>2025-10-20T13:08:54.000Z</time>
      </trkpt>
      <trkpt lat="49.32334" lon="3.31583">
        <ele>128.7</ele>
        <time>2025-10-20T13:08:55.000Z</time>
      </trkpt>
      <trkpt lat="49.32334" lon="3.31581">
        <ele>128.7</ele>
        <time>2025-10-20T13:08:56.000Z</time>
      </trkpt>
      <trkpt lat="49.32333" lon="3.31581">
        <ele>129.2</ele>
        <time>2025-10-20T13:08:57.000Z</time>
      </trkpt>
      <trkpt lat="49.32332" lon="3.31579">
        <ele>129.2</ele>
        <time>2025-10-20T13:08:58.000Z</time>
      </trkpt>
      <trkpt lat="49.32331" lon="3.31577">
        <ele>129.3</ele>
        <time>2025-10-20T13:08:59.000Z</time>
      </trkpt>
      <trkpt lat="49.32329" lon="3.31575">
        <ele>129</ele>
        <time>2025-10-20T13:09:00.000Z</time>
      </trkpt>
      <trkpt lat="49.32328" lon="3.31573">
        <ele>128.8</ele>
        <time>2025-10-20T13:09:01.000Z</time>
      </trkpt>
      <trkpt lat="49.32327" lon="3.31572">
        <ele>128.6</ele>
        <time>2025-10-20T13:09:02.000Z</time>
      </trkpt>
      <trkpt lat="49.32326" lon="3.31571">
        <ele>128.4</ele>
        <time>2025-10-20T13:09:03.000Z</time>
      </trkpt>
      <trkpt lat="49.32325" lon="3.31569">
        <ele>128.5</ele>
        <time>2025-10-20T13:09:04.000Z</time>
      </trkpt>
      <trkpt lat="49.32323" lon="3.31567">
        <ele>128.3</ele>
        <time>2025-10-20T13:09:05.000Z</time>
      </trkpt>
      <trkpt lat="49.32322" lon="3.31565">
        <ele>128.1</ele>
        <time>2025-10-20T13:09:06.000Z</time>
      </trkpt>
      <trkpt lat="49.32321" lon="3.31563">
        <ele>128.1</ele>
        <time>2025-10-20T13:09:07.000Z</time>
      </trkpt>
      <trkpt lat="49.32321" lon="3.31561">
        <ele>127.9</ele>
        <time>2025-10-20T13:09:08.000Z</time>
      </trkpt>
      <trkpt lat="49.32321" lon="3.31559">
        <ele>127.7</ele>
        <time>2025-10-20T13:09:09.000Z</time>
      </trkpt>
      <trkpt lat="49.32321" lon="3.31557">
        <ele>127.9</ele>
        <time>2025-10-20T13:09:10.000Z</time>
      </trkpt>
      <trkpt lat="49.32321" lon="3.31556">
        <ele>128</ele>
        <time>2025-10-20T13:09:11.000Z</time>
      </trkpt>
      <trkpt lat="49.32322" lon="3.31554">
        <ele>127.9</ele>
        <time>2025-10-20T13:09:12.000Z</time>
      </trkpt>
      <trkpt lat="49.32322" lon="3.31552">
        <ele>127.8</ele>
        <time>2025-10-20T13:09:13.000Z</time>
      </trkpt>
      <trkpt lat="49.32323" lon="3.31552">
        <ele>127.7</ele>
        <time>2025-10-20T13:09:14.000Z</time>
      </trkpt>
      <trkpt lat="49.32323" lon="3.31552">
        <ele>127.9</ele>
        <time>2025-10-20T13:09:15.000Z</time>
      </trkpt>
      <trkpt lat="49.32323" lon="3.31551">
        <ele>128.2</ele>
        <time>2025-10-20T13:09:16.000Z</time>
      </trkpt>
      <trkpt lat="49.32323" lon="3.31551">
        <ele>128.1</ele>
        <time>2025-10-20T13:09:17.000Z</time>
      </trkpt>
      <trkpt lat="49.32324" lon="3.3155">
        <ele>128.1</ele>
        <time>2025-10-20T13:09:18.000Z</time>
      </trkpt>
      <trkpt lat="49.32324" lon="3.3155">
        <ele>127.9</ele>
        <time>2025-10-20T13:09:19.000Z</time>
      </trkpt>
      <trkpt lat="49.32324" lon="3.31551">
        <ele>127.8</ele>
        <time>2025-10-20T13:09:20.000Z</time>
      </trkpt>
      <trkpt lat="49.32324" lon="3.31551">
        <ele>127.6</ele>
        <time>2025-10-20T13:09:21.000Z</time>
      </trkpt>
      <trkpt lat="49.32325" lon="3.31551">
        <ele>127.3</ele>
        <time>2025-10-20T13:09:22.000Z</time>
      </trkpt>
      <trkpt lat="49.32325" lon="3.31551">
        <ele>127.1</ele>
        <time>2025-10-20T13:09:23.000Z</time>
      </trkpt>
      <trkpt lat="49.32325" lon="3.31551">
        <ele>126.9</ele>
        <time>2025-10-20T13:09:24.000Z</time>
      </trkpt>
      <trkpt lat="49.32325" lon="3.31551">
        <ele>126.9</ele>
        <time>2025-10-20T13:09:25.000Z</time>
      </trkpt>
      <trkpt lat="49.32325" lon="3.31551">
        <ele>126.9</ele>
        <time>2025-10-20T13:09:26.000Z</time>
      </trkpt>
      <trkpt lat="49.32325" lon="3.31551">
        <ele>126.9</ele>
        <time>2025-10-20T13:09:27.000Z</time>
      </trkpt>
      <trkpt lat="49.32325" lon="3.31551">
        <ele>126.9</ele>
        <time>2025-10-20T13:09:28.000Z</time>
      </trkpt>
      <trkpt lat="49.32325" lon="3.31551">
        <ele>126.9</ele>
        <time>2025-10-20T13:09:29.000Z</time>
      </trkpt>
      <trkpt lat="49.32325" lon="3.31551">
        <ele>126.9</ele>
        <time>2025-10-20T13:09:30.000Z</time>
      </trkpt>
      <trkpt lat="49.32325" lon="3.31551">
        <ele>126.9</ele>
        <time>2025-10-20T13:09:31.000Z</time>
      </trkpt>
      <trkpt lat="49.32325" lon="3.31551">
        <ele>126.9</ele>
        <time>2025-10-20T13:09:32.000Z</time>
      </trkpt>
      <trkpt lat="49.32325" lon="3.31551">
        <ele>126.9</ele>
        <time>2025-10-20T13:09:33.000Z</time>
      </trkpt>
      <trkpt lat="49.32325" lon="3.31551">
        <ele>126.9</ele>
        <time>2025-10-20T13:09:34.000Z</time>
      </trkpt>
      <trkpt lat="49.32325" lon="3.31551">
        <ele>126.9</ele>
        <time>2025-10-20T13:09:35.000Z</time>
      </trkpt>
      <trkpt lat="49.32325" lon="3.31551">
        <ele>126.9</ele>
        <time>2025-10-20T13:09:36.000Z</time>
      </trkpt>
      <trkpt lat="49.32325" lon="3.31551">
        <ele>126.9</ele>
        <time>2025-10-20T13:09:37.000Z</time>
      </trkpt>
      <trkpt lat="49.32325" lon="3.31551">
        <ele>126.9</ele>
        <time>2025-10-20T13:09:38.000Z</time>
      </trkpt>
      <trkpt lat="49.32325" lon="3.31551">
        <ele>126.9</ele>
        <time>2025-10-20T13:09:39.000Z</time>
      </trkpt>
      <trkpt lat="49.32325" lon="3.31551">
        <ele>126.9</ele>
        <time>2025-10-20T13:09:40.000Z</time>
      </trkpt>
      <trkpt lat="49.32325" lon="3.31551">
        <ele>126.9</ele>
        <time>2025-10-20T13:09:41.000Z</time>
      </trkpt>
      <trkpt lat="49.32323" lon="3.31552">
        <ele>126.5</ele>
        <time>2025-10-20T13:09:42.000Z</time>
      </trkpt>
      <trkpt lat="49.32323" lon="3.31553">
        <ele>126.8</ele>
        <time>2025-10-20T13:09:43.000Z</time>
      </trkpt>
      <trkpt lat="49.32322" lon="3.31553">
        <ele>126.9</ele>
        <time>2025-10-20T13:09:44.000Z</time>
      </trkpt>
      <trkpt lat="49.32322" lon="3.31553">
        <ele>127.3</ele>
        <time>2025-10-20T13:09:45.000Z</time>
      </trkpt>
      <trkpt lat="49.32322" lon="3.31553">
        <ele>127.5</ele>
        <time>2025-10-20T13:09:46.000Z</time>
      </trkpt>
      <trkpt lat="49.32322" lon="3.31554">
        <ele>127.9</ele>
        <time>2025-10-20T13:09:47.000Z</time>
      </trkpt>
      <trkpt lat="49.32322" lon="3.31554">
        <ele>128.3</ele>
        <time>2025-10-20T13:09:48.000Z</time>
      </trkpt>
      <trkpt lat="49.32322" lon="3.31554">
        <ele>128.3</ele>
        <time>2025-10-20T13:09:49.000Z</time>
      </trkpt>
      <trkpt lat="49.32322" lon="3.31554">
        <ele>128.5</ele>
        <time>2025-10-20T13:09:50.000Z</time>
      </trkpt>
      <trkpt lat="49.32322" lon="3.31554">
        <ele>128.8</ele>
        <time>2025-10-20T13:09:51.000Z</time>
      </trkpt>
      <trkpt lat="49.32322" lon="3.31555">
        <ele>128.9</ele>
        <time>2025-10-20T13:09:52.000Z</time>
      </trkpt>
      <trkpt lat="49.32322" lon="3.31556">
        <ele>129</ele>
        <time>2025-10-20T13:09:53.000Z</time>
      </trkpt>
      <trkpt lat="49.32323" lon="3.31557">
        <ele>128.9</ele>
        <time>2025-10-20T13:09:54.000Z</time>
      </trkpt>
      <trkpt lat="49.32323" lon="3.31558">
        <ele>128.7</ele>
        <time>2025-10-20T13:09:55.000Z</time>
      </trkpt>
      <trkpt lat="49.32323" lon="3.31559">
        <ele>128.8</ele>
        <time>2025-10-20T13:09:56.000Z</time>
      </trkpt>
      <trkpt lat="49.32323" lon="3.3156">
        <ele>128.7</ele>
        <time>2025-10-20T13:09:57.000Z</time>
      </trkpt>
      <trkpt lat="49.32323" lon="3.31561">
        <ele>128.3</ele>
        <time>2025-10-20T13:09:58.000Z</time>
      </trkpt>
      <trkpt lat="49.32323" lon="3.31561">
        <ele>128.1</ele>
        <time>2025-10-20T13:09:59.000Z</time>
      </trkpt>
      <trkpt lat="49.32323" lon="3.31562">
        <ele>127.9</ele>
        <time>2025-10-20T13:10:00.000Z</time>
      </trkpt>
      <trkpt lat="49.32323" lon="3.31562">
        <ele>127.9</ele>
        <time>2025-10-20T13:10:01.000Z</time>
      </trkpt>
      <trkpt lat="49.32323" lon="3.31562">
        <ele>127.9</ele>
        <time>2025-10-20T13:10:02.000Z</time>
      </trkpt>
      <trkpt lat="49.32323" lon="3.31562">
        <ele>127.9</ele>
        <time>2025-10-20T13:10:03.000Z</time>
      </trkpt>
      <trkpt lat="49.32323" lon="3.31562">
        <ele>127.9</ele>
        <time>2025-10-20T13:10:04.000Z</time>
      </trkpt>
      <trkpt lat="49.32323" lon="3.31562">
        <ele>127.9</ele>
        <time>2025-10-20T13:10:05.000Z</time>
      </trkpt>
      <trkpt lat="49.32324" lon="3.31565">
        <ele>126.5</ele>
        <time>2025-10-20T13:10:06.000Z</time>
      </trkpt>
      <trkpt lat="49.32325" lon="3.31566">
        <ele>126.3</ele>
        <time>2025-10-20T13:10:07.000Z</time>
      </trkpt>
      <trkpt lat="49.32326" lon="3.31567">
        <ele>126.4</ele>
        <time>2025-10-20T13:10:08.000Z</time>
      </trkpt>
      <trkpt lat="49.32326" lon="3.31568">
        <ele>126.3</ele>
        <time>2025-10-20T13:10:09.000Z</time>
      </trkpt>
      <trkpt lat="49.32327" lon="3.31569">
        <ele>126.3</ele>
        <time>2025-10-20T13:10:10.000Z</time>
      </trkpt>
      <trkpt lat="49.32328" lon="3.31571">
        <ele>126.2</ele>
        <time>2025-10-20T13:10:11.000Z</time>
      </trkpt>
      <trkpt lat="49.32329" lon="3.31572">
        <ele>126.1</ele>
        <time>2025-10-20T13:10:12.000Z</time>
      </trkpt>
      <trkpt lat="49.3233" lon="3.31573">
        <ele>126</ele>
        <time>2025-10-20T13:10:13.000Z</time>
      </trkpt>
      <trkpt lat="49.32331" lon="3.31575">
        <ele>125.9</ele>
        <time>2025-10-20T13:10:14.000Z</time>
      </trkpt>
      <trkpt lat="49.32331" lon="3.31576">
        <ele>125.9</ele>
        <time>2025-10-20T13:10:15.000Z</time>
      </trkpt>
      <trkpt lat="49.32332" lon="3.31577">
        <ele>125.9</ele>
        <time>2025-10-20T13:10:16.000Z</time>
      </trkpt>
      <trkpt lat="49.32333" lon="3.31578">
        <ele>125.9</ele>
        <time>2025-10-20T13:10:17.000Z</time>
      </trkpt>
      <trkpt lat="49.32333" lon="3.31579">
        <ele>125.8</ele>
        <time>2025-10-20T13:10:18.000Z</time>
      </trkpt>
      <trkpt lat="49.32334" lon="3.31581">
        <ele>125.8</ele>
        <time>2025-10-20T13:10:19.000Z</time>
      </trkpt>
      <trkpt lat="49.32335" lon="3.31581">
        <ele>126</ele>
        <time>2025-10-20T13:10:20.000Z</time>
      </trkpt>
      <trkpt lat="49.32335" lon="3.31582">
        <ele>126</ele>
        <time>2025-10-20T13:10:21.000Z</time>
      </trkpt>
      <trkpt lat="49.32336" lon="3.31583">
        <ele>126.3</ele>
        <time>2025-10-20T13:10:22.000Z</time>
      </trkpt>
      <trkpt lat="49.32337" lon="3.31584">
        <ele>126.7</ele>
        <time>2025-10-20T13:10:23.000Z</time>
      </trkpt>
      <trkpt lat="49.32337" lon="3.31585">
        <ele>126.9</ele>
        <time>2025-10-20T13:10:24.000Z</time>
      </trkpt>
      <trkpt lat="49.32338" lon="3.31586">
        <ele>127.3</ele>
        <time>2025-10-20T13:10:25.000Z</time>
      </trkpt>
      <trkpt lat="49.32338" lon="3.31587">
        <ele>127.8</ele>
        <time>2025-10-20T13:10:26.000Z</time>
      </trkpt>
      <trkpt lat="49.32339" lon="3.31588">
        <ele>128.1</ele>
        <time>2025-10-20T13:10:27.000Z</time>
      </trkpt>
      <trkpt lat="49.32339" lon="3.31589">
        <ele>128.7</ele>
        <time>2025-10-20T13:10:28.000Z</time>
      </trkpt>
      <trkpt lat="49.3234" lon="3.3159">
        <ele>129.3</ele>
        <time>2025-10-20T13:10:29.000Z</time>
      </trkpt>
      <trkpt lat="49.3234" lon="3.31591">
        <ele>129.8</ele>
        <time>2025-10-20T13:10:30.000Z</time>
      </trkpt>
      <trkpt lat="49.32341" lon="3.31593">
        <ele>130</ele>
        <time>2025-10-20T13:10:31.000Z</time>
      </trkpt>
      <trkpt lat="49.32342" lon="3.31594">
        <ele>130</ele>
        <time>2025-10-20T13:10:32.000Z</time>
      </trkpt>
      <trkpt lat="49.32343" lon="3.31595">
        <ele>130.2</ele>
        <time>2025-10-20T13:10:33.000Z</time>
      </trkpt>
      <trkpt lat="49.32344" lon="3.31596">
        <ele>130.3</ele>
        <time>2025-10-20T13:10:34.000Z</time>
      </trkpt>
      <trkpt lat="49.32344" lon="3.31597">
        <ele>130.5</ele>
        <time>2025-10-20T13:10:35.000Z</time>
      </trkpt>
      <trkpt lat="49.32345" lon="3.31599">
        <ele>130.3</ele>
        <time>2025-10-20T13:10:36.000Z</time>
      </trkpt>
      <trkpt lat="49.32346" lon="3.31601">
        <ele>130.1</ele>
        <time>2025-10-20T13:10:37.000Z</time>
      </trkpt>
      <trkpt lat="49.32346" lon="3.31602">
        <ele>129.8</ele>
        <time>2025-10-20T13:10:38.000Z</time>
      </trkpt>
      <trkpt lat="49.32347" lon="3.31604">
        <ele>129.8</ele>
        <time>2025-10-20T13:10:39.000Z</time>
      </trkpt>
      <trkpt lat="49.32348" lon="3.31605">
        <ele>129.8</ele>
        <time>2025-10-20T13:10:40.000Z</time>
      </trkpt>
      <trkpt lat="49.32348" lon="3.31606">
        <ele>129.9</ele>
        <time>2025-10-20T13:10:41.000Z</time>
      </trkpt>
      <trkpt lat="49.32348" lon="3.31607">
        <ele>129.9</ele>
        <time>2025-10-20T13:10:42.000Z</time>
      </trkpt>
      <trkpt lat="49.32349" lon="3.31609">
        <ele>129.7</ele>
        <time>2025-10-20T13:10:43.000Z</time>
      </trkpt>
      <trkpt lat="49.32349" lon="3.3161">
        <ele>129.5</ele>
        <time>2025-10-20T13:10:44.000Z</time>
      </trkpt>
      <trkpt lat="49.32348" lon="3.3161">
        <ele>129.4</ele>
        <time>2025-10-20T13:10:45.000Z</time>
      </trkpt>
      <trkpt lat="49.32348" lon="3.3161">
        <ele>129.4</ele>
        <time>2025-10-20T13:10:46.000Z</time>
      </trkpt>
      <trkpt lat="49.32348" lon="3.3161">
        <ele>129.5</ele>
        <time>2025-10-20T13:10:47.000Z</time>
      </trkpt>
      <trkpt lat="49.32347" lon="3.3161">
        <ele>129.6</ele>
        <time>2025-10-20T13:10:48.000Z</time>
      </trkpt>
      <trkpt lat="49.32346" lon="3.3161">
        <ele>129.7</ele>
        <time>2025-10-20T13:10:49.000Z</time>
      </trkpt>
      <trkpt lat="49.32346" lon="3.31609">
        <ele>129.6</ele>
        <time>2025-10-20T13:10:50.000Z</time>
      </trkpt>
      <trkpt lat="49.32345" lon="3.31609">
        <ele>129.6</ele>
        <time>2025-10-20T13:10:51.000Z</time>
      </trkpt>
      <trkpt lat="49.32345" lon="3.31608">
        <ele>129.8</ele>
        <time>2025-10-20T13:10:52.000Z</time>
      </trkpt>
      <trkpt lat="49.32345" lon="3.31607">
        <ele>129.9</ele>
        <time>2025-10-20T13:10:53.000Z</time>
      </trkpt>
      <trkpt lat="49.32345" lon="3.31606">
        <ele>130.2</ele>
        <time>2025-10-20T13:10:54.000Z</time>
      </trkpt>
      <trkpt lat="49.32344" lon="3.31605">
        <ele>130.3</ele>
        <time>2025-10-20T13:10:55.000Z</time>
      </trkpt>
      <trkpt lat="49.32344" lon="3.31604">
        <ele>130.6</ele>
        <time>2025-10-20T13:10:56.000Z</time>
      </trkpt>
      <trkpt lat="49.32343" lon="3.31603">
        <ele>130.8</ele>
        <time>2025-10-20T13:10:57.000Z</time>
      </trkpt>
      <trkpt lat="49.32342" lon="3.31602">
        <ele>131</ele>
        <time>2025-10-20T13:10:58.000Z</time>
      </trkpt>
      <trkpt lat="49.32342" lon="3.316">
        <ele>131.3</ele>
        <time>2025-10-20T13:10:59.000Z</time>
      </trkpt>
      <trkpt lat="49.32341" lon="3.31599">
        <ele>131.5</ele>
        <time>2025-10-20T13:11:00.000Z</time>
      </trkpt>
      <trkpt lat="49.3234" lon="3.31598">
        <ele>131.6</ele>
        <time>2025-10-20T13:11:01.000Z</time>
      </trkpt>
      <trkpt lat="49.3234" lon="3.31596">
        <ele>131.7</ele>
        <time>2025-10-20T13:11:02.000Z</time>
      </trkpt>
      <trkpt lat="49.32339" lon="3.31595">
        <ele>131.5</ele>
        <time>2025-10-20T13:11:03.000Z</time>
      </trkpt>
      <trkpt lat="49.32338" lon="3.31594">
        <ele>131.4</ele>
        <time>2025-10-20T13:11:04.000Z</time>
      </trkpt>
      <trkpt lat="49.32336" lon="3.31593">
        <ele>131.5</ele>
        <time>2025-10-20T13:11:05.000Z</time>
      </trkpt>
      <trkpt lat="49.32336" lon="3.31592">
        <ele>132</ele>
        <time>2025-10-20T13:11:06.000Z</time>
      </trkpt>
      <trkpt lat="49.32335" lon="3.31591">
        <ele>132.5</ele>
        <time>2025-10-20T13:11:07.000Z</time>
      </trkpt>
      <trkpt lat="49.32334" lon="3.31589">
        <ele>133</ele>
        <time>2025-10-20T13:11:08.000Z</time>
      </trkpt>
      <trkpt lat="49.32334" lon="3.31588">
        <ele>133.1</ele>
        <time>2025-10-20T13:11:09.000Z</time>
      </trkpt>
      <trkpt lat="49.32333" lon="3.31587">
        <ele>133.2</ele>
        <time>2025-10-20T13:11:10.000Z</time>
      </trkpt>
      <trkpt lat="49.32333" lon="3.31585">
        <ele>133.3</ele>
        <time>2025-10-20T13:11:11.000Z</time>
      </trkpt>
      <trkpt lat="49.32332" lon="3.31584">
        <ele>133.3</ele>
        <time>2025-10-20T13:11:12.000Z</time>
      </trkpt>
      <trkpt lat="49.32331" lon="3.31582">
        <ele>133.1</ele>
        <time>2025-10-20T13:11:13.000Z</time>
      </trkpt>
      <trkpt lat="49.3233" lon="3.3158">
        <ele>132.9</ele>
        <time>2025-10-20T13:11:14.000Z</time>
      </trkpt>
      <trkpt lat="49.32329" lon="3.31579">
        <ele>132.8</ele>
        <time>2025-10-20T13:11:15.000Z</time>
      </trkpt>
      <trkpt lat="49.32328" lon="3.31578">
        <ele>132.3</ele>
        <time>2025-10-20T13:11:16.000Z</time>
      </trkpt>
      <trkpt lat="49.32326" lon="3.31576">
        <ele>132.1</ele>
        <time>2025-10-20T13:11:17.000Z</time>
      </trkpt>
      <trkpt lat="49.32325" lon="3.31575">
        <ele>131.9</ele>
        <time>2025-10-20T13:11:18.000Z</time>
      </trkpt>
      <trkpt lat="49.32324" lon="3.31573">
        <ele>131.7</ele>
        <time>2025-10-20T13:11:19.000Z</time>
      </trkpt>
      <trkpt lat="49.32323" lon="3.31571">
        <ele>131.5</ele>
        <time>2025-10-20T13:11:20.000Z</time>
      </trkpt>
      <trkpt lat="49.32322" lon="3.3157">
        <ele>131.3</ele>
        <time>2025-10-20T13:11:21.000Z</time>
      </trkpt>
      <trkpt lat="49.32322" lon="3.31568">
        <ele>131.3</ele>
        <time>2025-10-20T13:11:22.000Z</time>
      </trkpt>
      <trkpt lat="49.32321" lon="3.31567">
        <ele>131.2</ele>
        <time>2025-10-20T13:11:23.000Z</time>
      </trkpt>
      <trkpt lat="49.3232" lon="3.31564">
        <ele>131</ele>
        <time>2025-10-20T13:11:24.000Z</time>
      </trkpt>
      <trkpt lat="49.3232" lon="3.31561">
        <ele>130.9</ele>
        <time>2025-10-20T13:11:25.000Z</time>
      </trkpt>
      <trkpt lat="49.3232" lon="3.31559">
        <ele>130.6</ele>
        <time>2025-10-20T13:11:26.000Z</time>
      </trkpt>
      <trkpt lat="49.3232" lon="3.31556">
        <ele>130.5</ele>
        <time>2025-10-20T13:11:27.000Z</time>
      </trkpt>
      <trkpt lat="49.32321" lon="3.31554">
        <ele>130.4</ele>
        <time>2025-10-20T13:11:28.000Z</time>
      </trkpt>
      <trkpt lat="49.32322" lon="3.31553">
        <ele>129.9</ele>
        <time>2025-10-20T13:11:29.000Z</time>
      </trkpt>
      <trkpt lat="49.32323" lon="3.31551">
        <ele>129.6</ele>
        <time>2025-10-20T13:11:30.000Z</time>
      </trkpt>
      <trkpt lat="49.32324" lon="3.31549">
        <ele>129</ele>
        <time>2025-10-20T13:11:31.000Z</time>
      </trkpt>
      <trkpt lat="49.32325" lon="3.31548">
        <ele>128.5</ele>
        <time>2025-10-20T13:11:32.000Z</time>
      </trkpt>
      <trkpt lat="49.32327" lon="3.31547">
        <ele>127.9</ele>
        <time>2025-10-20T13:11:33.000Z</time>
      </trkpt>
      <trkpt lat="49.32329" lon="3.31547">
        <ele>127.4</ele>
        <time>2025-10-20T13:11:34.000Z</time>
      </trkpt>
      <trkpt lat="49.32331" lon="3.31547">
        <ele>127.2</ele>
        <time>2025-10-20T13:11:35.000Z</time>
      </trkpt>
      <trkpt lat="49.32332" lon="3.31547">
        <ele>127.1</ele>
        <time>2025-10-20T13:11:36.000Z</time>
      </trkpt>
      <trkpt lat="49.32334" lon="3.31547">
        <ele>127.1</ele>
        <time>2025-10-20T13:11:37.000Z</time>
      </trkpt>
      <trkpt lat="49.32335" lon="3.31547">
        <ele>127.1</ele>
        <time>2025-10-20T13:11:38.000Z</time>
      </trkpt>
      <trkpt lat="49.32337" lon="3.31547">
        <ele>126.9</ele>
        <time>2025-10-20T13:11:39.000Z</time>
      </trkpt>
      <trkpt lat="49.32339" lon="3.31547">
        <ele>126.8</ele>
        <time>2025-10-20T13:11:40.000Z</time>
      </trkpt>
      <trkpt lat="49.3234" lon="3.31547">
        <ele>127</ele>
        <time>2025-10-20T13:11:41.000Z</time>
      </trkpt>
      <trkpt lat="49.32341" lon="3.31547">
        <ele>127.2</ele>
        <time>2025-10-20T13:11:42.000Z</time>
      </trkpt>
      <trkpt lat="49.32342" lon="3.31547">
        <ele>127.4</ele>
        <time>2025-10-20T13:11:43.000Z</time>
      </trkpt>
      <trkpt lat="49.32343" lon="3.31547">
        <ele>127.6</ele>
        <time>2025-10-20T13:11:44.000Z</time>
      </trkpt>
      <trkpt lat="49.32344" lon="3.31547">
        <ele>127.8</ele>
        <time>2025-10-20T13:11:45.000Z</time>
      </trkpt>
      <trkpt lat="49.32345" lon="3.31547">
        <ele>128.1</ele>
        <time>2025-10-20T13:11:46.000Z</time>
      </trkpt>
      <trkpt lat="49.32347" lon="3.31547">
        <ele>128.1</ele>
        <time>2025-10-20T13:11:47.000Z</time>
      </trkpt>
      <trkpt lat="49.32348" lon="3.31547">
        <ele>128.1</ele>
        <time>2025-10-20T13:11:48.000Z</time>
      </trkpt>
      <trkpt lat="49.32349" lon="3.31547">
        <ele>128.4</ele>
        <time>2025-10-20T13:11:49.000Z</time>
      </trkpt>
      <trkpt lat="49.32351" lon="3.31547">
        <ele>128.8</ele>
        <time>2025-10-20T13:11:50.000Z</time>
      </trkpt>
      <trkpt lat="49.32352" lon="3.31547">
        <ele>129.1</ele>
        <time>2025-10-20T13:11:51.000Z</time>
      </trkpt>
      <trkpt lat="49.32353" lon="3.31548">
        <ele>129.3</ele>
        <time>2025-10-20T13:11:52.000Z</time>
      </trkpt>
      <trkpt lat="49.32355" lon="3.31547">
        <ele>129.3</ele>
        <time>2025-10-20T13:11:53.000Z</time>
      </trkpt>
      <trkpt lat="49.32356" lon="3.31547">
        <ele>129.6</ele>
        <time>2025-10-20T13:11:54.000Z</time>
      </trkpt>
      <trkpt lat="49.32357" lon="3.31547">
        <ele>129.8</ele>
        <time>2025-10-20T13:11:55.000Z</time>
      </trkpt>
      <trkpt lat="49.32359" lon="3.31547">
        <ele>129.9</ele>
        <time>2025-10-20T13:11:56.000Z</time>
      </trkpt>
      <trkpt lat="49.3236" lon="3.31546">
        <ele>130</ele>
        <time>2025-10-20T13:11:57.000Z</time>
      </trkpt>
      <trkpt lat="49.32361" lon="3.31545">
        <ele>130.2</ele>
        <time>2025-10-20T13:11:58.000Z</time>
      </trkpt>
      <trkpt lat="49.32363" lon="3.31544">
        <ele>130.7</ele>
        <time>2025-10-20T13:11:59.000Z</time>
      </trkpt>
      <trkpt lat="49.32364" lon="3.31543">
        <ele>131.2</ele>
        <time>2025-10-20T13:12:00.000Z</time>
      </trkpt>
      <trkpt lat="49.32365" lon="3.31542">
        <ele>131.4</ele>
        <time>2025-10-20T13:12:01.000Z</time>
      </trkpt>
      <trkpt lat="49.32366" lon="3.3154">
        <ele>131.5</ele>
        <time>2025-10-20T13:12:02.000Z</time>
      </trkpt>
      <trkpt lat="49.32368" lon="3.31539">
        <ele>131.4</ele>
        <time>2025-10-20T13:12:03.000Z</time>
      </trkpt>
      <trkpt lat="49.32369" lon="3.31538">
        <ele>131.3</ele>
        <time>2025-10-20T13:12:04.000Z</time>
      </trkpt>
      <trkpt lat="49.3237" lon="3.31537">
        <ele>131.4</ele>
        <time>2025-10-20T13:12:05.000Z</time>
      </trkpt>
      <trkpt lat="49.32371" lon="3.31536">
        <ele>131.8</ele>
        <time>2025-10-20T13:12:06.000Z</time>
      </trkpt>
      <trkpt lat="49.32372" lon="3.31534">
        <ele>132</ele>
        <time>2025-10-20T13:12:07.000Z</time>
      </trkpt>
      <trkpt lat="49.32373" lon="3.31533">
        <ele>132.2</ele>
        <time>2025-10-20T13:12:08.000Z</time>
      </trkpt>
      <trkpt lat="49.32374" lon="3.31532">
        <ele>132.2</ele>
        <time>2025-10-20T13:12:09.000Z</time>
      </trkpt>
      <trkpt lat="49.32375" lon="3.31531">
        <ele>132.5</ele>
        <time>2025-10-20T13:12:10.000Z</time>
      </trkpt>
      <trkpt lat="49.32376" lon="3.31529">
        <ele>132.9</ele>
        <time>2025-10-20T13:12:11.000Z</time>
      </trkpt>
      <trkpt lat="49.32377" lon="3.31528">
        <ele>133.1</ele>
        <time>2025-10-20T13:12:12.000Z</time>
      </trkpt>
      <trkpt lat="49.32378" lon="3.31526">
        <ele>133</ele>
        <time>2025-10-20T13:12:13.000Z</time>
      </trkpt>
      <trkpt lat="49.32379" lon="3.31524">
        <ele>132.9</ele>
        <time>2025-10-20T13:12:14.000Z</time>
      </trkpt>
      <trkpt lat="49.32379" lon="3.31524">
        <ele>132.9</ele>
        <time>2025-10-20T13:12:15.000Z</time>
      </trkpt>
      <trkpt lat="49.3238" lon="3.31523">
        <ele>133</ele>
        <time>2025-10-20T13:12:16.000Z</time>
      </trkpt>
      <trkpt lat="49.32381" lon="3.31522">
        <ele>133.2</ele>
        <time>2025-10-20T13:12:17.000Z</time>
      </trkpt>
      <trkpt lat="49.32382" lon="3.31521">
        <ele>133.3</ele>
        <time>2025-10-20T13:12:18.000Z</time>
      </trkpt>
      <trkpt lat="49.32384" lon="3.31521">
        <ele>133.4</ele>
        <time>2025-10-20T13:12:19.000Z</time>
      </trkpt>
      <trkpt lat="49.32385" lon="3.3152">
        <ele>133.4</ele>
        <time>2025-10-20T13:12:20.000Z</time>
      </trkpt>
      <trkpt lat="49.32386" lon="3.31519">
        <ele>133.6</ele>
        <time>2025-10-20T13:12:21.000Z</time>
      </trkpt>
      <trkpt lat="49.32387" lon="3.31518">
        <ele>133.7</ele>
        <time>2025-10-20T13:12:22.000Z</time>
      </trkpt>
      <trkpt lat="49.32388" lon="3.31516">
        <ele>133.7</ele>
        <time>2025-10-20T13:12:23.000Z</time>
      </trkpt>
      <trkpt lat="49.3239" lon="3.31515">
        <ele>133.9</ele>
        <time>2025-10-20T13:12:24.000Z</time>
      </trkpt>
      <trkpt lat="49.32391" lon="3.31515">
        <ele>134</ele>
        <time>2025-10-20T13:12:25.000Z</time>
      </trkpt>
      <trkpt lat="49.32392" lon="3.31514">
        <ele>134.1</ele>
        <time>2025-10-20T13:12:26.000Z</time>
      </trkpt>
      <trkpt lat="49.32394" lon="3.31513">
        <ele>134.1</ele>
        <time>2025-10-20T13:12:27.000Z</time>
      </trkpt>
      <trkpt lat="49.32395" lon="3.31513">
        <ele>134.1</ele>
        <time>2025-10-20T13:12:28.000Z</time>
      </trkpt>
      <trkpt lat="49.32396" lon="3.31513">
        <ele>134.1</ele>
        <time>2025-10-20T13:12:29.000Z</time>
      </trkpt>
      <trkpt lat="49.32398" lon="3.31512">
        <ele>134.2</ele>
        <time>2025-10-20T13:12:30.000Z</time>
      </trkpt>
      <trkpt lat="49.32399" lon="3.31512">
        <ele>134.2</ele>
        <time>2025-10-20T13:12:31.000Z</time>
      </trkpt>
      <trkpt lat="49.324" lon="3.31512">
        <ele>134.3</ele>
        <time>2025-10-20T13:12:32.000Z</time>
      </trkpt>
      <trkpt lat="49.32401" lon="3.31512">
        <ele>134.5</ele>
        <time>2025-10-20T13:12:33.000Z</time>
      </trkpt>
      <trkpt lat="49.32403" lon="3.31512">
        <ele>134.6</ele>
        <time>2025-10-20T13:12:34.000Z</time>
      </trkpt>
      <trkpt lat="49.32404" lon="3.31512">
        <ele>134.7</ele>
        <time>2025-10-20T13:12:35.000Z</time>
      </trkpt>
      <trkpt lat="49.32406" lon="3.31513">
        <ele>135</ele>
        <time>2025-10-20T13:12:36.000Z</time>
      </trkpt>
      <trkpt lat="49.32407" lon="3.31514">
        <ele>135.2</ele>
        <time>2025-10-20T13:12:37.000Z</time>
      </trkpt>
      <trkpt lat="49.32408" lon="3.31515">
        <ele>135.2</ele>
        <time>2025-10-20T13:12:38.000Z</time>
      </trkpt>
      <trkpt lat="49.32409" lon="3.31516">
        <ele>135.3</ele>
        <time>2025-10-20T13:12:39.000Z</time>
      </trkpt>
      <trkpt lat="49.3241" lon="3.31517">
        <ele>135.1</ele>
        <time>2025-10-20T13:12:40.000Z</time>
      </trkpt>
      <trkpt lat="49.32411" lon="3.31517">
        <ele>135.4</ele>
        <time>2025-10-20T13:12:41.000Z</time>
      </trkpt>
      <trkpt lat="49.32412" lon="3.31518">
        <ele>135.9</ele>
        <time>2025-10-20T13:12:42.000Z</time>
      </trkpt>
      <trkpt lat="49.32413" lon="3.31518">
        <ele>136.1</ele>
        <time>2025-10-20T13:12:43.000Z</time>
      </trkpt>
      <trkpt lat="49.32414" lon="3.31518">
        <ele>136.5</ele>
        <time>2025-10-20T13:12:44.000Z</time>
      </trkpt>
      <trkpt lat="49.32415" lon="3.31518">
        <ele>137.1</ele>
        <time>2025-10-20T13:12:45.000Z</time>
      </trkpt>
      <trkpt lat="49.32417" lon="3.31519">
        <ele>137.7</ele>
        <time>2025-10-20T13:12:46.000Z</time>
      </trkpt>
      <trkpt lat="49.32417" lon="3.3152">
        <ele>138.4</ele>
        <time>2025-10-20T13:12:47.000Z</time>
      </trkpt>
      <trkpt lat="49.32418" lon="3.3152">
        <ele>139</ele>
        <time>2025-10-20T13:12:48.000Z</time>
      </trkpt>
      <trkpt lat="49.32419" lon="3.31521">
        <ele>139.8</ele>
        <time>2025-10-20T13:12:49.000Z</time>
      </trkpt>
      <trkpt lat="49.3242" lon="3.31522">
        <ele>140.1</ele>
        <time>2025-10-20T13:12:50.000Z</time>
      </trkpt>
      <trkpt lat="49.32422" lon="3.31523">
        <ele>140.1</ele>
        <time>2025-10-20T13:12:51.000Z</time>
      </trkpt>
      <trkpt lat="49.32423" lon="3.31525">
        <ele>140.2</ele>
        <time>2025-10-20T13:12:52.000Z</time>
      </trkpt>
      <trkpt lat="49.32425" lon="3.31526">
        <ele>140.1</ele>
        <time>2025-10-20T13:12:53.000Z</time>
      </trkpt>
      <trkpt lat="49.32427" lon="3.31527">
        <ele>139.9</ele>
        <time>2025-10-20T13:12:54.000Z</time>
      </trkpt>
      <trkpt lat="49.32429" lon="3.31529">
        <ele>139.5</ele>
        <time>2025-10-20T13:12:55.000Z</time>
      </trkpt>
      <trkpt lat="49.3243" lon="3.3153">
        <ele>139</ele>
        <time>2025-10-20T13:12:56.000Z</time>
      </trkpt>
      <trkpt lat="49.32432" lon="3.31531">
        <ele>138.7</ele>
        <time>2025-10-20T13:12:57.000Z</time>
      </trkpt>
      <trkpt lat="49.32433" lon="3.31533">
        <ele>138.6</ele>
        <time>2025-10-20T13:12:58.000Z</time>
      </trkpt>
      <trkpt lat="49.32434" lon="3.31534">
        <ele>138.9</ele>
        <time>2025-10-20T13:12:59.000Z</time>
      </trkpt>
      <trkpt lat="49.32435" lon="3.31536">
        <ele>138.9</ele>
        <time>2025-10-20T13:13:00.000Z</time>
      </trkpt>
      <trkpt lat="49.32436" lon="3.31537">
        <ele>138.9</ele>
        <time>2025-10-20T13:13:01.000Z</time>
      </trkpt>
      <trkpt lat="49.32437" lon="3.31538">
        <ele>139</ele>
        <time>2025-10-20T13:13:02.000Z</time>
      </trkpt>
      <trkpt lat="49.32439" lon="3.31539">
        <ele>139.1</ele>
        <time>2025-10-20T13:13:03.000Z</time>
      </trkpt>
      <trkpt lat="49.3244" lon="3.3154">
        <ele>138.9</ele>
        <time>2025-10-20T13:13:04.000Z</time>
      </trkpt>
      <trkpt lat="49.32442" lon="3.31542">
        <ele>138.9</ele>
        <time>2025-10-20T13:13:05.000Z</time>
      </trkpt>
      <trkpt lat="49.32443" lon="3.31543">
        <ele>138.8</ele>
        <time>2025-10-20T13:13:06.000Z</time>
      </trkpt>
      <trkpt lat="49.32444" lon="3.31544">
        <ele>138.8</ele>
        <time>2025-10-20T13:13:07.000Z</time>
      </trkpt>
      <trkpt lat="49.32445" lon="3.31545">
        <ele>138.7</ele>
        <time>2025-10-20T13:13:08.000Z</time>
      </trkpt>
      <trkpt lat="49.32446" lon="3.31547">
        <ele>138.7</ele>
        <time>2025-10-20T13:13:09.000Z</time>
      </trkpt>
      <trkpt lat="49.32447" lon="3.31548">
        <ele>138.6</ele>
        <time>2025-10-20T13:13:10.000Z</time>
      </trkpt>
      <trkpt lat="49.32448" lon="3.31549">
        <ele>138.9</ele>
        <time>2025-10-20T13:13:11.000Z</time>
      </trkpt>
      <trkpt lat="49.32449" lon="3.31551">
        <ele>138.8</ele>
        <time>2025-10-20T13:13:12.000Z</time>
      </trkpt>
      <trkpt lat="49.3245" lon="3.31552">
        <ele>138.9</ele>
        <time>2025-10-20T13:13:13.000Z</time>
      </trkpt>
      <trkpt lat="49.32451" lon="3.31554">
        <ele>139</ele>
        <time>2025-10-20T13:13:14.000Z</time>
      </trkpt>
      <trkpt lat="49.32452" lon="3.31555">
        <ele>139.2</ele>
        <time>2025-10-20T13:13:15.000Z</time>
      </trkpt>
      <trkpt lat="49.32452" lon="3.31557">
        <ele>139.3</ele>
        <time>2025-10-20T13:13:16.000Z</time>
      </trkpt>
      <trkpt lat="49.32453" lon="3.31558">
        <ele>139.5</ele>
        <time>2025-10-20T13:13:17.000Z</time>
      </trkpt>
      <trkpt lat="49.32454" lon="3.31559">
        <ele>139.6</ele>
        <time>2025-10-20T13:13:18.000Z</time>
      </trkpt>
      <trkpt lat="49.32456" lon="3.31561">
        <ele>139.4</ele>
        <time>2025-10-20T13:13:19.000Z</time>
      </trkpt>
      <trkpt lat="49.32457" lon="3.31563">
        <ele>139.3</ele>
        <time>2025-10-20T13:13:20.000Z</time>
      </trkpt>
      <trkpt lat="49.32458" lon="3.31564">
        <ele>139.3</ele>
        <time>2025-10-20T13:13:21.000Z</time>
      </trkpt>
      <trkpt lat="49.32459" lon="3.31565">
        <ele>139.6</ele>
        <time>2025-10-20T13:13:22.000Z</time>
      </trkpt>
      <trkpt lat="49.32459" lon="3.31567">
        <ele>140</ele>
        <time>2025-10-20T13:13:23.000Z</time>
      </trkpt>
      <trkpt lat="49.3246" lon="3.31568">
        <ele>140.2</ele>
        <time>2025-10-20T13:13:24.000Z</time>
      </trkpt>
      <trkpt lat="49.32461" lon="3.3157">
        <ele>140.2</ele>
        <time>2025-10-20T13:13:25.000Z</time>
      </trkpt>
      <trkpt lat="49.32463" lon="3.31571">
        <ele>140.1</ele>
        <time>2025-10-20T13:13:26.000Z</time>
      </trkpt>
      <trkpt lat="49.32464" lon="3.31573">
        <ele>140.2</ele>
        <time>2025-10-20T13:13:27.000Z</time>
      </trkpt>
      <trkpt lat="49.32465" lon="3.31574">
        <ele>140.4</ele>
        <time>2025-10-20T13:13:28.000Z</time>
      </trkpt>
      <trkpt lat="49.32466" lon="3.31575">
        <ele>140.5</ele>
        <time>2025-10-20T13:13:29.000Z</time>
      </trkpt>
      <trkpt lat="49.32467" lon="3.31577">
        <ele>140.5</ele>
        <time>2025-10-20T13:13:30.000Z</time>
      </trkpt>
      <trkpt lat="49.32468" lon="3.31578">
        <ele>140.5</ele>
        <time>2025-10-20T13:13:31.000Z</time>
      </trkpt>
      <trkpt lat="49.32469" lon="3.31579">
        <ele>140.6</ele>
        <time>2025-10-20T13:13:32.000Z</time>
      </trkpt>
      <trkpt lat="49.3247" lon="3.3158">
        <ele>140.7</ele>
        <time>2025-10-20T13:13:33.000Z</time>
      </trkpt>
      <trkpt lat="49.32471" lon="3.31581">
        <ele>141</ele>
        <time>2025-10-20T13:13:34.000Z</time>
      </trkpt>
      <trkpt lat="49.32472" lon="3.31583">
        <ele>141.3</ele>
        <time>2025-10-20T13:13:35.000Z</time>
      </trkpt>
      <trkpt lat="49.32473" lon="3.31584">
        <ele>141.5</ele>
        <time>2025-10-20T13:13:36.000Z</time>
      </trkpt>
      <trkpt lat="49.32473" lon="3.31585">
        <ele>141.9</ele>
        <time>2025-10-20T13:13:37.000Z</time>
      </trkpt>
      <trkpt lat="49.32474" lon="3.31586">
        <ele>142.2</ele>
        <time>2025-10-20T13:13:38.000Z</time>
      </trkpt>
      <trkpt lat="49.32474" lon="3.31587">
        <ele>142.9</ele>
        <time>2025-10-20T13:13:39.000Z</time>
      </trkpt>
      <trkpt lat="49.32475" lon="3.31588">
        <ele>143.2</ele>
        <time>2025-10-20T13:13:40.000Z</time>
      </trkpt>
      <trkpt lat="49.32477" lon="3.31591">
        <ele>143.2</ele>
        <time>2025-10-20T13:13:41.000Z</time>
      </trkpt>
      <trkpt lat="49.32477" lon="3.31593">
        <ele>143.4</ele>
        <time>2025-10-20T13:13:42.000Z</time>
      </trkpt>
      <trkpt lat="49.32478" lon="3.31595">
        <ele>143.4</ele>
        <time>2025-10-20T13:13:43.000Z</time>
      </trkpt>
      <trkpt lat="49.32479" lon="3.31596">
        <ele>143.3</ele>
        <time>2025-10-20T13:13:44.000Z</time>
      </trkpt>
      <trkpt lat="49.32481" lon="3.31598">
        <ele>143.2</ele>
        <time>2025-10-20T13:13:45.000Z</time>
      </trkpt>
      <trkpt lat="49.32482" lon="3.316">
        <ele>142.9</ele>
        <time>2025-10-20T13:13:46.000Z</time>
      </trkpt>
      <trkpt lat="49.32483" lon="3.31601">
        <ele>143</ele>
        <time>2025-10-20T13:13:47.000Z</time>
      </trkpt>
      <trkpt lat="49.32484" lon="3.31602">
        <ele>143.1</ele>
        <time>2025-10-20T13:13:48.000Z</time>
      </trkpt>
      <trkpt lat="49.32485" lon="3.31604">
        <ele>143.3</ele>
        <time>2025-10-20T13:13:49.000Z</time>
      </trkpt>
      <trkpt lat="49.32486" lon="3.31605">
        <ele>143.4</ele>
        <time>2025-10-20T13:13:50.000Z</time>
      </trkpt>
      <trkpt lat="49.32487" lon="3.31607">
        <ele>143.4</ele>
        <time>2025-10-20T13:13:51.000Z</time>
      </trkpt>
      <trkpt lat="49.32488" lon="3.31609">
        <ele>143.5</ele>
        <time>2025-10-20T13:13:52.000Z</time>
      </trkpt>
      <trkpt lat="49.32489" lon="3.3161">
        <ele>143.6</ele>
        <time>2025-10-20T13:13:53.000Z</time>
      </trkpt>
      <trkpt lat="49.3249" lon="3.31611">
        <ele>143.4</ele>
        <time>2025-10-20T13:13:54.000Z</time>
      </trkpt>
      <trkpt lat="49.32491" lon="3.31613">
        <ele>143.2</ele>
        <time>2025-10-20T13:13:55.000Z</time>
      </trkpt>
      <trkpt lat="49.32493" lon="3.31614">
        <ele>142.9</ele>
        <time>2025-10-20T13:13:56.000Z</time>
      </trkpt>
      <trkpt lat="49.32494" lon="3.31616">
        <ele>142.7</ele>
        <time>2025-10-20T13:13:57.000Z</time>
      </trkpt>
      <trkpt lat="49.32495" lon="3.31617">
        <ele>142.8</ele>
        <time>2025-10-20T13:13:58.000Z</time>
      </trkpt>
      <trkpt lat="49.32496" lon="3.31618">
        <ele>143</ele>
        <time>2025-10-20T13:13:59.000Z</time>
      </trkpt>
      <trkpt lat="49.32497" lon="3.3162">
        <ele>143.4</ele>
        <time>2025-10-20T13:14:00.000Z</time>
      </trkpt>
      <trkpt lat="49.32498" lon="3.31621">
        <ele>143.7</ele>
        <time>2025-10-20T13:14:01.000Z</time>
      </trkpt>
      <trkpt lat="49.32499" lon="3.31623">
        <ele>143.8</ele>
        <time>2025-10-20T13:14:02.000Z</time>
      </trkpt>
      <trkpt lat="49.325" lon="3.31624">
        <ele>143.7</ele>
        <time>2025-10-20T13:14:03.000Z</time>
      </trkpt>
      <trkpt lat="49.32501" lon="3.31624">
        <ele>143.9</ele>
        <time>2025-10-20T13:14:04.000Z</time>
      </trkpt>
      <trkpt lat="49.32502" lon="3.31625">
        <ele>144.2</ele>
        <time>2025-10-20T13:14:05.000Z</time>
      </trkpt>
      <trkpt lat="49.32503" lon="3.31626">
        <ele>144.5</ele>
        <time>2025-10-20T13:14:06.000Z</time>
      </trkpt>
      <trkpt lat="49.32504" lon="3.31627">
        <ele>144.7</ele>
        <time>2025-10-20T13:14:07.000Z</time>
      </trkpt>
      <trkpt lat="49.32505" lon="3.31629">
        <ele>144.7</ele>
        <time>2025-10-20T13:14:08.000Z</time>
      </trkpt>
      <trkpt lat="49.32506" lon="3.31631">
        <ele>144.5</ele>
        <time>2025-10-20T13:14:09.000Z</time>
      </trkpt>
      <trkpt lat="49.32507" lon="3.31632">
        <ele>144.5</ele>
        <time>2025-10-20T13:14:10.000Z</time>
      </trkpt>
      <trkpt lat="49.32508" lon="3.31633">
        <ele>144.8</ele>
        <time>2025-10-20T13:14:11.000Z</time>
      </trkpt>
      <trkpt lat="49.32509" lon="3.31635">
        <ele>145</ele>
        <time>2025-10-20T13:14:12.000Z</time>
      </trkpt>
      <trkpt lat="49.32509" lon="3.31636">
        <ele>145.3</ele>
        <time>2025-10-20T13:14:13.000Z</time>
      </trkpt>
      <trkpt lat="49.3251" lon="3.31637">
        <ele>145.6</ele>
        <time>2025-10-20T13:14:14.000Z</time>
      </trkpt>
      <trkpt lat="49.32511" lon="3.31639">
        <ele>145.7</ele>
        <time>2025-10-20T13:14:15.000Z</time>
      </trkpt>
      <trkpt lat="49.32512" lon="3.3164">
        <ele>146.1</ele>
        <time>2025-10-20T13:14:16.000Z</time>
      </trkpt>
      <trkpt lat="49.32513" lon="3.31642">
        <ele>146.1</ele>
        <time>2025-10-20T13:14:17.000Z</time>
      </trkpt>
      <trkpt lat="49.32514" lon="3.31643">
        <ele>146.3</ele>
        <time>2025-10-20T13:14:18.000Z</time>
      </trkpt>
      <trkpt lat="49.32516" lon="3.31645">
        <ele>146.5</ele>
        <time>2025-10-20T13:14:19.000Z</time>
      </trkpt>
      <trkpt lat="49.32516" lon="3.31647">
        <ele>146.8</ele>
        <time>2025-10-20T13:14:20.000Z</time>
      </trkpt>
      <trkpt lat="49.32517" lon="3.31648">
        <ele>147</ele>
        <time>2025-10-20T13:14:21.000Z</time>
      </trkpt>
      <trkpt lat="49.32519" lon="3.31649">
        <ele>147.3</ele>
        <time>2025-10-20T13:14:22.000Z</time>
      </trkpt>
      <trkpt lat="49.32519" lon="3.3165">
        <ele>147.6</ele>
        <time>2025-10-20T13:14:23.000Z</time>
      </trkpt>
      <trkpt lat="49.32521" lon="3.31652">
        <ele>147.6</ele>
        <time>2025-10-20T13:14:24.000Z</time>
      </trkpt>
      <trkpt lat="49.32522" lon="3.31654">
        <ele>147.5</ele>
        <time>2025-10-20T13:14:25.000Z</time>
      </trkpt>
      <trkpt lat="49.32523" lon="3.31655">
        <ele>147.5</ele>
        <time>2025-10-20T13:14:26.000Z</time>
      </trkpt>
      <trkpt lat="49.32524" lon="3.31657">
        <ele>147.5</ele>
        <time>2025-10-20T13:14:27.000Z</time>
      </trkpt>
      <trkpt lat="49.32525" lon="3.31658">
        <ele>148</ele>
        <time>2025-10-20T13:14:28.000Z</time>
      </trkpt>
      <trkpt lat="49.32526" lon="3.31659">
        <ele>148.3</ele>
        <time>2025-10-20T13:14:29.000Z</time>
      </trkpt>
      <trkpt lat="49.32527" lon="3.3166">
        <ele>148.7</ele>
        <time>2025-10-20T13:14:30.000Z</time>
      </trkpt>
      <trkpt lat="49.32528" lon="3.31661">
        <ele>149</ele>
        <time>2025-10-20T13:14:31.000Z</time>
      </trkpt>
      <trkpt lat="49.32529" lon="3.31663">
        <ele>149.4</ele>
        <time>2025-10-20T13:14:32.000Z</time>
      </trkpt>
      <trkpt lat="49.3253" lon="3.31664">
        <ele>149.6</ele>
        <time>2025-10-20T13:14:33.000Z</time>
      </trkpt>
      <trkpt lat="49.32531" lon="3.31665">
        <ele>149.7</ele>
        <time>2025-10-20T13:14:34.000Z</time>
      </trkpt>
      <trkpt lat="49.32532" lon="3.31667">
        <ele>149.8</ele>
        <time>2025-10-20T13:14:35.000Z</time>
      </trkpt>
      <trkpt lat="49.32534" lon="3.31669">
        <ele>150</ele>
        <time>2025-10-20T13:14:36.000Z</time>
      </trkpt>
      <trkpt lat="49.32535" lon="3.3167">
        <ele>150.2</ele>
        <time>2025-10-20T13:14:37.000Z</time>
      </trkpt>
      <trkpt lat="49.32536" lon="3.31671">
        <ele>150.4</ele>
        <time>2025-10-20T13:14:38.000Z</time>
      </trkpt>
      <trkpt lat="49.32536" lon="3.31672">
        <ele>150.9</ele>
        <time>2025-10-20T13:14:39.000Z</time>
      </trkpt>
      <trkpt lat="49.32537" lon="3.31673">
        <ele>151</ele>
        <time>2025-10-20T13:14:40.000Z</time>
      </trkpt>
      <trkpt lat="49.32538" lon="3.31674">
        <ele>151.3</ele>
        <time>2025-10-20T13:14:41.000Z</time>
      </trkpt>
      <trkpt lat="49.3254" lon="3.31675">
        <ele>151.6</ele>
        <time>2025-10-20T13:14:42.000Z</time>
      </trkpt>
      <trkpt lat="49.32541" lon="3.31675">
        <ele>152.3</ele>
        <time>2025-10-20T13:14:43.000Z</time>
      </trkpt>
      <trkpt lat="49.32541" lon="3.31676">
        <ele>153</ele>
        <time>2025-10-20T13:14:44.000Z</time>
      </trkpt>
      <trkpt lat="49.32542" lon="3.31677">
        <ele>153.6</ele>
        <time>2025-10-20T13:14:45.000Z</time>
      </trkpt>
      <trkpt lat="49.32543" lon="3.31678">
        <ele>154.3</ele>
        <time>2025-10-20T13:14:46.000Z</time>
      </trkpt>
      <trkpt lat="49.32543" lon="3.31679">
        <ele>155.2</ele>
        <time>2025-10-20T13:14:47.000Z</time>
      </trkpt>
      <trkpt lat="49.32543" lon="3.3168">
        <ele>156</ele>
        <time>2025-10-20T13:14:48.000Z</time>
      </trkpt>
      <trkpt lat="49.32544" lon="3.31682">
        <ele>156.6</ele>
        <time>2025-10-20T13:14:49.000Z</time>
      </trkpt>
      <trkpt lat="49.32545" lon="3.31684">
        <ele>157</ele>
        <time>2025-10-20T13:14:50.000Z</time>
      </trkpt>
      <trkpt lat="49.32547" lon="3.31685">
        <ele>157.7</ele>
        <time>2025-10-20T13:14:51.000Z</time>
      </trkpt>
      <trkpt lat="49.32548" lon="3.31686">
        <ele>158.4</ele>
        <time>2025-10-20T13:14:52.000Z</time>
      </trkpt>
      <trkpt lat="49.32549" lon="3.31687">
        <ele>158.5</ele>
        <time>2025-10-20T13:14:53.000Z</time>
      </trkpt>
      <trkpt lat="49.3255" lon="3.31687">
        <ele>159.1</ele>
        <time>2025-10-20T13:14:54.000Z</time>
      </trkpt>
      <trkpt lat="49.32551" lon="3.31688">
        <ele>159.7</ele>
        <time>2025-10-20T13:14:55.000Z</time>
      </trkpt>
      <trkpt lat="49.32552" lon="3.31689">
        <ele>160.6</ele>
        <time>2025-10-20T13:14:56.000Z</time>
      </trkpt>
      <trkpt lat="49.32553" lon="3.31691">
        <ele>161.1</ele>
        <time>2025-10-20T13:14:57.000Z</time>
      </trkpt>
      <trkpt lat="49.32553" lon="3.31693">
        <ele>161.6</ele>
        <time>2025-10-20T13:14:58.000Z</time>
      </trkpt>
      <trkpt lat="49.32554" lon="3.31694">
        <ele>162.3</ele>
        <time>2025-10-20T13:14:59.000Z</time>
      </trkpt>
      <trkpt lat="49.32554" lon="3.31696">
        <ele>162.7</ele>
        <time>2025-10-20T13:15:00.000Z</time>
      </trkpt>
      <trkpt lat="49.32555" lon="3.31696">
        <ele>163.7</ele>
        <time>2025-10-20T13:15:01.000Z</time>
      </trkpt>
      <trkpt lat="49.32556" lon="3.31699">
        <ele>164.6</ele>
        <time>2025-10-20T13:15:02.000Z</time>
      </trkpt>
      <trkpt lat="49.32556" lon="3.317">
        <ele>165.4</ele>
        <time>2025-10-20T13:15:03.000Z</time>
      </trkpt>
      <trkpt lat="49.32557" lon="3.31702">
        <ele>165.5</ele>
        <time>2025-10-20T13:15:04.000Z</time>
      </trkpt>
      <trkpt lat="49.32558" lon="3.31703">
        <ele>166</ele>
        <time>2025-10-20T13:15:05.000Z</time>
      </trkpt>
      <trkpt lat="49.32559" lon="3.31704">
        <ele>166.3</ele>
        <time>2025-10-20T13:15:06.000Z</time>
      </trkpt>
      <trkpt lat="49.3256" lon="3.31706">
        <ele>166.2</ele>
        <time>2025-10-20T13:15:07.000Z</time>
      </trkpt>
      <trkpt lat="49.32561" lon="3.31708">
        <ele>166.2</ele>
        <time>2025-10-20T13:15:08.000Z</time>
      </trkpt>
      <trkpt lat="49.32563" lon="3.3171">
        <ele>166</ele>
        <time>2025-10-20T13:15:09.000Z</time>
      </trkpt>
      <trkpt lat="49.32565" lon="3.31711">
        <ele>165.9</ele>
        <time>2025-10-20T13:15:10.000Z</time>
      </trkpt>
      <trkpt lat="49.32566" lon="3.31712">
        <ele>166</ele>
        <time>2025-10-20T13:15:11.000Z</time>
      </trkpt>
      <trkpt lat="49.32567" lon="3.31714">
        <ele>166.2</ele>
        <time>2025-10-20T13:15:12.000Z</time>
      </trkpt>
      <trkpt lat="49.32568" lon="3.31715">
        <ele>166</ele>
        <time>2025-10-20T13:15:13.000Z</time>
      </trkpt>
      <trkpt lat="49.32569" lon="3.31717">
        <ele>166</ele>
        <time>2025-10-20T13:15:14.000Z</time>
      </trkpt>
      <trkpt lat="49.3257" lon="3.31719">
        <ele>166</ele>
        <time>2025-10-20T13:15:15.000Z</time>
      </trkpt>
      <trkpt lat="49.32572" lon="3.3172">
        <ele>166.2</ele>
        <time>2025-10-20T13:15:16.000Z</time>
      </trkpt>
      <trkpt lat="49.32573" lon="3.31722">
        <ele>166.3</ele>
        <time>2025-10-20T13:15:17.000Z</time>
      </trkpt>
      <trkpt lat="49.32574" lon="3.31724">
        <ele>166.2</ele>
        <time>2025-10-20T13:15:18.000Z</time>
      </trkpt>
      <trkpt lat="49.32575" lon="3.31725">
        <ele>166.1</ele>
        <time>2025-10-20T13:15:19.000Z</time>
      </trkpt>
      <trkpt lat="49.32576" lon="3.31728">
        <ele>166</ele>
        <time>2025-10-20T13:15:20.000Z</time>
      </trkpt>
      <trkpt lat="49.32576" lon="3.3173">
        <ele>165.9</ele>
        <time>2025-10-20T13:15:21.000Z</time>
      </trkpt>
      <trkpt lat="49.32577" lon="3.31731">
        <ele>166.2</ele>
        <time>2025-10-20T13:15:22.000Z</time>
      </trkpt>
      <trkpt lat="49.32578" lon="3.31733">
        <ele>166.7</ele>
        <time>2025-10-20T13:15:23.000Z</time>
      </trkpt>
      <trkpt lat="49.32579" lon="3.31735">
        <ele>167</ele>
        <time>2025-10-20T13:15:24.000Z</time>
      </trkpt>
      <trkpt lat="49.3258" lon="3.31737">
        <ele>167.2</ele>
        <time>2025-10-20T13:15:25.000Z</time>
      </trkpt>
      <trkpt lat="49.32581" lon="3.31738">
        <ele>167.4</ele>
        <time>2025-10-20T13:15:26.000Z</time>
      </trkpt>
      <trkpt lat="49.32582" lon="3.3174">
        <ele>167.4</ele>
        <time>2025-10-20T13:15:27.000Z</time>
      </trkpt>
      <trkpt lat="49.32582" lon="3.31742">
        <ele>167.5</ele>
        <time>2025-10-20T13:15:28.000Z</time>
      </trkpt>
      <trkpt lat="49.32582" lon="3.31744">
        <ele>167.7</ele>
        <time>2025-10-20T13:15:29.000Z</time>
      </trkpt>
      <trkpt lat="49.32582" lon="3.31746">
        <ele>168.2</ele>
        <time>2025-10-20T13:15:30.000Z</time>
      </trkpt>
      <trkpt lat="49.32583" lon="3.31748">
        <ele>168.4</ele>
        <time>2025-10-20T13:15:31.000Z</time>
      </trkpt>
      <trkpt lat="49.32584" lon="3.31749">
        <ele>168.5</ele>
        <time>2025-10-20T13:15:32.000Z</time>
      </trkpt>
      <trkpt lat="49.32585" lon="3.31751">
        <ele>168.9</ele>
        <time>2025-10-20T13:15:33.000Z</time>
      </trkpt>
      <trkpt lat="49.32585" lon="3.31753">
        <ele>169.3</ele>
        <time>2025-10-20T13:15:34.000Z</time>
      </trkpt>
      <trkpt lat="49.32587" lon="3.31755">
        <ele>169.3</ele>
        <time>2025-10-20T13:15:35.000Z</time>
      </trkpt>
      <trkpt lat="49.32587" lon="3.31757">
        <ele>169.3</ele>
        <time>2025-10-20T13:15:36.000Z</time>
      </trkpt>
      <trkpt lat="49.32588" lon="3.31759">
        <ele>169.3</ele>
        <time>2025-10-20T13:15:37.000Z</time>
      </trkpt>
      <trkpt lat="49.32588" lon="3.31761">
        <ele>169.4</ele>
        <time>2025-10-20T13:15:38.000Z</time>
      </trkpt>
      <trkpt lat="49.32589" lon="3.31763">
        <ele>169.4</ele>
        <time>2025-10-20T13:15:39.000Z</time>
      </trkpt>
      <trkpt lat="49.3259" lon="3.31765">
        <ele>169.3</ele>
        <time>2025-10-20T13:15:40.000Z</time>
      </trkpt>
      <trkpt lat="49.32592" lon="3.31767">
        <ele>169.1</ele>
        <time>2025-10-20T13:15:41.000Z</time>
      </trkpt>
      <trkpt lat="49.32593" lon="3.31769">
        <ele>169</ele>
        <time>2025-10-20T13:15:42.000Z</time>
      </trkpt>
      <trkpt lat="49.32595" lon="3.31771">
        <ele>168.6</ele>
        <time>2025-10-20T13:15:43.000Z</time>
      </trkpt>
      <trkpt lat="49.32597" lon="3.31772">
        <ele>168</ele>
        <time>2025-10-20T13:15:44.000Z</time>
      </trkpt>
      <trkpt lat="49.32598" lon="3.31773">
        <ele>167.4</ele>
        <time>2025-10-20T13:15:45.000Z</time>
      </trkpt>
      <trkpt lat="49.326" lon="3.31774">
        <ele>166.7</ele>
        <time>2025-10-20T13:15:46.000Z</time>
      </trkpt>
      <trkpt lat="49.32601" lon="3.31775">
        <ele>166.2</ele>
        <time>2025-10-20T13:15:47.000Z</time>
      </trkpt>
      <trkpt lat="49.32603" lon="3.31776">
        <ele>165.7</ele>
        <time>2025-10-20T13:15:48.000Z</time>
      </trkpt>
      <trkpt lat="49.32605" lon="3.31777">
        <ele>165.6</ele>
        <time>2025-10-20T13:15:49.000Z</time>
      </trkpt>
      <trkpt lat="49.32607" lon="3.31777">
        <ele>165.8</ele>
        <time>2025-10-20T13:15:50.000Z</time>
      </trkpt>
      <trkpt lat="49.32608" lon="3.31778">
        <ele>165.8</ele>
        <time>2025-10-20T13:15:51.000Z</time>
      </trkpt>
      <trkpt lat="49.3261" lon="3.31778">
        <ele>165.5</ele>
        <time>2025-10-20T13:15:52.000Z</time>
      </trkpt>
      <trkpt lat="49.32611" lon="3.31778">
        <ele>164.9</ele>
        <time>2025-10-20T13:15:53.000Z</time>
      </trkpt>
      <trkpt lat="49.32613" lon="3.31778">
        <ele>164.4</ele>
        <time>2025-10-20T13:15:54.000Z</time>
      </trkpt>
      <trkpt lat="49.32614" lon="3.31778">
        <ele>164.1</ele>
        <time>2025-10-20T13:15:55.000Z</time>
      </trkpt>
      <trkpt lat="49.32615" lon="3.31779">
        <ele>164</ele>
        <time>2025-10-20T13:15:56.000Z</time>
      </trkpt>
      <trkpt lat="49.32617" lon="3.31779">
        <ele>164</ele>
        <time>2025-10-20T13:15:57.000Z</time>
      </trkpt>
      <trkpt lat="49.32618" lon="3.31779">
        <ele>164</ele>
        <time>2025-10-20T13:15:58.000Z</time>
      </trkpt>
      <trkpt lat="49.3262" lon="3.31778">
        <ele>164</ele>
        <time>2025-10-20T13:15:59.000Z</time>
      </trkpt>
      <trkpt lat="49.32621" lon="3.31778">
        <ele>163.8</ele>
        <time>2025-10-20T13:16:00.000Z</time>
      </trkpt>
      <trkpt lat="49.32623" lon="3.31777">
        <ele>164.1</ele>
        <time>2025-10-20T13:16:01.000Z</time>
      </trkpt>
      <trkpt lat="49.32624" lon="3.31777">
        <ele>164.2</ele>
        <time>2025-10-20T13:16:02.000Z</time>
      </trkpt>
      <trkpt lat="49.32625" lon="3.31776">
        <ele>164.6</ele>
        <time>2025-10-20T13:16:03.000Z</time>
      </trkpt>
      <trkpt lat="49.32626" lon="3.31776">
        <ele>165.2</ele>
        <time>2025-10-20T13:16:04.000Z</time>
      </trkpt>
      <trkpt lat="49.32627" lon="3.31776">
        <ele>165.4</ele>
        <time>2025-10-20T13:16:05.000Z</time>
      </trkpt>
      <trkpt lat="49.32628" lon="3.31776">
        <ele>166</ele>
        <time>2025-10-20T13:16:06.000Z</time>
      </trkpt>
      <trkpt lat="49.32629" lon="3.31775">
        <ele>165.9</ele>
        <time>2025-10-20T13:16:07.000Z</time>
      </trkpt>
      <trkpt lat="49.3263" lon="3.31773">
        <ele>165.8</ele>
        <time>2025-10-20T13:16:08.000Z</time>
      </trkpt>
      <trkpt lat="49.32631" lon="3.31772">
        <ele>165.8</ele>
        <time>2025-10-20T13:16:09.000Z</time>
      </trkpt>
      <trkpt lat="49.32632" lon="3.3177">
        <ele>165.9</ele>
        <time>2025-10-20T13:16:10.000Z</time>
      </trkpt>
      <trkpt lat="49.32633" lon="3.31768">
        <ele>165.9</ele>
        <time>2025-10-20T13:16:11.000Z</time>
      </trkpt>
      <trkpt lat="49.32634" lon="3.31767">
        <ele>166.1</ele>
        <time>2025-10-20T13:16:12.000Z</time>
      </trkpt>
      <trkpt lat="49.32635" lon="3.31767">
        <ele>166</ele>
        <time>2025-10-20T13:16:13.000Z</time>
      </trkpt>
      <trkpt lat="49.32636" lon="3.31765">
        <ele>165.9</ele>
        <time>2025-10-20T13:16:14.000Z</time>
      </trkpt>
      <trkpt lat="49.32637" lon="3.31763">
        <ele>165.8</ele>
        <time>2025-10-20T13:16:15.000Z</time>
      </trkpt>
      <trkpt lat="49.32638" lon="3.31761">
        <ele>165.5</ele>
        <time>2025-10-20T13:16:16.000Z</time>
      </trkpt>
      <trkpt lat="49.3264" lon="3.31759">
        <ele>165.5</ele>
        <time>2025-10-20T13:16:17.000Z</time>
      </trkpt>
      <trkpt lat="49.32641" lon="3.31756">
        <ele>165.6</ele>
        <time>2025-10-20T13:16:18.000Z</time>
      </trkpt>
      <trkpt lat="49.32643" lon="3.31754">
        <ele>165.3</ele>
        <time>2025-10-20T13:16:19.000Z</time>
      </trkpt>
      <trkpt lat="49.32643" lon="3.31751">
        <ele>165.3</ele>
        <time>2025-10-20T13:16:20.000Z</time>
      </trkpt>
      <trkpt lat="49.32644" lon="3.31749">
        <ele>165.3</ele>
        <time>2025-10-20T13:16:21.000Z</time>
      </trkpt>
      <trkpt lat="49.32645" lon="3.31747">
        <ele>165.5</ele>
        <time>2025-10-20T13:16:22.000Z</time>
      </trkpt>
      <trkpt lat="49.32646" lon="3.31745">
        <ele>165.8</ele>
        <time>2025-10-20T13:16:23.000Z</time>
      </trkpt>
      <trkpt lat="49.32646" lon="3.31743">
        <ele>166.1</ele>
        <time>2025-10-20T13:16:24.000Z</time>
      </trkpt>
      <trkpt lat="49.32646" lon="3.31742">
        <ele>166.8</ele>
        <time>2025-10-20T13:16:25.000Z</time>
      </trkpt>
      <trkpt lat="49.32647" lon="3.3174">
        <ele>167</ele>
        <time>2025-10-20T13:16:26.000Z</time>
      </trkpt>
      <trkpt lat="49.32647" lon="3.31738">
        <ele>167.5</ele>
        <time>2025-10-20T13:16:27.000Z</time>
      </trkpt>
      <trkpt lat="49.32647" lon="3.31736">
        <ele>168.1</ele>
        <time>2025-10-20T13:16:28.000Z</time>
      </trkpt>
      <trkpt lat="49.32648" lon="3.31734">
        <ele>168.8</ele>
        <time>2025-10-20T13:16:29.000Z</time>
      </trkpt>
      <trkpt lat="49.32648" lon="3.31732">
        <ele>169.4</ele>
        <time>2025-10-20T13:16:30.000Z</time>
      </trkpt>
      <trkpt lat="49.32649" lon="3.3173">
        <ele>169.8</ele>
        <time>2025-10-20T13:16:31.000Z</time>
      </trkpt>
      <trkpt lat="49.32649" lon="3.31728">
        <ele>169.8</ele>
        <time>2025-10-20T13:16:32.000Z</time>
      </trkpt>
      <trkpt lat="49.32649" lon="3.31725">
        <ele>169.6</ele>
        <time>2025-10-20T13:16:33.000Z</time>
      </trkpt>
      <trkpt lat="49.32649" lon="3.31723">
        <ele>169.7</ele>
        <time>2025-10-20T13:16:34.000Z</time>
      </trkpt>
      <trkpt lat="49.32649" lon="3.31721">
        <ele>169.8</ele>
        <time>2025-10-20T13:16:35.000Z</time>
      </trkpt>
      <trkpt lat="49.32649" lon="3.31719">
        <ele>169.9</ele>
        <time>2025-10-20T13:16:36.000Z</time>
      </trkpt>
      <trkpt lat="49.3265" lon="3.31717">
        <ele>170.4</ele>
        <time>2025-10-20T13:16:37.000Z</time>
      </trkpt>
      <trkpt lat="49.3265" lon="3.31714">
        <ele>170.5</ele>
        <time>2025-10-20T13:16:38.000Z</time>
      </trkpt>
      <trkpt lat="49.3265" lon="3.31711">
        <ele>170.6</ele>
        <time>2025-10-20T13:16:39.000Z</time>
      </trkpt>
      <trkpt lat="49.3265" lon="3.31707">
        <ele>170.2</ele>
        <time>2025-10-20T13:16:40.000Z</time>
      </trkpt>
      <trkpt lat="49.3265" lon="3.31705">
        <ele>170.3</ele>
        <time>2025-10-20T13:16:41.000Z</time>
      </trkpt>
      <trkpt lat="49.3265" lon="3.31703">
        <ele>170.5</ele>
        <time>2025-10-20T13:16:42.000Z</time>
      </trkpt>
      <trkpt lat="49.3265" lon="3.317">
        <ele>170.4</ele>
        <time>2025-10-20T13:16:43.000Z</time>
      </trkpt>
      <trkpt lat="49.32649" lon="3.31698">
        <ele>170.4</ele>
        <time>2025-10-20T13:16:44.000Z</time>
      </trkpt>
      <trkpt lat="49.32649" lon="3.31696">
        <ele>170.5</ele>
        <time>2025-10-20T13:16:45.000Z</time>
      </trkpt>
      <trkpt lat="49.32649" lon="3.31693">
        <ele>170.5</ele>
        <time>2025-10-20T13:16:46.000Z</time>
      </trkpt>
      <trkpt lat="49.32649" lon="3.31692">
        <ele>170.8</ele>
        <time>2025-10-20T13:16:47.000Z</time>
      </trkpt>
      <trkpt lat="49.32649" lon="3.3169">
        <ele>171.3</ele>
        <time>2025-10-20T13:16:48.000Z</time>
      </trkpt>
      <trkpt lat="49.32648" lon="3.31688">
        <ele>171.6</ele>
        <time>2025-10-20T13:16:49.000Z</time>
      </trkpt>
      <trkpt lat="49.32648" lon="3.31686">
        <ele>171.9</ele>
        <time>2025-10-20T13:16:50.000Z</time>
      </trkpt>
      <trkpt lat="49.32647" lon="3.31682">
        <ele>171.7</ele>
        <time>2025-10-20T13:16:51.000Z</time>
      </trkpt>
      <trkpt lat="49.32647" lon="3.3168">
        <ele>171.6</ele>
        <time>2025-10-20T13:16:52.000Z</time>
      </trkpt>
      <trkpt lat="49.32647" lon="3.31677">
        <ele>171.6</ele>
        <time>2025-10-20T13:16:53.000Z</time>
      </trkpt>
      <trkpt lat="49.32646" lon="3.31674">
        <ele>170.8</ele>
        <time>2025-10-20T13:16:54.000Z</time>
      </trkpt>
      <trkpt lat="49.32646" lon="3.31671">
        <ele>170</ele>
        <time>2025-10-20T13:16:55.000Z</time>
      </trkpt>
      <trkpt lat="49.32646" lon="3.31668">
        <ele>169.5</ele>
        <time>2025-10-20T13:16:56.000Z</time>
      </trkpt>
      <trkpt lat="49.32645" lon="3.31667">
        <ele>169.4</ele>
        <time>2025-10-20T13:16:57.000Z</time>
      </trkpt>
      <trkpt lat="49.32645" lon="3.31665">
        <ele>169.4</ele>
        <time>2025-10-20T13:16:58.000Z</time>
      </trkpt>
      <trkpt lat="49.32645" lon="3.31663">
        <ele>169.5</ele>
        <time>2025-10-20T13:16:59.000Z</time>
      </trkpt>
      <trkpt lat="49.32645" lon="3.31661">
        <ele>169.3</ele>
        <time>2025-10-20T13:17:00.000Z</time>
      </trkpt>
      <trkpt lat="49.32644" lon="3.31659">
        <ele>169.3</ele>
        <time>2025-10-20T13:17:01.000Z</time>
      </trkpt>
      <trkpt lat="49.32644" lon="3.31657">
        <ele>169.5</ele>
        <time>2025-10-20T13:17:02.000Z</time>
      </trkpt>
      <trkpt lat="49.32644" lon="3.31654">
        <ele>169.2</ele>
        <time>2025-10-20T13:17:03.000Z</time>
      </trkpt>
      <trkpt lat="49.32643" lon="3.31651">
        <ele>168.9</ele>
        <time>2025-10-20T13:17:04.000Z</time>
      </trkpt>
      <trkpt lat="49.32643" lon="3.31648">
        <ele>168.4</ele>
        <time>2025-10-20T13:17:05.000Z</time>
      </trkpt>
      <trkpt lat="49.32642" lon="3.31646">
        <ele>168.2</ele>
        <time>2025-10-20T13:17:06.000Z</time>
      </trkpt>
      <trkpt lat="49.32641" lon="3.31643">
        <ele>167.9</ele>
        <time>2025-10-20T13:17:07.000Z</time>
      </trkpt>
      <trkpt lat="49.32641" lon="3.31641">
        <ele>167.7</ele>
        <time>2025-10-20T13:17:08.000Z</time>
      </trkpt>
      <trkpt lat="49.3264" lon="3.31638">
        <ele>167.4</ele>
        <time>2025-10-20T13:17:09.000Z</time>
      </trkpt>
      <trkpt lat="49.32639" lon="3.31636">
        <ele>167.2</ele>
        <time>2025-10-20T13:17:10.000Z</time>
      </trkpt>
      <trkpt lat="49.32639" lon="3.31633">
        <ele>166.9</ele>
        <time>2025-10-20T13:17:11.000Z</time>
      </trkpt>
      <trkpt lat="49.32638" lon="3.31631">
        <ele>166.8</ele>
        <time>2025-10-20T13:17:12.000Z</time>
      </trkpt>
      <trkpt lat="49.32638" lon="3.31629">
        <ele>166.7</ele>
        <time>2025-10-20T13:17:13.000Z</time>
      </trkpt>
      <trkpt lat="49.32638" lon="3.31626">
        <ele>166.3</ele>
        <time>2025-10-20T13:17:14.000Z</time>
      </trkpt>
      <trkpt lat="49.32638" lon="3.31624">
        <ele>166.2</ele>
        <time>2025-10-20T13:17:15.000Z</time>
      </trkpt>
      <trkpt lat="49.32637" lon="3.31622">
        <ele>166.1</ele>
        <time>2025-10-20T13:17:16.000Z</time>
      </trkpt>
      <trkpt lat="49.32637" lon="3.3162">
        <ele>166.4</ele>
        <time>2025-10-20T13:17:17.000Z</time>
      </trkpt>
      <trkpt lat="49.32637" lon="3.31618">
        <ele>166.2</ele>
        <time>2025-10-20T13:17:18.000Z</time>
      </trkpt>
      <trkpt lat="49.32637" lon="3.31616">
        <ele>166.2</ele>
        <time>2025-10-20T13:17:19.000Z</time>
      </trkpt>
      <trkpt lat="49.32636" lon="3.31614">
        <ele>166</ele>
        <time>2025-10-20T13:17:20.000Z</time>
      </trkpt>
      <trkpt lat="49.32636" lon="3.31612">
        <ele>165.5</ele>
        <time>2025-10-20T13:17:21.000Z</time>
      </trkpt>
      <trkpt lat="49.32637" lon="3.3161">
        <ele>165.1</ele>
        <time>2025-10-20T13:17:22.000Z</time>
      </trkpt>
      <trkpt lat="49.32637" lon="3.31609">
        <ele>164.9</ele>
        <time>2025-10-20T13:17:23.000Z</time>
      </trkpt>
      <trkpt lat="49.32637" lon="3.31608">
        <ele>164.8</ele>
        <time>2025-10-20T13:17:24.000Z</time>
      </trkpt>
      <trkpt lat="49.32637" lon="3.31608">
        <ele>164.7</ele>
        <time>2025-10-20T13:17:25.000Z</time>
      </trkpt>
      <trkpt lat="49.32637" lon="3.31609">
        <ele>164.7</ele>
        <time>2025-10-20T13:17:26.000Z</time>
      </trkpt>
      <trkpt lat="49.32637" lon="3.3161">
        <ele>164.8</ele>
        <time>2025-10-20T13:17:27.000Z</time>
      </trkpt>
      <trkpt lat="49.32637" lon="3.31612">
        <ele>164.8</ele>
        <time>2025-10-20T13:17:28.000Z</time>
      </trkpt>
      <trkpt lat="49.32638" lon="3.31613">
        <ele>164.8</ele>
        <time>2025-10-20T13:17:29.000Z</time>
      </trkpt>
      <trkpt lat="49.32638" lon="3.31615">
        <ele>165</ele>
        <time>2025-10-20T13:17:30.000Z</time>
      </trkpt>
      <trkpt lat="49.32638" lon="3.31616">
        <ele>165.2</ele>
        <time>2025-10-20T13:17:31.000Z</time>
      </trkpt>
      <trkpt lat="49.32638" lon="3.31617">
        <ele>165.5</ele>
        <time>2025-10-20T13:17:32.000Z</time>
      </trkpt>
      <trkpt lat="49.32639" lon="3.31619">
        <ele>165.7</ele>
        <time>2025-10-20T13:17:33.000Z</time>
      </trkpt>
      <trkpt lat="49.32639" lon="3.31621">
        <ele>165.9</ele>
        <time>2025-10-20T13:17:34.000Z</time>
      </trkpt>
      <trkpt lat="49.32639" lon="3.31622">
        <ele>166.1</ele>
        <time>2025-10-20T13:17:35.000Z</time>
      </trkpt>
      <trkpt lat="49.3264" lon="3.31624">
        <ele>166.2</ele>
        <time>2025-10-20T13:17:36.000Z</time>
      </trkpt>
      <trkpt lat="49.32641" lon="3.31625">
        <ele>166.4</ele>
        <time>2025-10-20T13:17:37.000Z</time>
      </trkpt>
      <trkpt lat="49.32641" lon="3.31627">
        <ele>166.8</ele>
        <time>2025-10-20T13:17:38.000Z</time>
      </trkpt>
      <trkpt lat="49.32642" lon="3.31629">
        <ele>167</ele>
        <time>2025-10-20T13:17:39.000Z</time>
      </trkpt>
      <trkpt lat="49.32642" lon="3.3163">
        <ele>167.4</ele>
        <time>2025-10-20T13:17:40.000Z</time>
      </trkpt>
      <trkpt lat="49.32642" lon="3.31631">
        <ele>167.7</ele>
        <time>2025-10-20T13:17:41.000Z</time>
      </trkpt>
      <trkpt lat="49.32642" lon="3.31633">
        <ele>168</ele>
        <time>2025-10-20T13:17:42.000Z</time>
      </trkpt>
      <trkpt lat="49.32642" lon="3.31634">
        <ele>168.4</ele>
        <time>2025-10-20T13:17:43.000Z</time>
      </trkpt>
      <trkpt lat="49.32642" lon="3.31635">
        <ele>168.6</ele>
        <time>2025-10-20T13:17:44.000Z</time>
      </trkpt>
      <trkpt lat="49.32642" lon="3.31636">
        <ele>168.7</ele>
        <time>2025-10-20T13:17:45.000Z</time>
      </trkpt>
      <trkpt lat="49.32642" lon="3.31638">
        <ele>168.4</ele>
        <time>2025-10-20T13:17:46.000Z</time>
      </trkpt>
      <trkpt lat="49.32643" lon="3.3164">
        <ele>168.3</ele>
        <time>2025-10-20T13:17:47.000Z</time>
      </trkpt>
      <trkpt lat="49.32643" lon="3.31642">
        <ele>168.1</ele>
        <time>2025-10-20T13:17:48.000Z</time>
      </trkpt>
      <trkpt lat="49.32643" lon="3.31644">
        <ele>167.9</ele>
        <time>2025-10-20T13:17:49.000Z</time>
      </trkpt>
      <trkpt lat="49.32643" lon="3.31646">
        <ele>167.6</ele>
        <time>2025-10-20T13:17:50.000Z</time>
      </trkpt>
      <trkpt lat="49.32643" lon="3.31648">
        <ele>167.3</ele>
        <time>2025-10-20T13:17:51.000Z</time>
      </trkpt>
      <trkpt lat="49.32644" lon="3.31649">
        <ele>166.6</ele>
        <time>2025-10-20T13:17:52.000Z</time>
      </trkpt>
      <trkpt lat="49.32644" lon="3.3165">
        <ele>166</ele>
        <time>2025-10-20T13:17:53.000Z</time>
      </trkpt>
      <trkpt lat="49.32644" lon="3.3165">
        <ele>165.7</ele>
        <time>2025-10-20T13:17:54.000Z</time>
      </trkpt>
      <trkpt lat="49.32643" lon="3.31649">
        <ele>165.6</ele>
        <time>2025-10-20T13:17:55.000Z</time>
      </trkpt>
      <trkpt lat="49.32643" lon="3.31648">
        <ele>165.6</ele>
        <time>2025-10-20T13:17:56.000Z</time>
      </trkpt>
      <trkpt lat="49.32642" lon="3.31647">
        <ele>165.9</ele>
        <time>2025-10-20T13:17:57.000Z</time>
      </trkpt>
      <trkpt lat="49.32641" lon="3.31645">
        <ele>166.2</ele>
        <time>2025-10-20T13:17:58.000Z</time>
      </trkpt>
      <trkpt lat="49.3264" lon="3.31644">
        <ele>166.4</ele>
        <time>2025-10-20T13:17:59.000Z</time>
      </trkpt>
      <trkpt lat="49.3264" lon="3.31642">
        <ele>166.9</ele>
        <time>2025-10-20T13:18:00.000Z</time>
      </trkpt>
      <trkpt lat="49.32639" lon="3.3164">
        <ele>167.1</ele>
        <time>2025-10-20T13:18:01.000Z</time>
      </trkpt>
      <trkpt lat="49.32638" lon="3.31639">
        <ele>167.2</ele>
        <time>2025-10-20T13:18:02.000Z</time>
      </trkpt>
      <trkpt lat="49.32638" lon="3.31636">
        <ele>167.3</ele>
        <time>2025-10-20T13:18:03.000Z</time>
      </trkpt>
      <trkpt lat="49.32638" lon="3.31634">
        <ele>167.3</ele>
        <time>2025-10-20T13:18:04.000Z</time>
      </trkpt>
      <trkpt lat="49.32638" lon="3.31631">
        <ele>166.9</ele>
        <time>2025-10-20T13:18:05.000Z</time>
      </trkpt>
      <trkpt lat="49.32638" lon="3.31629">
        <ele>166.7</ele>
        <time>2025-10-20T13:18:06.000Z</time>
      </trkpt>
      <trkpt lat="49.32637" lon="3.31627">
        <ele>166.7</ele>
        <time>2025-10-20T13:18:07.000Z</time>
      </trkpt>
      <trkpt lat="49.32637" lon="3.31624">
        <ele>166.6</ele>
        <time>2025-10-20T13:18:08.000Z</time>
      </trkpt>
      <trkpt lat="49.32637" lon="3.31623">
        <ele>166.7</ele>
        <time>2025-10-20T13:18:09.000Z</time>
      </trkpt>
      <trkpt lat="49.32638" lon="3.31621">
        <ele>166.8</ele>
        <time>2025-10-20T13:18:10.000Z</time>
      </trkpt>
      <trkpt lat="49.32638" lon="3.3162">
        <ele>166.9</ele>
        <time>2025-10-20T13:18:11.000Z</time>
      </trkpt>
      <trkpt lat="49.32638" lon="3.31618">
        <ele>167.6</ele>
        <time>2025-10-20T13:18:12.000Z</time>
      </trkpt>
      <trkpt lat="49.32638" lon="3.31616">
        <ele>168.2</ele>
        <time>2025-10-20T13:18:13.000Z</time>
      </trkpt>
      <trkpt lat="49.32637" lon="3.31615">
        <ele>168.6</ele>
        <time>2025-10-20T13:18:14.000Z</time>
      </trkpt>
      <trkpt lat="49.32637" lon="3.31613">
        <ele>169</ele>
        <time>2025-10-20T13:18:15.000Z</time>
      </trkpt>
      <trkpt lat="49.32637" lon="3.31611">
        <ele>169.2</ele>
        <time>2025-10-20T13:18:16.000Z</time>
      </trkpt>
      <trkpt lat="49.32637" lon="3.31609">
        <ele>169</ele>
        <time>2025-10-20T13:18:17.000Z</time>
      </trkpt>
      <trkpt lat="49.32637" lon="3.31606">
        <ele>168.7</ele>
        <time>2025-10-20T13:18:18.000Z</time>
      </trkpt>
      <trkpt lat="49.32638" lon="3.31604">
        <ele>168.6</ele>
        <time>2025-10-20T13:18:19.000Z</time>
      </trkpt>
      <trkpt lat="49.32638" lon="3.31601">
        <ele>168.2</ele>
        <time>2025-10-20T13:18:20.000Z</time>
      </trkpt>
      <trkpt lat="49.32638" lon="3.31599">
        <ele>168</ele>
        <time>2025-10-20T13:18:21.000Z</time>
      </trkpt>
      <trkpt lat="49.32638" lon="3.31598">
        <ele>167.9</ele>
        <time>2025-10-20T13:18:22.000Z</time>
      </trkpt>
      <trkpt lat="49.32638" lon="3.31595">
        <ele>167.7</ele>
        <time>2025-10-20T13:18:23.000Z</time>
      </trkpt>
      <trkpt lat="49.32638" lon="3.31593">
        <ele>167.2</ele>
        <time>2025-10-20T13:18:24.000Z</time>
      </trkpt>
      <trkpt lat="49.32638" lon="3.31591">
        <ele>166.9</ele>
        <time>2025-10-20T13:18:25.000Z</time>
      </trkpt>
      <trkpt lat="49.32638" lon="3.31588">
        <ele>166.8</ele>
        <time>2025-10-20T13:18:26.000Z</time>
      </trkpt>
      <trkpt lat="49.32638" lon="3.31586">
        <ele>166.3</ele>
        <time>2025-10-20T13:18:27.000Z</time>
      </trkpt>
      <trkpt lat="49.32638" lon="3.31585">
        <ele>165.8</ele>
        <time>2025-10-20T13:18:28.000Z</time>
      </trkpt>
      <trkpt lat="49.32637" lon="3.31583">
        <ele>165.6</ele>
        <time>2025-10-20T13:18:29.000Z</time>
      </trkpt>
      <trkpt lat="49.32637" lon="3.31582">
        <ele>165.3</ele>
        <time>2025-10-20T13:18:30.000Z</time>
      </trkpt>
      <trkpt lat="49.32637" lon="3.3158">
        <ele>165.1</ele>
        <time>2025-10-20T13:18:31.000Z</time>
      </trkpt>
      <trkpt lat="49.32638" lon="3.31578">
        <ele>165.3</ele>
        <time>2025-10-20T13:18:32.000Z</time>
      </trkpt>
      <trkpt lat="49.32638" lon="3.31577">
        <ele>165.5</ele>
        <time>2025-10-20T13:18:33.000Z</time>
      </trkpt>
      <trkpt lat="49.32638" lon="3.31575">
        <ele>165.9</ele>
        <time>2025-10-20T13:18:34.000Z</time>
      </trkpt>
      <trkpt lat="49.32638" lon="3.31573">
        <ele>166.1</ele>
        <time>2025-10-20T13:18:35.000Z</time>
      </trkpt>
      <trkpt lat="49.32638" lon="3.31571">
        <ele>166.1</ele>
        <time>2025-10-20T13:18:36.000Z</time>
      </trkpt>
      <trkpt lat="49.32638" lon="3.31568">
        <ele>166.4</ele>
        <time>2025-10-20T13:18:37.000Z</time>
      </trkpt>
      <trkpt lat="49.32638" lon="3.31566">
        <ele>166.5</ele>
        <time>2025-10-20T13:18:38.000Z</time>
      </trkpt>
      <trkpt lat="49.32638" lon="3.31564">
        <ele>166.8</ele>
        <time>2025-10-20T13:18:39.000Z</time>
      </trkpt>
      <trkpt lat="49.32638" lon="3.31562">
        <ele>167</ele>
        <time>2025-10-20T13:18:40.000Z</time>
      </trkpt>
      <trkpt lat="49.32639" lon="3.31561">
        <ele>166.9</ele>
        <time>2025-10-20T13:18:41.000Z</time>
      </trkpt>
      <trkpt lat="49.32639" lon="3.31559">
        <ele>166.6</ele>
        <time>2025-10-20T13:18:42.000Z</time>
      </trkpt>
      <trkpt lat="49.32639" lon="3.31557">
        <ele>166.3</ele>
        <time>2025-10-20T13:18:43.000Z</time>
      </trkpt>
      <trkpt lat="49.32639" lon="3.31555">
        <ele>166.2</ele>
        <time>2025-10-20T13:18:44.000Z</time>
      </trkpt>
      <trkpt lat="49.32639" lon="3.31552">
        <ele>165.9</ele>
        <time>2025-10-20T13:18:45.000Z</time>
      </trkpt>
      <trkpt lat="49.32639" lon="3.3155">
        <ele>165.9</ele>
        <time>2025-10-20T13:18:46.000Z</time>
      </trkpt>
      <trkpt lat="49.32639" lon="3.31549">
        <ele>166</ele>
        <time>2025-10-20T13:18:47.000Z</time>
      </trkpt>
      <trkpt lat="49.32639" lon="3.31547">
        <ele>166.1</ele>
        <time>2025-10-20T13:18:48.000Z</time>
      </trkpt>
      <trkpt lat="49.32639" lon="3.31544">
        <ele>166.2</ele>
        <time>2025-10-20T13:18:49.000Z</time>
      </trkpt>
      <trkpt lat="49.32639" lon="3.31542">
        <ele>166.2</ele>
        <time>2025-10-20T13:18:50.000Z</time>
      </trkpt>
      <trkpt lat="49.32639" lon="3.3154">
        <ele>166.1</ele>
        <time>2025-10-20T13:18:51.000Z</time>
      </trkpt>
      <trkpt lat="49.32639" lon="3.31538">
        <ele>166.2</ele>
        <time>2025-10-20T13:18:52.000Z</time>
      </trkpt>
      <trkpt lat="49.32639" lon="3.31536">
        <ele>166.3</ele>
        <time>2025-10-20T13:18:53.000Z</time>
      </trkpt>
      <trkpt lat="49.3264" lon="3.31533">
        <ele>166.2</ele>
        <time>2025-10-20T13:18:54.000Z</time>
      </trkpt>
      <trkpt lat="49.3264" lon="3.31531">
        <ele>166.2</ele>
        <time>2025-10-20T13:18:55.000Z</time>
      </trkpt>
      <trkpt lat="49.32641" lon="3.31529">
        <ele>166.1</ele>
        <time>2025-10-20T13:18:56.000Z</time>
      </trkpt>
      <trkpt lat="49.32641" lon="3.31526">
        <ele>166.1</ele>
        <time>2025-10-20T13:18:57.000Z</time>
      </trkpt>
      <trkpt lat="49.32642" lon="3.31524">
        <ele>166.3</ele>
        <time>2025-10-20T13:18:58.000Z</time>
      </trkpt>
      <trkpt lat="49.32643" lon="3.31522">
        <ele>166.2</ele>
        <time>2025-10-20T13:18:59.000Z</time>
      </trkpt>
      <trkpt lat="49.32644" lon="3.3152">
        <ele>166.3</ele>
        <time>2025-10-20T13:19:00.000Z</time>
      </trkpt>
      <trkpt lat="49.32644" lon="3.31519">
        <ele>166.3</ele>
        <time>2025-10-20T13:19:01.000Z</time>
      </trkpt>
      <trkpt lat="49.32644" lon="3.31518">
        <ele>166.3</ele>
        <time>2025-10-20T13:19:02.000Z</time>
      </trkpt>
      <trkpt lat="49.32645" lon="3.31516">
        <ele>166.3</ele>
        <time>2025-10-20T13:19:03.000Z</time>
      </trkpt>
      <trkpt lat="49.32646" lon="3.31514">
        <ele>166.2</ele>
        <time>2025-10-20T13:19:04.000Z</time>
      </trkpt>
      <trkpt lat="49.32647" lon="3.31512">
        <ele>166</ele>
        <time>2025-10-20T13:19:05.000Z</time>
      </trkpt>
      <trkpt lat="49.32648" lon="3.31511">
        <ele>166</ele>
        <time>2025-10-20T13:19:06.000Z</time>
      </trkpt>
      <trkpt lat="49.32649" lon="3.3151">
        <ele>166.1</ele>
        <time>2025-10-20T13:19:07.000Z</time>
      </trkpt>
      <trkpt lat="49.3265" lon="3.31509">
        <ele>166.2</ele>
        <time>2025-10-20T13:19:08.000Z</time>
      </trkpt>
      <trkpt lat="49.32651" lon="3.31508">
        <ele>165.9</ele>
        <time>2025-10-20T13:19:09.000Z</time>
      </trkpt>
      <trkpt lat="49.32652" lon="3.31507">
        <ele>165.8</ele>
        <time>2025-10-20T13:19:10.000Z</time>
      </trkpt>
      <trkpt lat="49.32653" lon="3.31506">
        <ele>165.7</ele>
        <time>2025-10-20T13:19:11.000Z</time>
      </trkpt>
      <trkpt lat="49.32654" lon="3.31505">
        <ele>165.6</ele>
        <time>2025-10-20T13:19:12.000Z</time>
      </trkpt>
      <trkpt lat="49.32656" lon="3.31503">
        <ele>165.5</ele>
        <time>2025-10-20T13:19:13.000Z</time>
      </trkpt>
      <trkpt lat="49.32657" lon="3.31502">
        <ele>165.1</ele>
        <time>2025-10-20T13:19:14.000Z</time>
      </trkpt>
      <trkpt lat="49.32659" lon="3.31501">
        <ele>164.8</ele>
        <time>2025-10-20T13:19:15.000Z</time>
      </trkpt>
      <trkpt lat="49.3266" lon="3.315">
        <ele>164.8</ele>
        <time>2025-10-20T13:19:16.000Z</time>
      </trkpt>
      <trkpt lat="49.32661" lon="3.31499">
        <ele>164.7</ele>
        <time>2025-10-20T13:19:17.000Z</time>
      </trkpt>
      <trkpt lat="49.32663" lon="3.31498">
        <ele>164.8</ele>
        <time>2025-10-20T13:19:18.000Z</time>
      </trkpt>
      <trkpt lat="49.32664" lon="3.31497">
        <ele>164.8</ele>
        <time>2025-10-20T13:19:19.000Z</time>
      </trkpt>
      <trkpt lat="49.32665" lon="3.31496">
        <ele>164.8</ele>
        <time>2025-10-20T13:19:20.000Z</time>
      </trkpt>
      <trkpt lat="49.32666" lon="3.31495">
        <ele>164.7</ele>
        <time>2025-10-20T13:19:21.000Z</time>
      </trkpt>
      <trkpt lat="49.32668" lon="3.31494">
        <ele>164.8</ele>
        <time>2025-10-20T13:19:22.000Z</time>
      </trkpt>
      <trkpt lat="49.32669" lon="3.31493">
        <ele>164.7</ele>
        <time>2025-10-20T13:19:23.000Z</time>
      </trkpt>
      <trkpt lat="49.3267" lon="3.31492">
        <ele>164.8</ele>
        <time>2025-10-20T13:19:24.000Z</time>
      </trkpt>
      <trkpt lat="49.32671" lon="3.31491">
        <ele>165</ele>
        <time>2025-10-20T13:19:25.000Z</time>
      </trkpt>
      <trkpt lat="49.32673" lon="3.3149">
        <ele>165.4</ele>
        <time>2025-10-20T13:19:26.000Z</time>
      </trkpt>
      <trkpt lat="49.32674" lon="3.31489">
        <ele>165.5</ele>
        <time>2025-10-20T13:19:27.000Z</time>
      </trkpt>
      <trkpt lat="49.32676" lon="3.31488">
        <ele>165.7</ele>
        <time>2025-10-20T13:19:28.000Z</time>
      </trkpt>
      <trkpt lat="49.32677" lon="3.31487">
        <ele>165.6</ele>
        <time>2025-10-20T13:19:29.000Z</time>
      </trkpt>
      <trkpt lat="49.32678" lon="3.31486">
        <ele>165.6</ele>
        <time>2025-10-20T13:19:30.000Z</time>
      </trkpt>
      <trkpt lat="49.32679" lon="3.31485">
        <ele>165.8</ele>
        <time>2025-10-20T13:19:31.000Z</time>
      </trkpt>
      <trkpt lat="49.3268" lon="3.31485">
        <ele>166</ele>
        <time>2025-10-20T13:19:32.000Z</time>
      </trkpt>
      <trkpt lat="49.32682" lon="3.31484">
        <ele>165.9</ele>
        <time>2025-10-20T13:19:33.000Z</time>
      </trkpt>
      <trkpt lat="49.32682" lon="3.31483">
        <ele>165.6</ele>
        <time>2025-10-20T13:19:34.000Z</time>
      </trkpt>
      <trkpt lat="49.32684" lon="3.31482">
        <ele>165.5</ele>
        <time>2025-10-20T13:19:35.000Z</time>
      </trkpt>
      <trkpt lat="49.32685" lon="3.31481">
        <ele>165.5</ele>
        <time>2025-10-20T13:19:36.000Z</time>
      </trkpt>
      <trkpt lat="49.32687" lon="3.3148">
        <ele>165.5</ele>
        <time>2025-10-20T13:19:37.000Z</time>
      </trkpt>
      <trkpt lat="49.32688" lon="3.31479">
        <ele>165.6</ele>
        <time>2025-10-20T13:19:38.000Z</time>
      </trkpt>
      <trkpt lat="49.32689" lon="3.31478">
        <ele>165.7</ele>
        <time>2025-10-20T13:19:39.000Z</time>
      </trkpt>
      <trkpt lat="49.3269" lon="3.31477">
        <ele>165.6</ele>
        <time>2025-10-20T13:19:40.000Z</time>
      </trkpt>
      <trkpt lat="49.32691" lon="3.31476">
        <ele>165.6</ele>
        <time>2025-10-20T13:19:41.000Z</time>
      </trkpt>
      <trkpt lat="49.32693" lon="3.31475">
        <ele>165.7</ele>
        <time>2025-10-20T13:19:42.000Z</time>
      </trkpt>
      <trkpt lat="49.32694" lon="3.31475">
        <ele>166</ele>
        <time>2025-10-20T13:19:43.000Z</time>
      </trkpt>
      <trkpt lat="49.32695" lon="3.31474">
        <ele>166</ele>
        <time>2025-10-20T13:19:44.000Z</time>
      </trkpt>
      <trkpt lat="49.32697" lon="3.31473">
        <ele>166.1</ele>
        <time>2025-10-20T13:19:45.000Z</time>
      </trkpt>
      <trkpt lat="49.32698" lon="3.31472">
        <ele>166.3</ele>
        <time>2025-10-20T13:19:46.000Z</time>
      </trkpt>
      <trkpt lat="49.32699" lon="3.31471">
        <ele>166.2</ele>
        <time>2025-10-20T13:19:47.000Z</time>
      </trkpt>
      <trkpt lat="49.327" lon="3.3147">
        <ele>166.3</ele>
        <time>2025-10-20T13:19:48.000Z</time>
      </trkpt>
      <trkpt lat="49.32702" lon="3.31469">
        <ele>166.5</ele>
        <time>2025-10-20T13:19:49.000Z</time>
      </trkpt>
      <trkpt lat="49.32703" lon="3.31468">
        <ele>166.7</ele>
        <time>2025-10-20T13:19:50.000Z</time>
      </trkpt>
      <trkpt lat="49.32704" lon="3.31467">
        <ele>166.8</ele>
        <time>2025-10-20T13:19:51.000Z</time>
      </trkpt>
      <trkpt lat="49.32705" lon="3.31467">
        <ele>166.8</ele>
        <time>2025-10-20T13:19:52.000Z</time>
      </trkpt>
      <trkpt lat="49.32706" lon="3.31465">
        <ele>167.2</ele>
        <time>2025-10-20T13:19:53.000Z</time>
      </trkpt>
      <trkpt lat="49.32707" lon="3.31465">
        <ele>167.3</ele>
        <time>2025-10-20T13:19:54.000Z</time>
      </trkpt>
      <trkpt lat="49.32709" lon="3.31464">
        <ele>167.6</ele>
        <time>2025-10-20T13:19:55.000Z</time>
      </trkpt>
      <trkpt lat="49.3271" lon="3.31463">
        <ele>167.8</ele>
        <time>2025-10-20T13:19:56.000Z</time>
      </trkpt>
      <trkpt lat="49.32711" lon="3.31462">
        <ele>168</ele>
        <time>2025-10-20T13:19:57.000Z</time>
      </trkpt>
      <trkpt lat="49.32712" lon="3.31461">
        <ele>168.2</ele>
        <time>2025-10-20T13:19:58.000Z</time>
      </trkpt>
      <trkpt lat="49.32713" lon="3.3146">
        <ele>168.2</ele>
        <time>2025-10-20T13:19:59.000Z</time>
      </trkpt>
      <trkpt lat="49.32714" lon="3.31459">
        <ele>168.3</ele>
        <time>2025-10-20T13:20:00.000Z</time>
      </trkpt>
      <trkpt lat="49.32716" lon="3.31458">
        <ele>168.6</ele>
        <time>2025-10-20T13:20:01.000Z</time>
      </trkpt>
      <trkpt lat="49.32717" lon="3.31457">
        <ele>168.7</ele>
        <time>2025-10-20T13:20:02.000Z</time>
      </trkpt>
      <trkpt lat="49.32718" lon="3.31456">
        <ele>168.8</ele>
        <time>2025-10-20T13:20:03.000Z</time>
      </trkpt>
      <trkpt lat="49.32719" lon="3.31455">
        <ele>168.9</ele>
        <time>2025-10-20T13:20:04.000Z</time>
      </trkpt>
      <trkpt lat="49.3272" lon="3.31454">
        <ele>168.8</ele>
        <time>2025-10-20T13:20:05.000Z</time>
      </trkpt>
      <trkpt lat="49.32721" lon="3.31453">
        <ele>168.9</ele>
        <time>2025-10-20T13:20:06.000Z</time>
      </trkpt>
      <trkpt lat="49.32722" lon="3.31452">
        <ele>169.2</ele>
        <time>2025-10-20T13:20:07.000Z</time>
      </trkpt>
      <trkpt lat="49.32723" lon="3.31451">
        <ele>169.4</ele>
        <time>2025-10-20T13:20:08.000Z</time>
      </trkpt>
      <trkpt lat="49.32725" lon="3.3145">
        <ele>169.4</ele>
        <time>2025-10-20T13:20:09.000Z</time>
      </trkpt>
      <trkpt lat="49.32725" lon="3.3145">
        <ele>169.5</ele>
        <time>2025-10-20T13:20:10.000Z</time>
      </trkpt>
      <trkpt lat="49.32726" lon="3.31449">
        <ele>169.4</ele>
        <time>2025-10-20T13:20:11.000Z</time>
      </trkpt>
      <trkpt lat="49.32728" lon="3.31448">
        <ele>169.4</ele>
        <time>2025-10-20T13:20:12.000Z</time>
      </trkpt>
      <trkpt lat="49.32729" lon="3.31447">
        <ele>169.5</ele>
        <time>2025-10-20T13:20:13.000Z</time>
      </trkpt>
      <trkpt lat="49.3273" lon="3.31447">
        <ele>169.4</ele>
        <time>2025-10-20T13:20:14.000Z</time>
      </trkpt>
      <trkpt lat="49.32731" lon="3.31446">
        <ele>169.7</ele>
        <time>2025-10-20T13:20:15.000Z</time>
      </trkpt>
      <trkpt lat="49.32733" lon="3.31445">
        <ele>169.7</ele>
        <time>2025-10-20T13:20:16.000Z</time>
      </trkpt>
      <trkpt lat="49.32734" lon="3.31444">
        <ele>169.8</ele>
        <time>2025-10-20T13:20:17.000Z</time>
      </trkpt>
      <trkpt lat="49.32735" lon="3.31443">
        <ele>169.8</ele>
        <time>2025-10-20T13:20:18.000Z</time>
      </trkpt>
      <trkpt lat="49.32736" lon="3.31442">
        <ele>169.9</ele>
        <time>2025-10-20T13:20:19.000Z</time>
      </trkpt>
      <trkpt lat="49.32737" lon="3.31441">
        <ele>170.1</ele>
        <time>2025-10-20T13:20:20.000Z</time>
      </trkpt>
      <trkpt lat="49.32739" lon="3.31441">
        <ele>170.3</ele>
        <time>2025-10-20T13:20:21.000Z</time>
      </trkpt>
      <trkpt lat="49.3274" lon="3.3144">
        <ele>170.5</ele>
        <time>2025-10-20T13:20:22.000Z</time>
      </trkpt>
      <trkpt lat="49.32741" lon="3.31439">
        <ele>170.5</ele>
        <time>2025-10-20T13:20:23.000Z</time>
      </trkpt>
      <trkpt lat="49.32742" lon="3.31438">
        <ele>170.5</ele>
        <time>2025-10-20T13:20:24.000Z</time>
      </trkpt>
      <trkpt lat="49.32743" lon="3.31438">
        <ele>170.6</ele>
        <time>2025-10-20T13:20:25.000Z</time>
      </trkpt>
      <trkpt lat="49.32745" lon="3.31438">
        <ele>170.6</ele>
        <time>2025-10-20T13:20:26.000Z</time>
      </trkpt>
      <trkpt lat="49.32747" lon="3.31438">
        <ele>170.6</ele>
        <time>2025-10-20T13:20:27.000Z</time>
      </trkpt>
      <trkpt lat="49.32748" lon="3.31438">
        <ele>170.4</ele>
        <time>2025-10-20T13:20:28.000Z</time>
      </trkpt>
      <trkpt lat="49.32749" lon="3.31438">
        <ele>170.3</ele>
        <time>2025-10-20T13:20:29.000Z</time>
      </trkpt>
      <trkpt lat="49.32751" lon="3.31437">
        <ele>170.1</ele>
        <time>2025-10-20T13:20:30.000Z</time>
      </trkpt>
      <trkpt lat="49.32752" lon="3.31437">
        <ele>170</ele>
        <time>2025-10-20T13:20:31.000Z</time>
      </trkpt>
      <trkpt lat="49.32754" lon="3.31437">
        <ele>170</ele>
        <time>2025-10-20T13:20:32.000Z</time>
      </trkpt>
      <trkpt lat="49.32755" lon="3.31436">
        <ele>170</ele>
        <time>2025-10-20T13:20:33.000Z</time>
      </trkpt>
      <trkpt lat="49.32757" lon="3.31436">
        <ele>170</ele>
        <time>2025-10-20T13:20:34.000Z</time>
      </trkpt>
      <trkpt lat="49.32758" lon="3.31436">
        <ele>170.2</ele>
        <time>2025-10-20T13:20:35.000Z</time>
      </trkpt>
      <trkpt lat="49.32759" lon="3.31436">
        <ele>170.6</ele>
        <time>2025-10-20T13:20:36.000Z</time>
      </trkpt>
      <trkpt lat="49.3276" lon="3.31435">
        <ele>171</ele>
        <time>2025-10-20T13:20:37.000Z</time>
      </trkpt>
      <trkpt lat="49.32762" lon="3.31435">
        <ele>171.2</ele>
        <time>2025-10-20T13:20:38.000Z</time>
      </trkpt>
      <trkpt lat="49.32763" lon="3.31434">
        <ele>171.2</ele>
        <time>2025-10-20T13:20:39.000Z</time>
      </trkpt>
      <trkpt lat="49.32765" lon="3.31434">
        <ele>171.3</ele>
        <time>2025-10-20T13:20:40.000Z</time>
      </trkpt>
      <trkpt lat="49.32766" lon="3.31433">
        <ele>171.2</ele>
        <time>2025-10-20T13:20:41.000Z</time>
      </trkpt>
      <trkpt lat="49.32767" lon="3.31432">
        <ele>171</ele>
        <time>2025-10-20T13:20:42.000Z</time>
      </trkpt>
      <trkpt lat="49.32769" lon="3.31431">
        <ele>171.1</ele>
        <time>2025-10-20T13:20:43.000Z</time>
      </trkpt>
      <trkpt lat="49.3277" lon="3.3143">
        <ele>171</ele>
        <time>2025-10-20T13:20:44.000Z</time>
      </trkpt>
      <trkpt lat="49.32771" lon="3.31429">
        <ele>171.1</ele>
        <time>2025-10-20T13:20:45.000Z</time>
      </trkpt>
      <trkpt lat="49.32773" lon="3.31428">
        <ele>171.1</ele>
        <time>2025-10-20T13:20:46.000Z</time>
      </trkpt>
      <trkpt lat="49.32774" lon="3.31427">
        <ele>170.8</ele>
        <time>2025-10-20T13:20:47.000Z</time>
      </trkpt>
      <trkpt lat="49.32775" lon="3.31426">
        <ele>171</ele>
        <time>2025-10-20T13:20:48.000Z</time>
      </trkpt>
      <trkpt lat="49.32776" lon="3.31424">
        <ele>171.8</ele>
        <time>2025-10-20T13:20:49.000Z</time>
      </trkpt>
      <trkpt lat="49.32777" lon="3.31423">
        <ele>172.1</ele>
        <time>2025-10-20T13:20:50.000Z</time>
      </trkpt>
      <trkpt lat="49.32778" lon="3.31422">
        <ele>172.1</ele>
        <time>2025-10-20T13:20:51.000Z</time>
      </trkpt>
      <trkpt lat="49.32779" lon="3.31421">
        <ele>172.1</ele>
        <time>2025-10-20T13:20:52.000Z</time>
      </trkpt>
      <trkpt lat="49.3278" lon="3.3142">
        <ele>172</ele>
        <time>2025-10-20T13:20:53.000Z</time>
      </trkpt>
      <trkpt lat="49.32781" lon="3.31419">
        <ele>171.7</ele>
        <time>2025-10-20T13:20:54.000Z</time>
      </trkpt>
      <trkpt lat="49.32782" lon="3.31418">
        <ele>171.5</ele>
        <time>2025-10-20T13:20:55.000Z</time>
      </trkpt>
      <trkpt lat="49.32784" lon="3.31416">
        <ele>171.5</ele>
        <time>2025-10-20T13:20:56.000Z</time>
      </trkpt>
      <trkpt lat="49.32785" lon="3.31415">
        <ele>171.6</ele>
        <time>2025-10-20T13:20:57.000Z</time>
      </trkpt>
      <trkpt lat="49.32786" lon="3.31414">
        <ele>171.6</ele>
        <time>2025-10-20T13:20:58.000Z</time>
      </trkpt>
      <trkpt lat="49.32787" lon="3.31413">
        <ele>171.6</ele>
        <time>2025-10-20T13:20:59.000Z</time>
      </trkpt>
      <trkpt lat="49.32789" lon="3.31411">
        <ele>171.6</ele>
        <time>2025-10-20T13:21:00.000Z</time>
      </trkpt>
      <trkpt lat="49.3279" lon="3.3141">
        <ele>171.5</ele>
        <time>2025-10-20T13:21:01.000Z</time>
      </trkpt>
      <trkpt lat="49.32791" lon="3.31409">
        <ele>171.6</ele>
        <time>2025-10-20T13:21:02.000Z</time>
      </trkpt>
      <trkpt lat="49.32792" lon="3.31407">
        <ele>171.6</ele>
        <time>2025-10-20T13:21:03.000Z</time>
      </trkpt>
      <trkpt lat="49.32793" lon="3.31406">
        <ele>171.7</ele>
        <time>2025-10-20T13:21:04.000Z</time>
      </trkpt>
      <trkpt lat="49.32794" lon="3.31404">
        <ele>171.7</ele>
        <time>2025-10-20T13:21:05.000Z</time>
      </trkpt>
      <trkpt lat="49.32796" lon="3.31403">
        <ele>171.8</ele>
        <time>2025-10-20T13:21:06.000Z</time>
      </trkpt>
      <trkpt lat="49.32797" lon="3.31402">
        <ele>171.9</ele>
        <time>2025-10-20T13:21:07.000Z</time>
      </trkpt>
      <trkpt lat="49.32798" lon="3.314">
        <ele>172</ele>
        <time>2025-10-20T13:21:08.000Z</time>
      </trkpt>
      <trkpt lat="49.32799" lon="3.31399">
        <ele>172</ele>
        <time>2025-10-20T13:21:09.000Z</time>
      </trkpt>
      <trkpt lat="49.328" lon="3.31397">
        <ele>172.1</ele>
        <time>2025-10-20T13:21:10.000Z</time>
      </trkpt>
      <trkpt lat="49.32801" lon="3.31396">
        <ele>172.2</ele>
        <time>2025-10-20T13:21:11.000Z</time>
      </trkpt>
      <trkpt lat="49.32802" lon="3.31395">
        <ele>172.1</ele>
        <time>2025-10-20T13:21:12.000Z</time>
      </trkpt>
      <trkpt lat="49.32803" lon="3.31393">
        <ele>172.1</ele>
        <time>2025-10-20T13:21:13.000Z</time>
      </trkpt>
      <trkpt lat="49.32804" lon="3.31391">
        <ele>172.3</ele>
        <time>2025-10-20T13:21:14.000Z</time>
      </trkpt>
      <trkpt lat="49.32806" lon="3.3139">
        <ele>172.4</ele>
        <time>2025-10-20T13:21:15.000Z</time>
      </trkpt>
      <trkpt lat="49.32807" lon="3.31388">
        <ele>172.3</ele>
        <time>2025-10-20T13:21:16.000Z</time>
      </trkpt>
      <trkpt lat="49.32808" lon="3.31387">
        <ele>171.9</ele>
        <time>2025-10-20T13:21:17.000Z</time>
      </trkpt>
      <trkpt lat="49.32809" lon="3.31386">
        <ele>171.6</ele>
        <time>2025-10-20T13:21:18.000Z</time>
      </trkpt>
      <trkpt lat="49.32811" lon="3.31384">
        <ele>171.6</ele>
        <time>2025-10-20T13:21:19.000Z</time>
      </trkpt>
      <trkpt lat="49.32812" lon="3.31383">
        <ele>171.5</ele>
        <time>2025-10-20T13:21:20.000Z</time>
      </trkpt>
      <trkpt lat="49.32813" lon="3.31382">
        <ele>171.6</ele>
        <time>2025-10-20T13:21:21.000Z</time>
      </trkpt>
      <trkpt lat="49.32813" lon="3.3138">
        <ele>171.7</ele>
        <time>2025-10-20T13:21:22.000Z</time>
      </trkpt>
      <trkpt lat="49.32814" lon="3.31379">
        <ele>171.9</ele>
        <time>2025-10-20T13:21:23.000Z</time>
      </trkpt>
      <trkpt lat="49.32815" lon="3.31377">
        <ele>172.2</ele>
        <time>2025-10-20T13:21:24.000Z</time>
      </trkpt>
      <trkpt lat="49.32816" lon="3.31375">
        <ele>172.4</ele>
        <time>2025-10-20T13:21:25.000Z</time>
      </trkpt>
      <trkpt lat="49.32817" lon="3.31374">
        <ele>172.6</ele>
        <time>2025-10-20T13:21:26.000Z</time>
      </trkpt>
      <trkpt lat="49.32818" lon="3.31372">
        <ele>172.8</ele>
        <time>2025-10-20T13:21:27.000Z</time>
      </trkpt>
      <trkpt lat="49.32819" lon="3.31371">
        <ele>172.9</ele>
        <time>2025-10-20T13:21:28.000Z</time>
      </trkpt>
      <trkpt lat="49.3282" lon="3.3137">
        <ele>172.9</ele>
        <time>2025-10-20T13:21:29.000Z</time>
      </trkpt>
      <trkpt lat="49.32821" lon="3.31368">
        <ele>172.8</ele>
        <time>2025-10-20T13:21:30.000Z</time>
      </trkpt>
      <trkpt lat="49.32822" lon="3.31367">
        <ele>172.8</ele>
        <time>2025-10-20T13:21:31.000Z</time>
      </trkpt>
      <trkpt lat="49.32823" lon="3.31366">
        <ele>172.9</ele>
        <time>2025-10-20T13:21:32.000Z</time>
      </trkpt>
      <trkpt lat="49.32824" lon="3.31364">
        <ele>172.9</ele>
        <time>2025-10-20T13:21:33.000Z</time>
      </trkpt>
      <trkpt lat="49.32825" lon="3.31363">
        <ele>172.9</ele>
        <time>2025-10-20T13:21:34.000Z</time>
      </trkpt>
      <trkpt lat="49.32827" lon="3.31361">
        <ele>172.8</ele>
        <time>2025-10-20T13:21:35.000Z</time>
      </trkpt>
      <trkpt lat="49.32828" lon="3.3136">
        <ele>172.9</ele>
        <time>2025-10-20T13:21:36.000Z</time>
      </trkpt>
      <trkpt lat="49.32829" lon="3.31358">
        <ele>173.1</ele>
        <time>2025-10-20T13:21:37.000Z</time>
      </trkpt>
      <trkpt lat="49.3283" lon="3.31357">
        <ele>173.4</ele>
        <time>2025-10-20T13:21:38.000Z</time>
      </trkpt>
      <trkpt lat="49.32831" lon="3.31355">
        <ele>173.6</ele>
        <time>2025-10-20T13:21:39.000Z</time>
      </trkpt>
      <trkpt lat="49.32831" lon="3.31353">
        <ele>173.7</ele>
        <time>2025-10-20T13:21:40.000Z</time>
      </trkpt>
      <trkpt lat="49.32832" lon="3.31352">
        <ele>173.8</ele>
        <time>2025-10-20T13:21:41.000Z</time>
      </trkpt>
      <trkpt lat="49.32834" lon="3.3135">
        <ele>173.6</ele>
        <time>2025-10-20T13:21:42.000Z</time>
      </trkpt>
      <trkpt lat="49.32835" lon="3.31349">
        <ele>173.4</ele>
        <time>2025-10-20T13:21:43.000Z</time>
      </trkpt>
      <trkpt lat="49.32836" lon="3.31347">
        <ele>173.2</ele>
        <time>2025-10-20T13:21:44.000Z</time>
      </trkpt>
      <trkpt lat="49.32837" lon="3.31345">
        <ele>173</ele>
        <time>2025-10-20T13:21:45.000Z</time>
      </trkpt>
      <trkpt lat="49.32838" lon="3.31343">
        <ele>172.7</ele>
        <time>2025-10-20T13:21:46.000Z</time>
      </trkpt>
      <trkpt lat="49.32839" lon="3.31342">
        <ele>172.3</ele>
        <time>2025-10-20T13:21:47.000Z</time>
      </trkpt>
      <trkpt lat="49.3284" lon="3.3134">
        <ele>172.3</ele>
        <time>2025-10-20T13:21:48.000Z</time>
      </trkpt>
      <trkpt lat="49.32841" lon="3.31339">
        <ele>172.3</ele>
        <time>2025-10-20T13:21:49.000Z</time>
      </trkpt>
      <trkpt lat="49.32842" lon="3.31337">
        <ele>172.5</ele>
        <time>2025-10-20T13:21:50.000Z</time>
      </trkpt>
      <trkpt lat="49.32843" lon="3.31336">
        <ele>172.5</ele>
        <time>2025-10-20T13:21:51.000Z</time>
      </trkpt>
      <trkpt lat="49.32844" lon="3.31334">
        <ele>172.5</ele>
        <time>2025-10-20T13:21:52.000Z</time>
      </trkpt>
      <trkpt lat="49.32845" lon="3.31333">
        <ele>172.3</ele>
        <time>2025-10-20T13:21:53.000Z</time>
      </trkpt>
      <trkpt lat="49.32846" lon="3.31331">
        <ele>172.5</ele>
        <time>2025-10-20T13:21:54.000Z</time>
      </trkpt>
      <trkpt lat="49.32847" lon="3.3133">
        <ele>172.8</ele>
        <time>2025-10-20T13:21:55.000Z</time>
      </trkpt>
      <trkpt lat="49.32848" lon="3.31329">
        <ele>173.1</ele>
        <time>2025-10-20T13:21:56.000Z</time>
      </trkpt>
      <trkpt lat="49.32849" lon="3.31328">
        <ele>173.4</ele>
        <time>2025-10-20T13:21:57.000Z</time>
      </trkpt>
      <trkpt lat="49.3285" lon="3.31327">
        <ele>173.7</ele>
        <time>2025-10-20T13:21:58.000Z</time>
      </trkpt>
      <trkpt lat="49.32851" lon="3.31325">
        <ele>173.8</ele>
        <time>2025-10-20T13:21:59.000Z</time>
      </trkpt>
      <trkpt lat="49.32853" lon="3.31324">
        <ele>173.6</ele>
        <time>2025-10-20T13:22:00.000Z</time>
      </trkpt>
      <trkpt lat="49.32854" lon="3.31323">
        <ele>173.8</ele>
        <time>2025-10-20T13:22:01.000Z</time>
      </trkpt>
      <trkpt lat="49.32855" lon="3.31321">
        <ele>173.8</ele>
        <time>2025-10-20T13:22:02.000Z</time>
      </trkpt>
      <trkpt lat="49.32856" lon="3.3132">
        <ele>173.8</ele>
        <time>2025-10-20T13:22:03.000Z</time>
      </trkpt>
      <trkpt lat="49.32857" lon="3.31319">
        <ele>173.8</ele>
        <time>2025-10-20T13:22:04.000Z</time>
      </trkpt>
      <trkpt lat="49.32858" lon="3.31317">
        <ele>173.7</ele>
        <time>2025-10-20T13:22:05.000Z</time>
      </trkpt>
      <trkpt lat="49.32859" lon="3.31316">
        <ele>173.8</ele>
        <time>2025-10-20T13:22:06.000Z</time>
      </trkpt>
      <trkpt lat="49.3286" lon="3.31315">
        <ele>173.9</ele>
        <time>2025-10-20T13:22:07.000Z</time>
      </trkpt>
      <trkpt lat="49.32861" lon="3.31314">
        <ele>173.8</ele>
        <time>2025-10-20T13:22:08.000Z</time>
      </trkpt>
      <trkpt lat="49.32862" lon="3.31312">
        <ele>173.7</ele>
        <time>2025-10-20T13:22:09.000Z</time>
      </trkpt>
      <trkpt lat="49.32864" lon="3.31311">
        <ele>173.4</ele>
        <time>2025-10-20T13:22:10.000Z</time>
      </trkpt>
      <trkpt lat="49.32865" lon="3.3131">
        <ele>173.2</ele>
        <time>2025-10-20T13:22:11.000Z</time>
      </trkpt>
      <trkpt lat="49.32866" lon="3.31308">
        <ele>173</ele>
        <time>2025-10-20T13:22:12.000Z</time>
      </trkpt>
      <trkpt lat="49.32868" lon="3.31307">
        <ele>172.8</ele>
        <time>2025-10-20T13:22:13.000Z</time>
      </trkpt>
      <trkpt lat="49.32869" lon="3.31305">
        <ele>172.5</ele>
        <time>2025-10-20T13:22:14.000Z</time>
      </trkpt>
      <trkpt lat="49.3287" lon="3.31304">
        <ele>172.5</ele>
        <time>2025-10-20T13:22:15.000Z</time>
      </trkpt>
      <trkpt lat="49.32871" lon="3.31303">
        <ele>172.3</ele>
        <time>2025-10-20T13:22:16.000Z</time>
      </trkpt>
      <trkpt lat="49.32872" lon="3.31302">
        <ele>172.1</ele>
        <time>2025-10-20T13:22:17.000Z</time>
      </trkpt>
      <trkpt lat="49.32874" lon="3.31301">
        <ele>172.1</ele>
        <time>2025-10-20T13:22:18.000Z</time>
      </trkpt>
      <trkpt lat="49.32875" lon="3.31299">
        <ele>171.9</ele>
        <time>2025-10-20T13:22:19.000Z</time>
      </trkpt>
      <trkpt lat="49.32876" lon="3.31298">
        <ele>171.8</ele>
        <time>2025-10-20T13:22:20.000Z</time>
      </trkpt>
      <trkpt lat="49.32877" lon="3.31296">
        <ele>171.8</ele>
        <time>2025-10-20T13:22:21.000Z</time>
      </trkpt>
      <trkpt lat="49.32878" lon="3.31294">
        <ele>171.7</ele>
        <time>2025-10-20T13:22:22.000Z</time>
      </trkpt>
      <trkpt lat="49.32878" lon="3.31293">
        <ele>171.8</ele>
        <time>2025-10-20T13:22:23.000Z</time>
      </trkpt>
      <trkpt lat="49.3288" lon="3.31291">
        <ele>171.9</ele>
        <time>2025-10-20T13:22:24.000Z</time>
      </trkpt>
      <trkpt lat="49.32881" lon="3.31289">
        <ele>171.9</ele>
        <time>2025-10-20T13:22:25.000Z</time>
      </trkpt>
      <trkpt lat="49.32882" lon="3.31288">
        <ele>171.9</ele>
        <time>2025-10-20T13:22:26.000Z</time>
      </trkpt>
      <trkpt lat="49.32883" lon="3.31286">
        <ele>171.9</ele>
        <time>2025-10-20T13:22:27.000Z</time>
      </trkpt>
      <trkpt lat="49.32884" lon="3.31285">
        <ele>171.7</ele>
        <time>2025-10-20T13:22:28.000Z</time>
      </trkpt>
      <trkpt lat="49.32885" lon="3.31283">
        <ele>171.7</ele>
        <time>2025-10-20T13:22:29.000Z</time>
      </trkpt>
      <trkpt lat="49.32886" lon="3.31282">
        <ele>171.8</ele>
        <time>2025-10-20T13:22:30.000Z</time>
      </trkpt>
      <trkpt lat="49.32887" lon="3.3128">
        <ele>171.6</ele>
        <time>2025-10-20T13:22:31.000Z</time>
      </trkpt>
      <trkpt lat="49.32888" lon="3.31278">
        <ele>171.7</ele>
        <time>2025-10-20T13:22:32.000Z</time>
      </trkpt>
      <trkpt lat="49.32889" lon="3.31276">
        <ele>171.4</ele>
        <time>2025-10-20T13:22:33.000Z</time>
      </trkpt>
      <trkpt lat="49.3289" lon="3.31274">
        <ele>171.6</ele>
        <time>2025-10-20T13:22:34.000Z</time>
      </trkpt>
      <trkpt lat="49.32891" lon="3.31273">
        <ele>172</ele>
        <time>2025-10-20T13:22:35.000Z</time>
      </trkpt>
      <trkpt lat="49.32892" lon="3.31271">
        <ele>172.2</ele>
        <time>2025-10-20T13:22:36.000Z</time>
      </trkpt>
      <trkpt lat="49.32893" lon="3.31269">
        <ele>172.2</ele>
        <time>2025-10-20T13:22:37.000Z</time>
      </trkpt>
      <trkpt lat="49.32894" lon="3.31267">
        <ele>172.5</ele>
        <time>2025-10-20T13:22:38.000Z</time>
      </trkpt>
      <trkpt lat="49.32895" lon="3.31265">
        <ele>172.8</ele>
        <time>2025-10-20T13:22:39.000Z</time>
      </trkpt>
      <trkpt lat="49.32896" lon="3.31264">
        <ele>172.9</ele>
        <time>2025-10-20T13:22:40.000Z</time>
      </trkpt>
      <trkpt lat="49.32897" lon="3.31262">
        <ele>172.8</ele>
        <time>2025-10-20T13:22:41.000Z</time>
      </trkpt>
      <trkpt lat="49.32898" lon="3.3126">
        <ele>172.7</ele>
        <time>2025-10-20T13:22:42.000Z</time>
      </trkpt>
      <trkpt lat="49.32899" lon="3.31258">
        <ele>172.7</ele>
        <time>2025-10-20T13:22:43.000Z</time>
      </trkpt>
      <trkpt lat="49.329" lon="3.31257">
        <ele>173.1</ele>
        <time>2025-10-20T13:22:44.000Z</time>
      </trkpt>
      <trkpt lat="49.32901" lon="3.31255">
        <ele>173.4</ele>
        <time>2025-10-20T13:22:45.000Z</time>
      </trkpt>
      <trkpt lat="49.32901" lon="3.31254">
        <ele>173.4</ele>
        <time>2025-10-20T13:22:46.000Z</time>
      </trkpt>
      <trkpt lat="49.32902" lon="3.31252">
        <ele>173.5</ele>
        <time>2025-10-20T13:22:47.000Z</time>
      </trkpt>
      <trkpt lat="49.32903" lon="3.3125">
        <ele>173.5</ele>
        <time>2025-10-20T13:22:48.000Z</time>
      </trkpt>
      <trkpt lat="49.32904" lon="3.31248">
        <ele>173.2</ele>
        <time>2025-10-20T13:22:49.000Z</time>
      </trkpt>
      <trkpt lat="49.32904" lon="3.31246">
        <ele>173.3</ele>
        <time>2025-10-20T13:22:50.000Z</time>
      </trkpt>
      <trkpt lat="49.32905" lon="3.31245">
        <ele>173.3</ele>
        <time>2025-10-20T13:22:51.000Z</time>
      </trkpt>
      <trkpt lat="49.32906" lon="3.31243">
        <ele>173</ele>
        <time>2025-10-20T13:22:52.000Z</time>
      </trkpt>
      <trkpt lat="49.32907" lon="3.31241">
        <ele>172.9</ele>
        <time>2025-10-20T13:22:53.000Z</time>
      </trkpt>
      <trkpt lat="49.32908" lon="3.31239">
        <ele>172.7</ele>
        <time>2025-10-20T13:22:54.000Z</time>
      </trkpt>
      <trkpt lat="49.32909" lon="3.31238">
        <ele>172.4</ele>
        <time>2025-10-20T13:22:55.000Z</time>
      </trkpt>
      <trkpt lat="49.3291" lon="3.31237">
        <ele>172.4</ele>
        <time>2025-10-20T13:22:56.000Z</time>
      </trkpt>
      <trkpt lat="49.32911" lon="3.31235">
        <ele>172.2</ele>
        <time>2025-10-20T13:22:57.000Z</time>
      </trkpt>
      <trkpt lat="49.32912" lon="3.31233">
        <ele>172</ele>
        <time>2025-10-20T13:22:58.000Z</time>
      </trkpt>
      <trkpt lat="49.32912" lon="3.3123">
        <ele>171.7</ele>
        <time>2025-10-20T13:22:59.000Z</time>
      </trkpt>
      <trkpt lat="49.32913" lon="3.31228">
        <ele>171.5</ele>
        <time>2025-10-20T13:23:00.000Z</time>
      </trkpt>
      <trkpt lat="49.32914" lon="3.31226">
        <ele>171.3</ele>
        <time>2025-10-20T13:23:01.000Z</time>
      </trkpt>
      <trkpt lat="49.32915" lon="3.31224">
        <ele>171.4</ele>
        <time>2025-10-20T13:23:02.000Z</time>
      </trkpt>
      <trkpt lat="49.32916" lon="3.31222">
        <ele>171.3</ele>
        <time>2025-10-20T13:23:03.000Z</time>
      </trkpt>
      <trkpt lat="49.32917" lon="3.3122">
        <ele>171.2</ele>
        <time>2025-10-20T13:23:04.000Z</time>
      </trkpt>
      <trkpt lat="49.32917" lon="3.31218">
        <ele>171.1</ele>
        <time>2025-10-20T13:23:05.000Z</time>
      </trkpt>
      <trkpt lat="49.32918" lon="3.31216">
        <ele>171</ele>
        <time>2025-10-20T13:23:06.000Z</time>
      </trkpt>
      <trkpt lat="49.32919" lon="3.31215">
        <ele>171</ele>
        <time>2025-10-20T13:23:07.000Z</time>
      </trkpt>
      <trkpt lat="49.3292" lon="3.31213">
        <ele>171.1</ele>
        <time>2025-10-20T13:23:08.000Z</time>
      </trkpt>
      <trkpt lat="49.32921" lon="3.31211">
        <ele>171.3</ele>
        <time>2025-10-20T13:23:09.000Z</time>
      </trkpt>
      <trkpt lat="49.32922" lon="3.31209">
        <ele>171.2</ele>
        <time>2025-10-20T13:23:10.000Z</time>
      </trkpt>
      <trkpt lat="49.32923" lon="3.31207">
        <ele>171.1</ele>
        <time>2025-10-20T13:23:11.000Z</time>
      </trkpt>
      <trkpt lat="49.32924" lon="3.31205">
        <ele>170.8</ele>
        <time>2025-10-20T13:23:12.000Z</time>
      </trkpt>
      <trkpt lat="49.32925" lon="3.31203">
        <ele>170.8</ele>
        <time>2025-10-20T13:23:13.000Z</time>
      </trkpt>
      <trkpt lat="49.32926" lon="3.31201">
        <ele>170.5</ele>
        <time>2025-10-20T13:23:14.000Z</time>
      </trkpt>
      <trkpt lat="49.32927" lon="3.31199">
        <ele>170.1</ele>
        <time>2025-10-20T13:23:15.000Z</time>
      </trkpt>
      <trkpt lat="49.32928" lon="3.31197">
        <ele>170.1</ele>
        <time>2025-10-20T13:23:16.000Z</time>
      </trkpt>
      <trkpt lat="49.32928" lon="3.31196">
        <ele>170</ele>
        <time>2025-10-20T13:23:17.000Z</time>
      </trkpt>
      <trkpt lat="49.32929" lon="3.31194">
        <ele>169.9</ele>
        <time>2025-10-20T13:23:18.000Z</time>
      </trkpt>
      <trkpt lat="49.3293" lon="3.31192">
        <ele>170</ele>
        <time>2025-10-20T13:23:19.000Z</time>
      </trkpt>
      <trkpt lat="49.32931" lon="3.3119">
        <ele>170.1</ele>
        <time>2025-10-20T13:23:20.000Z</time>
      </trkpt>
      <trkpt lat="49.32932" lon="3.31188">
        <ele>170</ele>
        <time>2025-10-20T13:23:21.000Z</time>
      </trkpt>
      <trkpt lat="49.32932" lon="3.31186">
        <ele>169.8</ele>
        <time>2025-10-20T13:23:22.000Z</time>
      </trkpt>
      <trkpt lat="49.32933" lon="3.31185">
        <ele>169.6</ele>
        <time>2025-10-20T13:23:23.000Z</time>
      </trkpt>
      <trkpt lat="49.32934" lon="3.31182">
        <ele>169.4</ele>
        <time>2025-10-20T13:23:24.000Z</time>
      </trkpt>
      <trkpt lat="49.32935" lon="3.31181">
        <ele>169.4</ele>
        <time>2025-10-20T13:23:25.000Z</time>
      </trkpt>
      <trkpt lat="49.32936" lon="3.31178">
        <ele>169.6</ele>
        <time>2025-10-20T13:23:26.000Z</time>
      </trkpt>
      <trkpt lat="49.32937" lon="3.31177">
        <ele>169.7</ele>
        <time>2025-10-20T13:23:27.000Z</time>
      </trkpt>
      <trkpt lat="49.32937" lon="3.31175">
        <ele>170</ele>
        <time>2025-10-20T13:23:28.000Z</time>
      </trkpt>
      <trkpt lat="49.32938" lon="3.31173">
        <ele>169.9</ele>
        <time>2025-10-20T13:23:29.000Z</time>
      </trkpt>
      <trkpt lat="49.32939" lon="3.31171">
        <ele>170</ele>
        <time>2025-10-20T13:23:30.000Z</time>
      </trkpt>
      <trkpt lat="49.32939" lon="3.31169">
        <ele>170</ele>
        <time>2025-10-20T13:23:31.000Z</time>
      </trkpt>
      <trkpt lat="49.3294" lon="3.31167">
        <ele>170.1</ele>
        <time>2025-10-20T13:23:32.000Z</time>
      </trkpt>
      <trkpt lat="49.32941" lon="3.31165">
        <ele>170.1</ele>
        <time>2025-10-20T13:23:33.000Z</time>
      </trkpt>
      <trkpt lat="49.32942" lon="3.31163">
        <ele>170</ele>
        <time>2025-10-20T13:23:34.000Z</time>
      </trkpt>
      <trkpt lat="49.32943" lon="3.31161">
        <ele>169.8</ele>
        <time>2025-10-20T13:23:35.000Z</time>
      </trkpt>
      <trkpt lat="49.32944" lon="3.3116">
        <ele>170</ele>
        <time>2025-10-20T13:23:36.000Z</time>
      </trkpt>
      <trkpt lat="49.32945" lon="3.31158">
        <ele>170.2</ele>
        <time>2025-10-20T13:23:37.000Z</time>
      </trkpt>
      <trkpt lat="49.32946" lon="3.31156">
        <ele>170.4</ele>
        <time>2025-10-20T13:23:38.000Z</time>
      </trkpt>
      <trkpt lat="49.32947" lon="3.31154">
        <ele>170.7</ele>
        <time>2025-10-20T13:23:39.000Z</time>
      </trkpt>
      <trkpt lat="49.32948" lon="3.31152">
        <ele>170.6</ele>
        <time>2025-10-20T13:23:40.000Z</time>
      </trkpt>
      <trkpt lat="49.32949" lon="3.3115">
        <ele>170.7</ele>
        <time>2025-10-20T13:23:41.000Z</time>
      </trkpt>
      <trkpt lat="49.3295" lon="3.31148">
        <ele>170.5</ele>
        <time>2025-10-20T13:23:42.000Z</time>
      </trkpt>
      <trkpt lat="49.32951" lon="3.31146">
        <ele>170.5</ele>
        <time>2025-10-20T13:23:43.000Z</time>
      </trkpt>
      <trkpt lat="49.32951" lon="3.31144">
        <ele>170.4</ele>
        <time>2025-10-20T13:23:44.000Z</time>
      </trkpt>
      <trkpt lat="49.32952" lon="3.31142">
        <ele>170.7</ele>
        <time>2025-10-20T13:23:45.000Z</time>
      </trkpt>
      <trkpt lat="49.32953" lon="3.3114">
        <ele>170.8</ele>
        <time>2025-10-20T13:23:46.000Z</time>
      </trkpt>
      <trkpt lat="49.32954" lon="3.31138">
        <ele>170.8</ele>
        <time>2025-10-20T13:23:47.000Z</time>
      </trkpt>
      <trkpt lat="49.32955" lon="3.31136">
        <ele>171</ele>
        <time>2025-10-20T13:23:48.000Z</time>
      </trkpt>
      <trkpt lat="49.32956" lon="3.31135">
        <ele>171.2</ele>
        <time>2025-10-20T13:23:49.000Z</time>
      </trkpt>
      <trkpt lat="49.32957" lon="3.31132">
        <ele>171.2</ele>
        <time>2025-10-20T13:23:50.000Z</time>
      </trkpt>
      <trkpt lat="49.32957" lon="3.3113">
        <ele>170.8</ele>
        <time>2025-10-20T13:23:51.000Z</time>
      </trkpt>
      <trkpt lat="49.32958" lon="3.31128">
        <ele>170.7</ele>
        <time>2025-10-20T13:23:52.000Z</time>
      </trkpt>
      <trkpt lat="49.32959" lon="3.31126">
        <ele>170.6</ele>
        <time>2025-10-20T13:23:53.000Z</time>
      </trkpt>
      <trkpt lat="49.3296" lon="3.31124">
        <ele>170.6</ele>
        <time>2025-10-20T13:23:54.000Z</time>
      </trkpt>
      <trkpt lat="49.32961" lon="3.31122">
        <ele>170.5</ele>
        <time>2025-10-20T13:23:55.000Z</time>
      </trkpt>
      <trkpt lat="49.32962" lon="3.31121">
        <ele>170.5</ele>
        <time>2025-10-20T13:23:56.000Z</time>
      </trkpt>
      <trkpt lat="49.32963" lon="3.31119">
        <ele>170.7</ele>
        <time>2025-10-20T13:23:57.000Z</time>
      </trkpt>
      <trkpt lat="49.32964" lon="3.31118">
        <ele>170.6</ele>
        <time>2025-10-20T13:23:58.000Z</time>
      </trkpt>
      <trkpt lat="49.32965" lon="3.31116">
        <ele>170.6</ele>
        <time>2025-10-20T13:23:59.000Z</time>
      </trkpt>
      <trkpt lat="49.32965" lon="3.31115">
        <ele>170.5</ele>
        <time>2025-10-20T13:24:00.000Z</time>
      </trkpt>
      <trkpt lat="49.32966" lon="3.31113">
        <ele>170.5</ele>
        <time>2025-10-20T13:24:01.000Z</time>
      </trkpt>
      <trkpt lat="49.32966" lon="3.31112">
        <ele>170.2</ele>
        <time>2025-10-20T13:24:02.000Z</time>
      </trkpt>
      <trkpt lat="49.32967" lon="3.3111">
        <ele>170.5</ele>
        <time>2025-10-20T13:24:03.000Z</time>
      </trkpt>
      <trkpt lat="49.32968" lon="3.31108">
        <ele>170.3</ele>
        <time>2025-10-20T13:24:04.000Z</time>
      </trkpt>
      <trkpt lat="49.32969" lon="3.31106">
        <ele>170.3</ele>
        <time>2025-10-20T13:24:05.000Z</time>
      </trkpt>
      <trkpt lat="49.3297" lon="3.31105">
        <ele>170.4</ele>
        <time>2025-10-20T13:24:06.000Z</time>
      </trkpt>
      <trkpt lat="49.32971" lon="3.31104">
        <ele>170.6</ele>
        <time>2025-10-20T13:24:07.000Z</time>
      </trkpt>
      <trkpt lat="49.32971" lon="3.31102">
        <ele>170.9</ele>
        <time>2025-10-20T13:24:08.000Z</time>
      </trkpt>
      <trkpt lat="49.32972" lon="3.31101">
        <ele>171</ele>
        <time>2025-10-20T13:24:09.000Z</time>
      </trkpt>
      <trkpt lat="49.32973" lon="3.31099">
        <ele>171.1</ele>
        <time>2025-10-20T13:24:10.000Z</time>
      </trkpt>
      <trkpt lat="49.32974" lon="3.31097">
        <ele>171.3</ele>
        <time>2025-10-20T13:24:11.000Z</time>
      </trkpt>
      <trkpt lat="49.32975" lon="3.31096">
        <ele>171.4</ele>
        <time>2025-10-20T13:24:12.000Z</time>
      </trkpt>
      <trkpt lat="49.32976" lon="3.31094">
        <ele>171.5</ele>
        <time>2025-10-20T13:24:13.000Z</time>
      </trkpt>
      <trkpt lat="49.32977" lon="3.31092">
        <ele>171.6</ele>
        <time>2025-10-20T13:24:14.000Z</time>
      </trkpt>
      <trkpt lat="49.32977" lon="3.3109">
        <ele>171.6</ele>
        <time>2025-10-20T13:24:15.000Z</time>
      </trkpt>
      <trkpt lat="49.32978" lon="3.31088">
        <ele>171.6</ele>
        <time>2025-10-20T13:24:16.000Z</time>
      </trkpt>
      <trkpt lat="49.32979" lon="3.31086">
        <ele>171.4</ele>
        <time>2025-10-20T13:24:17.000Z</time>
      </trkpt>
      <trkpt lat="49.3298" lon="3.31083">
        <ele>171.1</ele>
        <time>2025-10-20T13:24:18.000Z</time>
      </trkpt>
      <trkpt lat="49.32981" lon="3.31082">
        <ele>171.2</ele>
        <time>2025-10-20T13:24:19.000Z</time>
      </trkpt>
      <trkpt lat="49.32981" lon="3.3108">
        <ele>171.3</ele>
        <time>2025-10-20T13:24:20.000Z</time>
      </trkpt>
      <trkpt lat="49.32982" lon="3.31078">
        <ele>171.3</ele>
        <time>2025-10-20T13:24:21.000Z</time>
      </trkpt>
      <trkpt lat="49.32983" lon="3.31077">
        <ele>171.3</ele>
        <time>2025-10-20T13:24:22.000Z</time>
      </trkpt>
      <trkpt lat="49.32984" lon="3.31075">
        <ele>171.4</ele>
        <time>2025-10-20T13:24:23.000Z</time>
      </trkpt>
      <trkpt lat="49.32985" lon="3.31073">
        <ele>171.5</ele>
        <time>2025-10-20T13:24:24.000Z</time>
      </trkpt>
      <trkpt lat="49.32986" lon="3.31071">
        <ele>171.5</ele>
        <time>2025-10-20T13:24:25.000Z</time>
      </trkpt>
      <trkpt lat="49.32987" lon="3.31069">
        <ele>171.5</ele>
        <time>2025-10-20T13:24:26.000Z</time>
      </trkpt>
      <trkpt lat="49.32988" lon="3.31067">
        <ele>171.3</ele>
        <time>2025-10-20T13:24:27.000Z</time>
      </trkpt>
      <trkpt lat="49.32989" lon="3.31066">
        <ele>170.8</ele>
        <time>2025-10-20T13:24:28.000Z</time>
      </trkpt>
      <trkpt lat="49.3299" lon="3.31064">
        <ele>170.2</ele>
        <time>2025-10-20T13:24:29.000Z</time>
      </trkpt>
      <trkpt lat="49.32991" lon="3.31063">
        <ele>170.1</ele>
        <time>2025-10-20T13:24:30.000Z</time>
      </trkpt>
      <trkpt lat="49.32992" lon="3.31061">
        <ele>170.1</ele>
        <time>2025-10-20T13:24:31.000Z</time>
      </trkpt>
      <trkpt lat="49.32993" lon="3.31059">
        <ele>170.3</ele>
        <time>2025-10-20T13:24:32.000Z</time>
      </trkpt>
      <trkpt lat="49.32993" lon="3.31057">
        <ele>170.5</ele>
        <time>2025-10-20T13:24:33.000Z</time>
      </trkpt>
      <trkpt lat="49.32994" lon="3.31055">
        <ele>170.6</ele>
        <time>2025-10-20T13:24:34.000Z</time>
      </trkpt>
      <trkpt lat="49.32995" lon="3.31053">
        <ele>170.6</ele>
        <time>2025-10-20T13:24:35.000Z</time>
      </trkpt>
      <trkpt lat="49.32996" lon="3.31051">
        <ele>170.8</ele>
        <time>2025-10-20T13:24:36.000Z</time>
      </trkpt>
      <trkpt lat="49.32996" lon="3.31049">
        <ele>170.9</ele>
        <time>2025-10-20T13:24:37.000Z</time>
      </trkpt>
      <trkpt lat="49.32997" lon="3.31048">
        <ele>171.2</ele>
        <time>2025-10-20T13:24:38.000Z</time>
      </trkpt>
      <trkpt lat="49.32997" lon="3.31046">
        <ele>171.3</ele>
        <time>2025-10-20T13:24:39.000Z</time>
      </trkpt>
      <trkpt lat="49.32998" lon="3.31044">
        <ele>171.2</ele>
        <time>2025-10-20T13:24:40.000Z</time>
      </trkpt>
      <trkpt lat="49.32999" lon="3.31042">
        <ele>171</ele>
        <time>2025-10-20T13:24:41.000Z</time>
      </trkpt>
      <trkpt lat="49.33" lon="3.3104">
        <ele>170.5</ele>
        <time>2025-10-20T13:24:42.000Z</time>
      </trkpt>
      <trkpt lat="49.33001" lon="3.31037">
        <ele>169.8</ele>
        <time>2025-10-20T13:24:43.000Z</time>
      </trkpt>
      <trkpt lat="49.33002" lon="3.31035">
        <ele>169.5</ele>
        <time>2025-10-20T13:24:44.000Z</time>
      </trkpt>
      <trkpt lat="49.33002" lon="3.31033">
        <ele>169.6</ele>
        <time>2025-10-20T13:24:45.000Z</time>
      </trkpt>
      <trkpt lat="49.33003" lon="3.3103">
        <ele>169.4</ele>
        <time>2025-10-20T13:24:46.000Z</time>
      </trkpt>
      <trkpt lat="49.33003" lon="3.31028">
        <ele>169.2</ele>
        <time>2025-10-20T13:24:47.000Z</time>
      </trkpt>
      <trkpt lat="49.33004" lon="3.31026">
        <ele>169.1</ele>
        <time>2025-10-20T13:24:48.000Z</time>
      </trkpt>
      <trkpt lat="49.33004" lon="3.31025">
        <ele>169</ele>
        <time>2025-10-20T13:24:49.000Z</time>
      </trkpt>
      <trkpt lat="49.33005" lon="3.31023">
        <ele>168.9</ele>
        <time>2025-10-20T13:24:50.000Z</time>
      </trkpt>
      <trkpt lat="49.33006" lon="3.31021">
        <ele>168.9</ele>
        <time>2025-10-20T13:24:51.000Z</time>
      </trkpt>
      <trkpt lat="49.33006" lon="3.31018">
        <ele>168.9</ele>
        <time>2025-10-20T13:24:52.000Z</time>
      </trkpt>
      <trkpt lat="49.33007" lon="3.31016">
        <ele>168.7</ele>
        <time>2025-10-20T13:24:53.000Z</time>
      </trkpt>
      <trkpt lat="49.33007" lon="3.31013">
        <ele>168.6</ele>
        <time>2025-10-20T13:24:54.000Z</time>
      </trkpt>
      <trkpt lat="49.33008" lon="3.31011">
        <ele>168.7</ele>
        <time>2025-10-20T13:24:55.000Z</time>
      </trkpt>
      <trkpt lat="49.33008" lon="3.3101">
        <ele>168.9</ele>
        <time>2025-10-20T13:24:56.000Z</time>
      </trkpt>
      <trkpt lat="49.33008" lon="3.31008">
        <ele>169.2</ele>
        <time>2025-10-20T13:24:57.000Z</time>
      </trkpt>
      <trkpt lat="49.33009" lon="3.31007">
        <ele>169.2</ele>
        <time>2025-10-20T13:24:58.000Z</time>
      </trkpt>
      <trkpt lat="49.33009" lon="3.31005">
        <ele>169.5</ele>
        <time>2025-10-20T13:24:59.000Z</time>
      </trkpt>
      <trkpt lat="49.3301" lon="3.31003">
        <ele>169.7</ele>
        <time>2025-10-20T13:25:00.000Z</time>
      </trkpt>
      <trkpt lat="49.3301" lon="3.31001">
        <ele>169.9</ele>
        <time>2025-10-20T13:25:01.000Z</time>
      </trkpt>
      <trkpt lat="49.3301" lon="3.30999">
        <ele>170</ele>
        <time>2025-10-20T13:25:02.000Z</time>
      </trkpt>
      <trkpt lat="49.3301" lon="3.30997">
        <ele>170.2</ele>
        <time>2025-10-20T13:25:03.000Z</time>
      </trkpt>
      <trkpt lat="49.33011" lon="3.30995">
        <ele>170.4</ele>
        <time>2025-10-20T13:25:04.000Z</time>
      </trkpt>
      <trkpt lat="49.33011" lon="3.30993">
        <ele>170.3</ele>
        <time>2025-10-20T13:25:05.000Z</time>
      </trkpt>
      <trkpt lat="49.33012" lon="3.3099">
        <ele>169.9</ele>
        <time>2025-10-20T13:25:06.000Z</time>
      </trkpt>
      <trkpt lat="49.33012" lon="3.30987">
        <ele>169.5</ele>
        <time>2025-10-20T13:25:07.000Z</time>
      </trkpt>
      <trkpt lat="49.33013" lon="3.30985">
        <ele>168.9</ele>
        <time>2025-10-20T13:25:08.000Z</time>
      </trkpt>
      <trkpt lat="49.33013" lon="3.30982">
        <ele>168.1</ele>
        <time>2025-10-20T13:25:09.000Z</time>
      </trkpt>
      <trkpt lat="49.33013" lon="3.3098">
        <ele>167.6</ele>
        <time>2025-10-20T13:25:10.000Z</time>
      </trkpt>
      <trkpt lat="49.33014" lon="3.30978">
        <ele>167.3</ele>
        <time>2025-10-20T13:25:11.000Z</time>
      </trkpt>
      <trkpt lat="49.33014" lon="3.30976">
        <ele>167.1</ele>
        <time>2025-10-20T13:25:12.000Z</time>
      </trkpt>
      <trkpt lat="49.33014" lon="3.30973">
        <ele>166.7</ele>
        <time>2025-10-20T13:25:13.000Z</time>
      </trkpt>
      <trkpt lat="49.33014" lon="3.30972">
        <ele>166.4</ele>
        <time>2025-10-20T13:25:14.000Z</time>
      </trkpt>
      <trkpt lat="49.33014" lon="3.30969">
        <ele>166.3</ele>
        <time>2025-10-20T13:25:15.000Z</time>
      </trkpt>
      <trkpt lat="49.33015" lon="3.30967">
        <ele>166.1</ele>
        <time>2025-10-20T13:25:16.000Z</time>
      </trkpt>
      <trkpt lat="49.33015" lon="3.30965">
        <ele>165.7</ele>
        <time>2025-10-20T13:25:17.000Z</time>
      </trkpt>
      <trkpt lat="49.33016" lon="3.30963">
        <ele>165.2</ele>
        <time>2025-10-20T13:25:18.000Z</time>
      </trkpt>
      <trkpt lat="49.33016" lon="3.30961">
        <ele>165.1</ele>
        <time>2025-10-20T13:25:19.000Z</time>
      </trkpt>
      <trkpt lat="49.33017" lon="3.30958">
        <ele>164.8</ele>
        <time>2025-10-20T13:25:20.000Z</time>
      </trkpt>
      <trkpt lat="49.33018" lon="3.30955">
        <ele>164.7</ele>
        <time>2025-10-20T13:25:21.000Z</time>
      </trkpt>
      <trkpt lat="49.33019" lon="3.30953">
        <ele>164.9</ele>
        <time>2025-10-20T13:25:22.000Z</time>
      </trkpt>
      <trkpt lat="49.3302" lon="3.30951">
        <ele>164.9</ele>
        <time>2025-10-20T13:25:23.000Z</time>
      </trkpt>
      <trkpt lat="49.33021" lon="3.30949">
        <ele>164.9</ele>
        <time>2025-10-20T13:25:24.000Z</time>
      </trkpt>
      <trkpt lat="49.33022" lon="3.30948">
        <ele>165.2</ele>
        <time>2025-10-20T13:25:25.000Z</time>
      </trkpt>
      <trkpt lat="49.33023" lon="3.30947">
        <ele>165.6</ele>
        <time>2025-10-20T13:25:26.000Z</time>
      </trkpt>
      <trkpt lat="49.33024" lon="3.30945">
        <ele>165.3</ele>
        <time>2025-10-20T13:25:27.000Z</time>
      </trkpt>
      <trkpt lat="49.33025" lon="3.30943">
        <ele>165.2</ele>
        <time>2025-10-20T13:25:28.000Z</time>
      </trkpt>
      <trkpt lat="49.33026" lon="3.30942">
        <ele>165.2</ele>
        <time>2025-10-20T13:25:29.000Z</time>
      </trkpt>
      <trkpt lat="49.33027" lon="3.3094">
        <ele>165.1</ele>
        <time>2025-10-20T13:25:30.000Z</time>
      </trkpt>
      <trkpt lat="49.33028" lon="3.30938">
        <ele>165</ele>
        <time>2025-10-20T13:25:31.000Z</time>
      </trkpt>
      <trkpt lat="49.33029" lon="3.30937">
        <ele>165.2</ele>
        <time>2025-10-20T13:25:32.000Z</time>
      </trkpt>
      <trkpt lat="49.3303" lon="3.30935">
        <ele>165.2</ele>
        <time>2025-10-20T13:25:33.000Z</time>
      </trkpt>
      <trkpt lat="49.33032" lon="3.30934">
        <ele>165.3</ele>
        <time>2025-10-20T13:25:34.000Z</time>
      </trkpt>
      <trkpt lat="49.33033" lon="3.30932">
        <ele>165.4</ele>
        <time>2025-10-20T13:25:35.000Z</time>
      </trkpt>
      <trkpt lat="49.33034" lon="3.30931">
        <ele>165.6</ele>
        <time>2025-10-20T13:25:36.000Z</time>
      </trkpt>
      <trkpt lat="49.33035" lon="3.30929">
        <ele>165.6</ele>
        <time>2025-10-20T13:25:37.000Z</time>
      </trkpt>
      <trkpt lat="49.33037" lon="3.30928">
        <ele>165.8</ele>
        <time>2025-10-20T13:25:38.000Z</time>
      </trkpt>
      <trkpt lat="49.33038" lon="3.30927">
        <ele>166</ele>
        <time>2025-10-20T13:25:39.000Z</time>
      </trkpt>
      <trkpt lat="49.3304" lon="3.30926">
        <ele>165.9</ele>
        <time>2025-10-20T13:25:40.000Z</time>
      </trkpt>
      <trkpt lat="49.33041" lon="3.30926">
        <ele>165.9</ele>
        <time>2025-10-20T13:25:41.000Z</time>
      </trkpt>
      <trkpt lat="49.33043" lon="3.30924">
        <ele>166</ele>
        <time>2025-10-20T13:25:42.000Z</time>
      </trkpt>
      <trkpt lat="49.33044" lon="3.30924">
        <ele>166.2</ele>
        <time>2025-10-20T13:25:43.000Z</time>
      </trkpt>
      <trkpt lat="49.33045" lon="3.30923">
        <ele>166.3</ele>
        <time>2025-10-20T13:25:44.000Z</time>
      </trkpt>
      <trkpt lat="49.33046" lon="3.30922">
        <ele>166</ele>
        <time>2025-10-20T13:25:45.000Z</time>
      </trkpt>
      <trkpt lat="49.33048" lon="3.30921">
        <ele>165.9</ele>
        <time>2025-10-20T13:25:46.000Z</time>
      </trkpt>
      <trkpt lat="49.33049" lon="3.30921">
        <ele>165.7</ele>
        <time>2025-10-20T13:25:47.000Z</time>
      </trkpt>
      <trkpt lat="49.33051" lon="3.3092">
        <ele>165.5</ele>
        <time>2025-10-20T13:25:48.000Z</time>
      </trkpt>
      <trkpt lat="49.33052" lon="3.30919">
        <ele>165.4</ele>
        <time>2025-10-20T13:25:49.000Z</time>
      </trkpt>
      <trkpt lat="49.33053" lon="3.30918">
        <ele>165.1</ele>
        <time>2025-10-20T13:25:50.000Z</time>
      </trkpt>
      <trkpt lat="49.33054" lon="3.30918">
        <ele>165</ele>
        <time>2025-10-20T13:25:51.000Z</time>
      </trkpt>
      <trkpt lat="49.33056" lon="3.30918">
        <ele>165.1</ele>
        <time>2025-10-20T13:25:52.000Z</time>
      </trkpt>
      <trkpt lat="49.33057" lon="3.30917">
        <ele>165.3</ele>
        <time>2025-10-20T13:25:53.000Z</time>
      </trkpt>
      <trkpt lat="49.33059" lon="3.30916">
        <ele>165.2</ele>
        <time>2025-10-20T13:25:54.000Z</time>
      </trkpt>
      <trkpt lat="49.33061" lon="3.30916">
        <ele>165.4</ele>
        <time>2025-10-20T13:25:55.000Z</time>
      </trkpt>
      <trkpt lat="49.33062" lon="3.30915">
        <ele>165.5</ele>
        <time>2025-10-20T13:25:56.000Z</time>
      </trkpt>
      <trkpt lat="49.33063" lon="3.30915">
        <ele>165.5</ele>
        <time>2025-10-20T13:25:57.000Z</time>
      </trkpt>
      <trkpt lat="49.33065" lon="3.30914">
        <ele>165.4</ele>
        <time>2025-10-20T13:25:58.000Z</time>
      </trkpt>
      <trkpt lat="49.33066" lon="3.30914">
        <ele>165.4</ele>
        <time>2025-10-20T13:25:59.000Z</time>
      </trkpt>
      <trkpt lat="49.33068" lon="3.30913">
        <ele>165.2</ele>
        <time>2025-10-20T13:26:00.000Z</time>
      </trkpt>
      <trkpt lat="49.33069" lon="3.30913">
        <ele>165</ele>
        <time>2025-10-20T13:26:01.000Z</time>
      </trkpt>
      <trkpt lat="49.3307" lon="3.30913">
        <ele>165.1</ele>
        <time>2025-10-20T13:26:02.000Z</time>
      </trkpt>
      <trkpt lat="49.33071" lon="3.30913">
        <ele>165.3</ele>
        <time>2025-10-20T13:26:03.000Z</time>
      </trkpt>
      <trkpt lat="49.33072" lon="3.30913">
        <ele>165.4</ele>
        <time>2025-10-20T13:26:04.000Z</time>
      </trkpt>
      <trkpt lat="49.33074" lon="3.30912">
        <ele>165.6</ele>
        <time>2025-10-20T13:26:05.000Z</time>
      </trkpt>
      <trkpt lat="49.33076" lon="3.30912">
        <ele>165.4</ele>
        <time>2025-10-20T13:26:06.000Z</time>
      </trkpt>
      <trkpt lat="49.33077" lon="3.30912">
        <ele>165.5</ele>
        <time>2025-10-20T13:26:07.000Z</time>
      </trkpt>
      <trkpt lat="49.33079" lon="3.30911">
        <ele>165.5</ele>
        <time>2025-10-20T13:26:08.000Z</time>
      </trkpt>
      <trkpt lat="49.33081" lon="3.30911">
        <ele>165.5</ele>
        <time>2025-10-20T13:26:09.000Z</time>
      </trkpt>
      <trkpt lat="49.33083" lon="3.30911">
        <ele>165.2</ele>
        <time>2025-10-20T13:26:10.000Z</time>
      </trkpt>
      <trkpt lat="49.33085" lon="3.30911">
        <ele>164.9</ele>
        <time>2025-10-20T13:26:11.000Z</time>
      </trkpt>
      <trkpt lat="49.33086" lon="3.30911">
        <ele>165.1</ele>
        <time>2025-10-20T13:26:12.000Z</time>
      </trkpt>
      <trkpt lat="49.33088" lon="3.30911">
        <ele>165.2</ele>
        <time>2025-10-20T13:26:13.000Z</time>
      </trkpt>
      <trkpt lat="49.33089" lon="3.30911">
        <ele>165.5</ele>
        <time>2025-10-20T13:26:14.000Z</time>
      </trkpt>
      <trkpt lat="49.33091" lon="3.30911">
        <ele>165.8</ele>
        <time>2025-10-20T13:26:15.000Z</time>
      </trkpt>
      <trkpt lat="49.33092" lon="3.30911">
        <ele>165.8</ele>
        <time>2025-10-20T13:26:16.000Z</time>
      </trkpt>
      <trkpt lat="49.33093" lon="3.30911">
        <ele>165.9</ele>
        <time>2025-10-20T13:26:17.000Z</time>
      </trkpt>
      <trkpt lat="49.33095" lon="3.30911">
        <ele>166.2</ele>
        <time>2025-10-20T13:26:18.000Z</time>
      </trkpt>
      <trkpt lat="49.33096" lon="3.30911">
        <ele>166.4</ele>
        <time>2025-10-20T13:26:19.000Z</time>
      </trkpt>
      <trkpt lat="49.33098" lon="3.30912">
        <ele>166.7</ele>
        <time>2025-10-20T13:26:20.000Z</time>
      </trkpt>
      <trkpt lat="49.33099" lon="3.30912">
        <ele>166.9</ele>
        <time>2025-10-20T13:26:21.000Z</time>
      </trkpt>
      <trkpt lat="49.33101" lon="3.30912">
        <ele>167.1</ele>
        <time>2025-10-20T13:26:22.000Z</time>
      </trkpt>
      <trkpt lat="49.33102" lon="3.30912">
        <ele>167.1</ele>
        <time>2025-10-20T13:26:23.000Z</time>
      </trkpt>
      <trkpt lat="49.33104" lon="3.30912">
        <ele>167.1</ele>
        <time>2025-10-20T13:26:24.000Z</time>
      </trkpt>
      <trkpt lat="49.33105" lon="3.30912">
        <ele>167.4</ele>
        <time>2025-10-20T13:26:25.000Z</time>
      </trkpt>
      <trkpt lat="49.33106" lon="3.30912">
        <ele>167.6</ele>
        <time>2025-10-20T13:26:26.000Z</time>
      </trkpt>
      <trkpt lat="49.33107" lon="3.30913">
        <ele>167.6</ele>
        <time>2025-10-20T13:26:27.000Z</time>
      </trkpt>
      <trkpt lat="49.33109" lon="3.30913">
        <ele>167.6</ele>
        <time>2025-10-20T13:26:28.000Z</time>
      </trkpt>
      <trkpt lat="49.33109" lon="3.30913">
        <ele>167.4</ele>
        <time>2025-10-20T13:26:29.000Z</time>
      </trkpt>
      <trkpt lat="49.3311" lon="3.30914">
        <ele>167.4</ele>
        <time>2025-10-20T13:26:30.000Z</time>
      </trkpt>
      <trkpt lat="49.33112" lon="3.30914">
        <ele>167.7</ele>
        <time>2025-10-20T13:26:31.000Z</time>
      </trkpt>
      <trkpt lat="49.33113" lon="3.30915">
        <ele>168.4</ele>
        <time>2025-10-20T13:26:32.000Z</time>
      </trkpt>
      <trkpt lat="49.33114" lon="3.30915">
        <ele>169.3</ele>
        <time>2025-10-20T13:26:33.000Z</time>
      </trkpt>
      <trkpt lat="49.33115" lon="3.30916">
        <ele>170</ele>
        <time>2025-10-20T13:26:34.000Z</time>
      </trkpt>
      <trkpt lat="49.33116" lon="3.30916">
        <ele>170.3</ele>
        <time>2025-10-20T13:26:35.000Z</time>
      </trkpt>
      <trkpt lat="49.33117" lon="3.30917">
        <ele>170.8</ele>
        <time>2025-10-20T13:26:36.000Z</time>
      </trkpt>
      <trkpt lat="49.33118" lon="3.30917">
        <ele>171.2</ele>
        <time>2025-10-20T13:26:37.000Z</time>
      </trkpt>
      <trkpt lat="49.3312" lon="3.30919">
        <ele>171.4</ele>
        <time>2025-10-20T13:26:38.000Z</time>
      </trkpt>
      <trkpt lat="49.33121" lon="3.3092">
        <ele>171.7</ele>
        <time>2025-10-20T13:26:39.000Z</time>
      </trkpt>
      <trkpt lat="49.33122" lon="3.30921">
        <ele>172.6</ele>
        <time>2025-10-20T13:26:40.000Z</time>
      </trkpt>
      <trkpt lat="49.33122" lon="3.30922">
        <ele>173.4</ele>
        <time>2025-10-20T13:26:41.000Z</time>
      </trkpt>
      <trkpt lat="49.33122" lon="3.30922">
        <ele>174.3</ele>
        <time>2025-10-20T13:26:42.000Z</time>
      </trkpt>
      <trkpt lat="49.33123" lon="3.30923">
        <ele>175.2</ele>
        <time>2025-10-20T13:26:43.000Z</time>
      </trkpt>
      <trkpt lat="49.33124" lon="3.30924">
        <ele>176.1</ele>
        <time>2025-10-20T13:26:44.000Z</time>
      </trkpt>
      <trkpt lat="49.33125" lon="3.30924">
        <ele>176.9</ele>
        <time>2025-10-20T13:26:45.000Z</time>
      </trkpt>
      <trkpt lat="49.33126" lon="3.30925">
        <ele>177.7</ele>
        <time>2025-10-20T13:26:46.000Z</time>
      </trkpt>
      <trkpt lat="49.33127" lon="3.30926">
        <ele>178.1</ele>
        <time>2025-10-20T13:26:47.000Z</time>
      </trkpt>
      <trkpt lat="49.33129" lon="3.30927">
        <ele>178.4</ele>
        <time>2025-10-20T13:26:48.000Z</time>
      </trkpt>
      <trkpt lat="49.3313" lon="3.30927">
        <ele>178.7</ele>
        <time>2025-10-20T13:26:49.000Z</time>
      </trkpt>
      <trkpt lat="49.3313" lon="3.30928">
        <ele>179</ele>
        <time>2025-10-20T13:26:50.000Z</time>
      </trkpt>
      <trkpt lat="49.33131" lon="3.30929">
        <ele>179.2</ele>
        <time>2025-10-20T13:26:51.000Z</time>
      </trkpt>
      <trkpt lat="49.33132" lon="3.3093">
        <ele>178.8</ele>
        <time>2025-10-20T13:26:52.000Z</time>
      </trkpt>
      <trkpt lat="49.33134" lon="3.30931">
        <ele>178.5</ele>
        <time>2025-10-20T13:26:53.000Z</time>
      </trkpt>
      <trkpt lat="49.33135" lon="3.30933">
        <ele>178.4</ele>
        <time>2025-10-20T13:26:54.000Z</time>
      </trkpt>
      <trkpt lat="49.33137" lon="3.30935">
        <ele>178</ele>
        <time>2025-10-20T13:26:55.000Z</time>
      </trkpt>
      <trkpt lat="49.33138" lon="3.30936">
        <ele>177.5</ele>
        <time>2025-10-20T13:26:56.000Z</time>
      </trkpt>
      <trkpt lat="49.33139" lon="3.30937">
        <ele>177.3</ele>
        <time>2025-10-20T13:26:57.000Z</time>
      </trkpt>
      <trkpt lat="49.33141" lon="3.30939">
        <ele>176.8</ele>
        <time>2025-10-20T13:26:58.000Z</time>
      </trkpt>
      <trkpt lat="49.33142" lon="3.3094">
        <ele>176.8</ele>
        <time>2025-10-20T13:26:59.000Z</time>
      </trkpt>
      <trkpt lat="49.33143" lon="3.30942">
        <ele>176.8</ele>
        <time>2025-10-20T13:27:00.000Z</time>
      </trkpt>
      <trkpt lat="49.33144" lon="3.30943">
        <ele>176.9</ele>
        <time>2025-10-20T13:27:01.000Z</time>
      </trkpt>
      <trkpt lat="49.33145" lon="3.30945">
        <ele>177.2</ele>
        <time>2025-10-20T13:27:02.000Z</time>
      </trkpt>
      <trkpt lat="49.33146" lon="3.30946">
        <ele>177.3</ele>
        <time>2025-10-20T13:27:03.000Z</time>
      </trkpt>
      <trkpt lat="49.33148" lon="3.30947">
        <ele>177.4</ele>
        <time>2025-10-20T13:27:04.000Z</time>
      </trkpt>
      <trkpt lat="49.33149" lon="3.30948">
        <ele>177.1</ele>
        <time>2025-10-20T13:27:05.000Z</time>
      </trkpt>
      <trkpt lat="49.33151" lon="3.3095">
        <ele>176.9</ele>
        <time>2025-10-20T13:27:06.000Z</time>
      </trkpt>
      <trkpt lat="49.33152" lon="3.30952">
        <ele>176.7</ele>
        <time>2025-10-20T13:27:07.000Z</time>
      </trkpt>
      <trkpt lat="49.33153" lon="3.30953">
        <ele>176.2</ele>
        <time>2025-10-20T13:27:08.000Z</time>
      </trkpt>
      <trkpt lat="49.33155" lon="3.30955">
        <ele>175.6</ele>
        <time>2025-10-20T13:27:09.000Z</time>
      </trkpt>
      <trkpt lat="49.33156" lon="3.30956">
        <ele>175.2</ele>
        <time>2025-10-20T13:27:10.000Z</time>
      </trkpt>
      <trkpt lat="49.33157" lon="3.30958">
        <ele>174.9</ele>
        <time>2025-10-20T13:27:11.000Z</time>
      </trkpt>
      <trkpt lat="49.33158" lon="3.30959">
        <ele>174.7</ele>
        <time>2025-10-20T13:27:12.000Z</time>
      </trkpt>
      <trkpt lat="49.33159" lon="3.3096">
        <ele>174.8</ele>
        <time>2025-10-20T13:27:13.000Z</time>
      </trkpt>
      <trkpt lat="49.3316" lon="3.30962">
        <ele>174.9</ele>
        <time>2025-10-20T13:27:14.000Z</time>
      </trkpt>
      <trkpt lat="49.33161" lon="3.30963">
        <ele>175</ele>
        <time>2025-10-20T13:27:15.000Z</time>
      </trkpt>
      <trkpt lat="49.33162" lon="3.30964">
        <ele>175.1</ele>
        <time>2025-10-20T13:27:16.000Z</time>
      </trkpt>
      <trkpt lat="49.33163" lon="3.30965">
        <ele>175.4</ele>
        <time>2025-10-20T13:27:17.000Z</time>
      </trkpt>
      <trkpt lat="49.33164" lon="3.30967">
        <ele>175.8</ele>
        <time>2025-10-20T13:27:18.000Z</time>
      </trkpt>
      <trkpt lat="49.33165" lon="3.30967">
        <ele>176.3</ele>
        <time>2025-10-20T13:27:19.000Z</time>
      </trkpt>
      <trkpt lat="49.33167" lon="3.30969">
        <ele>176.4</ele>
        <time>2025-10-20T13:27:20.000Z</time>
      </trkpt>
      <trkpt lat="49.33168" lon="3.3097">
        <ele>176.2</ele>
        <time>2025-10-20T13:27:21.000Z</time>
      </trkpt>
      <trkpt lat="49.3317" lon="3.30971">
        <ele>176.2</ele>
        <time>2025-10-20T13:27:22.000Z</time>
      </trkpt>
      <trkpt lat="49.33171" lon="3.30973">
        <ele>176.1</ele>
        <time>2025-10-20T13:27:23.000Z</time>
      </trkpt>
      <trkpt lat="49.33172" lon="3.30974">
        <ele>175.9</ele>
        <time>2025-10-20T13:27:24.000Z</time>
      </trkpt>
      <trkpt lat="49.33173" lon="3.30975">
        <ele>175.7</ele>
        <time>2025-10-20T13:27:25.000Z</time>
      </trkpt>
      <trkpt lat="49.33175" lon="3.30976">
        <ele>175.9</ele>
        <time>2025-10-20T13:27:26.000Z</time>
      </trkpt>
      <trkpt lat="49.33176" lon="3.30978">
        <ele>175.5</ele>
        <time>2025-10-20T13:27:27.000Z</time>
      </trkpt>
      <trkpt lat="49.33178" lon="3.3098">
        <ele>175.2</ele>
        <time>2025-10-20T13:27:28.000Z</time>
      </trkpt>
      <trkpt lat="49.33179" lon="3.30981">
        <ele>175.1</ele>
        <time>2025-10-20T13:27:29.000Z</time>
      </trkpt>
      <trkpt lat="49.3318" lon="3.30982">
        <ele>175.1</ele>
        <time>2025-10-20T13:27:30.000Z</time>
      </trkpt>
      <trkpt lat="49.33182" lon="3.30983">
        <ele>175.1</ele>
        <time>2025-10-20T13:27:31.000Z</time>
      </trkpt>
      <trkpt lat="49.33183" lon="3.30985">
        <ele>175</ele>
        <time>2025-10-20T13:27:32.000Z</time>
      </trkpt>
      <trkpt lat="49.33185" lon="3.30985">
        <ele>174.6</ele>
        <time>2025-10-20T13:27:33.000Z</time>
      </trkpt>
      <trkpt lat="49.33186" lon="3.30986">
        <ele>174.5</ele>
        <time>2025-10-20T13:27:34.000Z</time>
      </trkpt>
      <trkpt lat="49.33187" lon="3.30987">
        <ele>174.1</ele>
        <time>2025-10-20T13:27:35.000Z</time>
      </trkpt>
      <trkpt lat="49.33188" lon="3.30988">
        <ele>174.2</ele>
        <time>2025-10-20T13:27:36.000Z</time>
      </trkpt>
      <trkpt lat="49.3319" lon="3.30989">
        <ele>174.2</ele>
        <time>2025-10-20T13:27:37.000Z</time>
      </trkpt>
      <trkpt lat="49.3319" lon="3.3099">
        <ele>174.5</ele>
        <time>2025-10-20T13:27:38.000Z</time>
      </trkpt>
      <trkpt lat="49.33191" lon="3.30991">
        <ele>174.9</ele>
        <time>2025-10-20T13:27:39.000Z</time>
      </trkpt>
      <trkpt lat="49.33192" lon="3.30991">
        <ele>175.6</ele>
        <time>2025-10-20T13:27:40.000Z</time>
      </trkpt>
      <trkpt lat="49.33194" lon="3.30991">
        <ele>176.4</ele>
        <time>2025-10-20T13:27:41.000Z</time>
      </trkpt>
      <trkpt lat="49.33195" lon="3.30991">
        <ele>177.3</ele>
        <time>2025-10-20T13:27:42.000Z</time>
      </trkpt>
      <trkpt lat="49.33196" lon="3.30991">
        <ele>178.4</ele>
        <time>2025-10-20T13:27:43.000Z</time>
      </trkpt>
      <trkpt lat="49.33197" lon="3.30992">
        <ele>179.9</ele>
        <time>2025-10-20T13:27:44.000Z</time>
      </trkpt>
      <trkpt lat="49.33197" lon="3.30992">
        <ele>181.3</ele>
        <time>2025-10-20T13:27:45.000Z</time>
      </trkpt>
      <trkpt lat="49.33198" lon="3.30993">
        <ele>182.3</ele>
        <time>2025-10-20T13:27:46.000Z</time>
      </trkpt>
      <trkpt lat="49.33199" lon="3.30994">
        <ele>183.5</ele>
        <time>2025-10-20T13:27:47.000Z</time>
      </trkpt>
      <trkpt lat="49.33199" lon="3.30995">
        <ele>184.5</ele>
        <time>2025-10-20T13:27:48.000Z</time>
      </trkpt>
      <trkpt lat="49.332" lon="3.30995">
        <ele>185.1</ele>
        <time>2025-10-20T13:27:49.000Z</time>
      </trkpt>
      <trkpt lat="49.33201" lon="3.30995">
        <ele>185.7</ele>
        <time>2025-10-20T13:27:50.000Z</time>
      </trkpt>
      <trkpt lat="49.33201" lon="3.30995">
        <ele>185.9</ele>
        <time>2025-10-20T13:27:51.000Z</time>
      </trkpt>
      <trkpt lat="49.33202" lon="3.30994">
        <ele>186.1</ele>
        <time>2025-10-20T13:27:52.000Z</time>
      </trkpt>
      <trkpt lat="49.33202" lon="3.30994">
        <ele>186.1</ele>
        <time>2025-10-20T13:27:53.000Z</time>
      </trkpt>
      <trkpt lat="49.33203" lon="3.30994">
        <ele>186.3</ele>
        <time>2025-10-20T13:27:54.000Z</time>
      </trkpt>
      <trkpt lat="49.33204" lon="3.30995">
        <ele>186.6</ele>
        <time>2025-10-20T13:27:55.000Z</time>
      </trkpt>
      <trkpt lat="49.33205" lon="3.30995">
        <ele>186.9</ele>
        <time>2025-10-20T13:27:56.000Z</time>
      </trkpt>
      <trkpt lat="49.33206" lon="3.30996">
        <ele>187.4</ele>
        <time>2025-10-20T13:27:57.000Z</time>
      </trkpt>
      <trkpt lat="49.33207" lon="3.30996">
        <ele>187.7</ele>
        <time>2025-10-20T13:27:58.000Z</time>
      </trkpt>
      <trkpt lat="49.33208" lon="3.30997">
        <ele>187.5</ele>
        <time>2025-10-20T13:27:59.000Z</time>
      </trkpt>
      <trkpt lat="49.33209" lon="3.30998">
        <ele>187.5</ele>
        <time>2025-10-20T13:28:00.000Z</time>
      </trkpt>
      <trkpt lat="49.33211" lon="3.30999">
        <ele>187.5</ele>
        <time>2025-10-20T13:28:01.000Z</time>
      </trkpt>
      <trkpt lat="49.33212" lon="3.31">
        <ele>187.2</ele>
        <time>2025-10-20T13:28:02.000Z</time>
      </trkpt>
      <trkpt lat="49.33213" lon="3.31001">
        <ele>187.2</ele>
        <time>2025-10-20T13:28:03.000Z</time>
      </trkpt>
      <trkpt lat="49.33214" lon="3.31002">
        <ele>186.9</ele>
        <time>2025-10-20T13:28:04.000Z</time>
      </trkpt>
      <trkpt lat="49.33215" lon="3.31003">
        <ele>186.4</ele>
        <time>2025-10-20T13:28:05.000Z</time>
      </trkpt>
      <trkpt lat="49.33217" lon="3.31004">
        <ele>185.6</ele>
        <time>2025-10-20T13:28:06.000Z</time>
      </trkpt>
      <trkpt lat="49.33217" lon="3.31006">
        <ele>184.9</ele>
        <time>2025-10-20T13:28:07.000Z</time>
      </trkpt>
      <trkpt lat="49.33218" lon="3.31008">
        <ele>184.5</ele>
        <time>2025-10-20T13:28:08.000Z</time>
      </trkpt>
      <trkpt lat="49.33218" lon="3.31009">
        <ele>183.8</ele>
        <time>2025-10-20T13:28:09.000Z</time>
      </trkpt>
      <trkpt lat="49.33219" lon="3.3101">
        <ele>183.1</ele>
        <time>2025-10-20T13:28:10.000Z</time>
      </trkpt>
      <trkpt lat="49.33219" lon="3.31011">
        <ele>182</ele>
        <time>2025-10-20T13:28:11.000Z</time>
      </trkpt>
      <trkpt lat="49.33219" lon="3.31013">
        <ele>181</ele>
        <time>2025-10-20T13:28:12.000Z</time>
      </trkpt>
      <trkpt lat="49.33219" lon="3.31014">
        <ele>180.2</ele>
        <time>2025-10-20T13:28:13.000Z</time>
      </trkpt>
      <trkpt lat="49.33219" lon="3.31014">
        <ele>179.6</ele>
        <time>2025-10-20T13:28:14.000Z</time>
      </trkpt>
      <trkpt lat="49.33218" lon="3.31015">
        <ele>178.8</ele>
        <time>2025-10-20T13:28:15.000Z</time>
      </trkpt>
      <trkpt lat="49.33218" lon="3.31015">
        <ele>178.3</ele>
        <time>2025-10-20T13:28:16.000Z</time>
      </trkpt>
      <trkpt lat="49.33218" lon="3.31016">
        <ele>177.5</ele>
        <time>2025-10-20T13:28:17.000Z</time>
      </trkpt>
      <trkpt lat="49.33218" lon="3.31016">
        <ele>176.9</ele>
        <time>2025-10-20T13:28:18.000Z</time>
      </trkpt>
      <trkpt lat="49.33218" lon="3.31017">
        <ele>176.4</ele>
        <time>2025-10-20T13:28:19.000Z</time>
      </trkpt>
      <trkpt lat="49.33218" lon="3.31017">
        <ele>176.4</ele>
        <time>2025-10-20T13:28:20.000Z</time>
      </trkpt>
      <trkpt lat="49.33218" lon="3.31017">
        <ele>176.4</ele>
        <time>2025-10-20T13:28:21.000Z</time>
      </trkpt>
      <trkpt lat="49.33218" lon="3.31017">
        <ele>176.4</ele>
        <time>2025-10-20T13:28:22.000Z</time>
      </trkpt>
      <trkpt lat="49.33218" lon="3.31017">
        <ele>176.4</ele>
        <time>2025-10-20T13:28:23.000Z</time>
      </trkpt>
      <trkpt lat="49.33218" lon="3.31017">
        <ele>176.4</ele>
        <time>2025-10-20T13:28:24.000Z</time>
      </trkpt>
      <trkpt lat="49.33218" lon="3.31017">
        <ele>176.4</ele>
        <time>2025-10-20T13:28:25.000Z</time>
      </trkpt>
      <trkpt lat="49.33218" lon="3.31017">
        <ele>176.4</ele>
        <time>2025-10-20T13:28:26.000Z</time>
      </trkpt>
      <trkpt lat="49.33218" lon="3.31017">
        <ele>176.4</ele>
        <time>2025-10-20T13:28:27.000Z</time>
      </trkpt>
      <trkpt lat="49.33218" lon="3.31017">
        <ele>176.4</ele>
        <time>2025-10-20T13:28:28.000Z</time>
      </trkpt>
      <trkpt lat="49.33218" lon="3.31017">
        <ele>176.4</ele>
        <time>2025-10-20T13:28:29.000Z</time>
      </trkpt>
      <trkpt lat="49.33218" lon="3.31017">
        <ele>176.4</ele>
        <time>2025-10-20T13:28:30.000Z</time>
      </trkpt>
      <trkpt lat="49.33218" lon="3.31017">
        <ele>176.4</ele>
        <time>2025-10-20T13:28:31.000Z</time>
      </trkpt>
      <trkpt lat="49.33218" lon="3.31017">
        <ele>176.4</ele>
        <time>2025-10-20T13:28:32.000Z</time>
      </trkpt>
      <trkpt lat="49.33218" lon="3.31017">
        <ele>176.4</ele>
        <time>2025-10-20T13:28:33.000Z</time>
      </trkpt>
      <trkpt lat="49.33218" lon="3.31017">
        <ele>176.4</ele>
        <time>2025-10-20T13:28:34.000Z</time>
      </trkpt>
      <trkpt lat="49.33218" lon="3.31017">
        <ele>176.4</ele>
        <time>2025-10-20T13:28:35.000Z</time>
      </trkpt>
      <trkpt lat="49.33218" lon="3.31017">
        <ele>176.4</ele>
        <time>2025-10-20T13:28:36.000Z</time>
      </trkpt>
      <trkpt lat="49.33218" lon="3.31017">
        <ele>176.4</ele>
        <time>2025-10-20T13:28:37.000Z</time>
      </trkpt>
      <trkpt lat="49.33218" lon="3.31017">
        <ele>176.4</ele>
        <time>2025-10-20T13:28:38.000Z</time>
      </trkpt>
      <trkpt lat="49.33218" lon="3.31017">
        <ele>176.4</ele>
        <time>2025-10-20T13:28:39.000Z</time>
      </trkpt>
      <trkpt lat="49.33221" lon="3.31023">
        <ele>176.7</ele>
        <time>2025-10-20T13:28:40.000Z</time>
      </trkpt>
      <trkpt lat="49.33222" lon="3.31022">
        <ele>176.7</ele>
        <time>2025-10-20T13:28:41.000Z</time>
      </trkpt>
      <trkpt lat="49.33222" lon="3.31022">
        <ele>176.6</ele>
        <time>2025-10-20T13:28:42.000Z</time>
      </trkpt>
      <trkpt lat="49.33223" lon="3.31022">
        <ele>176.6</ele>
        <time>2025-10-20T13:28:43.000Z</time>
      </trkpt>
      <trkpt lat="49.33223" lon="3.31022">
        <ele>176.6</ele>
        <time>2025-10-20T13:28:44.000Z</time>
      </trkpt>
      <trkpt lat="49.33223" lon="3.31022">
        <ele>176.6</ele>
        <time>2025-10-20T13:28:45.000Z</time>
      </trkpt>
      <trkpt lat="49.33223" lon="3.31022">
        <ele>176.6</ele>
        <time>2025-10-20T13:28:46.000Z</time>
      </trkpt>
      <trkpt lat="49.33223" lon="3.31022">
        <ele>176.6</ele>
        <time>2025-10-20T13:28:47.000Z</time>
      </trkpt>
      <trkpt lat="49.33223" lon="3.31022">
        <ele>176.6</ele>
        <time>2025-10-20T13:28:48.000Z</time>
      </trkpt>
      <trkpt lat="49.33223" lon="3.31022">
        <ele>176.6</ele>
        <time>2025-10-20T13:28:49.000Z</time>
      </trkpt>
      <trkpt lat="49.33223" lon="3.31022">
        <ele>176.6</ele>
        <time>2025-10-20T13:28:50.000Z</time>
      </trkpt>
      <trkpt lat="49.33223" lon="3.31022">
        <ele>176.6</ele>
        <time>2025-10-20T13:28:51.000Z</time>
      </trkpt>
      <trkpt lat="49.33225" lon="3.31022">
        <ele>176.8</ele>
        <time>2025-10-20T13:28:52.000Z</time>
      </trkpt>
      <trkpt lat="49.33225" lon="3.31022">
        <ele>176.9</ele>
        <time>2025-10-20T13:28:53.000Z</time>
      </trkpt>
      <trkpt lat="49.33226" lon="3.31024">
        <ele>177.1</ele>
        <time>2025-10-20T13:28:54.000Z</time>
      </trkpt>
      <trkpt lat="49.33227" lon="3.31025">
        <ele>177.2</ele>
        <time>2025-10-20T13:28:55.000Z</time>
      </trkpt>
      <trkpt lat="49.33228" lon="3.31027">
        <ele>177.2</ele>
        <time>2025-10-20T13:28:56.000Z</time>
      </trkpt>
      <trkpt lat="49.33229" lon="3.31029">
        <ele>177.1</ele>
        <time>2025-10-20T13:28:57.000Z</time>
      </trkpt>
      <trkpt lat="49.3323" lon="3.3103">
        <ele>176.9</ele>
        <time>2025-10-20T13:28:58.000Z</time>
      </trkpt>
      <trkpt lat="49.3323" lon="3.31031">
        <ele>176.6</ele>
        <time>2025-10-20T13:28:59.000Z</time>
      </trkpt>
      <trkpt lat="49.33231" lon="3.31031">
        <ele>176.4</ele>
        <time>2025-10-20T13:29:00.000Z</time>
      </trkpt>
      <trkpt lat="49.33232" lon="3.31031">
        <ele>176.1</ele>
        <time>2025-10-20T13:29:01.000Z</time>
      </trkpt>
      <trkpt lat="49.33232" lon="3.31032">
        <ele>175.9</ele>
        <time>2025-10-20T13:29:02.000Z</time>
      </trkpt>
      <trkpt lat="49.33232" lon="3.31032">
        <ele>175.6</ele>
        <time>2025-10-20T13:29:03.000Z</time>
      </trkpt>
      <trkpt lat="49.33233" lon="3.31032">
        <ele>175.5</ele>
        <time>2025-10-20T13:29:04.000Z</time>
      </trkpt>
      <trkpt lat="49.33233" lon="3.31032">
        <ele>175.8</ele>
        <time>2025-10-20T13:29:05.000Z</time>
      </trkpt>
      <trkpt lat="49.33233" lon="3.31033">
        <ele>176.3</ele>
        <time>2025-10-20T13:29:06.000Z</time>
      </trkpt>
      <trkpt lat="49.33234" lon="3.31034">
        <ele>176.9</ele>
        <time>2025-10-20T13:29:07.000Z</time>
      </trkpt>
      <trkpt lat="49.33234" lon="3.31036">
        <ele>177.4</ele>
        <time>2025-10-20T13:29:08.000Z</time>
      </trkpt>
      <trkpt lat="49.33235" lon="3.31037">
        <ele>177.9</ele>
        <time>2025-10-20T13:29:09.000Z</time>
      </trkpt>
      <trkpt lat="49.33236" lon="3.3104">
        <ele>178</ele>
        <time>2025-10-20T13:29:10.000Z</time>
      </trkpt>
      <trkpt lat="49.33237" lon="3.31042">
        <ele>177.7</ele>
        <time>2025-10-20T13:29:11.000Z</time>
      </trkpt>
      <trkpt lat="49.33237" lon="3.31044">
        <ele>177.3</ele>
        <time>2025-10-20T13:29:12.000Z</time>
      </trkpt>
      <trkpt lat="49.33238" lon="3.31047">
        <ele>177</ele>
        <time>2025-10-20T13:29:13.000Z</time>
      </trkpt>
      <trkpt lat="49.33238" lon="3.31049">
        <ele>177.1</ele>
        <time>2025-10-20T13:29:14.000Z</time>
      </trkpt>
      <trkpt lat="49.33239" lon="3.3105">
        <ele>177.4</ele>
        <time>2025-10-20T13:29:15.000Z</time>
      </trkpt>
      <trkpt lat="49.33239" lon="3.31052">
        <ele>177.6</ele>
        <time>2025-10-20T13:29:16.000Z</time>
      </trkpt>
      <trkpt lat="49.3324" lon="3.31053">
        <ele>177.8</ele>
        <time>2025-10-20T13:29:17.000Z</time>
      </trkpt>
      <trkpt lat="49.33241" lon="3.31055">
        <ele>178.1</ele>
        <time>2025-10-20T13:29:18.000Z</time>
      </trkpt>
      <trkpt lat="49.33241" lon="3.31057">
        <ele>178.3</ele>
        <time>2025-10-20T13:29:19.000Z</time>
      </trkpt>
      <trkpt lat="49.33242" lon="3.31059">
        <ele>178.5</ele>
        <time>2025-10-20T13:29:20.000Z</time>
      </trkpt>
      <trkpt lat="49.33243" lon="3.3106">
        <ele>178.8</ele>
        <time>2025-10-20T13:29:21.000Z</time>
      </trkpt>
      <trkpt lat="49.33245" lon="3.31062">
        <ele>178.7</ele>
        <time>2025-10-20T13:29:22.000Z</time>
      </trkpt>
      <trkpt lat="49.33245" lon="3.31065">
        <ele>178.2</ele>
        <time>2025-10-20T13:29:23.000Z</time>
      </trkpt>
      <trkpt lat="49.33246" lon="3.31067">
        <ele>177.8</ele>
        <time>2025-10-20T13:29:24.000Z</time>
      </trkpt>
      <trkpt lat="49.33247" lon="3.31069">
        <ele>178</ele>
        <time>2025-10-20T13:29:25.000Z</time>
      </trkpt>
      <trkpt lat="49.33248" lon="3.3107">
        <ele>178.3</ele>
        <time>2025-10-20T13:29:26.000Z</time>
      </trkpt>
      <trkpt lat="49.33249" lon="3.31072">
        <ele>178.7</ele>
        <time>2025-10-20T13:29:27.000Z</time>
      </trkpt>
      <trkpt lat="49.3325" lon="3.31073">
        <ele>179.3</ele>
        <time>2025-10-20T13:29:28.000Z</time>
      </trkpt>
      <trkpt lat="49.3325" lon="3.31075">
        <ele>179.3</ele>
        <time>2025-10-20T13:29:29.000Z</time>
      </trkpt>
      <trkpt lat="49.3325" lon="3.31077">
        <ele>179.3</ele>
        <time>2025-10-20T13:29:30.000Z</time>
      </trkpt>
      <trkpt lat="49.33251" lon="3.31079">
        <ele>179.2</ele>
        <time>2025-10-20T13:29:31.000Z</time>
      </trkpt>
      <trkpt lat="49.33251" lon="3.31081">
        <ele>179.2</ele>
        <time>2025-10-20T13:29:32.000Z</time>
      </trkpt>
      <trkpt lat="49.33252" lon="3.31084">
        <ele>178.9</ele>
        <time>2025-10-20T13:29:33.000Z</time>
      </trkpt>
      <trkpt lat="49.33253" lon="3.31086">
        <ele>178.7</ele>
        <time>2025-10-20T13:29:34.000Z</time>
      </trkpt>
      <trkpt lat="49.33254" lon="3.31088">
        <ele>178.1</ele>
        <time>2025-10-20T13:29:35.000Z</time>
      </trkpt>
      <trkpt lat="49.33254" lon="3.31091">
        <ele>177.7</ele>
        <time>2025-10-20T13:29:36.000Z</time>
      </trkpt>
      <trkpt lat="49.33255" lon="3.31094">
        <ele>177.3</ele>
        <time>2025-10-20T13:29:37.000Z</time>
      </trkpt>
      <trkpt lat="49.33255" lon="3.31096">
        <ele>177.3</ele>
        <time>2025-10-20T13:29:38.000Z</time>
      </trkpt>
      <trkpt lat="49.33256" lon="3.31098">
        <ele>177.1</ele>
        <time>2025-10-20T13:29:39.000Z</time>
      </trkpt>
      <trkpt lat="49.33256" lon="3.311">
        <ele>177.1</ele>
        <time>2025-10-20T13:29:40.000Z</time>
      </trkpt>
      <trkpt lat="49.33257" lon="3.31102">
        <ele>177</ele>
        <time>2025-10-20T13:29:41.000Z</time>
      </trkpt>
      <trkpt lat="49.33258" lon="3.31104">
        <ele>176.8</ele>
        <time>2025-10-20T13:29:42.000Z</time>
      </trkpt>
      <trkpt lat="49.33258" lon="3.31105">
        <ele>176.8</ele>
        <time>2025-10-20T13:29:43.000Z</time>
      </trkpt>
      <trkpt lat="49.33259" lon="3.31107">
        <ele>176.8</ele>
        <time>2025-10-20T13:29:44.000Z</time>
      </trkpt>
      <trkpt lat="49.3326" lon="3.31109">
        <ele>176.8</ele>
        <time>2025-10-20T13:29:45.000Z</time>
      </trkpt>
      <trkpt lat="49.3326" lon="3.3111">
        <ele>176.7</ele>
        <time>2025-10-20T13:29:46.000Z</time>
      </trkpt>
      <trkpt lat="49.33261" lon="3.31112">
        <ele>176.8</ele>
        <time>2025-10-20T13:29:47.000Z</time>
      </trkpt>
      <trkpt lat="49.33262" lon="3.31114">
        <ele>176.5</ele>
        <time>2025-10-20T13:29:48.000Z</time>
      </trkpt>
      <trkpt lat="49.33262" lon="3.31116">
        <ele>176.3</ele>
        <time>2025-10-20T13:29:49.000Z</time>
      </trkpt>
      <trkpt lat="49.33262" lon="3.31117">
        <ele>176</ele>
        <time>2025-10-20T13:29:50.000Z</time>
      </trkpt>
      <trkpt lat="49.33262" lon="3.31118">
        <ele>175.9</ele>
        <time>2025-10-20T13:29:51.000Z</time>
      </trkpt>
      <trkpt lat="49.33262" lon="3.31119">
        <ele>175.8</ele>
        <time>2025-10-20T13:29:52.000Z</time>
      </trkpt>
      <trkpt lat="49.33262" lon="3.3112">
        <ele>175.6</ele>
        <time>2025-10-20T13:29:53.000Z</time>
      </trkpt>
      <trkpt lat="49.33263" lon="3.31121">
        <ele>175.3</ele>
        <time>2025-10-20T13:29:54.000Z</time>
      </trkpt>
      <trkpt lat="49.33265" lon="3.31122">
        <ele>175.2</ele>
        <time>2025-10-20T13:29:55.000Z</time>
      </trkpt>
      <trkpt lat="49.33266" lon="3.31123">
        <ele>175</ele>
        <time>2025-10-20T13:29:56.000Z</time>
      </trkpt>
      <trkpt lat="49.33267" lon="3.31124">
        <ele>174.9</ele>
        <time>2025-10-20T13:29:57.000Z</time>
      </trkpt>
      <trkpt lat="49.33267" lon="3.31126">
        <ele>175.2</ele>
        <time>2025-10-20T13:29:58.000Z</time>
      </trkpt>
      <trkpt lat="49.33268" lon="3.31127">
        <ele>175.2</ele>
        <time>2025-10-20T13:29:59.000Z</time>
      </trkpt>
      <trkpt lat="49.33269" lon="3.31129">
        <ele>175.2</ele>
        <time>2025-10-20T13:30:00.000Z</time>
      </trkpt>
      <trkpt lat="49.3327" lon="3.31131">
        <ele>175.3</ele>
        <time>2025-10-20T13:30:01.000Z</time>
      </trkpt>
      <trkpt lat="49.3327" lon="3.31133">
        <ele>175.4</ele>
        <time>2025-10-20T13:30:02.000Z</time>
      </trkpt>
      <trkpt lat="49.33271" lon="3.31134">
        <ele>175.2</ele>
        <time>2025-10-20T13:30:03.000Z</time>
      </trkpt>
      <trkpt lat="49.33272" lon="3.31136">
        <ele>175</ele>
        <time>2025-10-20T13:30:04.000Z</time>
      </trkpt>
      <trkpt lat="49.33273" lon="3.31137">
        <ele>174.9</ele>
        <time>2025-10-20T13:30:05.000Z</time>
      </trkpt>
      <trkpt lat="49.33274" lon="3.31139">
        <ele>174.6</ele>
        <time>2025-10-20T13:30:06.000Z</time>
      </trkpt>
      <trkpt lat="49.33274" lon="3.31142">
        <ele>174.5</ele>
        <time>2025-10-20T13:30:07.000Z</time>
      </trkpt>
      <trkpt lat="49.33275" lon="3.31144">
        <ele>174.3</ele>
        <time>2025-10-20T13:30:08.000Z</time>
      </trkpt>
      <trkpt lat="49.33275" lon="3.31146">
        <ele>173.9</ele>
        <time>2025-10-20T13:30:09.000Z</time>
      </trkpt>
      <trkpt lat="49.33276" lon="3.31148">
        <ele>173.5</ele>
        <time>2025-10-20T13:30:10.000Z</time>
      </trkpt>
      <trkpt lat="49.33277" lon="3.31149">
        <ele>173.4</ele>
        <time>2025-10-20T13:30:11.000Z</time>
      </trkpt>
      <trkpt lat="49.33278" lon="3.3115">
        <ele>172.8</ele>
        <time>2025-10-20T13:30:12.000Z</time>
      </trkpt>
      <trkpt lat="49.33278" lon="3.31152">
        <ele>172.8</ele>
        <time>2025-10-20T13:30:13.000Z</time>
      </trkpt>
      <trkpt lat="49.33279" lon="3.31154">
        <ele>172.8</ele>
        <time>2025-10-20T13:30:14.000Z</time>
      </trkpt>
      <trkpt lat="49.33279" lon="3.31156">
        <ele>172.5</ele>
        <time>2025-10-20T13:30:15.000Z</time>
      </trkpt>
      <trkpt lat="49.3328" lon="3.31157">
        <ele>172.4</ele>
        <time>2025-10-20T13:30:16.000Z</time>
      </trkpt>
      <trkpt lat="49.33281" lon="3.31159">
        <ele>172.3</ele>
        <time>2025-10-20T13:30:17.000Z</time>
      </trkpt>
      <trkpt lat="49.33282" lon="3.31161">
        <ele>172.5</ele>
        <time>2025-10-20T13:30:18.000Z</time>
      </trkpt>
      <trkpt lat="49.33283" lon="3.31162">
        <ele>172.8</ele>
        <time>2025-10-20T13:30:19.000Z</time>
      </trkpt>
      <trkpt lat="49.33283" lon="3.31164">
        <ele>173.1</ele>
        <time>2025-10-20T13:30:20.000Z</time>
      </trkpt>
      <trkpt lat="49.33284" lon="3.31166">
        <ele>173.2</ele>
        <time>2025-10-20T13:30:21.000Z</time>
      </trkpt>
      <trkpt lat="49.33284" lon="3.31167">
        <ele>173</ele>
        <time>2025-10-20T13:30:22.000Z</time>
      </trkpt>
      <trkpt lat="49.33284" lon="3.31169">
        <ele>172.9</ele>
        <time>2025-10-20T13:30:23.000Z</time>
      </trkpt>
      <trkpt lat="49.33284" lon="3.31171">
        <ele>173</ele>
        <time>2025-10-20T13:30:24.000Z</time>
      </trkpt>
      <trkpt lat="49.33284" lon="3.31172">
        <ele>173.4</ele>
        <time>2025-10-20T13:30:25.000Z</time>
      </trkpt>
      <trkpt lat="49.33284" lon="3.31173">
        <ele>173.6</ele>
        <time>2025-10-20T13:30:26.000Z</time>
      </trkpt>
      <trkpt lat="49.33284" lon="3.31175">
        <ele>173.7</ele>
        <time>2025-10-20T13:30:27.000Z</time>
      </trkpt>
      <trkpt lat="49.33284" lon="3.31177">
        <ele>173.8</ele>
        <time>2025-10-20T13:30:28.000Z</time>
      </trkpt>
      <trkpt lat="49.33284" lon="3.31178">
        <ele>174</ele>
        <time>2025-10-20T13:30:29.000Z</time>
      </trkpt>
      <trkpt lat="49.33284" lon="3.3118">
        <ele>174.1</ele>
        <time>2025-10-20T13:30:30.000Z</time>
      </trkpt>
      <trkpt lat="49.33284" lon="3.31182">
        <ele>174.3</ele>
        <time>2025-10-20T13:30:31.000Z</time>
      </trkpt>
      <trkpt lat="49.33284" lon="3.31183">
        <ele>174.4</ele>
        <time>2025-10-20T13:30:32.000Z</time>
      </trkpt>
      <trkpt lat="49.33285" lon="3.31185">
        <ele>173.9</ele>
        <time>2025-10-20T13:30:33.000Z</time>
      </trkpt>
      <trkpt lat="49.33285" lon="3.31187">
        <ele>173.6</ele>
        <time>2025-10-20T13:30:34.000Z</time>
      </trkpt>
      <trkpt lat="49.33285" lon="3.31189">
        <ele>173.5</ele>
        <time>2025-10-20T13:30:35.000Z</time>
      </trkpt>
      <trkpt lat="49.33285" lon="3.31191">
        <ele>173.5</ele>
        <time>2025-10-20T13:30:36.000Z</time>
      </trkpt>
      <trkpt lat="49.33286" lon="3.31193">
        <ele>173.7</ele>
        <time>2025-10-20T13:30:37.000Z</time>
      </trkpt>
      <trkpt lat="49.33286" lon="3.31195">
        <ele>174.1</ele>
        <time>2025-10-20T13:30:38.000Z</time>
      </trkpt>
      <trkpt lat="49.33286" lon="3.31197">
        <ele>173.9</ele>
        <time>2025-10-20T13:30:39.000Z</time>
      </trkpt>
      <trkpt lat="49.33286" lon="3.31198">
        <ele>174</ele>
        <time>2025-10-20T13:30:40.000Z</time>
      </trkpt>
      <trkpt lat="49.33285" lon="3.312">
        <ele>174.1</ele>
        <time>2025-10-20T13:30:41.000Z</time>
      </trkpt>
      <trkpt lat="49.33285" lon="3.31201">
        <ele>174.2</ele>
        <time>2025-10-20T13:30:42.000Z</time>
      </trkpt>
      <trkpt lat="49.33285" lon="3.31202">
        <ele>174.5</ele>
        <time>2025-10-20T13:30:43.000Z</time>
      </trkpt>
      <trkpt lat="49.33286" lon="3.31204">
        <ele>174.6</ele>
        <time>2025-10-20T13:30:44.000Z</time>
      </trkpt>
      <trkpt lat="49.33286" lon="3.31206">
        <ele>174.8</ele>
        <time>2025-10-20T13:30:45.000Z</time>
      </trkpt>
      <trkpt lat="49.33286" lon="3.31207">
        <ele>175.2</ele>
        <time>2025-10-20T13:30:46.000Z</time>
      </trkpt>
      <trkpt lat="49.33287" lon="3.31209">
        <ele>175.2</ele>
        <time>2025-10-20T13:30:47.000Z</time>
      </trkpt>
      <trkpt lat="49.33287" lon="3.31212">
        <ele>174.7</ele>
        <time>2025-10-20T13:30:48.000Z</time>
      </trkpt>
      <trkpt lat="49.33287" lon="3.31214">
        <ele>174.7</ele>
        <time>2025-10-20T13:30:49.000Z</time>
      </trkpt>
      <trkpt lat="49.33286" lon="3.31215">
        <ele>174.6</ele>
        <time>2025-10-20T13:30:50.000Z</time>
      </trkpt>
      <trkpt lat="49.33286" lon="3.31217">
        <ele>174.8</ele>
        <time>2025-10-20T13:30:51.000Z</time>
      </trkpt>
      <trkpt lat="49.33286" lon="3.31219">
        <ele>175</ele>
        <time>2025-10-20T13:30:52.000Z</time>
      </trkpt>
      <trkpt lat="49.33286" lon="3.31221">
        <ele>175.1</ele>
        <time>2025-10-20T13:30:53.000Z</time>
      </trkpt>
      <trkpt lat="49.33286" lon="3.31223">
        <ele>175.3</ele>
        <time>2025-10-20T13:30:54.000Z</time>
      </trkpt>
      <trkpt lat="49.33287" lon="3.31225">
        <ele>175.4</ele>
        <time>2025-10-20T13:30:55.000Z</time>
      </trkpt>
      <trkpt lat="49.33287" lon="3.31227">
        <ele>175.5</ele>
        <time>2025-10-20T13:30:56.000Z</time>
      </trkpt>
      <trkpt lat="49.33288" lon="3.31229">
        <ele>175.8</ele>
        <time>2025-10-20T13:30:57.000Z</time>
      </trkpt>
      <trkpt lat="49.33288" lon="3.31231">
        <ele>176.3</ele>
        <time>2025-10-20T13:30:58.000Z</time>
      </trkpt>
      <trkpt lat="49.33289" lon="3.31233">
        <ele>176.5</ele>
        <time>2025-10-20T13:30:59.000Z</time>
      </trkpt>
      <trkpt lat="49.33289" lon="3.31235">
        <ele>176.7</ele>
        <time>2025-10-20T13:31:00.000Z</time>
      </trkpt>
      <trkpt lat="49.33289" lon="3.31237">
        <ele>177</ele>
        <time>2025-10-20T13:31:01.000Z</time>
      </trkpt>
      <trkpt lat="49.33289" lon="3.3124">
        <ele>177.2</ele>
        <time>2025-10-20T13:31:02.000Z</time>
      </trkpt>
      <trkpt lat="49.33289" lon="3.31242">
        <ele>177.3</ele>
        <time>2025-10-20T13:31:03.000Z</time>
      </trkpt>
      <trkpt lat="49.3329" lon="3.31245">
        <ele>177.1</ele>
        <time>2025-10-20T13:31:04.000Z</time>
      </trkpt>
      <trkpt lat="49.3329" lon="3.31248">
        <ele>176.9</ele>
        <time>2025-10-20T13:31:05.000Z</time>
      </trkpt>
      <trkpt lat="49.3329" lon="3.3125">
        <ele>177</ele>
        <time>2025-10-20T13:31:06.000Z</time>
      </trkpt>
      <trkpt lat="49.3329" lon="3.31252">
        <ele>177.3</ele>
        <time>2025-10-20T13:31:07.000Z</time>
      </trkpt>
      <trkpt lat="49.3329" lon="3.31255">
        <ele>177.4</ele>
        <time>2025-10-20T13:31:08.000Z</time>
      </trkpt>
      <trkpt lat="49.33289" lon="3.31258">
        <ele>176.7</ele>
        <time>2025-10-20T13:31:09.000Z</time>
      </trkpt>
      <trkpt lat="49.33289" lon="3.3126">
        <ele>176.4</ele>
        <time>2025-10-20T13:31:10.000Z</time>
      </trkpt>
      <trkpt lat="49.33289" lon="3.31262">
        <ele>176.1</ele>
        <time>2025-10-20T13:31:11.000Z</time>
      </trkpt>
      <trkpt lat="49.33289" lon="3.31263">
        <ele>176.3</ele>
        <time>2025-10-20T13:31:12.000Z</time>
      </trkpt>
      <trkpt lat="49.3329" lon="3.31264">
        <ele>176.8</ele>
        <time>2025-10-20T13:31:13.000Z</time>
      </trkpt>
      <trkpt lat="49.3329" lon="3.31266">
        <ele>177.3</ele>
        <time>2025-10-20T13:31:14.000Z</time>
      </trkpt>
      <trkpt lat="49.3329" lon="3.31268">
        <ele>177.4</ele>
        <time>2025-10-20T13:31:15.000Z</time>
      </trkpt>
      <trkpt lat="49.33291" lon="3.3127">
        <ele>177.4</ele>
        <time>2025-10-20T13:31:16.000Z</time>
      </trkpt>
      <trkpt lat="49.33291" lon="3.31272">
        <ele>177.4</ele>
        <time>2025-10-20T13:31:17.000Z</time>
      </trkpt>
      <trkpt lat="49.33291" lon="3.31274">
        <ele>177.5</ele>
        <time>2025-10-20T13:31:18.000Z</time>
      </trkpt>
      <trkpt lat="49.33291" lon="3.31276">
        <ele>177.6</ele>
        <time>2025-10-20T13:31:19.000Z</time>
      </trkpt>
      <trkpt lat="49.33291" lon="3.31278">
        <ele>177.5</ele>
        <time>2025-10-20T13:31:20.000Z</time>
      </trkpt>
      <trkpt lat="49.33291" lon="3.31281">
        <ele>177.1</ele>
        <time>2025-10-20T13:31:21.000Z</time>
      </trkpt>
      <trkpt lat="49.33292" lon="3.31282">
        <ele>177.4</ele>
        <time>2025-10-20T13:31:22.000Z</time>
      </trkpt>
      <trkpt lat="49.33291" lon="3.31284">
        <ele>177.7</ele>
        <time>2025-10-20T13:31:23.000Z</time>
      </trkpt>
      <trkpt lat="49.33291" lon="3.31287">
        <ele>177.5</ele>
        <time>2025-10-20T13:31:24.000Z</time>
      </trkpt>
      <trkpt lat="49.33291" lon="3.31289">
        <ele>177.9</ele>
        <time>2025-10-20T13:31:25.000Z</time>
      </trkpt>
      <trkpt lat="49.33292" lon="3.3129">
        <ele>178.1</ele>
        <time>2025-10-20T13:31:26.000Z</time>
      </trkpt>
      <trkpt lat="49.33294" lon="3.31292">
        <ele>178.4</ele>
        <time>2025-10-20T13:31:27.000Z</time>
      </trkpt>
      <trkpt lat="49.33294" lon="3.31294">
        <ele>178.7</ele>
        <time>2025-10-20T13:31:28.000Z</time>
      </trkpt>
      <trkpt lat="49.33295" lon="3.31296">
        <ele>178.7</ele>
        <time>2025-10-20T13:31:29.000Z</time>
      </trkpt>
      <trkpt lat="49.33296" lon="3.31298">
        <ele>179</ele>
        <time>2025-10-20T13:31:30.000Z</time>
      </trkpt>
      <trkpt lat="49.33296" lon="3.313">
        <ele>179</ele>
        <time>2025-10-20T13:31:31.000Z</time>
      </trkpt>
      <trkpt lat="49.33297" lon="3.31303">
        <ele>178.8</ele>
        <time>2025-10-20T13:31:32.000Z</time>
      </trkpt>
      <trkpt lat="49.33297" lon="3.31305">
        <ele>178.7</ele>
        <time>2025-10-20T13:31:33.000Z</time>
      </trkpt>
      <trkpt lat="49.33298" lon="3.31307">
        <ele>178.6</ele>
        <time>2025-10-20T13:31:34.000Z</time>
      </trkpt>
      <trkpt lat="49.33298" lon="3.3131">
        <ele>178.1</ele>
        <time>2025-10-20T13:31:35.000Z</time>
      </trkpt>
      <trkpt lat="49.33299" lon="3.31312">
        <ele>177.5</ele>
        <time>2025-10-20T13:31:36.000Z</time>
      </trkpt>
      <trkpt lat="49.33299" lon="3.31314">
        <ele>177</ele>
        <time>2025-10-20T13:31:37.000Z</time>
      </trkpt>
      <trkpt lat="49.33299" lon="3.31315">
        <ele>176.7</ele>
        <time>2025-10-20T13:31:38.000Z</time>
      </trkpt>
      <trkpt lat="49.33299" lon="3.31317">
        <ele>176.4</ele>
        <time>2025-10-20T13:31:39.000Z</time>
      </trkpt>
      <trkpt lat="49.333" lon="3.31318">
        <ele>176.7</ele>
        <time>2025-10-20T13:31:40.000Z</time>
      </trkpt>
      <trkpt lat="49.33301" lon="3.31319">
        <ele>177.1</ele>
        <time>2025-10-20T13:31:41.000Z</time>
      </trkpt>
      <trkpt lat="49.33301" lon="3.31321">
        <ele>177.4</ele>
        <time>2025-10-20T13:31:42.000Z</time>
      </trkpt>
      <trkpt lat="49.33301" lon="3.31323">
        <ele>177.7</ele>
        <time>2025-10-20T13:31:43.000Z</time>
      </trkpt>
      <trkpt lat="49.33301" lon="3.31324">
        <ele>177.9</ele>
        <time>2025-10-20T13:31:44.000Z</time>
      </trkpt>
      <trkpt lat="49.33302" lon="3.31327">
        <ele>178</ele>
        <time>2025-10-20T13:31:45.000Z</time>
      </trkpt>
      <trkpt lat="49.33302" lon="3.31328">
        <ele>178.5</ele>
        <time>2025-10-20T13:31:46.000Z</time>
      </trkpt>
      <trkpt lat="49.33302" lon="3.3133">
        <ele>178.9</ele>
        <time>2025-10-20T13:31:47.000Z</time>
      </trkpt>
      <trkpt lat="49.33302" lon="3.31332">
        <ele>179.6</ele>
        <time>2025-10-20T13:31:48.000Z</time>
      </trkpt>
      <trkpt lat="49.33303" lon="3.31334">
        <ele>180.1</ele>
        <time>2025-10-20T13:31:49.000Z</time>
      </trkpt>
      <trkpt lat="49.33304" lon="3.31336">
        <ele>180</ele>
        <time>2025-10-20T13:31:50.000Z</time>
      </trkpt>
      <trkpt lat="49.33305" lon="3.31339">
        <ele>179.9</ele>
        <time>2025-10-20T13:31:51.000Z</time>
      </trkpt>
      <trkpt lat="49.33306" lon="3.31341">
        <ele>180.1</ele>
        <time>2025-10-20T13:31:52.000Z</time>
      </trkpt>
      <trkpt lat="49.33307" lon="3.31343">
        <ele>180.1</ele>
        <time>2025-10-20T13:31:53.000Z</time>
      </trkpt>
      <trkpt lat="49.33307" lon="3.31345">
        <ele>180</ele>
        <time>2025-10-20T13:31:54.000Z</time>
      </trkpt>
      <trkpt lat="49.33308" lon="3.31347">
        <ele>180.1</ele>
        <time>2025-10-20T13:31:55.000Z</time>
      </trkpt>
      <trkpt lat="49.33307" lon="3.31349">
        <ele>180.4</ele>
        <time>2025-10-20T13:31:56.000Z</time>
      </trkpt>
      <trkpt lat="49.33309" lon="3.31351">
        <ele>180.7</ele>
        <time>2025-10-20T13:31:57.000Z</time>
      </trkpt>
      <trkpt lat="49.33309" lon="3.31353">
        <ele>180.5</ele>
        <time>2025-10-20T13:31:58.000Z</time>
      </trkpt>
      <trkpt lat="49.3331" lon="3.31356">
        <ele>180.2</ele>
        <time>2025-10-20T13:31:59.000Z</time>
      </trkpt>
      <trkpt lat="49.3331" lon="3.31359">
        <ele>179.9</ele>
        <time>2025-10-20T13:32:00.000Z</time>
      </trkpt>
      <trkpt lat="49.33311" lon="3.31361">
        <ele>179.3</ele>
        <time>2025-10-20T13:32:01.000Z</time>
      </trkpt>
      <trkpt lat="49.33312" lon="3.31363">
        <ele>179</ele>
        <time>2025-10-20T13:32:02.000Z</time>
      </trkpt>
      <trkpt lat="49.33313" lon="3.31365">
        <ele>178.3</ele>
        <time>2025-10-20T13:32:03.000Z</time>
      </trkpt>
      <trkpt lat="49.33314" lon="3.31367">
        <ele>177.7</ele>
        <time>2025-10-20T13:32:04.000Z</time>
      </trkpt>
      <trkpt lat="49.33314" lon="3.31369">
        <ele>177.3</ele>
        <time>2025-10-20T13:32:05.000Z</time>
      </trkpt>
      <trkpt lat="49.33315" lon="3.31371">
        <ele>176.9</ele>
        <time>2025-10-20T13:32:06.000Z</time>
      </trkpt>
      <trkpt lat="49.33315" lon="3.31373">
        <ele>176.4</ele>
        <time>2025-10-20T13:32:07.000Z</time>
      </trkpt>
      <trkpt lat="49.33316" lon="3.31375">
        <ele>175.9</ele>
        <time>2025-10-20T13:32:08.000Z</time>
      </trkpt>
      <trkpt lat="49.33316" lon="3.31376">
        <ele>175.5</ele>
        <time>2025-10-20T13:32:09.000Z</time>
      </trkpt>
      <trkpt lat="49.33317" lon="3.31377">
        <ele>175.2</ele>
        <time>2025-10-20T13:32:10.000Z</time>
      </trkpt>
      <trkpt lat="49.33317" lon="3.31378">
        <ele>174.9</ele>
        <time>2025-10-20T13:32:11.000Z</time>
      </trkpt>
      <trkpt lat="49.33317" lon="3.3138">
        <ele>175.1</ele>
        <time>2025-10-20T13:32:12.000Z</time>
      </trkpt>
      <trkpt lat="49.33318" lon="3.31381">
        <ele>175</ele>
        <time>2025-10-20T13:32:13.000Z</time>
      </trkpt>
      <trkpt lat="49.33318" lon="3.31383">
        <ele>174.8</ele>
        <time>2025-10-20T13:32:14.000Z</time>
      </trkpt>
      <trkpt lat="49.33318" lon="3.31385">
        <ele>173.6</ele>
        <time>2025-10-20T13:32:15.000Z</time>
      </trkpt>
      <trkpt lat="49.33318" lon="3.31386">
        <ele>172.6</ele>
        <time>2025-10-20T13:32:16.000Z</time>
      </trkpt>
      <trkpt lat="49.3332" lon="3.31387">
        <ele>171.9</ele>
        <time>2025-10-20T13:32:17.000Z</time>
      </trkpt>
      <trkpt lat="49.33321" lon="3.31388">
        <ele>171</ele>
        <time>2025-10-20T13:32:18.000Z</time>
      </trkpt>
      <trkpt lat="49.33321" lon="3.3139">
        <ele>170.5</ele>
        <time>2025-10-20T13:32:19.000Z</time>
      </trkpt>
      <trkpt lat="49.33322" lon="3.31391">
        <ele>169.7</ele>
        <time>2025-10-20T13:32:20.000Z</time>
      </trkpt>
      <trkpt lat="49.33322" lon="3.31392">
        <ele>169.3</ele>
        <time>2025-10-20T13:32:21.000Z</time>
      </trkpt>
      <trkpt lat="49.33323" lon="3.31393">
        <ele>169.2</ele>
        <time>2025-10-20T13:32:22.000Z</time>
      </trkpt>
      <trkpt lat="49.33324" lon="3.31394">
        <ele>169.1</ele>
        <time>2025-10-20T13:32:23.000Z</time>
      </trkpt>
      <trkpt lat="49.33325" lon="3.31395">
        <ele>168.9</ele>
        <time>2025-10-20T13:32:24.000Z</time>
      </trkpt>
      <trkpt lat="49.33326" lon="3.31395">
        <ele>168.8</ele>
        <time>2025-10-20T13:32:25.000Z</time>
      </trkpt>
      <trkpt lat="49.33326" lon="3.31396">
        <ele>168.4</ele>
        <time>2025-10-20T13:32:26.000Z</time>
      </trkpt>
      <trkpt lat="49.33326" lon="3.31396">
        <ele>168.3</ele>
        <time>2025-10-20T13:32:27.000Z</time>
      </trkpt>
      <trkpt lat="49.33327" lon="3.31397">
        <ele>168.1</ele>
        <time>2025-10-20T13:32:28.000Z</time>
      </trkpt>
      <trkpt lat="49.33327" lon="3.31397">
        <ele>168</ele>
        <time>2025-10-20T13:32:29.000Z</time>
      </trkpt>
      <trkpt lat="49.33327" lon="3.31398">
        <ele>168.1</ele>
        <time>2025-10-20T13:32:30.000Z</time>
      </trkpt>
      <trkpt lat="49.33328" lon="3.31399">
        <ele>167.7</ele>
        <time>2025-10-20T13:32:31.000Z</time>
      </trkpt>
      <trkpt lat="49.33329" lon="3.314">
        <ele>167.5</ele>
        <time>2025-10-20T13:32:32.000Z</time>
      </trkpt>
      <trkpt lat="49.3333" lon="3.31402">
        <ele>167.2</ele>
        <time>2025-10-20T13:32:33.000Z</time>
      </trkpt>
      <trkpt lat="49.33331" lon="3.31403">
        <ele>167</ele>
        <time>2025-10-20T13:32:34.000Z</time>
      </trkpt>
      <trkpt lat="49.33332" lon="3.31405">
        <ele>166.8</ele>
        <time>2025-10-20T13:32:35.000Z</time>
      </trkpt>
      <trkpt lat="49.33332" lon="3.31406">
        <ele>166.8</ele>
        <time>2025-10-20T13:32:36.000Z</time>
      </trkpt>
      <trkpt lat="49.33333" lon="3.31407">
        <ele>167.1</ele>
        <time>2025-10-20T13:32:37.000Z</time>
      </trkpt>
      <trkpt lat="49.33334" lon="3.31409">
        <ele>167.4</ele>
        <time>2025-10-20T13:32:38.000Z</time>
      </trkpt>
      <trkpt lat="49.33334" lon="3.3141">
        <ele>167.7</ele>
        <time>2025-10-20T13:32:39.000Z</time>
      </trkpt>
      <trkpt lat="49.33336" lon="3.31411">
        <ele>168</ele>
        <time>2025-10-20T13:32:40.000Z</time>
      </trkpt>
      <trkpt lat="49.33337" lon="3.31412">
        <ele>168.5</ele>
        <time>2025-10-20T13:32:41.000Z</time>
      </trkpt>
      <trkpt lat="49.33338" lon="3.31413">
        <ele>168.5</ele>
        <time>2025-10-20T13:32:42.000Z</time>
      </trkpt>
      <trkpt lat="49.33338" lon="3.31414">
        <ele>168.1</ele>
        <time>2025-10-20T13:32:43.000Z</time>
      </trkpt>
      <trkpt lat="49.33338" lon="3.31415">
        <ele>167.6</ele>
        <time>2025-10-20T13:32:44.000Z</time>
      </trkpt>
      <trkpt lat="49.33338" lon="3.31417">
        <ele>166.9</ele>
        <time>2025-10-20T13:32:45.000Z</time>
      </trkpt>
      <trkpt lat="49.33338" lon="3.31418">
        <ele>166.2</ele>
        <time>2025-10-20T13:32:46.000Z</time>
      </trkpt>
      <trkpt lat="49.33339" lon="3.31419">
        <ele>165.6</ele>
        <time>2025-10-20T13:32:47.000Z</time>
      </trkpt>
      <trkpt lat="49.33341" lon="3.31419">
        <ele>165</ele>
        <time>2025-10-20T13:32:48.000Z</time>
      </trkpt>
      <trkpt lat="49.33341" lon="3.31421">
        <ele>164.5</ele>
        <time>2025-10-20T13:32:49.000Z</time>
      </trkpt>
      <trkpt lat="49.33342" lon="3.31422">
        <ele>163.9</ele>
        <time>2025-10-20T13:32:50.000Z</time>
      </trkpt>
      <trkpt lat="49.33342" lon="3.31423">
        <ele>163.1</ele>
        <time>2025-10-20T13:32:51.000Z</time>
      </trkpt>
      <trkpt lat="49.33343" lon="3.31424">
        <ele>162.4</ele>
        <time>2025-10-20T13:32:52.000Z</time>
      </trkpt>
      <trkpt lat="49.33343" lon="3.31425">
        <ele>161.8</ele>
        <time>2025-10-20T13:32:53.000Z</time>
      </trkpt>
      <trkpt lat="49.33344" lon="3.31425">
        <ele>161.5</ele>
        <time>2025-10-20T13:32:54.000Z</time>
      </trkpt>
      <trkpt lat="49.33345" lon="3.31426">
        <ele>161</ele>
        <time>2025-10-20T13:32:55.000Z</time>
      </trkpt>
      <trkpt lat="49.33346" lon="3.31427">
        <ele>160.9</ele>
        <time>2025-10-20T13:32:56.000Z</time>
      </trkpt>
      <trkpt lat="49.33347" lon="3.31429">
        <ele>160.2</ele>
        <time>2025-10-20T13:32:57.000Z</time>
      </trkpt>
      <trkpt lat="49.33348" lon="3.31431">
        <ele>159.5</ele>
        <time>2025-10-20T13:32:58.000Z</time>
      </trkpt>
      <trkpt lat="49.33349" lon="3.31432">
        <ele>159.1</ele>
        <time>2025-10-20T13:32:59.000Z</time>
      </trkpt>
      <trkpt lat="49.3335" lon="3.31434">
        <ele>158.6</ele>
        <time>2025-10-20T13:33:00.000Z</time>
      </trkpt>
      <trkpt lat="49.33351" lon="3.31436">
        <ele>158.3</ele>
        <time>2025-10-20T13:33:01.000Z</time>
      </trkpt>
      <trkpt lat="49.33352" lon="3.31438">
        <ele>157.8</ele>
        <time>2025-10-20T13:33:02.000Z</time>
      </trkpt>
      <trkpt lat="49.33353" lon="3.31439">
        <ele>157.5</ele>
        <time>2025-10-20T13:33:03.000Z</time>
      </trkpt>
      <trkpt lat="49.33354" lon="3.31441">
        <ele>157.1</ele>
        <time>2025-10-20T13:33:04.000Z</time>
      </trkpt>
      <trkpt lat="49.33355" lon="3.31443">
        <ele>156.7</ele>
        <time>2025-10-20T13:33:05.000Z</time>
      </trkpt>
      <trkpt lat="49.33356" lon="3.31445">
        <ele>156.2</ele>
        <time>2025-10-20T13:33:06.000Z</time>
      </trkpt>
      <trkpt lat="49.33356" lon="3.31446">
        <ele>156</ele>
        <time>2025-10-20T13:33:07.000Z</time>
      </trkpt>
      <trkpt lat="49.33357" lon="3.31448">
        <ele>155.8</ele>
        <time>2025-10-20T13:33:08.000Z</time>
      </trkpt>
      <trkpt lat="49.33358" lon="3.31449">
        <ele>155.8</ele>
        <time>2025-10-20T13:33:09.000Z</time>
      </trkpt>
      <trkpt lat="49.33358" lon="3.3145">
        <ele>155.7</ele>
        <time>2025-10-20T13:33:10.000Z</time>
      </trkpt>
      <trkpt lat="49.33359" lon="3.31451">
        <ele>155.6</ele>
        <time>2025-10-20T13:33:11.000Z</time>
      </trkpt>
      <trkpt lat="49.3336" lon="3.31452">
        <ele>155.8</ele>
        <time>2025-10-20T13:33:12.000Z</time>
      </trkpt>
      <trkpt lat="49.33361" lon="3.31453">
        <ele>156.1</ele>
        <time>2025-10-20T13:33:13.000Z</time>
      </trkpt>
      <trkpt lat="49.33363" lon="3.31454">
        <ele>156.2</ele>
        <time>2025-10-20T13:33:14.000Z</time>
      </trkpt>
      <trkpt lat="49.33364" lon="3.31455">
        <ele>156.2</ele>
        <time>2025-10-20T13:33:15.000Z</time>
      </trkpt>
      <trkpt lat="49.33365" lon="3.31456">
        <ele>156.4</ele>
        <time>2025-10-20T13:33:16.000Z</time>
      </trkpt>
      <trkpt lat="49.33366" lon="3.31458">
        <ele>156.7</ele>
        <time>2025-10-20T13:33:17.000Z</time>
      </trkpt>
      <trkpt lat="49.33367" lon="3.31459">
        <ele>156.7</ele>
        <time>2025-10-20T13:33:18.000Z</time>
      </trkpt>
      <trkpt lat="49.33367" lon="3.31461">
        <ele>156.3</ele>
        <time>2025-10-20T13:33:19.000Z</time>
      </trkpt>
      <trkpt lat="49.33368" lon="3.31462">
        <ele>155.8</ele>
        <time>2025-10-20T13:33:20.000Z</time>
      </trkpt>
      <trkpt lat="49.33369" lon="3.31462">
        <ele>155.5</ele>
        <time>2025-10-20T13:33:21.000Z</time>
      </trkpt>
      <trkpt lat="49.33369" lon="3.31463">
        <ele>155.2</ele>
        <time>2025-10-20T13:33:22.000Z</time>
      </trkpt>
      <trkpt lat="49.33369" lon="3.31463">
        <ele>155.1</ele>
        <time>2025-10-20T13:33:23.000Z</time>
      </trkpt>
      <trkpt lat="49.33369" lon="3.31464">
        <ele>155.6</ele>
        <time>2025-10-20T13:33:24.000Z</time>
      </trkpt>
      <trkpt lat="49.33369" lon="3.31465">
        <ele>155.7</ele>
        <time>2025-10-20T13:33:25.000Z</time>
      </trkpt>
      <trkpt lat="49.33368" lon="3.31466">
        <ele>155.6</ele>
        <time>2025-10-20T13:33:26.000Z</time>
      </trkpt>
      <trkpt lat="49.33367" lon="3.31467">
        <ele>155.4</ele>
        <time>2025-10-20T13:33:27.000Z</time>
      </trkpt>
      <trkpt lat="49.33366" lon="3.31468">
        <ele>155.1</ele>
        <time>2025-10-20T13:33:28.000Z</time>
      </trkpt>
      <trkpt lat="49.33366" lon="3.31468">
        <ele>154.8</ele>
        <time>2025-10-20T13:33:29.000Z</time>
      </trkpt>
      <trkpt lat="49.33366" lon="3.31469">
        <ele>154.7</ele>
        <time>2025-10-20T13:33:30.000Z</time>
      </trkpt>
      <trkpt lat="49.33366" lon="3.31469">
        <ele>154.7</ele>
        <time>2025-10-20T13:33:31.000Z</time>
      </trkpt>
      <trkpt lat="49.33366" lon="3.31469">
        <ele>154.7</ele>
        <time>2025-10-20T13:33:32.000Z</time>
      </trkpt>
      <trkpt lat="49.33366" lon="3.3147">
        <ele>154.6</ele>
        <time>2025-10-20T13:33:33.000Z</time>
      </trkpt>
      <trkpt lat="49.33365" lon="3.3147">
        <ele>154.6</ele>
        <time>2025-10-20T13:33:34.000Z</time>
      </trkpt>
      <trkpt lat="49.33365" lon="3.3147">
        <ele>154.7</ele>
        <time>2025-10-20T13:33:35.000Z</time>
      </trkpt>
      <trkpt lat="49.33365" lon="3.3147">
        <ele>154.7</ele>
        <time>2025-10-20T13:33:36.000Z</time>
      </trkpt>
      <trkpt lat="49.33365" lon="3.31469">
        <ele>155</ele>
        <time>2025-10-20T13:33:37.000Z</time>
      </trkpt>
      <trkpt lat="49.33365" lon="3.31469">
        <ele>155</ele>
        <time>2025-10-20T13:33:38.000Z</time>
      </trkpt>
      <trkpt lat="49.33365" lon="3.31469">
        <ele>155</ele>
        <time>2025-10-20T13:33:39.000Z</time>
      </trkpt>
      <trkpt lat="49.33365" lon="3.31469">
        <ele>155</ele>
        <time>2025-10-20T13:33:40.000Z</time>
      </trkpt>
      <trkpt lat="49.33365" lon="3.31469">
        <ele>155</ele>
        <time>2025-10-20T13:33:41.000Z</time>
      </trkpt>
      <trkpt lat="49.33365" lon="3.31469">
        <ele>155</ele>
        <time>2025-10-20T13:33:42.000Z</time>
      </trkpt>
      <trkpt lat="49.33365" lon="3.31469">
        <ele>155</ele>
        <time>2025-10-20T13:33:43.000Z</time>
      </trkpt>
      <trkpt lat="49.33365" lon="3.31469">
        <ele>155</ele>
        <time>2025-10-20T13:33:44.000Z</time>
      </trkpt>
      <trkpt lat="49.33365" lon="3.31469">
        <ele>155</ele>
        <time>2025-10-20T13:33:45.000Z</time>
      </trkpt>
      <trkpt lat="49.33365" lon="3.31469">
        <ele>155</ele>
        <time>2025-10-20T13:33:46.000Z</time>
      </trkpt>
      <trkpt lat="49.33365" lon="3.31469">
        <ele>155</ele>
        <time>2025-10-20T13:33:47.000Z</time>
      </trkpt>
      <trkpt lat="49.33365" lon="3.31469">
        <ele>155</ele>
        <time>2025-10-20T13:33:48.000Z</time>
      </trkpt>
      <trkpt lat="49.33365" lon="3.31469">
        <ele>155</ele>
        <time>2025-10-20T13:33:49.000Z</time>
      </trkpt>
      <trkpt lat="49.33365" lon="3.31469">
        <ele>155</ele>
        <time>2025-10-20T13:33:50.000Z</time>
      </trkpt>
      <trkpt lat="49.33365" lon="3.31469">
        <ele>155</ele>
        <time>2025-10-20T13:33:51.000Z</time>
      </trkpt>
      <trkpt lat="49.33365" lon="3.31469">
        <ele>155</ele>
        <time>2025-10-20T13:33:52.000Z</time>
      </trkpt>
      <trkpt lat="49.33365" lon="3.31469">
        <ele>155</ele>
        <time>2025-10-20T13:33:53.000Z</time>
      </trkpt>
      <trkpt lat="49.3336" lon="3.31467">
        <ele>156.5</ele>
        <time>2025-10-20T13:33:54.000Z</time>
      </trkpt>
      <trkpt lat="49.3336" lon="3.31466">
        <ele>157</ele>
        <time>2025-10-20T13:33:55.000Z</time>
      </trkpt>
      <trkpt lat="49.33359" lon="3.31464">
        <ele>157.4</ele>
        <time>2025-10-20T13:33:56.000Z</time>
      </trkpt>
      <trkpt lat="49.33359" lon="3.31464">
        <ele>157.7</ele>
        <time>2025-10-20T13:33:57.000Z</time>
      </trkpt>
      <trkpt lat="49.33358" lon="3.31463">
        <ele>157.9</ele>
        <time>2025-10-20T13:33:58.000Z</time>
      </trkpt>
      <trkpt lat="49.33357" lon="3.31463">
        <ele>157.9</ele>
        <time>2025-10-20T13:33:59.000Z</time>
      </trkpt>
      <trkpt lat="49.33357" lon="3.31463">
        <ele>158.1</ele>
        <time>2025-10-20T13:34:00.000Z</time>
      </trkpt>
      <trkpt lat="49.33357" lon="3.31463">
        <ele>158.3</ele>
        <time>2025-10-20T13:34:01.000Z</time>
      </trkpt>
      <trkpt lat="49.33356" lon="3.31463">
        <ele>158.4</ele>
        <time>2025-10-20T13:34:02.000Z</time>
      </trkpt>
      <trkpt lat="49.33356" lon="3.31463">
        <ele>158.5</ele>
        <time>2025-10-20T13:34:03.000Z</time>
      </trkpt>
      <trkpt lat="49.33356" lon="3.31464">
        <ele>158.1</ele>
        <time>2025-10-20T13:34:04.000Z</time>
      </trkpt>
      <trkpt lat="49.33356" lon="3.31465">
        <ele>158</ele>
        <time>2025-10-20T13:34:05.000Z</time>
      </trkpt>
      <trkpt lat="49.33356" lon="3.31465">
        <ele>157.9</ele>
        <time>2025-10-20T13:34:06.000Z</time>
      </trkpt>
      <trkpt lat="49.33356" lon="3.31465">
        <ele>157.9</ele>
        <time>2025-10-20T13:34:07.000Z</time>
      </trkpt>
      <trkpt lat="49.33356" lon="3.31465">
        <ele>157.9</ele>
        <time>2025-10-20T13:34:08.000Z</time>
      </trkpt>
      <trkpt lat="49.33356" lon="3.31465">
        <ele>157.9</ele>
        <time>2025-10-20T13:34:09.000Z</time>
      </trkpt>
      <trkpt lat="49.33356" lon="3.31465">
        <ele>157.9</ele>
        <time>2025-10-20T13:34:10.000Z</time>
      </trkpt>
      <trkpt lat="49.33356" lon="3.31465">
        <ele>157.9</ele>
        <time>2025-10-20T13:34:11.000Z</time>
      </trkpt>
      <trkpt lat="49.33356" lon="3.31465">
        <ele>157.9</ele>
        <time>2025-10-20T13:34:12.000Z</time>
      </trkpt>
      <trkpt lat="49.33356" lon="3.31465">
        <ele>157.9</ele>
        <time>2025-10-20T13:34:13.000Z</time>
      </trkpt>
      <trkpt lat="49.33356" lon="3.31465">
        <ele>157.9</ele>
        <time>2025-10-20T13:34:14.000Z</time>
      </trkpt>
      <trkpt lat="49.33356" lon="3.31465">
        <ele>157.9</ele>
        <time>2025-10-20T13:34:15.000Z</time>
      </trkpt>
      <trkpt lat="49.33356" lon="3.31465">
        <ele>157.9</ele>
        <time>2025-10-20T13:34:16.000Z</time>
      </trkpt>
      <trkpt lat="49.33356" lon="3.31465">
        <ele>157.9</ele>
        <time>2025-10-20T13:34:17.000Z</time>
      </trkpt>
      <trkpt lat="49.33356" lon="3.31465">
        <ele>157.9</ele>
        <time>2025-10-20T13:34:18.000Z</time>
      </trkpt>
      <trkpt lat="49.33356" lon="3.31465">
        <ele>157.9</ele>
        <time>2025-10-20T13:34:19.000Z</time>
      </trkpt>
      <trkpt lat="49.33356" lon="3.31465">
        <ele>157.9</ele>
        <time>2025-10-20T13:34:20.000Z</time>
      </trkpt>
      <trkpt lat="49.33356" lon="3.31465">
        <ele>157.9</ele>
        <time>2025-10-20T13:34:21.000Z</time>
      </trkpt>
      <trkpt lat="49.33356" lon="3.31465">
        <ele>157.9</ele>
        <time>2025-10-20T13:34:22.000Z</time>
      </trkpt>
      <trkpt lat="49.33356" lon="3.31465">
        <ele>157.9</ele>
        <time>2025-10-20T13:34:23.000Z</time>
      </trkpt>
      <trkpt lat="49.33356" lon="3.31465">
        <ele>157.9</ele>
        <time>2025-10-20T13:34:24.000Z</time>
      </trkpt>
      <trkpt lat="49.33356" lon="3.31465">
        <ele>157.9</ele>
        <time>2025-10-20T13:34:25.000Z</time>
      </trkpt>
      <trkpt lat="49.33356" lon="3.31465">
        <ele>157.9</ele>
        <time>2025-10-20T13:34:26.000Z</time>
      </trkpt>
      <trkpt lat="49.33356" lon="3.31465">
        <ele>157.9</ele>
        <time>2025-10-20T13:34:27.000Z</time>
      </trkpt>
      <trkpt lat="49.33356" lon="3.31465">
        <ele>157.9</ele>
        <time>2025-10-20T13:34:28.000Z</time>
      </trkpt>
      <trkpt lat="49.33356" lon="3.31465">
        <ele>157.9</ele>
        <time>2025-10-20T13:34:29.000Z</time>
      </trkpt>
      <trkpt lat="49.33356" lon="3.31465">
        <ele>157.9</ele>
        <time>2025-10-20T13:34:30.000Z</time>
      </trkpt>
      <trkpt lat="49.33356" lon="3.31465">
        <ele>157.9</ele>
        <time>2025-10-20T13:34:31.000Z</time>
      </trkpt>
      <trkpt lat="49.33356" lon="3.31467">
        <ele>153.9</ele>
        <time>2025-10-20T13:34:32.000Z</time>
      </trkpt>
      <trkpt lat="49.33355" lon="3.31466">
        <ele>153.9</ele>
        <time>2025-10-20T13:34:33.000Z</time>
      </trkpt>
      <trkpt lat="49.33355" lon="3.31465">
        <ele>153.7</ele>
        <time>2025-10-20T13:34:34.000Z</time>
      </trkpt>
      <trkpt lat="49.33355" lon="3.31465">
        <ele>153.5</ele>
        <time>2025-10-20T13:34:35.000Z</time>
      </trkpt>
      <trkpt lat="49.33355" lon="3.31464">
        <ele>153.4</ele>
        <time>2025-10-20T13:34:36.000Z</time>
      </trkpt>
      <trkpt lat="49.33355" lon="3.31464">
        <ele>153.4</ele>
        <time>2025-10-20T13:34:37.000Z</time>
      </trkpt>
      <trkpt lat="49.33355" lon="3.31463">
        <ele>153.5</ele>
        <time>2025-10-20T13:34:38.000Z</time>
      </trkpt>
      <trkpt lat="49.33355" lon="3.31463">
        <ele>153.7</ele>
        <time>2025-10-20T13:34:39.000Z</time>
      </trkpt>
      <trkpt lat="49.33355" lon="3.31462">
        <ele>153.9</ele>
        <time>2025-10-20T13:34:40.000Z</time>
      </trkpt>
      <trkpt lat="49.33355" lon="3.31462">
        <ele>154</ele>
        <time>2025-10-20T13:34:41.000Z</time>
      </trkpt>
      <trkpt lat="49.33355" lon="3.31462">
        <ele>154</ele>
        <time>2025-10-20T13:34:42.000Z</time>
      </trkpt>
      <trkpt lat="49.33355" lon="3.31462">
        <ele>154</ele>
        <time>2025-10-20T13:34:43.000Z</time>
      </trkpt>
      <trkpt lat="49.33355" lon="3.31462">
        <ele>154</ele>
        <time>2025-10-20T13:34:44.000Z</time>
      </trkpt>
      <trkpt lat="49.33355" lon="3.31462">
        <ele>154</ele>
        <time>2025-10-20T13:34:45.000Z</time>
      </trkpt>
      <trkpt lat="49.33355" lon="3.31462">
        <ele>154</ele>
        <time>2025-10-20T13:34:46.000Z</time>
      </trkpt>
      <trkpt lat="49.33355" lon="3.31462">
        <ele>154</ele>
        <time>2025-10-20T13:34:47.000Z</time>
      </trkpt>
      <trkpt lat="49.33355" lon="3.31462">
        <ele>154</ele>
        <time>2025-10-20T13:34:48.000Z</time>
      </trkpt>
      <trkpt lat="49.33355" lon="3.31462">
        <ele>154</ele>
        <time>2025-10-20T13:34:49.000Z</time>
      </trkpt>
      <trkpt lat="49.33355" lon="3.31462">
        <ele>154</ele>
        <time>2025-10-20T13:34:50.000Z</time>
      </trkpt>
      <trkpt lat="49.33355" lon="3.31462">
        <ele>154</ele>
        <time>2025-10-20T13:34:51.000Z</time>
      </trkpt>
      <trkpt lat="49.33355" lon="3.31462">
        <ele>154</ele>
        <time>2025-10-20T13:34:52.000Z</time>
      </trkpt>
      <trkpt lat="49.33355" lon="3.31462">
        <ele>154</ele>
        <time>2025-10-20T13:34:53.000Z</time>
      </trkpt>
      <trkpt lat="49.33355" lon="3.31462">
        <ele>154</ele>
        <time>2025-10-20T13:34:54.000Z</time>
      </trkpt>
      <trkpt lat="49.33355" lon="3.31462">
        <ele>154</ele>
        <time>2025-10-20T13:34:55.000Z</time>
      </trkpt>
      <trkpt lat="49.33355" lon="3.31462">
        <ele>154</ele>
        <time>2025-10-20T13:34:56.000Z</time>
      </trkpt>
      <trkpt lat="49.33355" lon="3.31462">
        <ele>154</ele>
        <time>2025-10-20T13:34:57.000Z</time>
      </trkpt>
      <trkpt lat="49.33355" lon="3.31462">
        <ele>154</ele>
        <time>2025-10-20T13:34:58.000Z</time>
      </trkpt>
      <trkpt lat="49.33355" lon="3.31462">
        <ele>154</ele>
        <time>2025-10-20T13:34:59.000Z</time>
      </trkpt>
      <trkpt lat="49.33355" lon="3.31462">
        <ele>154</ele>
        <time>2025-10-20T13:35:00.000Z</time>
      </trkpt>
      <trkpt lat="49.33355" lon="3.31462">
        <ele>154</ele>
        <time>2025-10-20T13:35:01.000Z</time>
      </trkpt>
      <trkpt lat="49.33355" lon="3.31462">
        <ele>154</ele>
        <time>2025-10-20T13:35:02.000Z</time>
      </trkpt>
      <trkpt lat="49.33355" lon="3.31462">
        <ele>154</ele>
        <time>2025-10-20T13:35:03.000Z</time>
      </trkpt>
      <trkpt lat="49.33355" lon="3.31462">
        <ele>154</ele>
        <time>2025-10-20T13:35:04.000Z</time>
      </trkpt>
      <trkpt lat="49.33355" lon="3.31462">
        <ele>154</ele>
        <time>2025-10-20T13:35:05.000Z</time>
      </trkpt>
      <trkpt lat="49.33355" lon="3.31462">
        <ele>154</ele>
        <time>2025-10-20T13:35:06.000Z</time>
      </trkpt>
      <trkpt lat="49.33355" lon="3.31462">
        <ele>154</ele>
        <time>2025-10-20T13:35:07.000Z</time>
      </trkpt>
      <trkpt lat="49.33355" lon="3.31462">
        <ele>154</ele>
        <time>2025-10-20T13:35:08.000Z</time>
      </trkpt>
      <trkpt lat="49.33355" lon="3.31462">
        <ele>154</ele>
        <time>2025-10-20T13:35:09.000Z</time>
      </trkpt>
      <trkpt lat="49.33355" lon="3.31462">
        <ele>154</ele>
        <time>2025-10-20T13:35:10.000Z</time>
      </trkpt>
      <trkpt lat="49.33355" lon="3.31462">
        <ele>154</ele>
        <time>2025-10-20T13:35:11.000Z</time>
      </trkpt>
      <trkpt lat="49.33355" lon="3.31462">
        <ele>154</ele>
        <time>2025-10-20T13:35:12.000Z</time>
      </trkpt>
      <trkpt lat="49.33355" lon="3.31462">
        <ele>154</ele>
        <time>2025-10-20T13:35:13.000Z</time>
      </trkpt>
      <trkpt lat="49.33355" lon="3.31462">
        <ele>154</ele>
        <time>2025-10-20T13:35:14.000Z</time>
      </trkpt>
      <trkpt lat="49.33355" lon="3.31462">
        <ele>154</ele>
        <time>2025-10-20T13:35:15.000Z</time>
      </trkpt>
      <trkpt lat="49.33355" lon="3.31462">
        <ele>154</ele>
        <time>2025-10-20T13:35:16.000Z</time>
      </trkpt>
      <trkpt lat="49.33355" lon="3.31462">
        <ele>154</ele>
        <time>2025-10-20T13:35:17.000Z</time>
      </trkpt>
      <trkpt lat="49.33355" lon="3.31462">
        <ele>154</ele>
        <time>2025-10-20T13:35:18.000Z</time>
      </trkpt>
      <trkpt lat="49.33355" lon="3.31462">
        <ele>154</ele>
        <time>2025-10-20T13:35:19.000Z</time>
      </trkpt>
      <trkpt lat="49.33355" lon="3.31462">
        <ele>154</ele>
        <time>2025-10-20T13:35:20.000Z</time>
      </trkpt>
      <trkpt lat="49.33355" lon="3.31462">
        <ele>154</ele>
        <time>2025-10-20T13:35:21.000Z</time>
      </trkpt>
      <trkpt lat="49.33355" lon="3.31462">
        <ele>154</ele>
        <time>2025-10-20T13:35:22.000Z</time>
      </trkpt>
      <trkpt lat="49.33355" lon="3.31462">
        <ele>154</ele>
        <time>2025-10-20T13:35:23.000Z</time>
      </trkpt>
      <trkpt lat="49.33355" lon="3.31462">
        <ele>154</ele>
        <time>2025-10-20T13:35:24.000Z</time>
      </trkpt>
      <trkpt lat="49.33355" lon="3.31462">
        <ele>154</ele>
        <time>2025-10-20T13:35:25.000Z</time>
      </trkpt>
      <trkpt lat="49.33355" lon="3.31462">
        <ele>154</ele>
        <time>2025-10-20T13:35:26.000Z</time>
      </trkpt>
      <trkpt lat="49.33355" lon="3.31462">
        <ele>154</ele>
        <time>2025-10-20T13:35:27.000Z</time>
      </trkpt>
      <trkpt lat="49.33355" lon="3.31462">
        <ele>154</ele>
        <time>2025-10-20T13:35:28.000Z</time>
      </trkpt>
      <trkpt lat="49.33355" lon="3.31462">
        <ele>154</ele>
        <time>2025-10-20T13:35:29.000Z</time>
      </trkpt>
      <trkpt lat="49.33356" lon="3.31469">
        <ele>153.2</ele>
        <time>2025-10-20T13:35:30.000Z</time>
      </trkpt>
      <trkpt lat="49.33356" lon="3.31469">
        <ele>153.5</ele>
        <time>2025-10-20T13:35:31.000Z</time>
      </trkpt>
      <trkpt lat="49.33356" lon="3.3147">
        <ele>153.9</ele>
        <time>2025-10-20T13:35:32.000Z</time>
      </trkpt>
      <trkpt lat="49.33357" lon="3.3147">
        <ele>154.1</ele>
        <time>2025-10-20T13:35:33.000Z</time>
      </trkpt>
      <trkpt lat="49.33357" lon="3.3147">
        <ele>154</ele>
        <time>2025-10-20T13:35:34.000Z</time>
      </trkpt>
      <trkpt lat="49.33357" lon="3.3147">
        <ele>154.1</ele>
        <time>2025-10-20T13:35:35.000Z</time>
      </trkpt>
      <trkpt lat="49.33357" lon="3.3147">
        <ele>154.1</ele>
        <time>2025-10-20T13:35:36.000Z</time>
      </trkpt>
      <trkpt lat="49.33357" lon="3.3147">
        <ele>154.1</ele>
        <time>2025-10-20T13:35:37.000Z</time>
      </trkpt>
      <trkpt lat="49.33357" lon="3.3147">
        <ele>154.1</ele>
        <time>2025-10-20T13:35:38.000Z</time>
      </trkpt>
      <trkpt lat="49.33357" lon="3.3147">
        <ele>154.1</ele>
        <time>2025-10-20T13:35:39.000Z</time>
      </trkpt>
      <trkpt lat="49.33357" lon="3.3147">
        <ele>154.1</ele>
        <time>2025-10-20T13:35:40.000Z</time>
      </trkpt>
      <trkpt lat="49.33357" lon="3.3147">
        <ele>154.1</ele>
        <time>2025-10-20T13:35:41.000Z</time>
      </trkpt>
      <trkpt lat="49.33357" lon="3.3147">
        <ele>154.1</ele>
        <time>2025-10-20T13:35:42.000Z</time>
      </trkpt>
      <trkpt lat="49.33357" lon="3.3147">
        <ele>154.1</ele>
        <time>2025-10-20T13:35:43.000Z</time>
      </trkpt>
      <trkpt lat="49.33357" lon="3.3147">
        <ele>154.1</ele>
        <time>2025-10-20T13:35:44.000Z</time>
      </trkpt>
      <trkpt lat="49.33357" lon="3.3147">
        <ele>154.1</ele>
        <time>2025-10-20T13:35:45.000Z</time>
      </trkpt>
      <trkpt lat="49.33357" lon="3.3147">
        <ele>154.1</ele>
        <time>2025-10-20T13:35:46.000Z</time>
      </trkpt>
      <trkpt lat="49.33355" lon="3.31467">
        <ele>157.5</ele>
        <time>2025-10-20T13:35:47.000Z</time>
      </trkpt>
      <trkpt lat="49.33355" lon="3.31467">
        <ele>157.3</ele>
        <time>2025-10-20T13:35:48.000Z</time>
      </trkpt>
      <trkpt lat="49.33354" lon="3.31467">
        <ele>157.1</ele>
        <time>2025-10-20T13:35:49.000Z</time>
      </trkpt>
      <trkpt lat="49.33353" lon="3.31468">
        <ele>156.9</ele>
        <time>2025-10-20T13:35:50.000Z</time>
      </trkpt>
      <trkpt lat="49.33353" lon="3.31468">
        <ele>156.7</ele>
        <time>2025-10-20T13:35:51.000Z</time>
      </trkpt>
      <trkpt lat="49.33352" lon="3.31469">
        <ele>156.7</ele>
        <time>2025-10-20T13:35:52.000Z</time>
      </trkpt>
      <trkpt lat="49.33351" lon="3.31469">
        <ele>156.5</ele>
        <time>2025-10-20T13:35:53.000Z</time>
      </trkpt>
      <trkpt lat="49.3335" lon="3.31469">
        <ele>156.5</ele>
        <time>2025-10-20T13:35:54.000Z</time>
      </trkpt>
      <trkpt lat="49.3335" lon="3.31469">
        <ele>156.5</ele>
        <time>2025-10-20T13:35:55.000Z</time>
      </trkpt>
      <trkpt lat="49.33349" lon="3.31469">
        <ele>156.7</ele>
        <time>2025-10-20T13:35:56.000Z</time>
      </trkpt>
      <trkpt lat="49.33348" lon="3.31468">
        <ele>156.8</ele>
        <time>2025-10-20T13:35:57.000Z</time>
      </trkpt>
      <trkpt lat="49.33346" lon="3.31468">
        <ele>156.6</ele>
        <time>2025-10-20T13:35:58.000Z</time>
      </trkpt>
      <trkpt lat="49.33345" lon="3.31468">
        <ele>156.5</ele>
        <time>2025-10-20T13:35:59.000Z</time>
      </trkpt>
      <trkpt lat="49.33344" lon="3.31468">
        <ele>156.3</ele>
        <time>2025-10-20T13:36:00.000Z</time>
      </trkpt>
      <trkpt lat="49.33343" lon="3.31469">
        <ele>155.9</ele>
        <time>2025-10-20T13:36:01.000Z</time>
      </trkpt>
      <trkpt lat="49.33342" lon="3.31469">
        <ele>155.5</ele>
        <time>2025-10-20T13:36:02.000Z</time>
      </trkpt>
      <trkpt lat="49.33342" lon="3.31469">
        <ele>155.2</ele>
        <time>2025-10-20T13:36:03.000Z</time>
      </trkpt>
      <trkpt lat="49.33341" lon="3.3147">
        <ele>154.9</ele>
        <time>2025-10-20T13:36:04.000Z</time>
      </trkpt>
      <trkpt lat="49.33341" lon="3.3147">
        <ele>154.5</ele>
        <time>2025-10-20T13:36:05.000Z</time>
      </trkpt>
      <trkpt lat="49.3334" lon="3.31471">
        <ele>153.9</ele>
        <time>2025-10-20T13:36:06.000Z</time>
      </trkpt>
      <trkpt lat="49.3334" lon="3.31472">
        <ele>153.4</ele>
        <time>2025-10-20T13:36:07.000Z</time>
      </trkpt>
      <trkpt lat="49.33339" lon="3.31472">
        <ele>153</ele>
        <time>2025-10-20T13:36:08.000Z</time>
      </trkpt>
      <trkpt lat="49.33339" lon="3.31472">
        <ele>152.5</ele>
        <time>2025-10-20T13:36:09.000Z</time>
      </trkpt>
      <trkpt lat="49.33339" lon="3.31473">
        <ele>152.2</ele>
        <time>2025-10-20T13:36:10.000Z</time>
      </trkpt>
      <trkpt lat="49.33338" lon="3.31473">
        <ele>152.3</ele>
        <time>2025-10-20T13:36:11.000Z</time>
      </trkpt>
      <trkpt lat="49.33337" lon="3.31474">
        <ele>152</ele>
        <time>2025-10-20T13:36:12.000Z</time>
      </trkpt>
      <trkpt lat="49.33336" lon="3.31475">
        <ele>151.7</ele>
        <time>2025-10-20T13:36:13.000Z</time>
      </trkpt>
      <trkpt lat="49.33336" lon="3.31476">
        <ele>151.2</ele>
        <time>2025-10-20T13:36:14.000Z</time>
      </trkpt>
      <trkpt lat="49.33335" lon="3.31477">
        <ele>150.9</ele>
        <time>2025-10-20T13:36:15.000Z</time>
      </trkpt>
      <trkpt lat="49.33334" lon="3.31478">
        <ele>150.6</ele>
        <time>2025-10-20T13:36:16.000Z</time>
      </trkpt>
      <trkpt lat="49.33334" lon="3.31479">
        <ele>150.5</ele>
        <time>2025-10-20T13:36:17.000Z</time>
      </trkpt>
      <trkpt lat="49.33333" lon="3.3148">
        <ele>150.5</ele>
        <time>2025-10-20T13:36:18.000Z</time>
      </trkpt>
      <trkpt lat="49.33333" lon="3.3148">
        <ele>150.3</ele>
        <time>2025-10-20T13:36:19.000Z</time>
      </trkpt>
      <trkpt lat="49.33332" lon="3.31481">
        <ele>150</ele>
        <time>2025-10-20T13:36:20.000Z</time>
      </trkpt>
      <trkpt lat="49.33332" lon="3.31482">
        <ele>149.8</ele>
        <time>2025-10-20T13:36:21.000Z</time>
      </trkpt>
      <trkpt lat="49.33331" lon="3.31483">
        <ele>149.7</ele>
        <time>2025-10-20T13:36:22.000Z</time>
      </trkpt>
      <trkpt lat="49.33331" lon="3.31483">
        <ele>149.7</ele>
        <time>2025-10-20T13:36:23.000Z</time>
      </trkpt>
      <trkpt lat="49.3333" lon="3.31484">
        <ele>149.9</ele>
        <time>2025-10-20T13:36:24.000Z</time>
      </trkpt>
      <trkpt lat="49.33329" lon="3.31486">
        <ele>149.7</ele>
        <time>2025-10-20T13:36:25.000Z</time>
      </trkpt>
      <trkpt lat="49.33328" lon="3.31487">
        <ele>149.3</ele>
        <time>2025-10-20T13:36:26.000Z</time>
      </trkpt>
      <trkpt lat="49.33328" lon="3.31488">
        <ele>149.3</ele>
        <time>2025-10-20T13:36:27.000Z</time>
      </trkpt>
      <trkpt lat="49.33327" lon="3.31489">
        <ele>149.4</ele>
        <time>2025-10-20T13:36:28.000Z</time>
      </trkpt>
      <trkpt lat="49.33327" lon="3.3149">
        <ele>149.5</ele>
        <time>2025-10-20T13:36:29.000Z</time>
      </trkpt>
      <trkpt lat="49.33326" lon="3.3149">
        <ele>149.7</ele>
        <time>2025-10-20T13:36:30.000Z</time>
      </trkpt>
      <trkpt lat="49.33327" lon="3.31491">
        <ele>149.8</ele>
        <time>2025-10-20T13:36:31.000Z</time>
      </trkpt>
      <trkpt lat="49.33326" lon="3.31493">
        <ele>149.8</ele>
        <time>2025-10-20T13:36:32.000Z</time>
      </trkpt>
      <trkpt lat="49.33326" lon="3.31494">
        <ele>150</ele>
        <time>2025-10-20T13:36:33.000Z</time>
      </trkpt>
      <trkpt lat="49.33325" lon="3.31495">
        <ele>150.1</ele>
        <time>2025-10-20T13:36:34.000Z</time>
      </trkpt>
      <trkpt lat="49.33325" lon="3.31496">
        <ele>150</ele>
        <time>2025-10-20T13:36:35.000Z</time>
      </trkpt>
      <trkpt lat="49.33324" lon="3.31498">
        <ele>149.9</ele>
        <time>2025-10-20T13:36:36.000Z</time>
      </trkpt>
      <trkpt lat="49.33324" lon="3.31498">
        <ele>149.6</ele>
        <time>2025-10-20T13:36:37.000Z</time>
      </trkpt>
      <trkpt lat="49.33324" lon="3.31499">
        <ele>149.7</ele>
        <time>2025-10-20T13:36:38.000Z</time>
      </trkpt>
      <trkpt lat="49.33324" lon="3.31498">
        <ele>149.9</ele>
        <time>2025-10-20T13:36:39.000Z</time>
      </trkpt>
      <trkpt lat="49.33323" lon="3.31499">
        <ele>150.1</ele>
        <time>2025-10-20T13:36:40.000Z</time>
      </trkpt>
      <trkpt lat="49.33324" lon="3.315">
        <ele>150.3</ele>
        <time>2025-10-20T13:36:41.000Z</time>
      </trkpt>
      <trkpt lat="49.33323" lon="3.31501">
        <ele>150.5</ele>
        <time>2025-10-20T13:36:42.000Z</time>
      </trkpt>
      <trkpt lat="49.33323" lon="3.31501">
        <ele>150.9</ele>
        <time>2025-10-20T13:36:43.000Z</time>
      </trkpt>
      <trkpt lat="49.33323" lon="3.31502">
        <ele>151.4</ele>
        <time>2025-10-20T13:36:44.000Z</time>
      </trkpt>
      <trkpt lat="49.33322" lon="3.31503">
        <ele>151.5</ele>
        <time>2025-10-20T13:36:45.000Z</time>
      </trkpt>
      <trkpt lat="49.33321" lon="3.31502">
        <ele>151.3</ele>
        <time>2025-10-20T13:36:46.000Z</time>
      </trkpt>
      <trkpt lat="49.3332" lon="3.31503">
        <ele>151.2</ele>
        <time>2025-10-20T13:36:47.000Z</time>
      </trkpt>
      <trkpt lat="49.3332" lon="3.31503">
        <ele>151</ele>
        <time>2025-10-20T13:36:48.000Z</time>
      </trkpt>
      <trkpt lat="49.3332" lon="3.31504">
        <ele>150.9</ele>
        <time>2025-10-20T13:36:49.000Z</time>
      </trkpt>
      <trkpt lat="49.3332" lon="3.31505">
        <ele>151</ele>
        <time>2025-10-20T13:36:50.000Z</time>
      </trkpt>
      <trkpt lat="49.3332" lon="3.31505">
        <ele>150.9</ele>
        <time>2025-10-20T13:36:51.000Z</time>
      </trkpt>
      <trkpt lat="49.3332" lon="3.31506">
        <ele>150.9</ele>
        <time>2025-10-20T13:36:52.000Z</time>
      </trkpt>
      <trkpt lat="49.33319" lon="3.31507">
        <ele>151.4</ele>
        <time>2025-10-20T13:36:53.000Z</time>
      </trkpt>
      <trkpt lat="49.33319" lon="3.31508">
        <ele>151.6</ele>
        <time>2025-10-20T13:36:54.000Z</time>
      </trkpt>
      <trkpt lat="49.33318" lon="3.3151">
        <ele>151.6</ele>
        <time>2025-10-20T13:36:55.000Z</time>
      </trkpt>
      <trkpt lat="49.33318" lon="3.31511">
        <ele>151.6</ele>
        <time>2025-10-20T13:36:56.000Z</time>
      </trkpt>
      <trkpt lat="49.33317" lon="3.31513">
        <ele>151.4</ele>
        <time>2025-10-20T13:36:57.000Z</time>
      </trkpt>
      <trkpt lat="49.33317" lon="3.31515">
        <ele>151.1</ele>
        <time>2025-10-20T13:36:58.000Z</time>
      </trkpt>
      <trkpt lat="49.33317" lon="3.31517">
        <ele>151.1</ele>
        <time>2025-10-20T13:36:59.000Z</time>
      </trkpt>
      <trkpt lat="49.33316" lon="3.3152">
        <ele>150.8</ele>
        <time>2025-10-20T13:37:00.000Z</time>
      </trkpt>
      <trkpt lat="49.33316" lon="3.31521">
        <ele>150.6</ele>
        <time>2025-10-20T13:37:01.000Z</time>
      </trkpt>
      <trkpt lat="49.33316" lon="3.31523">
        <ele>150.4</ele>
        <time>2025-10-20T13:37:02.000Z</time>
      </trkpt>
      <trkpt lat="49.33315" lon="3.31525">
        <ele>150.3</ele>
        <time>2025-10-20T13:37:03.000Z</time>
      </trkpt>
      <trkpt lat="49.33315" lon="3.31526">
        <ele>149.9</ele>
        <time>2025-10-20T13:37:04.000Z</time>
      </trkpt>
      <trkpt lat="49.33315" lon="3.31527">
        <ele>149.1</ele>
        <time>2025-10-20T13:37:05.000Z</time>
      </trkpt>
      <trkpt lat="49.33315" lon="3.31528">
        <ele>148.3</ele>
        <time>2025-10-20T13:37:06.000Z</time>
      </trkpt>
      <trkpt lat="49.33315" lon="3.3153">
        <ele>147.7</ele>
        <time>2025-10-20T13:37:07.000Z</time>
      </trkpt>
      <trkpt lat="49.33315" lon="3.31531">
        <ele>147.1</ele>
        <time>2025-10-20T13:37:08.000Z</time>
      </trkpt>
      <trkpt lat="49.33315" lon="3.31533">
        <ele>146.5</ele>
        <time>2025-10-20T13:37:09.000Z</time>
      </trkpt>
      <trkpt lat="49.33315" lon="3.31534">
        <ele>145.8</ele>
        <time>2025-10-20T13:37:10.000Z</time>
      </trkpt>
      <trkpt lat="49.33315" lon="3.31536">
        <ele>145</ele>
        <time>2025-10-20T13:37:11.000Z</time>
      </trkpt>
      <trkpt lat="49.33314" lon="3.31538">
        <ele>144.5</ele>
        <time>2025-10-20T13:37:12.000Z</time>
      </trkpt>
      <trkpt lat="49.33314" lon="3.31539">
        <ele>144</ele>
        <time>2025-10-20T13:37:13.000Z</time>
      </trkpt>
      <trkpt lat="49.33313" lon="3.31541">
        <ele>143.6</ele>
        <time>2025-10-20T13:37:14.000Z</time>
      </trkpt>
      <trkpt lat="49.33313" lon="3.31542">
        <ele>143.2</ele>
        <time>2025-10-20T13:37:15.000Z</time>
      </trkpt>
      <trkpt lat="49.33313" lon="3.31544">
        <ele>143.2</ele>
        <time>2025-10-20T13:37:16.000Z</time>
      </trkpt>
      <trkpt lat="49.33313" lon="3.31545">
        <ele>142.9</ele>
        <time>2025-10-20T13:37:17.000Z</time>
      </trkpt>
      <trkpt lat="49.33313" lon="3.31547">
        <ele>142.6</ele>
        <time>2025-10-20T13:37:18.000Z</time>
      </trkpt>
      <trkpt lat="49.33313" lon="3.31548">
        <ele>142.6</ele>
        <time>2025-10-20T13:37:19.000Z</time>
      </trkpt>
      <trkpt lat="49.33313" lon="3.31549">
        <ele>142.7</ele>
        <time>2025-10-20T13:37:20.000Z</time>
      </trkpt>
      <trkpt lat="49.33314" lon="3.3155">
        <ele>142.5</ele>
        <time>2025-10-20T13:37:21.000Z</time>
      </trkpt>
      <trkpt lat="49.33314" lon="3.31551">
        <ele>142.6</ele>
        <time>2025-10-20T13:37:22.000Z</time>
      </trkpt>
      <trkpt lat="49.33315" lon="3.31553">
        <ele>142.5</ele>
        <time>2025-10-20T13:37:23.000Z</time>
      </trkpt>
      <trkpt lat="49.33315" lon="3.31553">
        <ele>142.5</ele>
        <time>2025-10-20T13:37:24.000Z</time>
      </trkpt>
      <trkpt lat="49.33315" lon="3.31555">
        <ele>142.5</ele>
        <time>2025-10-20T13:37:25.000Z</time>
      </trkpt>
      <trkpt lat="49.33316" lon="3.31556">
        <ele>142.4</ele>
        <time>2025-10-20T13:37:26.000Z</time>
      </trkpt>
      <trkpt lat="49.33316" lon="3.31559">
        <ele>142.1</ele>
        <time>2025-10-20T13:37:27.000Z</time>
      </trkpt>
      <trkpt lat="49.33316" lon="3.31561">
        <ele>141.6</ele>
        <time>2025-10-20T13:37:28.000Z</time>
      </trkpt>
      <trkpt lat="49.33317" lon="3.31563">
        <ele>141.1</ele>
        <time>2025-10-20T13:37:29.000Z</time>
      </trkpt>
      <trkpt lat="49.33317" lon="3.31565">
        <ele>140.7</ele>
        <time>2025-10-20T13:37:30.000Z</time>
      </trkpt>
      <trkpt lat="49.33317" lon="3.31568">
        <ele>140.2</ele>
        <time>2025-10-20T13:37:31.000Z</time>
      </trkpt>
      <trkpt lat="49.33317" lon="3.3157">
        <ele>139.9</ele>
        <time>2025-10-20T13:37:32.000Z</time>
      </trkpt>
      <trkpt lat="49.33317" lon="3.31571">
        <ele>139.7</ele>
        <time>2025-10-20T13:37:33.000Z</time>
      </trkpt>
      <trkpt lat="49.33317" lon="3.31572">
        <ele>139.6</ele>
        <time>2025-10-20T13:37:34.000Z</time>
      </trkpt>
      <trkpt lat="49.33316" lon="3.31573">
        <ele>139.3</ele>
        <time>2025-10-20T13:37:35.000Z</time>
      </trkpt>
      <trkpt lat="49.33316" lon="3.31574">
        <ele>139.2</ele>
        <time>2025-10-20T13:37:36.000Z</time>
      </trkpt>
      <trkpt lat="49.33316" lon="3.31575">
        <ele>138.9</ele>
        <time>2025-10-20T13:37:37.000Z</time>
      </trkpt>
      <trkpt lat="49.33317" lon="3.31577">
        <ele>139</ele>
        <time>2025-10-20T13:37:38.000Z</time>
      </trkpt>
      <trkpt lat="49.33316" lon="3.31578">
        <ele>139.2</ele>
        <time>2025-10-20T13:37:39.000Z</time>
      </trkpt>
      <trkpt lat="49.33317" lon="3.31579">
        <ele>139.6</ele>
        <time>2025-10-20T13:37:40.000Z</time>
      </trkpt>
      <trkpt lat="49.33316" lon="3.3158">
        <ele>139.9</ele>
        <time>2025-10-20T13:37:41.000Z</time>
      </trkpt>
      <trkpt lat="49.33316" lon="3.31581">
        <ele>140.3</ele>
        <time>2025-10-20T13:37:42.000Z</time>
      </trkpt>
      <trkpt lat="49.33316" lon="3.31583">
        <ele>140.5</ele>
        <time>2025-10-20T13:37:43.000Z</time>
      </trkpt>
      <trkpt lat="49.33316" lon="3.31583">
        <ele>140.5</ele>
        <time>2025-10-20T13:37:44.000Z</time>
      </trkpt>
      <trkpt lat="49.33316" lon="3.31585">
        <ele>140.4</ele>
        <time>2025-10-20T13:37:45.000Z</time>
      </trkpt>
      <trkpt lat="49.33316" lon="3.31586">
        <ele>140.1</ele>
        <time>2025-10-20T13:37:46.000Z</time>
      </trkpt>
      <trkpt lat="49.33316" lon="3.31588">
        <ele>140</ele>
        <time>2025-10-20T13:37:47.000Z</time>
      </trkpt>
      <trkpt lat="49.33316" lon="3.31589">
        <ele>139.8</ele>
        <time>2025-10-20T13:37:48.000Z</time>
      </trkpt>
      <trkpt lat="49.33316" lon="3.31591">
        <ele>139.7</ele>
        <time>2025-10-20T13:37:49.000Z</time>
      </trkpt>
      <trkpt lat="49.33316" lon="3.31592">
        <ele>139.5</ele>
        <time>2025-10-20T13:37:50.000Z</time>
      </trkpt>
      <trkpt lat="49.33316" lon="3.31593">
        <ele>139.3</ele>
        <time>2025-10-20T13:37:51.000Z</time>
      </trkpt>
      <trkpt lat="49.33316" lon="3.31594">
        <ele>139.2</ele>
        <time>2025-10-20T13:37:52.000Z</time>
      </trkpt>
      <trkpt lat="49.33316" lon="3.31596">
        <ele>139.1</ele>
        <time>2025-10-20T13:37:53.000Z</time>
      </trkpt>
      <trkpt lat="49.33316" lon="3.31597">
        <ele>138.9</ele>
        <time>2025-10-20T13:37:54.000Z</time>
      </trkpt>
      <trkpt lat="49.33316" lon="3.31598">
        <ele>139.1</ele>
        <time>2025-10-20T13:37:55.000Z</time>
      </trkpt>
      <trkpt lat="49.33315" lon="3.31599">
        <ele>139.2</ele>
        <time>2025-10-20T13:37:56.000Z</time>
      </trkpt>
      <trkpt lat="49.33315" lon="3.31601">
        <ele>139.2</ele>
        <time>2025-10-20T13:37:57.000Z</time>
      </trkpt>
      <trkpt lat="49.33315" lon="3.31602">
        <ele>139.2</ele>
        <time>2025-10-20T13:37:58.000Z</time>
      </trkpt>
      <trkpt lat="49.33315" lon="3.31604">
        <ele>139.2</ele>
        <time>2025-10-20T13:37:59.000Z</time>
      </trkpt>
      <trkpt lat="49.33315" lon="3.31606">
        <ele>139.3</ele>
        <time>2025-10-20T13:38:00.000Z</time>
      </trkpt>
      <trkpt lat="49.33314" lon="3.31607">
        <ele>139.5</ele>
        <time>2025-10-20T13:38:01.000Z</time>
      </trkpt>
      <trkpt lat="49.33314" lon="3.31608">
        <ele>139.5</ele>
        <time>2025-10-20T13:38:02.000Z</time>
      </trkpt>
      <trkpt lat="49.33314" lon="3.3161">
        <ele>139.6</ele>
        <time>2025-10-20T13:38:03.000Z</time>
      </trkpt>
      <trkpt lat="49.33314" lon="3.31612">
        <ele>139.5</ele>
        <time>2025-10-20T13:38:04.000Z</time>
      </trkpt>
      <trkpt lat="49.33314" lon="3.31613">
        <ele>139.2</ele>
        <time>2025-10-20T13:38:05.000Z</time>
      </trkpt>
      <trkpt lat="49.33314" lon="3.31614">
        <ele>138.9</ele>
        <time>2025-10-20T13:38:06.000Z</time>
      </trkpt>
      <trkpt lat="49.33313" lon="3.31615">
        <ele>138.6</ele>
        <time>2025-10-20T13:38:07.000Z</time>
      </trkpt>
      <trkpt lat="49.33313" lon="3.31616">
        <ele>138.2</ele>
        <time>2025-10-20T13:38:08.000Z</time>
      </trkpt>
      <trkpt lat="49.33313" lon="3.31617">
        <ele>138.1</ele>
        <time>2025-10-20T13:38:09.000Z</time>
      </trkpt>
      <trkpt lat="49.33313" lon="3.31618">
        <ele>138</ele>
        <time>2025-10-20T13:38:10.000Z</time>
      </trkpt>
      <trkpt lat="49.33313" lon="3.31619">
        <ele>138</ele>
        <time>2025-10-20T13:38:11.000Z</time>
      </trkpt>
      <trkpt lat="49.33313" lon="3.3162">
        <ele>138</ele>
        <time>2025-10-20T13:38:12.000Z</time>
      </trkpt>
      <trkpt lat="49.33312" lon="3.31622">
        <ele>138.2</ele>
        <time>2025-10-20T13:38:13.000Z</time>
      </trkpt>
      <trkpt lat="49.33312" lon="3.31622">
        <ele>137.9</ele>
        <time>2025-10-20T13:38:14.000Z</time>
      </trkpt>
      <trkpt lat="49.33312" lon="3.31624">
        <ele>137.6</ele>
        <time>2025-10-20T13:38:15.000Z</time>
      </trkpt>
      <trkpt lat="49.33311" lon="3.31625">
        <ele>137.2</ele>
        <time>2025-10-20T13:38:16.000Z</time>
      </trkpt>
      <trkpt lat="49.33311" lon="3.31627">
        <ele>137.1</ele>
        <time>2025-10-20T13:38:17.000Z</time>
      </trkpt>
      <trkpt lat="49.3331" lon="3.31629">
        <ele>136.8</ele>
        <time>2025-10-20T13:38:18.000Z</time>
      </trkpt>
      <trkpt lat="49.33309" lon="3.3163">
        <ele>136.6</ele>
        <time>2025-10-20T13:38:19.000Z</time>
      </trkpt>
      <trkpt lat="49.33309" lon="3.31632">
        <ele>136.4</ele>
        <time>2025-10-20T13:38:20.000Z</time>
      </trkpt>
      <trkpt lat="49.33308" lon="3.31633">
        <ele>136</ele>
        <time>2025-10-20T13:38:21.000Z</time>
      </trkpt>
      <trkpt lat="49.33308" lon="3.31635">
        <ele>135.9</ele>
        <time>2025-10-20T13:38:22.000Z</time>
      </trkpt>
      <trkpt lat="49.33308" lon="3.31637">
        <ele>135.6</ele>
        <time>2025-10-20T13:38:23.000Z</time>
      </trkpt>
      <trkpt lat="49.33308" lon="3.31638">
        <ele>135.4</ele>
        <time>2025-10-20T13:38:24.000Z</time>
      </trkpt>
      <trkpt lat="49.33307" lon="3.31639">
        <ele>134.9</ele>
        <time>2025-10-20T13:38:25.000Z</time>
      </trkpt>
      <trkpt lat="49.33307" lon="3.3164">
        <ele>134.8</ele>
        <time>2025-10-20T13:38:26.000Z</time>
      </trkpt>
      <trkpt lat="49.33307" lon="3.31641">
        <ele>135</ele>
        <time>2025-10-20T13:38:27.000Z</time>
      </trkpt>
      <trkpt lat="49.33306" lon="3.31642">
        <ele>135.3</ele>
        <time>2025-10-20T13:38:28.000Z</time>
      </trkpt>
      <trkpt lat="49.33305" lon="3.31643">
        <ele>135.2</ele>
        <time>2025-10-20T13:38:29.000Z</time>
      </trkpt>
      <trkpt lat="49.33305" lon="3.31644">
        <ele>134.9</ele>
        <time>2025-10-20T13:38:30.000Z</time>
      </trkpt>
      <trkpt lat="49.33304" lon="3.31646">
        <ele>134.6</ele>
        <time>2025-10-20T13:38:31.000Z</time>
      </trkpt>
      <trkpt lat="49.33303" lon="3.31647">
        <ele>134.1</ele>
        <time>2025-10-20T13:38:32.000Z</time>
      </trkpt>
      <trkpt lat="49.33302" lon="3.31649">
        <ele>133.9</ele>
        <time>2025-10-20T13:38:33.000Z</time>
      </trkpt>
      <trkpt lat="49.33301" lon="3.3165">
        <ele>133.6</ele>
        <time>2025-10-20T13:38:34.000Z</time>
      </trkpt>
      <trkpt lat="49.33301" lon="3.31651">
        <ele>133.5</ele>
        <time>2025-10-20T13:38:35.000Z</time>
      </trkpt>
      <trkpt lat="49.333" lon="3.31653">
        <ele>133.1</ele>
        <time>2025-10-20T13:38:36.000Z</time>
      </trkpt>
      <trkpt lat="49.33299" lon="3.31654">
        <ele>132.7</ele>
        <time>2025-10-20T13:38:37.000Z</time>
      </trkpt>
      <trkpt lat="49.33298" lon="3.31656">
        <ele>132.4</ele>
        <time>2025-10-20T13:38:38.000Z</time>
      </trkpt>
      <trkpt lat="49.33297" lon="3.31657">
        <ele>131.9</ele>
        <time>2025-10-20T13:38:39.000Z</time>
      </trkpt>
      <trkpt lat="49.33296" lon="3.31658">
        <ele>131.6</ele>
        <time>2025-10-20T13:38:40.000Z</time>
      </trkpt>
      <trkpt lat="49.33295" lon="3.31659">
        <ele>131.4</ele>
        <time>2025-10-20T13:38:41.000Z</time>
      </trkpt>
      <trkpt lat="49.33295" lon="3.3166">
        <ele>131.2</ele>
        <time>2025-10-20T13:38:42.000Z</time>
      </trkpt>
      <trkpt lat="49.33294" lon="3.31661">
        <ele>130.8</ele>
        <time>2025-10-20T13:38:43.000Z</time>
      </trkpt>
      <trkpt lat="49.33293" lon="3.31662">
        <ele>130.4</ele>
        <time>2025-10-20T13:38:44.000Z</time>
      </trkpt>
      <trkpt lat="49.33293" lon="3.31663">
        <ele>130.3</ele>
        <time>2025-10-20T13:38:45.000Z</time>
      </trkpt>
      <trkpt lat="49.33292" lon="3.31664">
        <ele>129.9</ele>
        <time>2025-10-20T13:38:46.000Z</time>
      </trkpt>
      <trkpt lat="49.33291" lon="3.31665">
        <ele>129.3</ele>
        <time>2025-10-20T13:38:47.000Z</time>
      </trkpt>
      <trkpt lat="49.3329" lon="3.31667">
        <ele>128.8</ele>
        <time>2025-10-20T13:38:48.000Z</time>
      </trkpt>
      <trkpt lat="49.3329" lon="3.31667">
        <ele>128.5</ele>
        <time>2025-10-20T13:38:49.000Z</time>
      </trkpt>
      <trkpt lat="49.33289" lon="3.31669">
        <ele>128.1</ele>
        <time>2025-10-20T13:38:50.000Z</time>
      </trkpt>
      <trkpt lat="49.33288" lon="3.3167">
        <ele>127.6</ele>
        <time>2025-10-20T13:38:51.000Z</time>
      </trkpt>
      <trkpt lat="49.33288" lon="3.31672">
        <ele>127.3</ele>
        <time>2025-10-20T13:38:52.000Z</time>
      </trkpt>
      <trkpt lat="49.33288" lon="3.31673">
        <ele>126.9</ele>
        <time>2025-10-20T13:38:53.000Z</time>
      </trkpt>
      <trkpt lat="49.33288" lon="3.31675">
        <ele>126.7</ele>
        <time>2025-10-20T13:38:54.000Z</time>
      </trkpt>
      <trkpt lat="49.33287" lon="3.31676">
        <ele>126.6</ele>
        <time>2025-10-20T13:38:55.000Z</time>
      </trkpt>
      <trkpt lat="49.33287" lon="3.31677">
        <ele>126.4</ele>
        <time>2025-10-20T13:38:56.000Z</time>
      </trkpt>
      <trkpt lat="49.33287" lon="3.31678">
        <ele>126.4</ele>
        <time>2025-10-20T13:38:57.000Z</time>
      </trkpt>
      <trkpt lat="49.33286" lon="3.31679">
        <ele>126.3</ele>
        <time>2025-10-20T13:38:58.000Z</time>
      </trkpt>
      <trkpt lat="49.33286" lon="3.3168">
        <ele>126.2</ele>
        <time>2025-10-20T13:38:59.000Z</time>
      </trkpt>
      <trkpt lat="49.33286" lon="3.31682">
        <ele>126</ele>
        <time>2025-10-20T13:39:00.000Z</time>
      </trkpt>
      <trkpt lat="49.33285" lon="3.31683">
        <ele>126</ele>
        <time>2025-10-20T13:39:01.000Z</time>
      </trkpt>
      <trkpt lat="49.33285" lon="3.31685">
        <ele>125.9</ele>
        <time>2025-10-20T13:39:02.000Z</time>
      </trkpt>
      <trkpt lat="49.33285" lon="3.31687">
        <ele>125.8</ele>
        <time>2025-10-20T13:39:03.000Z</time>
      </trkpt>
      <trkpt lat="49.33285" lon="3.31689">
        <ele>125.5</ele>
        <time>2025-10-20T13:39:04.000Z</time>
      </trkpt>
      <trkpt lat="49.33285" lon="3.31691">
        <ele>125.4</ele>
        <time>2025-10-20T13:39:05.000Z</time>
      </trkpt>
      <trkpt lat="49.33286" lon="3.31693">
        <ele>125.2</ele>
        <time>2025-10-20T13:39:06.000Z</time>
      </trkpt>
      <trkpt lat="49.33286" lon="3.31693">
        <ele>125.4</ele>
        <time>2025-10-20T13:39:07.000Z</time>
      </trkpt>
      <trkpt lat="49.33285" lon="3.31695">
        <ele>125.2</ele>
        <time>2025-10-20T13:39:08.000Z</time>
      </trkpt>
      <trkpt lat="49.33284" lon="3.31696">
        <ele>125.2</ele>
        <time>2025-10-20T13:39:09.000Z</time>
      </trkpt>
      <trkpt lat="49.33283" lon="3.31698">
        <ele>125</ele>
        <time>2025-10-20T13:39:10.000Z</time>
      </trkpt>
      <trkpt lat="49.33282" lon="3.31699">
        <ele>125.2</ele>
        <time>2025-10-20T13:39:11.000Z</time>
      </trkpt>
      <trkpt lat="49.33281" lon="3.317">
        <ele>125.3</ele>
        <time>2025-10-20T13:39:12.000Z</time>
      </trkpt>
      <trkpt lat="49.33281" lon="3.31703">
        <ele>125.2</ele>
        <time>2025-10-20T13:39:13.000Z</time>
      </trkpt>
      <trkpt lat="49.33281" lon="3.31705">
        <ele>125.1</ele>
        <time>2025-10-20T13:39:14.000Z</time>
      </trkpt>
      <trkpt lat="49.33281" lon="3.31707">
        <ele>125.2</ele>
        <time>2025-10-20T13:39:15.000Z</time>
      </trkpt>
      <trkpt lat="49.33281" lon="3.31709">
        <ele>125.3</ele>
        <time>2025-10-20T13:39:16.000Z</time>
      </trkpt>
      <trkpt lat="49.33281" lon="3.3171">
        <ele>125.9</ele>
        <time>2025-10-20T13:39:17.000Z</time>
      </trkpt>
      <trkpt lat="49.33281" lon="3.31712">
        <ele>126.3</ele>
        <time>2025-10-20T13:39:18.000Z</time>
      </trkpt>
      <trkpt lat="49.33281" lon="3.31713">
        <ele>126.8</ele>
        <time>2025-10-20T13:39:19.000Z</time>
      </trkpt>
      <trkpt lat="49.33281" lon="3.31715">
        <ele>127.4</ele>
        <time>2025-10-20T13:39:20.000Z</time>
      </trkpt>
      <trkpt lat="49.33281" lon="3.31716">
        <ele>127.9</ele>
        <time>2025-10-20T13:39:21.000Z</time>
      </trkpt>
      <trkpt lat="49.33281" lon="3.31718">
        <ele>128.4</ele>
        <time>2025-10-20T13:39:22.000Z</time>
      </trkpt>
      <trkpt lat="49.3328" lon="3.31719">
        <ele>128.9</ele>
        <time>2025-10-20T13:39:23.000Z</time>
      </trkpt>
      <trkpt lat="49.3328" lon="3.31721">
        <ele>129.4</ele>
        <time>2025-10-20T13:39:24.000Z</time>
      </trkpt>
      <trkpt lat="49.3328" lon="3.31722">
        <ele>129.8</ele>
        <time>2025-10-20T13:39:25.000Z</time>
      </trkpt>
      <trkpt lat="49.33279" lon="3.31722">
        <ele>130.1</ele>
        <time>2025-10-20T13:39:26.000Z</time>
      </trkpt>
      <trkpt lat="49.33279" lon="3.31723">
        <ele>130.3</ele>
        <time>2025-10-20T13:39:27.000Z</time>
      </trkpt>
      <trkpt lat="49.33279" lon="3.31724">
        <ele>130.6</ele>
        <time>2025-10-20T13:39:28.000Z</time>
      </trkpt>
      <trkpt lat="49.33278" lon="3.31725">
        <ele>130.9</ele>
        <time>2025-10-20T13:39:29.000Z</time>
      </trkpt>
      <trkpt lat="49.33278" lon="3.31725">
        <ele>131.1</ele>
        <time>2025-10-20T13:39:30.000Z</time>
      </trkpt>
      <trkpt lat="49.33277" lon="3.31726">
        <ele>131.4</ele>
        <time>2025-10-20T13:39:31.000Z</time>
      </trkpt>
      <trkpt lat="49.33277" lon="3.31726">
        <ele>131.7</ele>
        <time>2025-10-20T13:39:32.000Z</time>
      </trkpt>
      <trkpt lat="49.33277" lon="3.31727">
        <ele>131.3</ele>
        <time>2025-10-20T13:39:33.000Z</time>
      </trkpt>
      <trkpt lat="49.33276" lon="3.31728">
        <ele>131.4</ele>
        <time>2025-10-20T13:39:34.000Z</time>
      </trkpt>
      <trkpt lat="49.33276" lon="3.31729">
        <ele>131.4</ele>
        <time>2025-10-20T13:39:35.000Z</time>
      </trkpt>
      <trkpt lat="49.33276" lon="3.3173">
        <ele>131.2</ele>
        <time>2025-10-20T13:39:36.000Z</time>
      </trkpt>
      <trkpt lat="49.33276" lon="3.31731">
        <ele>130.9</ele>
        <time>2025-10-20T13:39:37.000Z</time>
      </trkpt>
      <trkpt lat="49.33276" lon="3.31732">
        <ele>130.5</ele>
        <time>2025-10-20T13:39:38.000Z</time>
      </trkpt>
      <trkpt lat="49.33275" lon="3.31734">
        <ele>130.4</ele>
        <time>2025-10-20T13:39:39.000Z</time>
      </trkpt>
      <trkpt lat="49.33275" lon="3.31736">
        <ele>130.3</ele>
        <time>2025-10-20T13:39:40.000Z</time>
      </trkpt>
      <trkpt lat="49.33275" lon="3.31737">
        <ele>130.3</ele>
        <time>2025-10-20T13:39:41.000Z</time>
      </trkpt>
      <trkpt lat="49.33274" lon="3.31738">
        <ele>130.4</ele>
        <time>2025-10-20T13:39:42.000Z</time>
      </trkpt>
      <trkpt lat="49.33274" lon="3.3174">
        <ele>130.5</ele>
        <time>2025-10-20T13:39:43.000Z</time>
      </trkpt>
      <trkpt lat="49.33274" lon="3.31741">
        <ele>130.3</ele>
        <time>2025-10-20T13:39:44.000Z</time>
      </trkpt>
      <trkpt lat="49.33273" lon="3.31743">
        <ele>130.3</ele>
        <time>2025-10-20T13:39:45.000Z</time>
      </trkpt>
      <trkpt lat="49.33273" lon="3.31744">
        <ele>130.4</ele>
        <time>2025-10-20T13:39:46.000Z</time>
      </trkpt>
      <trkpt lat="49.33273" lon="3.31746">
        <ele>130.5</ele>
        <time>2025-10-20T13:39:47.000Z</time>
      </trkpt>
      <trkpt lat="49.33273" lon="3.31747">
        <ele>130.5</ele>
        <time>2025-10-20T13:39:48.000Z</time>
      </trkpt>
      <trkpt lat="49.33273" lon="3.31749">
        <ele>130.8</ele>
        <time>2025-10-20T13:39:49.000Z</time>
      </trkpt>
      <trkpt lat="49.33273" lon="3.31751">
        <ele>131</ele>
        <time>2025-10-20T13:39:50.000Z</time>
      </trkpt>
      <trkpt lat="49.33273" lon="3.31752">
        <ele>131.1</ele>
        <time>2025-10-20T13:39:51.000Z</time>
      </trkpt>
      <trkpt lat="49.33273" lon="3.31754">
        <ele>131.3</ele>
        <time>2025-10-20T13:39:52.000Z</time>
      </trkpt>
      <trkpt lat="49.33273" lon="3.31755">
        <ele>131.6</ele>
        <time>2025-10-20T13:39:53.000Z</time>
      </trkpt>
      <trkpt lat="49.33273" lon="3.31757">
        <ele>131.7</ele>
        <time>2025-10-20T13:39:54.000Z</time>
      </trkpt>
      <trkpt lat="49.33273" lon="3.31759">
        <ele>132</ele>
        <time>2025-10-20T13:39:55.000Z</time>
      </trkpt>
      <trkpt lat="49.33273" lon="3.31762">
        <ele>132.2</ele>
        <time>2025-10-20T13:39:56.000Z</time>
      </trkpt>
      <trkpt lat="49.33273" lon="3.31765">
        <ele>132.6</ele>
        <time>2025-10-20T13:39:57.000Z</time>
      </trkpt>
      <trkpt lat="49.33272" lon="3.31768">
        <ele>132.6</ele>
        <time>2025-10-20T13:39:58.000Z</time>
      </trkpt>
      <trkpt lat="49.33273" lon="3.31771">
        <ele>132.2</ele>
        <time>2025-10-20T13:39:59.000Z</time>
      </trkpt>
      <trkpt lat="49.33273" lon="3.31775">
        <ele>132</ele>
        <time>2025-10-20T13:40:00.000Z</time>
      </trkpt>
      <trkpt lat="49.33274" lon="3.31778">
        <ele>130.9</ele>
        <time>2025-10-20T13:40:01.000Z</time>
      </trkpt>
      <trkpt lat="49.33274" lon="3.3178">
        <ele>130.1</ele>
        <time>2025-10-20T13:40:02.000Z</time>
      </trkpt>
      <trkpt lat="49.33274" lon="3.31783">
        <ele>129</ele>
        <time>2025-10-20T13:40:03.000Z</time>
      </trkpt>
      <trkpt lat="49.33274" lon="3.31786">
        <ele>128.4</ele>
        <time>2025-10-20T13:40:04.000Z</time>
      </trkpt>
      <trkpt lat="49.33275" lon="3.31788">
        <ele>127.9</ele>
        <time>2025-10-20T13:40:05.000Z</time>
      </trkpt>
      <trkpt lat="49.33275" lon="3.3179">
        <ele>127.7</ele>
        <time>2025-10-20T13:40:06.000Z</time>
      </trkpt>
      <trkpt lat="49.33275" lon="3.31793">
        <ele>127.5</ele>
        <time>2025-10-20T13:40:07.000Z</time>
      </trkpt>
      <trkpt lat="49.33275" lon="3.31795">
        <ele>127.3</ele>
        <time>2025-10-20T13:40:08.000Z</time>
      </trkpt>
      <trkpt lat="49.33275" lon="3.31796">
        <ele>127.2</ele>
        <time>2025-10-20T13:40:09.000Z</time>
      </trkpt>
      <trkpt lat="49.33275" lon="3.31798">
        <ele>127.4</ele>
        <time>2025-10-20T13:40:10.000Z</time>
      </trkpt>
      <trkpt lat="49.33276" lon="3.318">
        <ele>127.2</ele>
        <time>2025-10-20T13:40:11.000Z</time>
      </trkpt>
      <trkpt lat="49.33276" lon="3.31802">
        <ele>127.1</ele>
        <time>2025-10-20T13:40:12.000Z</time>
      </trkpt>
      <trkpt lat="49.33277" lon="3.31805">
        <ele>127.2</ele>
        <time>2025-10-20T13:40:13.000Z</time>
      </trkpt>
      <trkpt lat="49.33278" lon="3.31806">
        <ele>127.2</ele>
        <time>2025-10-20T13:40:14.000Z</time>
      </trkpt>
      <trkpt lat="49.33278" lon="3.31808">
        <ele>126.7</ele>
        <time>2025-10-20T13:40:15.000Z</time>
      </trkpt>
      <trkpt lat="49.33278" lon="3.31809">
        <ele>126.4</ele>
        <time>2025-10-20T13:40:16.000Z</time>
      </trkpt>
      <trkpt lat="49.33279" lon="3.31811">
        <ele>126.3</ele>
        <time>2025-10-20T13:40:17.000Z</time>
      </trkpt>
      <trkpt lat="49.33279" lon="3.31813">
        <ele>126.1</ele>
        <time>2025-10-20T13:40:18.000Z</time>
      </trkpt>
      <trkpt lat="49.33279" lon="3.31815">
        <ele>126</ele>
        <time>2025-10-20T13:40:19.000Z</time>
      </trkpt>
      <trkpt lat="49.33279" lon="3.31817">
        <ele>125.7</ele>
        <time>2025-10-20T13:40:20.000Z</time>
      </trkpt>
      <trkpt lat="49.33279" lon="3.31819">
        <ele>125.5</ele>
        <time>2025-10-20T13:40:21.000Z</time>
      </trkpt>
      <trkpt lat="49.33279" lon="3.31821">
        <ele>125.4</ele>
        <time>2025-10-20T13:40:22.000Z</time>
      </trkpt>
      <trkpt lat="49.33278" lon="3.31823">
        <ele>124.8</ele>
        <time>2025-10-20T13:40:23.000Z</time>
      </trkpt>
      <trkpt lat="49.33278" lon="3.31825">
        <ele>124.3</ele>
        <time>2025-10-20T13:40:24.000Z</time>
      </trkpt>
      <trkpt lat="49.33278" lon="3.31827">
        <ele>123.8</ele>
        <time>2025-10-20T13:40:25.000Z</time>
      </trkpt>
      <trkpt lat="49.33278" lon="3.31829">
        <ele>123.2</ele>
        <time>2025-10-20T13:40:26.000Z</time>
      </trkpt>
      <trkpt lat="49.33278" lon="3.31831">
        <ele>123.1</ele>
        <time>2025-10-20T13:40:27.000Z</time>
      </trkpt>
      <trkpt lat="49.33279" lon="3.31833">
        <ele>123.1</ele>
        <time>2025-10-20T13:40:28.000Z</time>
      </trkpt>
      <trkpt lat="49.33279" lon="3.31834">
        <ele>123.1</ele>
        <time>2025-10-20T13:40:29.000Z</time>
      </trkpt>
      <trkpt lat="49.33279" lon="3.31835">
        <ele>123.3</ele>
        <time>2025-10-20T13:40:30.000Z</time>
      </trkpt>
      <trkpt lat="49.33279" lon="3.31837">
        <ele>123.8</ele>
        <time>2025-10-20T13:40:31.000Z</time>
      </trkpt>
      <trkpt lat="49.33279" lon="3.31839">
        <ele>124</ele>
        <time>2025-10-20T13:40:32.000Z</time>
      </trkpt>
      <trkpt lat="49.3328" lon="3.31841">
        <ele>124.4</ele>
        <time>2025-10-20T13:40:33.000Z</time>
      </trkpt>
      <trkpt lat="49.3328" lon="3.31843">
        <ele>124.8</ele>
        <time>2025-10-20T13:40:34.000Z</time>
      </trkpt>
      <trkpt lat="49.3328" lon="3.31846">
        <ele>125.2</ele>
        <time>2025-10-20T13:40:35.000Z</time>
      </trkpt>
      <trkpt lat="49.3328" lon="3.31848">
        <ele>125.8</ele>
        <time>2025-10-20T13:40:36.000Z</time>
      </trkpt>
      <trkpt lat="49.3328" lon="3.3185">
        <ele>126</ele>
        <time>2025-10-20T13:40:37.000Z</time>
      </trkpt>
      <trkpt lat="49.33281" lon="3.31852">
        <ele>125.6</ele>
        <time>2025-10-20T13:40:38.000Z</time>
      </trkpt>
      <trkpt lat="49.33281" lon="3.31855">
        <ele>125.8</ele>
        <time>2025-10-20T13:40:39.000Z</time>
      </trkpt>
      <trkpt lat="49.33281" lon="3.31857">
        <ele>125.6</ele>
        <time>2025-10-20T13:40:40.000Z</time>
      </trkpt>
      <trkpt lat="49.33281" lon="3.3186">
        <ele>125.4</ele>
        <time>2025-10-20T13:40:41.000Z</time>
      </trkpt>
      <trkpt lat="49.33281" lon="3.31862">
        <ele>125.2</ele>
        <time>2025-10-20T13:40:42.000Z</time>
      </trkpt>
      <trkpt lat="49.33281" lon="3.31864">
        <ele>124.6</ele>
        <time>2025-10-20T13:40:43.000Z</time>
      </trkpt>
      <trkpt lat="49.33282" lon="3.31866">
        <ele>124.2</ele>
        <time>2025-10-20T13:40:44.000Z</time>
      </trkpt>
      <trkpt lat="49.33282" lon="3.31869">
        <ele>123.6</ele>
        <time>2025-10-20T13:40:45.000Z</time>
      </trkpt>
      <trkpt lat="49.33283" lon="3.31872">
        <ele>123.4</ele>
        <time>2025-10-20T13:40:46.000Z</time>
      </trkpt>
      <trkpt lat="49.33283" lon="3.31874">
        <ele>123.3</ele>
        <time>2025-10-20T13:40:47.000Z</time>
      </trkpt>
      <trkpt lat="49.33284" lon="3.31877">
        <ele>123.3</ele>
        <time>2025-10-20T13:40:48.000Z</time>
      </trkpt>
      <trkpt lat="49.33285" lon="3.3188">
        <ele>123.2</ele>
        <time>2025-10-20T13:40:49.000Z</time>
      </trkpt>
      <trkpt lat="49.33285" lon="3.31882">
        <ele>123.1</ele>
        <time>2025-10-20T13:40:50.000Z</time>
      </trkpt>
      <trkpt lat="49.33286" lon="3.31883">
        <ele>123.3</ele>
        <time>2025-10-20T13:40:51.000Z</time>
      </trkpt>
      <trkpt lat="49.33286" lon="3.31885">
        <ele>123.5</ele>
        <time>2025-10-20T13:40:52.000Z</time>
      </trkpt>
      <trkpt lat="49.33286" lon="3.31887">
        <ele>123.8</ele>
        <time>2025-10-20T13:40:53.000Z</time>
      </trkpt>
      <trkpt lat="49.33287" lon="3.31889">
        <ele>123.8</ele>
        <time>2025-10-20T13:40:54.000Z</time>
      </trkpt>
      <trkpt lat="49.33288" lon="3.31892">
        <ele>123.6</ele>
        <time>2025-10-20T13:40:55.000Z</time>
      </trkpt>
      <trkpt lat="49.33288" lon="3.31894">
        <ele>122.9</ele>
        <time>2025-10-20T13:40:56.000Z</time>
      </trkpt>
      <trkpt lat="49.33288" lon="3.31897">
        <ele>122.5</ele>
        <time>2025-10-20T13:40:57.000Z</time>
      </trkpt>
      <trkpt lat="49.3329" lon="3.31898">
        <ele>122.1</ele>
        <time>2025-10-20T13:40:58.000Z</time>
      </trkpt>
      <trkpt lat="49.3329" lon="3.31901">
        <ele>121.8</ele>
        <time>2025-10-20T13:40:59.000Z</time>
      </trkpt>
      <trkpt lat="49.33291" lon="3.31902">
        <ele>121.6</ele>
        <time>2025-10-20T13:41:00.000Z</time>
      </trkpt>
      <trkpt lat="49.33291" lon="3.31904">
        <ele>121.6</ele>
        <time>2025-10-20T13:41:01.000Z</time>
      </trkpt>
      <trkpt lat="49.33291" lon="3.31904">
        <ele>121.4</ele>
        <time>2025-10-20T13:41:02.000Z</time>
      </trkpt>
      <trkpt lat="49.33292" lon="3.31904">
        <ele>121.6</ele>
        <time>2025-10-20T13:41:03.000Z</time>
      </trkpt>
      <trkpt lat="49.33292" lon="3.31905">
        <ele>121.9</ele>
        <time>2025-10-20T13:41:04.000Z</time>
      </trkpt>
      <trkpt lat="49.33292" lon="3.31906">
        <ele>122.6</ele>
        <time>2025-10-20T13:41:05.000Z</time>
      </trkpt>
      <trkpt lat="49.33291" lon="3.31907">
        <ele>122.9</ele>
        <time>2025-10-20T13:41:06.000Z</time>
      </trkpt>
      <trkpt lat="49.33291" lon="3.31909">
        <ele>123.6</ele>
        <time>2025-10-20T13:41:07.000Z</time>
      </trkpt>
      <trkpt lat="49.33291" lon="3.3191">
        <ele>124.1</ele>
        <time>2025-10-20T13:41:08.000Z</time>
      </trkpt>
      <trkpt lat="49.33291" lon="3.31912">
        <ele>124.5</ele>
        <time>2025-10-20T13:41:09.000Z</time>
      </trkpt>
      <trkpt lat="49.33291" lon="3.31914">
        <ele>124.6</ele>
        <time>2025-10-20T13:41:10.000Z</time>
      </trkpt>
      <trkpt lat="49.33291" lon="3.31916">
        <ele>125</ele>
        <time>2025-10-20T13:41:11.000Z</time>
      </trkpt>
      <trkpt lat="49.33292" lon="3.31918">
        <ele>125.1</ele>
        <time>2025-10-20T13:41:12.000Z</time>
      </trkpt>
      <trkpt lat="49.33292" lon="3.3192">
        <ele>125.4</ele>
        <time>2025-10-20T13:41:13.000Z</time>
      </trkpt>
      <trkpt lat="49.33293" lon="3.31922">
        <ele>125.6</ele>
        <time>2025-10-20T13:41:14.000Z</time>
      </trkpt>
      <trkpt lat="49.33293" lon="3.31923">
        <ele>126</ele>
        <time>2025-10-20T13:41:15.000Z</time>
      </trkpt>
      <trkpt lat="49.33293" lon="3.31925">
        <ele>126.4</ele>
        <time>2025-10-20T13:41:16.000Z</time>
      </trkpt>
      <trkpt lat="49.33294" lon="3.31927">
        <ele>126.6</ele>
        <time>2025-10-20T13:41:17.000Z</time>
      </trkpt>
      <trkpt lat="49.33294" lon="3.31929">
        <ele>126.8</ele>
        <time>2025-10-20T13:41:18.000Z</time>
      </trkpt>
      <trkpt lat="49.33294" lon="3.3193">
        <ele>127.1</ele>
        <time>2025-10-20T13:41:19.000Z</time>
      </trkpt>
      <trkpt lat="49.33295" lon="3.31931">
        <ele>127.4</ele>
        <time>2025-10-20T13:41:20.000Z</time>
      </trkpt>
      <trkpt lat="49.33295" lon="3.31933">
        <ele>127.5</ele>
        <time>2025-10-20T13:41:21.000Z</time>
      </trkpt>
      <trkpt lat="49.33296" lon="3.31935">
        <ele>127.7</ele>
        <time>2025-10-20T13:41:22.000Z</time>
      </trkpt>
      <trkpt lat="49.33296" lon="3.31937">
        <ele>127.9</ele>
        <time>2025-10-20T13:41:23.000Z</time>
      </trkpt>
      <trkpt lat="49.33296" lon="3.31938">
        <ele>128.1</ele>
        <time>2025-10-20T13:41:24.000Z</time>
      </trkpt>
      <trkpt lat="49.33297" lon="3.31939">
        <ele>128.2</ele>
        <time>2025-10-20T13:41:25.000Z</time>
      </trkpt>
      <trkpt lat="49.33297" lon="3.31941">
        <ele>128.4</ele>
        <time>2025-10-20T13:41:26.000Z</time>
      </trkpt>
      <trkpt lat="49.33297" lon="3.31943">
        <ele>128.5</ele>
        <time>2025-10-20T13:41:27.000Z</time>
      </trkpt>
      <trkpt lat="49.33297" lon="3.31945">
        <ele>128.7</ele>
        <time>2025-10-20T13:41:28.000Z</time>
      </trkpt>
      <trkpt lat="49.33298" lon="3.31947">
        <ele>128.7</ele>
        <time>2025-10-20T13:41:29.000Z</time>
      </trkpt>
      <trkpt lat="49.33298" lon="3.31949">
        <ele>128.6</ele>
        <time>2025-10-20T13:41:30.000Z</time>
      </trkpt>
      <trkpt lat="49.33299" lon="3.31951">
        <ele>128.5</ele>
        <time>2025-10-20T13:41:31.000Z</time>
      </trkpt>
      <trkpt lat="49.33299" lon="3.31954">
        <ele>128.3</ele>
        <time>2025-10-20T13:41:32.000Z</time>
      </trkpt>
      <trkpt lat="49.33299" lon="3.31955">
        <ele>128.4</ele>
        <time>2025-10-20T13:41:33.000Z</time>
      </trkpt>
      <trkpt lat="49.333" lon="3.31957">
        <ele>128.4</ele>
        <time>2025-10-20T13:41:34.000Z</time>
      </trkpt>
      <trkpt lat="49.333" lon="3.31958">
        <ele>128.3</ele>
        <time>2025-10-20T13:41:35.000Z</time>
      </trkpt>
      <trkpt lat="49.333" lon="3.3196">
        <ele>128.4</ele>
        <time>2025-10-20T13:41:36.000Z</time>
      </trkpt>
      <trkpt lat="49.33301" lon="3.31962">
        <ele>128.3</ele>
        <time>2025-10-20T13:41:37.000Z</time>
      </trkpt>
      <trkpt lat="49.33302" lon="3.31964">
        <ele>128.3</ele>
        <time>2025-10-20T13:41:38.000Z</time>
      </trkpt>
      <trkpt lat="49.33302" lon="3.31966">
        <ele>128.4</ele>
        <time>2025-10-20T13:41:39.000Z</time>
      </trkpt>
      <trkpt lat="49.33302" lon="3.31968">
        <ele>128.7</ele>
        <time>2025-10-20T13:41:40.000Z</time>
      </trkpt>
      <trkpt lat="49.33303" lon="3.3197">
        <ele>129</ele>
        <time>2025-10-20T13:41:41.000Z</time>
      </trkpt>
      <trkpt lat="49.33303" lon="3.31971">
        <ele>129</ele>
        <time>2025-10-20T13:41:42.000Z</time>
      </trkpt>
      <trkpt lat="49.33303" lon="3.31972">
        <ele>129.2</ele>
        <time>2025-10-20T13:41:43.000Z</time>
      </trkpt>
      <trkpt lat="49.33303" lon="3.31973">
        <ele>129.4</ele>
        <time>2025-10-20T13:41:44.000Z</time>
      </trkpt>
      <trkpt lat="49.33303" lon="3.31974">
        <ele>129.5</ele>
        <time>2025-10-20T13:41:45.000Z</time>
      </trkpt>
      <trkpt lat="49.33304" lon="3.31975">
        <ele>129.7</ele>
        <time>2025-10-20T13:41:46.000Z</time>
      </trkpt>
      <trkpt lat="49.33305" lon="3.31976">
        <ele>130</ele>
        <time>2025-10-20T13:41:47.000Z</time>
      </trkpt>
      <trkpt lat="49.33305" lon="3.31977">
        <ele>130</ele>
        <time>2025-10-20T13:41:48.000Z</time>
      </trkpt>
      <trkpt lat="49.33306" lon="3.31978">
        <ele>130.1</ele>
        <time>2025-10-20T13:41:49.000Z</time>
      </trkpt>
      <trkpt lat="49.33306" lon="3.31979">
        <ele>130.3</ele>
        <time>2025-10-20T13:41:50.000Z</time>
      </trkpt>
      <trkpt lat="49.33307" lon="3.3198">
        <ele>130.3</ele>
        <time>2025-10-20T13:41:51.000Z</time>
      </trkpt>
      <trkpt lat="49.33308" lon="3.31982">
        <ele>130.4</ele>
        <time>2025-10-20T13:41:52.000Z</time>
      </trkpt>
      <trkpt lat="49.33309" lon="3.31983">
        <ele>130.4</ele>
        <time>2025-10-20T13:41:53.000Z</time>
      </trkpt>
      <trkpt lat="49.33309" lon="3.31984">
        <ele>130.3</ele>
        <time>2025-10-20T13:41:54.000Z</time>
      </trkpt>
      <trkpt lat="49.3331" lon="3.31985">
        <ele>130.1</ele>
        <time>2025-10-20T13:41:55.000Z</time>
      </trkpt>
      <trkpt lat="49.3331" lon="3.31987">
        <ele>129.9</ele>
        <time>2025-10-20T13:41:56.000Z</time>
      </trkpt>
      <trkpt lat="49.33311" lon="3.31989">
        <ele>129.7</ele>
        <time>2025-10-20T13:41:57.000Z</time>
      </trkpt>
      <trkpt lat="49.33311" lon="3.3199">
        <ele>129.6</ele>
        <time>2025-10-20T13:41:58.000Z</time>
      </trkpt>
      <trkpt lat="49.33311" lon="3.31991">
        <ele>129.5</ele>
        <time>2025-10-20T13:41:59.000Z</time>
      </trkpt>
      <trkpt lat="49.33311" lon="3.31993">
        <ele>129.5</ele>
        <time>2025-10-20T13:42:00.000Z</time>
      </trkpt>
      <trkpt lat="49.33311" lon="3.31995">
        <ele>129.3</ele>
        <time>2025-10-20T13:42:01.000Z</time>
      </trkpt>
      <trkpt lat="49.33311" lon="3.31996">
        <ele>129.3</ele>
        <time>2025-10-20T13:42:02.000Z</time>
      </trkpt>
      <trkpt lat="49.33311" lon="3.31998">
        <ele>129.3</ele>
        <time>2025-10-20T13:42:03.000Z</time>
      </trkpt>
      <trkpt lat="49.33312" lon="3.31999">
        <ele>129.1</ele>
        <time>2025-10-20T13:42:04.000Z</time>
      </trkpt>
      <trkpt lat="49.33312" lon="3.32001">
        <ele>129.1</ele>
        <time>2025-10-20T13:42:05.000Z</time>
      </trkpt>
      <trkpt lat="49.33312" lon="3.32003">
        <ele>129.2</ele>
        <time>2025-10-20T13:42:06.000Z</time>
      </trkpt>
      <trkpt lat="49.33313" lon="3.32005">
        <ele>129.2</ele>
        <time>2025-10-20T13:42:07.000Z</time>
      </trkpt>
      <trkpt lat="49.33313" lon="3.32008">
        <ele>129.1</ele>
        <time>2025-10-20T13:42:08.000Z</time>
      </trkpt>
      <trkpt lat="49.33314" lon="3.3201">
        <ele>128.9</ele>
        <time>2025-10-20T13:42:09.000Z</time>
      </trkpt>
      <trkpt lat="49.33314" lon="3.32012">
        <ele>129.1</ele>
        <time>2025-10-20T13:42:10.000Z</time>
      </trkpt>
      <trkpt lat="49.33315" lon="3.32015">
        <ele>129</ele>
        <time>2025-10-20T13:42:11.000Z</time>
      </trkpt>
      <trkpt lat="49.33315" lon="3.32017">
        <ele>128.8</ele>
        <time>2025-10-20T13:42:12.000Z</time>
      </trkpt>
      <trkpt lat="49.33316" lon="3.3202">
        <ele>128.5</ele>
        <time>2025-10-20T13:42:13.000Z</time>
      </trkpt>
      <trkpt lat="49.33316" lon="3.32021">
        <ele>128.3</ele>
        <time>2025-10-20T13:42:14.000Z</time>
      </trkpt>
      <trkpt lat="49.33316" lon="3.32024">
        <ele>128.2</ele>
        <time>2025-10-20T13:42:15.000Z</time>
      </trkpt>
      <trkpt lat="49.33316" lon="3.32026">
        <ele>128</ele>
        <time>2025-10-20T13:42:16.000Z</time>
      </trkpt>
      <trkpt lat="49.33317" lon="3.32029">
        <ele>127.5</ele>
        <time>2025-10-20T13:42:17.000Z</time>
      </trkpt>
      <trkpt lat="49.33317" lon="3.32032">
        <ele>127.1</ele>
        <time>2025-10-20T13:42:18.000Z</time>
      </trkpt>
      <trkpt lat="49.33318" lon="3.32036">
        <ele>126.8</ele>
        <time>2025-10-20T13:42:19.000Z</time>
      </trkpt>
      <trkpt lat="49.33319" lon="3.32039">
        <ele>126.2</ele>
        <time>2025-10-20T13:42:20.000Z</time>
      </trkpt>
      <trkpt lat="49.33319" lon="3.3204">
        <ele>125.6</ele>
        <time>2025-10-20T13:42:21.000Z</time>
      </trkpt>
      <trkpt lat="49.3332" lon="3.32044">
        <ele>125.5</ele>
        <time>2025-10-20T13:42:22.000Z</time>
      </trkpt>
      <trkpt lat="49.33321" lon="3.32048">
        <ele>125.2</ele>
        <time>2025-10-20T13:42:23.000Z</time>
      </trkpt>
      <trkpt lat="49.33322" lon="3.3205">
        <ele>125</ele>
        <time>2025-10-20T13:42:24.000Z</time>
      </trkpt>
      <trkpt lat="49.33323" lon="3.32053">
        <ele>124.8</ele>
        <time>2025-10-20T13:42:25.000Z</time>
      </trkpt>
      <trkpt lat="49.33323" lon="3.32055">
        <ele>124.7</ele>
        <time>2025-10-20T13:42:26.000Z</time>
      </trkpt>
      <trkpt lat="49.33323" lon="3.32056">
        <ele>124.7</ele>
        <time>2025-10-20T13:42:27.000Z</time>
      </trkpt>
      <trkpt lat="49.33324" lon="3.32059">
        <ele>125</ele>
        <time>2025-10-20T13:42:28.000Z</time>
      </trkpt>
      <trkpt lat="49.33325" lon="3.3206">
        <ele>125</ele>
        <time>2025-10-20T13:42:29.000Z</time>
      </trkpt>
      <trkpt lat="49.33325" lon="3.32062">
        <ele>124.9</ele>
        <time>2025-10-20T13:42:30.000Z</time>
      </trkpt>
      <trkpt lat="49.33325" lon="3.32064">
        <ele>124.9</ele>
        <time>2025-10-20T13:42:31.000Z</time>
      </trkpt>
      <trkpt lat="49.33325" lon="3.32065">
        <ele>124.9</ele>
        <time>2025-10-20T13:42:32.000Z</time>
      </trkpt>
      <trkpt lat="49.33325" lon="3.32067">
        <ele>124.8</ele>
        <time>2025-10-20T13:42:33.000Z</time>
      </trkpt>
      <trkpt lat="49.33325" lon="3.32068">
        <ele>124.7</ele>
        <time>2025-10-20T13:42:34.000Z</time>
      </trkpt>
      <trkpt lat="49.33325" lon="3.3207">
        <ele>124.6</ele>
        <time>2025-10-20T13:42:35.000Z</time>
      </trkpt>
      <trkpt lat="49.33326" lon="3.32073">
        <ele>124.4</ele>
        <time>2025-10-20T13:42:36.000Z</time>
      </trkpt>
      <trkpt lat="49.33326" lon="3.32075">
        <ele>124.2</ele>
        <time>2025-10-20T13:42:37.000Z</time>
      </trkpt>
      <trkpt lat="49.33326" lon="3.32077">
        <ele>124</ele>
        <time>2025-10-20T13:42:38.000Z</time>
      </trkpt>
      <trkpt lat="49.33327" lon="3.32079">
        <ele>123.9</ele>
        <time>2025-10-20T13:42:39.000Z</time>
      </trkpt>
      <trkpt lat="49.33328" lon="3.32082">
        <ele>123.8</ele>
        <time>2025-10-20T13:42:40.000Z</time>
      </trkpt>
      <trkpt lat="49.33328" lon="3.32085">
        <ele>123.7</ele>
        <time>2025-10-20T13:42:41.000Z</time>
      </trkpt>
      <trkpt lat="49.33329" lon="3.32087">
        <ele>123.6</ele>
        <time>2025-10-20T13:42:42.000Z</time>
      </trkpt>
      <trkpt lat="49.3333" lon="3.32088">
        <ele>123.3</ele>
        <time>2025-10-20T13:42:43.000Z</time>
      </trkpt>
      <trkpt lat="49.3333" lon="3.3209">
        <ele>123.1</ele>
        <time>2025-10-20T13:42:44.000Z</time>
      </trkpt>
      <trkpt lat="49.33331" lon="3.32091">
        <ele>122.7</ele>
        <time>2025-10-20T13:42:45.000Z</time>
      </trkpt>
      <trkpt lat="49.33331" lon="3.32092">
        <ele>122.4</ele>
        <time>2025-10-20T13:42:46.000Z</time>
      </trkpt>
      <trkpt lat="49.33332" lon="3.32094">
        <ele>122.2</ele>
        <time>2025-10-20T13:42:47.000Z</time>
      </trkpt>
      <trkpt lat="49.33333" lon="3.32096">
        <ele>121.9</ele>
        <time>2025-10-20T13:42:48.000Z</time>
      </trkpt>
      <trkpt lat="49.33333" lon="3.32099">
        <ele>121.5</ele>
        <time>2025-10-20T13:42:49.000Z</time>
      </trkpt>
      <trkpt lat="49.33334" lon="3.32101">
        <ele>121.2</ele>
        <time>2025-10-20T13:42:50.000Z</time>
      </trkpt>
      <trkpt lat="49.33335" lon="3.32103">
        <ele>121</ele>
        <time>2025-10-20T13:42:51.000Z</time>
      </trkpt>
      <trkpt lat="49.33335" lon="3.32105">
        <ele>120.8</ele>
        <time>2025-10-20T13:42:52.000Z</time>
      </trkpt>
      <trkpt lat="49.33336" lon="3.32107">
        <ele>120.6</ele>
        <time>2025-10-20T13:42:53.000Z</time>
      </trkpt>
      <trkpt lat="49.33337" lon="3.3211">
        <ele>120.3</ele>
        <time>2025-10-20T13:42:54.000Z</time>
      </trkpt>
      <trkpt lat="49.33338" lon="3.32115">
        <ele>119.8</ele>
        <time>2025-10-20T13:42:55.000Z</time>
      </trkpt>
      <trkpt lat="49.33339" lon="3.32117">
        <ele>119.7</ele>
        <time>2025-10-20T13:42:56.000Z</time>
      </trkpt>
      <trkpt lat="49.3334" lon="3.32121">
        <ele>119.4</ele>
        <time>2025-10-20T13:42:57.000Z</time>
      </trkpt>
      <trkpt lat="49.33341" lon="3.32123">
        <ele>119.3</ele>
        <time>2025-10-20T13:42:58.000Z</time>
      </trkpt>
      <trkpt lat="49.33342" lon="3.32125">
        <ele>119.2</ele>
        <time>2025-10-20T13:42:59.000Z</time>
      </trkpt>
      <trkpt lat="49.33343" lon="3.32127">
        <ele>119.2</ele>
        <time>2025-10-20T13:43:00.000Z</time>
      </trkpt>
      <trkpt lat="49.33344" lon="3.32129">
        <ele>119.2</ele>
        <time>2025-10-20T13:43:01.000Z</time>
      </trkpt>
      <trkpt lat="49.33345" lon="3.32131">
        <ele>119</ele>
        <time>2025-10-20T13:43:02.000Z</time>
      </trkpt>
      <trkpt lat="49.33346" lon="3.32133">
        <ele>118.9</ele>
        <time>2025-10-20T13:43:03.000Z</time>
      </trkpt>
      <trkpt lat="49.33347" lon="3.32134">
        <ele>118.7</ele>
        <time>2025-10-20T13:43:04.000Z</time>
      </trkpt>
      <trkpt lat="49.33347" lon="3.32136">
        <ele>118.5</ele>
        <time>2025-10-20T13:43:05.000Z</time>
      </trkpt>
      <trkpt lat="49.33348" lon="3.32137">
        <ele>118.3</ele>
        <time>2025-10-20T13:43:06.000Z</time>
      </trkpt>
      <trkpt lat="49.33349" lon="3.32139">
        <ele>118.1</ele>
        <time>2025-10-20T13:43:07.000Z</time>
      </trkpt>
      <trkpt lat="49.33349" lon="3.3214">
        <ele>117.9</ele>
        <time>2025-10-20T13:43:08.000Z</time>
      </trkpt>
      <trkpt lat="49.3335" lon="3.32141">
        <ele>117.6</ele>
        <time>2025-10-20T13:43:09.000Z</time>
      </trkpt>
      <trkpt lat="49.33351" lon="3.32143">
        <ele>117.3</ele>
        <time>2025-10-20T13:43:10.000Z</time>
      </trkpt>
      <trkpt lat="49.33351" lon="3.32145">
        <ele>117</ele>
        <time>2025-10-20T13:43:11.000Z</time>
      </trkpt>
      <trkpt lat="49.33352" lon="3.32148">
        <ele>116.5</ele>
        <time>2025-10-20T13:43:12.000Z</time>
      </trkpt>
      <trkpt lat="49.33353" lon="3.3215">
        <ele>116.2</ele>
        <time>2025-10-20T13:43:13.000Z</time>
      </trkpt>
      <trkpt lat="49.33354" lon="3.32152">
        <ele>115.9</ele>
        <time>2025-10-20T13:43:14.000Z</time>
      </trkpt>
      <trkpt lat="49.33354" lon="3.32154">
        <ele>115.5</ele>
        <time>2025-10-20T13:43:15.000Z</time>
      </trkpt>
      <trkpt lat="49.33355" lon="3.32156">
        <ele>115.1</ele>
        <time>2025-10-20T13:43:16.000Z</time>
      </trkpt>
      <trkpt lat="49.33356" lon="3.32158">
        <ele>114.8</ele>
        <time>2025-10-20T13:43:17.000Z</time>
      </trkpt>
      <trkpt lat="49.33356" lon="3.32161">
        <ele>114.6</ele>
        <time>2025-10-20T13:43:18.000Z</time>
      </trkpt>
      <trkpt lat="49.33357" lon="3.32163">
        <ele>114.3</ele>
        <time>2025-10-20T13:43:19.000Z</time>
      </trkpt>
      <trkpt lat="49.33357" lon="3.32164">
        <ele>114.1</ele>
        <time>2025-10-20T13:43:20.000Z</time>
      </trkpt>
      <trkpt lat="49.33357" lon="3.32166">
        <ele>114.1</ele>
        <time>2025-10-20T13:43:21.000Z</time>
      </trkpt>
      <trkpt lat="49.33358" lon="3.32167">
        <ele>113.9</ele>
        <time>2025-10-20T13:43:22.000Z</time>
      </trkpt>
      <trkpt lat="49.33359" lon="3.32169">
        <ele>113.8</ele>
        <time>2025-10-20T13:43:23.000Z</time>
      </trkpt>
      <trkpt lat="49.33359" lon="3.3217">
        <ele>113.9</ele>
        <time>2025-10-20T13:43:24.000Z</time>
      </trkpt>
      <trkpt lat="49.3336" lon="3.32171">
        <ele>113.8</ele>
        <time>2025-10-20T13:43:25.000Z</time>
      </trkpt>
      <trkpt lat="49.3336" lon="3.32172">
        <ele>114</ele>
        <time>2025-10-20T13:43:26.000Z</time>
      </trkpt>
      <trkpt lat="49.3336" lon="3.32173">
        <ele>114</ele>
        <time>2025-10-20T13:43:27.000Z</time>
      </trkpt>
      <trkpt lat="49.33361" lon="3.32175">
        <ele>113.9</ele>
        <time>2025-10-20T13:43:28.000Z</time>
      </trkpt>
      <trkpt lat="49.33361" lon="3.32176">
        <ele>113.9</ele>
        <time>2025-10-20T13:43:29.000Z</time>
      </trkpt>
      <trkpt lat="49.33361" lon="3.32177">
        <ele>114</ele>
        <time>2025-10-20T13:43:30.000Z</time>
      </trkpt>
      <trkpt lat="49.33362" lon="3.32177">
        <ele>114</ele>
        <time>2025-10-20T13:43:31.000Z</time>
      </trkpt>
      <trkpt lat="49.33362" lon="3.32179">
        <ele>114.2</ele>
        <time>2025-10-20T13:43:32.000Z</time>
      </trkpt>
      <trkpt lat="49.33363" lon="3.3218">
        <ele>114.3</ele>
        <time>2025-10-20T13:43:33.000Z</time>
      </trkpt>
      <trkpt lat="49.33363" lon="3.32181">
        <ele>114.3</ele>
        <time>2025-10-20T13:43:34.000Z</time>
      </trkpt>
      <trkpt lat="49.33364" lon="3.32183">
        <ele>114.7</ele>
        <time>2025-10-20T13:43:35.000Z</time>
      </trkpt>
      <trkpt lat="49.33364" lon="3.32184">
        <ele>115</ele>
        <time>2025-10-20T13:43:36.000Z</time>
      </trkpt>
      <trkpt lat="49.33364" lon="3.32185">
        <ele>115.2</ele>
        <time>2025-10-20T13:43:37.000Z</time>
      </trkpt>
      <trkpt lat="49.33364" lon="3.32187">
        <ele>115.4</ele>
        <time>2025-10-20T13:43:38.000Z</time>
      </trkpt>
      <trkpt lat="49.33365" lon="3.32189">
        <ele>115.6</ele>
        <time>2025-10-20T13:43:39.000Z</time>
      </trkpt>
      <trkpt lat="49.33366" lon="3.32191">
        <ele>115.6</ele>
        <time>2025-10-20T13:43:40.000Z</time>
      </trkpt>
      <trkpt lat="49.33366" lon="3.32193">
        <ele>115.7</ele>
        <time>2025-10-20T13:43:41.000Z</time>
      </trkpt>
      <trkpt lat="49.33367" lon="3.32195">
        <ele>116</ele>
        <time>2025-10-20T13:43:42.000Z</time>
      </trkpt>
      <trkpt lat="49.33368" lon="3.32197">
        <ele>116.1</ele>
        <time>2025-10-20T13:43:43.000Z</time>
      </trkpt>
      <trkpt lat="49.33369" lon="3.32199">
        <ele>116.2</ele>
        <time>2025-10-20T13:43:44.000Z</time>
      </trkpt>
      <trkpt lat="49.33369" lon="3.32202">
        <ele>116.3</ele>
        <time>2025-10-20T13:43:45.000Z</time>
      </trkpt>
      <trkpt lat="49.3337" lon="3.32204">
        <ele>116.3</ele>
        <time>2025-10-20T13:43:46.000Z</time>
      </trkpt>
      <trkpt lat="49.33371" lon="3.32207">
        <ele>116.3</ele>
        <time>2025-10-20T13:43:47.000Z</time>
      </trkpt>
      <trkpt lat="49.33372" lon="3.3221">
        <ele>116.3</ele>
        <time>2025-10-20T13:43:48.000Z</time>
      </trkpt>
      <trkpt lat="49.33374" lon="3.32213">
        <ele>116.3</ele>
        <time>2025-10-20T13:43:49.000Z</time>
      </trkpt>
      <trkpt lat="49.33374" lon="3.32216">
        <ele>116.3</ele>
        <time>2025-10-20T13:43:50.000Z</time>
      </trkpt>
      <trkpt lat="49.33375" lon="3.32218">
        <ele>116.3</ele>
        <time>2025-10-20T13:43:51.000Z</time>
      </trkpt>
      <trkpt lat="49.33376" lon="3.32219">
        <ele>116.4</ele>
        <time>2025-10-20T13:43:52.000Z</time>
      </trkpt>
      <trkpt lat="49.33376" lon="3.32221">
        <ele>116.4</ele>
        <time>2025-10-20T13:43:53.000Z</time>
      </trkpt>
      <trkpt lat="49.33377" lon="3.32223">
        <ele>116.4</ele>
        <time>2025-10-20T13:43:54.000Z</time>
      </trkpt>
      <trkpt lat="49.33378" lon="3.32225">
        <ele>116.4</ele>
        <time>2025-10-20T13:43:55.000Z</time>
      </trkpt>
      <trkpt lat="49.33378" lon="3.32227">
        <ele>116.6</ele>
        <time>2025-10-20T13:43:56.000Z</time>
      </trkpt>
      <trkpt lat="49.33379" lon="3.32229">
        <ele>116.7</ele>
        <time>2025-10-20T13:43:57.000Z</time>
      </trkpt>
      <trkpt lat="49.33379" lon="3.3223">
        <ele>117</ele>
        <time>2025-10-20T13:43:58.000Z</time>
      </trkpt>
      <trkpt lat="49.3338" lon="3.32232">
        <ele>117.2</ele>
        <time>2025-10-20T13:43:59.000Z</time>
      </trkpt>
      <trkpt lat="49.33381" lon="3.32233">
        <ele>117.3</ele>
        <time>2025-10-20T13:44:00.000Z</time>
      </trkpt>
      <trkpt lat="49.33382" lon="3.32236">
        <ele>117.3</ele>
        <time>2025-10-20T13:44:01.000Z</time>
      </trkpt>
      <trkpt lat="49.33384" lon="3.32239">
        <ele>117.3</ele>
        <time>2025-10-20T13:44:02.000Z</time>
      </trkpt>
      <trkpt lat="49.33386" lon="3.32241">
        <ele>117.1</ele>
        <time>2025-10-20T13:44:03.000Z</time>
      </trkpt>
      <trkpt lat="49.33388" lon="3.32243">
        <ele>117.2</ele>
        <time>2025-10-20T13:44:04.000Z</time>
      </trkpt>
      <trkpt lat="49.33389" lon="3.32245">
        <ele>117.3</ele>
        <time>2025-10-20T13:44:05.000Z</time>
      </trkpt>
      <trkpt lat="49.33391" lon="3.32248">
        <ele>117.3</ele>
        <time>2025-10-20T13:44:06.000Z</time>
      </trkpt>
      <trkpt lat="49.33393" lon="3.32251">
        <ele>117.4</ele>
        <time>2025-10-20T13:44:07.000Z</time>
      </trkpt>
      <trkpt lat="49.33394" lon="3.32255">
        <ele>117.1</ele>
        <time>2025-10-20T13:44:08.000Z</time>
      </trkpt>
      <trkpt lat="49.33395" lon="3.32257">
        <ele>116.8</ele>
        <time>2025-10-20T13:44:09.000Z</time>
      </trkpt>
      <trkpt lat="49.33395" lon="3.32258">
        <ele>117</ele>
        <time>2025-10-20T13:44:10.000Z</time>
      </trkpt>
      <trkpt lat="49.33396" lon="3.32259">
        <ele>117</ele>
        <time>2025-10-20T13:44:11.000Z</time>
      </trkpt>
      <trkpt lat="49.33397" lon="3.3226">
        <ele>116.9</ele>
        <time>2025-10-20T13:44:12.000Z</time>
      </trkpt>
      <trkpt lat="49.33398" lon="3.32261">
        <ele>117</ele>
        <time>2025-10-20T13:44:13.000Z</time>
      </trkpt>
      <trkpt lat="49.33399" lon="3.32263">
        <ele>117.1</ele>
        <time>2025-10-20T13:44:14.000Z</time>
      </trkpt>
      <trkpt lat="49.33401" lon="3.32264">
        <ele>117.1</ele>
        <time>2025-10-20T13:44:15.000Z</time>
      </trkpt>
      <trkpt lat="49.33402" lon="3.32264">
        <ele>116.9</ele>
        <time>2025-10-20T13:44:16.000Z</time>
      </trkpt>
      <trkpt lat="49.33403" lon="3.32263">
        <ele>116.4</ele>
        <time>2025-10-20T13:44:17.000Z</time>
      </trkpt>
      <trkpt lat="49.33405" lon="3.32263">
        <ele>116.1</ele>
        <time>2025-10-20T13:44:18.000Z</time>
      </trkpt>
      <trkpt lat="49.33406" lon="3.32263">
        <ele>116</ele>
        <time>2025-10-20T13:44:19.000Z</time>
      </trkpt>
      <trkpt lat="49.33408" lon="3.32262">
        <ele>116.2</ele>
        <time>2025-10-20T13:44:20.000Z</time>
      </trkpt>
      <trkpt lat="49.33409" lon="3.32262">
        <ele>116.4</ele>
        <time>2025-10-20T13:44:21.000Z</time>
      </trkpt>
      <trkpt lat="49.3341" lon="3.32262">
        <ele>116.2</ele>
        <time>2025-10-20T13:44:22.000Z</time>
      </trkpt>
      <trkpt lat="49.33411" lon="3.32261">
        <ele>116</ele>
        <time>2025-10-20T13:44:23.000Z</time>
      </trkpt>
      <trkpt lat="49.33413" lon="3.32261">
        <ele>115.6</ele>
        <time>2025-10-20T13:44:24.000Z</time>
      </trkpt>
      <trkpt lat="49.33414" lon="3.3226">
        <ele>115.2</ele>
        <time>2025-10-20T13:44:25.000Z</time>
      </trkpt>
      <trkpt lat="49.33415" lon="3.3226">
        <ele>114.9</ele>
        <time>2025-10-20T13:44:26.000Z</time>
      </trkpt>
      <trkpt lat="49.33416" lon="3.3226">
        <ele>115.1</ele>
        <time>2025-10-20T13:44:27.000Z</time>
      </trkpt>
      <trkpt lat="49.33416" lon="3.3226">
        <ele>115.1</ele>
        <time>2025-10-20T13:44:28.000Z</time>
      </trkpt>
      <trkpt lat="49.33416" lon="3.32261">
        <ele>115.1</ele>
        <time>2025-10-20T13:44:29.000Z</time>
      </trkpt>
      <trkpt lat="49.33417" lon="3.32261">
        <ele>115.4</ele>
        <time>2025-10-20T13:44:30.000Z</time>
      </trkpt>
      <trkpt lat="49.33418" lon="3.32261">
        <ele>115.6</ele>
        <time>2025-10-20T13:44:31.000Z</time>
      </trkpt>
      <trkpt lat="49.33419" lon="3.32261">
        <ele>115.9</ele>
        <time>2025-10-20T13:44:32.000Z</time>
      </trkpt>
      <trkpt lat="49.33419" lon="3.32261">
        <ele>115.6</ele>
        <time>2025-10-20T13:44:33.000Z</time>
      </trkpt>
      <trkpt lat="49.3342" lon="3.32261">
        <ele>115.8</ele>
        <time>2025-10-20T13:44:34.000Z</time>
      </trkpt>
      <trkpt lat="49.33421" lon="3.3226">
        <ele>115.9</ele>
        <time>2025-10-20T13:44:35.000Z</time>
      </trkpt>
      <trkpt lat="49.33422" lon="3.3226">
        <ele>115.9</ele>
        <time>2025-10-20T13:44:36.000Z</time>
      </trkpt>
      <trkpt lat="49.33423" lon="3.32259">
        <ele>115.9</ele>
        <time>2025-10-20T13:44:37.000Z</time>
      </trkpt>
      <trkpt lat="49.33424" lon="3.32258">
        <ele>115.9</ele>
        <time>2025-10-20T13:44:38.000Z</time>
      </trkpt>
      <trkpt lat="49.33425" lon="3.32258">
        <ele>116</ele>
        <time>2025-10-20T13:44:39.000Z</time>
      </trkpt>
      <trkpt lat="49.33426" lon="3.32257">
        <ele>116.1</ele>
        <time>2025-10-20T13:44:40.000Z</time>
      </trkpt>
      <trkpt lat="49.33427" lon="3.32256">
        <ele>116.2</ele>
        <time>2025-10-20T13:44:41.000Z</time>
      </trkpt>
      <trkpt lat="49.33429" lon="3.32256">
        <ele>116.5</ele>
        <time>2025-10-20T13:44:42.000Z</time>
      </trkpt>
      <trkpt lat="49.3343" lon="3.32255">
        <ele>116.3</ele>
        <time>2025-10-20T13:44:43.000Z</time>
      </trkpt>
      <trkpt lat="49.33431" lon="3.32255">
        <ele>116.5</ele>
        <time>2025-10-20T13:44:44.000Z</time>
      </trkpt>
      <trkpt lat="49.33432" lon="3.32254">
        <ele>116.7</ele>
        <time>2025-10-20T13:44:45.000Z</time>
      </trkpt>
      <trkpt lat="49.33433" lon="3.32253">
        <ele>117</ele>
        <time>2025-10-20T13:44:46.000Z</time>
      </trkpt>
      <trkpt lat="49.33434" lon="3.32252">
        <ele>117.2</ele>
        <time>2025-10-20T13:44:47.000Z</time>
      </trkpt>
      <trkpt lat="49.33435" lon="3.32251">
        <ele>117.5</ele>
        <time>2025-10-20T13:44:48.000Z</time>
      </trkpt>
      <trkpt lat="49.33437" lon="3.3225">
        <ele>117.5</ele>
        <time>2025-10-20T13:44:49.000Z</time>
      </trkpt>
      <trkpt lat="49.33437" lon="3.3225">
        <ele>117.9</ele>
        <time>2025-10-20T13:44:50.000Z</time>
      </trkpt>
      <trkpt lat="49.33438" lon="3.3225">
        <ele>118.4</ele>
        <time>2025-10-20T13:44:51.000Z</time>
      </trkpt>
      <trkpt lat="49.33439" lon="3.32249">
        <ele>118.9</ele>
        <time>2025-10-20T13:44:52.000Z</time>
      </trkpt>
      <trkpt lat="49.3344" lon="3.3225">
        <ele>119.4</ele>
        <time>2025-10-20T13:44:53.000Z</time>
      </trkpt>
      <trkpt lat="49.33441" lon="3.3225">
        <ele>119.8</ele>
        <time>2025-10-20T13:44:54.000Z</time>
      </trkpt>
      <trkpt lat="49.33442" lon="3.3225">
        <ele>120.3</ele>
        <time>2025-10-20T13:44:55.000Z</time>
      </trkpt>
      <trkpt lat="49.33443" lon="3.3225">
        <ele>120.6</ele>
        <time>2025-10-20T13:44:56.000Z</time>
      </trkpt>
      <trkpt lat="49.33444" lon="3.32251">
        <ele>121.1</ele>
        <time>2025-10-20T13:44:57.000Z</time>
      </trkpt>
      <trkpt lat="49.33445" lon="3.3225">
        <ele>121.3</ele>
        <time>2025-10-20T13:44:58.000Z</time>
      </trkpt>
      <trkpt lat="49.33446" lon="3.32249">
        <ele>121.4</ele>
        <time>2025-10-20T13:44:59.000Z</time>
      </trkpt>
      <trkpt lat="49.33447" lon="3.32249">
        <ele>121.9</ele>
        <time>2025-10-20T13:45:00.000Z</time>
      </trkpt>
      <trkpt lat="49.33448" lon="3.32249">
        <ele>123.4</ele>
        <time>2025-10-20T13:45:01.000Z</time>
      </trkpt>
      <trkpt lat="49.33449" lon="3.32249">
        <ele>124.5</ele>
        <time>2025-10-20T13:45:02.000Z</time>
      </trkpt>
      <trkpt lat="49.3345" lon="3.32249">
        <ele>125.5</ele>
        <time>2025-10-20T13:45:03.000Z</time>
      </trkpt>
      <trkpt lat="49.33452" lon="3.32249">
        <ele>126.4</ele>
        <time>2025-10-20T13:45:04.000Z</time>
      </trkpt>
      <trkpt lat="49.33453" lon="3.32249">
        <ele>127.1</ele>
        <time>2025-10-20T13:45:05.000Z</time>
      </trkpt>
      <trkpt lat="49.33455" lon="3.32249">
        <ele>127.7</ele>
        <time>2025-10-20T13:45:06.000Z</time>
      </trkpt>
      <trkpt lat="49.33456" lon="3.32249">
        <ele>128.1</ele>
        <time>2025-10-20T13:45:07.000Z</time>
      </trkpt>
      <trkpt lat="49.33457" lon="3.3225">
        <ele>128.5</ele>
        <time>2025-10-20T13:45:08.000Z</time>
      </trkpt>
      <trkpt lat="49.33459" lon="3.3225">
        <ele>128.8</ele>
        <time>2025-10-20T13:45:09.000Z</time>
      </trkpt>
      <trkpt lat="49.3346" lon="3.3225">
        <ele>129.5</ele>
        <time>2025-10-20T13:45:10.000Z</time>
      </trkpt>
      <trkpt lat="49.33461" lon="3.3225">
        <ele>130.1</ele>
        <time>2025-10-20T13:45:11.000Z</time>
      </trkpt>
      <trkpt lat="49.33462" lon="3.3225">
        <ele>130.9</ele>
        <time>2025-10-20T13:45:12.000Z</time>
      </trkpt>
      <trkpt lat="49.33463" lon="3.3225">
        <ele>131.3</ele>
        <time>2025-10-20T13:45:13.000Z</time>
      </trkpt>
      <trkpt lat="49.33464" lon="3.3225">
        <ele>131.7</ele>
        <time>2025-10-20T13:45:14.000Z</time>
      </trkpt>
      <trkpt lat="49.33465" lon="3.3225">
        <ele>132.3</ele>
        <time>2025-10-20T13:45:15.000Z</time>
      </trkpt>
      <trkpt lat="49.33467" lon="3.3225">
        <ele>132.9</ele>
        <time>2025-10-20T13:45:16.000Z</time>
      </trkpt>
      <trkpt lat="49.33467" lon="3.3225">
        <ele>133.5</ele>
        <time>2025-10-20T13:45:17.000Z</time>
      </trkpt>
      <trkpt lat="49.33468" lon="3.32249">
        <ele>134.3</ele>
        <time>2025-10-20T13:45:18.000Z</time>
      </trkpt>
      <trkpt lat="49.3347" lon="3.32249">
        <ele>135</ele>
        <time>2025-10-20T13:45:19.000Z</time>
      </trkpt>
      <trkpt lat="49.33471" lon="3.32249">
        <ele>135.7</ele>
        <time>2025-10-20T13:45:20.000Z</time>
      </trkpt>
      <trkpt lat="49.33472" lon="3.3225">
        <ele>136.5</ele>
        <time>2025-10-20T13:45:21.000Z</time>
      </trkpt>
      <trkpt lat="49.33473" lon="3.3225">
        <ele>137</ele>
        <time>2025-10-20T13:45:22.000Z</time>
      </trkpt>
      <trkpt lat="49.33474" lon="3.3225">
        <ele>137.2</ele>
        <time>2025-10-20T13:45:23.000Z</time>
      </trkpt>
      <trkpt lat="49.33475" lon="3.3225">
        <ele>137.5</ele>
        <time>2025-10-20T13:45:24.000Z</time>
      </trkpt>
      <trkpt lat="49.33476" lon="3.32251">
        <ele>137.8</ele>
        <time>2025-10-20T13:45:25.000Z</time>
      </trkpt>
      <trkpt lat="49.33477" lon="3.32251">
        <ele>138.3</ele>
        <time>2025-10-20T13:45:26.000Z</time>
      </trkpt>
      <trkpt lat="49.33479" lon="3.32252">
        <ele>138.1</ele>
        <time>2025-10-20T13:45:27.000Z</time>
      </trkpt>
      <trkpt lat="49.3348" lon="3.32253">
        <ele>138.5</ele>
        <time>2025-10-20T13:45:28.000Z</time>
      </trkpt>
      <trkpt lat="49.33481" lon="3.32254">
        <ele>138.9</ele>
        <time>2025-10-20T13:45:29.000Z</time>
      </trkpt>
      <trkpt lat="49.33482" lon="3.32255">
        <ele>139.2</ele>
        <time>2025-10-20T13:45:30.000Z</time>
      </trkpt>
      <trkpt lat="49.33483" lon="3.32256">
        <ele>139.6</ele>
        <time>2025-10-20T13:45:31.000Z</time>
      </trkpt>
      <trkpt lat="49.33483" lon="3.32256">
        <ele>139.9</ele>
        <time>2025-10-20T13:45:32.000Z</time>
      </trkpt>
      <trkpt lat="49.33484" lon="3.32256">
        <ele>140.2</ele>
        <time>2025-10-20T13:45:33.000Z</time>
      </trkpt>
      <trkpt lat="49.33485" lon="3.32257">
        <ele>140.2</ele>
        <time>2025-10-20T13:45:34.000Z</time>
      </trkpt>
      <trkpt lat="49.33486" lon="3.32257">
        <ele>140.1</ele>
        <time>2025-10-20T13:45:35.000Z</time>
      </trkpt>
      <trkpt lat="49.33487" lon="3.32258">
        <ele>140.2</ele>
        <time>2025-10-20T13:45:36.000Z</time>
      </trkpt>
      <trkpt lat="49.33488" lon="3.32258">
        <ele>140.3</ele>
        <time>2025-10-20T13:45:37.000Z</time>
      </trkpt>
      <trkpt lat="49.33489" lon="3.32258">
        <ele>140.4</ele>
        <time>2025-10-20T13:45:38.000Z</time>
      </trkpt>
      <trkpt lat="49.3349" lon="3.32259">
        <ele>140.5</ele>
        <time>2025-10-20T13:45:39.000Z</time>
      </trkpt>
      <trkpt lat="49.33491" lon="3.32259">
        <ele>140.5</ele>
        <time>2025-10-20T13:45:40.000Z</time>
      </trkpt>
      <trkpt lat="49.33492" lon="3.32259">
        <ele>140.4</ele>
        <time>2025-10-20T13:45:41.000Z</time>
      </trkpt>
      <trkpt lat="49.33493" lon="3.32259">
        <ele>140.5</ele>
        <time>2025-10-20T13:45:42.000Z</time>
      </trkpt>
      <trkpt lat="49.33494" lon="3.3226">
        <ele>140.5</ele>
        <time>2025-10-20T13:45:43.000Z</time>
      </trkpt>
      <trkpt lat="49.33494" lon="3.32261">
        <ele>140.5</ele>
        <time>2025-10-20T13:45:44.000Z</time>
      </trkpt>
      <trkpt lat="49.33495" lon="3.32262">
        <ele>140.4</ele>
        <time>2025-10-20T13:45:45.000Z</time>
      </trkpt>
      <trkpt lat="49.33496" lon="3.32263">
        <ele>140.3</ele>
        <time>2025-10-20T13:45:46.000Z</time>
      </trkpt>
      <trkpt lat="49.33498" lon="3.32264">
        <ele>140.3</ele>
        <time>2025-10-20T13:45:47.000Z</time>
      </trkpt>
      <trkpt lat="49.33499" lon="3.32265">
        <ele>140</ele>
        <time>2025-10-20T13:45:48.000Z</time>
      </trkpt>
      <trkpt lat="49.335" lon="3.32266">
        <ele>139.7</ele>
        <time>2025-10-20T13:45:49.000Z</time>
      </trkpt>
      <trkpt lat="49.33502" lon="3.32266">
        <ele>139.3</ele>
        <time>2025-10-20T13:45:50.000Z</time>
      </trkpt>
      <trkpt lat="49.33503" lon="3.32266">
        <ele>138.7</ele>
        <time>2025-10-20T13:45:51.000Z</time>
      </trkpt>
      <trkpt lat="49.33504" lon="3.32266">
        <ele>138.2</ele>
        <time>2025-10-20T13:45:52.000Z</time>
      </trkpt>
      <trkpt lat="49.33506" lon="3.32266">
        <ele>137.5</ele>
        <time>2025-10-20T13:45:53.000Z</time>
      </trkpt>
      <trkpt lat="49.33507" lon="3.32267">
        <ele>136.8</ele>
        <time>2025-10-20T13:45:54.000Z</time>
      </trkpt>
      <trkpt lat="49.33509" lon="3.32267">
        <ele>136.2</ele>
        <time>2025-10-20T13:45:55.000Z</time>
      </trkpt>
      <trkpt lat="49.33511" lon="3.32268">
        <ele>135.3</ele>
        <time>2025-10-20T13:45:56.000Z</time>
      </trkpt>
      <trkpt lat="49.33513" lon="3.32269">
        <ele>134.6</ele>
        <time>2025-10-20T13:45:57.000Z</time>
      </trkpt>
      <trkpt lat="49.33514" lon="3.32269">
        <ele>133.8</ele>
        <time>2025-10-20T13:45:58.000Z</time>
      </trkpt>
      <trkpt lat="49.33516" lon="3.3227">
        <ele>133</ele>
        <time>2025-10-20T13:45:59.000Z</time>
      </trkpt>
      <trkpt lat="49.33517" lon="3.3227">
        <ele>132</ele>
        <time>2025-10-20T13:46:00.000Z</time>
      </trkpt>
      <trkpt lat="49.33518" lon="3.3227">
        <ele>131.5</ele>
        <time>2025-10-20T13:46:01.000Z</time>
      </trkpt>
      <trkpt lat="49.33519" lon="3.32271">
        <ele>130.8</ele>
        <time>2025-10-20T13:46:02.000Z</time>
      </trkpt>
      <trkpt lat="49.3352" lon="3.32272">
        <ele>130.1</ele>
        <time>2025-10-20T13:46:03.000Z</time>
      </trkpt>
      <trkpt lat="49.33521" lon="3.32273">
        <ele>129.8</ele>
        <time>2025-10-20T13:46:04.000Z</time>
      </trkpt>
      <trkpt lat="49.33521" lon="3.32273">
        <ele>129.4</ele>
        <time>2025-10-20T13:46:05.000Z</time>
      </trkpt>
      <trkpt lat="49.33522" lon="3.32274">
        <ele>129.2</ele>
        <time>2025-10-20T13:46:06.000Z</time>
      </trkpt>
      <trkpt lat="49.33522" lon="3.32275">
        <ele>128.6</ele>
        <time>2025-10-20T13:46:07.000Z</time>
      </trkpt>
      <trkpt lat="49.33522" lon="3.32275">
        <ele>128.2</ele>
        <time>2025-10-20T13:46:08.000Z</time>
      </trkpt>
      <trkpt lat="49.33522" lon="3.32276">
        <ele>127.9</ele>
        <time>2025-10-20T13:46:09.000Z</time>
      </trkpt>
      <trkpt lat="49.33522" lon="3.32277">
        <ele>127.7</ele>
        <time>2025-10-20T13:46:10.000Z</time>
      </trkpt>
      <trkpt lat="49.33522" lon="3.32278">
        <ele>127.7</ele>
        <time>2025-10-20T13:46:11.000Z</time>
      </trkpt>
      <trkpt lat="49.33522" lon="3.32278">
        <ele>127.2</ele>
        <time>2025-10-20T13:46:12.000Z</time>
      </trkpt>
      <trkpt lat="49.33522" lon="3.32279">
        <ele>126.8</ele>
        <time>2025-10-20T13:46:13.000Z</time>
      </trkpt>
      <trkpt lat="49.33522" lon="3.32279">
        <ele>126.6</ele>
        <time>2025-10-20T13:46:14.000Z</time>
      </trkpt>
      <trkpt lat="49.33521" lon="3.3228">
        <ele>126.1</ele>
        <time>2025-10-20T13:46:15.000Z</time>
      </trkpt>
      <trkpt lat="49.33521" lon="3.3228">
        <ele>125.5</ele>
        <time>2025-10-20T13:46:16.000Z</time>
      </trkpt>
      <trkpt lat="49.3352" lon="3.3228">
        <ele>125</ele>
        <time>2025-10-20T13:46:17.000Z</time>
      </trkpt>
      <trkpt lat="49.33519" lon="3.32281">
        <ele>124.4</ele>
        <time>2025-10-20T13:46:18.000Z</time>
      </trkpt>
      <trkpt lat="49.33519" lon="3.32282">
        <ele>123.9</ele>
        <time>2025-10-20T13:46:19.000Z</time>
      </trkpt>
      <trkpt lat="49.33518" lon="3.32282">
        <ele>123.4</ele>
        <time>2025-10-20T13:46:20.000Z</time>
      </trkpt>
      <trkpt lat="49.33517" lon="3.32283">
        <ele>123.2</ele>
        <time>2025-10-20T13:46:21.000Z</time>
      </trkpt>
      <trkpt lat="49.33515" lon="3.32284">
        <ele>122.5</ele>
        <time>2025-10-20T13:46:22.000Z</time>
      </trkpt>
      <trkpt lat="49.33514" lon="3.32285">
        <ele>122.2</ele>
        <time>2025-10-20T13:46:23.000Z</time>
      </trkpt>
      <trkpt lat="49.33513" lon="3.32286">
        <ele>122</ele>
        <time>2025-10-20T13:46:24.000Z</time>
      </trkpt>
      <trkpt lat="49.33512" lon="3.32287">
        <ele>121.7</ele>
        <time>2025-10-20T13:46:25.000Z</time>
      </trkpt>
      <trkpt lat="49.33511" lon="3.32288">
        <ele>121.3</ele>
        <time>2025-10-20T13:46:26.000Z</time>
      </trkpt>
      <trkpt lat="49.33511" lon="3.32289">
        <ele>121.1</ele>
        <time>2025-10-20T13:46:27.000Z</time>
      </trkpt>
      <trkpt lat="49.3351" lon="3.32291">
        <ele>121.1</ele>
        <time>2025-10-20T13:46:28.000Z</time>
      </trkpt>
      <trkpt lat="49.33508" lon="3.32292">
        <ele>120.7</ele>
        <time>2025-10-20T13:46:29.000Z</time>
      </trkpt>
      <trkpt lat="49.33507" lon="3.32294">
        <ele>120.4</ele>
        <time>2025-10-20T13:46:30.000Z</time>
      </trkpt>
      <trkpt lat="49.33506" lon="3.32295">
        <ele>120</ele>
        <time>2025-10-20T13:46:31.000Z</time>
      </trkpt>
      <trkpt lat="49.33505" lon="3.32296">
        <ele>119.9</ele>
        <time>2025-10-20T13:46:32.000Z</time>
      </trkpt>
      <trkpt lat="49.33504" lon="3.32297">
        <ele>119.4</ele>
        <time>2025-10-20T13:46:33.000Z</time>
      </trkpt>
      <trkpt lat="49.33503" lon="3.32297">
        <ele>119.2</ele>
        <time>2025-10-20T13:46:34.000Z</time>
      </trkpt>
      <trkpt lat="49.33502" lon="3.32296">
        <ele>118.8</ele>
        <time>2025-10-20T13:46:35.000Z</time>
      </trkpt>
      <trkpt lat="49.33502" lon="3.32296">
        <ele>118.8</ele>
        <time>2025-10-20T13:46:36.000Z</time>
      </trkpt>
      <trkpt lat="49.33501" lon="3.32296">
        <ele>118.5</ele>
        <time>2025-10-20T13:46:37.000Z</time>
      </trkpt>
      <trkpt lat="49.33501" lon="3.32295">
        <ele>118</ele>
        <time>2025-10-20T13:46:38.000Z</time>
      </trkpt>
      <trkpt lat="49.33501" lon="3.32294">
        <ele>117.2</ele>
        <time>2025-10-20T13:46:39.000Z</time>
      </trkpt>
      <trkpt lat="49.33501" lon="3.32294">
        <ele>116.4</ele>
        <time>2025-10-20T13:46:40.000Z</time>
      </trkpt>
      <trkpt lat="49.33501" lon="3.32294">
        <ele>116.2</ele>
        <time>2025-10-20T13:46:41.000Z</time>
      </trkpt>
      <trkpt lat="49.335" lon="3.32294">
        <ele>115.9</ele>
        <time>2025-10-20T13:46:42.000Z</time>
      </trkpt>
      <trkpt lat="49.335" lon="3.32294">
        <ele>115.6</ele>
        <time>2025-10-20T13:46:43.000Z</time>
      </trkpt>
      <trkpt lat="49.335" lon="3.32293">
        <ele>115.2</ele>
        <time>2025-10-20T13:46:44.000Z</time>
      </trkpt>
      <trkpt lat="49.335" lon="3.32293">
        <ele>114.6</ele>
        <time>2025-10-20T13:46:45.000Z</time>
      </trkpt>
      <trkpt lat="49.335" lon="3.32292">
        <ele>113.9</ele>
        <time>2025-10-20T13:46:46.000Z</time>
      </trkpt>
      <trkpt lat="49.335" lon="3.32292">
        <ele>113.2</ele>
        <time>2025-10-20T13:46:47.000Z</time>
      </trkpt>
      <trkpt lat="49.335" lon="3.32291">
        <ele>112.5</ele>
        <time>2025-10-20T13:46:48.000Z</time>
      </trkpt>
      <trkpt lat="49.33499" lon="3.32291">
        <ele>112.1</ele>
        <time>2025-10-20T13:46:49.000Z</time>
      </trkpt>
      <trkpt lat="49.33498" lon="3.32292">
        <ele>111.7</ele>
        <time>2025-10-20T13:46:50.000Z</time>
      </trkpt>
      <trkpt lat="49.33496" lon="3.32294">
        <ele>110.7</ele>
        <time>2025-10-20T13:46:51.000Z</time>
      </trkpt>
      <trkpt lat="49.33495" lon="3.32296">
        <ele>110.3</ele>
        <time>2025-10-20T13:46:52.000Z</time>
      </trkpt>
      <trkpt lat="49.33494" lon="3.32297">
        <ele>110</ele>
        <time>2025-10-20T13:46:53.000Z</time>
      </trkpt>
      <trkpt lat="49.33492" lon="3.32299">
        <ele>109.4</ele>
        <time>2025-10-20T13:46:54.000Z</time>
      </trkpt>
      <trkpt lat="49.33491" lon="3.32302">
        <ele>109.1</ele>
        <time>2025-10-20T13:46:55.000Z</time>
      </trkpt>
      <trkpt lat="49.3349" lon="3.32305">
        <ele>108.9</ele>
        <time>2025-10-20T13:46:56.000Z</time>
      </trkpt>
      <trkpt lat="49.33487" lon="3.32311">
        <ele>108.8</ele>
        <time>2025-10-20T13:46:57.000Z</time>
      </trkpt>
      <trkpt lat="49.33485" lon="3.32314">
        <ele>109</ele>
        <time>2025-10-20T13:46:58.000Z</time>
      </trkpt>
      <trkpt lat="49.33485" lon="3.32318">
        <ele>108.9</ele>
        <time>2025-10-20T13:46:59.000Z</time>
      </trkpt>
      <trkpt lat="49.33484" lon="3.32323">
        <ele>109.4</ele>
        <time>2025-10-20T13:47:00.000Z</time>
      </trkpt>
      <trkpt lat="49.33482" lon="3.32327">
        <ele>109.8</ele>
        <time>2025-10-20T13:47:01.000Z</time>
      </trkpt>
      <trkpt lat="49.3348" lon="3.32331">
        <ele>110.1</ele>
        <time>2025-10-20T13:47:02.000Z</time>
      </trkpt>
      <trkpt lat="49.33477" lon="3.32335">
        <ele>110.1</ele>
        <time>2025-10-20T13:47:03.000Z</time>
      </trkpt>
      <trkpt lat="49.33475" lon="3.32337">
        <ele>110.4</ele>
        <time>2025-10-20T13:47:04.000Z</time>
      </trkpt>
      <trkpt lat="49.33473" lon="3.3234">
        <ele>110.8</ele>
        <time>2025-10-20T13:47:05.000Z</time>
      </trkpt>
      <trkpt lat="49.33471" lon="3.32341">
        <ele>111.6</ele>
        <time>2025-10-20T13:47:06.000Z</time>
      </trkpt>
      <trkpt lat="49.33469" lon="3.32344">
        <ele>111.4</ele>
        <time>2025-10-20T13:47:07.000Z</time>
      </trkpt>
      <trkpt lat="49.33467" lon="3.32346">
        <ele>111.2</ele>
        <time>2025-10-20T13:47:08.000Z</time>
      </trkpt>
      <trkpt lat="49.33465" lon="3.32348">
        <ele>110.8</ele>
        <time>2025-10-20T13:47:09.000Z</time>
      </trkpt>
      <trkpt lat="49.33464" lon="3.3235">
        <ele>110.5</ele>
        <time>2025-10-20T13:47:10.000Z</time>
      </trkpt>
      <trkpt lat="49.33463" lon="3.32352">
        <ele>110</ele>
        <time>2025-10-20T13:47:11.000Z</time>
      </trkpt>
      <trkpt lat="49.33462" lon="3.32353">
        <ele>109.7</ele>
        <time>2025-10-20T13:47:12.000Z</time>
      </trkpt>
      <trkpt lat="49.33461" lon="3.32355">
        <ele>109</ele>
        <time>2025-10-20T13:47:13.000Z</time>
      </trkpt>
      <trkpt lat="49.33461" lon="3.32356">
        <ele>109.2</ele>
        <time>2025-10-20T13:47:14.000Z</time>
      </trkpt>
      <trkpt lat="49.3346" lon="3.32357">
        <ele>109.2</ele>
        <time>2025-10-20T13:47:15.000Z</time>
      </trkpt>
      <trkpt lat="49.33459" lon="3.32359">
        <ele>109.1</ele>
        <time>2025-10-20T13:47:16.000Z</time>
      </trkpt>
      <trkpt lat="49.33458" lon="3.3236">
        <ele>109.2</ele>
        <time>2025-10-20T13:47:17.000Z</time>
      </trkpt>
      <trkpt lat="49.33457" lon="3.32361">
        <ele>109.1</ele>
        <time>2025-10-20T13:47:18.000Z</time>
      </trkpt>
      <trkpt lat="49.33456" lon="3.32363">
        <ele>108.8</ele>
        <time>2025-10-20T13:47:19.000Z</time>
      </trkpt>
      <trkpt lat="49.33455" lon="3.32364">
        <ele>108.4</ele>
        <time>2025-10-20T13:47:20.000Z</time>
      </trkpt>
      <trkpt lat="49.33454" lon="3.32365">
        <ele>108.5</ele>
        <time>2025-10-20T13:47:21.000Z</time>
      </trkpt>
      <trkpt lat="49.33454" lon="3.32366">
        <ele>108.3</ele>
        <time>2025-10-20T13:47:22.000Z</time>
      </trkpt>
      <trkpt lat="49.33453" lon="3.32367">
        <ele>107.7</ele>
        <time>2025-10-20T13:47:23.000Z</time>
      </trkpt>
      <trkpt lat="49.33451" lon="3.32368">
        <ele>107.6</ele>
        <time>2025-10-20T13:47:24.000Z</time>
      </trkpt>
      <trkpt lat="49.33451" lon="3.32369">
        <ele>107.3</ele>
        <time>2025-10-20T13:47:25.000Z</time>
      </trkpt>
      <trkpt lat="49.3345" lon="3.3237">
        <ele>107.3</ele>
        <time>2025-10-20T13:47:26.000Z</time>
      </trkpt>
      <trkpt lat="49.33449" lon="3.32372">
        <ele>107.4</ele>
        <time>2025-10-20T13:47:27.000Z</time>
      </trkpt>
      <trkpt lat="49.33449" lon="3.32373">
        <ele>107.5</ele>
        <time>2025-10-20T13:47:28.000Z</time>
      </trkpt>
      <trkpt lat="49.33448" lon="3.32375">
        <ele>107.3</ele>
        <time>2025-10-20T13:47:29.000Z</time>
      </trkpt>
      <trkpt lat="49.33446" lon="3.32376">
        <ele>107.2</ele>
        <time>2025-10-20T13:47:30.000Z</time>
      </trkpt>
      <trkpt lat="49.33445" lon="3.32378">
        <ele>106.9</ele>
        <time>2025-10-20T13:47:31.000Z</time>
      </trkpt>
      <trkpt lat="49.33444" lon="3.3238">
        <ele>106.4</ele>
        <time>2025-10-20T13:47:32.000Z</time>
      </trkpt>
      <trkpt lat="49.33443" lon="3.32381">
        <ele>105.9</ele>
        <time>2025-10-20T13:47:33.000Z</time>
      </trkpt>
      <trkpt lat="49.33441" lon="3.32383">
        <ele>105.6</ele>
        <time>2025-10-20T13:47:34.000Z</time>
      </trkpt>
      <trkpt lat="49.3344" lon="3.32384">
        <ele>105.4</ele>
        <time>2025-10-20T13:47:35.000Z</time>
      </trkpt>
      <trkpt lat="49.33439" lon="3.32385">
        <ele>105.4</ele>
        <time>2025-10-20T13:47:36.000Z</time>
      </trkpt>
      <trkpt lat="49.33439" lon="3.32387">
        <ele>105.1</ele>
        <time>2025-10-20T13:47:37.000Z</time>
      </trkpt>
      <trkpt lat="49.33438" lon="3.32388">
        <ele>104.9</ele>
        <time>2025-10-20T13:47:38.000Z</time>
      </trkpt>
      <trkpt lat="49.33437" lon="3.3239">
        <ele>104.8</ele>
        <time>2025-10-20T13:47:39.000Z</time>
      </trkpt>
      <trkpt lat="49.33435" lon="3.32392">
        <ele>104.5</ele>
        <time>2025-10-20T13:47:40.000Z</time>
      </trkpt>
      <trkpt lat="49.33434" lon="3.32393">
        <ele>104.7</ele>
        <time>2025-10-20T13:47:41.000Z</time>
      </trkpt>
      <trkpt lat="49.33434" lon="3.32395">
        <ele>104.9</ele>
        <time>2025-10-20T13:47:42.000Z</time>
      </trkpt>
      <trkpt lat="49.33433" lon="3.32396">
        <ele>105.1</ele>
        <time>2025-10-20T13:47:43.000Z</time>
      </trkpt>
      <trkpt lat="49.33433" lon="3.32397">
        <ele>105.4</ele>
        <time>2025-10-20T13:47:44.000Z</time>
      </trkpt>
      <trkpt lat="49.33433" lon="3.32399">
        <ele>105.5</ele>
        <time>2025-10-20T13:47:45.000Z</time>
      </trkpt>
      <trkpt lat="49.33432" lon="3.324">
        <ele>105.5</ele>
        <time>2025-10-20T13:47:46.000Z</time>
      </trkpt>
      <trkpt lat="49.33431" lon="3.32401">
        <ele>105.3</ele>
        <time>2025-10-20T13:47:47.000Z</time>
      </trkpt>
      <trkpt lat="49.3343" lon="3.32403">
        <ele>104.7</ele>
        <time>2025-10-20T13:47:48.000Z</time>
      </trkpt>
      <trkpt lat="49.33429" lon="3.32405">
        <ele>104.5</ele>
        <time>2025-10-20T13:47:49.000Z</time>
      </trkpt>
      <trkpt lat="49.33428" lon="3.32406">
        <ele>104.6</ele>
        <time>2025-10-20T13:47:50.000Z</time>
      </trkpt>
      <trkpt lat="49.33428" lon="3.32406">
        <ele>104.6</ele>
        <time>2025-10-20T13:47:51.000Z</time>
      </trkpt>
      <trkpt lat="49.33426" lon="3.32408">
        <ele>104.4</ele>
        <time>2025-10-20T13:47:52.000Z</time>
      </trkpt>
      <trkpt lat="49.33426" lon="3.32408">
        <ele>104.6</ele>
        <time>2025-10-20T13:47:53.000Z</time>
      </trkpt>
      <trkpt lat="49.33425" lon="3.3241">
        <ele>104.6</ele>
        <time>2025-10-20T13:47:54.000Z</time>
      </trkpt>
      <trkpt lat="49.33424" lon="3.32412">
        <ele>104.6</ele>
        <time>2025-10-20T13:47:55.000Z</time>
      </trkpt>
      <trkpt lat="49.33423" lon="3.32414">
        <ele>104.8</ele>
        <time>2025-10-20T13:47:56.000Z</time>
      </trkpt>
      <trkpt lat="49.33422" lon="3.32416">
        <ele>104.6</ele>
        <time>2025-10-20T13:47:57.000Z</time>
      </trkpt>
      <trkpt lat="49.33422" lon="3.32417">
        <ele>104.7</ele>
        <time>2025-10-20T13:47:58.000Z</time>
      </trkpt>
      <trkpt lat="49.33421" lon="3.32419">
        <ele>104.4</ele>
        <time>2025-10-20T13:47:59.000Z</time>
      </trkpt>
      <trkpt lat="49.3342" lon="3.32421">
        <ele>104.1</ele>
        <time>2025-10-20T13:48:00.000Z</time>
      </trkpt>
      <trkpt lat="49.33419" lon="3.32423">
        <ele>104.1</ele>
        <time>2025-10-20T13:48:01.000Z</time>
      </trkpt>
      <trkpt lat="49.33417" lon="3.32424">
        <ele>104.1</ele>
        <time>2025-10-20T13:48:02.000Z</time>
      </trkpt>
      <trkpt lat="49.33416" lon="3.32426">
        <ele>103.7</ele>
        <time>2025-10-20T13:48:03.000Z</time>
      </trkpt>
      <trkpt lat="49.33415" lon="3.32427">
        <ele>103.7</ele>
        <time>2025-10-20T13:48:04.000Z</time>
      </trkpt>
      <trkpt lat="49.33414" lon="3.32428">
        <ele>103.7</ele>
        <time>2025-10-20T13:48:05.000Z</time>
      </trkpt>
      <trkpt lat="49.33413" lon="3.3243">
        <ele>103.8</ele>
        <time>2025-10-20T13:48:06.000Z</time>
      </trkpt>
      <trkpt lat="49.33412" lon="3.32431">
        <ele>103.8</ele>
        <time>2025-10-20T13:48:07.000Z</time>
      </trkpt>
      <trkpt lat="49.33411" lon="3.32433">
        <ele>104.5</ele>
        <time>2025-10-20T13:48:08.000Z</time>
      </trkpt>
      <trkpt lat="49.3341" lon="3.32434">
        <ele>105.1</ele>
        <time>2025-10-20T13:48:09.000Z</time>
      </trkpt>
      <trkpt lat="49.33409" lon="3.32435">
        <ele>105.9</ele>
        <time>2025-10-20T13:48:10.000Z</time>
      </trkpt>
      <trkpt lat="49.33408" lon="3.32436">
        <ele>106.6</ele>
        <time>2025-10-20T13:48:11.000Z</time>
      </trkpt>
      <trkpt lat="49.33407" lon="3.32437">
        <ele>107.3</ele>
        <time>2025-10-20T13:48:12.000Z</time>
      </trkpt>
      <trkpt lat="49.33406" lon="3.32438">
        <ele>107.8</ele>
        <time>2025-10-20T13:48:13.000Z</time>
      </trkpt>
      <trkpt lat="49.33405" lon="3.3244">
        <ele>108.1</ele>
        <time>2025-10-20T13:48:14.000Z</time>
      </trkpt>
      <trkpt lat="49.33404" lon="3.32442">
        <ele>108.4</ele>
        <time>2025-10-20T13:48:15.000Z</time>
      </trkpt>
      <trkpt lat="49.33404" lon="3.32443">
        <ele>108.9</ele>
        <time>2025-10-20T13:48:16.000Z</time>
      </trkpt>
      <trkpt lat="49.33403" lon="3.32445">
        <ele>109.3</ele>
        <time>2025-10-20T13:48:17.000Z</time>
      </trkpt>
      <trkpt lat="49.33402" lon="3.32446">
        <ele>109.7</ele>
        <time>2025-10-20T13:48:18.000Z</time>
      </trkpt>
      <trkpt lat="49.33401" lon="3.32448">
        <ele>109.9</ele>
        <time>2025-10-20T13:48:19.000Z</time>
      </trkpt>
      <trkpt lat="49.334" lon="3.3245">
        <ele>110.1</ele>
        <time>2025-10-20T13:48:20.000Z</time>
      </trkpt>
      <trkpt lat="49.33399" lon="3.32451">
        <ele>110.2</ele>
        <time>2025-10-20T13:48:21.000Z</time>
      </trkpt>
      <trkpt lat="49.33398" lon="3.32453">
        <ele>110.3</ele>
        <time>2025-10-20T13:48:22.000Z</time>
      </trkpt>
      <trkpt lat="49.33397" lon="3.32455">
        <ele>110.7</ele>
        <time>2025-10-20T13:48:23.000Z</time>
      </trkpt>
      <trkpt lat="49.33397" lon="3.32457">
        <ele>110.8</ele>
        <time>2025-10-20T13:48:24.000Z</time>
      </trkpt>
      <trkpt lat="49.33395" lon="3.32459">
        <ele>110.3</ele>
        <time>2025-10-20T13:48:25.000Z</time>
      </trkpt>
      <trkpt lat="49.33395" lon="3.32462">
        <ele>110.4</ele>
        <time>2025-10-20T13:48:26.000Z</time>
      </trkpt>
      <trkpt lat="49.33394" lon="3.32464">
        <ele>109.6</ele>
        <time>2025-10-20T13:48:27.000Z</time>
      </trkpt>
      <trkpt lat="49.33393" lon="3.32466">
        <ele>108.9</ele>
        <time>2025-10-20T13:48:28.000Z</time>
      </trkpt>
      <trkpt lat="49.33393" lon="3.32468">
        <ele>108.8</ele>
        <time>2025-10-20T13:48:29.000Z</time>
      </trkpt>
      <trkpt lat="49.33391" lon="3.3247">
        <ele>108.2</ele>
        <time>2025-10-20T13:48:30.000Z</time>
      </trkpt>
      <trkpt lat="49.33391" lon="3.32472">
        <ele>107.9</ele>
        <time>2025-10-20T13:48:31.000Z</time>
      </trkpt>
      <trkpt lat="49.3339" lon="3.32474">
        <ele>107.6</ele>
        <time>2025-10-20T13:48:32.000Z</time>
      </trkpt>
      <trkpt lat="49.3339" lon="3.32476">
        <ele>107.1</ele>
        <time>2025-10-20T13:48:33.000Z</time>
      </trkpt>
      <trkpt lat="49.33389" lon="3.32478">
        <ele>106.6</ele>
        <time>2025-10-20T13:48:34.000Z</time>
      </trkpt>
      <trkpt lat="49.33388" lon="3.3248">
        <ele>105.7</ele>
        <time>2025-10-20T13:48:35.000Z</time>
      </trkpt>
      <trkpt lat="49.33387" lon="3.32482">
        <ele>105.4</ele>
        <time>2025-10-20T13:48:36.000Z</time>
      </trkpt>
      <trkpt lat="49.33386" lon="3.32484">
        <ele>105</ele>
        <time>2025-10-20T13:48:37.000Z</time>
      </trkpt>
      <trkpt lat="49.33385" lon="3.32486">
        <ele>104.7</ele>
        <time>2025-10-20T13:48:38.000Z</time>
      </trkpt>
      <trkpt lat="49.33385" lon="3.32487">
        <ele>104.4</ele>
        <time>2025-10-20T13:48:39.000Z</time>
      </trkpt>
      <trkpt lat="49.33384" lon="3.32489">
        <ele>104.1</ele>
        <time>2025-10-20T13:48:40.000Z</time>
      </trkpt>
      <trkpt lat="49.33383" lon="3.32491">
        <ele>103.9</ele>
        <time>2025-10-20T13:48:41.000Z</time>
      </trkpt>
      <trkpt lat="49.33382" lon="3.32493">
        <ele>103.3</ele>
        <time>2025-10-20T13:48:42.000Z</time>
      </trkpt>
      <trkpt lat="49.33381" lon="3.32494">
        <ele>103</ele>
        <time>2025-10-20T13:48:43.000Z</time>
      </trkpt>
      <trkpt lat="49.3338" lon="3.32496">
        <ele>102.6</ele>
        <time>2025-10-20T13:48:44.000Z</time>
      </trkpt>
      <trkpt lat="49.33379" lon="3.32497">
        <ele>102.1</ele>
        <time>2025-10-20T13:48:45.000Z</time>
      </trkpt>
      <trkpt lat="49.33379" lon="3.32498">
        <ele>101.7</ele>
        <time>2025-10-20T13:48:46.000Z</time>
      </trkpt>
      <trkpt lat="49.33378" lon="3.325">
        <ele>101.4</ele>
        <time>2025-10-20T13:48:47.000Z</time>
      </trkpt>
      <trkpt lat="49.33377" lon="3.32501">
        <ele>101.3</ele>
        <time>2025-10-20T13:48:48.000Z</time>
      </trkpt>
      <trkpt lat="49.33376" lon="3.32502">
        <ele>101.4</ele>
        <time>2025-10-20T13:48:49.000Z</time>
      </trkpt>
      <trkpt lat="49.33375" lon="3.32504">
        <ele>101.6</ele>
        <time>2025-10-20T13:48:50.000Z</time>
      </trkpt>
      <trkpt lat="49.33375" lon="3.32505">
        <ele>101.8</ele>
        <time>2025-10-20T13:48:51.000Z</time>
      </trkpt>
      <trkpt lat="49.33374" lon="3.32508">
        <ele>102</ele>
        <time>2025-10-20T13:48:52.000Z</time>
      </trkpt>
      <trkpt lat="49.33374" lon="3.3251">
        <ele>102.1</ele>
        <time>2025-10-20T13:48:53.000Z</time>
      </trkpt>
      <trkpt lat="49.33374" lon="3.32512">
        <ele>102.2</ele>
        <time>2025-10-20T13:48:54.000Z</time>
      </trkpt>
      <trkpt lat="49.33373" lon="3.32514">
        <ele>102.2</ele>
        <time>2025-10-20T13:48:55.000Z</time>
      </trkpt>
      <trkpt lat="49.33373" lon="3.32515">
        <ele>102.1</ele>
        <time>2025-10-20T13:48:56.000Z</time>
      </trkpt>
      <trkpt lat="49.33372" lon="3.32517">
        <ele>101.9</ele>
        <time>2025-10-20T13:48:57.000Z</time>
      </trkpt>
      <trkpt lat="49.33372" lon="3.32519">
        <ele>101.8</ele>
        <time>2025-10-20T13:48:58.000Z</time>
      </trkpt>
      <trkpt lat="49.33371" lon="3.32521">
        <ele>101.8</ele>
        <time>2025-10-20T13:48:59.000Z</time>
      </trkpt>
      <trkpt lat="49.33371" lon="3.32522">
        <ele>101.7</ele>
        <time>2025-10-20T13:49:00.000Z</time>
      </trkpt>
      <trkpt lat="49.33371" lon="3.32524">
        <ele>101.8</ele>
        <time>2025-10-20T13:49:01.000Z</time>
      </trkpt>
      <trkpt lat="49.3337" lon="3.32525">
        <ele>102</ele>
        <time>2025-10-20T13:49:02.000Z</time>
      </trkpt>
      <trkpt lat="49.33369" lon="3.32527">
        <ele>102.1</ele>
        <time>2025-10-20T13:49:03.000Z</time>
      </trkpt>
      <trkpt lat="49.33369" lon="3.32528">
        <ele>102.4</ele>
        <time>2025-10-20T13:49:04.000Z</time>
      </trkpt>
      <trkpt lat="49.33368" lon="3.3253">
        <ele>102.6</ele>
        <time>2025-10-20T13:49:05.000Z</time>
      </trkpt>
      <trkpt lat="49.33368" lon="3.32532">
        <ele>102.8</ele>
        <time>2025-10-20T13:49:06.000Z</time>
      </trkpt>
      <trkpt lat="49.33367" lon="3.32534">
        <ele>103</ele>
        <time>2025-10-20T13:49:07.000Z</time>
      </trkpt>
      <trkpt lat="49.33366" lon="3.32535">
        <ele>103.1</ele>
        <time>2025-10-20T13:49:08.000Z</time>
      </trkpt>
      <trkpt lat="49.33366" lon="3.32537">
        <ele>103.3</ele>
        <time>2025-10-20T13:49:09.000Z</time>
      </trkpt>
      <trkpt lat="49.33366" lon="3.32539">
        <ele>103.4</ele>
        <time>2025-10-20T13:49:10.000Z</time>
      </trkpt>
      <trkpt lat="49.33365" lon="3.32541">
        <ele>103.5</ele>
        <time>2025-10-20T13:49:11.000Z</time>
      </trkpt>
      <trkpt lat="49.33364" lon="3.32542">
        <ele>103.5</ele>
        <time>2025-10-20T13:49:12.000Z</time>
      </trkpt>
      <trkpt lat="49.33364" lon="3.32543">
        <ele>103.5</ele>
        <time>2025-10-20T13:49:13.000Z</time>
      </trkpt>
      <trkpt lat="49.33363" lon="3.32544">
        <ele>103.2</ele>
        <time>2025-10-20T13:49:14.000Z</time>
      </trkpt>
      <trkpt lat="49.33363" lon="3.32545">
        <ele>103.1</ele>
        <time>2025-10-20T13:49:15.000Z</time>
      </trkpt>
      <trkpt lat="49.33363" lon="3.32548">
        <ele>102.5</ele>
        <time>2025-10-20T13:49:16.000Z</time>
      </trkpt>
      <trkpt lat="49.33363" lon="3.32549">
        <ele>102.3</ele>
        <time>2025-10-20T13:49:17.000Z</time>
      </trkpt>
      <trkpt lat="49.33363" lon="3.3255">
        <ele>102.3</ele>
        <time>2025-10-20T13:49:18.000Z</time>
      </trkpt>
      <trkpt lat="49.33363" lon="3.32551">
        <ele>102.2</ele>
        <time>2025-10-20T13:49:19.000Z</time>
      </trkpt>
      <trkpt lat="49.33363" lon="3.32552">
        <ele>102.3</ele>
        <time>2025-10-20T13:49:20.000Z</time>
      </trkpt>
      <trkpt lat="49.33362" lon="3.32553">
        <ele>102.3</ele>
        <time>2025-10-20T13:49:21.000Z</time>
      </trkpt>
      <trkpt lat="49.33362" lon="3.32555">
        <ele>102.3</ele>
        <time>2025-10-20T13:49:22.000Z</time>
      </trkpt>
      <trkpt lat="49.33362" lon="3.32556">
        <ele>102.4</ele>
        <time>2025-10-20T13:49:23.000Z</time>
      </trkpt>
      <trkpt lat="49.33362" lon="3.32558">
        <ele>102.4</ele>
        <time>2025-10-20T13:49:24.000Z</time>
      </trkpt>
      <trkpt lat="49.33361" lon="3.32559">
        <ele>102.4</ele>
        <time>2025-10-20T13:49:25.000Z</time>
      </trkpt>
      <trkpt lat="49.33361" lon="3.32561">
        <ele>102.6</ele>
        <time>2025-10-20T13:49:26.000Z</time>
      </trkpt>
      <trkpt lat="49.33361" lon="3.32562">
        <ele>102.7</ele>
        <time>2025-10-20T13:49:27.000Z</time>
      </trkpt>
      <trkpt lat="49.3336" lon="3.32564">
        <ele>102.8</ele>
        <time>2025-10-20T13:49:28.000Z</time>
      </trkpt>
      <trkpt lat="49.33359" lon="3.32565">
        <ele>102.6</ele>
        <time>2025-10-20T13:49:29.000Z</time>
      </trkpt>
      <trkpt lat="49.33359" lon="3.32566">
        <ele>102.5</ele>
        <time>2025-10-20T13:49:30.000Z</time>
      </trkpt>
      <trkpt lat="49.33359" lon="3.32568">
        <ele>102.5</ele>
        <time>2025-10-20T13:49:31.000Z</time>
      </trkpt>
      <trkpt lat="49.33358" lon="3.3257">
        <ele>102.5</ele>
        <time>2025-10-20T13:49:32.000Z</time>
      </trkpt>
      <trkpt lat="49.33358" lon="3.32572">
        <ele>102.5</ele>
        <time>2025-10-20T13:49:33.000Z</time>
      </trkpt>
      <trkpt lat="49.33357" lon="3.32573">
        <ele>102.7</ele>
        <time>2025-10-20T13:49:34.000Z</time>
      </trkpt>
      <trkpt lat="49.33357" lon="3.32575">
        <ele>102.8</ele>
        <time>2025-10-20T13:49:35.000Z</time>
      </trkpt>
      <trkpt lat="49.33356" lon="3.32577">
        <ele>102.9</ele>
        <time>2025-10-20T13:49:36.000Z</time>
      </trkpt>
      <trkpt lat="49.33356" lon="3.32579">
        <ele>103</ele>
        <time>2025-10-20T13:49:37.000Z</time>
      </trkpt>
      <trkpt lat="49.33356" lon="3.32581">
        <ele>102.8</ele>
        <time>2025-10-20T13:49:38.000Z</time>
      </trkpt>
      <trkpt lat="49.33355" lon="3.32582">
        <ele>102.7</ele>
        <time>2025-10-20T13:49:39.000Z</time>
      </trkpt>
      <trkpt lat="49.33355" lon="3.32584">
        <ele>102.7</ele>
        <time>2025-10-20T13:49:40.000Z</time>
      </trkpt>
      <trkpt lat="49.33355" lon="3.32586">
        <ele>102.8</ele>
        <time>2025-10-20T13:49:41.000Z</time>
      </trkpt>
      <trkpt lat="49.33355" lon="3.32588">
        <ele>102.8</ele>
        <time>2025-10-20T13:49:42.000Z</time>
      </trkpt>
      <trkpt lat="49.33355" lon="3.3259">
        <ele>102.9</ele>
        <time>2025-10-20T13:49:43.000Z</time>
      </trkpt>
      <trkpt lat="49.33355" lon="3.32591">
        <ele>103</ele>
        <time>2025-10-20T13:49:44.000Z</time>
      </trkpt>
      <trkpt lat="49.33354" lon="3.32593">
        <ele>103</ele>
        <time>2025-10-20T13:49:45.000Z</time>
      </trkpt>
      <trkpt lat="49.33354" lon="3.32595">
        <ele>103.2</ele>
        <time>2025-10-20T13:49:46.000Z</time>
      </trkpt>
      <trkpt lat="49.33354" lon="3.32596">
        <ele>103.3</ele>
        <time>2025-10-20T13:49:47.000Z</time>
      </trkpt>
      <trkpt lat="49.33354" lon="3.32597">
        <ele>103.8</ele>
        <time>2025-10-20T13:49:48.000Z</time>
      </trkpt>
      <trkpt lat="49.33355" lon="3.32598">
        <ele>104.4</ele>
        <time>2025-10-20T13:49:49.000Z</time>
      </trkpt>
      <trkpt lat="49.33355" lon="3.32599">
        <ele>105.1</ele>
        <time>2025-10-20T13:49:50.000Z</time>
      </trkpt>
      <trkpt lat="49.33354" lon="3.326">
        <ele>105.5</ele>
        <time>2025-10-20T13:49:51.000Z</time>
      </trkpt>
      <trkpt lat="49.33354" lon="3.32601">
        <ele>106.3</ele>
        <time>2025-10-20T13:49:52.000Z</time>
      </trkpt>
      <trkpt lat="49.33354" lon="3.32602">
        <ele>106.6</ele>
        <time>2025-10-20T13:49:53.000Z</time>
      </trkpt>
      <trkpt lat="49.33354" lon="3.32603">
        <ele>106.9</ele>
        <time>2025-10-20T13:49:54.000Z</time>
      </trkpt>
      <trkpt lat="49.33354" lon="3.32603">
        <ele>107.5</ele>
        <time>2025-10-20T13:49:55.000Z</time>
      </trkpt>
      <trkpt lat="49.33354" lon="3.32603">
        <ele>107.9</ele>
        <time>2025-10-20T13:49:56.000Z</time>
      </trkpt>
      <trkpt lat="49.33354" lon="3.32603">
        <ele>108.3</ele>
        <time>2025-10-20T13:49:57.000Z</time>
      </trkpt>
      <trkpt lat="49.33354" lon="3.32603">
        <ele>108.6</ele>
        <time>2025-10-20T13:49:58.000Z</time>
      </trkpt>
      <trkpt lat="49.33353" lon="3.32604">
        <ele>108.9</ele>
        <time>2025-10-20T13:49:59.000Z</time>
      </trkpt>
      <trkpt lat="49.33353" lon="3.32605">
        <ele>109</ele>
        <time>2025-10-20T13:50:00.000Z</time>
      </trkpt>
      <trkpt lat="49.33353" lon="3.32607">
        <ele>109.1</ele>
        <time>2025-10-20T13:50:01.000Z</time>
      </trkpt>
      <trkpt lat="49.33354" lon="3.32611">
        <ele>109.2</ele>
        <time>2025-10-20T13:50:02.000Z</time>
      </trkpt>
      <trkpt lat="49.33354" lon="3.32614">
        <ele>109.3</ele>
        <time>2025-10-20T13:50:03.000Z</time>
      </trkpt>
      <trkpt lat="49.33353" lon="3.32617">
        <ele>109.6</ele>
        <time>2025-10-20T13:50:04.000Z</time>
      </trkpt>
      <trkpt lat="49.33352" lon="3.3262">
        <ele>110.1</ele>
        <time>2025-10-20T13:50:05.000Z</time>
      </trkpt>
      <trkpt lat="49.33351" lon="3.32623">
        <ele>110.8</ele>
        <time>2025-10-20T13:50:06.000Z</time>
      </trkpt>
      <trkpt lat="49.3335" lon="3.32627">
        <ele>111.8</ele>
        <time>2025-10-20T13:50:07.000Z</time>
      </trkpt>
      <trkpt lat="49.33349" lon="3.32632">
        <ele>112.9</ele>
        <time>2025-10-20T13:50:08.000Z</time>
      </trkpt>
      <trkpt lat="49.33348" lon="3.32636">
        <ele>113.5</ele>
        <time>2025-10-20T13:50:09.000Z</time>
      </trkpt>
      <trkpt lat="49.33348" lon="3.3264">
        <ele>114.1</ele>
        <time>2025-10-20T13:50:10.000Z</time>
      </trkpt>
      <trkpt lat="49.33349" lon="3.32643">
        <ele>115.5</ele>
        <time>2025-10-20T13:50:11.000Z</time>
      </trkpt>
      <trkpt lat="49.3335" lon="3.32647">
        <ele>116.6</ele>
        <time>2025-10-20T13:50:12.000Z</time>
      </trkpt>
      <trkpt lat="49.33351" lon="3.3265">
        <ele>117.8</ele>
        <time>2025-10-20T13:50:13.000Z</time>
      </trkpt>
      <trkpt lat="49.33351" lon="3.32653">
        <ele>118.7</ele>
        <time>2025-10-20T13:50:14.000Z</time>
      </trkpt>
      <trkpt lat="49.33352" lon="3.32656">
        <ele>119.2</ele>
        <time>2025-10-20T13:50:15.000Z</time>
      </trkpt>
      <trkpt lat="49.33351" lon="3.32657">
        <ele>118.9</ele>
        <time>2025-10-20T13:50:16.000Z</time>
      </trkpt>
      <trkpt lat="49.33351" lon="3.32659">
        <ele>118.8</ele>
        <time>2025-10-20T13:50:17.000Z</time>
      </trkpt>
      <trkpt lat="49.33351" lon="3.32662">
        <ele>118.5</ele>
        <time>2025-10-20T13:50:18.000Z</time>
      </trkpt>
      <trkpt lat="49.3335" lon="3.32664">
        <ele>118</ele>
        <time>2025-10-20T13:50:19.000Z</time>
      </trkpt>
      <trkpt lat="49.3335" lon="3.32666">
        <ele>117.6</ele>
        <time>2025-10-20T13:50:20.000Z</time>
      </trkpt>
      <trkpt lat="49.33349" lon="3.32668">
        <ele>116.3</ele>
        <time>2025-10-20T13:50:21.000Z</time>
      </trkpt>
      <trkpt lat="49.33349" lon="3.32671">
        <ele>114.9</ele>
        <time>2025-10-20T13:50:22.000Z</time>
      </trkpt>
      <trkpt lat="49.33349" lon="3.32672">
        <ele>114.3</ele>
        <time>2025-10-20T13:50:23.000Z</time>
      </trkpt>
      <trkpt lat="49.33349" lon="3.32674">
        <ele>114.2</ele>
        <time>2025-10-20T13:50:24.000Z</time>
      </trkpt>
      <trkpt lat="49.3335" lon="3.32676">
        <ele>113.8</ele>
        <time>2025-10-20T13:50:25.000Z</time>
      </trkpt>
      <trkpt lat="49.33349" lon="3.32678">
        <ele>113.4</ele>
        <time>2025-10-20T13:50:26.000Z</time>
      </trkpt>
      <trkpt lat="49.33349" lon="3.3268">
        <ele>112.7</ele>
        <time>2025-10-20T13:50:27.000Z</time>
      </trkpt>
      <trkpt lat="49.33349" lon="3.32682">
        <ele>112.4</ele>
        <time>2025-10-20T13:50:28.000Z</time>
      </trkpt>
      <trkpt lat="49.33348" lon="3.32684">
        <ele>112.3</ele>
        <time>2025-10-20T13:50:29.000Z</time>
      </trkpt>
      <trkpt lat="49.33348" lon="3.32686">
        <ele>112.3</ele>
        <time>2025-10-20T13:50:30.000Z</time>
      </trkpt>
      <trkpt lat="49.33348" lon="3.32688">
        <ele>112.2</ele>
        <time>2025-10-20T13:50:31.000Z</time>
      </trkpt>
      <trkpt lat="49.33348" lon="3.3269">
        <ele>112.3</ele>
        <time>2025-10-20T13:50:32.000Z</time>
      </trkpt>
      <trkpt lat="49.33348" lon="3.32692">
        <ele>112.3</ele>
        <time>2025-10-20T13:50:33.000Z</time>
      </trkpt>
      <trkpt lat="49.33348" lon="3.32695">
        <ele>112.2</ele>
        <time>2025-10-20T13:50:34.000Z</time>
      </trkpt>
      <trkpt lat="49.33348" lon="3.32697">
        <ele>112.3</ele>
        <time>2025-10-20T13:50:35.000Z</time>
      </trkpt>
      <trkpt lat="49.33348" lon="3.32699">
        <ele>112.2</ele>
        <time>2025-10-20T13:50:36.000Z</time>
      </trkpt>
      <trkpt lat="49.33347" lon="3.32701">
        <ele>112.1</ele>
        <time>2025-10-20T13:50:37.000Z</time>
      </trkpt>
      <trkpt lat="49.33347" lon="3.32704">
        <ele>112.1</ele>
        <time>2025-10-20T13:50:38.000Z</time>
      </trkpt>
      <trkpt lat="49.33347" lon="3.32706">
        <ele>112.1</ele>
        <time>2025-10-20T13:50:39.000Z</time>
      </trkpt>
      <trkpt lat="49.33347" lon="3.32708">
        <ele>111.9</ele>
        <time>2025-10-20T13:50:40.000Z</time>
      </trkpt>
      <trkpt lat="49.33346" lon="3.3271">
        <ele>111.7</ele>
        <time>2025-10-20T13:50:41.000Z</time>
      </trkpt>
      <trkpt lat="49.33346" lon="3.32712">
        <ele>111.8</ele>
        <time>2025-10-20T13:50:42.000Z</time>
      </trkpt>
      <trkpt lat="49.33346" lon="3.32714">
        <ele>111.9</ele>
        <time>2025-10-20T13:50:43.000Z</time>
      </trkpt>
      <trkpt lat="49.33346" lon="3.32716">
        <ele>111.8</ele>
        <time>2025-10-20T13:50:44.000Z</time>
      </trkpt>
      <trkpt lat="49.33346" lon="3.32718">
        <ele>111.7</ele>
        <time>2025-10-20T13:50:45.000Z</time>
      </trkpt>
      <trkpt lat="49.33346" lon="3.3272">
        <ele>111.8</ele>
        <time>2025-10-20T13:50:46.000Z</time>
      </trkpt>
      <trkpt lat="49.33346" lon="3.32721">
        <ele>112</ele>
        <time>2025-10-20T13:50:47.000Z</time>
      </trkpt>
      <trkpt lat="49.33346" lon="3.32723">
        <ele>112.2</ele>
        <time>2025-10-20T13:50:48.000Z</time>
      </trkpt>
      <trkpt lat="49.33346" lon="3.32725">
        <ele>112.4</ele>
        <time>2025-10-20T13:50:49.000Z</time>
      </trkpt>
      <trkpt lat="49.33346" lon="3.32727">
        <ele>112.5</ele>
        <time>2025-10-20T13:50:50.000Z</time>
      </trkpt>
      <trkpt lat="49.33346" lon="3.32728">
        <ele>112.7</ele>
        <time>2025-10-20T13:50:51.000Z</time>
      </trkpt>
      <trkpt lat="49.33346" lon="3.3273">
        <ele>113</ele>
        <time>2025-10-20T13:50:52.000Z</time>
      </trkpt>
      <trkpt lat="49.33346" lon="3.32732">
        <ele>112.8</ele>
        <time>2025-10-20T13:50:53.000Z</time>
      </trkpt>
      <trkpt lat="49.33346" lon="3.32734">
        <ele>112.8</ele>
        <time>2025-10-20T13:50:54.000Z</time>
      </trkpt>
      <trkpt lat="49.33346" lon="3.32736">
        <ele>112.8</ele>
        <time>2025-10-20T13:50:55.000Z</time>
      </trkpt>
      <trkpt lat="49.33345" lon="3.32738">
        <ele>112.5</ele>
        <time>2025-10-20T13:50:56.000Z</time>
      </trkpt>
      <trkpt lat="49.33345" lon="3.32741">
        <ele>111.9</ele>
        <time>2025-10-20T13:50:57.000Z</time>
      </trkpt>
      <trkpt lat="49.33345" lon="3.32744">
        <ele>111.4</ele>
        <time>2025-10-20T13:50:58.000Z</time>
      </trkpt>
      <trkpt lat="49.33345" lon="3.32746">
        <ele>111</ele>
        <time>2025-10-20T13:50:59.000Z</time>
      </trkpt>
      <trkpt lat="49.33344" lon="3.32748">
        <ele>110.9</ele>
        <time>2025-10-20T13:51:00.000Z</time>
      </trkpt>
      <trkpt lat="49.33344" lon="3.32751">
        <ele>110.5</ele>
        <time>2025-10-20T13:51:01.000Z</time>
      </trkpt>
      <trkpt lat="49.33344" lon="3.32754">
        <ele>110</ele>
        <time>2025-10-20T13:51:02.000Z</time>
      </trkpt>
      <trkpt lat="49.33343" lon="3.32757">
        <ele>109.4</ele>
        <time>2025-10-20T13:51:03.000Z</time>
      </trkpt>
      <trkpt lat="49.33343" lon="3.32759">
        <ele>108.9</ele>
        <time>2025-10-20T13:51:04.000Z</time>
      </trkpt>
      <trkpt lat="49.33343" lon="3.32761">
        <ele>108.8</ele>
        <time>2025-10-20T13:51:05.000Z</time>
      </trkpt>
      <trkpt lat="49.33343" lon="3.32763">
        <ele>108.8</ele>
        <time>2025-10-20T13:51:06.000Z</time>
      </trkpt>
      <trkpt lat="49.33343" lon="3.32764">
        <ele>109</ele>
        <time>2025-10-20T13:51:07.000Z</time>
      </trkpt>
      <trkpt lat="49.33344" lon="3.32765">
        <ele>108.9</ele>
        <time>2025-10-20T13:51:08.000Z</time>
      </trkpt>
      <trkpt lat="49.33344" lon="3.32766">
        <ele>108.9</ele>
        <time>2025-10-20T13:51:09.000Z</time>
      </trkpt>
      <trkpt lat="49.33344" lon="3.32767">
        <ele>108.6</ele>
        <time>2025-10-20T13:51:10.000Z</time>
      </trkpt>
      <trkpt lat="49.33344" lon="3.32768">
        <ele>108.5</ele>
        <time>2025-10-20T13:51:11.000Z</time>
      </trkpt>
      <trkpt lat="49.33344" lon="3.32769">
        <ele>108.6</ele>
        <time>2025-10-20T13:51:12.000Z</time>
      </trkpt>
      <trkpt lat="49.33343" lon="3.3277">
        <ele>108.6</ele>
        <time>2025-10-20T13:51:13.000Z</time>
      </trkpt>
      <trkpt lat="49.33343" lon="3.32771">
        <ele>108.7</ele>
        <time>2025-10-20T13:51:14.000Z</time>
      </trkpt>
      <trkpt lat="49.33343" lon="3.32773">
        <ele>108.8</ele>
        <time>2025-10-20T13:51:15.000Z</time>
      </trkpt>
      <trkpt lat="49.33342" lon="3.32775">
        <ele>108.9</ele>
        <time>2025-10-20T13:51:16.000Z</time>
      </trkpt>
      <trkpt lat="49.33342" lon="3.32777">
        <ele>109.1</ele>
        <time>2025-10-20T13:51:17.000Z</time>
      </trkpt>
      <trkpt lat="49.33341" lon="3.32778">
        <ele>109.3</ele>
        <time>2025-10-20T13:51:18.000Z</time>
      </trkpt>
      <trkpt lat="49.3334" lon="3.3278">
        <ele>109</ele>
        <time>2025-10-20T13:51:19.000Z</time>
      </trkpt>
      <trkpt lat="49.33339" lon="3.32782">
        <ele>109.1</ele>
        <time>2025-10-20T13:51:20.000Z</time>
      </trkpt>
      <trkpt lat="49.33339" lon="3.32784">
        <ele>109</ele>
        <time>2025-10-20T13:51:21.000Z</time>
      </trkpt>
      <trkpt lat="49.33338" lon="3.32785">
        <ele>108.9</ele>
        <time>2025-10-20T13:51:22.000Z</time>
      </trkpt>
      <trkpt lat="49.33337" lon="3.32787">
        <ele>108.7</ele>
        <time>2025-10-20T13:51:23.000Z</time>
      </trkpt>
      <trkpt lat="49.33336" lon="3.32788">
        <ele>108.6</ele>
        <time>2025-10-20T13:51:24.000Z</time>
      </trkpt>
      <trkpt lat="49.33336" lon="3.3279">
        <ele>108.4</ele>
        <time>2025-10-20T13:51:25.000Z</time>
      </trkpt>
      <trkpt lat="49.33335" lon="3.32791">
        <ele>107.8</ele>
        <time>2025-10-20T13:51:26.000Z</time>
      </trkpt>
      <trkpt lat="49.33334" lon="3.32793">
        <ele>107.3</ele>
        <time>2025-10-20T13:51:27.000Z</time>
      </trkpt>
      <trkpt lat="49.33334" lon="3.32795">
        <ele>107</ele>
        <time>2025-10-20T13:51:28.000Z</time>
      </trkpt>
      <trkpt lat="49.33334" lon="3.32797">
        <ele>106.9</ele>
        <time>2025-10-20T13:51:29.000Z</time>
      </trkpt>
      <trkpt lat="49.33334" lon="3.32799">
        <ele>107.1</ele>
        <time>2025-10-20T13:51:30.000Z</time>
      </trkpt>
      <trkpt lat="49.33334" lon="3.32801">
        <ele>107.4</ele>
        <time>2025-10-20T13:51:31.000Z</time>
      </trkpt>
      <trkpt lat="49.33333" lon="3.32803">
        <ele>107.6</ele>
        <time>2025-10-20T13:51:32.000Z</time>
      </trkpt>
      <trkpt lat="49.33333" lon="3.32804">
        <ele>107.8</ele>
        <time>2025-10-20T13:51:33.000Z</time>
      </trkpt>
      <trkpt lat="49.33332" lon="3.32806">
        <ele>108.3</ele>
        <time>2025-10-20T13:51:34.000Z</time>
      </trkpt>
      <trkpt lat="49.33332" lon="3.32807">
        <ele>108.7</ele>
        <time>2025-10-20T13:51:35.000Z</time>
      </trkpt>
      <trkpt lat="49.33332" lon="3.32809">
        <ele>109.2</ele>
        <time>2025-10-20T13:51:36.000Z</time>
      </trkpt>
      <trkpt lat="49.33332" lon="3.32809">
        <ele>109.5</ele>
        <time>2025-10-20T13:51:37.000Z</time>
      </trkpt>
      <trkpt lat="49.33332" lon="3.3281">
        <ele>110</ele>
        <time>2025-10-20T13:51:38.000Z</time>
      </trkpt>
      <trkpt lat="49.33332" lon="3.32811">
        <ele>110.3</ele>
        <time>2025-10-20T13:51:39.000Z</time>
      </trkpt>
      <trkpt lat="49.33332" lon="3.32812">
        <ele>110.5</ele>
        <time>2025-10-20T13:51:40.000Z</time>
      </trkpt>
      <trkpt lat="49.33333" lon="3.32813">
        <ele>111.1</ele>
        <time>2025-10-20T13:51:41.000Z</time>
      </trkpt>
      <trkpt lat="49.33333" lon="3.32814">
        <ele>111.8</ele>
        <time>2025-10-20T13:51:42.000Z</time>
      </trkpt>
      <trkpt lat="49.33333" lon="3.32815">
        <ele>112.7</ele>
        <time>2025-10-20T13:51:43.000Z</time>
      </trkpt>
      <trkpt lat="49.33332" lon="3.32816">
        <ele>112.9</ele>
        <time>2025-10-20T13:51:44.000Z</time>
      </trkpt>
      <trkpt lat="49.33331" lon="3.32817">
        <ele>113.1</ele>
        <time>2025-10-20T13:51:45.000Z</time>
      </trkpt>
      <trkpt lat="49.3333" lon="3.32818">
        <ele>113.3</ele>
        <time>2025-10-20T13:51:46.000Z</time>
      </trkpt>
      <trkpt lat="49.33329" lon="3.32819">
        <ele>113.1</ele>
        <time>2025-10-20T13:51:47.000Z</time>
      </trkpt>
      <trkpt lat="49.33328" lon="3.32821">
        <ele>113.2</ele>
        <time>2025-10-20T13:51:48.000Z</time>
      </trkpt>
      <trkpt lat="49.33327" lon="3.32822">
        <ele>113.2</ele>
        <time>2025-10-20T13:51:49.000Z</time>
      </trkpt>
      <trkpt lat="49.33326" lon="3.32823">
        <ele>113.2</ele>
        <time>2025-10-20T13:51:50.000Z</time>
      </trkpt>
      <trkpt lat="49.33326" lon="3.32824">
        <ele>113.4</ele>
        <time>2025-10-20T13:51:51.000Z</time>
      </trkpt>
      <trkpt lat="49.33325" lon="3.32825">
        <ele>113.4</ele>
        <time>2025-10-20T13:51:52.000Z</time>
      </trkpt>
      <trkpt lat="49.33324" lon="3.32826">
        <ele>113.7</ele>
        <time>2025-10-20T13:51:53.000Z</time>
      </trkpt>
      <trkpt lat="49.33324" lon="3.32826">
        <ele>113.7</ele>
        <time>2025-10-20T13:51:54.000Z</time>
      </trkpt>
      <trkpt lat="49.33324" lon="3.32826">
        <ele>114</ele>
        <time>2025-10-20T13:51:55.000Z</time>
      </trkpt>
      <trkpt lat="49.33323" lon="3.32827">
        <ele>114.1</ele>
        <time>2025-10-20T13:51:56.000Z</time>
      </trkpt>
      <trkpt lat="49.33322" lon="3.32828">
        <ele>114</ele>
        <time>2025-10-20T13:51:57.000Z</time>
      </trkpt>
      <trkpt lat="49.33322" lon="3.32829">
        <ele>113.9</ele>
        <time>2025-10-20T13:51:58.000Z</time>
      </trkpt>
      <trkpt lat="49.33321" lon="3.3283">
        <ele>114</ele>
        <time>2025-10-20T13:51:59.000Z</time>
      </trkpt>
      <trkpt lat="49.3332" lon="3.32832">
        <ele>114.3</ele>
        <time>2025-10-20T13:52:00.000Z</time>
      </trkpt>
      <trkpt lat="49.33319" lon="3.32833">
        <ele>114.5</ele>
        <time>2025-10-20T13:52:01.000Z</time>
      </trkpt>
      <trkpt lat="49.33318" lon="3.32835">
        <ele>114.4</ele>
        <time>2025-10-20T13:52:02.000Z</time>
      </trkpt>
      <trkpt lat="49.33316" lon="3.32836">
        <ele>114.2</ele>
        <time>2025-10-20T13:52:03.000Z</time>
      </trkpt>
      <trkpt lat="49.33314" lon="3.32838">
        <ele>114</ele>
        <time>2025-10-20T13:52:04.000Z</time>
      </trkpt>
      <trkpt lat="49.33313" lon="3.3284">
        <ele>113.9</ele>
        <time>2025-10-20T13:52:05.000Z</time>
      </trkpt>
      <trkpt lat="49.33312" lon="3.32842">
        <ele>113.9</ele>
        <time>2025-10-20T13:52:06.000Z</time>
      </trkpt>
      <trkpt lat="49.33311" lon="3.32844">
        <ele>113.5</ele>
        <time>2025-10-20T13:52:07.000Z</time>
      </trkpt>
      <trkpt lat="49.33309" lon="3.32846">
        <ele>113.2</ele>
        <time>2025-10-20T13:52:08.000Z</time>
      </trkpt>
      <trkpt lat="49.33307" lon="3.32847">
        <ele>113.2</ele>
        <time>2025-10-20T13:52:09.000Z</time>
      </trkpt>
      <trkpt lat="49.33306" lon="3.32848">
        <ele>113.4</ele>
        <time>2025-10-20T13:52:10.000Z</time>
      </trkpt>
      <trkpt lat="49.33305" lon="3.32849">
        <ele>113</ele>
        <time>2025-10-20T13:52:11.000Z</time>
      </trkpt>
      <trkpt lat="49.33304" lon="3.32851">
        <ele>112.6</ele>
        <time>2025-10-20T13:52:12.000Z</time>
      </trkpt>
      <trkpt lat="49.33303" lon="3.32852">
        <ele>112.3</ele>
        <time>2025-10-20T13:52:13.000Z</time>
      </trkpt>
      <trkpt lat="49.33302" lon="3.32854">
        <ele>112</ele>
        <time>2025-10-20T13:52:14.000Z</time>
      </trkpt>
      <trkpt lat="49.33301" lon="3.32855">
        <ele>111.7</ele>
        <time>2025-10-20T13:52:15.000Z</time>
      </trkpt>
      <trkpt lat="49.333" lon="3.32857">
        <ele>111.2</ele>
        <time>2025-10-20T13:52:16.000Z</time>
      </trkpt>
      <trkpt lat="49.33298" lon="3.32859">
        <ele>110.8</ele>
        <time>2025-10-20T13:52:17.000Z</time>
      </trkpt>
      <trkpt lat="49.33297" lon="3.32861">
        <ele>110.3</ele>
        <time>2025-10-20T13:52:18.000Z</time>
      </trkpt>
      <trkpt lat="49.33296" lon="3.32862">
        <ele>110.1</ele>
        <time>2025-10-20T13:52:19.000Z</time>
      </trkpt>
      <trkpt lat="49.33294" lon="3.32864">
        <ele>109.7</ele>
        <time>2025-10-20T13:52:20.000Z</time>
      </trkpt>
      <trkpt lat="49.33293" lon="3.32866">
        <ele>109.3</ele>
        <time>2025-10-20T13:52:21.000Z</time>
      </trkpt>
      <trkpt lat="49.33292" lon="3.32867">
        <ele>109</ele>
        <time>2025-10-20T13:52:22.000Z</time>
      </trkpt>
      <trkpt lat="49.33291" lon="3.32869">
        <ele>108.7</ele>
        <time>2025-10-20T13:52:23.000Z</time>
      </trkpt>
      <trkpt lat="49.33291" lon="3.32871">
        <ele>108.4</ele>
        <time>2025-10-20T13:52:24.000Z</time>
      </trkpt>
      <trkpt lat="49.3329" lon="3.32872">
        <ele>107.9</ele>
        <time>2025-10-20T13:52:25.000Z</time>
      </trkpt>
      <trkpt lat="49.33288" lon="3.32874">
        <ele>107.5</ele>
        <time>2025-10-20T13:52:26.000Z</time>
      </trkpt>
      <trkpt lat="49.33288" lon="3.32876">
        <ele>107.6</ele>
        <time>2025-10-20T13:52:27.000Z</time>
      </trkpt>
      <trkpt lat="49.33287" lon="3.32877">
        <ele>107.2</ele>
        <time>2025-10-20T13:52:28.000Z</time>
      </trkpt>
      <trkpt lat="49.33285" lon="3.32879">
        <ele>107</ele>
        <time>2025-10-20T13:52:29.000Z</time>
      </trkpt>
      <trkpt lat="49.33284" lon="3.32881">
        <ele>106.7</ele>
        <time>2025-10-20T13:52:30.000Z</time>
      </trkpt>
      <trkpt lat="49.33283" lon="3.32883">
        <ele>106.9</ele>
        <time>2025-10-20T13:52:31.000Z</time>
      </trkpt>
      <trkpt lat="49.33283" lon="3.32885">
        <ele>106.8</ele>
        <time>2025-10-20T13:52:32.000Z</time>
      </trkpt>
      <trkpt lat="49.33282" lon="3.32887">
        <ele>106.6</ele>
        <time>2025-10-20T13:52:33.000Z</time>
      </trkpt>
      <trkpt lat="49.33281" lon="3.32889">
        <ele>106.3</ele>
        <time>2025-10-20T13:52:34.000Z</time>
      </trkpt>
      <trkpt lat="49.3328" lon="3.32892">
        <ele>105.8</ele>
        <time>2025-10-20T13:52:35.000Z</time>
      </trkpt>
      <trkpt lat="49.3328" lon="3.32894">
        <ele>105.5</ele>
        <time>2025-10-20T13:52:36.000Z</time>
      </trkpt>
      <trkpt lat="49.33279" lon="3.32896">
        <ele>105.1</ele>
        <time>2025-10-20T13:52:37.000Z</time>
      </trkpt>
      <trkpt lat="49.33279" lon="3.32898">
        <ele>105</ele>
        <time>2025-10-20T13:52:38.000Z</time>
      </trkpt>
      <trkpt lat="49.33279" lon="3.329">
        <ele>105</ele>
        <time>2025-10-20T13:52:39.000Z</time>
      </trkpt>
      <trkpt lat="49.33278" lon="3.32901">
        <ele>105.2</ele>
        <time>2025-10-20T13:52:40.000Z</time>
      </trkpt>
      <trkpt lat="49.33277" lon="3.32903">
        <ele>105.5</ele>
        <time>2025-10-20T13:52:41.000Z</time>
      </trkpt>
      <trkpt lat="49.33277" lon="3.32905">
        <ele>105.8</ele>
        <time>2025-10-20T13:52:42.000Z</time>
      </trkpt>
      <trkpt lat="49.33276" lon="3.32906">
        <ele>106.6</ele>
        <time>2025-10-20T13:52:43.000Z</time>
      </trkpt>
      <trkpt lat="49.33276" lon="3.32908">
        <ele>107.9</ele>
        <time>2025-10-20T13:52:44.000Z</time>
      </trkpt>
      <trkpt lat="49.33277" lon="3.32908">
        <ele>109.3</ele>
        <time>2025-10-20T13:52:45.000Z</time>
      </trkpt>
      <trkpt lat="49.33278" lon="3.32909">
        <ele>110</ele>
        <time>2025-10-20T13:52:46.000Z</time>
      </trkpt>
      <trkpt lat="49.33279" lon="3.3291">
        <ele>110.8</ele>
        <time>2025-10-20T13:52:47.000Z</time>
      </trkpt>
      <trkpt lat="49.3328" lon="3.3291">
        <ele>112</ele>
        <time>2025-10-20T13:52:48.000Z</time>
      </trkpt>
      <trkpt lat="49.33281" lon="3.3291">
        <ele>113</ele>
        <time>2025-10-20T13:52:49.000Z</time>
      </trkpt>
      <trkpt lat="49.33282" lon="3.3291">
        <ele>113.7</ele>
        <time>2025-10-20T13:52:50.000Z</time>
      </trkpt>
      <trkpt lat="49.33283" lon="3.32911">
        <ele>114.5</ele>
        <time>2025-10-20T13:52:51.000Z</time>
      </trkpt>
      <trkpt lat="49.33284" lon="3.32911">
        <ele>115.2</ele>
        <time>2025-10-20T13:52:52.000Z</time>
      </trkpt>
      <trkpt lat="49.33286" lon="3.32912">
        <ele>116</ele>
        <time>2025-10-20T13:52:53.000Z</time>
      </trkpt>
      <trkpt lat="49.33287" lon="3.32912">
        <ele>116.9</ele>
        <time>2025-10-20T13:52:54.000Z</time>
      </trkpt>
      <trkpt lat="49.33289" lon="3.32912">
        <ele>117.7</ele>
        <time>2025-10-20T13:52:55.000Z</time>
      </trkpt>
      <trkpt lat="49.3329" lon="3.32913">
        <ele>118.4</ele>
        <time>2025-10-20T13:52:56.000Z</time>
      </trkpt>
      <trkpt lat="49.33291" lon="3.32914">
        <ele>119.2</ele>
        <time>2025-10-20T13:52:57.000Z</time>
      </trkpt>
      <trkpt lat="49.33293" lon="3.32916">
        <ele>119.9</ele>
        <time>2025-10-20T13:52:58.000Z</time>
      </trkpt>
      <trkpt lat="49.33295" lon="3.32917">
        <ele>120.7</ele>
        <time>2025-10-20T13:52:59.000Z</time>
      </trkpt>
      <trkpt lat="49.33296" lon="3.32919">
        <ele>121.3</ele>
        <time>2025-10-20T13:53:00.000Z</time>
      </trkpt>
      <trkpt lat="49.33298" lon="3.32918">
        <ele>121.8</ele>
        <time>2025-10-20T13:53:01.000Z</time>
      </trkpt>
      <trkpt lat="49.33299" lon="3.32919">
        <ele>122.2</ele>
        <time>2025-10-20T13:53:02.000Z</time>
      </trkpt>
      <trkpt lat="49.333" lon="3.32919">
        <ele>122.5</ele>
        <time>2025-10-20T13:53:03.000Z</time>
      </trkpt>
      <trkpt lat="49.33301" lon="3.32919">
        <ele>122.8</ele>
        <time>2025-10-20T13:53:04.000Z</time>
      </trkpt>
      <trkpt lat="49.33302" lon="3.3292">
        <ele>123.1</ele>
        <time>2025-10-20T13:53:05.000Z</time>
      </trkpt>
      <trkpt lat="49.33304" lon="3.3292">
        <ele>123.4</ele>
        <time>2025-10-20T13:53:06.000Z</time>
      </trkpt>
      <trkpt lat="49.33305" lon="3.3292">
        <ele>123.6</ele>
        <time>2025-10-20T13:53:07.000Z</time>
      </trkpt>
      <trkpt lat="49.33306" lon="3.32921">
        <ele>123.9</ele>
        <time>2025-10-20T13:53:08.000Z</time>
      </trkpt>
      <trkpt lat="49.33307" lon="3.32921">
        <ele>124.3</ele>
        <time>2025-10-20T13:53:09.000Z</time>
      </trkpt>
      <trkpt lat="49.33308" lon="3.32921">
        <ele>124.9</ele>
        <time>2025-10-20T13:53:10.000Z</time>
      </trkpt>
      <trkpt lat="49.33309" lon="3.32921">
        <ele>125.3</ele>
        <time>2025-10-20T13:53:11.000Z</time>
      </trkpt>
      <trkpt lat="49.33311" lon="3.32922">
        <ele>125.5</ele>
        <time>2025-10-20T13:53:12.000Z</time>
      </trkpt>
      <trkpt lat="49.33312" lon="3.32923">
        <ele>126</ele>
        <time>2025-10-20T13:53:13.000Z</time>
      </trkpt>
      <trkpt lat="49.33313" lon="3.32924">
        <ele>126.2</ele>
        <time>2025-10-20T13:53:14.000Z</time>
      </trkpt>
      <trkpt lat="49.33314" lon="3.32925">
        <ele>126.2</ele>
        <time>2025-10-20T13:53:15.000Z</time>
      </trkpt>
      <trkpt lat="49.33316" lon="3.32926">
        <ele>126.1</ele>
        <time>2025-10-20T13:53:16.000Z</time>
      </trkpt>
      <trkpt lat="49.33317" lon="3.32927">
        <ele>126.2</ele>
        <time>2025-10-20T13:53:17.000Z</time>
      </trkpt>
      <trkpt lat="49.33319" lon="3.32928">
        <ele>126</ele>
        <time>2025-10-20T13:53:18.000Z</time>
      </trkpt>
      <trkpt lat="49.3332" lon="3.32929">
        <ele>125.7</ele>
        <time>2025-10-20T13:53:19.000Z</time>
      </trkpt>
      <trkpt lat="49.33322" lon="3.3293">
        <ele>125</ele>
        <time>2025-10-20T13:53:20.000Z</time>
      </trkpt>
      <trkpt lat="49.33324" lon="3.3293">
        <ele>124.3</ele>
        <time>2025-10-20T13:53:21.000Z</time>
      </trkpt>
      <trkpt lat="49.33325" lon="3.3293">
        <ele>123.7</ele>
        <time>2025-10-20T13:53:22.000Z</time>
      </trkpt>
      <trkpt lat="49.33326" lon="3.3293">
        <ele>123.4</ele>
        <time>2025-10-20T13:53:23.000Z</time>
      </trkpt>
      <trkpt lat="49.33327" lon="3.32931">
        <ele>123.4</ele>
        <time>2025-10-20T13:53:24.000Z</time>
      </trkpt>
      <trkpt lat="49.33328" lon="3.32931">
        <ele>123.2</ele>
        <time>2025-10-20T13:53:25.000Z</time>
      </trkpt>
      <trkpt lat="49.3333" lon="3.32932">
        <ele>123.2</ele>
        <time>2025-10-20T13:53:26.000Z</time>
      </trkpt>
      <trkpt lat="49.33331" lon="3.32932">
        <ele>123</ele>
        <time>2025-10-20T13:53:27.000Z</time>
      </trkpt>
      <trkpt lat="49.33332" lon="3.32932">
        <ele>123.2</ele>
        <time>2025-10-20T13:53:28.000Z</time>
      </trkpt>
      <trkpt lat="49.33333" lon="3.32932">
        <ele>123.4</ele>
        <time>2025-10-20T13:53:29.000Z</time>
      </trkpt>
      <trkpt lat="49.33334" lon="3.32932">
        <ele>123.6</ele>
        <time>2025-10-20T13:53:30.000Z</time>
      </trkpt>
      <trkpt lat="49.33336" lon="3.32933">
        <ele>124.1</ele>
        <time>2025-10-20T13:53:31.000Z</time>
      </trkpt>
      <trkpt lat="49.33337" lon="3.32934">
        <ele>124.5</ele>
        <time>2025-10-20T13:53:32.000Z</time>
      </trkpt>
      <trkpt lat="49.33338" lon="3.32934">
        <ele>124.6</ele>
        <time>2025-10-20T13:53:33.000Z</time>
      </trkpt>
      <trkpt lat="49.33339" lon="3.32935">
        <ele>124.7</ele>
        <time>2025-10-20T13:53:34.000Z</time>
      </trkpt>
      <trkpt lat="49.3334" lon="3.32935">
        <ele>124.9</ele>
        <time>2025-10-20T13:53:35.000Z</time>
      </trkpt>
      <trkpt lat="49.33341" lon="3.32936">
        <ele>125</ele>
        <time>2025-10-20T13:53:36.000Z</time>
      </trkpt>
      <trkpt lat="49.33342" lon="3.32937">
        <ele>125</ele>
        <time>2025-10-20T13:53:37.000Z</time>
      </trkpt>
      <trkpt lat="49.33343" lon="3.32939">
        <ele>124.9</ele>
        <time>2025-10-20T13:53:38.000Z</time>
      </trkpt>
      <trkpt lat="49.33343" lon="3.3294">
        <ele>125</ele>
        <time>2025-10-20T13:53:39.000Z</time>
      </trkpt>
      <trkpt lat="49.33344" lon="3.32941">
        <ele>125.2</ele>
        <time>2025-10-20T13:53:40.000Z</time>
      </trkpt>
      <trkpt lat="49.33345" lon="3.32943">
        <ele>125.1</ele>
        <time>2025-10-20T13:53:41.000Z</time>
      </trkpt>
      <trkpt lat="49.33346" lon="3.32944">
        <ele>124.9</ele>
        <time>2025-10-20T13:53:42.000Z</time>
      </trkpt>
      <trkpt lat="49.33347" lon="3.32946">
        <ele>125.2</ele>
        <time>2025-10-20T13:53:43.000Z</time>
      </trkpt>
      <trkpt lat="49.33348" lon="3.32948">
        <ele>125.5</ele>
        <time>2025-10-20T13:53:44.000Z</time>
      </trkpt>
      <trkpt lat="49.33349" lon="3.32949">
        <ele>125.5</ele>
        <time>2025-10-20T13:53:45.000Z</time>
      </trkpt>
      <trkpt lat="49.33349" lon="3.3295">
        <ele>125.6</ele>
        <time>2025-10-20T13:53:46.000Z</time>
      </trkpt>
      <trkpt lat="49.3335" lon="3.32951">
        <ele>125.9</ele>
        <time>2025-10-20T13:53:47.000Z</time>
      </trkpt>
      <trkpt lat="49.3335" lon="3.32952">
        <ele>126.2</ele>
        <time>2025-10-20T13:53:48.000Z</time>
      </trkpt>
      <trkpt lat="49.33351" lon="3.32953">
        <ele>126.5</ele>
        <time>2025-10-20T13:53:49.000Z</time>
      </trkpt>
      <trkpt lat="49.33351" lon="3.32954">
        <ele>126.7</ele>
        <time>2025-10-20T13:53:50.000Z</time>
      </trkpt>
      <trkpt lat="49.33351" lon="3.32955">
        <ele>127.2</ele>
        <time>2025-10-20T13:53:51.000Z</time>
      </trkpt>
      <trkpt lat="49.33352" lon="3.32956">
        <ele>127.3</ele>
        <time>2025-10-20T13:53:52.000Z</time>
      </trkpt>
      <trkpt lat="49.33352" lon="3.32958">
        <ele>127.6</ele>
        <time>2025-10-20T13:53:53.000Z</time>
      </trkpt>
      <trkpt lat="49.33352" lon="3.3296">
        <ele>128</ele>
        <time>2025-10-20T13:53:54.000Z</time>
      </trkpt>
      <trkpt lat="49.33353" lon="3.32961">
        <ele>128.5</ele>
        <time>2025-10-20T13:53:55.000Z</time>
      </trkpt>
      <trkpt lat="49.33353" lon="3.32962">
        <ele>129</ele>
        <time>2025-10-20T13:53:56.000Z</time>
      </trkpt>
      <trkpt lat="49.33353" lon="3.32963">
        <ele>129.4</ele>
        <time>2025-10-20T13:53:57.000Z</time>
      </trkpt>
      <trkpt lat="49.33354" lon="3.32963">
        <ele>129.5</ele>
        <time>2025-10-20T13:53:58.000Z</time>
      </trkpt>
      <trkpt lat="49.33355" lon="3.32965">
        <ele>129.6</ele>
        <time>2025-10-20T13:53:59.000Z</time>
      </trkpt>
      <trkpt lat="49.33357" lon="3.32967">
        <ele>129.7</ele>
        <time>2025-10-20T13:54:00.000Z</time>
      </trkpt>
      <trkpt lat="49.33358" lon="3.32969">
        <ele>129.6</ele>
        <time>2025-10-20T13:54:01.000Z</time>
      </trkpt>
      <trkpt lat="49.33358" lon="3.32971">
        <ele>129.5</ele>
        <time>2025-10-20T13:54:02.000Z</time>
      </trkpt>
      <trkpt lat="49.33359" lon="3.32972">
        <ele>129.3</ele>
        <time>2025-10-20T13:54:03.000Z</time>
      </trkpt>
      <trkpt lat="49.3336" lon="3.32974">
        <ele>129.1</ele>
        <time>2025-10-20T13:54:04.000Z</time>
      </trkpt>
      <trkpt lat="49.33361" lon="3.32975">
        <ele>128.8</ele>
        <time>2025-10-20T13:54:05.000Z</time>
      </trkpt>
      <trkpt lat="49.33361" lon="3.32976">
        <ele>128.6</ele>
        <time>2025-10-20T13:54:06.000Z</time>
      </trkpt>
      <trkpt lat="49.33361" lon="3.32977">
        <ele>128.6</ele>
        <time>2025-10-20T13:54:07.000Z</time>
      </trkpt>
      <trkpt lat="49.33362" lon="3.32978">
        <ele>128.5</ele>
        <time>2025-10-20T13:54:08.000Z</time>
      </trkpt>
      <trkpt lat="49.33362" lon="3.32979">
        <ele>128.6</ele>
        <time>2025-10-20T13:54:09.000Z</time>
      </trkpt>
      <trkpt lat="49.33363" lon="3.3298">
        <ele>128.8</ele>
        <time>2025-10-20T13:54:10.000Z</time>
      </trkpt>
      <trkpt lat="49.33363" lon="3.32981">
        <ele>129.2</ele>
        <time>2025-10-20T13:54:11.000Z</time>
      </trkpt>
      <trkpt lat="49.33364" lon="3.32981">
        <ele>129.5</ele>
        <time>2025-10-20T13:54:12.000Z</time>
      </trkpt>
      <trkpt lat="49.33364" lon="3.32982">
        <ele>129.8</ele>
        <time>2025-10-20T13:54:13.000Z</time>
      </trkpt>
      <trkpt lat="49.33364" lon="3.32983">
        <ele>130.2</ele>
        <time>2025-10-20T13:54:14.000Z</time>
      </trkpt>
      <trkpt lat="49.33365" lon="3.32984">
        <ele>130.5</ele>
        <time>2025-10-20T13:54:15.000Z</time>
      </trkpt>
      <trkpt lat="49.33365" lon="3.32985">
        <ele>131</ele>
        <time>2025-10-20T13:54:16.000Z</time>
      </trkpt>
      <trkpt lat="49.33365" lon="3.32985">
        <ele>131.4</ele>
        <time>2025-10-20T13:54:17.000Z</time>
      </trkpt>
      <trkpt lat="49.33366" lon="3.32986">
        <ele>131.8</ele>
        <time>2025-10-20T13:54:18.000Z</time>
      </trkpt>
      <trkpt lat="49.33366" lon="3.32987">
        <ele>132.3</ele>
        <time>2025-10-20T13:54:19.000Z</time>
      </trkpt>
      <trkpt lat="49.33367" lon="3.32987">
        <ele>132.7</ele>
        <time>2025-10-20T13:54:20.000Z</time>
      </trkpt>
      <trkpt lat="49.33367" lon="3.32988">
        <ele>133</ele>
        <time>2025-10-20T13:54:21.000Z</time>
      </trkpt>
      <trkpt lat="49.33368" lon="3.32989">
        <ele>133.3</ele>
        <time>2025-10-20T13:54:22.000Z</time>
      </trkpt>
      <trkpt lat="49.33368" lon="3.3299">
        <ele>133.6</ele>
        <time>2025-10-20T13:54:23.000Z</time>
      </trkpt>
      <trkpt lat="49.33369" lon="3.32991">
        <ele>133.9</ele>
        <time>2025-10-20T13:54:24.000Z</time>
      </trkpt>
      <trkpt lat="49.3337" lon="3.32992">
        <ele>134.2</ele>
        <time>2025-10-20T13:54:25.000Z</time>
      </trkpt>
      <trkpt lat="49.33371" lon="3.32993">
        <ele>134.8</ele>
        <time>2025-10-20T13:54:26.000Z</time>
      </trkpt>
      <trkpt lat="49.33372" lon="3.32994">
        <ele>135.2</ele>
        <time>2025-10-20T13:54:27.000Z</time>
      </trkpt>
      <trkpt lat="49.33372" lon="3.32995">
        <ele>135.4</ele>
        <time>2025-10-20T13:54:28.000Z</time>
      </trkpt>
      <trkpt lat="49.33372" lon="3.32996">
        <ele>135.7</ele>
        <time>2025-10-20T13:54:29.000Z</time>
      </trkpt>
      <trkpt lat="49.33373" lon="3.32996">
        <ele>135.9</ele>
        <time>2025-10-20T13:54:30.000Z</time>
      </trkpt>
      <trkpt lat="49.33373" lon="3.32997">
        <ele>136.3</ele>
        <time>2025-10-20T13:54:31.000Z</time>
      </trkpt>
      <trkpt lat="49.33374" lon="3.32999">
        <ele>136.7</ele>
        <time>2025-10-20T13:54:32.000Z</time>
      </trkpt>
      <trkpt lat="49.33374" lon="3.33">
        <ele>137</ele>
        <time>2025-10-20T13:54:33.000Z</time>
      </trkpt>
      <trkpt lat="49.33374" lon="3.33002">
        <ele>137.3</ele>
        <time>2025-10-20T13:54:34.000Z</time>
      </trkpt>
      <trkpt lat="49.33375" lon="3.33004">
        <ele>137.6</ele>
        <time>2025-10-20T13:54:35.000Z</time>
      </trkpt>
      <trkpt lat="49.33375" lon="3.33005">
        <ele>137.8</ele>
        <time>2025-10-20T13:54:36.000Z</time>
      </trkpt>
      <trkpt lat="49.33375" lon="3.33007">
        <ele>138.2</ele>
        <time>2025-10-20T13:54:37.000Z</time>
      </trkpt>
      <trkpt lat="49.33376" lon="3.33008">
        <ele>138.3</ele>
        <time>2025-10-20T13:54:38.000Z</time>
      </trkpt>
      <trkpt lat="49.33376" lon="3.33011">
        <ele>138.3</ele>
        <time>2025-10-20T13:54:39.000Z</time>
      </trkpt>
      <trkpt lat="49.33377" lon="3.33012">
        <ele>137.9</ele>
        <time>2025-10-20T13:54:40.000Z</time>
      </trkpt>
      <trkpt lat="49.33377" lon="3.33014">
        <ele>137.7</ele>
        <time>2025-10-20T13:54:41.000Z</time>
      </trkpt>
      <trkpt lat="49.33378" lon="3.33016">
        <ele>137.6</ele>
        <time>2025-10-20T13:54:42.000Z</time>
      </trkpt>
      <trkpt lat="49.33378" lon="3.33017">
        <ele>137.7</ele>
        <time>2025-10-20T13:54:43.000Z</time>
      </trkpt>
      <trkpt lat="49.33379" lon="3.33019">
        <ele>138</ele>
        <time>2025-10-20T13:54:44.000Z</time>
      </trkpt>
      <trkpt lat="49.33379" lon="3.33021">
        <ele>138.4</ele>
        <time>2025-10-20T13:54:45.000Z</time>
      </trkpt>
      <trkpt lat="49.33379" lon="3.33023">
        <ele>138.8</ele>
        <time>2025-10-20T13:54:46.000Z</time>
      </trkpt>
      <trkpt lat="49.33379" lon="3.33025">
        <ele>139.1</ele>
        <time>2025-10-20T13:54:47.000Z</time>
      </trkpt>
      <trkpt lat="49.33379" lon="3.33027">
        <ele>139.5</ele>
        <time>2025-10-20T13:54:48.000Z</time>
      </trkpt>
      <trkpt lat="49.33379" lon="3.33028">
        <ele>139.8</ele>
        <time>2025-10-20T13:54:49.000Z</time>
      </trkpt>
      <trkpt lat="49.33379" lon="3.3303">
        <ele>140.3</ele>
        <time>2025-10-20T13:54:50.000Z</time>
      </trkpt>
      <trkpt lat="49.33379" lon="3.33032">
        <ele>140.8</ele>
        <time>2025-10-20T13:54:51.000Z</time>
      </trkpt>
      <trkpt lat="49.33379" lon="3.33033">
        <ele>141.4</ele>
        <time>2025-10-20T13:54:52.000Z</time>
      </trkpt>
      <trkpt lat="49.3338" lon="3.33035">
        <ele>141.9</ele>
        <time>2025-10-20T13:54:53.000Z</time>
      </trkpt>
      <trkpt lat="49.3338" lon="3.33036">
        <ele>142.2</ele>
        <time>2025-10-20T13:54:54.000Z</time>
      </trkpt>
      <trkpt lat="49.3338" lon="3.33037">
        <ele>142.7</ele>
        <time>2025-10-20T13:54:55.000Z</time>
      </trkpt>
      <trkpt lat="49.3338" lon="3.33038">
        <ele>143.3</ele>
        <time>2025-10-20T13:54:56.000Z</time>
      </trkpt>
      <trkpt lat="49.3338" lon="3.33038">
        <ele>143.9</ele>
        <time>2025-10-20T13:54:57.000Z</time>
      </trkpt>
      <trkpt lat="49.3338" lon="3.33039">
        <ele>144.6</ele>
        <time>2025-10-20T13:54:58.000Z</time>
      </trkpt>
      <trkpt lat="49.3338" lon="3.3304">
        <ele>145.5</ele>
        <time>2025-10-20T13:54:59.000Z</time>
      </trkpt>
      <trkpt lat="49.33381" lon="3.33042">
        <ele>145.8</ele>
        <time>2025-10-20T13:55:00.000Z</time>
      </trkpt>
      <trkpt lat="49.33382" lon="3.33044">
        <ele>146.1</ele>
        <time>2025-10-20T13:55:01.000Z</time>
      </trkpt>
      <trkpt lat="49.33383" lon="3.33046">
        <ele>146.6</ele>
        <time>2025-10-20T13:55:02.000Z</time>
      </trkpt>
      <trkpt lat="49.33384" lon="3.33049">
        <ele>147.1</ele>
        <time>2025-10-20T13:55:03.000Z</time>
      </trkpt>
      <trkpt lat="49.33385" lon="3.33051">
        <ele>147.2</ele>
        <time>2025-10-20T13:55:04.000Z</time>
      </trkpt>
      <trkpt lat="49.33387" lon="3.33054">
        <ele>146.9</ele>
        <time>2025-10-20T13:55:05.000Z</time>
      </trkpt>
      <trkpt lat="49.33388" lon="3.33056">
        <ele>147</ele>
        <time>2025-10-20T13:55:06.000Z</time>
      </trkpt>
      <trkpt lat="49.33389" lon="3.33058">
        <ele>146.4</ele>
        <time>2025-10-20T13:55:07.000Z</time>
      </trkpt>
      <trkpt lat="49.3339" lon="3.3306">
        <ele>146.1</ele>
        <time>2025-10-20T13:55:08.000Z</time>
      </trkpt>
      <trkpt lat="49.33391" lon="3.33062">
        <ele>146.2</ele>
        <time>2025-10-20T13:55:09.000Z</time>
      </trkpt>
      <trkpt lat="49.33391" lon="3.33064">
        <ele>146.1</ele>
        <time>2025-10-20T13:55:10.000Z</time>
      </trkpt>
      <trkpt lat="49.33392" lon="3.33065">
        <ele>146.1</ele>
        <time>2025-10-20T13:55:11.000Z</time>
      </trkpt>
      <trkpt lat="49.33393" lon="3.33067">
        <ele>146.1</ele>
        <time>2025-10-20T13:55:12.000Z</time>
      </trkpt>
      <trkpt lat="49.33394" lon="3.33068">
        <ele>145.9</ele>
        <time>2025-10-20T13:55:13.000Z</time>
      </trkpt>
      <trkpt lat="49.33395" lon="3.33069">
        <ele>145.9</ele>
        <time>2025-10-20T13:55:14.000Z</time>
      </trkpt>
      <trkpt lat="49.33395" lon="3.33071">
        <ele>146</ele>
        <time>2025-10-20T13:55:15.000Z</time>
      </trkpt>
      <trkpt lat="49.33396" lon="3.33072">
        <ele>146.1</ele>
        <time>2025-10-20T13:55:16.000Z</time>
      </trkpt>
      <trkpt lat="49.33396" lon="3.33073">
        <ele>146.3</ele>
        <time>2025-10-20T13:55:17.000Z</time>
      </trkpt>
      <trkpt lat="49.33396" lon="3.33075">
        <ele>146.7</ele>
        <time>2025-10-20T13:55:18.000Z</time>
      </trkpt>
      <trkpt lat="49.33397" lon="3.33078">
        <ele>147.1</ele>
        <time>2025-10-20T13:55:19.000Z</time>
      </trkpt>
      <trkpt lat="49.33397" lon="3.3308">
        <ele>147.8</ele>
        <time>2025-10-20T13:55:20.000Z</time>
      </trkpt>
      <trkpt lat="49.33397" lon="3.33082">
        <ele>148.7</ele>
        <time>2025-10-20T13:55:21.000Z</time>
      </trkpt>
      <trkpt lat="49.33397" lon="3.33083">
        <ele>149.4</ele>
        <time>2025-10-20T13:55:22.000Z</time>
      </trkpt>
      <trkpt lat="49.33398" lon="3.33084">
        <ele>150.2</ele>
        <time>2025-10-20T13:55:23.000Z</time>
      </trkpt>
      <trkpt lat="49.33399" lon="3.33085">
        <ele>150.9</ele>
        <time>2025-10-20T13:55:24.000Z</time>
      </trkpt>
      <trkpt lat="49.334" lon="3.33087">
        <ele>151.7</ele>
        <time>2025-10-20T13:55:25.000Z</time>
      </trkpt>
      <trkpt lat="49.334" lon="3.33088">
        <ele>152.3</ele>
        <time>2025-10-20T13:55:26.000Z</time>
      </trkpt>
      <trkpt lat="49.33401" lon="3.33089">
        <ele>152.7</ele>
        <time>2025-10-20T13:55:27.000Z</time>
      </trkpt>
      <trkpt lat="49.33401" lon="3.3309">
        <ele>153</ele>
        <time>2025-10-20T13:55:28.000Z</time>
      </trkpt>
      <trkpt lat="49.33402" lon="3.33091">
        <ele>153.5</ele>
        <time>2025-10-20T13:55:29.000Z</time>
      </trkpt>
      <trkpt lat="49.33402" lon="3.33091">
        <ele>153.8</ele>
        <time>2025-10-20T13:55:30.000Z</time>
      </trkpt>
      <trkpt lat="49.33403" lon="3.33092">
        <ele>154.1</ele>
        <time>2025-10-20T13:55:31.000Z</time>
      </trkpt>
      <trkpt lat="49.33405" lon="3.33094">
        <ele>154.6</ele>
        <time>2025-10-20T13:55:32.000Z</time>
      </trkpt>
      <trkpt lat="49.33406" lon="3.33095">
        <ele>154.9</ele>
        <time>2025-10-20T13:55:33.000Z</time>
      </trkpt>
      <trkpt lat="49.33407" lon="3.33098">
        <ele>155.3</ele>
        <time>2025-10-20T13:55:34.000Z</time>
      </trkpt>
      <trkpt lat="49.33408" lon="3.331">
        <ele>155.9</ele>
        <time>2025-10-20T13:55:35.000Z</time>
      </trkpt>
      <trkpt lat="49.33409" lon="3.33102">
        <ele>156.4</ele>
        <time>2025-10-20T13:55:36.000Z</time>
      </trkpt>
      <trkpt lat="49.3341" lon="3.33104">
        <ele>156.9</ele>
        <time>2025-10-20T13:55:37.000Z</time>
      </trkpt>
      <trkpt lat="49.33411" lon="3.33105">
        <ele>157.4</ele>
        <time>2025-10-20T13:55:38.000Z</time>
      </trkpt>
      <trkpt lat="49.33412" lon="3.33107">
        <ele>157.5</ele>
        <time>2025-10-20T13:55:39.000Z</time>
      </trkpt>
      <trkpt lat="49.33413" lon="3.33108">
        <ele>157.7</ele>
        <time>2025-10-20T13:55:40.000Z</time>
      </trkpt>
      <trkpt lat="49.33413" lon="3.3311">
        <ele>158</ele>
        <time>2025-10-20T13:55:41.000Z</time>
      </trkpt>
      <trkpt lat="49.33414" lon="3.33111">
        <ele>158</ele>
        <time>2025-10-20T13:55:42.000Z</time>
      </trkpt>
      <trkpt lat="49.33415" lon="3.33112">
        <ele>157.9</ele>
        <time>2025-10-20T13:55:43.000Z</time>
      </trkpt>
      <trkpt lat="49.33416" lon="3.33113">
        <ele>157.8</ele>
        <time>2025-10-20T13:55:44.000Z</time>
      </trkpt>
      <trkpt lat="49.33417" lon="3.33115">
        <ele>157.9</ele>
        <time>2025-10-20T13:55:45.000Z</time>
      </trkpt>
      <trkpt lat="49.33418" lon="3.33117">
        <ele>158</ele>
        <time>2025-10-20T13:55:46.000Z</time>
      </trkpt>
      <trkpt lat="49.33419" lon="3.33119">
        <ele>157.9</ele>
        <time>2025-10-20T13:55:47.000Z</time>
      </trkpt>
      <trkpt lat="49.3342" lon="3.33121">
        <ele>157.5</ele>
        <time>2025-10-20T13:55:48.000Z</time>
      </trkpt>
      <trkpt lat="49.33421" lon="3.33123">
        <ele>157.2</ele>
        <time>2025-10-20T13:55:49.000Z</time>
      </trkpt>
      <trkpt lat="49.33421" lon="3.33124">
        <ele>157.3</ele>
        <time>2025-10-20T13:55:50.000Z</time>
      </trkpt>
      <trkpt lat="49.33422" lon="3.33125">
        <ele>157.3</ele>
        <time>2025-10-20T13:55:51.000Z</time>
      </trkpt>
      <trkpt lat="49.33422" lon="3.33127">
        <ele>157.4</ele>
        <time>2025-10-20T13:55:52.000Z</time>
      </trkpt>
      <trkpt lat="49.33423" lon="3.33129">
        <ele>157.6</ele>
        <time>2025-10-20T13:55:53.000Z</time>
      </trkpt>
      <trkpt lat="49.33424" lon="3.3313">
        <ele>157.3</ele>
        <time>2025-10-20T13:55:54.000Z</time>
      </trkpt>
      <trkpt lat="49.33425" lon="3.33132">
        <ele>157</ele>
        <time>2025-10-20T13:55:55.000Z</time>
      </trkpt>
      <trkpt lat="49.33426" lon="3.33134">
        <ele>156.9</ele>
        <time>2025-10-20T13:55:56.000Z</time>
      </trkpt>
      <trkpt lat="49.33426" lon="3.33135">
        <ele>156.9</ele>
        <time>2025-10-20T13:55:57.000Z</time>
      </trkpt>
      <trkpt lat="49.33427" lon="3.33137">
        <ele>156.7</ele>
        <time>2025-10-20T13:55:58.000Z</time>
      </trkpt>
      <trkpt lat="49.33428" lon="3.3314">
        <ele>156.4</ele>
        <time>2025-10-20T13:55:59.000Z</time>
      </trkpt>
      <trkpt lat="49.33428" lon="3.33142">
        <ele>156.1</ele>
        <time>2025-10-20T13:56:00.000Z</time>
      </trkpt>
      <trkpt lat="49.33429" lon="3.33143">
        <ele>155.9</ele>
        <time>2025-10-20T13:56:01.000Z</time>
      </trkpt>
      <trkpt lat="49.3343" lon="3.33145">
        <ele>155.6</ele>
        <time>2025-10-20T13:56:02.000Z</time>
      </trkpt>
      <trkpt lat="49.3343" lon="3.33146">
        <ele>155.3</ele>
        <time>2025-10-20T13:56:03.000Z</time>
      </trkpt>
      <trkpt lat="49.33431" lon="3.33148">
        <ele>155.1</ele>
        <time>2025-10-20T13:56:04.000Z</time>
      </trkpt>
      <trkpt lat="49.33431" lon="3.3315">
        <ele>155.1</ele>
        <time>2025-10-20T13:56:05.000Z</time>
      </trkpt>
      <trkpt lat="49.33432" lon="3.33151">
        <ele>155</ele>
        <time>2025-10-20T13:56:06.000Z</time>
      </trkpt>
      <trkpt lat="49.33432" lon="3.33153">
        <ele>155</ele>
        <time>2025-10-20T13:56:07.000Z</time>
      </trkpt>
      <trkpt lat="49.33432" lon="3.33154">
        <ele>155</ele>
        <time>2025-10-20T13:56:08.000Z</time>
      </trkpt>
      <trkpt lat="49.33433" lon="3.33156">
        <ele>154.9</ele>
        <time>2025-10-20T13:56:09.000Z</time>
      </trkpt>
      <trkpt lat="49.33434" lon="3.33159">
        <ele>154.9</ele>
        <time>2025-10-20T13:56:10.000Z</time>
      </trkpt>
      <trkpt lat="49.33434" lon="3.33161">
        <ele>155.2</ele>
        <time>2025-10-20T13:56:11.000Z</time>
      </trkpt>
      <trkpt lat="49.33434" lon="3.33162">
        <ele>155.2</ele>
        <time>2025-10-20T13:56:12.000Z</time>
      </trkpt>
      <trkpt lat="49.33434" lon="3.33163">
        <ele>155.4</ele>
        <time>2025-10-20T13:56:13.000Z</time>
      </trkpt>
      <trkpt lat="49.33435" lon="3.33165">
        <ele>155.7</ele>
        <time>2025-10-20T13:56:14.000Z</time>
      </trkpt>
      <trkpt lat="49.33436" lon="3.33165">
        <ele>156.2</ele>
        <time>2025-10-20T13:56:15.000Z</time>
      </trkpt>
      <trkpt lat="49.33437" lon="3.33167">
        <ele>156.8</ele>
        <time>2025-10-20T13:56:16.000Z</time>
      </trkpt>
      <trkpt lat="49.33437" lon="3.33168">
        <ele>157.5</ele>
        <time>2025-10-20T13:56:17.000Z</time>
      </trkpt>
      <trkpt lat="49.33438" lon="3.33169">
        <ele>157.9</ele>
        <time>2025-10-20T13:56:18.000Z</time>
      </trkpt>
      <trkpt lat="49.33439" lon="3.33171">
        <ele>158.2</ele>
        <time>2025-10-20T13:56:19.000Z</time>
      </trkpt>
      <trkpt lat="49.33439" lon="3.33172">
        <ele>158.9</ele>
        <time>2025-10-20T13:56:20.000Z</time>
      </trkpt>
      <trkpt lat="49.3344" lon="3.33173">
        <ele>159.5</ele>
        <time>2025-10-20T13:56:21.000Z</time>
      </trkpt>
      <trkpt lat="49.3344" lon="3.33174">
        <ele>160.3</ele>
        <time>2025-10-20T13:56:22.000Z</time>
      </trkpt>
      <trkpt lat="49.33441" lon="3.33176">
        <ele>160.7</ele>
        <time>2025-10-20T13:56:23.000Z</time>
      </trkpt>
      <trkpt lat="49.33442" lon="3.33177">
        <ele>161.6</ele>
        <time>2025-10-20T13:56:24.000Z</time>
      </trkpt>
      <trkpt lat="49.33443" lon="3.33177">
        <ele>162.5</ele>
        <time>2025-10-20T13:56:25.000Z</time>
      </trkpt>
      <trkpt lat="49.33443" lon="3.33178">
        <ele>163.4</ele>
        <time>2025-10-20T13:56:26.000Z</time>
      </trkpt>
      <trkpt lat="49.33444" lon="3.3318">
        <ele>164.3</ele>
        <time>2025-10-20T13:56:27.000Z</time>
      </trkpt>
      <trkpt lat="49.33444" lon="3.33181">
        <ele>165</ele>
        <time>2025-10-20T13:56:28.000Z</time>
      </trkpt>
      <trkpt lat="49.33445" lon="3.33182">
        <ele>165.7</ele>
        <time>2025-10-20T13:56:29.000Z</time>
      </trkpt>
      <trkpt lat="49.33445" lon="3.33183">
        <ele>166.5</ele>
        <time>2025-10-20T13:56:30.000Z</time>
      </trkpt>
      <trkpt lat="49.33446" lon="3.33184">
        <ele>167.3</ele>
        <time>2025-10-20T13:56:31.000Z</time>
      </trkpt>
      <trkpt lat="49.33446" lon="3.33185">
        <ele>168.2</ele>
        <time>2025-10-20T13:56:32.000Z</time>
      </trkpt>
      <trkpt lat="49.33447" lon="3.33187">
        <ele>168.8</ele>
        <time>2025-10-20T13:56:33.000Z</time>
      </trkpt>
      <trkpt lat="49.33448" lon="3.33188">
        <ele>169</ele>
        <time>2025-10-20T13:56:34.000Z</time>
      </trkpt>
      <trkpt lat="49.33449" lon="3.33189">
        <ele>169.2</ele>
        <time>2025-10-20T13:56:35.000Z</time>
      </trkpt>
      <trkpt lat="49.33449" lon="3.33191">
        <ele>169.6</ele>
        <time>2025-10-20T13:56:36.000Z</time>
      </trkpt>
      <trkpt lat="49.3345" lon="3.33191">
        <ele>170</ele>
        <time>2025-10-20T13:56:37.000Z</time>
      </trkpt>
      <trkpt lat="49.33452" lon="3.33194">
        <ele>170.2</ele>
        <time>2025-10-20T13:56:38.000Z</time>
      </trkpt>
      <trkpt lat="49.33453" lon="3.33195">
        <ele>170.6</ele>
        <time>2025-10-20T13:56:39.000Z</time>
      </trkpt>
      <trkpt lat="49.33454" lon="3.33196">
        <ele>170.6</ele>
        <time>2025-10-20T13:56:40.000Z</time>
      </trkpt>
      <trkpt lat="49.33455" lon="3.33197">
        <ele>170.4</ele>
        <time>2025-10-20T13:56:41.000Z</time>
      </trkpt>
      <trkpt lat="49.33456" lon="3.33199">
        <ele>170.5</ele>
        <time>2025-10-20T13:56:42.000Z</time>
      </trkpt>
      <trkpt lat="49.33458" lon="3.332">
        <ele>170.6</ele>
        <time>2025-10-20T13:56:43.000Z</time>
      </trkpt>
      <trkpt lat="49.33459" lon="3.33201">
        <ele>170.7</ele>
        <time>2025-10-20T13:56:44.000Z</time>
      </trkpt>
      <trkpt lat="49.3346" lon="3.33202">
        <ele>171.1</ele>
        <time>2025-10-20T13:56:45.000Z</time>
      </trkpt>
      <trkpt lat="49.33461" lon="3.33203">
        <ele>171.8</ele>
        <time>2025-10-20T13:56:46.000Z</time>
      </trkpt>
      <trkpt lat="49.33462" lon="3.33204">
        <ele>171.9</ele>
        <time>2025-10-20T13:56:47.000Z</time>
      </trkpt>
      <trkpt lat="49.33462" lon="3.33204">
        <ele>172.1</ele>
        <time>2025-10-20T13:56:48.000Z</time>
      </trkpt>
      <trkpt lat="49.33462" lon="3.33204">
        <ele>172.1</ele>
        <time>2025-10-20T13:56:49.000Z</time>
      </trkpt>
      <trkpt lat="49.33462" lon="3.33205">
        <ele>172.1</ele>
        <time>2025-10-20T13:56:50.000Z</time>
      </trkpt>
      <trkpt lat="49.33462" lon="3.33206">
        <ele>172.3</ele>
        <time>2025-10-20T13:56:51.000Z</time>
      </trkpt>
      <trkpt lat="49.33462" lon="3.33207">
        <ele>172.4</ele>
        <time>2025-10-20T13:56:52.000Z</time>
      </trkpt>
      <trkpt lat="49.33462" lon="3.33208">
        <ele>172.5</ele>
        <time>2025-10-20T13:56:53.000Z</time>
      </trkpt>
      <trkpt lat="49.33462" lon="3.33208">
        <ele>172.2</ele>
        <time>2025-10-20T13:56:54.000Z</time>
      </trkpt>
      <trkpt lat="49.33462" lon="3.33209">
        <ele>172.2</ele>
        <time>2025-10-20T13:56:55.000Z</time>
      </trkpt>
      <trkpt lat="49.33462" lon="3.33209">
        <ele>172</ele>
        <time>2025-10-20T13:56:56.000Z</time>
      </trkpt>
      <trkpt lat="49.33462" lon="3.3321">
        <ele>171.9</ele>
        <time>2025-10-20T13:56:57.000Z</time>
      </trkpt>
      <trkpt lat="49.33461" lon="3.33211">
        <ele>172.1</ele>
        <time>2025-10-20T13:56:58.000Z</time>
      </trkpt>
      <trkpt lat="49.33461" lon="3.33213">
        <ele>172.1</ele>
        <time>2025-10-20T13:56:59.000Z</time>
      </trkpt>
      <trkpt lat="49.3346" lon="3.33214">
        <ele>172</ele>
        <time>2025-10-20T13:57:00.000Z</time>
      </trkpt>
      <trkpt lat="49.3346" lon="3.33216">
        <ele>172</ele>
        <time>2025-10-20T13:57:01.000Z</time>
      </trkpt>
      <trkpt lat="49.3346" lon="3.33218">
        <ele>172</ele>
        <time>2025-10-20T13:57:02.000Z</time>
      </trkpt>
      <trkpt lat="49.33459" lon="3.33219">
        <ele>172</ele>
        <time>2025-10-20T13:57:03.000Z</time>
      </trkpt>
      <trkpt lat="49.33459" lon="3.3322">
        <ele>172</ele>
        <time>2025-10-20T13:57:04.000Z</time>
      </trkpt>
      <trkpt lat="49.33458" lon="3.33221">
        <ele>172.2</ele>
        <time>2025-10-20T13:57:05.000Z</time>
      </trkpt>
      <trkpt lat="49.33458" lon="3.33223">
        <ele>172.4</ele>
        <time>2025-10-20T13:57:06.000Z</time>
      </trkpt>
      <trkpt lat="49.33457" lon="3.33225">
        <ele>172.5</ele>
        <time>2025-10-20T13:57:07.000Z</time>
      </trkpt>
      <trkpt lat="49.33457" lon="3.33226">
        <ele>172.7</ele>
        <time>2025-10-20T13:57:08.000Z</time>
      </trkpt>
      <trkpt lat="49.33457" lon="3.33228">
        <ele>172.7</ele>
        <time>2025-10-20T13:57:09.000Z</time>
      </trkpt>
      <trkpt lat="49.33457" lon="3.3323">
        <ele>172.9</ele>
        <time>2025-10-20T13:57:10.000Z</time>
      </trkpt>
      <trkpt lat="49.33456" lon="3.33232">
        <ele>173.5</ele>
        <time>2025-10-20T13:57:11.000Z</time>
      </trkpt>
      <trkpt lat="49.33456" lon="3.33234">
        <ele>174</ele>
        <time>2025-10-20T13:57:12.000Z</time>
      </trkpt>
      <trkpt lat="49.33456" lon="3.33236">
        <ele>174.6</ele>
        <time>2025-10-20T13:57:13.000Z</time>
      </trkpt>
      <trkpt lat="49.33455" lon="3.33238">
        <ele>174.7</ele>
        <time>2025-10-20T13:57:14.000Z</time>
      </trkpt>
      <trkpt lat="49.33455" lon="3.3324">
        <ele>175.1</ele>
        <time>2025-10-20T13:57:15.000Z</time>
      </trkpt>
      <trkpt lat="49.33454" lon="3.33242">
        <ele>175.5</ele>
        <time>2025-10-20T13:57:16.000Z</time>
      </trkpt>
      <trkpt lat="49.33454" lon="3.33242">
        <ele>175.9</ele>
        <time>2025-10-20T13:57:17.000Z</time>
      </trkpt>
      <trkpt lat="49.33455" lon="3.33243">
        <ele>176.4</ele>
        <time>2025-10-20T13:57:18.000Z</time>
      </trkpt>
      <trkpt lat="49.33455" lon="3.33244">
        <ele>177</ele>
        <time>2025-10-20T13:57:19.000Z</time>
      </trkpt>
      <trkpt lat="49.33455" lon="3.33245">
        <ele>177.5</ele>
        <time>2025-10-20T13:57:20.000Z</time>
      </trkpt>
      <trkpt lat="49.33455" lon="3.33247">
        <ele>178</ele>
        <time>2025-10-20T13:57:21.000Z</time>
      </trkpt>
      <trkpt lat="49.33455" lon="3.33248">
        <ele>178.6</ele>
        <time>2025-10-20T13:57:22.000Z</time>
      </trkpt>
      <trkpt lat="49.33456" lon="3.33249">
        <ele>179.5</ele>
        <time>2025-10-20T13:57:23.000Z</time>
      </trkpt>
      <trkpt lat="49.33456" lon="3.33251">
        <ele>179.9</ele>
        <time>2025-10-20T13:57:24.000Z</time>
      </trkpt>
      <trkpt lat="49.33456" lon="3.33252">
        <ele>180.6</ele>
        <time>2025-10-20T13:57:25.000Z</time>
      </trkpt>
      <trkpt lat="49.33456" lon="3.33254">
        <ele>181.2</ele>
        <time>2025-10-20T13:57:26.000Z</time>
      </trkpt>
      <trkpt lat="49.33456" lon="3.33255">
        <ele>181.7</ele>
        <time>2025-10-20T13:57:27.000Z</time>
      </trkpt>
      <trkpt lat="49.33457" lon="3.33257">
        <ele>182.2</ele>
        <time>2025-10-20T13:57:28.000Z</time>
      </trkpt>
      <trkpt lat="49.33457" lon="3.33259">
        <ele>182.6</ele>
        <time>2025-10-20T13:57:29.000Z</time>
      </trkpt>
      <trkpt lat="49.33457" lon="3.3326">
        <ele>183</ele>
        <time>2025-10-20T13:57:30.000Z</time>
      </trkpt>
      <trkpt lat="49.33458" lon="3.33262">
        <ele>183.4</ele>
        <time>2025-10-20T13:57:31.000Z</time>
      </trkpt>
      <trkpt lat="49.33458" lon="3.33264">
        <ele>183.7</ele>
        <time>2025-10-20T13:57:32.000Z</time>
      </trkpt>
      <trkpt lat="49.33459" lon="3.33265">
        <ele>183.9</ele>
        <time>2025-10-20T13:57:33.000Z</time>
      </trkpt>
      <trkpt lat="49.3346" lon="3.33268">
        <ele>184.2</ele>
        <time>2025-10-20T13:57:34.000Z</time>
      </trkpt>
      <trkpt lat="49.3346" lon="3.33269">
        <ele>184.5</ele>
        <time>2025-10-20T13:57:35.000Z</time>
      </trkpt>
      <trkpt lat="49.33461" lon="3.33272">
        <ele>184.8</ele>
        <time>2025-10-20T13:57:36.000Z</time>
      </trkpt>
      <trkpt lat="49.33461" lon="3.33274">
        <ele>185</ele>
        <time>2025-10-20T13:57:37.000Z</time>
      </trkpt>
      <trkpt lat="49.33462" lon="3.33276">
        <ele>185.3</ele>
        <time>2025-10-20T13:57:38.000Z</time>
      </trkpt>
      <trkpt lat="49.33462" lon="3.33278">
        <ele>185.6</ele>
        <time>2025-10-20T13:57:39.000Z</time>
      </trkpt>
      <trkpt lat="49.33463" lon="3.3328">
        <ele>185.8</ele>
        <time>2025-10-20T13:57:40.000Z</time>
      </trkpt>
      <trkpt lat="49.33464" lon="3.33281">
        <ele>186.1</ele>
        <time>2025-10-20T13:57:41.000Z</time>
      </trkpt>
      <trkpt lat="49.33465" lon="3.33283">
        <ele>186.3</ele>
        <time>2025-10-20T13:57:42.000Z</time>
      </trkpt>
      <trkpt lat="49.33466" lon="3.33284">
        <ele>186.7</ele>
        <time>2025-10-20T13:57:43.000Z</time>
      </trkpt>
      <trkpt lat="49.33466" lon="3.33285">
        <ele>187.1</ele>
        <time>2025-10-20T13:57:44.000Z</time>
      </trkpt>
      <trkpt lat="49.33466" lon="3.33286">
        <ele>187.6</ele>
        <time>2025-10-20T13:57:45.000Z</time>
      </trkpt>
      <trkpt lat="49.33467" lon="3.33288">
        <ele>188</ele>
        <time>2025-10-20T13:57:46.000Z</time>
      </trkpt>
      <trkpt lat="49.33468" lon="3.33289">
        <ele>188.2</ele>
        <time>2025-10-20T13:57:47.000Z</time>
      </trkpt>
      <trkpt lat="49.33468" lon="3.3329">
        <ele>188.7</ele>
        <time>2025-10-20T13:57:48.000Z</time>
      </trkpt>
      <trkpt lat="49.33469" lon="3.33292">
        <ele>188.9</ele>
        <time>2025-10-20T13:57:49.000Z</time>
      </trkpt>
      <trkpt lat="49.3347" lon="3.33294">
        <ele>189.3</ele>
        <time>2025-10-20T13:57:50.000Z</time>
      </trkpt>
      <trkpt lat="49.3347" lon="3.33295">
        <ele>189.6</ele>
        <time>2025-10-20T13:57:51.000Z</time>
      </trkpt>
      <trkpt lat="49.33471" lon="3.33296">
        <ele>189.6</ele>
        <time>2025-10-20T13:57:52.000Z</time>
      </trkpt>
      <trkpt lat="49.33471" lon="3.33297">
        <ele>189.7</ele>
        <time>2025-10-20T13:57:53.000Z</time>
      </trkpt>
      <trkpt lat="49.33473" lon="3.33301">
        <ele>189.1</ele>
        <time>2025-10-20T13:57:54.000Z</time>
      </trkpt>
      <trkpt lat="49.33475" lon="3.33303">
        <ele>188.7</ele>
        <time>2025-10-20T13:57:55.000Z</time>
      </trkpt>
      <trkpt lat="49.33476" lon="3.33306">
        <ele>188.1</ele>
        <time>2025-10-20T13:57:56.000Z</time>
      </trkpt>
      <trkpt lat="49.33477" lon="3.33309">
        <ele>187.6</ele>
        <time>2025-10-20T13:57:57.000Z</time>
      </trkpt>
      <trkpt lat="49.33478" lon="3.33312">
        <ele>187.1</ele>
        <time>2025-10-20T13:57:58.000Z</time>
      </trkpt>
      <trkpt lat="49.33478" lon="3.33314">
        <ele>186.8</ele>
        <time>2025-10-20T13:57:59.000Z</time>
      </trkpt>
      <trkpt lat="49.33479" lon="3.33316">
        <ele>186.9</ele>
        <time>2025-10-20T13:58:00.000Z</time>
      </trkpt>
      <trkpt lat="49.33479" lon="3.33318">
        <ele>187</ele>
        <time>2025-10-20T13:58:01.000Z</time>
      </trkpt>
      <trkpt lat="49.33489" lon="3.33339">
        <ele>190.1</ele>
        <time>2025-10-20T13:58:02.000Z</time>
      </trkpt>
      <trkpt lat="49.3349" lon="3.3334">
        <ele>189.9</ele>
        <time>2025-10-20T13:58:03.000Z</time>
      </trkpt>
      <trkpt lat="49.3349" lon="3.33341">
        <ele>189.4</ele>
        <time>2025-10-20T13:58:04.000Z</time>
      </trkpt>
      <trkpt lat="49.3349" lon="3.33341">
        <ele>188.9</ele>
        <time>2025-10-20T13:58:05.000Z</time>
      </trkpt>
      <trkpt lat="49.3349" lon="3.3334">
        <ele>187.9</ele>
        <time>2025-10-20T13:58:06.000Z</time>
      </trkpt>
      <trkpt lat="49.33489" lon="3.3334">
        <ele>187</ele>
        <time>2025-10-20T13:58:07.000Z</time>
      </trkpt>
      <trkpt lat="49.33489" lon="3.33339">
        <ele>186.2</ele>
        <time>2025-10-20T13:58:08.000Z</time>
      </trkpt>
      <trkpt lat="49.33489" lon="3.33339">
        <ele>185.8</ele>
        <time>2025-10-20T13:58:09.000Z</time>
      </trkpt>
      <trkpt lat="49.33489" lon="3.33339">
        <ele>185.8</ele>
        <time>2025-10-20T13:58:10.000Z</time>
      </trkpt>
      <trkpt lat="49.33489" lon="3.33339">
        <ele>185.7</ele>
        <time>2025-10-20T13:58:11.000Z</time>
      </trkpt>
      <trkpt lat="49.33488" lon="3.33338">
        <ele>185.1</ele>
        <time>2025-10-20T13:58:12.000Z</time>
      </trkpt>
      <trkpt lat="49.33488" lon="3.33337">
        <ele>184.7</ele>
        <time>2025-10-20T13:58:13.000Z</time>
      </trkpt>
      <trkpt lat="49.33488" lon="3.33336">
        <ele>184.3</ele>
        <time>2025-10-20T13:58:14.000Z</time>
      </trkpt>
      <trkpt lat="49.33488" lon="3.33336">
        <ele>183.5</ele>
        <time>2025-10-20T13:58:15.000Z</time>
      </trkpt>
      <trkpt lat="49.33488" lon="3.33335">
        <ele>182.8</ele>
        <time>2025-10-20T13:58:16.000Z</time>
      </trkpt>
      <trkpt lat="49.33487" lon="3.33334">
        <ele>182.3</ele>
        <time>2025-10-20T13:58:17.000Z</time>
      </trkpt>
      <trkpt lat="49.33487" lon="3.33334">
        <ele>181.4</ele>
        <time>2025-10-20T13:58:18.000Z</time>
      </trkpt>
      <trkpt lat="49.33487" lon="3.33334">
        <ele>180.8</ele>
        <time>2025-10-20T13:58:19.000Z</time>
      </trkpt>
      <trkpt lat="49.33487" lon="3.33334">
        <ele>180.2</ele>
        <time>2025-10-20T13:58:20.000Z</time>
      </trkpt>
      <trkpt lat="49.33487" lon="3.33335">
        <ele>179.8</ele>
        <time>2025-10-20T13:58:21.000Z</time>
      </trkpt>
      <trkpt lat="49.33486" lon="3.33335">
        <ele>179.3</ele>
        <time>2025-10-20T13:58:22.000Z</time>
      </trkpt>
      <trkpt lat="49.33486" lon="3.33335">
        <ele>178.7</ele>
        <time>2025-10-20T13:58:23.000Z</time>
      </trkpt>
      <trkpt lat="49.33487" lon="3.33336">
        <ele>178</ele>
        <time>2025-10-20T13:58:24.000Z</time>
      </trkpt>
      <trkpt lat="49.33486" lon="3.33336">
        <ele>177.3</ele>
        <time>2025-10-20T13:58:25.000Z</time>
      </trkpt>
      <trkpt lat="49.33486" lon="3.33337">
        <ele>176.9</ele>
        <time>2025-10-20T13:58:26.000Z</time>
      </trkpt>
      <trkpt lat="49.33486" lon="3.33337">
        <ele>176.7</ele>
        <time>2025-10-20T13:58:27.000Z</time>
      </trkpt>
      <trkpt lat="49.33485" lon="3.33337">
        <ele>176.4</ele>
        <time>2025-10-20T13:58:28.000Z</time>
      </trkpt>
      <trkpt lat="49.33485" lon="3.33338">
        <ele>176.5</ele>
        <time>2025-10-20T13:58:29.000Z</time>
      </trkpt>
      <trkpt lat="49.33485" lon="3.33339">
        <ele>176.6</ele>
        <time>2025-10-20T13:58:30.000Z</time>
      </trkpt>
      <trkpt lat="49.33485" lon="3.3334">
        <ele>176.7</ele>
        <time>2025-10-20T13:58:31.000Z</time>
      </trkpt>
      <trkpt lat="49.33485" lon="3.3334">
        <ele>177</ele>
        <time>2025-10-20T13:58:32.000Z</time>
      </trkpt>
      <trkpt lat="49.33485" lon="3.33341">
        <ele>177.2</ele>
        <time>2025-10-20T13:58:33.000Z</time>
      </trkpt>
      <trkpt lat="49.33486" lon="3.33342">
        <ele>177.3</ele>
        <time>2025-10-20T13:58:34.000Z</time>
      </trkpt>
      <trkpt lat="49.33486" lon="3.33343">
        <ele>177.3</ele>
        <time>2025-10-20T13:58:35.000Z</time>
      </trkpt>
      <trkpt lat="49.33487" lon="3.33345">
        <ele>177.1</ele>
        <time>2025-10-20T13:58:36.000Z</time>
      </trkpt>
      <trkpt lat="49.33488" lon="3.33346">
        <ele>177.1</ele>
        <time>2025-10-20T13:58:37.000Z</time>
      </trkpt>
      <trkpt lat="49.33489" lon="3.33347">
        <ele>177.1</ele>
        <time>2025-10-20T13:58:38.000Z</time>
      </trkpt>
      <trkpt lat="49.3349" lon="3.33348">
        <ele>177.2</ele>
        <time>2025-10-20T13:58:39.000Z</time>
      </trkpt>
      <trkpt lat="49.3349" lon="3.3335">
        <ele>177.1</ele>
        <time>2025-10-20T13:58:40.000Z</time>
      </trkpt>
      <trkpt lat="49.33491" lon="3.33352">
        <ele>177</ele>
        <time>2025-10-20T13:58:41.000Z</time>
      </trkpt>
      <trkpt lat="49.33492" lon="3.33354">
        <ele>177</ele>
        <time>2025-10-20T13:58:42.000Z</time>
      </trkpt>
      <trkpt lat="49.33492" lon="3.33355">
        <ele>176.8</ele>
        <time>2025-10-20T13:58:43.000Z</time>
      </trkpt>
      <trkpt lat="49.33493" lon="3.33356">
        <ele>176.5</ele>
        <time>2025-10-20T13:58:44.000Z</time>
      </trkpt>
      <trkpt lat="49.33493" lon="3.33358">
        <ele>176.2</ele>
        <time>2025-10-20T13:58:45.000Z</time>
      </trkpt>
      <trkpt lat="49.33493" lon="3.3336">
        <ele>175.8</ele>
        <time>2025-10-20T13:58:46.000Z</time>
      </trkpt>
      <trkpt lat="49.33493" lon="3.33361">
        <ele>175.8</ele>
        <time>2025-10-20T13:58:47.000Z</time>
      </trkpt>
      <trkpt lat="49.33494" lon="3.33363">
        <ele>175.7</ele>
        <time>2025-10-20T13:58:48.000Z</time>
      </trkpt>
      <trkpt lat="49.33494" lon="3.33364">
        <ele>175.6</ele>
        <time>2025-10-20T13:58:49.000Z</time>
      </trkpt>
      <trkpt lat="49.33494" lon="3.33365">
        <ele>175.4</ele>
        <time>2025-10-20T13:58:50.000Z</time>
      </trkpt>
      <trkpt lat="49.33494" lon="3.33366">
        <ele>175.1</ele>
        <time>2025-10-20T13:58:51.000Z</time>
      </trkpt>
      <trkpt lat="49.33494" lon="3.33367">
        <ele>174.9</ele>
        <time>2025-10-20T13:58:52.000Z</time>
      </trkpt>
      <trkpt lat="49.33495" lon="3.33369">
        <ele>174.9</ele>
        <time>2025-10-20T13:58:53.000Z</time>
      </trkpt>
      <trkpt lat="49.33496" lon="3.3337">
        <ele>175</ele>
        <time>2025-10-20T13:58:54.000Z</time>
      </trkpt>
      <trkpt lat="49.33496" lon="3.33371">
        <ele>175</ele>
        <time>2025-10-20T13:58:55.000Z</time>
      </trkpt>
      <trkpt lat="49.33497" lon="3.33372">
        <ele>175.2</ele>
        <time>2025-10-20T13:58:56.000Z</time>
      </trkpt>
      <trkpt lat="49.33498" lon="3.33373">
        <ele>175.5</ele>
        <time>2025-10-20T13:58:57.000Z</time>
      </trkpt>
      <trkpt lat="49.33499" lon="3.33374">
        <ele>175.6</ele>
        <time>2025-10-20T13:58:58.000Z</time>
      </trkpt>
      <trkpt lat="49.335" lon="3.33375">
        <ele>175.8</ele>
        <time>2025-10-20T13:58:59.000Z</time>
      </trkpt>
      <trkpt lat="49.33501" lon="3.33376">
        <ele>176</ele>
        <time>2025-10-20T13:59:00.000Z</time>
      </trkpt>
      <trkpt lat="49.33502" lon="3.33377">
        <ele>175.9</ele>
        <time>2025-10-20T13:59:01.000Z</time>
      </trkpt>
      <trkpt lat="49.33503" lon="3.33378">
        <ele>175.9</ele>
        <time>2025-10-20T13:59:02.000Z</time>
      </trkpt>
      <trkpt lat="49.33504" lon="3.33379">
        <ele>176.2</ele>
        <time>2025-10-20T13:59:03.000Z</time>
      </trkpt>
      <trkpt lat="49.33505" lon="3.33381">
        <ele>176.6</ele>
        <time>2025-10-20T13:59:04.000Z</time>
      </trkpt>
      <trkpt lat="49.33506" lon="3.33382">
        <ele>176.8</ele>
        <time>2025-10-20T13:59:05.000Z</time>
      </trkpt>
      <trkpt lat="49.33507" lon="3.33383">
        <ele>177</ele>
        <time>2025-10-20T13:59:06.000Z</time>
      </trkpt>
      <trkpt lat="49.33508" lon="3.33385">
        <ele>177.2</ele>
        <time>2025-10-20T13:59:07.000Z</time>
      </trkpt>
      <trkpt lat="49.33509" lon="3.33387">
        <ele>177.3</ele>
        <time>2025-10-20T13:59:08.000Z</time>
      </trkpt>
      <trkpt lat="49.33509" lon="3.33389">
        <ele>177.5</ele>
        <time>2025-10-20T13:59:09.000Z</time>
      </trkpt>
      <trkpt lat="49.3351" lon="3.33391">
        <ele>177.7</ele>
        <time>2025-10-20T13:59:10.000Z</time>
      </trkpt>
      <trkpt lat="49.33511" lon="3.33393">
        <ele>178.1</ele>
        <time>2025-10-20T13:59:11.000Z</time>
      </trkpt>
      <trkpt lat="49.33512" lon="3.33394">
        <ele>178.4</ele>
        <time>2025-10-20T13:59:12.000Z</time>
      </trkpt>
      <trkpt lat="49.33512" lon="3.33396">
        <ele>178.6</ele>
        <time>2025-10-20T13:59:13.000Z</time>
      </trkpt>
      <trkpt lat="49.33513" lon="3.33397">
        <ele>178.6</ele>
        <time>2025-10-20T13:59:14.000Z</time>
      </trkpt>
      <trkpt lat="49.33513" lon="3.33398">
        <ele>178.8</ele>
        <time>2025-10-20T13:59:15.000Z</time>
      </trkpt>
      <trkpt lat="49.33513" lon="3.334">
        <ele>178.8</ele>
        <time>2025-10-20T13:59:16.000Z</time>
      </trkpt>
      <trkpt lat="49.33513" lon="3.33402">
        <ele>179.2</ele>
        <time>2025-10-20T13:59:17.000Z</time>
      </trkpt>
      <trkpt lat="49.33514" lon="3.33405">
        <ele>179.2</ele>
        <time>2025-10-20T13:59:18.000Z</time>
      </trkpt>
      <trkpt lat="49.33515" lon="3.33407">
        <ele>179.5</ele>
        <time>2025-10-20T13:59:19.000Z</time>
      </trkpt>
      <trkpt lat="49.33515" lon="3.33409">
        <ele>179.9</ele>
        <time>2025-10-20T13:59:20.000Z</time>
      </trkpt>
      <trkpt lat="49.33515" lon="3.3341">
        <ele>180.2</ele>
        <time>2025-10-20T13:59:21.000Z</time>
      </trkpt>
      <trkpt lat="49.33515" lon="3.33411">
        <ele>180.6</ele>
        <time>2025-10-20T13:59:22.000Z</time>
      </trkpt>
      <trkpt lat="49.33515" lon="3.33412">
        <ele>180.8</ele>
        <time>2025-10-20T13:59:23.000Z</time>
      </trkpt>
      <trkpt lat="49.33515" lon="3.33412">
        <ele>181.1</ele>
        <time>2025-10-20T13:59:24.000Z</time>
      </trkpt>
      <trkpt lat="49.33515" lon="3.33413">
        <ele>181.3</ele>
        <time>2025-10-20T13:59:25.000Z</time>
      </trkpt>
      <trkpt lat="49.33514" lon="3.33414">
        <ele>181.6</ele>
        <time>2025-10-20T13:59:26.000Z</time>
      </trkpt>
      <trkpt lat="49.33514" lon="3.33414">
        <ele>182</ele>
        <time>2025-10-20T13:59:27.000Z</time>
      </trkpt>
      <trkpt lat="49.33514" lon="3.33415">
        <ele>182.4</ele>
        <time>2025-10-20T13:59:28.000Z</time>
      </trkpt>
      <trkpt lat="49.33514" lon="3.33416">
        <ele>182.5</ele>
        <time>2025-10-20T13:59:29.000Z</time>
      </trkpt>
      <trkpt lat="49.33514" lon="3.33417">
        <ele>182.6</ele>
        <time>2025-10-20T13:59:30.000Z</time>
      </trkpt>
      <trkpt lat="49.33513" lon="3.33418">
        <ele>182.6</ele>
        <time>2025-10-20T13:59:31.000Z</time>
      </trkpt>
      <trkpt lat="49.33512" lon="3.3342">
        <ele>182.7</ele>
        <time>2025-10-20T13:59:32.000Z</time>
      </trkpt>
      <trkpt lat="49.33512" lon="3.33421">
        <ele>182.9</ele>
        <time>2025-10-20T13:59:33.000Z</time>
      </trkpt>
      <trkpt lat="49.33511" lon="3.33422">
        <ele>183.6</ele>
        <time>2025-10-20T13:59:34.000Z</time>
      </trkpt>
      <trkpt lat="49.33511" lon="3.33424">
        <ele>184.1</ele>
        <time>2025-10-20T13:59:35.000Z</time>
      </trkpt>
      <trkpt lat="49.33511" lon="3.33427">
        <ele>184.3</ele>
        <time>2025-10-20T13:59:36.000Z</time>
      </trkpt>
      <trkpt lat="49.33511" lon="3.33429">
        <ele>184.6</ele>
        <time>2025-10-20T13:59:37.000Z</time>
      </trkpt>
      <trkpt lat="49.33511" lon="3.33431">
        <ele>184.7</ele>
        <time>2025-10-20T13:59:38.000Z</time>
      </trkpt>
      <trkpt lat="49.3351" lon="3.33432">
        <ele>184.8</ele>
        <time>2025-10-20T13:59:39.000Z</time>
      </trkpt>
      <trkpt lat="49.33511" lon="3.33434">
        <ele>184.6</ele>
        <time>2025-10-20T13:59:40.000Z</time>
      </trkpt>
      <trkpt lat="49.33511" lon="3.33436">
        <ele>184.4</ele>
        <time>2025-10-20T13:59:41.000Z</time>
      </trkpt>
      <trkpt lat="49.3351" lon="3.33438">
        <ele>184.4</ele>
        <time>2025-10-20T13:59:42.000Z</time>
      </trkpt>
      <trkpt lat="49.3351" lon="3.3344">
        <ele>184.3</ele>
        <time>2025-10-20T13:59:43.000Z</time>
      </trkpt>
      <trkpt lat="49.3351" lon="3.33441">
        <ele>184.1</ele>
        <time>2025-10-20T13:59:44.000Z</time>
      </trkpt>
      <trkpt lat="49.33509" lon="3.33443">
        <ele>183.9</ele>
        <time>2025-10-20T13:59:45.000Z</time>
      </trkpt>
      <trkpt lat="49.33509" lon="3.33445">
        <ele>183.8</ele>
        <time>2025-10-20T13:59:46.000Z</time>
      </trkpt>
      <trkpt lat="49.33509" lon="3.33447">
        <ele>183.7</ele>
        <time>2025-10-20T13:59:47.000Z</time>
      </trkpt>
      <trkpt lat="49.33509" lon="3.33449">
        <ele>183.7</ele>
        <time>2025-10-20T13:59:48.000Z</time>
      </trkpt>
      <trkpt lat="49.33509" lon="3.33452">
        <ele>183.6</ele>
        <time>2025-10-20T13:59:49.000Z</time>
      </trkpt>
      <trkpt lat="49.33509" lon="3.33455">
        <ele>183.5</ele>
        <time>2025-10-20T13:59:50.000Z</time>
      </trkpt>
      <trkpt lat="49.33509" lon="3.33457">
        <ele>183.3</ele>
        <time>2025-10-20T13:59:51.000Z</time>
      </trkpt>
      <trkpt lat="49.33509" lon="3.3346">
        <ele>182.9</ele>
        <time>2025-10-20T13:59:52.000Z</time>
      </trkpt>
      <trkpt lat="49.33509" lon="3.33463">
        <ele>182.5</ele>
        <time>2025-10-20T13:59:53.000Z</time>
      </trkpt>
      <trkpt lat="49.33509" lon="3.33465">
        <ele>182.2</ele>
        <time>2025-10-20T13:59:54.000Z</time>
      </trkpt>
      <trkpt lat="49.33509" lon="3.33468">
        <ele>181.8</ele>
        <time>2025-10-20T13:59:55.000Z</time>
      </trkpt>
      <trkpt lat="49.33509" lon="3.3347">
        <ele>181.6</ele>
        <time>2025-10-20T13:59:56.000Z</time>
      </trkpt>
      <trkpt lat="49.33509" lon="3.33472">
        <ele>181.3</ele>
        <time>2025-10-20T13:59:57.000Z</time>
      </trkpt>
      <trkpt lat="49.33509" lon="3.33474">
        <ele>181.2</ele>
        <time>2025-10-20T13:59:58.000Z</time>
      </trkpt>
      <trkpt lat="49.33509" lon="3.33476">
        <ele>180.9</ele>
        <time>2025-10-20T13:59:59.000Z</time>
      </trkpt>
      <trkpt lat="49.33509" lon="3.33478">
        <ele>180.6</ele>
        <time>2025-10-20T14:00:00.000Z</time>
      </trkpt>
      <trkpt lat="49.33509" lon="3.3348">
        <ele>180.5</ele>
        <time>2025-10-20T14:00:01.000Z</time>
      </trkpt>
      <trkpt lat="49.33509" lon="3.33481">
        <ele>179.7</ele>
        <time>2025-10-20T14:00:02.000Z</time>
      </trkpt>
      <trkpt lat="49.3351" lon="3.33483">
        <ele>179.3</ele>
        <time>2025-10-20T14:00:03.000Z</time>
      </trkpt>
      <trkpt lat="49.3351" lon="3.33485">
        <ele>179</ele>
        <time>2025-10-20T14:00:04.000Z</time>
      </trkpt>
      <trkpt lat="49.3351" lon="3.33486">
        <ele>178.5</ele>
        <time>2025-10-20T14:00:05.000Z</time>
      </trkpt>
      <trkpt lat="49.33509" lon="3.33488">
        <ele>178.3</ele>
        <time>2025-10-20T14:00:06.000Z</time>
      </trkpt>
      <trkpt lat="49.33509" lon="3.3349">
        <ele>178.6</ele>
        <time>2025-10-20T14:00:07.000Z</time>
      </trkpt>
      <trkpt lat="49.33509" lon="3.33492">
        <ele>179</ele>
        <time>2025-10-20T14:00:08.000Z</time>
      </trkpt>
      <trkpt lat="49.33509" lon="3.33493">
        <ele>179.1</ele>
        <time>2025-10-20T14:00:09.000Z</time>
      </trkpt>
      <trkpt lat="49.33509" lon="3.33496">
        <ele>179.3</ele>
        <time>2025-10-20T14:00:10.000Z</time>
      </trkpt>
      <trkpt lat="49.33509" lon="3.33498">
        <ele>179.5</ele>
        <time>2025-10-20T14:00:11.000Z</time>
      </trkpt>
      <trkpt lat="49.33509" lon="3.335">
        <ele>179.4</ele>
        <time>2025-10-20T14:00:12.000Z</time>
      </trkpt>
      <trkpt lat="49.33508" lon="3.33502">
        <ele>179.4</ele>
        <time>2025-10-20T14:00:13.000Z</time>
      </trkpt>
      <trkpt lat="49.33508" lon="3.33504">
        <ele>179.4</ele>
        <time>2025-10-20T14:00:14.000Z</time>
      </trkpt>
      <trkpt lat="49.33508" lon="3.33506">
        <ele>179.1</ele>
        <time>2025-10-20T14:00:15.000Z</time>
      </trkpt>
      <trkpt lat="49.33507" lon="3.33508">
        <ele>179.1</ele>
        <time>2025-10-20T14:00:16.000Z</time>
      </trkpt>
      <trkpt lat="49.33507" lon="3.33509">
        <ele>179.1</ele>
        <time>2025-10-20T14:00:17.000Z</time>
      </trkpt>
      <trkpt lat="49.33507" lon="3.33511">
        <ele>179</ele>
        <time>2025-10-20T14:00:18.000Z</time>
      </trkpt>
      <trkpt lat="49.33507" lon="3.33513">
        <ele>179</ele>
        <time>2025-10-20T14:00:19.000Z</time>
      </trkpt>
      <trkpt lat="49.33507" lon="3.33516">
        <ele>178.9</ele>
        <time>2025-10-20T14:00:20.000Z</time>
      </trkpt>
      <trkpt lat="49.33507" lon="3.33518">
        <ele>178.8</ele>
        <time>2025-10-20T14:00:21.000Z</time>
      </trkpt>
      <trkpt lat="49.33507" lon="3.3352">
        <ele>178.6</ele>
        <time>2025-10-20T14:00:22.000Z</time>
      </trkpt>
      <trkpt lat="49.33507" lon="3.33522">
        <ele>178.5</ele>
        <time>2025-10-20T14:00:23.000Z</time>
      </trkpt>
      <trkpt lat="49.33507" lon="3.33524">
        <ele>178.4</ele>
        <time>2025-10-20T14:00:24.000Z</time>
      </trkpt>
      <trkpt lat="49.33507" lon="3.33525">
        <ele>178.4</ele>
        <time>2025-10-20T14:00:25.000Z</time>
      </trkpt>
      <trkpt lat="49.33506" lon="3.33527">
        <ele>178.3</ele>
        <time>2025-10-20T14:00:26.000Z</time>
      </trkpt>
      <trkpt lat="49.33506" lon="3.33529">
        <ele>177.8</ele>
        <time>2025-10-20T14:00:27.000Z</time>
      </trkpt>
      <trkpt lat="49.33506" lon="3.3353">
        <ele>177.8</ele>
        <time>2025-10-20T14:00:28.000Z</time>
      </trkpt>
      <trkpt lat="49.33505" lon="3.33532">
        <ele>177.7</ele>
        <time>2025-10-20T14:00:29.000Z</time>
      </trkpt>
      <trkpt lat="49.33505" lon="3.33534">
        <ele>177.6</ele>
        <time>2025-10-20T14:00:30.000Z</time>
      </trkpt>
      <trkpt lat="49.33504" lon="3.33535">
        <ele>177.1</ele>
        <time>2025-10-20T14:00:31.000Z</time>
      </trkpt>
      <trkpt lat="49.33504" lon="3.33536">
        <ele>177.1</ele>
        <time>2025-10-20T14:00:32.000Z</time>
      </trkpt>
      <trkpt lat="49.33504" lon="3.33539">
        <ele>176.9</ele>
        <time>2025-10-20T14:00:33.000Z</time>
      </trkpt>
      <trkpt lat="49.33504" lon="3.33541">
        <ele>176.6</ele>
        <time>2025-10-20T14:00:34.000Z</time>
      </trkpt>
      <trkpt lat="49.33504" lon="3.33542">
        <ele>176.6</ele>
        <time>2025-10-20T14:00:35.000Z</time>
      </trkpt>
      <trkpt lat="49.33504" lon="3.33544">
        <ele>176.5</ele>
        <time>2025-10-20T14:00:36.000Z</time>
      </trkpt>
      <trkpt lat="49.33503" lon="3.33546">
        <ele>176.5</ele>
        <time>2025-10-20T14:00:37.000Z</time>
      </trkpt>
      <trkpt lat="49.33504" lon="3.33548">
        <ele>176.5</ele>
        <time>2025-10-20T14:00:38.000Z</time>
      </trkpt>
      <trkpt lat="49.33503" lon="3.3355">
        <ele>176.4</ele>
        <time>2025-10-20T14:00:39.000Z</time>
      </trkpt>
      <trkpt lat="49.33503" lon="3.33552">
        <ele>176.3</ele>
        <time>2025-10-20T14:00:40.000Z</time>
      </trkpt>
      <trkpt lat="49.33503" lon="3.33554">
        <ele>176.1</ele>
        <time>2025-10-20T14:00:41.000Z</time>
      </trkpt>
      <trkpt lat="49.33503" lon="3.33557">
        <ele>176</ele>
        <time>2025-10-20T14:00:42.000Z</time>
      </trkpt>
      <trkpt lat="49.33503" lon="3.33559">
        <ele>175.7</ele>
        <time>2025-10-20T14:00:43.000Z</time>
      </trkpt>
      <trkpt lat="49.33503" lon="3.33561">
        <ele>175.6</ele>
        <time>2025-10-20T14:00:44.000Z</time>
      </trkpt>
      <trkpt lat="49.33503" lon="3.33564">
        <ele>175.4</ele>
        <time>2025-10-20T14:00:45.000Z</time>
      </trkpt>
      <trkpt lat="49.33503" lon="3.33567">
        <ele>175.1</ele>
        <time>2025-10-20T14:00:46.000Z</time>
      </trkpt>
      <trkpt lat="49.33503" lon="3.3357">
        <ele>174.5</ele>
        <time>2025-10-20T14:00:47.000Z</time>
      </trkpt>
      <trkpt lat="49.33503" lon="3.33573">
        <ele>173.9</ele>
        <time>2025-10-20T14:00:48.000Z</time>
      </trkpt>
      <trkpt lat="49.33503" lon="3.33576">
        <ele>173.3</ele>
        <time>2025-10-20T14:00:49.000Z</time>
      </trkpt>
      <trkpt lat="49.33503" lon="3.33578">
        <ele>172.3</ele>
        <time>2025-10-20T14:00:50.000Z</time>
      </trkpt>
      <trkpt lat="49.33503" lon="3.33581">
        <ele>171.6</ele>
        <time>2025-10-20T14:00:51.000Z</time>
      </trkpt>
      <trkpt lat="49.33503" lon="3.33583">
        <ele>170.9</ele>
        <time>2025-10-20T14:00:52.000Z</time>
      </trkpt>
      <trkpt lat="49.33504" lon="3.33585">
        <ele>170.4</ele>
        <time>2025-10-20T14:00:53.000Z</time>
      </trkpt>
      <trkpt lat="49.33504" lon="3.33588">
        <ele>169.7</ele>
        <time>2025-10-20T14:00:54.000Z</time>
      </trkpt>
      <trkpt lat="49.33504" lon="3.33591">
        <ele>169.1</ele>
        <time>2025-10-20T14:00:55.000Z</time>
      </trkpt>
      <trkpt lat="49.33503" lon="3.33593">
        <ele>168.6</ele>
        <time>2025-10-20T14:00:56.000Z</time>
      </trkpt>
      <trkpt lat="49.33503" lon="3.33596">
        <ele>168.3</ele>
        <time>2025-10-20T14:00:57.000Z</time>
      </trkpt>
      <trkpt lat="49.33502" lon="3.33598">
        <ele>168.1</ele>
        <time>2025-10-20T14:00:58.000Z</time>
      </trkpt>
      <trkpt lat="49.33502" lon="3.336">
        <ele>167.8</ele>
        <time>2025-10-20T14:00:59.000Z</time>
      </trkpt>
      <trkpt lat="49.33502" lon="3.33602">
        <ele>167.1</ele>
        <time>2025-10-20T14:01:00.000Z</time>
      </trkpt>
      <trkpt lat="49.33502" lon="3.33604">
        <ele>166.6</ele>
        <time>2025-10-20T14:01:01.000Z</time>
      </trkpt>
      <trkpt lat="49.33502" lon="3.33605">
        <ele>166.3</ele>
        <time>2025-10-20T14:01:02.000Z</time>
      </trkpt>
      <trkpt lat="49.33502" lon="3.33608">
        <ele>166</ele>
        <time>2025-10-20T14:01:03.000Z</time>
      </trkpt>
      <trkpt lat="49.33502" lon="3.3361">
        <ele>165.6</ele>
        <time>2025-10-20T14:01:04.000Z</time>
      </trkpt>
      <trkpt lat="49.33502" lon="3.33613">
        <ele>164.9</ele>
        <time>2025-10-20T14:01:05.000Z</time>
      </trkpt>
      <trkpt lat="49.33502" lon="3.33615">
        <ele>164.5</ele>
        <time>2025-10-20T14:01:06.000Z</time>
      </trkpt>
      <trkpt lat="49.33503" lon="3.33617">
        <ele>164</ele>
        <time>2025-10-20T14:01:07.000Z</time>
      </trkpt>
      <trkpt lat="49.33503" lon="3.33619">
        <ele>163.7</ele>
        <time>2025-10-20T14:01:08.000Z</time>
      </trkpt>
      <trkpt lat="49.33503" lon="3.33621">
        <ele>163.2</ele>
        <time>2025-10-20T14:01:09.000Z</time>
      </trkpt>
      <trkpt lat="49.33503" lon="3.33623">
        <ele>162.7</ele>
        <time>2025-10-20T14:01:10.000Z</time>
      </trkpt>
      <trkpt lat="49.33503" lon="3.33626">
        <ele>162.1</ele>
        <time>2025-10-20T14:01:11.000Z</time>
      </trkpt>
      <trkpt lat="49.33502" lon="3.33628">
        <ele>161.6</ele>
        <time>2025-10-20T14:01:12.000Z</time>
      </trkpt>
      <trkpt lat="49.33502" lon="3.3363">
        <ele>161</ele>
        <time>2025-10-20T14:01:13.000Z</time>
      </trkpt>
      <trkpt lat="49.33502" lon="3.33633">
        <ele>160.4</ele>
        <time>2025-10-20T14:01:14.000Z</time>
      </trkpt>
      <trkpt lat="49.33502" lon="3.33634">
        <ele>160.2</ele>
        <time>2025-10-20T14:01:15.000Z</time>
      </trkpt>
      <trkpt lat="49.33502" lon="3.33636">
        <ele>159.9</ele>
        <time>2025-10-20T14:01:16.000Z</time>
      </trkpt>
      <trkpt lat="49.33502" lon="3.33639">
        <ele>159.7</ele>
        <time>2025-10-20T14:01:17.000Z</time>
      </trkpt>
      <trkpt lat="49.33502" lon="3.33641">
        <ele>159.5</ele>
        <time>2025-10-20T14:01:18.000Z</time>
      </trkpt>
      <trkpt lat="49.33502" lon="3.33643">
        <ele>159.3</ele>
        <time>2025-10-20T14:01:19.000Z</time>
      </trkpt>
      <trkpt lat="49.33502" lon="3.33646">
        <ele>159</ele>
        <time>2025-10-20T14:01:20.000Z</time>
      </trkpt>
      <trkpt lat="49.33502" lon="3.33648">
        <ele>158.8</ele>
        <time>2025-10-20T14:01:21.000Z</time>
      </trkpt>
      <trkpt lat="49.33502" lon="3.33649">
        <ele>158.6</ele>
        <time>2025-10-20T14:01:22.000Z</time>
      </trkpt>
      <trkpt lat="49.33502" lon="3.3365">
        <ele>158.6</ele>
        <time>2025-10-20T14:01:23.000Z</time>
      </trkpt>
      <trkpt lat="49.33502" lon="3.33651">
        <ele>158.2</ele>
        <time>2025-10-20T14:01:24.000Z</time>
      </trkpt>
      <trkpt lat="49.33502" lon="3.33652">
        <ele>157.9</ele>
        <time>2025-10-20T14:01:25.000Z</time>
      </trkpt>
      <trkpt lat="49.33502" lon="3.33653">
        <ele>157.9</ele>
        <time>2025-10-20T14:01:26.000Z</time>
      </trkpt>
      <trkpt lat="49.33501" lon="3.33654">
        <ele>157.8</ele>
        <time>2025-10-20T14:01:27.000Z</time>
      </trkpt>
      <trkpt lat="49.33501" lon="3.33655">
        <ele>157.6</ele>
        <time>2025-10-20T14:01:28.000Z</time>
      </trkpt>
      <trkpt lat="49.33501" lon="3.33656">
        <ele>157.3</ele>
        <time>2025-10-20T14:01:29.000Z</time>
      </trkpt>
      <trkpt lat="49.33501" lon="3.33657">
        <ele>157.1</ele>
        <time>2025-10-20T14:01:30.000Z</time>
      </trkpt>
      <trkpt lat="49.335" lon="3.33658">
        <ele>156.9</ele>
        <time>2025-10-20T14:01:31.000Z</time>
      </trkpt>
      <trkpt lat="49.335" lon="3.33658">
        <ele>156.8</ele>
        <time>2025-10-20T14:01:32.000Z</time>
      </trkpt>
      <trkpt lat="49.335" lon="3.33659">
        <ele>156.7</ele>
        <time>2025-10-20T14:01:33.000Z</time>
      </trkpt>
      <trkpt lat="49.33499" lon="3.3366">
        <ele>156.5</ele>
        <time>2025-10-20T14:01:34.000Z</time>
      </trkpt>
      <trkpt lat="49.33499" lon="3.3366">
        <ele>156.6</ele>
        <time>2025-10-20T14:01:35.000Z</time>
      </trkpt>
      <trkpt lat="49.33498" lon="3.3366">
        <ele>156.7</ele>
        <time>2025-10-20T14:01:36.000Z</time>
      </trkpt>
      <trkpt lat="49.33498" lon="3.3366">
        <ele>156.7</ele>
        <time>2025-10-20T14:01:37.000Z</time>
      </trkpt>
      <trkpt lat="49.33497" lon="3.3366">
        <ele>156.8</ele>
        <time>2025-10-20T14:01:38.000Z</time>
      </trkpt>
      <trkpt lat="49.33496" lon="3.3366">
        <ele>156.7</ele>
        <time>2025-10-20T14:01:39.000Z</time>
      </trkpt>
      <trkpt lat="49.33495" lon="3.3366">
        <ele>156.7</ele>
        <time>2025-10-20T14:01:40.000Z</time>
      </trkpt>
      <trkpt lat="49.33493" lon="3.3366">
        <ele>156.7</ele>
        <time>2025-10-20T14:01:41.000Z</time>
      </trkpt>
      <trkpt lat="49.33492" lon="3.33661">
        <ele>156.9</ele>
        <time>2025-10-20T14:01:42.000Z</time>
      </trkpt>
      <trkpt lat="49.33492" lon="3.33662">
        <ele>157</ele>
        <time>2025-10-20T14:01:43.000Z</time>
      </trkpt>
      <trkpt lat="49.33491" lon="3.33663">
        <ele>157.4</ele>
        <time>2025-10-20T14:01:44.000Z</time>
      </trkpt>
      <trkpt lat="49.3349" lon="3.33664">
        <ele>158.1</ele>
        <time>2025-10-20T14:01:45.000Z</time>
      </trkpt>
      <trkpt lat="49.3349" lon="3.33666">
        <ele>158.7</ele>
        <time>2025-10-20T14:01:46.000Z</time>
      </trkpt>
      <trkpt lat="49.33489" lon="3.33667">
        <ele>159.4</ele>
        <time>2025-10-20T14:01:47.000Z</time>
      </trkpt>
      <trkpt lat="49.33488" lon="3.33668">
        <ele>160.2</ele>
        <time>2025-10-20T14:01:48.000Z</time>
      </trkpt>
      <trkpt lat="49.33488" lon="3.33669">
        <ele>160.7</ele>
        <time>2025-10-20T14:01:49.000Z</time>
      </trkpt>
      <trkpt lat="49.33487" lon="3.33671">
        <ele>161.2</ele>
        <time>2025-10-20T14:01:50.000Z</time>
      </trkpt>
      <trkpt lat="49.33487" lon="3.33672">
        <ele>161.8</ele>
        <time>2025-10-20T14:01:51.000Z</time>
      </trkpt>
      <trkpt lat="49.33486" lon="3.33673">
        <ele>162.5</ele>
        <time>2025-10-20T14:01:52.000Z</time>
      </trkpt>
      <trkpt lat="49.33486" lon="3.33674">
        <ele>163.5</ele>
        <time>2025-10-20T14:01:53.000Z</time>
      </trkpt>
      <trkpt lat="49.33486" lon="3.33675">
        <ele>164.1</ele>
        <time>2025-10-20T14:01:54.000Z</time>
      </trkpt>
      <trkpt lat="49.33486" lon="3.33676">
        <ele>164.8</ele>
        <time>2025-10-20T14:01:55.000Z</time>
      </trkpt>
      <trkpt lat="49.33485" lon="3.33677">
        <ele>165.5</ele>
        <time>2025-10-20T14:01:56.000Z</time>
      </trkpt>
      <trkpt lat="49.33485" lon="3.33678">
        <ele>166.1</ele>
        <time>2025-10-20T14:01:57.000Z</time>
      </trkpt>
      <trkpt lat="49.33485" lon="3.33678">
        <ele>167</ele>
        <time>2025-10-20T14:01:58.000Z</time>
      </trkpt>
      <trkpt lat="49.33484" lon="3.33679">
        <ele>167.8</ele>
        <time>2025-10-20T14:01:59.000Z</time>
      </trkpt>
      <trkpt lat="49.33483" lon="3.3368">
        <ele>168.2</ele>
        <time>2025-10-20T14:02:00.000Z</time>
      </trkpt>
      <trkpt lat="49.33482" lon="3.3368">
        <ele>168.9</ele>
        <time>2025-10-20T14:02:01.000Z</time>
      </trkpt>
      <trkpt lat="49.33481" lon="3.33682">
        <ele>169.2</ele>
        <time>2025-10-20T14:02:02.000Z</time>
      </trkpt>
      <trkpt lat="49.3348" lon="3.33684">
        <ele>169.5</ele>
        <time>2025-10-20T14:02:03.000Z</time>
      </trkpt>
      <trkpt lat="49.33479" lon="3.33685">
        <ele>169.9</ele>
        <time>2025-10-20T14:02:04.000Z</time>
      </trkpt>
      <trkpt lat="49.33478" lon="3.33686">
        <ele>170.1</ele>
        <time>2025-10-20T14:02:05.000Z</time>
      </trkpt>
      <trkpt lat="49.33477" lon="3.33688">
        <ele>169.9</ele>
        <time>2025-10-20T14:02:06.000Z</time>
      </trkpt>
      <trkpt lat="49.33476" lon="3.33689">
        <ele>170.2</ele>
        <time>2025-10-20T14:02:07.000Z</time>
      </trkpt>
      <trkpt lat="49.33475" lon="3.33689">
        <ele>170.3</ele>
        <time>2025-10-20T14:02:08.000Z</time>
      </trkpt>
      <trkpt lat="49.33473" lon="3.3369">
        <ele>170.4</ele>
        <time>2025-10-20T14:02:09.000Z</time>
      </trkpt>
      <trkpt lat="49.33472" lon="3.3369">
        <ele>170.2</ele>
        <time>2025-10-20T14:02:10.000Z</time>
      </trkpt>
      <trkpt lat="49.33471" lon="3.33691">
        <ele>169.8</ele>
        <time>2025-10-20T14:02:11.000Z</time>
      </trkpt>
      <trkpt lat="49.33471" lon="3.33691">
        <ele>169.3</ele>
        <time>2025-10-20T14:02:12.000Z</time>
      </trkpt>
      <trkpt lat="49.33469" lon="3.33692">
        <ele>169</ele>
        <time>2025-10-20T14:02:13.000Z</time>
      </trkpt>
      <trkpt lat="49.33469" lon="3.33692">
        <ele>168.7</ele>
        <time>2025-10-20T14:02:14.000Z</time>
      </trkpt>
      <trkpt lat="49.33467" lon="3.33693">
        <ele>168.7</ele>
        <time>2025-10-20T14:02:15.000Z</time>
      </trkpt>
      <trkpt lat="49.33466" lon="3.33693">
        <ele>169</ele>
        <time>2025-10-20T14:02:16.000Z</time>
      </trkpt>
      <trkpt lat="49.33465" lon="3.33694">
        <ele>169.1</ele>
        <time>2025-10-20T14:02:17.000Z</time>
      </trkpt>
      <trkpt lat="49.33463" lon="3.33695">
        <ele>168.9</ele>
        <time>2025-10-20T14:02:18.000Z</time>
      </trkpt>
      <trkpt lat="49.33462" lon="3.33696">
        <ele>169</ele>
        <time>2025-10-20T14:02:19.000Z</time>
      </trkpt>
      <trkpt lat="49.3346" lon="3.33697">
        <ele>169.1</ele>
        <time>2025-10-20T14:02:20.000Z</time>
      </trkpt>
      <trkpt lat="49.33459" lon="3.33698">
        <ele>168.8</ele>
        <time>2025-10-20T14:02:21.000Z</time>
      </trkpt>
      <trkpt lat="49.33458" lon="3.33699">
        <ele>168.4</ele>
        <time>2025-10-20T14:02:22.000Z</time>
      </trkpt>
      <trkpt lat="49.33458" lon="3.33699">
        <ele>168</ele>
        <time>2025-10-20T14:02:23.000Z</time>
      </trkpt>
      <trkpt lat="49.33457" lon="3.337">
        <ele>167.5</ele>
        <time>2025-10-20T14:02:24.000Z</time>
      </trkpt>
      <trkpt lat="49.33456" lon="3.33701">
        <ele>167.4</ele>
        <time>2025-10-20T14:02:25.000Z</time>
      </trkpt>
      <trkpt lat="49.33457" lon="3.33701">
        <ele>167.7</ele>
        <time>2025-10-20T14:02:26.000Z</time>
      </trkpt>
      <trkpt lat="49.33457" lon="3.33701">
        <ele>167.6</ele>
        <time>2025-10-20T14:02:27.000Z</time>
      </trkpt>
      <trkpt lat="49.33456" lon="3.33702">
        <ele>167.7</ele>
        <time>2025-10-20T14:02:28.000Z</time>
      </trkpt>
      <trkpt lat="49.33456" lon="3.33702">
        <ele>167.8</ele>
        <time>2025-10-20T14:02:29.000Z</time>
      </trkpt>
      <trkpt lat="49.33456" lon="3.33702">
        <ele>167.9</ele>
        <time>2025-10-20T14:02:30.000Z</time>
      </trkpt>
      <trkpt lat="49.33457" lon="3.33702">
        <ele>167.8</ele>
        <time>2025-10-20T14:02:31.000Z</time>
      </trkpt>
      <trkpt lat="49.33456" lon="3.33703">
        <ele>167.6</ele>
        <time>2025-10-20T14:02:32.000Z</time>
      </trkpt>
      <trkpt lat="49.33456" lon="3.33704">
        <ele>167.7</ele>
        <time>2025-10-20T14:02:33.000Z</time>
      </trkpt>
      <trkpt lat="49.33456" lon="3.33704">
        <ele>168.1</ele>
        <time>2025-10-20T14:02:34.000Z</time>
      </trkpt>
      <trkpt lat="49.33456" lon="3.33705">
        <ele>168.6</ele>
        <time>2025-10-20T14:02:35.000Z</time>
      </trkpt>
      <trkpt lat="49.33457" lon="3.33706">
        <ele>168.9</ele>
        <time>2025-10-20T14:02:36.000Z</time>
      </trkpt>
      <trkpt lat="49.33456" lon="3.33706">
        <ele>169.1</ele>
        <time>2025-10-20T14:02:37.000Z</time>
      </trkpt>
      <trkpt lat="49.33456" lon="3.33707">
        <ele>168.6</ele>
        <time>2025-10-20T14:02:38.000Z</time>
      </trkpt>
      <trkpt lat="49.33455" lon="3.33708">
        <ele>168.3</ele>
        <time>2025-10-20T14:02:39.000Z</time>
      </trkpt>
      <trkpt lat="49.33455" lon="3.33709">
        <ele>168.3</ele>
        <time>2025-10-20T14:02:40.000Z</time>
      </trkpt>
      <trkpt lat="49.33454" lon="3.3371">
        <ele>168.3</ele>
        <time>2025-10-20T14:02:41.000Z</time>
      </trkpt>
      <trkpt lat="49.33453" lon="3.33711">
        <ele>168.3</ele>
        <time>2025-10-20T14:02:42.000Z</time>
      </trkpt>
      <trkpt lat="49.33453" lon="3.33712">
        <ele>167.9</ele>
        <time>2025-10-20T14:02:43.000Z</time>
      </trkpt>
      <trkpt lat="49.33452" lon="3.33713">
        <ele>167.8</ele>
        <time>2025-10-20T14:02:44.000Z</time>
      </trkpt>
      <trkpt lat="49.33452" lon="3.33714">
        <ele>167.7</ele>
        <time>2025-10-20T14:02:45.000Z</time>
      </trkpt>
      <trkpt lat="49.33452" lon="3.33715">
        <ele>167.5</ele>
        <time>2025-10-20T14:02:46.000Z</time>
      </trkpt>
      <trkpt lat="49.33452" lon="3.33715">
        <ele>167</ele>
        <time>2025-10-20T14:02:47.000Z</time>
      </trkpt>
      <trkpt lat="49.33452" lon="3.33716">
        <ele>166.8</ele>
        <time>2025-10-20T14:02:48.000Z</time>
      </trkpt>
      <trkpt lat="49.33452" lon="3.33716">
        <ele>166.5</ele>
        <time>2025-10-20T14:02:49.000Z</time>
      </trkpt>
      <trkpt lat="49.33452" lon="3.33716">
        <ele>166.5</ele>
        <time>2025-10-20T14:02:50.000Z</time>
      </trkpt>
      <trkpt lat="49.33452" lon="3.33717">
        <ele>166.5</ele>
        <time>2025-10-20T14:02:51.000Z</time>
      </trkpt>
      <trkpt lat="49.33452" lon="3.33717">
        <ele>166.5</ele>
        <time>2025-10-20T14:02:52.000Z</time>
      </trkpt>
      <trkpt lat="49.33452" lon="3.33717">
        <ele>166.5</ele>
        <time>2025-10-20T14:02:53.000Z</time>
      </trkpt>
      <trkpt lat="49.33452" lon="3.33717">
        <ele>166.5</ele>
        <time>2025-10-20T14:02:54.000Z</time>
      </trkpt>
      <trkpt lat="49.33452" lon="3.33717">
        <ele>166.5</ele>
        <time>2025-10-20T14:02:55.000Z</time>
      </trkpt>
      <trkpt lat="49.33452" lon="3.33717">
        <ele>166.5</ele>
        <time>2025-10-20T14:02:56.000Z</time>
      </trkpt>
      <trkpt lat="49.33452" lon="3.33717">
        <ele>166.5</ele>
        <time>2025-10-20T14:02:57.000Z</time>
      </trkpt>
      <trkpt lat="49.3345" lon="3.33719">
        <ele>166.8</ele>
        <time>2025-10-20T14:02:58.000Z</time>
      </trkpt>
      <trkpt lat="49.3345" lon="3.33719">
        <ele>166.9</ele>
        <time>2025-10-20T14:02:59.000Z</time>
      </trkpt>
      <trkpt lat="49.3345" lon="3.33719">
        <ele>167</ele>
        <time>2025-10-20T14:03:00.000Z</time>
      </trkpt>
      <trkpt lat="49.3345" lon="3.3372">
        <ele>167.3</ele>
        <time>2025-10-20T14:03:01.000Z</time>
      </trkpt>
      <trkpt lat="49.3345" lon="3.33721">
        <ele>167.6</ele>
        <time>2025-10-20T14:03:02.000Z</time>
      </trkpt>
      <trkpt lat="49.3345" lon="3.33722">
        <ele>167.7</ele>
        <time>2025-10-20T14:03:03.000Z</time>
      </trkpt>
      <trkpt lat="49.3345" lon="3.33723">
        <ele>168</ele>
        <time>2025-10-20T14:03:04.000Z</time>
      </trkpt>
      <trkpt lat="49.33449" lon="3.33724">
        <ele>168.1</ele>
        <time>2025-10-20T14:03:05.000Z</time>
      </trkpt>
      <trkpt lat="49.33449" lon="3.33726">
        <ele>168.1</ele>
        <time>2025-10-20T14:03:06.000Z</time>
      </trkpt>
      <trkpt lat="49.33448" lon="3.33727">
        <ele>167.8</ele>
        <time>2025-10-20T14:03:07.000Z</time>
      </trkpt>
      <trkpt lat="49.33448" lon="3.33728">
        <ele>167.8</ele>
        <time>2025-10-20T14:03:08.000Z</time>
      </trkpt>
      <trkpt lat="49.33447" lon="3.33729">
        <ele>167.7</ele>
        <time>2025-10-20T14:03:09.000Z</time>
      </trkpt>
      <trkpt lat="49.33447" lon="3.3373">
        <ele>167.8</ele>
        <time>2025-10-20T14:03:10.000Z</time>
      </trkpt>
      <trkpt lat="49.33446" lon="3.3373">
        <ele>167.6</ele>
        <time>2025-10-20T14:03:11.000Z</time>
      </trkpt>
      <trkpt lat="49.33446" lon="3.33731">
        <ele>167.7</ele>
        <time>2025-10-20T14:03:12.000Z</time>
      </trkpt>
      <trkpt lat="49.33446" lon="3.33731">
        <ele>167.6</ele>
        <time>2025-10-20T14:03:13.000Z</time>
      </trkpt>
      <trkpt lat="49.33446" lon="3.33732">
        <ele>167.7</ele>
        <time>2025-10-20T14:03:14.000Z</time>
      </trkpt>
      <trkpt lat="49.33445" lon="3.33732">
        <ele>167.8</ele>
        <time>2025-10-20T14:03:15.000Z</time>
      </trkpt>
      <trkpt lat="49.33445" lon="3.33732">
        <ele>167.9</ele>
        <time>2025-10-20T14:03:16.000Z</time>
      </trkpt>
      <trkpt lat="49.33445" lon="3.33732">
        <ele>167.9</ele>
        <time>2025-10-20T14:03:17.000Z</time>
      </trkpt>
      <trkpt lat="49.33445" lon="3.33732">
        <ele>167.9</ele>
        <time>2025-10-20T14:03:18.000Z</time>
      </trkpt>
      <trkpt lat="49.33445" lon="3.33732">
        <ele>167.9</ele>
        <time>2025-10-20T14:03:19.000Z</time>
      </trkpt>
      <trkpt lat="49.33445" lon="3.33732">
        <ele>167.9</ele>
        <time>2025-10-20T14:03:20.000Z</time>
      </trkpt>
      <trkpt lat="49.33445" lon="3.33732">
        <ele>167.9</ele>
        <time>2025-10-20T14:03:21.000Z</time>
      </trkpt>
      <trkpt lat="49.33445" lon="3.33732">
        <ele>167.9</ele>
        <time>2025-10-20T14:03:22.000Z</time>
      </trkpt>
      <trkpt lat="49.33445" lon="3.33732">
        <ele>167.9</ele>
        <time>2025-10-20T14:03:23.000Z</time>
      </trkpt>
      <trkpt lat="49.33445" lon="3.33732">
        <ele>167.9</ele>
        <time>2025-10-20T14:03:24.000Z</time>
      </trkpt>
      <trkpt lat="49.33445" lon="3.33732">
        <ele>167.9</ele>
        <time>2025-10-20T14:03:25.000Z</time>
      </trkpt>
      <trkpt lat="49.33445" lon="3.33732">
        <ele>167.9</ele>
        <time>2025-10-20T14:03:26.000Z</time>
      </trkpt>
      <trkpt lat="49.33445" lon="3.33732">
        <ele>167.9</ele>
        <time>2025-10-20T14:03:27.000Z</time>
      </trkpt>
      <trkpt lat="49.33445" lon="3.33732">
        <ele>167.9</ele>
        <time>2025-10-20T14:03:28.000Z</time>
      </trkpt>
      <trkpt lat="49.33443" lon="3.33733">
        <ele>168.4</ele>
        <time>2025-10-20T14:03:29.000Z</time>
      </trkpt>
      <trkpt lat="49.33443" lon="3.33733">
        <ele>168.6</ele>
        <time>2025-10-20T14:03:30.000Z</time>
      </trkpt>
      <trkpt lat="49.33442" lon="3.33733">
        <ele>168.7</ele>
        <time>2025-10-20T14:03:31.000Z</time>
      </trkpt>
      <trkpt lat="49.33441" lon="3.33734">
        <ele>168.7</ele>
        <time>2025-10-20T14:03:32.000Z</time>
      </trkpt>
      <trkpt lat="49.33441" lon="3.33735">
        <ele>168.7</ele>
        <time>2025-10-20T14:03:33.000Z</time>
      </trkpt>
      <trkpt lat="49.33441" lon="3.33736">
        <ele>169</ele>
        <time>2025-10-20T14:03:34.000Z</time>
      </trkpt>
      <trkpt lat="49.3344" lon="3.33738">
        <ele>169.5</ele>
        <time>2025-10-20T14:03:35.000Z</time>
      </trkpt>
      <trkpt lat="49.3344" lon="3.33739">
        <ele>169.9</ele>
        <time>2025-10-20T14:03:36.000Z</time>
      </trkpt>
      <trkpt lat="49.3344" lon="3.33739">
        <ele>170.3</ele>
        <time>2025-10-20T14:03:37.000Z</time>
      </trkpt>
      <trkpt lat="49.33439" lon="3.3374">
        <ele>171</ele>
        <time>2025-10-20T14:03:38.000Z</time>
      </trkpt>
      <trkpt lat="49.33439" lon="3.3374">
        <ele>171.8</ele>
        <time>2025-10-20T14:03:39.000Z</time>
      </trkpt>
      <trkpt lat="49.33438" lon="3.33742">
        <ele>172.2</ele>
        <time>2025-10-20T14:03:40.000Z</time>
      </trkpt>
      <trkpt lat="49.33438" lon="3.33742">
        <ele>172.5</ele>
        <time>2025-10-20T14:03:41.000Z</time>
      </trkpt>
      <trkpt lat="49.33438" lon="3.33743">
        <ele>172.8</ele>
        <time>2025-10-20T14:03:42.000Z</time>
      </trkpt>
      <trkpt lat="49.33438" lon="3.33743">
        <ele>173</ele>
        <time>2025-10-20T14:03:43.000Z</time>
      </trkpt>
      <trkpt lat="49.33439" lon="3.33743">
        <ele>173.1</ele>
        <time>2025-10-20T14:03:44.000Z</time>
      </trkpt>
      <trkpt lat="49.33439" lon="3.33742">
        <ele>173</ele>
        <time>2025-10-20T14:03:45.000Z</time>
      </trkpt>
      <trkpt lat="49.3344" lon="3.33742">
        <ele>173.1</ele>
        <time>2025-10-20T14:03:46.000Z</time>
      </trkpt>
      <trkpt lat="49.33441" lon="3.33742">
        <ele>173.3</ele>
        <time>2025-10-20T14:03:47.000Z</time>
      </trkpt>
      <trkpt lat="49.33441" lon="3.33742">
        <ele>173.4</ele>
        <time>2025-10-20T14:03:48.000Z</time>
      </trkpt>
      <trkpt lat="49.33442" lon="3.33742">
        <ele>173.5</ele>
        <time>2025-10-20T14:03:49.000Z</time>
      </trkpt>
      <trkpt lat="49.33442" lon="3.33741">
        <ele>173.3</ele>
        <time>2025-10-20T14:03:50.000Z</time>
      </trkpt>
      <trkpt lat="49.33442" lon="3.33741">
        <ele>173.2</ele>
        <time>2025-10-20T14:03:51.000Z</time>
      </trkpt>
      <trkpt lat="49.33443" lon="3.3374">
        <ele>173.3</ele>
        <time>2025-10-20T14:03:52.000Z</time>
      </trkpt>
      <trkpt lat="49.33443" lon="3.33739">
        <ele>173.2</ele>
        <time>2025-10-20T14:03:53.000Z</time>
      </trkpt>
      <trkpt lat="49.33444" lon="3.33739">
        <ele>173.2</ele>
        <time>2025-10-20T14:03:54.000Z</time>
      </trkpt>
      <trkpt lat="49.33444" lon="3.33739">
        <ele>173.1</ele>
        <time>2025-10-20T14:03:55.000Z</time>
      </trkpt>
      <trkpt lat="49.33445" lon="3.33738">
        <ele>173.1</ele>
        <time>2025-10-20T14:03:56.000Z</time>
      </trkpt>
      <trkpt lat="49.33446" lon="3.33738">
        <ele>172.6</ele>
        <time>2025-10-20T14:03:57.000Z</time>
      </trkpt>
      <trkpt lat="49.33447" lon="3.33737">
        <ele>172.5</ele>
        <time>2025-10-20T14:03:58.000Z</time>
      </trkpt>
      <trkpt lat="49.33448" lon="3.33737">
        <ele>172.6</ele>
        <time>2025-10-20T14:03:59.000Z</time>
      </trkpt>
      <trkpt lat="49.33449" lon="3.33738">
        <ele>172.7</ele>
        <time>2025-10-20T14:04:00.000Z</time>
      </trkpt>
      <trkpt lat="49.33449" lon="3.33738">
        <ele>172.9</ele>
        <time>2025-10-20T14:04:01.000Z</time>
      </trkpt>
      <trkpt lat="49.33451" lon="3.33738">
        <ele>173</ele>
        <time>2025-10-20T14:04:02.000Z</time>
      </trkpt>
      <trkpt lat="49.33451" lon="3.33738">
        <ele>173</ele>
        <time>2025-10-20T14:04:03.000Z</time>
      </trkpt>
      <trkpt lat="49.33452" lon="3.33738">
        <ele>173.1</ele>
        <time>2025-10-20T14:04:04.000Z</time>
      </trkpt>
      <trkpt lat="49.33453" lon="3.33738">
        <ele>173.1</ele>
        <time>2025-10-20T14:04:05.000Z</time>
      </trkpt>
      <trkpt lat="49.33453" lon="3.33739">
        <ele>173</ele>
        <time>2025-10-20T14:04:06.000Z</time>
      </trkpt>
      <trkpt lat="49.33454" lon="3.33739">
        <ele>173.2</ele>
        <time>2025-10-20T14:04:07.000Z</time>
      </trkpt>
      <trkpt lat="49.33455" lon="3.33739">
        <ele>173.4</ele>
        <time>2025-10-20T14:04:08.000Z</time>
      </trkpt>
      <trkpt lat="49.33456" lon="3.33739">
        <ele>173.1</ele>
        <time>2025-10-20T14:04:09.000Z</time>
      </trkpt>
      <trkpt lat="49.33457" lon="3.33738">
        <ele>173.1</ele>
        <time>2025-10-20T14:04:10.000Z</time>
      </trkpt>
      <trkpt lat="49.33458" lon="3.33738">
        <ele>172.9</ele>
        <time>2025-10-20T14:04:11.000Z</time>
      </trkpt>
      <trkpt lat="49.33459" lon="3.33738">
        <ele>173</ele>
        <time>2025-10-20T14:04:12.000Z</time>
      </trkpt>
      <trkpt lat="49.3346" lon="3.33738">
        <ele>173</ele>
        <time>2025-10-20T14:04:13.000Z</time>
      </trkpt>
      <trkpt lat="49.33461" lon="3.33738">
        <ele>173</ele>
        <time>2025-10-20T14:04:14.000Z</time>
      </trkpt>
      <trkpt lat="49.33462" lon="3.33739">
        <ele>173</ele>
        <time>2025-10-20T14:04:15.000Z</time>
      </trkpt>
      <trkpt lat="49.33462" lon="3.33739">
        <ele>173</ele>
        <time>2025-10-20T14:04:16.000Z</time>
      </trkpt>
      <trkpt lat="49.33463" lon="3.33738">
        <ele>173.1</ele>
        <time>2025-10-20T14:04:17.000Z</time>
      </trkpt>
      <trkpt lat="49.33464" lon="3.33739">
        <ele>173.1</ele>
        <time>2025-10-20T14:04:18.000Z</time>
      </trkpt>
      <trkpt lat="49.33464" lon="3.33739">
        <ele>173.1</ele>
        <time>2025-10-20T14:04:19.000Z</time>
      </trkpt>
      <trkpt lat="49.33465" lon="3.33739">
        <ele>173.2</ele>
        <time>2025-10-20T14:04:20.000Z</time>
      </trkpt>
      <trkpt lat="49.33466" lon="3.33739">
        <ele>173.3</ele>
        <time>2025-10-20T14:04:21.000Z</time>
      </trkpt>
      <trkpt lat="49.33466" lon="3.3374">
        <ele>173.4</ele>
        <time>2025-10-20T14:04:22.000Z</time>
      </trkpt>
      <trkpt lat="49.33467" lon="3.3374">
        <ele>173.6</ele>
        <time>2025-10-20T14:04:23.000Z</time>
      </trkpt>
      <trkpt lat="49.33467" lon="3.3374">
        <ele>173.7</ele>
        <time>2025-10-20T14:04:24.000Z</time>
      </trkpt>
      <trkpt lat="49.33468" lon="3.3374">
        <ele>173.7</ele>
        <time>2025-10-20T14:04:25.000Z</time>
      </trkpt>
      <trkpt lat="49.33469" lon="3.3374">
        <ele>173.7</ele>
        <time>2025-10-20T14:04:26.000Z</time>
      </trkpt>
      <trkpt lat="49.33469" lon="3.33739">
        <ele>173.6</ele>
        <time>2025-10-20T14:04:27.000Z</time>
      </trkpt>
      <trkpt lat="49.33469" lon="3.33739">
        <ele>173.5</ele>
        <time>2025-10-20T14:04:28.000Z</time>
      </trkpt>
      <trkpt lat="49.33468" lon="3.33739">
        <ele>173.6</ele>
        <time>2025-10-20T14:04:29.000Z</time>
      </trkpt>
      <trkpt lat="49.33467" lon="3.33739">
        <ele>173.8</ele>
        <time>2025-10-20T14:04:30.000Z</time>
      </trkpt>
      <trkpt lat="49.33466" lon="3.33738">
        <ele>173.7</ele>
        <time>2025-10-20T14:04:31.000Z</time>
      </trkpt>
      <trkpt lat="49.33465" lon="3.33738">
        <ele>173.8</ele>
        <time>2025-10-20T14:04:32.000Z</time>
      </trkpt>
      <trkpt lat="49.33463" lon="3.33738">
        <ele>173.8</ele>
        <time>2025-10-20T14:04:33.000Z</time>
      </trkpt>
      <trkpt lat="49.33462" lon="3.33737">
        <ele>174</ele>
        <time>2025-10-20T14:04:34.000Z</time>
      </trkpt>
      <trkpt lat="49.33461" lon="3.33737">
        <ele>174.4</ele>
        <time>2025-10-20T14:04:35.000Z</time>
      </trkpt>
      <trkpt lat="49.3346" lon="3.33736">
        <ele>174.5</ele>
        <time>2025-10-20T14:04:36.000Z</time>
      </trkpt>
      <trkpt lat="49.33459" lon="3.33736">
        <ele>174.8</ele>
        <time>2025-10-20T14:04:37.000Z</time>
      </trkpt>
      <trkpt lat="49.33457" lon="3.33736">
        <ele>175</ele>
        <time>2025-10-20T14:04:38.000Z</time>
      </trkpt>
      <trkpt lat="49.33457" lon="3.33736">
        <ele>175.2</ele>
        <time>2025-10-20T14:04:39.000Z</time>
      </trkpt>
      <trkpt lat="49.33456" lon="3.33735">
        <ele>175.6</ele>
        <time>2025-10-20T14:04:40.000Z</time>
      </trkpt>
      <trkpt lat="49.33455" lon="3.33734">
        <ele>176.1</ele>
        <time>2025-10-20T14:04:41.000Z</time>
      </trkpt>
      <trkpt lat="49.33455" lon="3.33734">
        <ele>176.6</ele>
        <time>2025-10-20T14:04:42.000Z</time>
      </trkpt>
      <trkpt lat="49.33454" lon="3.33733">
        <ele>176.9</ele>
        <time>2025-10-20T14:04:43.000Z</time>
      </trkpt>
      <trkpt lat="49.33453" lon="3.33732">
        <ele>177.1</ele>
        <time>2025-10-20T14:04:44.000Z</time>
      </trkpt>
      <trkpt lat="49.33453" lon="3.33731">
        <ele>177.6</ele>
        <time>2025-10-20T14:04:45.000Z</time>
      </trkpt>
      <trkpt lat="49.33452" lon="3.33729">
        <ele>177.9</ele>
        <time>2025-10-20T14:04:46.000Z</time>
      </trkpt>
      <trkpt lat="49.33452" lon="3.33727">
        <ele>177.7</ele>
        <time>2025-10-20T14:04:47.000Z</time>
      </trkpt>
      <trkpt lat="49.33451" lon="3.33725">
        <ele>177.7</ele>
        <time>2025-10-20T14:04:48.000Z</time>
      </trkpt>
      <trkpt lat="49.33451" lon="3.33724">
        <ele>177.6</ele>
        <time>2025-10-20T14:04:49.000Z</time>
      </trkpt>
      <trkpt lat="49.3345" lon="3.33722">
        <ele>177.6</ele>
        <time>2025-10-20T14:04:50.000Z</time>
      </trkpt>
      <trkpt lat="49.3345" lon="3.3372">
        <ele>177.4</ele>
        <time>2025-10-20T14:04:51.000Z</time>
      </trkpt>
      <trkpt lat="49.3345" lon="3.33718">
        <ele>177</ele>
        <time>2025-10-20T14:04:52.000Z</time>
      </trkpt>
      <trkpt lat="49.33451" lon="3.33717">
        <ele>176.4</ele>
        <time>2025-10-20T14:04:53.000Z</time>
      </trkpt>
      <trkpt lat="49.33451" lon="3.33716">
        <ele>176.1</ele>
        <time>2025-10-20T14:04:54.000Z</time>
      </trkpt>
      <trkpt lat="49.33452" lon="3.33715">
        <ele>175.6</ele>
        <time>2025-10-20T14:04:55.000Z</time>
      </trkpt>
      <trkpt lat="49.33452" lon="3.33713">
        <ele>175.2</ele>
        <time>2025-10-20T14:04:56.000Z</time>
      </trkpt>
      <trkpt lat="49.33453" lon="3.33712">
        <ele>174.5</ele>
        <time>2025-10-20T14:04:57.000Z</time>
      </trkpt>
      <trkpt lat="49.33453" lon="3.33711">
        <ele>174</ele>
        <time>2025-10-20T14:04:58.000Z</time>
      </trkpt>
      <trkpt lat="49.33454" lon="3.33709">
        <ele>174.2</ele>
        <time>2025-10-20T14:04:59.000Z</time>
      </trkpt>
      <trkpt lat="49.33455" lon="3.33708">
        <ele>174</ele>
        <time>2025-10-20T14:05:00.000Z</time>
      </trkpt>
      <trkpt lat="49.33456" lon="3.33706">
        <ele>174</ele>
        <time>2025-10-20T14:05:01.000Z</time>
      </trkpt>
      <trkpt lat="49.33457" lon="3.33706">
        <ele>173.7</ele>
        <time>2025-10-20T14:05:02.000Z</time>
      </trkpt>
      <trkpt lat="49.33458" lon="3.33705">
        <ele>173.4</ele>
        <time>2025-10-20T14:05:03.000Z</time>
      </trkpt>
      <trkpt lat="49.33459" lon="3.33704">
        <ele>173.3</ele>
        <time>2025-10-20T14:05:04.000Z</time>
      </trkpt>
      <trkpt lat="49.33459" lon="3.33703">
        <ele>173.5</ele>
        <time>2025-10-20T14:05:05.000Z</time>
      </trkpt>
      <trkpt lat="49.3346" lon="3.33702">
        <ele>173.2</ele>
        <time>2025-10-20T14:05:06.000Z</time>
      </trkpt>
      <trkpt lat="49.33461" lon="3.33702">
        <ele>172.9</ele>
        <time>2025-10-20T14:05:07.000Z</time>
      </trkpt>
      <trkpt lat="49.33461" lon="3.33702">
        <ele>172.9</ele>
        <time>2025-10-20T14:05:08.000Z</time>
      </trkpt>
      <trkpt lat="49.33461" lon="3.33702">
        <ele>172.8</ele>
        <time>2025-10-20T14:05:09.000Z</time>
      </trkpt>
      <trkpt lat="49.33461" lon="3.33702">
        <ele>172.8</ele>
        <time>2025-10-20T14:05:10.000Z</time>
      </trkpt>
      <trkpt lat="49.33462" lon="3.33702">
        <ele>172.2</ele>
        <time>2025-10-20T14:05:11.000Z</time>
      </trkpt>
      <trkpt lat="49.33462" lon="3.33702">
        <ele>171.3</ele>
        <time>2025-10-20T14:05:12.000Z</time>
      </trkpt>
      <trkpt lat="49.33462" lon="3.33702">
        <ele>170.7</ele>
        <time>2025-10-20T14:05:13.000Z</time>
      </trkpt>
      <trkpt lat="49.33462" lon="3.33702">
        <ele>170.4</ele>
        <time>2025-10-20T14:05:14.000Z</time>
      </trkpt>
      <trkpt lat="49.33462" lon="3.33701">
        <ele>170.2</ele>
        <time>2025-10-20T14:05:15.000Z</time>
      </trkpt>
      <trkpt lat="49.33462" lon="3.33701">
        <ele>169.8</ele>
        <time>2025-10-20T14:05:16.000Z</time>
      </trkpt>
      <trkpt lat="49.33462" lon="3.33701">
        <ele>169.6</ele>
        <time>2025-10-20T14:05:17.000Z</time>
      </trkpt>
      <trkpt lat="49.33462" lon="3.33701">
        <ele>169.6</ele>
        <time>2025-10-20T14:05:18.000Z</time>
      </trkpt>
      <trkpt lat="49.33462" lon="3.33701">
        <ele>169.6</ele>
        <time>2025-10-20T14:05:19.000Z</time>
      </trkpt>
      <trkpt lat="49.33462" lon="3.33701">
        <ele>169.6</ele>
        <time>2025-10-20T14:05:20.000Z</time>
      </trkpt>
      <trkpt lat="49.33462" lon="3.33701">
        <ele>169.6</ele>
        <time>2025-10-20T14:05:21.000Z</time>
      </trkpt>
      <trkpt lat="49.33462" lon="3.33701">
        <ele>169.6</ele>
        <time>2025-10-20T14:05:22.000Z</time>
      </trkpt>
      <trkpt lat="49.33462" lon="3.33701">
        <ele>169.6</ele>
        <time>2025-10-20T14:05:23.000Z</time>
      </trkpt>
      <trkpt lat="49.33462" lon="3.33701">
        <ele>169.6</ele>
        <time>2025-10-20T14:05:24.000Z</time>
      </trkpt>
      <trkpt lat="49.33462" lon="3.33701">
        <ele>169.6</ele>
        <time>2025-10-20T14:05:25.000Z</time>
      </trkpt>
      <trkpt lat="49.33462" lon="3.33701">
        <ele>169.6</ele>
        <time>2025-10-20T14:05:26.000Z</time>
      </trkpt>
      <trkpt lat="49.33462" lon="3.33701">
        <ele>169.6</ele>
        <time>2025-10-20T14:05:27.000Z</time>
      </trkpt>
      <trkpt lat="49.33462" lon="3.33701">
        <ele>169.6</ele>
        <time>2025-10-20T14:05:28.000Z</time>
      </trkpt>
      <trkpt lat="49.33462" lon="3.33701">
        <ele>169.6</ele>
        <time>2025-10-20T14:05:29.000Z</time>
      </trkpt>
      <trkpt lat="49.33462" lon="3.33701">
        <ele>169.6</ele>
        <time>2025-10-20T14:05:30.000Z</time>
      </trkpt>
      <trkpt lat="49.33462" lon="3.33701">
        <ele>169.6</ele>
        <time>2025-10-20T14:05:31.000Z</time>
      </trkpt>
      <trkpt lat="49.33462" lon="3.33701">
        <ele>169.6</ele>
        <time>2025-10-20T14:05:32.000Z</time>
      </trkpt>
      <trkpt lat="49.33462" lon="3.33701">
        <ele>169.6</ele>
        <time>2025-10-20T14:05:33.000Z</time>
      </trkpt>
      <trkpt lat="49.33462" lon="3.33701">
        <ele>166.6</ele>
        <time>2025-10-20T14:05:34.000Z</time>
      </trkpt>
      <trkpt lat="49.33462" lon="3.33701">
        <ele>166.6</ele>
        <time>2025-10-20T14:05:35.000Z</time>
      </trkpt>
      <trkpt lat="49.33462" lon="3.33701">
        <ele>166.6</ele>
        <time>2025-10-20T14:05:36.000Z</time>
      </trkpt>
      <trkpt lat="49.33462" lon="3.33701">
        <ele>166.6</ele>
        <time>2025-10-20T14:05:37.000Z</time>
      </trkpt>
      <trkpt lat="49.33462" lon="3.33701">
        <ele>166.6</ele>
        <time>2025-10-20T14:05:38.000Z</time>
      </trkpt>
      <trkpt lat="49.33462" lon="3.33701">
        <ele>166.6</ele>
        <time>2025-10-20T14:05:39.000Z</time>
      </trkpt>
      <trkpt lat="49.33462" lon="3.33701">
        <ele>166.6</ele>
        <time>2025-10-20T14:05:40.000Z</time>
      </trkpt>
      <trkpt lat="49.33462" lon="3.33701">
        <ele>166.6</ele>
        <time>2025-10-20T14:05:41.000Z</time>
      </trkpt>
      <trkpt lat="49.33462" lon="3.33701">
        <ele>166.6</ele>
        <time>2025-10-20T14:05:42.000Z</time>
      </trkpt>
      <trkpt lat="49.33462" lon="3.33701">
        <ele>166.6</ele>
        <time>2025-10-20T14:05:43.000Z</time>
      </trkpt>
      <trkpt lat="49.33462" lon="3.33701">
        <ele>166.6</ele>
        <time>2025-10-20T14:05:44.000Z</time>
      </trkpt>
      <trkpt lat="49.33462" lon="3.33701">
        <ele>166.6</ele>
        <time>2025-10-20T14:05:45.000Z</time>
      </trkpt>
      <trkpt lat="49.33462" lon="3.33701">
        <ele>166.6</ele>
        <time>2025-10-20T14:05:46.000Z</time>
      </trkpt>
      <trkpt lat="49.33462" lon="3.33701">
        <ele>166.6</ele>
        <time>2025-10-20T14:05:47.000Z</time>
      </trkpt>
      <trkpt lat="49.33462" lon="3.33701">
        <ele>166.6</ele>
        <time>2025-10-20T14:05:48.000Z</time>
      </trkpt>
      <trkpt lat="49.33462" lon="3.33701">
        <ele>166.6</ele>
        <time>2025-10-20T14:05:49.000Z</time>
      </trkpt>
      <trkpt lat="49.33462" lon="3.33701">
        <ele>166.6</ele>
        <time>2025-10-20T14:05:50.000Z</time>
      </trkpt>
      <trkpt lat="49.33462" lon="3.33701">
        <ele>166.6</ele>
        <time>2025-10-20T14:05:51.000Z</time>
      </trkpt>
      <trkpt lat="49.33462" lon="3.33701">
        <ele>166.6</ele>
        <time>2025-10-20T14:05:52.000Z</time>
      </trkpt>
      <trkpt lat="49.33462" lon="3.33701">
        <ele>166.6</ele>
        <time>2025-10-20T14:05:53.000Z</time>
      </trkpt>
      <trkpt lat="49.33462" lon="3.33701">
        <ele>166.6</ele>
        <time>2025-10-20T14:05:54.000Z</time>
      </trkpt>
      <trkpt lat="49.33462" lon="3.33701">
        <ele>166.6</ele>
        <time>2025-10-20T14:05:55.000Z</time>
      </trkpt>
      <trkpt lat="49.33462" lon="3.33701">
        <ele>166.6</ele>
        <time>2025-10-20T14:05:56.000Z</time>
      </trkpt>
      <trkpt lat="49.33462" lon="3.33701">
        <ele>166.6</ele>
        <time>2025-10-20T14:05:57.000Z</time>
      </trkpt>
      <trkpt lat="49.33462" lon="3.33701">
        <ele>166.6</ele>
        <time>2025-10-20T14:05:58.000Z</time>
      </trkpt>
      <trkpt lat="49.33462" lon="3.33701">
        <ele>166.6</ele>
        <time>2025-10-20T14:05:59.000Z</time>
      </trkpt>
      <trkpt lat="49.33462" lon="3.33701">
        <ele>166.6</ele>
        <time>2025-10-20T14:06:00.000Z</time>
      </trkpt>
      <trkpt lat="49.33462" lon="3.33701">
        <ele>166.6</ele>
        <time>2025-10-20T14:06:01.000Z</time>
      </trkpt>
      <trkpt lat="49.33462" lon="3.33701">
        <ele>166.6</ele>
        <time>2025-10-20T14:06:02.000Z</time>
      </trkpt>
      <trkpt lat="49.33462" lon="3.33701">
        <ele>163.5</ele>
        <time>2025-10-20T14:06:03.000Z</time>
      </trkpt>
      <trkpt lat="49.33462" lon="3.33701">
        <ele>163.5</ele>
        <time>2025-10-20T14:06:04.000Z</time>
      </trkpt>
      <trkpt lat="49.33462" lon="3.33701">
        <ele>163.5</ele>
        <time>2025-10-20T14:06:05.000Z</time>
      </trkpt>
      <trkpt lat="49.33462" lon="3.33701">
        <ele>163.5</ele>
        <time>2025-10-20T14:06:06.000Z</time>
      </trkpt>
      <trkpt lat="49.33462" lon="3.33701">
        <ele>163.5</ele>
        <time>2025-10-20T14:06:07.000Z</time>
      </trkpt>
      <trkpt lat="49.33462" lon="3.33701">
        <ele>163.5</ele>
        <time>2025-10-20T14:06:08.000Z</time>
      </trkpt>
      <trkpt lat="49.33462" lon="3.33701">
        <ele>163.5</ele>
        <time>2025-10-20T14:06:09.000Z</time>
      </trkpt>
      <trkpt lat="49.33462" lon="3.33701">
        <ele>163.5</ele>
        <time>2025-10-20T14:06:10.000Z</time>
      </trkpt>
      <trkpt lat="49.33462" lon="3.33701">
        <ele>163.5</ele>
        <time>2025-10-20T14:06:11.000Z</time>
      </trkpt>
      <trkpt lat="49.33462" lon="3.33701">
        <ele>163.5</ele>
        <time>2025-10-20T14:06:12.000Z</time>
      </trkpt>
      <trkpt lat="49.33462" lon="3.33701">
        <ele>163.5</ele>
        <time>2025-10-20T14:06:13.000Z</time>
      </trkpt>
      <trkpt lat="49.33462" lon="3.33701">
        <ele>163.5</ele>
        <time>2025-10-20T14:06:14.000Z</time>
      </trkpt>
      <trkpt lat="49.33462" lon="3.33701">
        <ele>163.5</ele>
        <time>2025-10-20T14:06:15.000Z</time>
      </trkpt>
      <trkpt lat="49.33462" lon="3.33701">
        <ele>163.5</ele>
        <time>2025-10-20T14:06:16.000Z</time>
      </trkpt>
      <trkpt lat="49.33462" lon="3.33701">
        <ele>163.5</ele>
        <time>2025-10-20T14:06:17.000Z</time>
      </trkpt>
      <trkpt lat="49.33462" lon="3.33701">
        <ele>163.5</ele>
        <time>2025-10-20T14:06:18.000Z</time>
      </trkpt>
      <trkpt lat="49.33462" lon="3.33701">
        <ele>163.5</ele>
        <time>2025-10-20T14:06:19.000Z</time>
      </trkpt>
      <trkpt lat="49.33462" lon="3.33701">
        <ele>163.5</ele>
        <time>2025-10-20T14:06:20.000Z</time>
      </trkpt>
      <trkpt lat="49.33462" lon="3.33701">
        <ele>163.5</ele>
        <time>2025-10-20T14:06:21.000Z</time>
      </trkpt>
      <trkpt lat="49.33462" lon="3.33701">
        <ele>163.5</ele>
        <time>2025-10-20T14:06:22.000Z</time>
      </trkpt>
      <trkpt lat="49.33462" lon="3.33701">
        <ele>163.5</ele>
        <time>2025-10-20T14:06:23.000Z</time>
      </trkpt>
      <trkpt lat="49.33462" lon="3.33701">
        <ele>163.5</ele>
        <time>2025-10-20T14:06:24.000Z</time>
      </trkpt>
      <trkpt lat="49.33462" lon="3.33701">
        <ele>163.5</ele>
        <time>2025-10-20T14:06:25.000Z</time>
      </trkpt>
      <trkpt lat="49.33462" lon="3.33701">
        <ele>163.5</ele>
        <time>2025-10-20T14:06:26.000Z</time>
      </trkpt>
      <trkpt lat="49.33462" lon="3.33701">
        <ele>163.5</ele>
        <time>2025-10-20T14:06:27.000Z</time>
      </trkpt>
      <trkpt lat="49.33462" lon="3.33701">
        <ele>163.5</ele>
        <time>2025-10-20T14:06:28.000Z</time>
      </trkpt>
      <trkpt lat="49.33462" lon="3.33701">
        <ele>163.5</ele>
        <time>2025-10-20T14:06:29.000Z</time>
      </trkpt>
      <trkpt lat="49.33462" lon="3.33701">
        <ele>163.5</ele>
        <time>2025-10-20T14:06:30.000Z</time>
      </trkpt>
      <trkpt lat="49.33462" lon="3.33701">
        <ele>163.5</ele>
        <time>2025-10-20T14:06:31.000Z</time>
      </trkpt>
      <trkpt lat="49.33462" lon="3.33701">
        <ele>163.5</ele>
        <time>2025-10-20T14:06:32.000Z</time>
      </trkpt>
      <trkpt lat="49.33462" lon="3.33701">
        <ele>163.5</ele>
        <time>2025-10-20T14:06:33.000Z</time>
      </trkpt>
      <trkpt lat="49.33462" lon="3.33701">
        <ele>163.5</ele>
        <time>2025-10-20T14:06:34.000Z</time>
      </trkpt>
      <trkpt lat="49.33462" lon="3.33701">
        <ele>163.5</ele>
        <time>2025-10-20T14:06:35.000Z</time>
      </trkpt>
      <trkpt lat="49.33462" lon="3.33701">
        <ele>163.5</ele>
        <time>2025-10-20T14:06:36.000Z</time>
      </trkpt>
      <trkpt lat="49.33462" lon="3.33701">
        <ele>163.5</ele>
        <time>2025-10-20T14:06:37.000Z</time>
      </trkpt>
      <trkpt lat="49.33462" lon="3.33701">
        <ele>163.5</ele>
        <time>2025-10-20T14:06:38.000Z</time>
      </trkpt>
      <trkpt lat="49.33462" lon="3.33701">
        <ele>163.5</ele>
        <time>2025-10-20T14:06:39.000Z</time>
      </trkpt>
      <trkpt lat="49.33462" lon="3.33701">
        <ele>163.5</ele>
        <time>2025-10-20T14:06:40.000Z</time>
      </trkpt>
      <trkpt lat="49.33462" lon="3.33701">
        <ele>163.5</ele>
        <time>2025-10-20T14:06:41.000Z</time>
      </trkpt>
      <trkpt lat="49.33462" lon="3.33701">
        <ele>163.5</ele>
        <time>2025-10-20T14:06:42.000Z</time>
      </trkpt>
      <trkpt lat="49.33462" lon="3.33701">
        <ele>163.5</ele>
        <time>2025-10-20T14:06:43.000Z</time>
      </trkpt>
      <trkpt lat="49.33462" lon="3.33701">
        <ele>163.5</ele>
        <time>2025-10-20T14:06:44.000Z</time>
      </trkpt>
      <trkpt lat="49.33462" lon="3.33701">
        <ele>163.5</ele>
        <time>2025-10-20T14:06:45.000Z</time>
      </trkpt>
      <trkpt lat="49.33462" lon="3.33701">
        <ele>163.5</ele>
        <time>2025-10-20T14:06:46.000Z</time>
      </trkpt>
      <trkpt lat="49.33462" lon="3.33701">
        <ele>163.5</ele>
        <time>2025-10-20T14:06:47.000Z</time>
      </trkpt>
      <trkpt lat="49.33462" lon="3.33701">
        <ele>163.5</ele>
        <time>2025-10-20T14:06:48.000Z</time>
      </trkpt>
      <trkpt lat="49.33462" lon="3.33701">
        <ele>163.5</ele>
        <time>2025-10-20T14:06:49.000Z</time>
      </trkpt>
      <trkpt lat="49.33462" lon="3.33701">
        <ele>163.5</ele>
        <time>2025-10-20T14:06:50.000Z</time>
      </trkpt>
      <trkpt lat="49.33462" lon="3.33701">
        <ele>163.5</ele>
        <time>2025-10-20T14:06:51.000Z</time>
      </trkpt>
      <trkpt lat="49.33462" lon="3.33701">
        <ele>163.5</ele>
        <time>2025-10-20T14:06:52.000Z</time>
      </trkpt>
      <trkpt lat="49.33462" lon="3.33701">
        <ele>163.5</ele>
        <time>2025-10-20T14:06:53.000Z</time>
      </trkpt>
      <trkpt lat="49.33462" lon="3.33701">
        <ele>163.5</ele>
        <time>2025-10-20T14:06:54.000Z</time>
      </trkpt>
      <trkpt lat="49.33462" lon="3.33701">
        <ele>163.5</ele>
        <time>2025-10-20T14:06:55.000Z</time>
      </trkpt>
      <trkpt lat="49.33462" lon="3.33701">
        <ele>163.5</ele>
        <time>2025-10-20T14:06:56.000Z</time>
      </trkpt>
      <trkpt lat="49.33462" lon="3.33701">
        <ele>163.5</ele>
        <time>2025-10-20T14:06:57.000Z</time>
      </trkpt>
      <trkpt lat="49.33462" lon="3.33701">
        <ele>163.5</ele>
        <time>2025-10-20T14:06:58.000Z</time>
      </trkpt>
      <trkpt lat="49.33462" lon="3.33701">
        <ele>163.5</ele>
        <time>2025-10-20T14:06:59.000Z</time>
      </trkpt>
      <trkpt lat="49.33462" lon="3.33701">
        <ele>163.5</ele>
        <time>2025-10-20T14:07:00.000Z</time>
      </trkpt>
      <trkpt lat="49.33462" lon="3.33701">
        <ele>163.5</ele>
        <time>2025-10-20T14:07:01.000Z</time>
      </trkpt>
      <trkpt lat="49.33462" lon="3.33701">
        <ele>163.5</ele>
        <time>2025-10-20T14:07:02.000Z</time>
      </trkpt>
      <trkpt lat="49.33462" lon="3.33701">
        <ele>163.5</ele>
        <time>2025-10-20T14:07:03.000Z</time>
      </trkpt>
      <trkpt lat="49.33462" lon="3.33701">
        <ele>163.5</ele>
        <time>2025-10-20T14:07:04.000Z</time>
      </trkpt>
      <trkpt lat="49.33462" lon="3.33701">
        <ele>163.5</ele>
        <time>2025-10-20T14:07:05.000Z</time>
      </trkpt>
      <trkpt lat="49.33462" lon="3.33701">
        <ele>163.5</ele>
        <time>2025-10-20T14:07:06.000Z</time>
      </trkpt>
      <trkpt lat="49.33462" lon="3.33701">
        <ele>163.5</ele>
        <time>2025-10-20T14:07:07.000Z</time>
      </trkpt>
      <trkpt lat="49.33462" lon="3.33701">
        <ele>163.5</ele>
        <time>2025-10-20T14:07:08.000Z</time>
      </trkpt>
      <trkpt lat="49.33462" lon="3.33701">
        <ele>163.5</ele>
        <time>2025-10-20T14:07:09.000Z</time>
      </trkpt>
      <trkpt lat="49.33462" lon="3.33701">
        <ele>163.5</ele>
        <time>2025-10-20T14:07:10.000Z</time>
      </trkpt>
      <trkpt lat="49.33462" lon="3.33701">
        <ele>163.5</ele>
        <time>2025-10-20T14:07:11.000Z</time>
      </trkpt>
      <trkpt lat="49.33462" lon="3.33701">
        <ele>163.5</ele>
        <time>2025-10-20T14:07:12.000Z</time>
      </trkpt>
      <trkpt lat="49.33462" lon="3.33701">
        <ele>163.5</ele>
        <time>2025-10-20T14:07:13.000Z</time>
      </trkpt>
      <trkpt lat="49.33462" lon="3.33701">
        <ele>163.5</ele>
        <time>2025-10-20T14:07:14.000Z</time>
      </trkpt>
      <trkpt lat="49.33462" lon="3.33701">
        <ele>163.5</ele>
        <time>2025-10-20T14:07:15.000Z</time>
      </trkpt>
      <trkpt lat="49.33462" lon="3.33701">
        <ele>163.5</ele>
        <time>2025-10-20T14:07:16.000Z</time>
      </trkpt>
      <trkpt lat="49.33462" lon="3.33701">
        <ele>163.5</ele>
        <time>2025-10-20T14:07:17.000Z</time>
      </trkpt>
      <trkpt lat="49.33462" lon="3.33701">
        <ele>163.5</ele>
        <time>2025-10-20T14:07:18.000Z</time>
      </trkpt>
      <trkpt lat="49.33462" lon="3.33701">
        <ele>163.5</ele>
        <time>2025-10-20T14:07:19.000Z</time>
      </trkpt>
      <trkpt lat="49.33462" lon="3.33701">
        <ele>163.5</ele>
        <time>2025-10-20T14:07:20.000Z</time>
      </trkpt>
      <trkpt lat="49.33462" lon="3.33701">
        <ele>163.5</ele>
        <time>2025-10-20T14:07:21.000Z</time>
      </trkpt>
      <trkpt lat="49.33462" lon="3.33701">
        <ele>163.5</ele>
        <time>2025-10-20T14:07:22.000Z</time>
      </trkpt>
      <trkpt lat="49.3346" lon="3.33702">
        <ele>163.8</ele>
        <time>2025-10-20T14:07:23.000Z</time>
      </trkpt>
      <trkpt lat="49.3346" lon="3.33703">
        <ele>163.6</ele>
        <time>2025-10-20T14:07:24.000Z</time>
      </trkpt>
      <trkpt lat="49.33459" lon="3.33704">
        <ele>163.2</ele>
        <time>2025-10-20T14:07:25.000Z</time>
      </trkpt>
      <trkpt lat="49.33458" lon="3.33705">
        <ele>162.9</ele>
        <time>2025-10-20T14:07:26.000Z</time>
      </trkpt>
      <trkpt lat="49.33458" lon="3.33706">
        <ele>162.9</ele>
        <time>2025-10-20T14:07:27.000Z</time>
      </trkpt>
      <trkpt lat="49.33457" lon="3.33706">
        <ele>163</ele>
        <time>2025-10-20T14:07:28.000Z</time>
      </trkpt>
      <trkpt lat="49.33456" lon="3.33708">
        <ele>163.2</ele>
        <time>2025-10-20T14:07:29.000Z</time>
      </trkpt>
      <trkpt lat="49.33455" lon="3.33709">
        <ele>163.4</ele>
        <time>2025-10-20T14:07:30.000Z</time>
      </trkpt>
      <trkpt lat="49.33455" lon="3.3371">
        <ele>163.4</ele>
        <time>2025-10-20T14:07:31.000Z</time>
      </trkpt>
      <trkpt lat="49.33454" lon="3.33711">
        <ele>163.5</ele>
        <time>2025-10-20T14:07:32.000Z</time>
      </trkpt>
      <trkpt lat="49.33454" lon="3.33713">
        <ele>163.7</ele>
        <time>2025-10-20T14:07:33.000Z</time>
      </trkpt>
      <trkpt lat="49.33453" lon="3.33714">
        <ele>164</ele>
        <time>2025-10-20T14:07:34.000Z</time>
      </trkpt>
      <trkpt lat="49.33452" lon="3.33716">
        <ele>164.4</ele>
        <time>2025-10-20T14:07:35.000Z</time>
      </trkpt>
      <trkpt lat="49.33451" lon="3.33717">
        <ele>164.6</ele>
        <time>2025-10-20T14:07:36.000Z</time>
      </trkpt>
      <trkpt lat="49.33451" lon="3.33719">
        <ele>165.1</ele>
        <time>2025-10-20T14:07:37.000Z</time>
      </trkpt>
      <trkpt lat="49.3345" lon="3.3372">
        <ele>165.5</ele>
        <time>2025-10-20T14:07:38.000Z</time>
      </trkpt>
      <trkpt lat="49.3345" lon="3.33721">
        <ele>165.9</ele>
        <time>2025-10-20T14:07:39.000Z</time>
      </trkpt>
      <trkpt lat="49.33449" lon="3.33723">
        <ele>166.4</ele>
        <time>2025-10-20T14:07:40.000Z</time>
      </trkpt>
      <trkpt lat="49.33449" lon="3.33724">
        <ele>167</ele>
        <time>2025-10-20T14:07:41.000Z</time>
      </trkpt>
      <trkpt lat="49.33449" lon="3.33726">
        <ele>167.6</ele>
        <time>2025-10-20T14:07:42.000Z</time>
      </trkpt>
      <trkpt lat="49.33448" lon="3.33728">
        <ele>168</ele>
        <time>2025-10-20T14:07:43.000Z</time>
      </trkpt>
      <trkpt lat="49.33447" lon="3.3373">
        <ele>168.4</ele>
        <time>2025-10-20T14:07:44.000Z</time>
      </trkpt>
      <trkpt lat="49.33446" lon="3.33731">
        <ele>168.7</ele>
        <time>2025-10-20T14:07:45.000Z</time>
      </trkpt>
      <trkpt lat="49.33445" lon="3.33733">
        <ele>169</ele>
        <time>2025-10-20T14:07:46.000Z</time>
      </trkpt>
      <trkpt lat="49.33445" lon="3.33735">
        <ele>169.5</ele>
        <time>2025-10-20T14:07:47.000Z</time>
      </trkpt>
      <trkpt lat="49.33444" lon="3.33737">
        <ele>169.9</ele>
        <time>2025-10-20T14:07:48.000Z</time>
      </trkpt>
      <trkpt lat="49.33442" lon="3.33738">
        <ele>170.1</ele>
        <time>2025-10-20T14:07:49.000Z</time>
      </trkpt>
      <trkpt lat="49.33441" lon="3.33739">
        <ele>170.1</ele>
        <time>2025-10-20T14:07:50.000Z</time>
      </trkpt>
      <trkpt lat="49.3344" lon="3.3374">
        <ele>170</ele>
        <time>2025-10-20T14:07:51.000Z</time>
      </trkpt>
      <trkpt lat="49.3344" lon="3.33742">
        <ele>170.1</ele>
        <time>2025-10-20T14:07:52.000Z</time>
      </trkpt>
      <trkpt lat="49.33439" lon="3.33743">
        <ele>170.1</ele>
        <time>2025-10-20T14:07:53.000Z</time>
      </trkpt>
      <trkpt lat="49.33438" lon="3.33745">
        <ele>170</ele>
        <time>2025-10-20T14:07:54.000Z</time>
      </trkpt>
      <trkpt lat="49.33438" lon="3.33746">
        <ele>170</ele>
        <time>2025-10-20T14:07:55.000Z</time>
      </trkpt>
      <trkpt lat="49.33438" lon="3.33748">
        <ele>170.1</ele>
        <time>2025-10-20T14:07:56.000Z</time>
      </trkpt>
      <trkpt lat="49.33437" lon="3.33749">
        <ele>170</ele>
        <time>2025-10-20T14:07:57.000Z</time>
      </trkpt>
      <trkpt lat="49.33437" lon="3.3375">
        <ele>170.4</ele>
        <time>2025-10-20T14:07:58.000Z</time>
      </trkpt>
      <trkpt lat="49.33436" lon="3.33751">
        <ele>170.9</ele>
        <time>2025-10-20T14:07:59.000Z</time>
      </trkpt>
      <trkpt lat="49.33435" lon="3.33752">
        <ele>170.9</ele>
        <time>2025-10-20T14:08:00.000Z</time>
      </trkpt>
      <trkpt lat="49.33434" lon="3.33753">
        <ele>170.9</ele>
        <time>2025-10-20T14:08:01.000Z</time>
      </trkpt>
      <trkpt lat="49.33433" lon="3.33754">
        <ele>170.7</ele>
        <time>2025-10-20T14:08:02.000Z</time>
      </trkpt>
      <trkpt lat="49.33432" lon="3.33755">
        <ele>170.7</ele>
        <time>2025-10-20T14:08:03.000Z</time>
      </trkpt>
      <trkpt lat="49.33432" lon="3.33756">
        <ele>170.6</ele>
        <time>2025-10-20T14:08:04.000Z</time>
      </trkpt>
      <trkpt lat="49.33431" lon="3.33757">
        <ele>171.2</ele>
        <time>2025-10-20T14:08:05.000Z</time>
      </trkpt>
      <trkpt lat="49.33429" lon="3.33759">
        <ele>171.9</ele>
        <time>2025-10-20T14:08:06.000Z</time>
      </trkpt>
      <trkpt lat="49.33428" lon="3.33759">
        <ele>172.7</ele>
        <time>2025-10-20T14:08:07.000Z</time>
      </trkpt>
      <trkpt lat="49.33427" lon="3.3376">
        <ele>173.1</ele>
        <time>2025-10-20T14:08:08.000Z</time>
      </trkpt>
      <trkpt lat="49.33426" lon="3.33762">
        <ele>172.9</ele>
        <time>2025-10-20T14:08:09.000Z</time>
      </trkpt>
      <trkpt lat="49.33425" lon="3.33763">
        <ele>173.4</ele>
        <time>2025-10-20T14:08:10.000Z</time>
      </trkpt>
      <trkpt lat="49.33424" lon="3.33764">
        <ele>173.7</ele>
        <time>2025-10-20T14:08:11.000Z</time>
      </trkpt>
      <trkpt lat="49.33423" lon="3.33765">
        <ele>174.3</ele>
        <time>2025-10-20T14:08:12.000Z</time>
      </trkpt>
      <trkpt lat="49.33422" lon="3.33767">
        <ele>174.5</ele>
        <time>2025-10-20T14:08:13.000Z</time>
      </trkpt>
      <trkpt lat="49.3342" lon="3.33768">
        <ele>174.8</ele>
        <time>2025-10-20T14:08:14.000Z</time>
      </trkpt>
      <trkpt lat="49.33419" lon="3.33768">
        <ele>174.6</ele>
        <time>2025-10-20T14:08:15.000Z</time>
      </trkpt>
      <trkpt lat="49.33418" lon="3.33769">
        <ele>174.5</ele>
        <time>2025-10-20T14:08:16.000Z</time>
      </trkpt>
      <trkpt lat="49.33417" lon="3.33771">
        <ele>174.4</ele>
        <time>2025-10-20T14:08:17.000Z</time>
      </trkpt>
      <trkpt lat="49.33416" lon="3.33772">
        <ele>174</ele>
        <time>2025-10-20T14:08:18.000Z</time>
      </trkpt>
      <trkpt lat="49.33415" lon="3.33774">
        <ele>173.5</ele>
        <time>2025-10-20T14:08:19.000Z</time>
      </trkpt>
      <trkpt lat="49.33414" lon="3.33775">
        <ele>173.6</ele>
        <time>2025-10-20T14:08:20.000Z</time>
      </trkpt>
      <trkpt lat="49.33413" lon="3.33777">
        <ele>173.4</ele>
        <time>2025-10-20T14:08:21.000Z</time>
      </trkpt>
      <trkpt lat="49.33412" lon="3.33778">
        <ele>173.3</ele>
        <time>2025-10-20T14:08:22.000Z</time>
      </trkpt>
      <trkpt lat="49.33412" lon="3.33779">
        <ele>173.5</ele>
        <time>2025-10-20T14:08:23.000Z</time>
      </trkpt>
      <trkpt lat="49.33411" lon="3.33781">
        <ele>173.6</ele>
        <time>2025-10-20T14:08:24.000Z</time>
      </trkpt>
      <trkpt lat="49.3341" lon="3.33782">
        <ele>173.7</ele>
        <time>2025-10-20T14:08:25.000Z</time>
      </trkpt>
      <trkpt lat="49.33409" lon="3.33783">
        <ele>173.9</ele>
        <time>2025-10-20T14:08:26.000Z</time>
      </trkpt>
      <trkpt lat="49.33408" lon="3.33783">
        <ele>174.2</ele>
        <time>2025-10-20T14:08:27.000Z</time>
      </trkpt>
      <trkpt lat="49.33407" lon="3.33784">
        <ele>174</ele>
        <time>2025-10-20T14:08:28.000Z</time>
      </trkpt>
      <trkpt lat="49.33405" lon="3.33784">
        <ele>174.6</ele>
        <time>2025-10-20T14:08:29.000Z</time>
      </trkpt>
      <trkpt lat="49.33404" lon="3.33784">
        <ele>175.1</ele>
        <time>2025-10-20T14:08:30.000Z</time>
      </trkpt>
      <trkpt lat="49.33402" lon="3.33785">
        <ele>175.7</ele>
        <time>2025-10-20T14:08:31.000Z</time>
      </trkpt>
      <trkpt lat="49.33401" lon="3.33786">
        <ele>176.1</ele>
        <time>2025-10-20T14:08:32.000Z</time>
      </trkpt>
      <trkpt lat="49.334" lon="3.33786">
        <ele>176.2</ele>
        <time>2025-10-20T14:08:33.000Z</time>
      </trkpt>
      <trkpt lat="49.33399" lon="3.33787">
        <ele>176.5</ele>
        <time>2025-10-20T14:08:34.000Z</time>
      </trkpt>
      <trkpt lat="49.33399" lon="3.33788">
        <ele>177.2</ele>
        <time>2025-10-20T14:08:35.000Z</time>
      </trkpt>
      <trkpt lat="49.33398" lon="3.3379">
        <ele>177.6</ele>
        <time>2025-10-20T14:08:36.000Z</time>
      </trkpt>
      <trkpt lat="49.33397" lon="3.33792">
        <ele>178.3</ele>
        <time>2025-10-20T14:08:37.000Z</time>
      </trkpt>
      <trkpt lat="49.33396" lon="3.33793">
        <ele>178.8</ele>
        <time>2025-10-20T14:08:38.000Z</time>
      </trkpt>
      <trkpt lat="49.33395" lon="3.33794">
        <ele>179.4</ele>
        <time>2025-10-20T14:08:39.000Z</time>
      </trkpt>
      <trkpt lat="49.33395" lon="3.33796">
        <ele>180.2</ele>
        <time>2025-10-20T14:08:40.000Z</time>
      </trkpt>
      <trkpt lat="49.33394" lon="3.33797">
        <ele>180.5</ele>
        <time>2025-10-20T14:08:41.000Z</time>
      </trkpt>
      <trkpt lat="49.33393" lon="3.33798">
        <ele>180.8</ele>
        <time>2025-10-20T14:08:42.000Z</time>
      </trkpt>
      <trkpt lat="49.33392" lon="3.338">
        <ele>180.6</ele>
        <time>2025-10-20T14:08:43.000Z</time>
      </trkpt>
      <trkpt lat="49.3339" lon="3.33801">
        <ele>180.4</ele>
        <time>2025-10-20T14:08:44.000Z</time>
      </trkpt>
      <trkpt lat="49.3339" lon="3.33802">
        <ele>180.2</ele>
        <time>2025-10-20T14:08:45.000Z</time>
      </trkpt>
      <trkpt lat="49.33389" lon="3.33802">
        <ele>180.2</ele>
        <time>2025-10-20T14:08:46.000Z</time>
      </trkpt>
      <trkpt lat="49.33388" lon="3.33803">
        <ele>180.2</ele>
        <time>2025-10-20T14:08:47.000Z</time>
      </trkpt>
      <trkpt lat="49.33387" lon="3.33803">
        <ele>180.1</ele>
        <time>2025-10-20T14:08:48.000Z</time>
      </trkpt>
      <trkpt lat="49.33386" lon="3.33804">
        <ele>180</ele>
        <time>2025-10-20T14:08:49.000Z</time>
      </trkpt>
      <trkpt lat="49.33385" lon="3.33804">
        <ele>179.8</ele>
        <time>2025-10-20T14:08:50.000Z</time>
      </trkpt>
      <trkpt lat="49.33384" lon="3.33804">
        <ele>179.6</ele>
        <time>2025-10-20T14:08:51.000Z</time>
      </trkpt>
      <trkpt lat="49.33383" lon="3.33805">
        <ele>179</ele>
        <time>2025-10-20T14:08:52.000Z</time>
      </trkpt>
      <trkpt lat="49.33382" lon="3.33805">
        <ele>178.9</ele>
        <time>2025-10-20T14:08:53.000Z</time>
      </trkpt>
      <trkpt lat="49.33381" lon="3.33807">
        <ele>179</ele>
        <time>2025-10-20T14:08:54.000Z</time>
      </trkpt>
      <trkpt lat="49.33381" lon="3.33809">
        <ele>179.2</ele>
        <time>2025-10-20T14:08:55.000Z</time>
      </trkpt>
      <trkpt lat="49.3338" lon="3.33812">
        <ele>179.2</ele>
        <time>2025-10-20T14:08:56.000Z</time>
      </trkpt>
      <trkpt lat="49.33379" lon="3.33814">
        <ele>179.1</ele>
        <time>2025-10-20T14:08:57.000Z</time>
      </trkpt>
      <trkpt lat="49.33379" lon="3.33815">
        <ele>178.8</ele>
        <time>2025-10-20T14:08:58.000Z</time>
      </trkpt>
      <trkpt lat="49.33379" lon="3.33817">
        <ele>178.6</ele>
        <time>2025-10-20T14:08:59.000Z</time>
      </trkpt>
      <trkpt lat="49.33379" lon="3.33819">
        <ele>178.2</ele>
        <time>2025-10-20T14:09:00.000Z</time>
      </trkpt>
      <trkpt lat="49.33379" lon="3.33821">
        <ele>177.9</ele>
        <time>2025-10-20T14:09:01.000Z</time>
      </trkpt>
      <trkpt lat="49.33378" lon="3.33823">
        <ele>177.8</ele>
        <time>2025-10-20T14:09:02.000Z</time>
      </trkpt>
      <trkpt lat="49.33378" lon="3.33825">
        <ele>177.9</ele>
        <time>2025-10-20T14:09:03.000Z</time>
      </trkpt>
      <trkpt lat="49.33377" lon="3.33826">
        <ele>177.6</ele>
        <time>2025-10-20T14:09:04.000Z</time>
      </trkpt>
      <trkpt lat="49.33377" lon="3.33826">
        <ele>177.5</ele>
        <time>2025-10-20T14:09:05.000Z</time>
      </trkpt>
      <trkpt lat="49.33377" lon="3.33827">
        <ele>177.5</ele>
        <time>2025-10-20T14:09:06.000Z</time>
      </trkpt>
      <trkpt lat="49.33377" lon="3.33828">
        <ele>177.2</ele>
        <time>2025-10-20T14:09:07.000Z</time>
      </trkpt>
      <trkpt lat="49.33377" lon="3.33829">
        <ele>177</ele>
        <time>2025-10-20T14:09:08.000Z</time>
      </trkpt>
      <trkpt lat="49.33377" lon="3.3383">
        <ele>177</ele>
        <time>2025-10-20T14:09:09.000Z</time>
      </trkpt>
      <trkpt lat="49.33377" lon="3.33832">
        <ele>177.1</ele>
        <time>2025-10-20T14:09:10.000Z</time>
      </trkpt>
      <trkpt lat="49.33377" lon="3.33834">
        <ele>177.3</ele>
        <time>2025-10-20T14:09:11.000Z</time>
      </trkpt>
      <trkpt lat="49.33378" lon="3.33836">
        <ele>177.2</ele>
        <time>2025-10-20T14:09:12.000Z</time>
      </trkpt>
      <trkpt lat="49.33378" lon="3.33839">
        <ele>176.9</ele>
        <time>2025-10-20T14:09:13.000Z</time>
      </trkpt>
      <trkpt lat="49.33379" lon="3.33841">
        <ele>176.9</ele>
        <time>2025-10-20T14:09:14.000Z</time>
      </trkpt>
      <trkpt lat="49.33379" lon="3.33843">
        <ele>176.9</ele>
        <time>2025-10-20T14:09:15.000Z</time>
      </trkpt>
      <trkpt lat="49.33379" lon="3.33845">
        <ele>176.8</ele>
        <time>2025-10-20T14:09:16.000Z</time>
      </trkpt>
      <trkpt lat="49.33379" lon="3.33846">
        <ele>177.1</ele>
        <time>2025-10-20T14:09:17.000Z</time>
      </trkpt>
      <trkpt lat="49.33379" lon="3.33848">
        <ele>177.1</ele>
        <time>2025-10-20T14:09:18.000Z</time>
      </trkpt>
      <trkpt lat="49.33379" lon="3.33849">
        <ele>177.3</ele>
        <time>2025-10-20T14:09:19.000Z</time>
      </trkpt>
      <trkpt lat="49.33379" lon="3.33851">
        <ele>177.4</ele>
        <time>2025-10-20T14:09:20.000Z</time>
      </trkpt>
      <trkpt lat="49.33379" lon="3.33852">
        <ele>177.6</ele>
        <time>2025-10-20T14:09:21.000Z</time>
      </trkpt>
      <trkpt lat="49.33379" lon="3.33854">
        <ele>177.7</ele>
        <time>2025-10-20T14:09:22.000Z</time>
      </trkpt>
      <trkpt lat="49.33379" lon="3.33856">
        <ele>177.9</ele>
        <time>2025-10-20T14:09:23.000Z</time>
      </trkpt>
      <trkpt lat="49.33379" lon="3.33858">
        <ele>177.9</ele>
        <time>2025-10-20T14:09:24.000Z</time>
      </trkpt>
      <trkpt lat="49.3338" lon="3.33861">
        <ele>178.1</ele>
        <time>2025-10-20T14:09:25.000Z</time>
      </trkpt>
      <trkpt lat="49.33379" lon="3.33863">
        <ele>178.2</ele>
        <time>2025-10-20T14:09:26.000Z</time>
      </trkpt>
      <trkpt lat="49.3338" lon="3.33865">
        <ele>178.3</ele>
        <time>2025-10-20T14:09:27.000Z</time>
      </trkpt>
      <trkpt lat="49.33381" lon="3.33866">
        <ele>178.2</ele>
        <time>2025-10-20T14:09:28.000Z</time>
      </trkpt>
      <trkpt lat="49.33381" lon="3.33867">
        <ele>178.5</ele>
        <time>2025-10-20T14:09:29.000Z</time>
      </trkpt>
      <trkpt lat="49.33381" lon="3.33868">
        <ele>178.7</ele>
        <time>2025-10-20T14:09:30.000Z</time>
      </trkpt>
      <trkpt lat="49.33381" lon="3.3387">
        <ele>178.7</ele>
        <time>2025-10-20T14:09:31.000Z</time>
      </trkpt>
      <trkpt lat="49.33381" lon="3.33871">
        <ele>178.7</ele>
        <time>2025-10-20T14:09:32.000Z</time>
      </trkpt>
      <trkpt lat="49.33382" lon="3.33873">
        <ele>178.7</ele>
        <time>2025-10-20T14:09:33.000Z</time>
      </trkpt>
      <trkpt lat="49.33382" lon="3.33875">
        <ele>178.8</ele>
        <time>2025-10-20T14:09:34.000Z</time>
      </trkpt>
      <trkpt lat="49.33383" lon="3.33876">
        <ele>178.9</ele>
        <time>2025-10-20T14:09:35.000Z</time>
      </trkpt>
      <trkpt lat="49.33383" lon="3.33878">
        <ele>179.3</ele>
        <time>2025-10-20T14:09:36.000Z</time>
      </trkpt>
      <trkpt lat="49.33383" lon="3.3388">
        <ele>179.4</ele>
        <time>2025-10-20T14:09:37.000Z</time>
      </trkpt>
      <trkpt lat="49.33383" lon="3.33881">
        <ele>179.7</ele>
        <time>2025-10-20T14:09:38.000Z</time>
      </trkpt>
      <trkpt lat="49.33384" lon="3.33883">
        <ele>179.4</ele>
        <time>2025-10-20T14:09:39.000Z</time>
      </trkpt>
      <trkpt lat="49.33384" lon="3.33885">
        <ele>179.3</ele>
        <time>2025-10-20T14:09:40.000Z</time>
      </trkpt>
      <trkpt lat="49.33384" lon="3.33888">
        <ele>179.4</ele>
        <time>2025-10-20T14:09:41.000Z</time>
      </trkpt>
      <trkpt lat="49.33385" lon="3.3389">
        <ele>179.4</ele>
        <time>2025-10-20T14:09:42.000Z</time>
      </trkpt>
      <trkpt lat="49.33385" lon="3.33893">
        <ele>179.3</ele>
        <time>2025-10-20T14:09:43.000Z</time>
      </trkpt>
      <trkpt lat="49.33386" lon="3.33896">
        <ele>178.9</ele>
        <time>2025-10-20T14:09:44.000Z</time>
      </trkpt>
      <trkpt lat="49.33386" lon="3.33897">
        <ele>178.8</ele>
        <time>2025-10-20T14:09:45.000Z</time>
      </trkpt>
      <trkpt lat="49.33386" lon="3.33899">
        <ele>178.8</ele>
        <time>2025-10-20T14:09:46.000Z</time>
      </trkpt>
      <trkpt lat="49.33386" lon="3.33899">
        <ele>179</ele>
        <time>2025-10-20T14:09:47.000Z</time>
      </trkpt>
      <trkpt lat="49.33386" lon="3.339">
        <ele>179.4</ele>
        <time>2025-10-20T14:09:48.000Z</time>
      </trkpt>
      <trkpt lat="49.33386" lon="3.33901">
        <ele>179.8</ele>
        <time>2025-10-20T14:09:49.000Z</time>
      </trkpt>
      <trkpt lat="49.33387" lon="3.33901">
        <ele>180.6</ele>
        <time>2025-10-20T14:09:50.000Z</time>
      </trkpt>
      <trkpt lat="49.33386" lon="3.33903">
        <ele>180.9</ele>
        <time>2025-10-20T14:09:51.000Z</time>
      </trkpt>
      <trkpt lat="49.33387" lon="3.33904">
        <ele>181.1</ele>
        <time>2025-10-20T14:09:52.000Z</time>
      </trkpt>
      <trkpt lat="49.33387" lon="3.33905">
        <ele>181.4</ele>
        <time>2025-10-20T14:09:53.000Z</time>
      </trkpt>
      <trkpt lat="49.33387" lon="3.33907">
        <ele>181.6</ele>
        <time>2025-10-20T14:09:54.000Z</time>
      </trkpt>
      <trkpt lat="49.33388" lon="3.33908">
        <ele>181.9</ele>
        <time>2025-10-20T14:09:55.000Z</time>
      </trkpt>
      <trkpt lat="49.33388" lon="3.33911">
        <ele>182.3</ele>
        <time>2025-10-20T14:09:56.000Z</time>
      </trkpt>
      <trkpt lat="49.33389" lon="3.33913">
        <ele>182.4</ele>
        <time>2025-10-20T14:09:57.000Z</time>
      </trkpt>
      <trkpt lat="49.33389" lon="3.33915">
        <ele>182.7</ele>
        <time>2025-10-20T14:09:58.000Z</time>
      </trkpt>
      <trkpt lat="49.33389" lon="3.33917">
        <ele>182.9</ele>
        <time>2025-10-20T14:09:59.000Z</time>
      </trkpt>
      <trkpt lat="49.3339" lon="3.3392">
        <ele>182.8</ele>
        <time>2025-10-20T14:10:00.000Z</time>
      </trkpt>
      <trkpt lat="49.3339" lon="3.33923">
        <ele>183</ele>
        <time>2025-10-20T14:10:01.000Z</time>
      </trkpt>
      <trkpt lat="49.33391" lon="3.33925">
        <ele>183</ele>
        <time>2025-10-20T14:10:02.000Z</time>
      </trkpt>
      <trkpt lat="49.33391" lon="3.33927">
        <ele>183.1</ele>
        <time>2025-10-20T14:10:03.000Z</time>
      </trkpt>
      <trkpt lat="49.33391" lon="3.33928">
        <ele>183.4</ele>
        <time>2025-10-20T14:10:04.000Z</time>
      </trkpt>
      <trkpt lat="49.33391" lon="3.3393">
        <ele>183.5</ele>
        <time>2025-10-20T14:10:05.000Z</time>
      </trkpt>
      <trkpt lat="49.33391" lon="3.33932">
        <ele>183.8</ele>
        <time>2025-10-20T14:10:06.000Z</time>
      </trkpt>
      <trkpt lat="49.33392" lon="3.33934">
        <ele>183.8</ele>
        <time>2025-10-20T14:10:07.000Z</time>
      </trkpt>
      <trkpt lat="49.33392" lon="3.33936">
        <ele>184</ele>
        <time>2025-10-20T14:10:08.000Z</time>
      </trkpt>
      <trkpt lat="49.33392" lon="3.33937">
        <ele>184.2</ele>
        <time>2025-10-20T14:10:09.000Z</time>
      </trkpt>
      <trkpt lat="49.33392" lon="3.33939">
        <ele>184.5</ele>
        <time>2025-10-20T14:10:10.000Z</time>
      </trkpt>
      <trkpt lat="49.33392" lon="3.33941">
        <ele>184.7</ele>
        <time>2025-10-20T14:10:11.000Z</time>
      </trkpt>
      <trkpt lat="49.33392" lon="3.33943">
        <ele>185</ele>
        <time>2025-10-20T14:10:12.000Z</time>
      </trkpt>
      <trkpt lat="49.33391" lon="3.33945">
        <ele>185</ele>
        <time>2025-10-20T14:10:13.000Z</time>
      </trkpt>
      <trkpt lat="49.33391" lon="3.33948">
        <ele>185</ele>
        <time>2025-10-20T14:10:14.000Z</time>
      </trkpt>
      <trkpt lat="49.33392" lon="3.3395">
        <ele>185.2</ele>
        <time>2025-10-20T14:10:15.000Z</time>
      </trkpt>
      <trkpt lat="49.33392" lon="3.33953">
        <ele>185.5</ele>
        <time>2025-10-20T14:10:16.000Z</time>
      </trkpt>
      <trkpt lat="49.33392" lon="3.33955">
        <ele>185.6</ele>
        <time>2025-10-20T14:10:17.000Z</time>
      </trkpt>
      <trkpt lat="49.33392" lon="3.33958">
        <ele>185.7</ele>
        <time>2025-10-20T14:10:18.000Z</time>
      </trkpt>
      <trkpt lat="49.33392" lon="3.3396">
        <ele>185.8</ele>
        <time>2025-10-20T14:10:19.000Z</time>
      </trkpt>
      <trkpt lat="49.33392" lon="3.33962">
        <ele>186.1</ele>
        <time>2025-10-20T14:10:20.000Z</time>
      </trkpt>
      <trkpt lat="49.33392" lon="3.33963">
        <ele>186.3</ele>
        <time>2025-10-20T14:10:21.000Z</time>
      </trkpt>
      <trkpt lat="49.33392" lon="3.33965">
        <ele>186.7</ele>
        <time>2025-10-20T14:10:22.000Z</time>
      </trkpt>
      <trkpt lat="49.33392" lon="3.33966">
        <ele>186.9</ele>
        <time>2025-10-20T14:10:23.000Z</time>
      </trkpt>
      <trkpt lat="49.33392" lon="3.33968">
        <ele>187.3</ele>
        <time>2025-10-20T14:10:24.000Z</time>
      </trkpt>
      <trkpt lat="49.33392" lon="3.3397">
        <ele>187.5</ele>
        <time>2025-10-20T14:10:25.000Z</time>
      </trkpt>
      <trkpt lat="49.33392" lon="3.33973">
        <ele>187.5</ele>
        <time>2025-10-20T14:10:26.000Z</time>
      </trkpt>
      <trkpt lat="49.33392" lon="3.33975">
        <ele>187.5</ele>
        <time>2025-10-20T14:10:27.000Z</time>
      </trkpt>
      <trkpt lat="49.33392" lon="3.33978">
        <ele>187.5</ele>
        <time>2025-10-20T14:10:28.000Z</time>
      </trkpt>
      <trkpt lat="49.33392" lon="3.3398">
        <ele>187.8</ele>
        <time>2025-10-20T14:10:29.000Z</time>
      </trkpt>
      <trkpt lat="49.33392" lon="3.33983">
        <ele>187.9</ele>
        <time>2025-10-20T14:10:30.000Z</time>
      </trkpt>
      <trkpt lat="49.33392" lon="3.33986">
        <ele>187.9</ele>
        <time>2025-10-20T14:10:31.000Z</time>
      </trkpt>
      <trkpt lat="49.33392" lon="3.33989">
        <ele>187.7</ele>
        <time>2025-10-20T14:10:32.000Z</time>
      </trkpt>
      <trkpt lat="49.33393" lon="3.33993">
        <ele>187.5</ele>
        <time>2025-10-20T14:10:33.000Z</time>
      </trkpt>
      <trkpt lat="49.33394" lon="3.33996">
        <ele>187.3</ele>
        <time>2025-10-20T14:10:34.000Z</time>
      </trkpt>
      <trkpt lat="49.33393" lon="3.33998">
        <ele>187.1</ele>
        <time>2025-10-20T14:10:35.000Z</time>
      </trkpt>
      <trkpt lat="49.33394" lon="3.34001">
        <ele>186.9</ele>
        <time>2025-10-20T14:10:36.000Z</time>
      </trkpt>
      <trkpt lat="49.33393" lon="3.34002">
        <ele>186.8</ele>
        <time>2025-10-20T14:10:37.000Z</time>
      </trkpt>
      <trkpt lat="49.33393" lon="3.34004">
        <ele>186.8</ele>
        <time>2025-10-20T14:10:38.000Z</time>
      </trkpt>
      <trkpt lat="49.33393" lon="3.34006">
        <ele>186.9</ele>
        <time>2025-10-20T14:10:39.000Z</time>
      </trkpt>
      <trkpt lat="49.33394" lon="3.34009">
        <ele>186.7</ele>
        <time>2025-10-20T14:10:40.000Z</time>
      </trkpt>
      <trkpt lat="49.33394" lon="3.34011">
        <ele>186.8</ele>
        <time>2025-10-20T14:10:41.000Z</time>
      </trkpt>
      <trkpt lat="49.33396" lon="3.34014">
        <ele>186.6</ele>
        <time>2025-10-20T14:10:42.000Z</time>
      </trkpt>
      <trkpt lat="49.33397" lon="3.34017">
        <ele>186.6</ele>
        <time>2025-10-20T14:10:43.000Z</time>
      </trkpt>
      <trkpt lat="49.33398" lon="3.3402">
        <ele>186.7</ele>
        <time>2025-10-20T14:10:44.000Z</time>
      </trkpt>
      <trkpt lat="49.33399" lon="3.34023">
        <ele>186.6</ele>
        <time>2025-10-20T14:10:45.000Z</time>
      </trkpt>
      <trkpt lat="49.334" lon="3.34026">
        <ele>186.5</ele>
        <time>2025-10-20T14:10:46.000Z</time>
      </trkpt>
      <trkpt lat="49.334" lon="3.34029">
        <ele>186.4</ele>
        <time>2025-10-20T14:10:47.000Z</time>
      </trkpt>
      <trkpt lat="49.33401" lon="3.34032">
        <ele>186.3</ele>
        <time>2025-10-20T14:10:48.000Z</time>
      </trkpt>
      <trkpt lat="49.33401" lon="3.34034">
        <ele>186.3</ele>
        <time>2025-10-20T14:10:49.000Z</time>
      </trkpt>
      <trkpt lat="49.33402" lon="3.34036">
        <ele>186.1</ele>
        <time>2025-10-20T14:10:50.000Z</time>
      </trkpt>
      <trkpt lat="49.33403" lon="3.34039">
        <ele>185.5</ele>
        <time>2025-10-20T14:10:51.000Z</time>
      </trkpt>
      <trkpt lat="49.33404" lon="3.34041">
        <ele>185.2</ele>
        <time>2025-10-20T14:10:52.000Z</time>
      </trkpt>
      <trkpt lat="49.33405" lon="3.34043">
        <ele>185</ele>
        <time>2025-10-20T14:10:53.000Z</time>
      </trkpt>
      <trkpt lat="49.33405" lon="3.34045">
        <ele>184.7</ele>
        <time>2025-10-20T14:10:54.000Z</time>
      </trkpt>
      <trkpt lat="49.33405" lon="3.34046">
        <ele>184.7</ele>
        <time>2025-10-20T14:10:55.000Z</time>
      </trkpt>
      <trkpt lat="49.33406" lon="3.34048">
        <ele>184.7</ele>
        <time>2025-10-20T14:10:56.000Z</time>
      </trkpt>
      <trkpt lat="49.33407" lon="3.34049">
        <ele>184.5</ele>
        <time>2025-10-20T14:10:57.000Z</time>
      </trkpt>
      <trkpt lat="49.33407" lon="3.34051">
        <ele>184.4</ele>
        <time>2025-10-20T14:10:58.000Z</time>
      </trkpt>
      <trkpt lat="49.33407" lon="3.34053">
        <ele>184.6</ele>
        <time>2025-10-20T14:10:59.000Z</time>
      </trkpt>
      <trkpt lat="49.33407" lon="3.34054">
        <ele>185</ele>
        <time>2025-10-20T14:11:00.000Z</time>
      </trkpt>
      <trkpt lat="49.33407" lon="3.34056">
        <ele>185.2</ele>
        <time>2025-10-20T14:11:01.000Z</time>
      </trkpt>
      <trkpt lat="49.33407" lon="3.34058">
        <ele>185.6</ele>
        <time>2025-10-20T14:11:02.000Z</time>
      </trkpt>
      <trkpt lat="49.33408" lon="3.3406">
        <ele>185.7</ele>
        <time>2025-10-20T14:11:03.000Z</time>
      </trkpt>
      <trkpt lat="49.33408" lon="3.34062">
        <ele>185.9</ele>
        <time>2025-10-20T14:11:04.000Z</time>
      </trkpt>
      <trkpt lat="49.33408" lon="3.34064">
        <ele>186.3</ele>
        <time>2025-10-20T14:11:05.000Z</time>
      </trkpt>
      <trkpt lat="49.33409" lon="3.34065">
        <ele>186.8</ele>
        <time>2025-10-20T14:11:06.000Z</time>
      </trkpt>
      <trkpt lat="49.3341" lon="3.34067">
        <ele>187.1</ele>
        <time>2025-10-20T14:11:07.000Z</time>
      </trkpt>
      <trkpt lat="49.3341" lon="3.34069">
        <ele>187.4</ele>
        <time>2025-10-20T14:11:08.000Z</time>
      </trkpt>
      <trkpt lat="49.33411" lon="3.34071">
        <ele>187.4</ele>
        <time>2025-10-20T14:11:09.000Z</time>
      </trkpt>
      <trkpt lat="49.33412" lon="3.34072">
        <ele>187.5</ele>
        <time>2025-10-20T14:11:10.000Z</time>
      </trkpt>
      <trkpt lat="49.33413" lon="3.34075">
        <ele>187.6</ele>
        <time>2025-10-20T14:11:11.000Z</time>
      </trkpt>
      <trkpt lat="49.33414" lon="3.34077">
        <ele>187.6</ele>
        <time>2025-10-20T14:11:12.000Z</time>
      </trkpt>
      <trkpt lat="49.33414" lon="3.34079">
        <ele>187.6</ele>
        <time>2025-10-20T14:11:13.000Z</time>
      </trkpt>
      <trkpt lat="49.33415" lon="3.34081">
        <ele>187.6</ele>
        <time>2025-10-20T14:11:14.000Z</time>
      </trkpt>
      <trkpt lat="49.33415" lon="3.34082">
        <ele>187.5</ele>
        <time>2025-10-20T14:11:15.000Z</time>
      </trkpt>
      <trkpt lat="49.33416" lon="3.34083">
        <ele>187.2</ele>
        <time>2025-10-20T14:11:16.000Z</time>
      </trkpt>
      <trkpt lat="49.33417" lon="3.34084">
        <ele>187</ele>
        <time>2025-10-20T14:11:17.000Z</time>
      </trkpt>
      <trkpt lat="49.33417" lon="3.34086">
        <ele>186.7</ele>
        <time>2025-10-20T14:11:18.000Z</time>
      </trkpt>
      <trkpt lat="49.33418" lon="3.34088">
        <ele>186.6</ele>
        <time>2025-10-20T14:11:19.000Z</time>
      </trkpt>
      <trkpt lat="49.33419" lon="3.3409">
        <ele>186.4</ele>
        <time>2025-10-20T14:11:20.000Z</time>
      </trkpt>
      <trkpt lat="49.33419" lon="3.34093">
        <ele>186.1</ele>
        <time>2025-10-20T14:11:21.000Z</time>
      </trkpt>
      <trkpt lat="49.3342" lon="3.34096">
        <ele>185.7</ele>
        <time>2025-10-20T14:11:22.000Z</time>
      </trkpt>
      <trkpt lat="49.33421" lon="3.34098">
        <ele>185.3</ele>
        <time>2025-10-20T14:11:23.000Z</time>
      </trkpt>
      <trkpt lat="49.33422" lon="3.34101">
        <ele>184.8</ele>
        <time>2025-10-20T14:11:24.000Z</time>
      </trkpt>
      <trkpt lat="49.33423" lon="3.34104">
        <ele>184.5</ele>
        <time>2025-10-20T14:11:25.000Z</time>
      </trkpt>
      <trkpt lat="49.33424" lon="3.34107">
        <ele>184</ele>
        <time>2025-10-20T14:11:26.000Z</time>
      </trkpt>
      <trkpt lat="49.33424" lon="3.3411">
        <ele>183.4</ele>
        <time>2025-10-20T14:11:27.000Z</time>
      </trkpt>
      <trkpt lat="49.33425" lon="3.34112">
        <ele>183</ele>
        <time>2025-10-20T14:11:28.000Z</time>
      </trkpt>
      <trkpt lat="49.33425" lon="3.34114">
        <ele>182.4</ele>
        <time>2025-10-20T14:11:29.000Z</time>
      </trkpt>
      <trkpt lat="49.33425" lon="3.34116">
        <ele>182.1</ele>
        <time>2025-10-20T14:11:30.000Z</time>
      </trkpt>
      <trkpt lat="49.33425" lon="3.34118">
        <ele>181.8</ele>
        <time>2025-10-20T14:11:31.000Z</time>
      </trkpt>
      <trkpt lat="49.33426" lon="3.3412">
        <ele>181.9</ele>
        <time>2025-10-20T14:11:32.000Z</time>
      </trkpt>
      <trkpt lat="49.33426" lon="3.34124">
        <ele>182.1</ele>
        <time>2025-10-20T14:11:33.000Z</time>
      </trkpt>
      <trkpt lat="49.33427" lon="3.34126">
        <ele>182.1</ele>
        <time>2025-10-20T14:11:34.000Z</time>
      </trkpt>
      <trkpt lat="49.33427" lon="3.34129">
        <ele>181.8</ele>
        <time>2025-10-20T14:11:35.000Z</time>
      </trkpt>
      <trkpt lat="49.33427" lon="3.34131">
        <ele>181.2</ele>
        <time>2025-10-20T14:11:36.000Z</time>
      </trkpt>
      <trkpt lat="49.33428" lon="3.34133">
        <ele>180.9</ele>
        <time>2025-10-20T14:11:37.000Z</time>
      </trkpt>
      <trkpt lat="49.33428" lon="3.34135">
        <ele>180.5</ele>
        <time>2025-10-20T14:11:38.000Z</time>
      </trkpt>
      <trkpt lat="49.33428" lon="3.34137">
        <ele>180.1</ele>
        <time>2025-10-20T14:11:39.000Z</time>
      </trkpt>
      <trkpt lat="49.33429" lon="3.34138">
        <ele>179.7</ele>
        <time>2025-10-20T14:11:40.000Z</time>
      </trkpt>
      <trkpt lat="49.33429" lon="3.3414">
        <ele>179.7</ele>
        <time>2025-10-20T14:11:41.000Z</time>
      </trkpt>
      <trkpt lat="49.33429" lon="3.34141">
        <ele>179.8</ele>
        <time>2025-10-20T14:11:42.000Z</time>
      </trkpt>
      <trkpt lat="49.3343" lon="3.34144">
        <ele>179.7</ele>
        <time>2025-10-20T14:11:43.000Z</time>
      </trkpt>
      <trkpt lat="49.3343" lon="3.34145">
        <ele>179.6</ele>
        <time>2025-10-20T14:11:44.000Z</time>
      </trkpt>
      <trkpt lat="49.33431" lon="3.34147">
        <ele>179.6</ele>
        <time>2025-10-20T14:11:45.000Z</time>
      </trkpt>
      <trkpt lat="49.33432" lon="3.34148">
        <ele>179.3</ele>
        <time>2025-10-20T14:11:46.000Z</time>
      </trkpt>
      <trkpt lat="49.33433" lon="3.3415">
        <ele>179.2</ele>
        <time>2025-10-20T14:11:47.000Z</time>
      </trkpt>
      <trkpt lat="49.33433" lon="3.34151">
        <ele>179.2</ele>
        <time>2025-10-20T14:11:48.000Z</time>
      </trkpt>
      <trkpt lat="49.33434" lon="3.34153">
        <ele>178.9</ele>
        <time>2025-10-20T14:11:49.000Z</time>
      </trkpt>
      <trkpt lat="49.33436" lon="3.34155">
        <ele>178.7</ele>
        <time>2025-10-20T14:11:50.000Z</time>
      </trkpt>
      <trkpt lat="49.33437" lon="3.34156">
        <ele>178.5</ele>
        <time>2025-10-20T14:11:51.000Z</time>
      </trkpt>
      <trkpt lat="49.33438" lon="3.34157">
        <ele>178.1</ele>
        <time>2025-10-20T14:11:52.000Z</time>
      </trkpt>
      <trkpt lat="49.33439" lon="3.34159">
        <ele>177.7</ele>
        <time>2025-10-20T14:11:53.000Z</time>
      </trkpt>
      <trkpt lat="49.3344" lon="3.34161">
        <ele>177.4</ele>
        <time>2025-10-20T14:11:54.000Z</time>
      </trkpt>
      <trkpt lat="49.33441" lon="3.34163">
        <ele>177.2</ele>
        <time>2025-10-20T14:11:55.000Z</time>
      </trkpt>
      <trkpt lat="49.33442" lon="3.34166">
        <ele>177</ele>
        <time>2025-10-20T14:11:56.000Z</time>
      </trkpt>
      <trkpt lat="49.33443" lon="3.34168">
        <ele>176.7</ele>
        <time>2025-10-20T14:11:57.000Z</time>
      </trkpt>
      <trkpt lat="49.33443" lon="3.3417">
        <ele>176.9</ele>
        <time>2025-10-20T14:11:58.000Z</time>
      </trkpt>
      <trkpt lat="49.33444" lon="3.34171">
        <ele>176.9</ele>
        <time>2025-10-20T14:11:59.000Z</time>
      </trkpt>
      <trkpt lat="49.33444" lon="3.34172">
        <ele>176.9</ele>
        <time>2025-10-20T14:12:00.000Z</time>
      </trkpt>
      <trkpt lat="49.33445" lon="3.34173">
        <ele>176.7</ele>
        <time>2025-10-20T14:12:01.000Z</time>
      </trkpt>
      <trkpt lat="49.33445" lon="3.34174">
        <ele>176.6</ele>
        <time>2025-10-20T14:12:02.000Z</time>
      </trkpt>
      <trkpt lat="49.33445" lon="3.34176">
        <ele>176.4</ele>
        <time>2025-10-20T14:12:03.000Z</time>
      </trkpt>
      <trkpt lat="49.33445" lon="3.34177">
        <ele>176.4</ele>
        <time>2025-10-20T14:12:04.000Z</time>
      </trkpt>
      <trkpt lat="49.33446" lon="3.34179">
        <ele>176.2</ele>
        <time>2025-10-20T14:12:05.000Z</time>
      </trkpt>
      <trkpt lat="49.33446" lon="3.3418">
        <ele>176.4</ele>
        <time>2025-10-20T14:12:06.000Z</time>
      </trkpt>
      <trkpt lat="49.33446" lon="3.34182">
        <ele>176.5</ele>
        <time>2025-10-20T14:12:07.000Z</time>
      </trkpt>
      <trkpt lat="49.33447" lon="3.34184">
        <ele>176.5</ele>
        <time>2025-10-20T14:12:08.000Z</time>
      </trkpt>
      <trkpt lat="49.33447" lon="3.34185">
        <ele>176.7</ele>
        <time>2025-10-20T14:12:09.000Z</time>
      </trkpt>
      <trkpt lat="49.33447" lon="3.34187">
        <ele>176.8</ele>
        <time>2025-10-20T14:12:10.000Z</time>
      </trkpt>
      <trkpt lat="49.33448" lon="3.34188">
        <ele>176.8</ele>
        <time>2025-10-20T14:12:11.000Z</time>
      </trkpt>
      <trkpt lat="49.33449" lon="3.34191">
        <ele>177</ele>
        <time>2025-10-20T14:12:12.000Z</time>
      </trkpt>
      <trkpt lat="49.33449" lon="3.34193">
        <ele>177.1</ele>
        <time>2025-10-20T14:12:13.000Z</time>
      </trkpt>
      <trkpt lat="49.33449" lon="3.34194">
        <ele>177.3</ele>
        <time>2025-10-20T14:12:14.000Z</time>
      </trkpt>
      <trkpt lat="49.33449" lon="3.34196">
        <ele>177.4</ele>
        <time>2025-10-20T14:12:15.000Z</time>
      </trkpt>
      <trkpt lat="49.3345" lon="3.34198">
        <ele>177.5</ele>
        <time>2025-10-20T14:12:16.000Z</time>
      </trkpt>
      <trkpt lat="49.3345" lon="3.342">
        <ele>177.2</ele>
        <time>2025-10-20T14:12:17.000Z</time>
      </trkpt>
      <trkpt lat="49.33451" lon="3.34203">
        <ele>177</ele>
        <time>2025-10-20T14:12:18.000Z</time>
      </trkpt>
      <trkpt lat="49.33451" lon="3.34205">
        <ele>177</ele>
        <time>2025-10-20T14:12:19.000Z</time>
      </trkpt>
      <trkpt lat="49.33451" lon="3.34208">
        <ele>176.8</ele>
        <time>2025-10-20T14:12:20.000Z</time>
      </trkpt>
      <trkpt lat="49.33452" lon="3.34211">
        <ele>176.6</ele>
        <time>2025-10-20T14:12:21.000Z</time>
      </trkpt>
      <trkpt lat="49.33452" lon="3.34213">
        <ele>176.6</ele>
        <time>2025-10-20T14:12:22.000Z</time>
      </trkpt>
      <trkpt lat="49.33451" lon="3.34215">
        <ele>176.6</ele>
        <time>2025-10-20T14:12:23.000Z</time>
      </trkpt>
      <trkpt lat="49.33451" lon="3.34218">
        <ele>176.6</ele>
        <time>2025-10-20T14:12:24.000Z</time>
      </trkpt>
      <trkpt lat="49.33451" lon="3.3422">
        <ele>176.7</ele>
        <time>2025-10-20T14:12:25.000Z</time>
      </trkpt>
      <trkpt lat="49.33451" lon="3.34222">
        <ele>176.7</ele>
        <time>2025-10-20T14:12:26.000Z</time>
      </trkpt>
      <trkpt lat="49.33451" lon="3.34226">
        <ele>176.6</ele>
        <time>2025-10-20T14:12:27.000Z</time>
      </trkpt>
      <trkpt lat="49.33452" lon="3.34228">
        <ele>176.7</ele>
        <time>2025-10-20T14:12:28.000Z</time>
      </trkpt>
      <trkpt lat="49.33452" lon="3.34231">
        <ele>176.6</ele>
        <time>2025-10-20T14:12:29.000Z</time>
      </trkpt>
      <trkpt lat="49.33452" lon="3.34234">
        <ele>176.3</ele>
        <time>2025-10-20T14:12:30.000Z</time>
      </trkpt>
      <trkpt lat="49.33453" lon="3.34236">
        <ele>175.9</ele>
        <time>2025-10-20T14:12:31.000Z</time>
      </trkpt>
      <trkpt lat="49.33453" lon="3.34239">
        <ele>175.6</ele>
        <time>2025-10-20T14:12:32.000Z</time>
      </trkpt>
      <trkpt lat="49.33454" lon="3.34241">
        <ele>175.3</ele>
        <time>2025-10-20T14:12:33.000Z</time>
      </trkpt>
      <trkpt lat="49.33454" lon="3.34243">
        <ele>175.2</ele>
        <time>2025-10-20T14:12:34.000Z</time>
      </trkpt>
      <trkpt lat="49.33454" lon="3.34245">
        <ele>175.1</ele>
        <time>2025-10-20T14:12:35.000Z</time>
      </trkpt>
      <trkpt lat="49.33454" lon="3.34247">
        <ele>175</ele>
        <time>2025-10-20T14:12:36.000Z</time>
      </trkpt>
      <trkpt lat="49.33454" lon="3.34248">
        <ele>175</ele>
        <time>2025-10-20T14:12:37.000Z</time>
      </trkpt>
      <trkpt lat="49.33454" lon="3.34249">
        <ele>175.1</ele>
        <time>2025-10-20T14:12:38.000Z</time>
      </trkpt>
      <trkpt lat="49.33454" lon="3.34251">
        <ele>175.1</ele>
        <time>2025-10-20T14:12:39.000Z</time>
      </trkpt>
      <trkpt lat="49.33454" lon="3.34253">
        <ele>175.2</ele>
        <time>2025-10-20T14:12:40.000Z</time>
      </trkpt>
      <trkpt lat="49.33454" lon="3.34255">
        <ele>175.3</ele>
        <time>2025-10-20T14:12:41.000Z</time>
      </trkpt>
      <trkpt lat="49.33454" lon="3.34256">
        <ele>175.3</ele>
        <time>2025-10-20T14:12:42.000Z</time>
      </trkpt>
      <trkpt lat="49.33454" lon="3.34259">
        <ele>175.4</ele>
        <time>2025-10-20T14:12:43.000Z</time>
      </trkpt>
      <trkpt lat="49.33454" lon="3.34261">
        <ele>175.4</ele>
        <time>2025-10-20T14:12:44.000Z</time>
      </trkpt>
      <trkpt lat="49.33455" lon="3.34262">
        <ele>175.4</ele>
        <time>2025-10-20T14:12:45.000Z</time>
      </trkpt>
      <trkpt lat="49.33455" lon="3.34264">
        <ele>175.5</ele>
        <time>2025-10-20T14:12:46.000Z</time>
      </trkpt>
      <trkpt lat="49.33455" lon="3.34267">
        <ele>175.8</ele>
        <time>2025-10-20T14:12:47.000Z</time>
      </trkpt>
      <trkpt lat="49.33455" lon="3.34268">
        <ele>176</ele>
        <time>2025-10-20T14:12:48.000Z</time>
      </trkpt>
      <trkpt lat="49.33455" lon="3.3427">
        <ele>176.4</ele>
        <time>2025-10-20T14:12:49.000Z</time>
      </trkpt>
      <trkpt lat="49.33454" lon="3.34272">
        <ele>176.8</ele>
        <time>2025-10-20T14:12:50.000Z</time>
      </trkpt>
      <trkpt lat="49.33454" lon="3.34274">
        <ele>177.1</ele>
        <time>2025-10-20T14:12:51.000Z</time>
      </trkpt>
      <trkpt lat="49.33455" lon="3.34276">
        <ele>177.4</ele>
        <time>2025-10-20T14:12:52.000Z</time>
      </trkpt>
      <trkpt lat="49.33455" lon="3.34277">
        <ele>177.7</ele>
        <time>2025-10-20T14:12:53.000Z</time>
      </trkpt>
      <trkpt lat="49.33455" lon="3.34279">
        <ele>177.9</ele>
        <time>2025-10-20T14:12:54.000Z</time>
      </trkpt>
      <trkpt lat="49.33455" lon="3.34281">
        <ele>178.2</ele>
        <time>2025-10-20T14:12:55.000Z</time>
      </trkpt>
      <trkpt lat="49.33455" lon="3.34283">
        <ele>178.3</ele>
        <time>2025-10-20T14:12:56.000Z</time>
      </trkpt>
      <trkpt lat="49.33455" lon="3.34285">
        <ele>178.6</ele>
        <time>2025-10-20T14:12:57.000Z</time>
      </trkpt>
      <trkpt lat="49.33455" lon="3.34287">
        <ele>178.7</ele>
        <time>2025-10-20T14:12:58.000Z</time>
      </trkpt>
      <trkpt lat="49.33456" lon="3.34289">
        <ele>178.8</ele>
        <time>2025-10-20T14:12:59.000Z</time>
      </trkpt>
      <trkpt lat="49.33456" lon="3.34292">
        <ele>178.7</ele>
        <time>2025-10-20T14:13:00.000Z</time>
      </trkpt>
      <trkpt lat="49.33457" lon="3.34294">
        <ele>178.8</ele>
        <time>2025-10-20T14:13:01.000Z</time>
      </trkpt>
      <trkpt lat="49.33457" lon="3.34297">
        <ele>178.9</ele>
        <time>2025-10-20T14:13:02.000Z</time>
      </trkpt>
      <trkpt lat="49.33457" lon="3.343">
        <ele>179</ele>
        <time>2025-10-20T14:13:03.000Z</time>
      </trkpt>
      <trkpt lat="49.33457" lon="3.34302">
        <ele>179.1</ele>
        <time>2025-10-20T14:13:04.000Z</time>
      </trkpt>
      <trkpt lat="49.33458" lon="3.34305">
        <ele>179</ele>
        <time>2025-10-20T14:13:05.000Z</time>
      </trkpt>
      <trkpt lat="49.33458" lon="3.34308">
        <ele>179</ele>
        <time>2025-10-20T14:13:06.000Z</time>
      </trkpt>
      <trkpt lat="49.33458" lon="3.34311">
        <ele>178.9</ele>
        <time>2025-10-20T14:13:07.000Z</time>
      </trkpt>
      <trkpt lat="49.33457" lon="3.34313">
        <ele>179</ele>
        <time>2025-10-20T14:13:08.000Z</time>
      </trkpt>
      <trkpt lat="49.33457" lon="3.34316">
        <ele>179</ele>
        <time>2025-10-20T14:13:09.000Z</time>
      </trkpt>
      <trkpt lat="49.33457" lon="3.34318">
        <ele>178.8</ele>
        <time>2025-10-20T14:13:10.000Z</time>
      </trkpt>
      <trkpt lat="49.33457" lon="3.3432">
        <ele>178.8</ele>
        <time>2025-10-20T14:13:11.000Z</time>
      </trkpt>
      <trkpt lat="49.33457" lon="3.34322">
        <ele>178.9</ele>
        <time>2025-10-20T14:13:12.000Z</time>
      </trkpt>
      <trkpt lat="49.33458" lon="3.34324">
        <ele>178.6</ele>
        <time>2025-10-20T14:13:13.000Z</time>
      </trkpt>
      <trkpt lat="49.33459" lon="3.34327">
        <ele>178.5</ele>
        <time>2025-10-20T14:13:14.000Z</time>
      </trkpt>
      <trkpt lat="49.33459" lon="3.34328">
        <ele>178.6</ele>
        <time>2025-10-20T14:13:15.000Z</time>
      </trkpt>
      <trkpt lat="49.33459" lon="3.3433">
        <ele>178.6</ele>
        <time>2025-10-20T14:13:16.000Z</time>
      </trkpt>
      <trkpt lat="49.3346" lon="3.34332">
        <ele>178.5</ele>
        <time>2025-10-20T14:13:17.000Z</time>
      </trkpt>
      <trkpt lat="49.3346" lon="3.34334">
        <ele>178.6</ele>
        <time>2025-10-20T14:13:18.000Z</time>
      </trkpt>
      <trkpt lat="49.3346" lon="3.34335">
        <ele>178.7</ele>
        <time>2025-10-20T14:13:19.000Z</time>
      </trkpt>
      <trkpt lat="49.33461" lon="3.34337">
        <ele>178.9</ele>
        <time>2025-10-20T14:13:20.000Z</time>
      </trkpt>
      <trkpt lat="49.33461" lon="3.34338">
        <ele>179</ele>
        <time>2025-10-20T14:13:21.000Z</time>
      </trkpt>
      <trkpt lat="49.33461" lon="3.34339">
        <ele>179</ele>
        <time>2025-10-20T14:13:22.000Z</time>
      </trkpt>
      <trkpt lat="49.33461" lon="3.34341">
        <ele>179.1</ele>
        <time>2025-10-20T14:13:23.000Z</time>
      </trkpt>
      <trkpt lat="49.33461" lon="3.34343">
        <ele>179.2</ele>
        <time>2025-10-20T14:13:24.000Z</time>
      </trkpt>
      <trkpt lat="49.33461" lon="3.34345">
        <ele>179.3</ele>
        <time>2025-10-20T14:13:25.000Z</time>
      </trkpt>
      <trkpt lat="49.33461" lon="3.34347">
        <ele>179.2</ele>
        <time>2025-10-20T14:13:26.000Z</time>
      </trkpt>
      <trkpt lat="49.33461" lon="3.3435">
        <ele>179.1</ele>
        <time>2025-10-20T14:13:27.000Z</time>
      </trkpt>
      <trkpt lat="49.33462" lon="3.34353">
        <ele>178.9</ele>
        <time>2025-10-20T14:13:28.000Z</time>
      </trkpt>
      <trkpt lat="49.33462" lon="3.34355">
        <ele>179</ele>
        <time>2025-10-20T14:13:29.000Z</time>
      </trkpt>
      <trkpt lat="49.33462" lon="3.34357">
        <ele>179</ele>
        <time>2025-10-20T14:13:30.000Z</time>
      </trkpt>
      <trkpt lat="49.33462" lon="3.34358">
        <ele>178.8</ele>
        <time>2025-10-20T14:13:31.000Z</time>
      </trkpt>
      <trkpt lat="49.33462" lon="3.3436">
        <ele>178.9</ele>
        <time>2025-10-20T14:13:32.000Z</time>
      </trkpt>
      <trkpt lat="49.33463" lon="3.34363">
        <ele>178.9</ele>
        <time>2025-10-20T14:13:33.000Z</time>
      </trkpt>
      <trkpt lat="49.33463" lon="3.34365">
        <ele>178.9</ele>
        <time>2025-10-20T14:13:34.000Z</time>
      </trkpt>
      <trkpt lat="49.33464" lon="3.34368">
        <ele>178.7</ele>
        <time>2025-10-20T14:13:35.000Z</time>
      </trkpt>
      <trkpt lat="49.33465" lon="3.3437">
        <ele>178.7</ele>
        <time>2025-10-20T14:13:36.000Z</time>
      </trkpt>
      <trkpt lat="49.33465" lon="3.34373">
        <ele>178.9</ele>
        <time>2025-10-20T14:13:37.000Z</time>
      </trkpt>
      <trkpt lat="49.33465" lon="3.34375">
        <ele>178.9</ele>
        <time>2025-10-20T14:13:38.000Z</time>
      </trkpt>
      <trkpt lat="49.33466" lon="3.34378">
        <ele>178.9</ele>
        <time>2025-10-20T14:13:39.000Z</time>
      </trkpt>
      <trkpt lat="49.33467" lon="3.3438">
        <ele>179</ele>
        <time>2025-10-20T14:13:40.000Z</time>
      </trkpt>
      <trkpt lat="49.33468" lon="3.34382">
        <ele>178.7</ele>
        <time>2025-10-20T14:13:41.000Z</time>
      </trkpt>
      <trkpt lat="49.33469" lon="3.34385">
        <ele>178.5</ele>
        <time>2025-10-20T14:13:42.000Z</time>
      </trkpt>
      <trkpt lat="49.3347" lon="3.34387">
        <ele>178.2</ele>
        <time>2025-10-20T14:13:43.000Z</time>
      </trkpt>
      <trkpt lat="49.33471" lon="3.34389">
        <ele>177.9</ele>
        <time>2025-10-20T14:13:44.000Z</time>
      </trkpt>
      <trkpt lat="49.33472" lon="3.34392">
        <ele>177.4</ele>
        <time>2025-10-20T14:13:45.000Z</time>
      </trkpt>
      <trkpt lat="49.33473" lon="3.34394">
        <ele>177.1</ele>
        <time>2025-10-20T14:13:46.000Z</time>
      </trkpt>
      <trkpt lat="49.33473" lon="3.34396">
        <ele>177</ele>
        <time>2025-10-20T14:13:47.000Z</time>
      </trkpt>
      <trkpt lat="49.33474" lon="3.34398">
        <ele>177.2</ele>
        <time>2025-10-20T14:13:48.000Z</time>
      </trkpt>
      <trkpt lat="49.33474" lon="3.34399">
        <ele>177.3</ele>
        <time>2025-10-20T14:13:49.000Z</time>
      </trkpt>
      <trkpt lat="49.33475" lon="3.34401">
        <ele>177.3</ele>
        <time>2025-10-20T14:13:50.000Z</time>
      </trkpt>
      <trkpt lat="49.33476" lon="3.34402">
        <ele>177.2</ele>
        <time>2025-10-20T14:13:51.000Z</time>
      </trkpt>
      <trkpt lat="49.33477" lon="3.34404">
        <ele>177</ele>
        <time>2025-10-20T14:13:52.000Z</time>
      </trkpt>
      <trkpt lat="49.33478" lon="3.34405">
        <ele>176.8</ele>
        <time>2025-10-20T14:13:53.000Z</time>
      </trkpt>
      <trkpt lat="49.33478" lon="3.34406">
        <ele>176.9</ele>
        <time>2025-10-20T14:13:54.000Z</time>
      </trkpt>
      <trkpt lat="49.33478" lon="3.34408">
        <ele>177.1</ele>
        <time>2025-10-20T14:13:55.000Z</time>
      </trkpt>
      <trkpt lat="49.33479" lon="3.34409">
        <ele>177.2</ele>
        <time>2025-10-20T14:13:56.000Z</time>
      </trkpt>
      <trkpt lat="49.33479" lon="3.34411">
        <ele>177.3</ele>
        <time>2025-10-20T14:13:57.000Z</time>
      </trkpt>
      <trkpt lat="49.33479" lon="3.34412">
        <ele>177.4</ele>
        <time>2025-10-20T14:13:58.000Z</time>
      </trkpt>
      <trkpt lat="49.33479" lon="3.34414">
        <ele>177.5</ele>
        <time>2025-10-20T14:13:59.000Z</time>
      </trkpt>
      <trkpt lat="49.33479" lon="3.34415">
        <ele>177.6</ele>
        <time>2025-10-20T14:14:00.000Z</time>
      </trkpt>
      <trkpt lat="49.3348" lon="3.34417">
        <ele>177.7</ele>
        <time>2025-10-20T14:14:01.000Z</time>
      </trkpt>
      <trkpt lat="49.33481" lon="3.34418">
        <ele>177.8</ele>
        <time>2025-10-20T14:14:02.000Z</time>
      </trkpt>
      <trkpt lat="49.33481" lon="3.3442">
        <ele>178.1</ele>
        <time>2025-10-20T14:14:03.000Z</time>
      </trkpt>
      <trkpt lat="49.33482" lon="3.34423">
        <ele>178</ele>
        <time>2025-10-20T14:14:04.000Z</time>
      </trkpt>
      <trkpt lat="49.33483" lon="3.34426">
        <ele>177.8</ele>
        <time>2025-10-20T14:14:05.000Z</time>
      </trkpt>
      <trkpt lat="49.33484" lon="3.34428">
        <ele>177.6</ele>
        <time>2025-10-20T14:14:06.000Z</time>
      </trkpt>
      <trkpt lat="49.33485" lon="3.3443">
        <ele>177.4</ele>
        <time>2025-10-20T14:14:07.000Z</time>
      </trkpt>
      <trkpt lat="49.33485" lon="3.34433">
        <ele>177.4</ele>
        <time>2025-10-20T14:14:08.000Z</time>
      </trkpt>
      <trkpt lat="49.33486" lon="3.34435">
        <ele>177.5</ele>
        <time>2025-10-20T14:14:09.000Z</time>
      </trkpt>
      <trkpt lat="49.33486" lon="3.34436">
        <ele>177.6</ele>
        <time>2025-10-20T14:14:10.000Z</time>
      </trkpt>
      <trkpt lat="49.33486" lon="3.34438">
        <ele>177.7</ele>
        <time>2025-10-20T14:14:11.000Z</time>
      </trkpt>
      <trkpt lat="49.33487" lon="3.3444">
        <ele>177.6</ele>
        <time>2025-10-20T14:14:12.000Z</time>
      </trkpt>
      <trkpt lat="49.33487" lon="3.34442">
        <ele>177.5</ele>
        <time>2025-10-20T14:14:13.000Z</time>
      </trkpt>
      <trkpt lat="49.33488" lon="3.34444">
        <ele>177.6</ele>
        <time>2025-10-20T14:14:14.000Z</time>
      </trkpt>
      <trkpt lat="49.33489" lon="3.34446">
        <ele>177.5</ele>
        <time>2025-10-20T14:14:15.000Z</time>
      </trkpt>
      <trkpt lat="49.33489" lon="3.34449">
        <ele>177.6</ele>
        <time>2025-10-20T14:14:16.000Z</time>
      </trkpt>
      <trkpt lat="49.3349" lon="3.34451">
        <ele>177.5</ele>
        <time>2025-10-20T14:14:17.000Z</time>
      </trkpt>
      <trkpt lat="49.3349" lon="3.34454">
        <ele>177.2</ele>
        <time>2025-10-20T14:14:18.000Z</time>
      </trkpt>
      <trkpt lat="49.33491" lon="3.34455">
        <ele>177.5</ele>
        <time>2025-10-20T14:14:19.000Z</time>
      </trkpt>
      <trkpt lat="49.33491" lon="3.34457">
        <ele>177.6</ele>
        <time>2025-10-20T14:14:20.000Z</time>
      </trkpt>
      <trkpt lat="49.33492" lon="3.34459">
        <ele>177.4</ele>
        <time>2025-10-20T14:14:21.000Z</time>
      </trkpt>
      <trkpt lat="49.33492" lon="3.34461">
        <ele>177.6</ele>
        <time>2025-10-20T14:14:22.000Z</time>
      </trkpt>
      <trkpt lat="49.33492" lon="3.34463">
        <ele>177.6</ele>
        <time>2025-10-20T14:14:23.000Z</time>
      </trkpt>
      <trkpt lat="49.33493" lon="3.34464">
        <ele>177.7</ele>
        <time>2025-10-20T14:14:24.000Z</time>
      </trkpt>
      <trkpt lat="49.33492" lon="3.34466">
        <ele>177.9</ele>
        <time>2025-10-20T14:14:25.000Z</time>
      </trkpt>
      <trkpt lat="49.33493" lon="3.34469">
        <ele>177.5</ele>
        <time>2025-10-20T14:14:26.000Z</time>
      </trkpt>
      <trkpt lat="49.33494" lon="3.34472">
        <ele>177.1</ele>
        <time>2025-10-20T14:14:27.000Z</time>
      </trkpt>
      <trkpt lat="49.33494" lon="3.34474">
        <ele>176.8</ele>
        <time>2025-10-20T14:14:28.000Z</time>
      </trkpt>
      <trkpt lat="49.33494" lon="3.34476">
        <ele>176.2</ele>
        <time>2025-10-20T14:14:29.000Z</time>
      </trkpt>
      <trkpt lat="49.33494" lon="3.34478">
        <ele>175.5</ele>
        <time>2025-10-20T14:14:30.000Z</time>
      </trkpt>
      <trkpt lat="49.33493" lon="3.3448">
        <ele>175.1</ele>
        <time>2025-10-20T14:14:31.000Z</time>
      </trkpt>
      <trkpt lat="49.33493" lon="3.34484">
        <ele>175.1</ele>
        <time>2025-10-20T14:14:32.000Z</time>
      </trkpt>
      <trkpt lat="49.33493" lon="3.34486">
        <ele>175</ele>
        <time>2025-10-20T14:14:33.000Z</time>
      </trkpt>
      <trkpt lat="49.33493" lon="3.34487">
        <ele>174.9</ele>
        <time>2025-10-20T14:14:34.000Z</time>
      </trkpt>
      <trkpt lat="49.33492" lon="3.34487">
        <ele>174.8</ele>
        <time>2025-10-20T14:14:35.000Z</time>
      </trkpt>
      <trkpt lat="49.33491" lon="3.34487">
        <ele>174.8</ele>
        <time>2025-10-20T14:14:36.000Z</time>
      </trkpt>
      <trkpt lat="49.3349" lon="3.34487">
        <ele>174.5</ele>
        <time>2025-10-20T14:14:37.000Z</time>
      </trkpt>
      <trkpt lat="49.33489" lon="3.34487">
        <ele>174.6</ele>
        <time>2025-10-20T14:14:38.000Z</time>
      </trkpt>
      <trkpt lat="49.33488" lon="3.34487">
        <ele>174.7</ele>
        <time>2025-10-20T14:14:39.000Z</time>
      </trkpt>
      <trkpt lat="49.33486" lon="3.34487">
        <ele>174.7</ele>
        <time>2025-10-20T14:14:40.000Z</time>
      </trkpt>
      <trkpt lat="49.33486" lon="3.34487">
        <ele>174.8</ele>
        <time>2025-10-20T14:14:41.000Z</time>
      </trkpt>
      <trkpt lat="49.33485" lon="3.34488">
        <ele>174.8</ele>
        <time>2025-10-20T14:14:42.000Z</time>
      </trkpt>
      <trkpt lat="49.33484" lon="3.34489">
        <ele>175.2</ele>
        <time>2025-10-20T14:14:43.000Z</time>
      </trkpt>
      <trkpt lat="49.33483" lon="3.34489">
        <ele>175.4</ele>
        <time>2025-10-20T14:14:44.000Z</time>
      </trkpt>
      <trkpt lat="49.33482" lon="3.3449">
        <ele>175.8</ele>
        <time>2025-10-20T14:14:45.000Z</time>
      </trkpt>
      <trkpt lat="49.33481" lon="3.34491">
        <ele>176.1</ele>
        <time>2025-10-20T14:14:46.000Z</time>
      </trkpt>
      <trkpt lat="49.3348" lon="3.34491">
        <ele>176.5</ele>
        <time>2025-10-20T14:14:47.000Z</time>
      </trkpt>
      <trkpt lat="49.3348" lon="3.34492">
        <ele>176.9</ele>
        <time>2025-10-20T14:14:48.000Z</time>
      </trkpt>
      <trkpt lat="49.33479" lon="3.34493">
        <ele>177.3</ele>
        <time>2025-10-20T14:14:49.000Z</time>
      </trkpt>
      <trkpt lat="49.33478" lon="3.34495">
        <ele>177.8</ele>
        <time>2025-10-20T14:14:50.000Z</time>
      </trkpt>
      <trkpt lat="49.33478" lon="3.34497">
        <ele>178.2</ele>
        <time>2025-10-20T14:14:51.000Z</time>
      </trkpt>
      <trkpt lat="49.33478" lon="3.34499">
        <ele>178.6</ele>
        <time>2025-10-20T14:14:52.000Z</time>
      </trkpt>
      <trkpt lat="49.33477" lon="3.34502">
        <ele>178.8</ele>
        <time>2025-10-20T14:14:53.000Z</time>
      </trkpt>
      <trkpt lat="49.33477" lon="3.34504">
        <ele>179</ele>
        <time>2025-10-20T14:14:54.000Z</time>
      </trkpt>
      <trkpt lat="49.33476" lon="3.34506">
        <ele>179</ele>
        <time>2025-10-20T14:14:55.000Z</time>
      </trkpt>
      <trkpt lat="49.33476" lon="3.34509">
        <ele>178.9</ele>
        <time>2025-10-20T14:14:56.000Z</time>
      </trkpt>
      <trkpt lat="49.33476" lon="3.34511">
        <ele>179</ele>
        <time>2025-10-20T14:14:57.000Z</time>
      </trkpt>
      <trkpt lat="49.33475" lon="3.34514">
        <ele>179</ele>
        <time>2025-10-20T14:14:58.000Z</time>
      </trkpt>
      <trkpt lat="49.33475" lon="3.34515">
        <ele>179.4</ele>
        <time>2025-10-20T14:14:59.000Z</time>
      </trkpt>
      <trkpt lat="49.33474" lon="3.34517">
        <ele>179.5</ele>
        <time>2025-10-20T14:15:00.000Z</time>
      </trkpt>
      <trkpt lat="49.33473" lon="3.34519">
        <ele>179.7</ele>
        <time>2025-10-20T14:15:01.000Z</time>
      </trkpt>
      <trkpt lat="49.33473" lon="3.34522">
        <ele>179.9</ele>
        <time>2025-10-20T14:15:02.000Z</time>
      </trkpt>
      <trkpt lat="49.33473" lon="3.34524">
        <ele>179.9</ele>
        <time>2025-10-20T14:15:03.000Z</time>
      </trkpt>
      <trkpt lat="49.33472" lon="3.34527">
        <ele>179.8</ele>
        <time>2025-10-20T14:15:04.000Z</time>
      </trkpt>
      <trkpt lat="49.33472" lon="3.34529">
        <ele>179.7</ele>
        <time>2025-10-20T14:15:05.000Z</time>
      </trkpt>
      <trkpt lat="49.33472" lon="3.34532">
        <ele>179.6</ele>
        <time>2025-10-20T14:15:06.000Z</time>
      </trkpt>
      <trkpt lat="49.33472" lon="3.34535">
        <ele>179.6</ele>
        <time>2025-10-20T14:15:07.000Z</time>
      </trkpt>
      <trkpt lat="49.33472" lon="3.34538">
        <ele>179.5</ele>
        <time>2025-10-20T14:15:08.000Z</time>
      </trkpt>
      <trkpt lat="49.33472" lon="3.3454">
        <ele>179.4</ele>
        <time>2025-10-20T14:15:09.000Z</time>
      </trkpt>
      <trkpt lat="49.33472" lon="3.34542">
        <ele>179.5</ele>
        <time>2025-10-20T14:15:10.000Z</time>
      </trkpt>
      <trkpt lat="49.33472" lon="3.34544">
        <ele>179.6</ele>
        <time>2025-10-20T14:15:11.000Z</time>
      </trkpt>
      <trkpt lat="49.33471" lon="3.34547">
        <ele>179.9</ele>
        <time>2025-10-20T14:15:12.000Z</time>
      </trkpt>
      <trkpt lat="49.33471" lon="3.34548">
        <ele>180.1</ele>
        <time>2025-10-20T14:15:13.000Z</time>
      </trkpt>
      <trkpt lat="49.33471" lon="3.3455">
        <ele>180</ele>
        <time>2025-10-20T14:15:14.000Z</time>
      </trkpt>
      <trkpt lat="49.33471" lon="3.34551">
        <ele>180</ele>
        <time>2025-10-20T14:15:15.000Z</time>
      </trkpt>
      <trkpt lat="49.33472" lon="3.34553">
        <ele>179.9</ele>
        <time>2025-10-20T14:15:16.000Z</time>
      </trkpt>
      <trkpt lat="49.33472" lon="3.34555">
        <ele>179.5</ele>
        <time>2025-10-20T14:15:17.000Z</time>
      </trkpt>
      <trkpt lat="49.33472" lon="3.34557">
        <ele>179.7</ele>
        <time>2025-10-20T14:15:18.000Z</time>
      </trkpt>
      <trkpt lat="49.33473" lon="3.34559">
        <ele>180</ele>
        <time>2025-10-20T14:15:19.000Z</time>
      </trkpt>
      <trkpt lat="49.33473" lon="3.34561">
        <ele>180.3</ele>
        <time>2025-10-20T14:15:20.000Z</time>
      </trkpt>
      <trkpt lat="49.33473" lon="3.34563">
        <ele>180.7</ele>
        <time>2025-10-20T14:15:21.000Z</time>
      </trkpt>
      <trkpt lat="49.33473" lon="3.34565">
        <ele>181.1</ele>
        <time>2025-10-20T14:15:22.000Z</time>
      </trkpt>
      <trkpt lat="49.33473" lon="3.34567">
        <ele>181.7</ele>
        <time>2025-10-20T14:15:23.000Z</time>
      </trkpt>
      <trkpt lat="49.33473" lon="3.34569">
        <ele>182.1</ele>
        <time>2025-10-20T14:15:24.000Z</time>
      </trkpt>
      <trkpt lat="49.33472" lon="3.34571">
        <ele>182.6</ele>
        <time>2025-10-20T14:15:25.000Z</time>
      </trkpt>
      <trkpt lat="49.33472" lon="3.34574">
        <ele>182.9</ele>
        <time>2025-10-20T14:15:26.000Z</time>
      </trkpt>
      <trkpt lat="49.33472" lon="3.34577">
        <ele>183.1</ele>
        <time>2025-10-20T14:15:27.000Z</time>
      </trkpt>
      <trkpt lat="49.33471" lon="3.3458">
        <ele>183.5</ele>
        <time>2025-10-20T14:15:28.000Z</time>
      </trkpt>
      <trkpt lat="49.33471" lon="3.34582">
        <ele>183.2</ele>
        <time>2025-10-20T14:15:29.000Z</time>
      </trkpt>
      <trkpt lat="49.33471" lon="3.34584">
        <ele>182.8</ele>
        <time>2025-10-20T14:15:30.000Z</time>
      </trkpt>
      <trkpt lat="49.3347" lon="3.34587">
        <ele>182.4</ele>
        <time>2025-10-20T14:15:31.000Z</time>
      </trkpt>
      <trkpt lat="49.3347" lon="3.34589">
        <ele>182.1</ele>
        <time>2025-10-20T14:15:32.000Z</time>
      </trkpt>
      <trkpt lat="49.3347" lon="3.34591">
        <ele>181.9</ele>
        <time>2025-10-20T14:15:33.000Z</time>
      </trkpt>
      <trkpt lat="49.33469" lon="3.34593">
        <ele>181.6</ele>
        <time>2025-10-20T14:15:34.000Z</time>
      </trkpt>
      <trkpt lat="49.33469" lon="3.34595">
        <ele>181.2</ele>
        <time>2025-10-20T14:15:35.000Z</time>
      </trkpt>
      <trkpt lat="49.33468" lon="3.34596">
        <ele>181.1</ele>
        <time>2025-10-20T14:15:36.000Z</time>
      </trkpt>
      <trkpt lat="49.33468" lon="3.34597">
        <ele>180.4</ele>
        <time>2025-10-20T14:15:37.000Z</time>
      </trkpt>
      <trkpt lat="49.33468" lon="3.34599">
        <ele>179.7</ele>
        <time>2025-10-20T14:15:38.000Z</time>
      </trkpt>
      <trkpt lat="49.33468" lon="3.346">
        <ele>179</ele>
        <time>2025-10-20T14:15:39.000Z</time>
      </trkpt>
      <trkpt lat="49.33468" lon="3.34601">
        <ele>178.6</ele>
        <time>2025-10-20T14:15:40.000Z</time>
      </trkpt>
      <trkpt lat="49.33467" lon="3.34603">
        <ele>178</ele>
        <time>2025-10-20T14:15:41.000Z</time>
      </trkpt>
      <trkpt lat="49.33466" lon="3.34605">
        <ele>177.8</ele>
        <time>2025-10-20T14:15:42.000Z</time>
      </trkpt>
      <trkpt lat="49.33466" lon="3.34606">
        <ele>177.5</ele>
        <time>2025-10-20T14:15:43.000Z</time>
      </trkpt>
      <trkpt lat="49.33465" lon="3.34607">
        <ele>177.4</ele>
        <time>2025-10-20T14:15:44.000Z</time>
      </trkpt>
      <trkpt lat="49.33464" lon="3.34608">
        <ele>177.2</ele>
        <time>2025-10-20T14:15:45.000Z</time>
      </trkpt>
      <trkpt lat="49.33464" lon="3.34609">
        <ele>177.4</ele>
        <time>2025-10-20T14:15:46.000Z</time>
      </trkpt>
      <trkpt lat="49.33463" lon="3.3461">
        <ele>177.2</ele>
        <time>2025-10-20T14:15:47.000Z</time>
      </trkpt>
      <trkpt lat="49.33463" lon="3.34611">
        <ele>177</ele>
        <time>2025-10-20T14:15:48.000Z</time>
      </trkpt>
      <trkpt lat="49.33462" lon="3.34612">
        <ele>176.8</ele>
        <time>2025-10-20T14:15:49.000Z</time>
      </trkpt>
      <trkpt lat="49.33462" lon="3.34614">
        <ele>176.7</ele>
        <time>2025-10-20T14:15:50.000Z</time>
      </trkpt>
      <trkpt lat="49.33461" lon="3.34614">
        <ele>176.5</ele>
        <time>2025-10-20T14:15:51.000Z</time>
      </trkpt>
      <trkpt lat="49.33459" lon="3.34615">
        <ele>176.3</ele>
        <time>2025-10-20T14:15:52.000Z</time>
      </trkpt>
      <trkpt lat="49.33458" lon="3.34615">
        <ele>175.9</ele>
        <time>2025-10-20T14:15:53.000Z</time>
      </trkpt>
      <trkpt lat="49.33457" lon="3.34616">
        <ele>175.6</ele>
        <time>2025-10-20T14:15:54.000Z</time>
      </trkpt>
      <trkpt lat="49.33456" lon="3.34616">
        <ele>175.4</ele>
        <time>2025-10-20T14:15:55.000Z</time>
      </trkpt>
      <trkpt lat="49.33454" lon="3.34616">
        <ele>175.1</ele>
        <time>2025-10-20T14:15:56.000Z</time>
      </trkpt>
      <trkpt lat="49.33452" lon="3.34616">
        <ele>175</ele>
        <time>2025-10-20T14:15:57.000Z</time>
      </trkpt>
      <trkpt lat="49.3345" lon="3.34616">
        <ele>174.8</ele>
        <time>2025-10-20T14:15:58.000Z</time>
      </trkpt>
      <trkpt lat="49.33448" lon="3.34617">
        <ele>174.4</ele>
        <time>2025-10-20T14:15:59.000Z</time>
      </trkpt>
      <trkpt lat="49.33447" lon="3.34618">
        <ele>173.9</ele>
        <time>2025-10-20T14:16:00.000Z</time>
      </trkpt>
      <trkpt lat="49.33446" lon="3.34618">
        <ele>173.5</ele>
        <time>2025-10-20T14:16:01.000Z</time>
      </trkpt>
      <trkpt lat="49.33444" lon="3.34619">
        <ele>173.3</ele>
        <time>2025-10-20T14:16:02.000Z</time>
      </trkpt>
      <trkpt lat="49.33442" lon="3.3462">
        <ele>172.9</ele>
        <time>2025-10-20T14:16:03.000Z</time>
      </trkpt>
      <trkpt lat="49.33441" lon="3.3462">
        <ele>172.2</ele>
        <time>2025-10-20T14:16:04.000Z</time>
      </trkpt>
      <trkpt lat="49.33439" lon="3.3462">
        <ele>172.1</ele>
        <time>2025-10-20T14:16:05.000Z</time>
      </trkpt>
      <trkpt lat="49.33438" lon="3.34621">
        <ele>172</ele>
        <time>2025-10-20T14:16:06.000Z</time>
      </trkpt>
      <trkpt lat="49.33436" lon="3.34621">
        <ele>171.7</ele>
        <time>2025-10-20T14:16:07.000Z</time>
      </trkpt>
      <trkpt lat="49.33436" lon="3.34621">
        <ele>171.3</ele>
        <time>2025-10-20T14:16:08.000Z</time>
      </trkpt>
      <trkpt lat="49.33434" lon="3.34621">
        <ele>170.6</ele>
        <time>2025-10-20T14:16:09.000Z</time>
      </trkpt>
      <trkpt lat="49.33433" lon="3.34622">
        <ele>169.9</ele>
        <time>2025-10-20T14:16:10.000Z</time>
      </trkpt>
      <trkpt lat="49.33432" lon="3.34622">
        <ele>169.3</ele>
        <time>2025-10-20T14:16:11.000Z</time>
      </trkpt>
      <trkpt lat="49.3343" lon="3.34623">
        <ele>169.2</ele>
        <time>2025-10-20T14:16:12.000Z</time>
      </trkpt>
      <trkpt lat="49.33428" lon="3.34624">
        <ele>169.2</ele>
        <time>2025-10-20T14:16:13.000Z</time>
      </trkpt>
      <trkpt lat="49.33427" lon="3.34624">
        <ele>169.1</ele>
        <time>2025-10-20T14:16:14.000Z</time>
      </trkpt>
      <trkpt lat="49.33426" lon="3.34623">
        <ele>168.8</ele>
        <time>2025-10-20T14:16:15.000Z</time>
      </trkpt>
      <trkpt lat="49.33425" lon="3.34623">
        <ele>168.1</ele>
        <time>2025-10-20T14:16:16.000Z</time>
      </trkpt>
      <trkpt lat="49.33424" lon="3.34622">
        <ele>167.1</ele>
        <time>2025-10-20T14:16:17.000Z</time>
      </trkpt>
      <trkpt lat="49.33422" lon="3.34622">
        <ele>166.3</ele>
        <time>2025-10-20T14:16:18.000Z</time>
      </trkpt>
      <trkpt lat="49.33421" lon="3.34623">
        <ele>165.1</ele>
        <time>2025-10-20T14:16:19.000Z</time>
      </trkpt>
      <trkpt lat="49.33419" lon="3.34625">
        <ele>164.6</ele>
        <time>2025-10-20T14:16:20.000Z</time>
      </trkpt>
      <trkpt lat="49.33418" lon="3.34627">
        <ele>164</ele>
        <time>2025-10-20T14:16:21.000Z</time>
      </trkpt>
      <trkpt lat="49.33417" lon="3.34628">
        <ele>163.4</ele>
        <time>2025-10-20T14:16:22.000Z</time>
      </trkpt>
      <trkpt lat="49.33416" lon="3.3463">
        <ele>162.6</ele>
        <time>2025-10-20T14:16:23.000Z</time>
      </trkpt>
      <trkpt lat="49.33415" lon="3.34632">
        <ele>161.9</ele>
        <time>2025-10-20T14:16:24.000Z</time>
      </trkpt>
      <trkpt lat="49.33414" lon="3.34633">
        <ele>161.2</ele>
        <time>2025-10-20T14:16:25.000Z</time>
      </trkpt>
      <trkpt lat="49.33414" lon="3.34635">
        <ele>160.4</ele>
        <time>2025-10-20T14:16:26.000Z</time>
      </trkpt>
      <trkpt lat="49.33413" lon="3.34636">
        <ele>159.7</ele>
        <time>2025-10-20T14:16:27.000Z</time>
      </trkpt>
      <trkpt lat="49.33412" lon="3.34636">
        <ele>159.1</ele>
        <time>2025-10-20T14:16:28.000Z</time>
      </trkpt>
      <trkpt lat="49.33412" lon="3.34636">
        <ele>159.1</ele>
        <time>2025-10-20T14:16:29.000Z</time>
      </trkpt>
      <trkpt lat="49.33412" lon="3.34636">
        <ele>159.1</ele>
        <time>2025-10-20T14:16:30.000Z</time>
      </trkpt>
      <trkpt lat="49.33412" lon="3.34636">
        <ele>159.1</ele>
        <time>2025-10-20T14:16:31.000Z</time>
      </trkpt>
      <trkpt lat="49.33412" lon="3.34636">
        <ele>159.1</ele>
        <time>2025-10-20T14:16:32.000Z</time>
      </trkpt>
      <trkpt lat="49.33412" lon="3.34636">
        <ele>159.1</ele>
        <time>2025-10-20T14:16:33.000Z</time>
      </trkpt>
      <trkpt lat="49.33412" lon="3.34636">
        <ele>159.1</ele>
        <time>2025-10-20T14:16:34.000Z</time>
      </trkpt>
      <trkpt lat="49.33412" lon="3.34636">
        <ele>159.1</ele>
        <time>2025-10-20T14:16:35.000Z</time>
      </trkpt>
      <trkpt lat="49.33412" lon="3.34636">
        <ele>159.1</ele>
        <time>2025-10-20T14:16:36.000Z</time>
      </trkpt>
      <trkpt lat="49.33412" lon="3.34636">
        <ele>159.1</ele>
        <time>2025-10-20T14:16:37.000Z</time>
      </trkpt>
      <trkpt lat="49.33412" lon="3.34636">
        <ele>159.1</ele>
        <time>2025-10-20T14:16:38.000Z</time>
      </trkpt>
      <trkpt lat="49.33412" lon="3.34636">
        <ele>159.1</ele>
        <time>2025-10-20T14:16:39.000Z</time>
      </trkpt>
      <trkpt lat="49.33412" lon="3.34636">
        <ele>159.1</ele>
        <time>2025-10-20T14:16:40.000Z</time>
      </trkpt>
      <trkpt lat="49.33412" lon="3.34636">
        <ele>159.1</ele>
        <time>2025-10-20T14:16:41.000Z</time>
      </trkpt>
      <trkpt lat="49.33412" lon="3.34636">
        <ele>159.1</ele>
        <time>2025-10-20T14:16:42.000Z</time>
      </trkpt>
      <trkpt lat="49.33412" lon="3.34636">
        <ele>159.1</ele>
        <time>2025-10-20T14:16:43.000Z</time>
      </trkpt>
      <trkpt lat="49.33412" lon="3.34636">
        <ele>159.1</ele>
        <time>2025-10-20T14:16:44.000Z</time>
      </trkpt>
      <trkpt lat="49.33412" lon="3.34636">
        <ele>159.1</ele>
        <time>2025-10-20T14:16:45.000Z</time>
      </trkpt>
      <trkpt lat="49.33412" lon="3.34636">
        <ele>159.1</ele>
        <time>2025-10-20T14:16:46.000Z</time>
      </trkpt>
      <trkpt lat="49.33412" lon="3.34636">
        <ele>159.1</ele>
        <time>2025-10-20T14:16:47.000Z</time>
      </trkpt>
      <trkpt lat="49.33412" lon="3.34636">
        <ele>159.1</ele>
        <time>2025-10-20T14:16:48.000Z</time>
      </trkpt>
      <trkpt lat="49.33412" lon="3.34636">
        <ele>159.1</ele>
        <time>2025-10-20T14:16:49.000Z</time>
      </trkpt>
      <trkpt lat="49.33412" lon="3.34636">
        <ele>159.1</ele>
        <time>2025-10-20T14:16:50.000Z</time>
      </trkpt>
      <trkpt lat="49.33412" lon="3.34636">
        <ele>159.1</ele>
        <time>2025-10-20T14:16:51.000Z</time>
      </trkpt>
      <trkpt lat="49.33412" lon="3.34636">
        <ele>159.1</ele>
        <time>2025-10-20T14:16:52.000Z</time>
      </trkpt>
      <trkpt lat="49.33412" lon="3.34636">
        <ele>159.1</ele>
        <time>2025-10-20T14:16:53.000Z</time>
      </trkpt>
      <trkpt lat="49.33412" lon="3.34636">
        <ele>159.1</ele>
        <time>2025-10-20T14:16:54.000Z</time>
      </trkpt>
      <trkpt lat="49.33412" lon="3.34636">
        <ele>159.1</ele>
        <time>2025-10-20T14:16:55.000Z</time>
      </trkpt>
      <trkpt lat="49.33412" lon="3.34636">
        <ele>159.1</ele>
        <time>2025-10-20T14:16:56.000Z</time>
      </trkpt>
      <trkpt lat="49.33412" lon="3.34636">
        <ele>159.1</ele>
        <time>2025-10-20T14:16:57.000Z</time>
      </trkpt>
      <trkpt lat="49.33412" lon="3.34636">
        <ele>159.1</ele>
        <time>2025-10-20T14:16:58.000Z</time>
      </trkpt>
      <trkpt lat="49.33412" lon="3.34636">
        <ele>159.1</ele>
        <time>2025-10-20T14:16:59.000Z</time>
      </trkpt>
      <trkpt lat="49.33412" lon="3.34636">
        <ele>159.1</ele>
        <time>2025-10-20T14:17:00.000Z</time>
      </trkpt>
      <trkpt lat="49.33412" lon="3.34636">
        <ele>159.1</ele>
        <time>2025-10-20T14:17:01.000Z</time>
      </trkpt>
      <trkpt lat="49.33412" lon="3.34636">
        <ele>159.1</ele>
        <time>2025-10-20T14:17:02.000Z</time>
      </trkpt>
      <trkpt lat="49.33412" lon="3.34636">
        <ele>159.1</ele>
        <time>2025-10-20T14:17:03.000Z</time>
      </trkpt>
      <trkpt lat="49.33412" lon="3.34636">
        <ele>159.1</ele>
        <time>2025-10-20T14:17:04.000Z</time>
      </trkpt>
      <trkpt lat="49.33412" lon="3.34636">
        <ele>159.1</ele>
        <time>2025-10-20T14:17:05.000Z</time>
      </trkpt>
      <trkpt lat="49.33412" lon="3.34636">
        <ele>159.1</ele>
        <time>2025-10-20T14:17:06.000Z</time>
      </trkpt>
      <trkpt lat="49.33412" lon="3.34636">
        <ele>159.1</ele>
        <time>2025-10-20T14:17:07.000Z</time>
      </trkpt>
      <trkpt lat="49.33412" lon="3.34636">
        <ele>159.1</ele>
        <time>2025-10-20T14:17:08.000Z</time>
      </trkpt>
      <trkpt lat="49.33412" lon="3.34636">
        <ele>159.1</ele>
        <time>2025-10-20T14:17:09.000Z</time>
      </trkpt>
      <trkpt lat="49.33412" lon="3.34636">
        <ele>159.1</ele>
        <time>2025-10-20T14:17:10.000Z</time>
      </trkpt>
      <trkpt lat="49.33412" lon="3.34636">
        <ele>159.1</ele>
        <time>2025-10-20T14:17:11.000Z</time>
      </trkpt>
      <trkpt lat="49.33412" lon="3.34636">
        <ele>159.1</ele>
        <time>2025-10-20T14:17:12.000Z</time>
      </trkpt>
      <trkpt lat="49.33412" lon="3.34636">
        <ele>159.1</ele>
        <time>2025-10-20T14:17:13.000Z</time>
      </trkpt>
      <trkpt lat="49.33412" lon="3.34636">
        <ele>159.1</ele>
        <time>2025-10-20T14:17:14.000Z</time>
      </trkpt>
      <trkpt lat="49.33412" lon="3.34636">
        <ele>159.1</ele>
        <time>2025-10-20T14:17:15.000Z</time>
      </trkpt>
      <trkpt lat="49.33412" lon="3.34636">
        <ele>159.1</ele>
        <time>2025-10-20T14:17:16.000Z</time>
      </trkpt>
      <trkpt lat="49.33412" lon="3.34636">
        <ele>159.1</ele>
        <time>2025-10-20T14:17:17.000Z</time>
      </trkpt>
      <trkpt lat="49.33412" lon="3.34636">
        <ele>159.1</ele>
        <time>2025-10-20T14:17:18.000Z</time>
      </trkpt>
      <trkpt lat="49.33412" lon="3.34636">
        <ele>159.1</ele>
        <time>2025-10-20T14:17:19.000Z</time>
      </trkpt>
      <trkpt lat="49.33412" lon="3.34636">
        <ele>159.1</ele>
        <time>2025-10-20T14:17:20.000Z</time>
      </trkpt>
      <trkpt lat="49.33412" lon="3.34636">
        <ele>159.1</ele>
        <time>2025-10-20T14:17:21.000Z</time>
      </trkpt>
      <trkpt lat="49.33412" lon="3.34636">
        <ele>159.1</ele>
        <time>2025-10-20T14:17:22.000Z</time>
      </trkpt>
      <trkpt lat="49.33412" lon="3.34636">
        <ele>159.1</ele>
        <time>2025-10-20T14:17:23.000Z</time>
      </trkpt>
      <trkpt lat="49.33412" lon="3.34636">
        <ele>159.1</ele>
        <time>2025-10-20T14:17:24.000Z</time>
      </trkpt>
      <trkpt lat="49.33412" lon="3.34636">
        <ele>159.1</ele>
        <time>2025-10-20T14:17:25.000Z</time>
      </trkpt>
      <trkpt lat="49.33412" lon="3.34636">
        <ele>159.1</ele>
        <time>2025-10-20T14:17:26.000Z</time>
      </trkpt>
      <trkpt lat="49.33412" lon="3.34636">
        <ele>159.1</ele>
        <time>2025-10-20T14:17:27.000Z</time>
      </trkpt>
      <trkpt lat="49.33412" lon="3.34636">
        <ele>159.1</ele>
        <time>2025-10-20T14:17:28.000Z</time>
      </trkpt>
      <trkpt lat="49.33412" lon="3.34636">
        <ele>159.1</ele>
        <time>2025-10-20T14:17:29.000Z</time>
      </trkpt>
      <trkpt lat="49.33412" lon="3.34636">
        <ele>159.1</ele>
        <time>2025-10-20T14:17:30.000Z</time>
      </trkpt>
      <trkpt lat="49.33412" lon="3.34636">
        <ele>159.1</ele>
        <time>2025-10-20T14:17:31.000Z</time>
      </trkpt>
      <trkpt lat="49.33412" lon="3.34636">
        <ele>159.1</ele>
        <time>2025-10-20T14:17:32.000Z</time>
      </trkpt>
      <trkpt lat="49.33412" lon="3.34636">
        <ele>159.1</ele>
        <time>2025-10-20T14:17:33.000Z</time>
      </trkpt>
      <trkpt lat="49.33412" lon="3.34636">
        <ele>159.1</ele>
        <time>2025-10-20T14:17:34.000Z</time>
      </trkpt>
      <trkpt lat="49.33412" lon="3.34636">
        <ele>159.1</ele>
        <time>2025-10-20T14:17:35.000Z</time>
      </trkpt>
      <trkpt lat="49.33412" lon="3.34636">
        <ele>159.1</ele>
        <time>2025-10-20T14:17:36.000Z</time>
      </trkpt>
      <trkpt lat="49.33412" lon="3.34636">
        <ele>159.1</ele>
        <time>2025-10-20T14:17:37.000Z</time>
      </trkpt>
      <trkpt lat="49.33412" lon="3.34636">
        <ele>159.1</ele>
        <time>2025-10-20T14:17:38.000Z</time>
      </trkpt>
      <trkpt lat="49.33412" lon="3.34636">
        <ele>159.1</ele>
        <time>2025-10-20T14:17:39.000Z</time>
      </trkpt>
      <trkpt lat="49.33412" lon="3.34636">
        <ele>159.1</ele>
        <time>2025-10-20T14:17:40.000Z</time>
      </trkpt>
      <trkpt lat="49.33412" lon="3.34636">
        <ele>159.1</ele>
        <time>2025-10-20T14:17:41.000Z</time>
      </trkpt>
      <trkpt lat="49.33412" lon="3.34636">
        <ele>159.1</ele>
        <time>2025-10-20T14:17:42.000Z</time>
      </trkpt>
      <trkpt lat="49.33412" lon="3.34636">
        <ele>159.1</ele>
        <time>2025-10-20T14:17:43.000Z</time>
      </trkpt>
      <trkpt lat="49.33412" lon="3.34636">
        <ele>159.1</ele>
        <time>2025-10-20T14:17:44.000Z</time>
      </trkpt>
      <trkpt lat="49.33412" lon="3.34636">
        <ele>159.1</ele>
        <time>2025-10-20T14:17:45.000Z</time>
      </trkpt>
      <trkpt lat="49.33412" lon="3.34636">
        <ele>159.1</ele>
        <time>2025-10-20T14:17:46.000Z</time>
      </trkpt>
      <trkpt lat="49.33412" lon="3.34636">
        <ele>159.1</ele>
        <time>2025-10-20T14:17:47.000Z</time>
      </trkpt>
      <trkpt lat="49.33412" lon="3.34636">
        <ele>159.1</ele>
        <time>2025-10-20T14:17:48.000Z</time>
      </trkpt>
      <trkpt lat="49.33412" lon="3.34636">
        <ele>159.1</ele>
        <time>2025-10-20T14:17:49.000Z</time>
      </trkpt>
      <trkpt lat="49.33412" lon="3.34636">
        <ele>159.1</ele>
        <time>2025-10-20T14:17:50.000Z</time>
      </trkpt>
      <trkpt lat="49.33412" lon="3.34636">
        <ele>159.1</ele>
        <time>2025-10-20T14:17:51.000Z</time>
      </trkpt>
      <trkpt lat="49.33412" lon="3.34636">
        <ele>159.1</ele>
        <time>2025-10-20T14:17:52.000Z</time>
      </trkpt>
      <trkpt lat="49.33412" lon="3.34636">
        <ele>159.1</ele>
        <time>2025-10-20T14:17:53.000Z</time>
      </trkpt>
      <trkpt lat="49.33412" lon="3.34636">
        <ele>159.1</ele>
        <time>2025-10-20T14:17:54.000Z</time>
      </trkpt>
      <trkpt lat="49.33412" lon="3.34636">
        <ele>159.1</ele>
        <time>2025-10-20T14:17:55.000Z</time>
      </trkpt>
      <trkpt lat="49.33412" lon="3.34636">
        <ele>159.1</ele>
        <time>2025-10-20T14:17:56.000Z</time>
      </trkpt>
      <trkpt lat="49.33412" lon="3.34636">
        <ele>159.1</ele>
        <time>2025-10-20T14:17:57.000Z</time>
      </trkpt>
      <trkpt lat="49.33412" lon="3.34636">
        <ele>159.1</ele>
        <time>2025-10-20T14:17:58.000Z</time>
      </trkpt>
      <trkpt lat="49.33412" lon="3.34636">
        <ele>159.1</ele>
        <time>2025-10-20T14:17:59.000Z</time>
      </trkpt>
      <trkpt lat="49.33412" lon="3.34636">
        <ele>159.1</ele>
        <time>2025-10-20T14:18:00.000Z</time>
      </trkpt>
      <trkpt lat="49.33412" lon="3.34636">
        <ele>159.1</ele>
        <time>2025-10-20T14:18:01.000Z</time>
      </trkpt>
      <trkpt lat="49.33412" lon="3.34636">
        <ele>159.1</ele>
        <time>2025-10-20T14:18:02.000Z</time>
      </trkpt>
      <trkpt lat="49.33412" lon="3.34636">
        <ele>159.1</ele>
        <time>2025-10-20T14:18:03.000Z</time>
      </trkpt>
      <trkpt lat="49.33412" lon="3.34636">
        <ele>159.1</ele>
        <time>2025-10-20T14:18:04.000Z</time>
      </trkpt>
      <trkpt lat="49.33412" lon="3.34636">
        <ele>159.1</ele>
        <time>2025-10-20T14:18:05.000Z</time>
      </trkpt>
      <trkpt lat="49.33412" lon="3.34636">
        <ele>159.1</ele>
        <time>2025-10-20T14:18:06.000Z</time>
      </trkpt>
      <trkpt lat="49.33412" lon="3.34636">
        <ele>159.1</ele>
        <time>2025-10-20T14:18:07.000Z</time>
      </trkpt>
      <trkpt lat="49.33412" lon="3.34636">
        <ele>159.1</ele>
        <time>2025-10-20T14:18:08.000Z</time>
      </trkpt>
      <trkpt lat="49.33412" lon="3.34636">
        <ele>159.1</ele>
        <time>2025-10-20T14:18:09.000Z</time>
      </trkpt>
      <trkpt lat="49.33412" lon="3.34636">
        <ele>159.1</ele>
        <time>2025-10-20T14:18:10.000Z</time>
      </trkpt>
      <trkpt lat="49.33412" lon="3.34636">
        <ele>159.1</ele>
        <time>2025-10-20T14:18:11.000Z</time>
      </trkpt>
      <trkpt lat="49.33412" lon="3.34636">
        <ele>159.1</ele>
        <time>2025-10-20T14:18:12.000Z</time>
      </trkpt>
      <trkpt lat="49.33412" lon="3.34636">
        <ele>159.1</ele>
        <time>2025-10-20T14:18:13.000Z</time>
      </trkpt>
      <trkpt lat="49.33412" lon="3.34636">
        <ele>159.1</ele>
        <time>2025-10-20T14:18:14.000Z</time>
      </trkpt>
      <trkpt lat="49.33412" lon="3.34636">
        <ele>159.1</ele>
        <time>2025-10-20T14:18:15.000Z</time>
      </trkpt>
      <trkpt lat="49.33412" lon="3.34636">
        <ele>159.1</ele>
        <time>2025-10-20T14:18:16.000Z</time>
      </trkpt>
      <trkpt lat="49.33412" lon="3.34636">
        <ele>159.1</ele>
        <time>2025-10-20T14:18:17.000Z</time>
      </trkpt>
      <trkpt lat="49.33412" lon="3.34636">
        <ele>159.1</ele>
        <time>2025-10-20T14:18:18.000Z</time>
      </trkpt>
      <trkpt lat="49.33412" lon="3.34636">
        <ele>159.1</ele>
        <time>2025-10-20T14:18:19.000Z</time>
      </trkpt>
      <trkpt lat="49.33412" lon="3.34636">
        <ele>159.1</ele>
        <time>2025-10-20T14:18:20.000Z</time>
      </trkpt>
      <trkpt lat="49.33412" lon="3.34636">
        <ele>159.1</ele>
        <time>2025-10-20T14:18:21.000Z</time>
      </trkpt>
      <trkpt lat="49.33412" lon="3.34636">
        <ele>159.1</ele>
        <time>2025-10-20T14:18:22.000Z</time>
      </trkpt>
      <trkpt lat="49.33412" lon="3.34636">
        <ele>159.1</ele>
        <time>2025-10-20T14:18:23.000Z</time>
      </trkpt>
      <trkpt lat="49.33412" lon="3.34636">
        <ele>159.1</ele>
        <time>2025-10-20T14:18:24.000Z</time>
      </trkpt>
      <trkpt lat="49.33412" lon="3.34636">
        <ele>159.1</ele>
        <time>2025-10-20T14:18:25.000Z</time>
      </trkpt>
      <trkpt lat="49.33412" lon="3.34636">
        <ele>159.1</ele>
        <time>2025-10-20T14:18:26.000Z</time>
      </trkpt>
      <trkpt lat="49.33412" lon="3.34636">
        <ele>159.1</ele>
        <time>2025-10-20T14:18:27.000Z</time>
      </trkpt>
      <trkpt lat="49.33412" lon="3.34636">
        <ele>159.1</ele>
        <time>2025-10-20T14:18:28.000Z</time>
      </trkpt>
      <trkpt lat="49.33412" lon="3.34636">
        <ele>159.1</ele>
        <time>2025-10-20T14:18:29.000Z</time>
      </trkpt>
      <trkpt lat="49.33412" lon="3.34636">
        <ele>159.1</ele>
        <time>2025-10-20T14:18:30.000Z</time>
      </trkpt>
      <trkpt lat="49.33412" lon="3.34636">
        <ele>159.1</ele>
        <time>2025-10-20T14:18:31.000Z</time>
      </trkpt>
      <trkpt lat="49.33412" lon="3.34636">
        <ele>159.1</ele>
        <time>2025-10-20T14:18:32.000Z</time>
      </trkpt>
      <trkpt lat="49.33412" lon="3.34636">
        <ele>159.1</ele>
        <time>2025-10-20T14:18:33.000Z</time>
      </trkpt>
      <trkpt lat="49.33412" lon="3.34636">
        <ele>159.1</ele>
        <time>2025-10-20T14:18:34.000Z</time>
      </trkpt>
      <trkpt lat="49.33412" lon="3.34636">
        <ele>159.1</ele>
        <time>2025-10-20T14:18:35.000Z</time>
      </trkpt>
      <trkpt lat="49.33412" lon="3.34636">
        <ele>159.1</ele>
        <time>2025-10-20T14:18:36.000Z</time>
      </trkpt>
      <trkpt lat="49.33412" lon="3.34636">
        <ele>159.1</ele>
        <time>2025-10-20T14:18:37.000Z</time>
      </trkpt>
      <trkpt lat="49.33412" lon="3.34636">
        <ele>159.1</ele>
        <time>2025-10-20T14:18:38.000Z</time>
      </trkpt>
      <trkpt lat="49.33412" lon="3.34636">
        <ele>159.1</ele>
        <time>2025-10-20T14:18:39.000Z</time>
      </trkpt>
      <trkpt lat="49.33412" lon="3.34636">
        <ele>159.1</ele>
        <time>2025-10-20T14:18:40.000Z</time>
      </trkpt>
      <trkpt lat="49.33409" lon="3.3463">
        <ele>151.4</ele>
        <time>2025-10-20T14:18:41.000Z</time>
      </trkpt>
      <trkpt lat="49.33409" lon="3.3463">
        <ele>151.4</ele>
        <time>2025-10-20T14:18:42.000Z</time>
      </trkpt>
      <trkpt lat="49.33409" lon="3.3463">
        <ele>151.5</ele>
        <time>2025-10-20T14:18:43.000Z</time>
      </trkpt>
      <trkpt lat="49.33409" lon="3.3463">
        <ele>151.4</ele>
        <time>2025-10-20T14:18:44.000Z</time>
      </trkpt>
      <trkpt lat="49.33408" lon="3.3463">
        <ele>151.3</ele>
        <time>2025-10-20T14:18:45.000Z</time>
      </trkpt>
      <trkpt lat="49.33408" lon="3.34631">
        <ele>151.4</ele>
        <time>2025-10-20T14:18:46.000Z</time>
      </trkpt>
      <trkpt lat="49.33408" lon="3.34631">
        <ele>151.4</ele>
        <time>2025-10-20T14:18:47.000Z</time>
      </trkpt>
      <trkpt lat="49.33408" lon="3.34631">
        <ele>151.6</ele>
        <time>2025-10-20T14:18:48.000Z</time>
      </trkpt>
      <trkpt lat="49.33408" lon="3.34632">
        <ele>151.5</ele>
        <time>2025-10-20T14:18:49.000Z</time>
      </trkpt>
      <trkpt lat="49.33408" lon="3.34633">
        <ele>151.6</ele>
        <time>2025-10-20T14:18:50.000Z</time>
      </trkpt>
      <trkpt lat="49.33408" lon="3.34634">
        <ele>151.7</ele>
        <time>2025-10-20T14:18:51.000Z</time>
      </trkpt>
      <trkpt lat="49.33408" lon="3.34635">
        <ele>151.7</ele>
        <time>2025-10-20T14:18:52.000Z</time>
      </trkpt>
      <trkpt lat="49.33408" lon="3.34636">
        <ele>151.8</ele>
        <time>2025-10-20T14:18:53.000Z</time>
      </trkpt>
      <trkpt lat="49.33408" lon="3.34637">
        <ele>151.8</ele>
        <time>2025-10-20T14:18:54.000Z</time>
      </trkpt>
      <trkpt lat="49.33408" lon="3.34638">
        <ele>151.7</ele>
        <time>2025-10-20T14:18:55.000Z</time>
      </trkpt>
      <trkpt lat="49.33408" lon="3.3464">
        <ele>151.6</ele>
        <time>2025-10-20T14:18:56.000Z</time>
      </trkpt>
      <trkpt lat="49.33408" lon="3.34641">
        <ele>151.9</ele>
        <time>2025-10-20T14:18:57.000Z</time>
      </trkpt>
      <trkpt lat="49.33408" lon="3.34643">
        <ele>152.2</ele>
        <time>2025-10-20T14:18:58.000Z</time>
      </trkpt>
      <trkpt lat="49.33408" lon="3.34644">
        <ele>152.4</ele>
        <time>2025-10-20T14:18:59.000Z</time>
      </trkpt>
      <trkpt lat="49.33409" lon="3.34646">
        <ele>152.6</ele>
        <time>2025-10-20T14:19:00.000Z</time>
      </trkpt>
      <trkpt lat="49.33409" lon="3.34648">
        <ele>152.7</ele>
        <time>2025-10-20T14:19:01.000Z</time>
      </trkpt>
      <trkpt lat="49.33409" lon="3.3465">
        <ele>152.8</ele>
        <time>2025-10-20T14:19:02.000Z</time>
      </trkpt>
      <trkpt lat="49.33409" lon="3.34651">
        <ele>152.8</ele>
        <time>2025-10-20T14:19:03.000Z</time>
      </trkpt>
      <trkpt lat="49.33409" lon="3.34653">
        <ele>152.7</ele>
        <time>2025-10-20T14:19:04.000Z</time>
      </trkpt>
      <trkpt lat="49.33409" lon="3.34655">
        <ele>152.8</ele>
        <time>2025-10-20T14:19:05.000Z</time>
      </trkpt>
      <trkpt lat="49.33409" lon="3.34656">
        <ele>152.8</ele>
        <time>2025-10-20T14:19:06.000Z</time>
      </trkpt>
      <trkpt lat="49.33409" lon="3.34658">
        <ele>153</ele>
        <time>2025-10-20T14:19:07.000Z</time>
      </trkpt>
      <trkpt lat="49.33409" lon="3.3466">
        <ele>152.9</ele>
        <time>2025-10-20T14:19:08.000Z</time>
      </trkpt>
      <trkpt lat="49.33409" lon="3.34663">
        <ele>152.6</ele>
        <time>2025-10-20T14:19:09.000Z</time>
      </trkpt>
      <trkpt lat="49.3341" lon="3.34665">
        <ele>152.2</ele>
        <time>2025-10-20T14:19:10.000Z</time>
      </trkpt>
      <trkpt lat="49.3341" lon="3.34666">
        <ele>151.8</ele>
        <time>2025-10-20T14:19:11.000Z</time>
      </trkpt>
      <trkpt lat="49.33411" lon="3.34669">
        <ele>151.5</ele>
        <time>2025-10-20T14:19:12.000Z</time>
      </trkpt>
      <trkpt lat="49.33411" lon="3.34671">
        <ele>151.1</ele>
        <time>2025-10-20T14:19:13.000Z</time>
      </trkpt>
      <trkpt lat="49.33412" lon="3.34672">
        <ele>150.9</ele>
        <time>2025-10-20T14:19:14.000Z</time>
      </trkpt>
      <trkpt lat="49.33412" lon="3.34673">
        <ele>150.5</ele>
        <time>2025-10-20T14:19:15.000Z</time>
      </trkpt>
      <trkpt lat="49.33412" lon="3.34675">
        <ele>150.7</ele>
        <time>2025-10-20T14:19:16.000Z</time>
      </trkpt>
      <trkpt lat="49.33412" lon="3.34676">
        <ele>150.9</ele>
        <time>2025-10-20T14:19:17.000Z</time>
      </trkpt>
      <trkpt lat="49.33412" lon="3.34677">
        <ele>150.8</ele>
        <time>2025-10-20T14:19:18.000Z</time>
      </trkpt>
      <trkpt lat="49.33412" lon="3.34678">
        <ele>150.9</ele>
        <time>2025-10-20T14:19:19.000Z</time>
      </trkpt>
      <trkpt lat="49.33413" lon="3.3468">
        <ele>151.2</ele>
        <time>2025-10-20T14:19:20.000Z</time>
      </trkpt>
      <trkpt lat="49.33413" lon="3.34681">
        <ele>151.5</ele>
        <time>2025-10-20T14:19:21.000Z</time>
      </trkpt>
      <trkpt lat="49.33413" lon="3.34682">
        <ele>151.9</ele>
        <time>2025-10-20T14:19:22.000Z</time>
      </trkpt>
      <trkpt lat="49.33413" lon="3.34684">
        <ele>152.2</ele>
        <time>2025-10-20T14:19:23.000Z</time>
      </trkpt>
      <trkpt lat="49.33413" lon="3.34685">
        <ele>152.6</ele>
        <time>2025-10-20T14:19:24.000Z</time>
      </trkpt>
      <trkpt lat="49.33413" lon="3.34686">
        <ele>153</ele>
        <time>2025-10-20T14:19:25.000Z</time>
      </trkpt>
      <trkpt lat="49.33413" lon="3.34687">
        <ele>153.7</ele>
        <time>2025-10-20T14:19:26.000Z</time>
      </trkpt>
      <trkpt lat="49.33413" lon="3.34688">
        <ele>154.4</ele>
        <time>2025-10-20T14:19:27.000Z</time>
      </trkpt>
      <trkpt lat="49.33413" lon="3.34689">
        <ele>154.9</ele>
        <time>2025-10-20T14:19:28.000Z</time>
      </trkpt>
      <trkpt lat="49.33413" lon="3.34691">
        <ele>155.4</ele>
        <time>2025-10-20T14:19:29.000Z</time>
      </trkpt>
      <trkpt lat="49.33413" lon="3.34693">
        <ele>155.9</ele>
        <time>2025-10-20T14:19:30.000Z</time>
      </trkpt>
      <trkpt lat="49.33414" lon="3.34696">
        <ele>156.3</ele>
        <time>2025-10-20T14:19:31.000Z</time>
      </trkpt>
      <trkpt lat="49.33414" lon="3.34698">
        <ele>156.8</ele>
        <time>2025-10-20T14:19:32.000Z</time>
      </trkpt>
      <trkpt lat="49.33414" lon="3.347">
        <ele>157.1</ele>
        <time>2025-10-20T14:19:33.000Z</time>
      </trkpt>
      <trkpt lat="49.33415" lon="3.34702">
        <ele>157.2</ele>
        <time>2025-10-20T14:19:34.000Z</time>
      </trkpt>
      <trkpt lat="49.33415" lon="3.34704">
        <ele>157.4</ele>
        <time>2025-10-20T14:19:35.000Z</time>
      </trkpt>
      <trkpt lat="49.33416" lon="3.34706">
        <ele>157.5</ele>
        <time>2025-10-20T14:19:36.000Z</time>
      </trkpt>
      <trkpt lat="49.33417" lon="3.34707">
        <ele>157.5</ele>
        <time>2025-10-20T14:19:37.000Z</time>
      </trkpt>
      <trkpt lat="49.33418" lon="3.3471">
        <ele>157.4</ele>
        <time>2025-10-20T14:19:38.000Z</time>
      </trkpt>
      <trkpt lat="49.33419" lon="3.34712">
        <ele>157.3</ele>
        <time>2025-10-20T14:19:39.000Z</time>
      </trkpt>
      <trkpt lat="49.3342" lon="3.34714">
        <ele>157.4</ele>
        <time>2025-10-20T14:19:40.000Z</time>
      </trkpt>
      <trkpt lat="49.33421" lon="3.34716">
        <ele>157.4</ele>
        <time>2025-10-20T14:19:41.000Z</time>
      </trkpt>
      <trkpt lat="49.33422" lon="3.34717">
        <ele>157.6</ele>
        <time>2025-10-20T14:19:42.000Z</time>
      </trkpt>
      <trkpt lat="49.33423" lon="3.3472">
        <ele>157.7</ele>
        <time>2025-10-20T14:19:43.000Z</time>
      </trkpt>
      <trkpt lat="49.33424" lon="3.34721">
        <ele>157.5</ele>
        <time>2025-10-20T14:19:44.000Z</time>
      </trkpt>
      <trkpt lat="49.33425" lon="3.34723">
        <ele>157.2</ele>
        <time>2025-10-20T14:19:45.000Z</time>
      </trkpt>
      <trkpt lat="49.33426" lon="3.34725">
        <ele>157</ele>
        <time>2025-10-20T14:19:46.000Z</time>
      </trkpt>
      <trkpt lat="49.33427" lon="3.34727">
        <ele>156.7</ele>
        <time>2025-10-20T14:19:47.000Z</time>
      </trkpt>
      <trkpt lat="49.33429" lon="3.34729">
        <ele>156.5</ele>
        <time>2025-10-20T14:19:48.000Z</time>
      </trkpt>
      <trkpt lat="49.3343" lon="3.3473">
        <ele>156.4</ele>
        <time>2025-10-20T14:19:49.000Z</time>
      </trkpt>
      <trkpt lat="49.33431" lon="3.34731">
        <ele>156.3</ele>
        <time>2025-10-20T14:19:50.000Z</time>
      </trkpt>
      <trkpt lat="49.33432" lon="3.34733">
        <ele>156.1</ele>
        <time>2025-10-20T14:19:51.000Z</time>
      </trkpt>
      <trkpt lat="49.33432" lon="3.34734">
        <ele>155.9</ele>
        <time>2025-10-20T14:19:52.000Z</time>
      </trkpt>
      <trkpt lat="49.33433" lon="3.34735">
        <ele>155.9</ele>
        <time>2025-10-20T14:19:53.000Z</time>
      </trkpt>
      <trkpt lat="49.33433" lon="3.34736">
        <ele>155.7</ele>
        <time>2025-10-20T14:19:54.000Z</time>
      </trkpt>
      <trkpt lat="49.33434" lon="3.34738">
        <ele>155.7</ele>
        <time>2025-10-20T14:19:55.000Z</time>
      </trkpt>
      <trkpt lat="49.33434" lon="3.34739">
        <ele>155.7</ele>
        <time>2025-10-20T14:19:56.000Z</time>
      </trkpt>
      <trkpt lat="49.33435" lon="3.3474">
        <ele>155.7</ele>
        <time>2025-10-20T14:19:57.000Z</time>
      </trkpt>
      <trkpt lat="49.33435" lon="3.34741">
        <ele>155.8</ele>
        <time>2025-10-20T14:19:58.000Z</time>
      </trkpt>
      <trkpt lat="49.33436" lon="3.34742">
        <ele>155.9</ele>
        <time>2025-10-20T14:19:59.000Z</time>
      </trkpt>
      <trkpt lat="49.33436" lon="3.34742">
        <ele>156.2</ele>
        <time>2025-10-20T14:20:00.000Z</time>
      </trkpt>
      <trkpt lat="49.33437" lon="3.34743">
        <ele>156.2</ele>
        <time>2025-10-20T14:20:01.000Z</time>
      </trkpt>
      <trkpt lat="49.33438" lon="3.34744">
        <ele>156.4</ele>
        <time>2025-10-20T14:20:02.000Z</time>
      </trkpt>
      <trkpt lat="49.33438" lon="3.34745">
        <ele>156.2</ele>
        <time>2025-10-20T14:20:03.000Z</time>
      </trkpt>
      <trkpt lat="49.33439" lon="3.34746">
        <ele>156.2</ele>
        <time>2025-10-20T14:20:04.000Z</time>
      </trkpt>
      <trkpt lat="49.33439" lon="3.34747">
        <ele>156.1</ele>
        <time>2025-10-20T14:20:05.000Z</time>
      </trkpt>
      <trkpt lat="49.3344" lon="3.34749">
        <ele>156.1</ele>
        <time>2025-10-20T14:20:06.000Z</time>
      </trkpt>
      <trkpt lat="49.33441" lon="3.34751">
        <ele>156.3</ele>
        <time>2025-10-20T14:20:07.000Z</time>
      </trkpt>
      <trkpt lat="49.33441" lon="3.34752">
        <ele>156.5</ele>
        <time>2025-10-20T14:20:08.000Z</time>
      </trkpt>
      <trkpt lat="49.33442" lon="3.34753">
        <ele>156.6</ele>
        <time>2025-10-20T14:20:09.000Z</time>
      </trkpt>
      <trkpt lat="49.33444" lon="3.34755">
        <ele>156.6</ele>
        <time>2025-10-20T14:20:10.000Z</time>
      </trkpt>
      <trkpt lat="49.33445" lon="3.34757">
        <ele>156.5</ele>
        <time>2025-10-20T14:20:11.000Z</time>
      </trkpt>
      <trkpt lat="49.33446" lon="3.34759">
        <ele>156.4</ele>
        <time>2025-10-20T14:20:12.000Z</time>
      </trkpt>
      <trkpt lat="49.33448" lon="3.3476">
        <ele>156.2</ele>
        <time>2025-10-20T14:20:13.000Z</time>
      </trkpt>
      <trkpt lat="49.33448" lon="3.34762">
        <ele>156.1</ele>
        <time>2025-10-20T14:20:14.000Z</time>
      </trkpt>
      <trkpt lat="49.33449" lon="3.34764">
        <ele>156</ele>
        <time>2025-10-20T14:20:15.000Z</time>
      </trkpt>
      <trkpt lat="49.33449" lon="3.34765">
        <ele>156</ele>
        <time>2025-10-20T14:20:16.000Z</time>
      </trkpt>
      <trkpt lat="49.33449" lon="3.34766">
        <ele>156.4</ele>
        <time>2025-10-20T14:20:17.000Z</time>
      </trkpt>
      <trkpt lat="49.33449" lon="3.34768">
        <ele>156.7</ele>
        <time>2025-10-20T14:20:18.000Z</time>
      </trkpt>
      <trkpt lat="49.33449" lon="3.34769">
        <ele>156.7</ele>
        <time>2025-10-20T14:20:19.000Z</time>
      </trkpt>
      <trkpt lat="49.33449" lon="3.34771">
        <ele>156.7</ele>
        <time>2025-10-20T14:20:20.000Z</time>
      </trkpt>
      <trkpt lat="49.33449" lon="3.34773">
        <ele>156.6</ele>
        <time>2025-10-20T14:20:21.000Z</time>
      </trkpt>
      <trkpt lat="49.33449" lon="3.34775">
        <ele>156.7</ele>
        <time>2025-10-20T14:20:22.000Z</time>
      </trkpt>
      <trkpt lat="49.3345" lon="3.34776">
        <ele>156.7</ele>
        <time>2025-10-20T14:20:23.000Z</time>
      </trkpt>
      <trkpt lat="49.3345" lon="3.34778">
        <ele>156.7</ele>
        <time>2025-10-20T14:20:24.000Z</time>
      </trkpt>
      <trkpt lat="49.33451" lon="3.3478">
        <ele>156.7</ele>
        <time>2025-10-20T14:20:25.000Z</time>
      </trkpt>
      <trkpt lat="49.33451" lon="3.34782">
        <ele>156.6</ele>
        <time>2025-10-20T14:20:26.000Z</time>
      </trkpt>
      <trkpt lat="49.33452" lon="3.34784">
        <ele>156.5</ele>
        <time>2025-10-20T14:20:27.000Z</time>
      </trkpt>
      <trkpt lat="49.33452" lon="3.34786">
        <ele>156.4</ele>
        <time>2025-10-20T14:20:28.000Z</time>
      </trkpt>
      <trkpt lat="49.33453" lon="3.34787">
        <ele>156</ele>
        <time>2025-10-20T14:20:29.000Z</time>
      </trkpt>
      <trkpt lat="49.33454" lon="3.34788">
        <ele>155.9</ele>
        <time>2025-10-20T14:20:30.000Z</time>
      </trkpt>
      <trkpt lat="49.33454" lon="3.34789">
        <ele>155.8</ele>
        <time>2025-10-20T14:20:31.000Z</time>
      </trkpt>
      <trkpt lat="49.33454" lon="3.34791">
        <ele>155.7</ele>
        <time>2025-10-20T14:20:32.000Z</time>
      </trkpt>
      <trkpt lat="49.33454" lon="3.34792">
        <ele>155.5</ele>
        <time>2025-10-20T14:20:33.000Z</time>
      </trkpt>
      <trkpt lat="49.33454" lon="3.34794">
        <ele>155.5</ele>
        <time>2025-10-20T14:20:34.000Z</time>
      </trkpt>
      <trkpt lat="49.33454" lon="3.34796">
        <ele>155.3</ele>
        <time>2025-10-20T14:20:35.000Z</time>
      </trkpt>
      <trkpt lat="49.33454" lon="3.34797">
        <ele>155.4</ele>
        <time>2025-10-20T14:20:36.000Z</time>
      </trkpt>
      <trkpt lat="49.33454" lon="3.34799">
        <ele>155.2</ele>
        <time>2025-10-20T14:20:37.000Z</time>
      </trkpt>
      <trkpt lat="49.33454" lon="3.348">
        <ele>155.1</ele>
        <time>2025-10-20T14:20:38.000Z</time>
      </trkpt>
      <trkpt lat="49.33454" lon="3.34802">
        <ele>154.9</ele>
        <time>2025-10-20T14:20:39.000Z</time>
      </trkpt>
      <trkpt lat="49.33454" lon="3.34804">
        <ele>154.7</ele>
        <time>2025-10-20T14:20:40.000Z</time>
      </trkpt>
      <trkpt lat="49.33454" lon="3.34807">
        <ele>154.6</ele>
        <time>2025-10-20T14:20:41.000Z</time>
      </trkpt>
      <trkpt lat="49.33456" lon="3.34812">
        <ele>154</ele>
        <time>2025-10-20T14:20:42.000Z</time>
      </trkpt>
      <trkpt lat="49.33457" lon="3.34814">
        <ele>153.4</ele>
        <time>2025-10-20T14:20:43.000Z</time>
      </trkpt>
      <trkpt lat="49.33457" lon="3.34816">
        <ele>153.1</ele>
        <time>2025-10-20T14:20:44.000Z</time>
      </trkpt>
      <trkpt lat="49.33457" lon="3.34818">
        <ele>152.8</ele>
        <time>2025-10-20T14:20:45.000Z</time>
      </trkpt>
      <trkpt lat="49.33457" lon="3.34819">
        <ele>152.3</ele>
        <time>2025-10-20T14:20:46.000Z</time>
      </trkpt>
      <trkpt lat="49.33456" lon="3.34821">
        <ele>151.8</ele>
        <time>2025-10-20T14:20:47.000Z</time>
      </trkpt>
      <trkpt lat="49.33455" lon="3.34823">
        <ele>151.3</ele>
        <time>2025-10-20T14:20:48.000Z</time>
      </trkpt>
      <trkpt lat="49.33455" lon="3.34826">
        <ele>150.6</ele>
        <time>2025-10-20T14:20:49.000Z</time>
      </trkpt>
      <trkpt lat="49.33454" lon="3.34828">
        <ele>150.1</ele>
        <time>2025-10-20T14:20:50.000Z</time>
      </trkpt>
      <trkpt lat="49.33454" lon="3.3483">
        <ele>149.5</ele>
        <time>2025-10-20T14:20:51.000Z</time>
      </trkpt>
      <trkpt lat="49.33454" lon="3.34832">
        <ele>148.7</ele>
        <time>2025-10-20T14:20:52.000Z</time>
      </trkpt>
      <trkpt lat="49.33453" lon="3.34833">
        <ele>148.5</ele>
        <time>2025-10-20T14:20:53.000Z</time>
      </trkpt>
      <trkpt lat="49.33452" lon="3.34834">
        <ele>148.4</ele>
        <time>2025-10-20T14:20:54.000Z</time>
      </trkpt>
      <trkpt lat="49.33451" lon="3.34835">
        <ele>148.3</ele>
        <time>2025-10-20T14:20:55.000Z</time>
      </trkpt>
      <trkpt lat="49.33451" lon="3.34836">
        <ele>148.1</ele>
        <time>2025-10-20T14:20:56.000Z</time>
      </trkpt>
      <trkpt lat="49.3345" lon="3.34837">
        <ele>148</ele>
        <time>2025-10-20T14:20:57.000Z</time>
      </trkpt>
      <trkpt lat="49.3345" lon="3.34837">
        <ele>147.8</ele>
        <time>2025-10-20T14:20:58.000Z</time>
      </trkpt>
      <trkpt lat="49.33449" lon="3.34838">
        <ele>148.1</ele>
        <time>2025-10-20T14:20:59.000Z</time>
      </trkpt>
      <trkpt lat="49.33448" lon="3.34838">
        <ele>148.1</ele>
        <time>2025-10-20T14:21:00.000Z</time>
      </trkpt>
      <trkpt lat="49.33447" lon="3.34839">
        <ele>148.3</ele>
        <time>2025-10-20T14:21:01.000Z</time>
      </trkpt>
      <trkpt lat="49.33447" lon="3.3484">
        <ele>148.4</ele>
        <time>2025-10-20T14:21:02.000Z</time>
      </trkpt>
      <trkpt lat="49.33445" lon="3.3484">
        <ele>148.5</ele>
        <time>2025-10-20T14:21:03.000Z</time>
      </trkpt>
      <trkpt lat="49.33444" lon="3.34842">
        <ele>148.9</ele>
        <time>2025-10-20T14:21:04.000Z</time>
      </trkpt>
      <trkpt lat="49.33443" lon="3.34843">
        <ele>149.1</ele>
        <time>2025-10-20T14:21:05.000Z</time>
      </trkpt>
      <trkpt lat="49.33442" lon="3.34843">
        <ele>149.2</ele>
        <time>2025-10-20T14:21:06.000Z</time>
      </trkpt>
      <trkpt lat="49.33441" lon="3.34844">
        <ele>149.3</ele>
        <time>2025-10-20T14:21:07.000Z</time>
      </trkpt>
      <trkpt lat="49.33441" lon="3.34845">
        <ele>149.9</ele>
        <time>2025-10-20T14:21:08.000Z</time>
      </trkpt>
      <trkpt lat="49.3344" lon="3.34846">
        <ele>150.3</ele>
        <time>2025-10-20T14:21:09.000Z</time>
      </trkpt>
      <trkpt lat="49.3344" lon="3.34847">
        <ele>150.4</ele>
        <time>2025-10-20T14:21:10.000Z</time>
      </trkpt>
      <trkpt lat="49.3344" lon="3.34848">
        <ele>150.5</ele>
        <time>2025-10-20T14:21:11.000Z</time>
      </trkpt>
      <trkpt lat="49.33439" lon="3.34848">
        <ele>150.5</ele>
        <time>2025-10-20T14:21:12.000Z</time>
      </trkpt>
      <trkpt lat="49.33439" lon="3.34849">
        <ele>150.2</ele>
        <time>2025-10-20T14:21:13.000Z</time>
      </trkpt>
      <trkpt lat="49.33438" lon="3.34851">
        <ele>149.7</ele>
        <time>2025-10-20T14:21:14.000Z</time>
      </trkpt>
      <trkpt lat="49.33437" lon="3.34852">
        <ele>149.3</ele>
        <time>2025-10-20T14:21:15.000Z</time>
      </trkpt>
      <trkpt lat="49.33436" lon="3.34853">
        <ele>148.6</ele>
        <time>2025-10-20T14:21:16.000Z</time>
      </trkpt>
      <trkpt lat="49.33435" lon="3.34855">
        <ele>148</ele>
        <time>2025-10-20T14:21:17.000Z</time>
      </trkpt>
      <trkpt lat="49.33435" lon="3.34856">
        <ele>147.8</ele>
        <time>2025-10-20T14:21:18.000Z</time>
      </trkpt>
      <trkpt lat="49.33435" lon="3.34857">
        <ele>147.5</ele>
        <time>2025-10-20T14:21:19.000Z</time>
      </trkpt>
      <trkpt lat="49.33434" lon="3.34858">
        <ele>147.3</ele>
        <time>2025-10-20T14:21:20.000Z</time>
      </trkpt>
      <trkpt lat="49.33434" lon="3.34858">
        <ele>147</ele>
        <time>2025-10-20T14:21:21.000Z</time>
      </trkpt>
      <trkpt lat="49.33432" lon="3.34859">
        <ele>146.5</ele>
        <time>2025-10-20T14:21:22.000Z</time>
      </trkpt>
      <trkpt lat="49.33431" lon="3.3486">
        <ele>145.9</ele>
        <time>2025-10-20T14:21:23.000Z</time>
      </trkpt>
      <trkpt lat="49.3343" lon="3.34861">
        <ele>145.3</ele>
        <time>2025-10-20T14:21:24.000Z</time>
      </trkpt>
      <trkpt lat="49.33429" lon="3.34861">
        <ele>144.9</ele>
        <time>2025-10-20T14:21:25.000Z</time>
      </trkpt>
      <trkpt lat="49.33428" lon="3.34862">
        <ele>144.5</ele>
        <time>2025-10-20T14:21:26.000Z</time>
      </trkpt>
      <trkpt lat="49.33426" lon="3.34862">
        <ele>143.8</ele>
        <time>2025-10-20T14:21:27.000Z</time>
      </trkpt>
      <trkpt lat="49.33425" lon="3.34863">
        <ele>143.3</ele>
        <time>2025-10-20T14:21:28.000Z</time>
      </trkpt>
      <trkpt lat="49.33424" lon="3.34864">
        <ele>142.9</ele>
        <time>2025-10-20T14:21:29.000Z</time>
      </trkpt>
      <trkpt lat="49.33423" lon="3.34865">
        <ele>142.4</ele>
        <time>2025-10-20T14:21:30.000Z</time>
      </trkpt>
      <trkpt lat="49.33421" lon="3.34866">
        <ele>142</ele>
        <time>2025-10-20T14:21:31.000Z</time>
      </trkpt>
      <trkpt lat="49.3342" lon="3.34867">
        <ele>141.5</ele>
        <time>2025-10-20T14:21:32.000Z</time>
      </trkpt>
      <trkpt lat="49.33419" lon="3.34867">
        <ele>141.2</ele>
        <time>2025-10-20T14:21:33.000Z</time>
      </trkpt>
      <trkpt lat="49.33418" lon="3.34868">
        <ele>140.9</ele>
        <time>2025-10-20T14:21:34.000Z</time>
      </trkpt>
      <trkpt lat="49.33417" lon="3.34868">
        <ele>140.6</ele>
        <time>2025-10-20T14:21:35.000Z</time>
      </trkpt>
      <trkpt lat="49.33416" lon="3.34869">
        <ele>139.8</ele>
        <time>2025-10-20T14:21:36.000Z</time>
      </trkpt>
      <trkpt lat="49.33415" lon="3.34869">
        <ele>139.1</ele>
        <time>2025-10-20T14:21:37.000Z</time>
      </trkpt>
      <trkpt lat="49.33414" lon="3.3487">
        <ele>138.3</ele>
        <time>2025-10-20T14:21:38.000Z</time>
      </trkpt>
      <trkpt lat="49.33413" lon="3.34871">
        <ele>137.3</ele>
        <time>2025-10-20T14:21:39.000Z</time>
      </trkpt>
      <trkpt lat="49.33412" lon="3.34872">
        <ele>136.3</ele>
        <time>2025-10-20T14:21:40.000Z</time>
      </trkpt>
      <trkpt lat="49.3341" lon="3.34873">
        <ele>135.7</ele>
        <time>2025-10-20T14:21:41.000Z</time>
      </trkpt>
      <trkpt lat="49.33409" lon="3.34874">
        <ele>135.3</ele>
        <time>2025-10-20T14:21:42.000Z</time>
      </trkpt>
      <trkpt lat="49.33407" lon="3.34876">
        <ele>134.8</ele>
        <time>2025-10-20T14:21:43.000Z</time>
      </trkpt>
      <trkpt lat="49.33406" lon="3.34876">
        <ele>134.2</ele>
        <time>2025-10-20T14:21:44.000Z</time>
      </trkpt>
      <trkpt lat="49.33405" lon="3.34877">
        <ele>133.6</ele>
        <time>2025-10-20T14:21:45.000Z</time>
      </trkpt>
      <trkpt lat="49.33404" lon="3.34878">
        <ele>133.2</ele>
        <time>2025-10-20T14:21:46.000Z</time>
      </trkpt>
      <trkpt lat="49.33402" lon="3.34879">
        <ele>132.8</ele>
        <time>2025-10-20T14:21:47.000Z</time>
      </trkpt>
      <trkpt lat="49.33401" lon="3.34881">
        <ele>132.5</ele>
        <time>2025-10-20T14:21:48.000Z</time>
      </trkpt>
      <trkpt lat="49.33399" lon="3.34881">
        <ele>131.9</ele>
        <time>2025-10-20T14:21:49.000Z</time>
      </trkpt>
      <trkpt lat="49.33398" lon="3.34883">
        <ele>131.4</ele>
        <time>2025-10-20T14:21:50.000Z</time>
      </trkpt>
      <trkpt lat="49.33397" lon="3.34883">
        <ele>131.1</ele>
        <time>2025-10-20T14:21:51.000Z</time>
      </trkpt>
      <trkpt lat="49.33395" lon="3.34884">
        <ele>130.3</ele>
        <time>2025-10-20T14:21:52.000Z</time>
      </trkpt>
      <trkpt lat="49.33394" lon="3.34885">
        <ele>129.4</ele>
        <time>2025-10-20T14:21:53.000Z</time>
      </trkpt>
      <trkpt lat="49.33392" lon="3.34886">
        <ele>128.5</ele>
        <time>2025-10-20T14:21:54.000Z</time>
      </trkpt>
      <trkpt lat="49.33391" lon="3.34886">
        <ele>128</ele>
        <time>2025-10-20T14:21:55.000Z</time>
      </trkpt>
      <trkpt lat="49.33389" lon="3.34887">
        <ele>127.5</ele>
        <time>2025-10-20T14:21:56.000Z</time>
      </trkpt>
      <trkpt lat="49.33388" lon="3.34888">
        <ele>127</ele>
        <time>2025-10-20T14:21:57.000Z</time>
      </trkpt>
      <trkpt lat="49.33387" lon="3.3489">
        <ele>126.4</ele>
        <time>2025-10-20T14:21:58.000Z</time>
      </trkpt>
      <trkpt lat="49.33385" lon="3.34891">
        <ele>125.9</ele>
        <time>2025-10-20T14:21:59.000Z</time>
      </trkpt>
      <trkpt lat="49.33384" lon="3.34893">
        <ele>125.8</ele>
        <time>2025-10-20T14:22:00.000Z</time>
      </trkpt>
      <trkpt lat="49.33383" lon="3.34894">
        <ele>125.4</ele>
        <time>2025-10-20T14:22:01.000Z</time>
      </trkpt>
      <trkpt lat="49.33382" lon="3.34896">
        <ele>125</ele>
        <time>2025-10-20T14:22:02.000Z</time>
      </trkpt>
      <trkpt lat="49.3338" lon="3.34897">
        <ele>124.5</ele>
        <time>2025-10-20T14:22:03.000Z</time>
      </trkpt>
      <trkpt lat="49.33379" lon="3.34899">
        <ele>124</ele>
        <time>2025-10-20T14:22:04.000Z</time>
      </trkpt>
      <trkpt lat="49.33377" lon="3.349">
        <ele>123.4</ele>
        <time>2025-10-20T14:22:05.000Z</time>
      </trkpt>
      <trkpt lat="49.33376" lon="3.34902">
        <ele>122.5</ele>
        <time>2025-10-20T14:22:06.000Z</time>
      </trkpt>
      <trkpt lat="49.33374" lon="3.34903">
        <ele>121.9</ele>
        <time>2025-10-20T14:22:07.000Z</time>
      </trkpt>
      <trkpt lat="49.33373" lon="3.34905">
        <ele>120.8</ele>
        <time>2025-10-20T14:22:08.000Z</time>
      </trkpt>
      <trkpt lat="49.33372" lon="3.34906">
        <ele>120.1</ele>
        <time>2025-10-20T14:22:09.000Z</time>
      </trkpt>
      <trkpt lat="49.33371" lon="3.34907">
        <ele>119.6</ele>
        <time>2025-10-20T14:22:10.000Z</time>
      </trkpt>
      <trkpt lat="49.3337" lon="3.34908">
        <ele>118.8</ele>
        <time>2025-10-20T14:22:11.000Z</time>
      </trkpt>
      <trkpt lat="49.33369" lon="3.34909">
        <ele>118.6</ele>
        <time>2025-10-20T14:22:12.000Z</time>
      </trkpt>
      <trkpt lat="49.33368" lon="3.34911">
        <ele>118.5</ele>
        <time>2025-10-20T14:22:13.000Z</time>
      </trkpt>
      <trkpt lat="49.33367" lon="3.34913">
        <ele>118.3</ele>
        <time>2025-10-20T14:22:14.000Z</time>
      </trkpt>
      <trkpt lat="49.33366" lon="3.34915">
        <ele>118.2</ele>
        <time>2025-10-20T14:22:15.000Z</time>
      </trkpt>
      <trkpt lat="49.33364" lon="3.34916">
        <ele>118</ele>
        <time>2025-10-20T14:22:16.000Z</time>
      </trkpt>
      <trkpt lat="49.33363" lon="3.34918">
        <ele>117.5</ele>
        <time>2025-10-20T14:22:17.000Z</time>
      </trkpt>
      <trkpt lat="49.33362" lon="3.34919">
        <ele>117.2</ele>
        <time>2025-10-20T14:22:18.000Z</time>
      </trkpt>
      <trkpt lat="49.33361" lon="3.3492">
        <ele>117.1</ele>
        <time>2025-10-20T14:22:19.000Z</time>
      </trkpt>
      <trkpt lat="49.3336" lon="3.34921">
        <ele>116.8</ele>
        <time>2025-10-20T14:22:20.000Z</time>
      </trkpt>
      <trkpt lat="49.3336" lon="3.34923">
        <ele>116.4</ele>
        <time>2025-10-20T14:22:21.000Z</time>
      </trkpt>
      <trkpt lat="49.33359" lon="3.34924">
        <ele>116.1</ele>
        <time>2025-10-20T14:22:22.000Z</time>
      </trkpt>
      <trkpt lat="49.33358" lon="3.34925">
        <ele>116</ele>
        <time>2025-10-20T14:22:23.000Z</time>
      </trkpt>
      <trkpt lat="49.33357" lon="3.34927">
        <ele>115.6</ele>
        <time>2025-10-20T14:22:24.000Z</time>
      </trkpt>
      <trkpt lat="49.33356" lon="3.34928">
        <ele>115.3</ele>
        <time>2025-10-20T14:22:25.000Z</time>
      </trkpt>
      <trkpt lat="49.33355" lon="3.3493">
        <ele>115.5</ele>
        <time>2025-10-20T14:22:26.000Z</time>
      </trkpt>
      <trkpt lat="49.33354" lon="3.34932">
        <ele>114.9</ele>
        <time>2025-10-20T14:22:27.000Z</time>
      </trkpt>
      <trkpt lat="49.33353" lon="3.34934">
        <ele>114.5</ele>
        <time>2025-10-20T14:22:28.000Z</time>
      </trkpt>
      <trkpt lat="49.33352" lon="3.34935">
        <ele>114</ele>
        <time>2025-10-20T14:22:29.000Z</time>
      </trkpt>
      <trkpt lat="49.33351" lon="3.34937">
        <ele>113.8</ele>
        <time>2025-10-20T14:22:30.000Z</time>
      </trkpt>
      <trkpt lat="49.33349" lon="3.34939">
        <ele>113.8</ele>
        <time>2025-10-20T14:22:31.000Z</time>
      </trkpt>
      <trkpt lat="49.33348" lon="3.34941">
        <ele>113.6</ele>
        <time>2025-10-20T14:22:32.000Z</time>
      </trkpt>
      <trkpt lat="49.33348" lon="3.34943">
        <ele>113.4</ele>
        <time>2025-10-20T14:22:33.000Z</time>
      </trkpt>
      <trkpt lat="49.33347" lon="3.34944">
        <ele>113.4</ele>
        <time>2025-10-20T14:22:34.000Z</time>
      </trkpt>
      <trkpt lat="49.33347" lon="3.34946">
        <ele>113.2</ele>
        <time>2025-10-20T14:22:35.000Z</time>
      </trkpt>
      <trkpt lat="49.33346" lon="3.34948">
        <ele>112.8</ele>
        <time>2025-10-20T14:22:36.000Z</time>
      </trkpt>
      <trkpt lat="49.33345" lon="3.3495">
        <ele>112.6</ele>
        <time>2025-10-20T14:22:37.000Z</time>
      </trkpt>
      <trkpt lat="49.33344" lon="3.34952">
        <ele>112.3</ele>
        <time>2025-10-20T14:22:38.000Z</time>
      </trkpt>
      <trkpt lat="49.33343" lon="3.34954">
        <ele>111.8</ele>
        <time>2025-10-20T14:22:39.000Z</time>
      </trkpt>
      <trkpt lat="49.33342" lon="3.34956">
        <ele>111.8</ele>
        <time>2025-10-20T14:22:40.000Z</time>
      </trkpt>
      <trkpt lat="49.33342" lon="3.34958">
        <ele>111.9</ele>
        <time>2025-10-20T14:22:41.000Z</time>
      </trkpt>
      <trkpt lat="49.33341" lon="3.3496">
        <ele>112</ele>
        <time>2025-10-20T14:22:42.000Z</time>
      </trkpt>
      <trkpt lat="49.3334" lon="3.34962">
        <ele>112.1</ele>
        <time>2025-10-20T14:22:43.000Z</time>
      </trkpt>
      <trkpt lat="49.3334" lon="3.34964">
        <ele>112.1</ele>
        <time>2025-10-20T14:22:44.000Z</time>
      </trkpt>
      <trkpt lat="49.33339" lon="3.34967">
        <ele>112.5</ele>
        <time>2025-10-20T14:22:45.000Z</time>
      </trkpt>
      <trkpt lat="49.33338" lon="3.34969">
        <ele>112.7</ele>
        <time>2025-10-20T14:22:46.000Z</time>
      </trkpt>
      <trkpt lat="49.33338" lon="3.34971">
        <ele>112.6</ele>
        <time>2025-10-20T14:22:47.000Z</time>
      </trkpt>
      <trkpt lat="49.33337" lon="3.34973">
        <ele>112.6</ele>
        <time>2025-10-20T14:22:48.000Z</time>
      </trkpt>
      <trkpt lat="49.33336" lon="3.34975">
        <ele>112.6</ele>
        <time>2025-10-20T14:22:49.000Z</time>
      </trkpt>
      <trkpt lat="49.33336" lon="3.34977">
        <ele>112.5</ele>
        <time>2025-10-20T14:22:50.000Z</time>
      </trkpt>
      <trkpt lat="49.33335" lon="3.34979">
        <ele>112.7</ele>
        <time>2025-10-20T14:22:51.000Z</time>
      </trkpt>
      <trkpt lat="49.33335" lon="3.34981">
        <ele>112.9</ele>
        <time>2025-10-20T14:22:52.000Z</time>
      </trkpt>
      <trkpt lat="49.33334" lon="3.34982">
        <ele>113.1</ele>
        <time>2025-10-20T14:22:53.000Z</time>
      </trkpt>
      <trkpt lat="49.33334" lon="3.34985">
        <ele>113.1</ele>
        <time>2025-10-20T14:22:54.000Z</time>
      </trkpt>
      <trkpt lat="49.33334" lon="3.34987">
        <ele>113.2</ele>
        <time>2025-10-20T14:22:55.000Z</time>
      </trkpt>
      <trkpt lat="49.33333" lon="3.34988">
        <ele>113.3</ele>
        <time>2025-10-20T14:22:56.000Z</time>
      </trkpt>
      <trkpt lat="49.33332" lon="3.34991">
        <ele>113.1</ele>
        <time>2025-10-20T14:22:57.000Z</time>
      </trkpt>
      <trkpt lat="49.33332" lon="3.34993">
        <ele>113.1</ele>
        <time>2025-10-20T14:22:58.000Z</time>
      </trkpt>
      <trkpt lat="49.33332" lon="3.34995">
        <ele>113.2</ele>
        <time>2025-10-20T14:22:59.000Z</time>
      </trkpt>
      <trkpt lat="49.33331" lon="3.34997">
        <ele>113.3</ele>
        <time>2025-10-20T14:23:00.000Z</time>
      </trkpt>
      <trkpt lat="49.33331" lon="3.34999">
        <ele>113.4</ele>
        <time>2025-10-20T14:23:01.000Z</time>
      </trkpt>
      <trkpt lat="49.33331" lon="3.35001">
        <ele>113.2</ele>
        <time>2025-10-20T14:23:02.000Z</time>
      </trkpt>
      <trkpt lat="49.3333" lon="3.35003">
        <ele>113.2</ele>
        <time>2025-10-20T14:23:03.000Z</time>
      </trkpt>
      <trkpt lat="49.3333" lon="3.35005">
        <ele>113.2</ele>
        <time>2025-10-20T14:23:04.000Z</time>
      </trkpt>
      <trkpt lat="49.33329" lon="3.35006">
        <ele>113.2</ele>
        <time>2025-10-20T14:23:05.000Z</time>
      </trkpt>
      <trkpt lat="49.33329" lon="3.35007">
        <ele>113.1</ele>
        <time>2025-10-20T14:23:06.000Z</time>
      </trkpt>
      <trkpt lat="49.33329" lon="3.35009">
        <ele>112.9</ele>
        <time>2025-10-20T14:23:07.000Z</time>
      </trkpt>
      <trkpt lat="49.33328" lon="3.3501">
        <ele>113</ele>
        <time>2025-10-20T14:23:08.000Z</time>
      </trkpt>
      <trkpt lat="49.33328" lon="3.35012">
        <ele>113</ele>
        <time>2025-10-20T14:23:09.000Z</time>
      </trkpt>
      <trkpt lat="49.33328" lon="3.35014">
        <ele>113</ele>
        <time>2025-10-20T14:23:10.000Z</time>
      </trkpt>
      <trkpt lat="49.33328" lon="3.35016">
        <ele>113</ele>
        <time>2025-10-20T14:23:11.000Z</time>
      </trkpt>
      <trkpt lat="49.33327" lon="3.35019">
        <ele>113.1</ele>
        <time>2025-10-20T14:23:12.000Z</time>
      </trkpt>
      <trkpt lat="49.33327" lon="3.35021">
        <ele>113.2</ele>
        <time>2025-10-20T14:23:13.000Z</time>
      </trkpt>
      <trkpt lat="49.33327" lon="3.35023">
        <ele>113.1</ele>
        <time>2025-10-20T14:23:14.000Z</time>
      </trkpt>
      <trkpt lat="49.33326" lon="3.35025">
        <ele>113.3</ele>
        <time>2025-10-20T14:23:15.000Z</time>
      </trkpt>
      <trkpt lat="49.33326" lon="3.35027">
        <ele>113.3</ele>
        <time>2025-10-20T14:23:16.000Z</time>
      </trkpt>
      <trkpt lat="49.33326" lon="3.35029">
        <ele>113.2</ele>
        <time>2025-10-20T14:23:17.000Z</time>
      </trkpt>
      <trkpt lat="49.33325" lon="3.35031">
        <ele>113</ele>
        <time>2025-10-20T14:23:18.000Z</time>
      </trkpt>
      <trkpt lat="49.33324" lon="3.35033">
        <ele>112.7</ele>
        <time>2025-10-20T14:23:19.000Z</time>
      </trkpt>
      <trkpt lat="49.33323" lon="3.35034">
        <ele>112.5</ele>
        <time>2025-10-20T14:23:20.000Z</time>
      </trkpt>
      <trkpt lat="49.33323" lon="3.35036">
        <ele>112.4</ele>
        <time>2025-10-20T14:23:21.000Z</time>
      </trkpt>
      <trkpt lat="49.33322" lon="3.35038">
        <ele>112.1</ele>
        <time>2025-10-20T14:23:22.000Z</time>
      </trkpt>
      <trkpt lat="49.33322" lon="3.35039">
        <ele>112.6</ele>
        <time>2025-10-20T14:23:23.000Z</time>
      </trkpt>
      <trkpt lat="49.33321" lon="3.3504">
        <ele>112.4</ele>
        <time>2025-10-20T14:23:24.000Z</time>
      </trkpt>
      <trkpt lat="49.33321" lon="3.35041">
        <ele>112.8</ele>
        <time>2025-10-20T14:23:25.000Z</time>
      </trkpt>
      <trkpt lat="49.3332" lon="3.35042">
        <ele>113.1</ele>
        <time>2025-10-20T14:23:26.000Z</time>
      </trkpt>
      <trkpt lat="49.3332" lon="3.35043">
        <ele>113.4</ele>
        <time>2025-10-20T14:23:27.000Z</time>
      </trkpt>
      <trkpt lat="49.33319" lon="3.35045">
        <ele>113.7</ele>
        <time>2025-10-20T14:23:28.000Z</time>
      </trkpt>
      <trkpt lat="49.33319" lon="3.35046">
        <ele>113.7</ele>
        <time>2025-10-20T14:23:29.000Z</time>
      </trkpt>
      <trkpt lat="49.33319" lon="3.35048">
        <ele>114.1</ele>
        <time>2025-10-20T14:23:30.000Z</time>
      </trkpt>
      <trkpt lat="49.33319" lon="3.3505">
        <ele>114.3</ele>
        <time>2025-10-20T14:23:31.000Z</time>
      </trkpt>
      <trkpt lat="49.33319" lon="3.35052">
        <ele>114.5</ele>
        <time>2025-10-20T14:23:32.000Z</time>
      </trkpt>
      <trkpt lat="49.33319" lon="3.35054">
        <ele>115</ele>
        <time>2025-10-20T14:23:33.000Z</time>
      </trkpt>
      <trkpt lat="49.33319" lon="3.35055">
        <ele>115.3</ele>
        <time>2025-10-20T14:23:34.000Z</time>
      </trkpt>
      <trkpt lat="49.33318" lon="3.35057">
        <ele>115.9</ele>
        <time>2025-10-20T14:23:35.000Z</time>
      </trkpt>
      <trkpt lat="49.33318" lon="3.35059">
        <ele>116.4</ele>
        <time>2025-10-20T14:23:36.000Z</time>
      </trkpt>
      <trkpt lat="49.33318" lon="3.35061">
        <ele>116.8</ele>
        <time>2025-10-20T14:23:37.000Z</time>
      </trkpt>
      <trkpt lat="49.33317" lon="3.35063">
        <ele>116.7</ele>
        <time>2025-10-20T14:23:38.000Z</time>
      </trkpt>
      <trkpt lat="49.33317" lon="3.35065">
        <ele>116.6</ele>
        <time>2025-10-20T14:23:39.000Z</time>
      </trkpt>
      <trkpt lat="49.33317" lon="3.35067">
        <ele>116.7</ele>
        <time>2025-10-20T14:23:40.000Z</time>
      </trkpt>
      <trkpt lat="49.33317" lon="3.3507">
        <ele>116.4</ele>
        <time>2025-10-20T14:23:41.000Z</time>
      </trkpt>
      <trkpt lat="49.33316" lon="3.35072">
        <ele>116.1</ele>
        <time>2025-10-20T14:23:42.000Z</time>
      </trkpt>
      <trkpt lat="49.33315" lon="3.35075">
        <ele>115.9</ele>
        <time>2025-10-20T14:23:43.000Z</time>
      </trkpt>
      <trkpt lat="49.33315" lon="3.35078">
        <ele>115.7</ele>
        <time>2025-10-20T14:23:44.000Z</time>
      </trkpt>
      <trkpt lat="49.33314" lon="3.3508">
        <ele>115.2</ele>
        <time>2025-10-20T14:23:45.000Z</time>
      </trkpt>
      <trkpt lat="49.33313" lon="3.35082">
        <ele>115.3</ele>
        <time>2025-10-20T14:23:46.000Z</time>
      </trkpt>
      <trkpt lat="49.33313" lon="3.35084">
        <ele>115.5</ele>
        <time>2025-10-20T14:23:47.000Z</time>
      </trkpt>
      <trkpt lat="49.33313" lon="3.35085">
        <ele>115.7</ele>
        <time>2025-10-20T14:23:48.000Z</time>
      </trkpt>
      <trkpt lat="49.33312" lon="3.35087">
        <ele>115.5</ele>
        <time>2025-10-20T14:23:49.000Z</time>
      </trkpt>
      <trkpt lat="49.33311" lon="3.35089">
        <ele>115.2</ele>
        <time>2025-10-20T14:23:50.000Z</time>
      </trkpt>
      <trkpt lat="49.33311" lon="3.35091">
        <ele>115</ele>
        <time>2025-10-20T14:23:51.000Z</time>
      </trkpt>
      <trkpt lat="49.3331" lon="3.35093">
        <ele>114.8</ele>
        <time>2025-10-20T14:23:52.000Z</time>
      </trkpt>
      <trkpt lat="49.3331" lon="3.35094">
        <ele>114.8</ele>
        <time>2025-10-20T14:23:53.000Z</time>
      </trkpt>
      <trkpt lat="49.3331" lon="3.35096">
        <ele>114.9</ele>
        <time>2025-10-20T14:23:54.000Z</time>
      </trkpt>
      <trkpt lat="49.3331" lon="3.35098">
        <ele>115.2</ele>
        <time>2025-10-20T14:23:55.000Z</time>
      </trkpt>
      <trkpt lat="49.3331" lon="3.351">
        <ele>115.5</ele>
        <time>2025-10-20T14:23:56.000Z</time>
      </trkpt>
      <trkpt lat="49.33309" lon="3.35102">
        <ele>115.8</ele>
        <time>2025-10-20T14:23:57.000Z</time>
      </trkpt>
      <trkpt lat="49.33309" lon="3.35103">
        <ele>116.2</ele>
        <time>2025-10-20T14:23:58.000Z</time>
      </trkpt>
      <trkpt lat="49.33309" lon="3.35105">
        <ele>116.4</ele>
        <time>2025-10-20T14:23:59.000Z</time>
      </trkpt>
      <trkpt lat="49.33309" lon="3.35107">
        <ele>116.4</ele>
        <time>2025-10-20T14:24:00.000Z</time>
      </trkpt>
      <trkpt lat="49.33308" lon="3.35109">
        <ele>116.2</ele>
        <time>2025-10-20T14:24:01.000Z</time>
      </trkpt>
      <trkpt lat="49.33308" lon="3.35111">
        <ele>116</ele>
        <time>2025-10-20T14:24:02.000Z</time>
      </trkpt>
      <trkpt lat="49.33307" lon="3.35113">
        <ele>115.6</ele>
        <time>2025-10-20T14:24:03.000Z</time>
      </trkpt>
      <trkpt lat="49.33307" lon="3.35114">
        <ele>115.3</ele>
        <time>2025-10-20T14:24:04.000Z</time>
      </trkpt>
      <trkpt lat="49.33306" lon="3.35116">
        <ele>115.2</ele>
        <time>2025-10-20T14:24:05.000Z</time>
      </trkpt>
      <trkpt lat="49.33306" lon="3.35117">
        <ele>115.1</ele>
        <time>2025-10-20T14:24:06.000Z</time>
      </trkpt>
      <trkpt lat="49.33306" lon="3.35119">
        <ele>115.2</ele>
        <time>2025-10-20T14:24:07.000Z</time>
      </trkpt>
      <trkpt lat="49.33305" lon="3.35121">
        <ele>115.3</ele>
        <time>2025-10-20T14:24:08.000Z</time>
      </trkpt>
      <trkpt lat="49.33305" lon="3.35123">
        <ele>115.4</ele>
        <time>2025-10-20T14:24:09.000Z</time>
      </trkpt>
      <trkpt lat="49.33305" lon="3.35125">
        <ele>115.3</ele>
        <time>2025-10-20T14:24:10.000Z</time>
      </trkpt>
      <trkpt lat="49.33304" lon="3.35127">
        <ele>115.5</ele>
        <time>2025-10-20T14:24:11.000Z</time>
      </trkpt>
      <trkpt lat="49.33304" lon="3.35129">
        <ele>115.5</ele>
        <time>2025-10-20T14:24:12.000Z</time>
      </trkpt>
      <trkpt lat="49.33304" lon="3.35131">
        <ele>115.9</ele>
        <time>2025-10-20T14:24:13.000Z</time>
      </trkpt>
      <trkpt lat="49.33304" lon="3.35133">
        <ele>116.2</ele>
        <time>2025-10-20T14:24:14.000Z</time>
      </trkpt>
      <trkpt lat="49.33303" lon="3.35135">
        <ele>116.3</ele>
        <time>2025-10-20T14:24:15.000Z</time>
      </trkpt>
      <trkpt lat="49.33303" lon="3.35137">
        <ele>116.3</ele>
        <time>2025-10-20T14:24:16.000Z</time>
      </trkpt>
      <trkpt lat="49.33303" lon="3.35139">
        <ele>116.5</ele>
        <time>2025-10-20T14:24:17.000Z</time>
      </trkpt>
      <trkpt lat="49.33302" lon="3.35142">
        <ele>116</ele>
        <time>2025-10-20T14:24:18.000Z</time>
      </trkpt>
      <trkpt lat="49.33303" lon="3.35145">
        <ele>115.3</ele>
        <time>2025-10-20T14:24:19.000Z</time>
      </trkpt>
      <trkpt lat="49.33303" lon="3.35146">
        <ele>114.7</ele>
        <time>2025-10-20T14:24:20.000Z</time>
      </trkpt>
      <trkpt lat="49.33303" lon="3.35147">
        <ele>114</ele>
        <time>2025-10-20T14:24:21.000Z</time>
      </trkpt>
      <trkpt lat="49.33303" lon="3.35148">
        <ele>113.9</ele>
        <time>2025-10-20T14:24:22.000Z</time>
      </trkpt>
      <trkpt lat="49.33304" lon="3.35148">
        <ele>113.5</ele>
        <time>2025-10-20T14:24:23.000Z</time>
      </trkpt>
      <trkpt lat="49.33304" lon="3.35149">
        <ele>113</ele>
        <time>2025-10-20T14:24:24.000Z</time>
      </trkpt>
      <trkpt lat="49.33304" lon="3.35149">
        <ele>113</ele>
        <time>2025-10-20T14:24:25.000Z</time>
      </trkpt>
      <trkpt lat="49.33304" lon="3.3515">
        <ele>112.8</ele>
        <time>2025-10-20T14:24:26.000Z</time>
      </trkpt>
      <trkpt lat="49.33303" lon="3.3515">
        <ele>112.7</ele>
        <time>2025-10-20T14:24:27.000Z</time>
      </trkpt>
      <trkpt lat="49.33303" lon="3.35151">
        <ele>112.5</ele>
        <time>2025-10-20T14:24:28.000Z</time>
      </trkpt>
      <trkpt lat="49.33303" lon="3.35152">
        <ele>112.4</ele>
        <time>2025-10-20T14:24:29.000Z</time>
      </trkpt>
      <trkpt lat="49.33303" lon="3.35152">
        <ele>112.4</ele>
        <time>2025-10-20T14:24:30.000Z</time>
      </trkpt>
      <trkpt lat="49.33303" lon="3.35152">
        <ele>112.4</ele>
        <time>2025-10-20T14:24:31.000Z</time>
      </trkpt>
      <trkpt lat="49.33303" lon="3.35152">
        <ele>112.4</ele>
        <time>2025-10-20T14:24:32.000Z</time>
      </trkpt>
      <trkpt lat="49.33303" lon="3.35152">
        <ele>112.4</ele>
        <time>2025-10-20T14:24:33.000Z</time>
      </trkpt>
      <trkpt lat="49.33303" lon="3.35152">
        <ele>112.4</ele>
        <time>2025-10-20T14:24:34.000Z</time>
      </trkpt>
      <trkpt lat="49.33303" lon="3.35152">
        <ele>112.4</ele>
        <time>2025-10-20T14:24:35.000Z</time>
      </trkpt>
      <trkpt lat="49.33303" lon="3.35152">
        <ele>112.4</ele>
        <time>2025-10-20T14:24:36.000Z</time>
      </trkpt>
      <trkpt lat="49.33303" lon="3.35152">
        <ele>112.4</ele>
        <time>2025-10-20T14:24:37.000Z</time>
      </trkpt>
      <trkpt lat="49.33303" lon="3.35152">
        <ele>112.4</ele>
        <time>2025-10-20T14:24:38.000Z</time>
      </trkpt>
      <trkpt lat="49.33303" lon="3.35152">
        <ele>112.4</ele>
        <time>2025-10-20T14:24:39.000Z</time>
      </trkpt>
      <trkpt lat="49.33303" lon="3.35152">
        <ele>112.4</ele>
        <time>2025-10-20T14:24:40.000Z</time>
      </trkpt>
      <trkpt lat="49.33303" lon="3.35152">
        <ele>112.4</ele>
        <time>2025-10-20T14:24:41.000Z</time>
      </trkpt>
      <trkpt lat="49.33303" lon="3.35152">
        <ele>112.4</ele>
        <time>2025-10-20T14:24:42.000Z</time>
      </trkpt>
      <trkpt lat="49.33303" lon="3.35152">
        <ele>112.4</ele>
        <time>2025-10-20T14:24:43.000Z</time>
      </trkpt>
      <trkpt lat="49.33303" lon="3.35152">
        <ele>112.4</ele>
        <time>2025-10-20T14:24:44.000Z</time>
      </trkpt>
      <trkpt lat="49.33303" lon="3.35152">
        <ele>112.4</ele>
        <time>2025-10-20T14:24:45.000Z</time>
      </trkpt>
      <trkpt lat="49.33303" lon="3.35152">
        <ele>112.4</ele>
        <time>2025-10-20T14:24:46.000Z</time>
      </trkpt>
      <trkpt lat="49.33303" lon="3.35152">
        <ele>112.4</ele>
        <time>2025-10-20T14:24:47.000Z</time>
      </trkpt>
      <trkpt lat="49.33303" lon="3.35152">
        <ele>112.4</ele>
        <time>2025-10-20T14:24:48.000Z</time>
      </trkpt>
      <trkpt lat="49.33304" lon="3.35153">
        <ele>110.9</ele>
        <time>2025-10-20T14:24:49.000Z</time>
      </trkpt>
      <trkpt lat="49.33305" lon="3.35153">
        <ele>111</ele>
        <time>2025-10-20T14:24:50.000Z</time>
      </trkpt>
      <trkpt lat="49.33306" lon="3.35154">
        <ele>111.2</ele>
        <time>2025-10-20T14:24:51.000Z</time>
      </trkpt>
      <trkpt lat="49.33307" lon="3.35154">
        <ele>111.1</ele>
        <time>2025-10-20T14:24:52.000Z</time>
      </trkpt>
      <trkpt lat="49.33308" lon="3.35155">
        <ele>111.1</ele>
        <time>2025-10-20T14:24:53.000Z</time>
      </trkpt>
      <trkpt lat="49.33309" lon="3.35155">
        <ele>111.1</ele>
        <time>2025-10-20T14:24:54.000Z</time>
      </trkpt>
      <trkpt lat="49.3331" lon="3.35156">
        <ele>111.3</ele>
        <time>2025-10-20T14:24:55.000Z</time>
      </trkpt>
      <trkpt lat="49.3331" lon="3.35156">
        <ele>111.5</ele>
        <time>2025-10-20T14:24:56.000Z</time>
      </trkpt>
      <trkpt lat="49.33311" lon="3.35157">
        <ele>111.8</ele>
        <time>2025-10-20T14:24:57.000Z</time>
      </trkpt>
      <trkpt lat="49.33312" lon="3.35158">
        <ele>112.1</ele>
        <time>2025-10-20T14:24:58.000Z</time>
      </trkpt>
      <trkpt lat="49.33312" lon="3.35158">
        <ele>112.5</ele>
        <time>2025-10-20T14:24:59.000Z</time>
      </trkpt>
      <trkpt lat="49.33313" lon="3.35159">
        <ele>113</ele>
        <time>2025-10-20T14:25:00.000Z</time>
      </trkpt>
      <trkpt lat="49.33314" lon="3.3516">
        <ele>113.4</ele>
        <time>2025-10-20T14:25:01.000Z</time>
      </trkpt>
      <trkpt lat="49.33315" lon="3.35161">
        <ele>113.7</ele>
        <time>2025-10-20T14:25:02.000Z</time>
      </trkpt>
      <trkpt lat="49.33316" lon="3.35161">
        <ele>113.9</ele>
        <time>2025-10-20T14:25:03.000Z</time>
      </trkpt>
      <trkpt lat="49.33317" lon="3.35162">
        <ele>114.3</ele>
        <time>2025-10-20T14:25:04.000Z</time>
      </trkpt>
      <trkpt lat="49.33318" lon="3.35162">
        <ele>114.7</ele>
        <time>2025-10-20T14:25:05.000Z</time>
      </trkpt>
      <trkpt lat="49.33319" lon="3.35163">
        <ele>115</ele>
        <time>2025-10-20T14:25:06.000Z</time>
      </trkpt>
      <trkpt lat="49.3332" lon="3.35163">
        <ele>115.1</ele>
        <time>2025-10-20T14:25:07.000Z</time>
      </trkpt>
      <trkpt lat="49.33322" lon="3.35164">
        <ele>115.2</ele>
        <time>2025-10-20T14:25:08.000Z</time>
      </trkpt>
      <trkpt lat="49.33323" lon="3.35165">
        <ele>115.2</ele>
        <time>2025-10-20T14:25:09.000Z</time>
      </trkpt>
      <trkpt lat="49.33324" lon="3.35166">
        <ele>115.3</ele>
        <time>2025-10-20T14:25:10.000Z</time>
      </trkpt>
      <trkpt lat="49.33325" lon="3.35166">
        <ele>115.4</ele>
        <time>2025-10-20T14:25:11.000Z</time>
      </trkpt>
      <trkpt lat="49.33326" lon="3.35167">
        <ele>115.5</ele>
        <time>2025-10-20T14:25:12.000Z</time>
      </trkpt>
      <trkpt lat="49.33328" lon="3.35168">
        <ele>115.5</ele>
        <time>2025-10-20T14:25:13.000Z</time>
      </trkpt>
      <trkpt lat="49.33329" lon="3.35168">
        <ele>115.5</ele>
        <time>2025-10-20T14:25:14.000Z</time>
      </trkpt>
      <trkpt lat="49.3333" lon="3.35168">
        <ele>115.4</ele>
        <time>2025-10-20T14:25:15.000Z</time>
      </trkpt>
      <trkpt lat="49.33331" lon="3.35169">
        <ele>115.3</ele>
        <time>2025-10-20T14:25:16.000Z</time>
      </trkpt>
      <trkpt lat="49.33332" lon="3.35169">
        <ele>115.1</ele>
        <time>2025-10-20T14:25:17.000Z</time>
      </trkpt>
      <trkpt lat="49.33333" lon="3.35168">
        <ele>114.9</ele>
        <time>2025-10-20T14:25:18.000Z</time>
      </trkpt>
      <trkpt lat="49.33334" lon="3.35169">
        <ele>114.7</ele>
        <time>2025-10-20T14:25:19.000Z</time>
      </trkpt>
      <trkpt lat="49.33335" lon="3.3517">
        <ele>114.8</ele>
        <time>2025-10-20T14:25:20.000Z</time>
      </trkpt>
      <trkpt lat="49.33336" lon="3.3517">
        <ele>115.1</ele>
        <time>2025-10-20T14:25:21.000Z</time>
      </trkpt>
      <trkpt lat="49.33336" lon="3.3517">
        <ele>115.5</ele>
        <time>2025-10-20T14:25:22.000Z</time>
      </trkpt>
      <trkpt lat="49.33336" lon="3.3517">
        <ele>115.7</ele>
        <time>2025-10-20T14:25:23.000Z</time>
      </trkpt>
      <trkpt lat="49.33337" lon="3.3517">
        <ele>116.1</ele>
        <time>2025-10-20T14:25:24.000Z</time>
      </trkpt>
      <trkpt lat="49.33338" lon="3.3517">
        <ele>116.4</ele>
        <time>2025-10-20T14:25:25.000Z</time>
      </trkpt>
      <trkpt lat="49.33339" lon="3.35171">
        <ele>116.5</ele>
        <time>2025-10-20T14:25:26.000Z</time>
      </trkpt>
      <trkpt lat="49.3334" lon="3.35171">
        <ele>116.8</ele>
        <time>2025-10-20T14:25:27.000Z</time>
      </trkpt>
      <trkpt lat="49.33341" lon="3.35172">
        <ele>117.1</ele>
        <time>2025-10-20T14:25:28.000Z</time>
      </trkpt>
      <trkpt lat="49.33341" lon="3.35172">
        <ele>117.6</ele>
        <time>2025-10-20T14:25:29.000Z</time>
      </trkpt>
      <trkpt lat="49.33342" lon="3.35173">
        <ele>117.9</ele>
        <time>2025-10-20T14:25:30.000Z</time>
      </trkpt>
      <trkpt lat="49.33343" lon="3.35173">
        <ele>117.9</ele>
        <time>2025-10-20T14:25:31.000Z</time>
      </trkpt>
      <trkpt lat="49.33344" lon="3.35174">
        <ele>118.3</ele>
        <time>2025-10-20T14:25:32.000Z</time>
      </trkpt>
      <trkpt lat="49.33345" lon="3.35175">
        <ele>119</ele>
        <time>2025-10-20T14:25:33.000Z</time>
      </trkpt>
      <trkpt lat="49.33346" lon="3.35176">
        <ele>119.5</ele>
        <time>2025-10-20T14:25:34.000Z</time>
      </trkpt>
      <trkpt lat="49.33347" lon="3.35177">
        <ele>120.1</ele>
        <time>2025-10-20T14:25:35.000Z</time>
      </trkpt>
      <trkpt lat="49.33349" lon="3.35177">
        <ele>120.4</ele>
        <time>2025-10-20T14:25:36.000Z</time>
      </trkpt>
      <trkpt lat="49.3335" lon="3.35179">
        <ele>120.9</ele>
        <time>2025-10-20T14:25:37.000Z</time>
      </trkpt>
      <trkpt lat="49.33351" lon="3.35179">
        <ele>121.3</ele>
        <time>2025-10-20T14:25:38.000Z</time>
      </trkpt>
      <trkpt lat="49.33352" lon="3.3518">
        <ele>121.6</ele>
        <time>2025-10-20T14:25:39.000Z</time>
      </trkpt>
      <trkpt lat="49.33353" lon="3.3518">
        <ele>121.8</ele>
        <time>2025-10-20T14:25:40.000Z</time>
      </trkpt>
      <trkpt lat="49.33355" lon="3.3518">
        <ele>121.8</ele>
        <time>2025-10-20T14:25:41.000Z</time>
      </trkpt>
      <trkpt lat="49.33355" lon="3.35181">
        <ele>122</ele>
        <time>2025-10-20T14:25:42.000Z</time>
      </trkpt>
      <trkpt lat="49.33356" lon="3.35181">
        <ele>122.4</ele>
        <time>2025-10-20T14:25:43.000Z</time>
      </trkpt>
      <trkpt lat="49.33357" lon="3.3518">
        <ele>122.7</ele>
        <time>2025-10-20T14:25:44.000Z</time>
      </trkpt>
      <trkpt lat="49.33359" lon="3.3518">
        <ele>122.9</ele>
        <time>2025-10-20T14:25:45.000Z</time>
      </trkpt>
      <trkpt lat="49.3336" lon="3.3518">
        <ele>123.2</ele>
        <time>2025-10-20T14:25:46.000Z</time>
      </trkpt>
      <trkpt lat="49.33361" lon="3.3518">
        <ele>123.7</ele>
        <time>2025-10-20T14:25:47.000Z</time>
      </trkpt>
      <trkpt lat="49.33362" lon="3.3518">
        <ele>124.3</ele>
        <time>2025-10-20T14:25:48.000Z</time>
      </trkpt>
      <trkpt lat="49.33363" lon="3.3518">
        <ele>124.7</ele>
        <time>2025-10-20T14:25:49.000Z</time>
      </trkpt>
      <trkpt lat="49.33364" lon="3.35179">
        <ele>125.3</ele>
        <time>2025-10-20T14:25:50.000Z</time>
      </trkpt>
      <trkpt lat="49.33365" lon="3.35179">
        <ele>126.1</ele>
        <time>2025-10-20T14:25:51.000Z</time>
      </trkpt>
      <trkpt lat="49.33367" lon="3.3518">
        <ele>127.1</ele>
        <time>2025-10-20T14:25:52.000Z</time>
      </trkpt>
      <trkpt lat="49.33368" lon="3.35181">
        <ele>127.5</ele>
        <time>2025-10-20T14:25:53.000Z</time>
      </trkpt>
      <trkpt lat="49.33369" lon="3.35181">
        <ele>127.8</ele>
        <time>2025-10-20T14:25:54.000Z</time>
      </trkpt>
      <trkpt lat="49.33371" lon="3.35183">
        <ele>128.1</ele>
        <time>2025-10-20T14:25:55.000Z</time>
      </trkpt>
      <trkpt lat="49.33372" lon="3.35185">
        <ele>128.3</ele>
        <time>2025-10-20T14:25:56.000Z</time>
      </trkpt>
      <trkpt lat="49.33374" lon="3.35186">
        <ele>128.1</ele>
        <time>2025-10-20T14:25:57.000Z</time>
      </trkpt>
      <trkpt lat="49.33375" lon="3.35186">
        <ele>127.8</ele>
        <time>2025-10-20T14:25:58.000Z</time>
      </trkpt>
      <trkpt lat="49.33377" lon="3.35186">
        <ele>127.6</ele>
        <time>2025-10-20T14:25:59.000Z</time>
      </trkpt>
      <trkpt lat="49.33378" lon="3.35186">
        <ele>127.1</ele>
        <time>2025-10-20T14:26:00.000Z</time>
      </trkpt>
      <trkpt lat="49.33379" lon="3.35186">
        <ele>126.8</ele>
        <time>2025-10-20T14:26:01.000Z</time>
      </trkpt>
      <trkpt lat="49.33381" lon="3.35186">
        <ele>126.6</ele>
        <time>2025-10-20T14:26:02.000Z</time>
      </trkpt>
      <trkpt lat="49.33382" lon="3.35187">
        <ele>126.5</ele>
        <time>2025-10-20T14:26:03.000Z</time>
      </trkpt>
      <trkpt lat="49.33382" lon="3.35187">
        <ele>126.8</ele>
        <time>2025-10-20T14:26:04.000Z</time>
      </trkpt>
      <trkpt lat="49.33383" lon="3.35187">
        <ele>127.3</ele>
        <time>2025-10-20T14:26:05.000Z</time>
      </trkpt>
      <trkpt lat="49.33383" lon="3.35188">
        <ele>127.4</ele>
        <time>2025-10-20T14:26:06.000Z</time>
      </trkpt>
      <trkpt lat="49.33384" lon="3.35188">
        <ele>127.5</ele>
        <time>2025-10-20T14:26:07.000Z</time>
      </trkpt>
      <trkpt lat="49.33386" lon="3.35189">
        <ele>127.8</ele>
        <time>2025-10-20T14:26:08.000Z</time>
      </trkpt>
      <trkpt lat="49.33387" lon="3.35189">
        <ele>128.1</ele>
        <time>2025-10-20T14:26:09.000Z</time>
      </trkpt>
      <trkpt lat="49.33388" lon="3.3519">
        <ele>128.4</ele>
        <time>2025-10-20T14:26:10.000Z</time>
      </trkpt>
      <trkpt lat="49.33389" lon="3.3519">
        <ele>128.8</ele>
        <time>2025-10-20T14:26:11.000Z</time>
      </trkpt>
      <trkpt lat="49.3339" lon="3.35191">
        <ele>129.2</ele>
        <time>2025-10-20T14:26:12.000Z</time>
      </trkpt>
      <trkpt lat="49.33391" lon="3.35192">
        <ele>129.6</ele>
        <time>2025-10-20T14:26:13.000Z</time>
      </trkpt>
      <trkpt lat="49.33393" lon="3.35192">
        <ele>129.8</ele>
        <time>2025-10-20T14:26:14.000Z</time>
      </trkpt>
      <trkpt lat="49.33394" lon="3.35193">
        <ele>130.1</ele>
        <time>2025-10-20T14:26:15.000Z</time>
      </trkpt>
      <trkpt lat="49.33395" lon="3.35193">
        <ele>130.3</ele>
        <time>2025-10-20T14:26:16.000Z</time>
      </trkpt>
      <trkpt lat="49.33396" lon="3.35193">
        <ele>130.2</ele>
        <time>2025-10-20T14:26:17.000Z</time>
      </trkpt>
      <trkpt lat="49.33397" lon="3.35194">
        <ele>130.5</ele>
        <time>2025-10-20T14:26:18.000Z</time>
      </trkpt>
      <trkpt lat="49.33398" lon="3.35194">
        <ele>131</ele>
        <time>2025-10-20T14:26:19.000Z</time>
      </trkpt>
      <trkpt lat="49.33398" lon="3.35194">
        <ele>131.5</ele>
        <time>2025-10-20T14:26:20.000Z</time>
      </trkpt>
      <trkpt lat="49.33399" lon="3.35194">
        <ele>131.7</ele>
        <time>2025-10-20T14:26:21.000Z</time>
      </trkpt>
      <trkpt lat="49.334" lon="3.35195">
        <ele>131.6</ele>
        <time>2025-10-20T14:26:22.000Z</time>
      </trkpt>
      <trkpt lat="49.33401" lon="3.35195">
        <ele>131.9</ele>
        <time>2025-10-20T14:26:23.000Z</time>
      </trkpt>
      <trkpt lat="49.33402" lon="3.35195">
        <ele>132.3</ele>
        <time>2025-10-20T14:26:24.000Z</time>
      </trkpt>
      <trkpt lat="49.33403" lon="3.35195">
        <ele>132.5</ele>
        <time>2025-10-20T14:26:25.000Z</time>
      </trkpt>
      <trkpt lat="49.33404" lon="3.35196">
        <ele>132.7</ele>
        <time>2025-10-20T14:26:26.000Z</time>
      </trkpt>
      <trkpt lat="49.33405" lon="3.35196">
        <ele>132.5</ele>
        <time>2025-10-20T14:26:27.000Z</time>
      </trkpt>
      <trkpt lat="49.33406" lon="3.35196">
        <ele>132.5</ele>
        <time>2025-10-20T14:26:28.000Z</time>
      </trkpt>
      <trkpt lat="49.33406" lon="3.35196">
        <ele>132.7</ele>
        <time>2025-10-20T14:26:29.000Z</time>
      </trkpt>
      <trkpt lat="49.33408" lon="3.35197">
        <ele>132.9</ele>
        <time>2025-10-20T14:26:30.000Z</time>
      </trkpt>
      <trkpt lat="49.33409" lon="3.35197">
        <ele>133.1</ele>
        <time>2025-10-20T14:26:31.000Z</time>
      </trkpt>
      <trkpt lat="49.3341" lon="3.35198">
        <ele>133.5</ele>
        <time>2025-10-20T14:26:32.000Z</time>
      </trkpt>
      <trkpt lat="49.33411" lon="3.35198">
        <ele>134.1</ele>
        <time>2025-10-20T14:26:33.000Z</time>
      </trkpt>
      <trkpt lat="49.33413" lon="3.35199">
        <ele>134.6</ele>
        <time>2025-10-20T14:26:34.000Z</time>
      </trkpt>
      <trkpt lat="49.33414" lon="3.352">
        <ele>134.8</ele>
        <time>2025-10-20T14:26:35.000Z</time>
      </trkpt>
      <trkpt lat="49.33416" lon="3.35201">
        <ele>134.7</ele>
        <time>2025-10-20T14:26:36.000Z</time>
      </trkpt>
      <trkpt lat="49.33417" lon="3.35201">
        <ele>134.6</ele>
        <time>2025-10-20T14:26:37.000Z</time>
      </trkpt>
      <trkpt lat="49.33418" lon="3.35202">
        <ele>134.5</ele>
        <time>2025-10-20T14:26:38.000Z</time>
      </trkpt>
      <trkpt lat="49.3342" lon="3.35202">
        <ele>134.2</ele>
        <time>2025-10-20T14:26:39.000Z</time>
      </trkpt>
      <trkpt lat="49.33421" lon="3.35202">
        <ele>133.9</ele>
        <time>2025-10-20T14:26:40.000Z</time>
      </trkpt>
      <trkpt lat="49.33423" lon="3.35202">
        <ele>133.3</ele>
        <time>2025-10-20T14:26:41.000Z</time>
      </trkpt>
      <trkpt lat="49.33425" lon="3.35202">
        <ele>133.2</ele>
        <time>2025-10-20T14:26:42.000Z</time>
      </trkpt>
      <trkpt lat="49.33426" lon="3.35203">
        <ele>133</ele>
        <time>2025-10-20T14:26:43.000Z</time>
      </trkpt>
      <trkpt lat="49.33428" lon="3.35205">
        <ele>132.7</ele>
        <time>2025-10-20T14:26:44.000Z</time>
      </trkpt>
      <trkpt lat="49.33429" lon="3.35205">
        <ele>132.2</ele>
        <time>2025-10-20T14:26:45.000Z</time>
      </trkpt>
      <trkpt lat="49.3343" lon="3.35206">
        <ele>131.8</ele>
        <time>2025-10-20T14:26:46.000Z</time>
      </trkpt>
      <trkpt lat="49.3343" lon="3.35206">
        <ele>131.6</ele>
        <time>2025-10-20T14:26:47.000Z</time>
      </trkpt>
      <trkpt lat="49.33431" lon="3.35206">
        <ele>131.5</ele>
        <time>2025-10-20T14:26:48.000Z</time>
      </trkpt>
      <trkpt lat="49.33432" lon="3.35206">
        <ele>131.3</ele>
        <time>2025-10-20T14:26:49.000Z</time>
      </trkpt>
      <trkpt lat="49.33433" lon="3.35206">
        <ele>131.2</ele>
        <time>2025-10-20T14:26:50.000Z</time>
      </trkpt>
      <trkpt lat="49.33434" lon="3.35206">
        <ele>131.3</ele>
        <time>2025-10-20T14:26:51.000Z</time>
      </trkpt>
      <trkpt lat="49.33434" lon="3.35206">
        <ele>131.5</ele>
        <time>2025-10-20T14:26:52.000Z</time>
      </trkpt>
      <trkpt lat="49.33435" lon="3.35205">
        <ele>131.7</ele>
        <time>2025-10-20T14:26:53.000Z</time>
      </trkpt>
      <trkpt lat="49.33436" lon="3.35204">
        <ele>131.9</ele>
        <time>2025-10-20T14:26:54.000Z</time>
      </trkpt>
      <trkpt lat="49.33438" lon="3.35202">
        <ele>131.9</ele>
        <time>2025-10-20T14:26:55.000Z</time>
      </trkpt>
      <trkpt lat="49.33439" lon="3.35202">
        <ele>132</ele>
        <time>2025-10-20T14:26:56.000Z</time>
      </trkpt>
      <trkpt lat="49.33441" lon="3.35202">
        <ele>132</ele>
        <time>2025-10-20T14:26:57.000Z</time>
      </trkpt>
      <trkpt lat="49.33442" lon="3.35202">
        <ele>132.1</ele>
        <time>2025-10-20T14:26:58.000Z</time>
      </trkpt>
      <trkpt lat="49.33444" lon="3.35203">
        <ele>132.2</ele>
        <time>2025-10-20T14:26:59.000Z</time>
      </trkpt>
      <trkpt lat="49.33446" lon="3.35203">
        <ele>132</ele>
        <time>2025-10-20T14:27:00.000Z</time>
      </trkpt>
      <trkpt lat="49.33448" lon="3.35204">
        <ele>132</ele>
        <time>2025-10-20T14:27:01.000Z</time>
      </trkpt>
      <trkpt lat="49.3345" lon="3.35205">
        <ele>131.8</ele>
        <time>2025-10-20T14:27:02.000Z</time>
      </trkpt>
      <trkpt lat="49.33452" lon="3.35205">
        <ele>131.4</ele>
        <time>2025-10-20T14:27:03.000Z</time>
      </trkpt>
      <trkpt lat="49.33454" lon="3.35206">
        <ele>130.9</ele>
        <time>2025-10-20T14:27:04.000Z</time>
      </trkpt>
      <trkpt lat="49.33457" lon="3.35206">
        <ele>129.7</ele>
        <time>2025-10-20T14:27:05.000Z</time>
      </trkpt>
      <trkpt lat="49.33459" lon="3.35206">
        <ele>128.4</ele>
        <time>2025-10-20T14:27:06.000Z</time>
      </trkpt>
      <trkpt lat="49.33462" lon="3.35207">
        <ele>127.2</ele>
        <time>2025-10-20T14:27:07.000Z</time>
      </trkpt>
      <trkpt lat="49.33465" lon="3.35206">
        <ele>126.4</ele>
        <time>2025-10-20T14:27:08.000Z</time>
      </trkpt>
      <trkpt lat="49.33467" lon="3.35207">
        <ele>125.8</ele>
        <time>2025-10-20T14:27:09.000Z</time>
      </trkpt>
      <trkpt lat="49.33469" lon="3.35207">
        <ele>125.2</ele>
        <time>2025-10-20T14:27:10.000Z</time>
      </trkpt>
      <trkpt lat="49.3347" lon="3.35206">
        <ele>124.6</ele>
        <time>2025-10-20T14:27:11.000Z</time>
      </trkpt>
      <trkpt lat="49.33472" lon="3.35205">
        <ele>124.3</ele>
        <time>2025-10-20T14:27:12.000Z</time>
      </trkpt>
      <trkpt lat="49.33473" lon="3.35205">
        <ele>123.9</ele>
        <time>2025-10-20T14:27:13.000Z</time>
      </trkpt>
      <trkpt lat="49.33475" lon="3.35205">
        <ele>123.6</ele>
        <time>2025-10-20T14:27:14.000Z</time>
      </trkpt>
      <trkpt lat="49.33477" lon="3.35204">
        <ele>123.2</ele>
        <time>2025-10-20T14:27:15.000Z</time>
      </trkpt>
      <trkpt lat="49.33479" lon="3.35203">
        <ele>122.5</ele>
        <time>2025-10-20T14:27:16.000Z</time>
      </trkpt>
      <trkpt lat="49.33481" lon="3.35202">
        <ele>121.9</ele>
        <time>2025-10-20T14:27:17.000Z</time>
      </trkpt>
      <trkpt lat="49.33482" lon="3.35201">
        <ele>121.5</ele>
        <time>2025-10-20T14:27:18.000Z</time>
      </trkpt>
      <trkpt lat="49.33484" lon="3.35201">
        <ele>121</ele>
        <time>2025-10-20T14:27:19.000Z</time>
      </trkpt>
      <trkpt lat="49.33485" lon="3.352">
        <ele>120.6</ele>
        <time>2025-10-20T14:27:20.000Z</time>
      </trkpt>
      <trkpt lat="49.33487" lon="3.35199">
        <ele>120</ele>
        <time>2025-10-20T14:27:21.000Z</time>
      </trkpt>
      <trkpt lat="49.33488" lon="3.35198">
        <ele>119.4</ele>
        <time>2025-10-20T14:27:22.000Z</time>
      </trkpt>
      <trkpt lat="49.33489" lon="3.35198">
        <ele>118.9</ele>
        <time>2025-10-20T14:27:23.000Z</time>
      </trkpt>
      <trkpt lat="49.3349" lon="3.35196">
        <ele>119.1</ele>
        <time>2025-10-20T14:27:24.000Z</time>
      </trkpt>
      <trkpt lat="49.33491" lon="3.35195">
        <ele>119.1</ele>
        <time>2025-10-20T14:27:25.000Z</time>
      </trkpt>
      <trkpt lat="49.33492" lon="3.35195">
        <ele>118.9</ele>
        <time>2025-10-20T14:27:26.000Z</time>
      </trkpt>
      <trkpt lat="49.33494" lon="3.35194">
        <ele>118.7</ele>
        <time>2025-10-20T14:27:27.000Z</time>
      </trkpt>
      <trkpt lat="49.33495" lon="3.35193">
        <ele>118.2</ele>
        <time>2025-10-20T14:27:28.000Z</time>
      </trkpt>
      <trkpt lat="49.33496" lon="3.35193">
        <ele>117.8</ele>
        <time>2025-10-20T14:27:29.000Z</time>
      </trkpt>
      <trkpt lat="49.33496" lon="3.35192">
        <ele>118.3</ele>
        <time>2025-10-20T14:27:30.000Z</time>
      </trkpt>
      <trkpt lat="49.33497" lon="3.35192">
        <ele>118.2</ele>
        <time>2025-10-20T14:27:31.000Z</time>
      </trkpt>
      <trkpt lat="49.33498" lon="3.35191">
        <ele>118.3</ele>
        <time>2025-10-20T14:27:32.000Z</time>
      </trkpt>
      <trkpt lat="49.33499" lon="3.35189">
        <ele>118.5</ele>
        <time>2025-10-20T14:27:33.000Z</time>
      </trkpt>
      <trkpt lat="49.335" lon="3.35188">
        <ele>118.3</ele>
        <time>2025-10-20T14:27:34.000Z</time>
      </trkpt>
      <trkpt lat="49.33502" lon="3.35187">
        <ele>118.2</ele>
        <time>2025-10-20T14:27:35.000Z</time>
      </trkpt>
      <trkpt lat="49.33503" lon="3.35187">
        <ele>118</ele>
        <time>2025-10-20T14:27:36.000Z</time>
      </trkpt>
      <trkpt lat="49.33504" lon="3.35185">
        <ele>117.9</ele>
        <time>2025-10-20T14:27:37.000Z</time>
      </trkpt>
      <trkpt lat="49.33506" lon="3.35184">
        <ele>117.7</ele>
        <time>2025-10-20T14:27:38.000Z</time>
      </trkpt>
      <trkpt lat="49.33507" lon="3.35183">
        <ele>117.9</ele>
        <time>2025-10-20T14:27:39.000Z</time>
      </trkpt>
      <trkpt lat="49.33508" lon="3.35182">
        <ele>118.1</ele>
        <time>2025-10-20T14:27:40.000Z</time>
      </trkpt>
      <trkpt lat="49.33508" lon="3.35181">
        <ele>118.4</ele>
        <time>2025-10-20T14:27:41.000Z</time>
      </trkpt>
      <trkpt lat="49.33509" lon="3.35179">
        <ele>118.7</ele>
        <time>2025-10-20T14:27:42.000Z</time>
      </trkpt>
      <trkpt lat="49.33509" lon="3.35178">
        <ele>118.8</ele>
        <time>2025-10-20T14:27:43.000Z</time>
      </trkpt>
      <trkpt lat="49.3351" lon="3.35177">
        <ele>118.9</ele>
        <time>2025-10-20T14:27:44.000Z</time>
      </trkpt>
      <trkpt lat="49.33511" lon="3.35176">
        <ele>119.2</ele>
        <time>2025-10-20T14:27:45.000Z</time>
      </trkpt>
      <trkpt lat="49.33512" lon="3.35175">
        <ele>119.4</ele>
        <time>2025-10-20T14:27:46.000Z</time>
      </trkpt>
      <trkpt lat="49.33513" lon="3.35174">
        <ele>119.6</ele>
        <time>2025-10-20T14:27:47.000Z</time>
      </trkpt>
      <trkpt lat="49.33514" lon="3.35173">
        <ele>119.8</ele>
        <time>2025-10-20T14:27:48.000Z</time>
      </trkpt>
      <trkpt lat="49.33515" lon="3.35171">
        <ele>119.9</ele>
        <time>2025-10-20T14:27:49.000Z</time>
      </trkpt>
      <trkpt lat="49.33516" lon="3.3517">
        <ele>119.9</ele>
        <time>2025-10-20T14:27:50.000Z</time>
      </trkpt>
      <trkpt lat="49.33517" lon="3.3517">
        <ele>120.1</ele>
        <time>2025-10-20T14:27:51.000Z</time>
      </trkpt>
      <trkpt lat="49.33518" lon="3.35169">
        <ele>120.1</ele>
        <time>2025-10-20T14:27:52.000Z</time>
      </trkpt>
      <trkpt lat="49.33519" lon="3.35168">
        <ele>120.2</ele>
        <time>2025-10-20T14:27:53.000Z</time>
      </trkpt>
      <trkpt lat="49.33521" lon="3.35167">
        <ele>120.1</ele>
        <time>2025-10-20T14:27:54.000Z</time>
      </trkpt>
      <trkpt lat="49.33522" lon="3.35167">
        <ele>120</ele>
        <time>2025-10-20T14:27:55.000Z</time>
      </trkpt>
      <trkpt lat="49.33523" lon="3.35165">
        <ele>119.9</ele>
        <time>2025-10-20T14:27:56.000Z</time>
      </trkpt>
      <trkpt lat="49.33523" lon="3.35164">
        <ele>119.7</ele>
        <time>2025-10-20T14:27:57.000Z</time>
      </trkpt>
      <trkpt lat="49.33525" lon="3.35164">
        <ele>119.5</ele>
        <time>2025-10-20T14:27:58.000Z</time>
      </trkpt>
      <trkpt lat="49.33526" lon="3.35164">
        <ele>119.3</ele>
        <time>2025-10-20T14:27:59.000Z</time>
      </trkpt>
      <trkpt lat="49.33527" lon="3.35163">
        <ele>119</ele>
        <time>2025-10-20T14:28:00.000Z</time>
      </trkpt>
      <trkpt lat="49.33529" lon="3.35162">
        <ele>118.7</ele>
        <time>2025-10-20T14:28:01.000Z</time>
      </trkpt>
      <trkpt lat="49.3353" lon="3.35161">
        <ele>118.3</ele>
        <time>2025-10-20T14:28:02.000Z</time>
      </trkpt>
      <trkpt lat="49.33531" lon="3.3516">
        <ele>117.8</ele>
        <time>2025-10-20T14:28:03.000Z</time>
      </trkpt>
      <trkpt lat="49.33532" lon="3.35159">
        <ele>117.6</ele>
        <time>2025-10-20T14:28:04.000Z</time>
      </trkpt>
      <trkpt lat="49.33534" lon="3.35158">
        <ele>117.6</ele>
        <time>2025-10-20T14:28:05.000Z</time>
      </trkpt>
      <trkpt lat="49.33535" lon="3.35157">
        <ele>117.7</ele>
        <time>2025-10-20T14:28:06.000Z</time>
      </trkpt>
      <trkpt lat="49.33537" lon="3.35156">
        <ele>117.6</ele>
        <time>2025-10-20T14:28:07.000Z</time>
      </trkpt>
      <trkpt lat="49.33538" lon="3.35155">
        <ele>117.6</ele>
        <time>2025-10-20T14:28:08.000Z</time>
      </trkpt>
      <trkpt lat="49.3354" lon="3.35155">
        <ele>117.2</ele>
        <time>2025-10-20T14:28:09.000Z</time>
      </trkpt>
      <trkpt lat="49.33541" lon="3.35155">
        <ele>117.2</ele>
        <time>2025-10-20T14:28:10.000Z</time>
      </trkpt>
      <trkpt lat="49.33543" lon="3.35153">
        <ele>117.4</ele>
        <time>2025-10-20T14:28:11.000Z</time>
      </trkpt>
      <trkpt lat="49.33544" lon="3.35153">
        <ele>117.6</ele>
        <time>2025-10-20T14:28:12.000Z</time>
      </trkpt>
      <trkpt lat="49.33546" lon="3.35153">
        <ele>117.7</ele>
        <time>2025-10-20T14:28:13.000Z</time>
      </trkpt>
      <trkpt lat="49.33547" lon="3.35153">
        <ele>118.1</ele>
        <time>2025-10-20T14:28:14.000Z</time>
      </trkpt>
      <trkpt lat="49.33548" lon="3.35153">
        <ele>118.6</ele>
        <time>2025-10-20T14:28:15.000Z</time>
      </trkpt>
      <trkpt lat="49.33549" lon="3.35153">
        <ele>119.2</ele>
        <time>2025-10-20T14:28:16.000Z</time>
      </trkpt>
      <trkpt lat="49.3355" lon="3.35153">
        <ele>119.8</ele>
        <time>2025-10-20T14:28:17.000Z</time>
      </trkpt>
      <trkpt lat="49.33551" lon="3.35153">
        <ele>120.3</ele>
        <time>2025-10-20T14:28:18.000Z</time>
      </trkpt>
      <trkpt lat="49.33552" lon="3.35153">
        <ele>120.8</ele>
        <time>2025-10-20T14:28:19.000Z</time>
      </trkpt>
      <trkpt lat="49.33553" lon="3.35152">
        <ele>121.1</ele>
        <time>2025-10-20T14:28:20.000Z</time>
      </trkpt>
      <trkpt lat="49.33554" lon="3.35152">
        <ele>121.8</ele>
        <time>2025-10-20T14:28:21.000Z</time>
      </trkpt>
      <trkpt lat="49.33555" lon="3.35151">
        <ele>122.7</ele>
        <time>2025-10-20T14:28:22.000Z</time>
      </trkpt>
      <trkpt lat="49.33556" lon="3.3515">
        <ele>123.4</ele>
        <time>2025-10-20T14:28:23.000Z</time>
      </trkpt>
      <trkpt lat="49.33557" lon="3.35149">
        <ele>124.1</ele>
        <time>2025-10-20T14:28:24.000Z</time>
      </trkpt>
      <trkpt lat="49.33558" lon="3.35148">
        <ele>124.8</ele>
        <time>2025-10-20T14:28:25.000Z</time>
      </trkpt>
      <trkpt lat="49.33559" lon="3.35147">
        <ele>125.3</ele>
        <time>2025-10-20T14:28:26.000Z</time>
      </trkpt>
      <trkpt lat="49.3356" lon="3.35146">
        <ele>125.7</ele>
        <time>2025-10-20T14:28:27.000Z</time>
      </trkpt>
      <trkpt lat="49.33561" lon="3.35146">
        <ele>126.3</ele>
        <time>2025-10-20T14:28:28.000Z</time>
      </trkpt>
      <trkpt lat="49.33563" lon="3.35145">
        <ele>126.5</ele>
        <time>2025-10-20T14:28:29.000Z</time>
      </trkpt>
      <trkpt lat="49.33564" lon="3.35144">
        <ele>127</ele>
        <time>2025-10-20T14:28:30.000Z</time>
      </trkpt>
      <trkpt lat="49.33565" lon="3.35144">
        <ele>127.5</ele>
        <time>2025-10-20T14:28:31.000Z</time>
      </trkpt>
      <trkpt lat="49.33567" lon="3.35145">
        <ele>127.9</ele>
        <time>2025-10-20T14:28:32.000Z</time>
      </trkpt>
      <trkpt lat="49.33568" lon="3.35144">
        <ele>128.2</ele>
        <time>2025-10-20T14:28:33.000Z</time>
      </trkpt>
      <trkpt lat="49.33569" lon="3.35144">
        <ele>128.5</ele>
        <time>2025-10-20T14:28:34.000Z</time>
      </trkpt>
      <trkpt lat="49.33571" lon="3.35145">
        <ele>128.8</ele>
        <time>2025-10-20T14:28:35.000Z</time>
      </trkpt>
      <trkpt lat="49.33572" lon="3.35145">
        <ele>129.1</ele>
        <time>2025-10-20T14:28:36.000Z</time>
      </trkpt>
      <trkpt lat="49.33574" lon="3.35144">
        <ele>129.3</ele>
        <time>2025-10-20T14:28:37.000Z</time>
      </trkpt>
      <trkpt lat="49.33575" lon="3.35145">
        <ele>129.6</ele>
        <time>2025-10-20T14:28:38.000Z</time>
      </trkpt>
      <trkpt lat="49.33577" lon="3.35145">
        <ele>129.8</ele>
        <time>2025-10-20T14:28:39.000Z</time>
      </trkpt>
      <trkpt lat="49.33578" lon="3.35146">
        <ele>129.8</ele>
        <time>2025-10-20T14:28:40.000Z</time>
      </trkpt>
      <trkpt lat="49.33579" lon="3.35146">
        <ele>129.9</ele>
        <time>2025-10-20T14:28:41.000Z</time>
      </trkpt>
      <trkpt lat="49.33581" lon="3.35147">
        <ele>130.1</ele>
        <time>2025-10-20T14:28:42.000Z</time>
      </trkpt>
      <trkpt lat="49.33582" lon="3.35148">
        <ele>130.3</ele>
        <time>2025-10-20T14:28:43.000Z</time>
      </trkpt>
      <trkpt lat="49.33584" lon="3.35149">
        <ele>130.4</ele>
        <time>2025-10-20T14:28:44.000Z</time>
      </trkpt>
      <trkpt lat="49.33585" lon="3.3515">
        <ele>130.3</ele>
        <time>2025-10-20T14:28:45.000Z</time>
      </trkpt>
      <trkpt lat="49.33587" lon="3.35151">
        <ele>130.4</ele>
        <time>2025-10-20T14:28:46.000Z</time>
      </trkpt>
      <trkpt lat="49.33588" lon="3.35152">
        <ele>130.4</ele>
        <time>2025-10-20T14:28:47.000Z</time>
      </trkpt>
      <trkpt lat="49.3359" lon="3.35153">
        <ele>130.5</ele>
        <time>2025-10-20T14:28:48.000Z</time>
      </trkpt>
      <trkpt lat="49.33591" lon="3.35154">
        <ele>130.6</ele>
        <time>2025-10-20T14:28:49.000Z</time>
      </trkpt>
      <trkpt lat="49.33593" lon="3.35155">
        <ele>130.5</ele>
        <time>2025-10-20T14:28:50.000Z</time>
      </trkpt>
      <trkpt lat="49.33594" lon="3.35156">
        <ele>130.5</ele>
        <time>2025-10-20T14:28:51.000Z</time>
      </trkpt>
      <trkpt lat="49.33595" lon="3.35157">
        <ele>130.9</ele>
        <time>2025-10-20T14:28:52.000Z</time>
      </trkpt>
      <trkpt lat="49.33596" lon="3.35157">
        <ele>131.4</ele>
        <time>2025-10-20T14:28:53.000Z</time>
      </trkpt>
      <trkpt lat="49.33596" lon="3.35158">
        <ele>131.9</ele>
        <time>2025-10-20T14:28:54.000Z</time>
      </trkpt>
      <trkpt lat="49.33596" lon="3.35158">
        <ele>132.7</ele>
        <time>2025-10-20T14:28:55.000Z</time>
      </trkpt>
      <trkpt lat="49.33597" lon="3.35158">
        <ele>133.5</ele>
        <time>2025-10-20T14:28:56.000Z</time>
      </trkpt>
      <trkpt lat="49.33597" lon="3.35159">
        <ele>134.1</ele>
        <time>2025-10-20T14:28:57.000Z</time>
      </trkpt>
      <trkpt lat="49.33598" lon="3.3516">
        <ele>134.9</ele>
        <time>2025-10-20T14:28:58.000Z</time>
      </trkpt>
      <trkpt lat="49.33599" lon="3.3516">
        <ele>135.6</ele>
        <time>2025-10-20T14:28:59.000Z</time>
      </trkpt>
      <trkpt lat="49.336" lon="3.35162">
        <ele>135.9</ele>
        <time>2025-10-20T14:29:00.000Z</time>
      </trkpt>
      <trkpt lat="49.33602" lon="3.35162">
        <ele>135.9</ele>
        <time>2025-10-20T14:29:01.000Z</time>
      </trkpt>
      <trkpt lat="49.33603" lon="3.35164">
        <ele>136</ele>
        <time>2025-10-20T14:29:02.000Z</time>
      </trkpt>
      <trkpt lat="49.33604" lon="3.35166">
        <ele>136.1</ele>
        <time>2025-10-20T14:29:03.000Z</time>
      </trkpt>
      <trkpt lat="49.33605" lon="3.35167">
        <ele>136.2</ele>
        <time>2025-10-20T14:29:04.000Z</time>
      </trkpt>
      <trkpt lat="49.33606" lon="3.35168">
        <ele>136.1</ele>
        <time>2025-10-20T14:29:05.000Z</time>
      </trkpt>
      <trkpt lat="49.33606" lon="3.35169">
        <ele>136.4</ele>
        <time>2025-10-20T14:29:06.000Z</time>
      </trkpt>
      <trkpt lat="49.33607" lon="3.3517">
        <ele>136.3</ele>
        <time>2025-10-20T14:29:07.000Z</time>
      </trkpt>
      <trkpt lat="49.33608" lon="3.35171">
        <ele>136.5</ele>
        <time>2025-10-20T14:29:08.000Z</time>
      </trkpt>
      <trkpt lat="49.33609" lon="3.35172">
        <ele>136.5</ele>
        <time>2025-10-20T14:29:09.000Z</time>
      </trkpt>
      <trkpt lat="49.33609" lon="3.35173">
        <ele>136.6</ele>
        <time>2025-10-20T14:29:10.000Z</time>
      </trkpt>
      <trkpt lat="49.3361" lon="3.35173">
        <ele>136.5</ele>
        <time>2025-10-20T14:29:11.000Z</time>
      </trkpt>
      <trkpt lat="49.33611" lon="3.35174">
        <ele>136.7</ele>
        <time>2025-10-20T14:29:12.000Z</time>
      </trkpt>
      <trkpt lat="49.33611" lon="3.35175">
        <ele>136.9</ele>
        <time>2025-10-20T14:29:13.000Z</time>
      </trkpt>
      <trkpt lat="49.33612" lon="3.35176">
        <ele>137</ele>
        <time>2025-10-20T14:29:14.000Z</time>
      </trkpt>
      <trkpt lat="49.33613" lon="3.35177">
        <ele>137.1</ele>
        <time>2025-10-20T14:29:15.000Z</time>
      </trkpt>
      <trkpt lat="49.33615" lon="3.35178">
        <ele>137.1</ele>
        <time>2025-10-20T14:29:16.000Z</time>
      </trkpt>
      <trkpt lat="49.33616" lon="3.35178">
        <ele>137.3</ele>
        <time>2025-10-20T14:29:17.000Z</time>
      </trkpt>
      <trkpt lat="49.33618" lon="3.35178">
        <ele>137.4</ele>
        <time>2025-10-20T14:29:18.000Z</time>
      </trkpt>
      <trkpt lat="49.33619" lon="3.3518">
        <ele>137.4</ele>
        <time>2025-10-20T14:29:19.000Z</time>
      </trkpt>
      <trkpt lat="49.3362" lon="3.35181">
        <ele>137.4</ele>
        <time>2025-10-20T14:29:20.000Z</time>
      </trkpt>
      <trkpt lat="49.33621" lon="3.35182">
        <ele>137.6</ele>
        <time>2025-10-20T14:29:21.000Z</time>
      </trkpt>
      <trkpt lat="49.33622" lon="3.35183">
        <ele>137.6</ele>
        <time>2025-10-20T14:29:22.000Z</time>
      </trkpt>
      <trkpt lat="49.33623" lon="3.35184">
        <ele>137.7</ele>
        <time>2025-10-20T14:29:23.000Z</time>
      </trkpt>
      <trkpt lat="49.33624" lon="3.35184">
        <ele>138</ele>
        <time>2025-10-20T14:29:24.000Z</time>
      </trkpt>
      <trkpt lat="49.33625" lon="3.35185">
        <ele>138.4</ele>
        <time>2025-10-20T14:29:25.000Z</time>
      </trkpt>
      <trkpt lat="49.33626" lon="3.35186">
        <ele>138.8</ele>
        <time>2025-10-20T14:29:26.000Z</time>
      </trkpt>
      <trkpt lat="49.33627" lon="3.35187">
        <ele>139</ele>
        <time>2025-10-20T14:29:27.000Z</time>
      </trkpt>
      <trkpt lat="49.33628" lon="3.35187">
        <ele>139.4</ele>
        <time>2025-10-20T14:29:28.000Z</time>
      </trkpt>
      <trkpt lat="49.33629" lon="3.35188">
        <ele>139.9</ele>
        <time>2025-10-20T14:29:29.000Z</time>
      </trkpt>
      <trkpt lat="49.33629" lon="3.35188">
        <ele>140.4</ele>
        <time>2025-10-20T14:29:30.000Z</time>
      </trkpt>
      <trkpt lat="49.3363" lon="3.35188">
        <ele>141.1</ele>
        <time>2025-10-20T14:29:31.000Z</time>
      </trkpt>
      <trkpt lat="49.33631" lon="3.35189">
        <ele>141.8</ele>
        <time>2025-10-20T14:29:32.000Z</time>
      </trkpt>
      <trkpt lat="49.33631" lon="3.3519">
        <ele>142.1</ele>
        <time>2025-10-20T14:29:33.000Z</time>
      </trkpt>
      <trkpt lat="49.33632" lon="3.35191">
        <ele>142.6</ele>
        <time>2025-10-20T14:29:34.000Z</time>
      </trkpt>
      <trkpt lat="49.33633" lon="3.35193">
        <ele>143.2</ele>
        <time>2025-10-20T14:29:35.000Z</time>
      </trkpt>
      <trkpt lat="49.33634" lon="3.35194">
        <ele>143.1</ele>
        <time>2025-10-20T14:29:36.000Z</time>
      </trkpt>
      <trkpt lat="49.33635" lon="3.35196">
        <ele>143.8</ele>
        <time>2025-10-20T14:29:37.000Z</time>
      </trkpt>
      <trkpt lat="49.33637" lon="3.35197">
        <ele>144.5</ele>
        <time>2025-10-20T14:29:38.000Z</time>
      </trkpt>
      <trkpt lat="49.33637" lon="3.35199">
        <ele>145.1</ele>
        <time>2025-10-20T14:29:39.000Z</time>
      </trkpt>
      <trkpt lat="49.33639" lon="3.35201">
        <ele>145.6</ele>
        <time>2025-10-20T14:29:40.000Z</time>
      </trkpt>
      <trkpt lat="49.3364" lon="3.35203">
        <ele>146</ele>
        <time>2025-10-20T14:29:41.000Z</time>
      </trkpt>
      <trkpt lat="49.3364" lon="3.35204">
        <ele>146.4</ele>
        <time>2025-10-20T14:29:42.000Z</time>
      </trkpt>
      <trkpt lat="49.33642" lon="3.35206">
        <ele>146.7</ele>
        <time>2025-10-20T14:29:43.000Z</time>
      </trkpt>
      <trkpt lat="49.33643" lon="3.35207">
        <ele>147</ele>
        <time>2025-10-20T14:29:44.000Z</time>
      </trkpt>
      <trkpt lat="49.33644" lon="3.35208">
        <ele>147.5</ele>
        <time>2025-10-20T14:29:45.000Z</time>
      </trkpt>
      <trkpt lat="49.33644" lon="3.3521">
        <ele>147.9</ele>
        <time>2025-10-20T14:29:46.000Z</time>
      </trkpt>
      <trkpt lat="49.33645" lon="3.35211">
        <ele>148.2</ele>
        <time>2025-10-20T14:29:47.000Z</time>
      </trkpt>
      <trkpt lat="49.33646" lon="3.35212">
        <ele>148.4</ele>
        <time>2025-10-20T14:29:48.000Z</time>
      </trkpt>
      <trkpt lat="49.33647" lon="3.35213">
        <ele>148.4</ele>
        <time>2025-10-20T14:29:49.000Z</time>
      </trkpt>
      <trkpt lat="49.33647" lon="3.35215">
        <ele>148.7</ele>
        <time>2025-10-20T14:29:50.000Z</time>
      </trkpt>
      <trkpt lat="49.33648" lon="3.35217">
        <ele>148.6</ele>
        <time>2025-10-20T14:29:51.000Z</time>
      </trkpt>
      <trkpt lat="49.33648" lon="3.35217">
        <ele>149.1</ele>
        <time>2025-10-20T14:29:52.000Z</time>
      </trkpt>
      <trkpt lat="49.33649" lon="3.35217">
        <ele>149.2</ele>
        <time>2025-10-20T14:29:53.000Z</time>
      </trkpt>
      <trkpt lat="49.33649" lon="3.35218">
        <ele>149.7</ele>
        <time>2025-10-20T14:29:54.000Z</time>
      </trkpt>
      <trkpt lat="49.3365" lon="3.35218">
        <ele>150.2</ele>
        <time>2025-10-20T14:29:55.000Z</time>
      </trkpt>
      <trkpt lat="49.3365" lon="3.35219">
        <ele>150.5</ele>
        <time>2025-10-20T14:29:56.000Z</time>
      </trkpt>
      <trkpt lat="49.33651" lon="3.35219">
        <ele>150.9</ele>
        <time>2025-10-20T14:29:57.000Z</time>
      </trkpt>
      <trkpt lat="49.33652" lon="3.3522">
        <ele>151.2</ele>
        <time>2025-10-20T14:29:58.000Z</time>
      </trkpt>
      <trkpt lat="49.33653" lon="3.35221">
        <ele>151.5</ele>
        <time>2025-10-20T14:29:59.000Z</time>
      </trkpt>
      <trkpt lat="49.33655" lon="3.35222">
        <ele>151.5</ele>
        <time>2025-10-20T14:30:00.000Z</time>
      </trkpt>
      <trkpt lat="49.33656" lon="3.35224">
        <ele>151.8</ele>
        <time>2025-10-20T14:30:01.000Z</time>
      </trkpt>
      <trkpt lat="49.33657" lon="3.35224">
        <ele>151.9</ele>
        <time>2025-10-20T14:30:02.000Z</time>
      </trkpt>
      <trkpt lat="49.33658" lon="3.35226">
        <ele>152</ele>
        <time>2025-10-20T14:30:03.000Z</time>
      </trkpt>
      <trkpt lat="49.3366" lon="3.35228">
        <ele>152.1</ele>
        <time>2025-10-20T14:30:04.000Z</time>
      </trkpt>
      <trkpt lat="49.33661" lon="3.3523">
        <ele>152.2</ele>
        <time>2025-10-20T14:30:05.000Z</time>
      </trkpt>
      <trkpt lat="49.33663" lon="3.35231">
        <ele>152.4</ele>
        <time>2025-10-20T14:30:06.000Z</time>
      </trkpt>
      <trkpt lat="49.33665" lon="3.35234">
        <ele>152.5</ele>
        <time>2025-10-20T14:30:07.000Z</time>
      </trkpt>
      <trkpt lat="49.33666" lon="3.35235">
        <ele>152.8</ele>
        <time>2025-10-20T14:30:08.000Z</time>
      </trkpt>
      <trkpt lat="49.33666" lon="3.35236">
        <ele>153.2</ele>
        <time>2025-10-20T14:30:09.000Z</time>
      </trkpt>
      <trkpt lat="49.33667" lon="3.35237">
        <ele>153.5</ele>
        <time>2025-10-20T14:30:10.000Z</time>
      </trkpt>
      <trkpt lat="49.33668" lon="3.35238">
        <ele>153.8</ele>
        <time>2025-10-20T14:30:11.000Z</time>
      </trkpt>
      <trkpt lat="49.33669" lon="3.35239">
        <ele>154.2</ele>
        <time>2025-10-20T14:30:12.000Z</time>
      </trkpt>
      <trkpt lat="49.3367" lon="3.35241">
        <ele>154.6</ele>
        <time>2025-10-20T14:30:13.000Z</time>
      </trkpt>
      <trkpt lat="49.33671" lon="3.35242">
        <ele>155.2</ele>
        <time>2025-10-20T14:30:14.000Z</time>
      </trkpt>
      <trkpt lat="49.33672" lon="3.35243">
        <ele>155.5</ele>
        <time>2025-10-20T14:30:15.000Z</time>
      </trkpt>
      <trkpt lat="49.33674" lon="3.35244">
        <ele>155.4</ele>
        <time>2025-10-20T14:30:16.000Z</time>
      </trkpt>
      <trkpt lat="49.33675" lon="3.35247">
        <ele>155.5</ele>
        <time>2025-10-20T14:30:17.000Z</time>
      </trkpt>
      <trkpt lat="49.33677" lon="3.35251">
        <ele>155.2</ele>
        <time>2025-10-20T14:30:18.000Z</time>
      </trkpt>
      <trkpt lat="49.33678" lon="3.35253">
        <ele>155.5</ele>
        <time>2025-10-20T14:30:19.000Z</time>
      </trkpt>
      <trkpt lat="49.33679" lon="3.35255">
        <ele>155.8</ele>
        <time>2025-10-20T14:30:20.000Z</time>
      </trkpt>
      <trkpt lat="49.3368" lon="3.35257">
        <ele>156</ele>
        <time>2025-10-20T14:30:21.000Z</time>
      </trkpt>
      <trkpt lat="49.33683" lon="3.3526">
        <ele>155.6</ele>
        <time>2025-10-20T14:30:22.000Z</time>
      </trkpt>
      <trkpt lat="49.33684" lon="3.35262">
        <ele>155.7</ele>
        <time>2025-10-20T14:30:23.000Z</time>
      </trkpt>
      <trkpt lat="49.33685" lon="3.35264">
        <ele>155.9</ele>
        <time>2025-10-20T14:30:24.000Z</time>
      </trkpt>
      <trkpt lat="49.33686" lon="3.35266">
        <ele>155.9</ele>
        <time>2025-10-20T14:30:25.000Z</time>
      </trkpt>
      <trkpt lat="49.33687" lon="3.35268">
        <ele>155.8</ele>
        <time>2025-10-20T14:30:26.000Z</time>
      </trkpt>
      <trkpt lat="49.33688" lon="3.35269">
        <ele>155.7</ele>
        <time>2025-10-20T14:30:27.000Z</time>
      </trkpt>
      <trkpt lat="49.33688" lon="3.35271">
        <ele>155.8</ele>
        <time>2025-10-20T14:30:28.000Z</time>
      </trkpt>
      <trkpt lat="49.33689" lon="3.35272">
        <ele>156</ele>
        <time>2025-10-20T14:30:29.000Z</time>
      </trkpt>
      <trkpt lat="49.3369" lon="3.35275">
        <ele>155.7</ele>
        <time>2025-10-20T14:30:30.000Z</time>
      </trkpt>
      <trkpt lat="49.33691" lon="3.35276">
        <ele>156.1</ele>
        <time>2025-10-20T14:30:31.000Z</time>
      </trkpt>
      <trkpt lat="49.33692" lon="3.35279">
        <ele>155.7</ele>
        <time>2025-10-20T14:30:32.000Z</time>
      </trkpt>
      <trkpt lat="49.33692" lon="3.35281">
        <ele>155.6</ele>
        <time>2025-10-20T14:30:33.000Z</time>
      </trkpt>
      <trkpt lat="49.33693" lon="3.35283">
        <ele>155.2</ele>
        <time>2025-10-20T14:30:34.000Z</time>
      </trkpt>
      <trkpt lat="49.33693" lon="3.35284">
        <ele>155.3</ele>
        <time>2025-10-20T14:30:35.000Z</time>
      </trkpt>
      <trkpt lat="49.33694" lon="3.35285">
        <ele>155.4</ele>
        <time>2025-10-20T14:30:36.000Z</time>
      </trkpt>
      <trkpt lat="49.33694" lon="3.35286">
        <ele>155.7</ele>
        <time>2025-10-20T14:30:37.000Z</time>
      </trkpt>
      <trkpt lat="49.33695" lon="3.35288">
        <ele>155.9</ele>
        <time>2025-10-20T14:30:38.000Z</time>
      </trkpt>
      <trkpt lat="49.33696" lon="3.35289">
        <ele>156.1</ele>
        <time>2025-10-20T14:30:39.000Z</time>
      </trkpt>
      <trkpt lat="49.33696" lon="3.35291">
        <ele>156</ele>
        <time>2025-10-20T14:30:40.000Z</time>
      </trkpt>
      <trkpt lat="49.33697" lon="3.35293">
        <ele>155.9</ele>
        <time>2025-10-20T14:30:41.000Z</time>
      </trkpt>
      <trkpt lat="49.33698" lon="3.35294">
        <ele>156.1</ele>
        <time>2025-10-20T14:30:42.000Z</time>
      </trkpt>
      <trkpt lat="49.33698" lon="3.35297">
        <ele>156</ele>
        <time>2025-10-20T14:30:43.000Z</time>
      </trkpt>
      <trkpt lat="49.33699" lon="3.35299">
        <ele>155.8</ele>
        <time>2025-10-20T14:30:44.000Z</time>
      </trkpt>
      <trkpt lat="49.33699" lon="3.353">
        <ele>155.8</ele>
        <time>2025-10-20T14:30:45.000Z</time>
      </trkpt>
      <trkpt lat="49.337" lon="3.35302">
        <ele>155.8</ele>
        <time>2025-10-20T14:30:46.000Z</time>
      </trkpt>
      <trkpt lat="49.337" lon="3.35304">
        <ele>155.4</ele>
        <time>2025-10-20T14:30:47.000Z</time>
      </trkpt>
      <trkpt lat="49.33701" lon="3.35306">
        <ele>155.2</ele>
        <time>2025-10-20T14:30:48.000Z</time>
      </trkpt>
      <trkpt lat="49.33701" lon="3.35308">
        <ele>155</ele>
        <time>2025-10-20T14:30:49.000Z</time>
      </trkpt>
      <trkpt lat="49.33702" lon="3.3531">
        <ele>155.1</ele>
        <time>2025-10-20T14:30:50.000Z</time>
      </trkpt>
      <trkpt lat="49.33703" lon="3.35313">
        <ele>155.1</ele>
        <time>2025-10-20T14:30:51.000Z</time>
      </trkpt>
      <trkpt lat="49.33703" lon="3.35316">
        <ele>155.1</ele>
        <time>2025-10-20T14:30:52.000Z</time>
      </trkpt>
      <trkpt lat="49.33704" lon="3.35318">
        <ele>155.1</ele>
        <time>2025-10-20T14:30:53.000Z</time>
      </trkpt>
      <trkpt lat="49.33704" lon="3.3532">
        <ele>155</ele>
        <time>2025-10-20T14:30:54.000Z</time>
      </trkpt>
      <trkpt lat="49.33705" lon="3.35322">
        <ele>154.9</ele>
        <time>2025-10-20T14:30:55.000Z</time>
      </trkpt>
      <trkpt lat="49.33705" lon="3.35324">
        <ele>154.8</ele>
        <time>2025-10-20T14:30:56.000Z</time>
      </trkpt>
      <trkpt lat="49.33706" lon="3.35327">
        <ele>154.6</ele>
        <time>2025-10-20T14:30:57.000Z</time>
      </trkpt>
      <trkpt lat="49.33707" lon="3.35328">
        <ele>154.5</ele>
        <time>2025-10-20T14:30:58.000Z</time>
      </trkpt>
      <trkpt lat="49.33707" lon="3.35329">
        <ele>154.6</ele>
        <time>2025-10-20T14:30:59.000Z</time>
      </trkpt>
      <trkpt lat="49.33707" lon="3.35329">
        <ele>154.7</ele>
        <time>2025-10-20T14:31:00.000Z</time>
      </trkpt>
      <trkpt lat="49.33707" lon="3.35329">
        <ele>154.8</ele>
        <time>2025-10-20T14:31:01.000Z</time>
      </trkpt>
      <trkpt lat="49.33707" lon="3.35329">
        <ele>154.7</ele>
        <time>2025-10-20T14:31:02.000Z</time>
      </trkpt>
      <trkpt lat="49.33707" lon="3.35329">
        <ele>154.6</ele>
        <time>2025-10-20T14:31:03.000Z</time>
      </trkpt>
      <trkpt lat="49.33707" lon="3.3533">
        <ele>154.6</ele>
        <time>2025-10-20T14:31:04.000Z</time>
      </trkpt>
      <trkpt lat="49.33707" lon="3.35331">
        <ele>154.4</ele>
        <time>2025-10-20T14:31:05.000Z</time>
      </trkpt>
      <trkpt lat="49.33707" lon="3.35333">
        <ele>154.2</ele>
        <time>2025-10-20T14:31:06.000Z</time>
      </trkpt>
      <trkpt lat="49.33707" lon="3.35334">
        <ele>154</ele>
        <time>2025-10-20T14:31:07.000Z</time>
      </trkpt>
      <trkpt lat="49.33707" lon="3.35335">
        <ele>153.6</ele>
        <time>2025-10-20T14:31:08.000Z</time>
      </trkpt>
      <trkpt lat="49.33707" lon="3.35336">
        <ele>153.4</ele>
        <time>2025-10-20T14:31:09.000Z</time>
      </trkpt>
      <trkpt lat="49.33707" lon="3.35336">
        <ele>153.4</ele>
        <time>2025-10-20T14:31:10.000Z</time>
      </trkpt>
      <trkpt lat="49.33707" lon="3.35336">
        <ele>153.4</ele>
        <time>2025-10-20T14:31:11.000Z</time>
      </trkpt>
      <trkpt lat="49.33707" lon="3.35336">
        <ele>153.4</ele>
        <time>2025-10-20T14:31:12.000Z</time>
      </trkpt>
      <trkpt lat="49.33707" lon="3.35336">
        <ele>153.4</ele>
        <time>2025-10-20T14:31:13.000Z</time>
      </trkpt>
      <trkpt lat="49.33707" lon="3.35336">
        <ele>153.4</ele>
        <time>2025-10-20T14:31:14.000Z</time>
      </trkpt>
      <trkpt lat="49.33707" lon="3.35336">
        <ele>153.4</ele>
        <time>2025-10-20T14:31:15.000Z</time>
      </trkpt>
      <trkpt lat="49.33707" lon="3.35336">
        <ele>153.4</ele>
        <time>2025-10-20T14:31:16.000Z</time>
      </trkpt>
      <trkpt lat="49.33707" lon="3.35336">
        <ele>153.4</ele>
        <time>2025-10-20T14:31:17.000Z</time>
      </trkpt>
      <trkpt lat="49.33707" lon="3.35336">
        <ele>153.4</ele>
        <time>2025-10-20T14:31:18.000Z</time>
      </trkpt>
      <trkpt lat="49.33707" lon="3.35336">
        <ele>153.4</ele>
        <time>2025-10-20T14:31:19.000Z</time>
      </trkpt>
      <trkpt lat="49.33707" lon="3.35336">
        <ele>153.4</ele>
        <time>2025-10-20T14:31:20.000Z</time>
      </trkpt>
      <trkpt lat="49.33706" lon="3.35342">
        <ele>151.7</ele>
        <time>2025-10-20T14:31:21.000Z</time>
      </trkpt>
      <trkpt lat="49.33706" lon="3.35343">
        <ele>151.6</ele>
        <time>2025-10-20T14:31:22.000Z</time>
      </trkpt>
      <trkpt lat="49.33706" lon="3.35344">
        <ele>151.6</ele>
        <time>2025-10-20T14:31:23.000Z</time>
      </trkpt>
      <trkpt lat="49.33706" lon="3.35345">
        <ele>151.7</ele>
        <time>2025-10-20T14:31:24.000Z</time>
      </trkpt>
      <trkpt lat="49.33706" lon="3.35345">
        <ele>151.8</ele>
        <time>2025-10-20T14:31:25.000Z</time>
      </trkpt>
      <trkpt lat="49.33706" lon="3.35346">
        <ele>152.1</ele>
        <time>2025-10-20T14:31:26.000Z</time>
      </trkpt>
      <trkpt lat="49.33707" lon="3.35347">
        <ele>152.3</ele>
        <time>2025-10-20T14:31:27.000Z</time>
      </trkpt>
      <trkpt lat="49.33708" lon="3.35349">
        <ele>152.4</ele>
        <time>2025-10-20T14:31:28.000Z</time>
      </trkpt>
      <trkpt lat="49.33708" lon="3.35351">
        <ele>152.4</ele>
        <time>2025-10-20T14:31:29.000Z</time>
      </trkpt>
      <trkpt lat="49.33709" lon="3.35353">
        <ele>152.4</ele>
        <time>2025-10-20T14:31:30.000Z</time>
      </trkpt>
      <trkpt lat="49.3371" lon="3.35355">
        <ele>152.3</ele>
        <time>2025-10-20T14:31:31.000Z</time>
      </trkpt>
      <trkpt lat="49.3371" lon="3.35357">
        <ele>152.5</ele>
        <time>2025-10-20T14:31:32.000Z</time>
      </trkpt>
      <trkpt lat="49.33711" lon="3.35358">
        <ele>152.6</ele>
        <time>2025-10-20T14:31:33.000Z</time>
      </trkpt>
      <trkpt lat="49.33711" lon="3.3536">
        <ele>152.7</ele>
        <time>2025-10-20T14:31:34.000Z</time>
      </trkpt>
      <trkpt lat="49.33712" lon="3.35361">
        <ele>152.8</ele>
        <time>2025-10-20T14:31:35.000Z</time>
      </trkpt>
      <trkpt lat="49.33713" lon="3.35364">
        <ele>152.4</ele>
        <time>2025-10-20T14:31:36.000Z</time>
      </trkpt>
      <trkpt lat="49.33713" lon="3.35366">
        <ele>152.2</ele>
        <time>2025-10-20T14:31:37.000Z</time>
      </trkpt>
      <trkpt lat="49.33714" lon="3.35367">
        <ele>152.2</ele>
        <time>2025-10-20T14:31:38.000Z</time>
      </trkpt>
      <trkpt lat="49.33715" lon="3.3537">
        <ele>151.8</ele>
        <time>2025-10-20T14:31:39.000Z</time>
      </trkpt>
      <trkpt lat="49.33716" lon="3.35371">
        <ele>151.5</ele>
        <time>2025-10-20T14:31:40.000Z</time>
      </trkpt>
      <trkpt lat="49.33717" lon="3.35373">
        <ele>151.3</ele>
        <time>2025-10-20T14:31:41.000Z</time>
      </trkpt>
      <trkpt lat="49.33718" lon="3.35374">
        <ele>151.1</ele>
        <time>2025-10-20T14:31:42.000Z</time>
      </trkpt>
      <trkpt lat="49.33719" lon="3.35376">
        <ele>150.9</ele>
        <time>2025-10-20T14:31:43.000Z</time>
      </trkpt>
      <trkpt lat="49.33719" lon="3.35378">
        <ele>150.7</ele>
        <time>2025-10-20T14:31:44.000Z</time>
      </trkpt>
      <trkpt lat="49.3372" lon="3.3538">
        <ele>150.5</ele>
        <time>2025-10-20T14:31:45.000Z</time>
      </trkpt>
      <trkpt lat="49.33721" lon="3.35381">
        <ele>150.3</ele>
        <time>2025-10-20T14:31:46.000Z</time>
      </trkpt>
      <trkpt lat="49.33722" lon="3.35383">
        <ele>150.1</ele>
        <time>2025-10-20T14:31:47.000Z</time>
      </trkpt>
      <trkpt lat="49.33722" lon="3.35385">
        <ele>149.9</ele>
        <time>2025-10-20T14:31:48.000Z</time>
      </trkpt>
      <trkpt lat="49.33723" lon="3.35387">
        <ele>149.9</ele>
        <time>2025-10-20T14:31:49.000Z</time>
      </trkpt>
      <trkpt lat="49.33724" lon="3.35388">
        <ele>149.8</ele>
        <time>2025-10-20T14:31:50.000Z</time>
      </trkpt>
      <trkpt lat="49.33724" lon="3.3539">
        <ele>149.7</ele>
        <time>2025-10-20T14:31:51.000Z</time>
      </trkpt>
      <trkpt lat="49.33725" lon="3.35391">
        <ele>149.5</ele>
        <time>2025-10-20T14:31:52.000Z</time>
      </trkpt>
      <trkpt lat="49.33726" lon="3.35393">
        <ele>149.4</ele>
        <time>2025-10-20T14:31:53.000Z</time>
      </trkpt>
      <trkpt lat="49.33727" lon="3.35395">
        <ele>149.2</ele>
        <time>2025-10-20T14:31:54.000Z</time>
      </trkpt>
      <trkpt lat="49.33727" lon="3.35397">
        <ele>148.9</ele>
        <time>2025-10-20T14:31:55.000Z</time>
      </trkpt>
      <trkpt lat="49.33728" lon="3.35399">
        <ele>148.6</ele>
        <time>2025-10-20T14:31:56.000Z</time>
      </trkpt>
      <trkpt lat="49.33729" lon="3.35401">
        <ele>148.3</ele>
        <time>2025-10-20T14:31:57.000Z</time>
      </trkpt>
      <trkpt lat="49.3373" lon="3.35403">
        <ele>147.9</ele>
        <time>2025-10-20T14:31:58.000Z</time>
      </trkpt>
      <trkpt lat="49.3373" lon="3.35405">
        <ele>147.9</ele>
        <time>2025-10-20T14:31:59.000Z</time>
      </trkpt>
      <trkpt lat="49.33731" lon="3.35406">
        <ele>147.9</ele>
        <time>2025-10-20T14:32:00.000Z</time>
      </trkpt>
      <trkpt lat="49.33731" lon="3.35407">
        <ele>148</ele>
        <time>2025-10-20T14:32:01.000Z</time>
      </trkpt>
      <trkpt lat="49.33732" lon="3.35408">
        <ele>148.1</ele>
        <time>2025-10-20T14:32:02.000Z</time>
      </trkpt>
      <trkpt lat="49.33732" lon="3.35409">
        <ele>148.3</ele>
        <time>2025-10-20T14:32:03.000Z</time>
      </trkpt>
      <trkpt lat="49.33732" lon="3.35409">
        <ele>148.5</ele>
        <time>2025-10-20T14:32:04.000Z</time>
      </trkpt>
      <trkpt lat="49.33733" lon="3.3541">
        <ele>148.7</ele>
        <time>2025-10-20T14:32:05.000Z</time>
      </trkpt>
      <trkpt lat="49.33733" lon="3.35411">
        <ele>148.9</ele>
        <time>2025-10-20T14:32:06.000Z</time>
      </trkpt>
      <trkpt lat="49.33734" lon="3.35413">
        <ele>149.1</ele>
        <time>2025-10-20T14:32:07.000Z</time>
      </trkpt>
      <trkpt lat="49.33734" lon="3.35415">
        <ele>149.3</ele>
        <time>2025-10-20T14:32:08.000Z</time>
      </trkpt>
      <trkpt lat="49.33735" lon="3.35417">
        <ele>149.5</ele>
        <time>2025-10-20T14:32:09.000Z</time>
      </trkpt>
      <trkpt lat="49.33735" lon="3.35418">
        <ele>149.7</ele>
        <time>2025-10-20T14:32:10.000Z</time>
      </trkpt>
      <trkpt lat="49.33735" lon="3.3542">
        <ele>149.9</ele>
        <time>2025-10-20T14:32:11.000Z</time>
      </trkpt>
      <trkpt lat="49.33736" lon="3.3542">
        <ele>150.2</ele>
        <time>2025-10-20T14:32:12.000Z</time>
      </trkpt>
      <trkpt lat="49.33736" lon="3.35421">
        <ele>150.3</ele>
        <time>2025-10-20T14:32:13.000Z</time>
      </trkpt>
      <trkpt lat="49.33736" lon="3.35422">
        <ele>150</ele>
        <time>2025-10-20T14:32:14.000Z</time>
      </trkpt>
      <trkpt lat="49.33736" lon="3.35423">
        <ele>149.8</ele>
        <time>2025-10-20T14:32:15.000Z</time>
      </trkpt>
      <trkpt lat="49.33737" lon="3.35424">
        <ele>149.5</ele>
        <time>2025-10-20T14:32:16.000Z</time>
      </trkpt>
      <trkpt lat="49.33737" lon="3.35425">
        <ele>149.3</ele>
        <time>2025-10-20T14:32:17.000Z</time>
      </trkpt>
      <trkpt lat="49.33738" lon="3.35427">
        <ele>148.9</ele>
        <time>2025-10-20T14:32:18.000Z</time>
      </trkpt>
      <trkpt lat="49.33737" lon="3.35428">
        <ele>148.8</ele>
        <time>2025-10-20T14:32:19.000Z</time>
      </trkpt>
      <trkpt lat="49.33737" lon="3.35429">
        <ele>148.6</ele>
        <time>2025-10-20T14:32:20.000Z</time>
      </trkpt>
      <trkpt lat="49.33737" lon="3.35431">
        <ele>148.3</ele>
        <time>2025-10-20T14:32:21.000Z</time>
      </trkpt>
      <trkpt lat="49.33737" lon="3.35432">
        <ele>148</ele>
        <time>2025-10-20T14:32:22.000Z</time>
      </trkpt>
      <trkpt lat="49.33737" lon="3.35433">
        <ele>147.8</ele>
        <time>2025-10-20T14:32:23.000Z</time>
      </trkpt>
      <trkpt lat="49.33737" lon="3.35434">
        <ele>147.7</ele>
        <time>2025-10-20T14:32:24.000Z</time>
      </trkpt>
      <trkpt lat="49.33737" lon="3.35436">
        <ele>147.5</ele>
        <time>2025-10-20T14:32:25.000Z</time>
      </trkpt>
      <trkpt lat="49.33737" lon="3.35437">
        <ele>147.3</ele>
        <time>2025-10-20T14:32:26.000Z</time>
      </trkpt>
      <trkpt lat="49.33736" lon="3.35438">
        <ele>147.2</ele>
        <time>2025-10-20T14:32:27.000Z</time>
      </trkpt>
      <trkpt lat="49.33736" lon="3.35439">
        <ele>146.8</ele>
        <time>2025-10-20T14:32:28.000Z</time>
      </trkpt>
      <trkpt lat="49.33735" lon="3.3544">
        <ele>146.4</ele>
        <time>2025-10-20T14:32:29.000Z</time>
      </trkpt>
      <trkpt lat="49.33735" lon="3.35441">
        <ele>146.1</ele>
        <time>2025-10-20T14:32:30.000Z</time>
      </trkpt>
      <trkpt lat="49.33735" lon="3.35443">
        <ele>145.8</ele>
        <time>2025-10-20T14:32:31.000Z</time>
      </trkpt>
      <trkpt lat="49.33735" lon="3.35444">
        <ele>145.6</ele>
        <time>2025-10-20T14:32:32.000Z</time>
      </trkpt>
      <trkpt lat="49.33734" lon="3.35446">
        <ele>145.4</ele>
        <time>2025-10-20T14:32:33.000Z</time>
      </trkpt>
      <trkpt lat="49.33734" lon="3.35448">
        <ele>145.2</ele>
        <time>2025-10-20T14:32:34.000Z</time>
      </trkpt>
      <trkpt lat="49.33734" lon="3.35449">
        <ele>145.1</ele>
        <time>2025-10-20T14:32:35.000Z</time>
      </trkpt>
      <trkpt lat="49.33734" lon="3.35449">
        <ele>145.1</ele>
        <time>2025-10-20T14:32:36.000Z</time>
      </trkpt>
      <trkpt lat="49.33733" lon="3.3545">
        <ele>145.3</ele>
        <time>2025-10-20T14:32:37.000Z</time>
      </trkpt>
      <trkpt lat="49.33732" lon="3.35452">
        <ele>145.4</ele>
        <time>2025-10-20T14:32:38.000Z</time>
      </trkpt>
      <trkpt lat="49.33732" lon="3.35455">
        <ele>145.3</ele>
        <time>2025-10-20T14:32:39.000Z</time>
      </trkpt>
      <trkpt lat="49.33731" lon="3.35457">
        <ele>145.2</ele>
        <time>2025-10-20T14:32:40.000Z</time>
      </trkpt>
      <trkpt lat="49.33731" lon="3.35459">
        <ele>145.1</ele>
        <time>2025-10-20T14:32:41.000Z</time>
      </trkpt>
      <trkpt lat="49.3373" lon="3.3546">
        <ele>145.1</ele>
        <time>2025-10-20T14:32:42.000Z</time>
      </trkpt>
      <trkpt lat="49.3373" lon="3.35462">
        <ele>145</ele>
        <time>2025-10-20T14:32:43.000Z</time>
      </trkpt>
      <trkpt lat="49.33729" lon="3.35463">
        <ele>145</ele>
        <time>2025-10-20T14:32:44.000Z</time>
      </trkpt>
      <trkpt lat="49.33729" lon="3.35465">
        <ele>145.2</ele>
        <time>2025-10-20T14:32:45.000Z</time>
      </trkpt>
      <trkpt lat="49.33729" lon="3.35466">
        <ele>145.4</ele>
        <time>2025-10-20T14:32:46.000Z</time>
      </trkpt>
      <trkpt lat="49.33728" lon="3.35467">
        <ele>145.5</ele>
        <time>2025-10-20T14:32:47.000Z</time>
      </trkpt>
      <trkpt lat="49.33727" lon="3.35469">
        <ele>145.7</ele>
        <time>2025-10-20T14:32:48.000Z</time>
      </trkpt>
      <trkpt lat="49.33727" lon="3.3547">
        <ele>145.7</ele>
        <time>2025-10-20T14:32:49.000Z</time>
      </trkpt>
      <trkpt lat="49.33726" lon="3.35472">
        <ele>145.6</ele>
        <time>2025-10-20T14:32:50.000Z</time>
      </trkpt>
      <trkpt lat="49.33725" lon="3.35474">
        <ele>145.6</ele>
        <time>2025-10-20T14:32:51.000Z</time>
      </trkpt>
      <trkpt lat="49.33725" lon="3.35475">
        <ele>145.6</ele>
        <time>2025-10-20T14:32:52.000Z</time>
      </trkpt>
      <trkpt lat="49.33725" lon="3.35476">
        <ele>146</ele>
        <time>2025-10-20T14:32:53.000Z</time>
      </trkpt>
      <trkpt lat="49.33724" lon="3.35477">
        <ele>146.3</ele>
        <time>2025-10-20T14:32:54.000Z</time>
      </trkpt>
      <trkpt lat="49.33724" lon="3.35478">
        <ele>146.6</ele>
        <time>2025-10-20T14:32:55.000Z</time>
      </trkpt>
      <trkpt lat="49.33723" lon="3.35479">
        <ele>146.9</ele>
        <time>2025-10-20T14:32:56.000Z</time>
      </trkpt>
      <trkpt lat="49.33722" lon="3.35481">
        <ele>147.1</ele>
        <time>2025-10-20T14:32:57.000Z</time>
      </trkpt>
      <trkpt lat="49.33721" lon="3.35482">
        <ele>147.5</ele>
        <time>2025-10-20T14:32:58.000Z</time>
      </trkpt>
      <trkpt lat="49.33719" lon="3.35483">
        <ele>147.5</ele>
        <time>2025-10-20T14:32:59.000Z</time>
      </trkpt>
      <trkpt lat="49.33718" lon="3.35485">
        <ele>147.6</ele>
        <time>2025-10-20T14:33:00.000Z</time>
      </trkpt>
      <trkpt lat="49.33717" lon="3.35486">
        <ele>147.8</ele>
        <time>2025-10-20T14:33:01.000Z</time>
      </trkpt>
      <trkpt lat="49.33716" lon="3.35488">
        <ele>147.9</ele>
        <time>2025-10-20T14:33:02.000Z</time>
      </trkpt>
      <trkpt lat="49.33715" lon="3.3549">
        <ele>147.8</ele>
        <time>2025-10-20T14:33:03.000Z</time>
      </trkpt>
      <trkpt lat="49.33714" lon="3.35492">
        <ele>147.5</ele>
        <time>2025-10-20T14:33:04.000Z</time>
      </trkpt>
      <trkpt lat="49.33713" lon="3.35495">
        <ele>147.3</ele>
        <time>2025-10-20T14:33:05.000Z</time>
      </trkpt>
      <trkpt lat="49.33712" lon="3.35496">
        <ele>147</ele>
        <time>2025-10-20T14:33:06.000Z</time>
      </trkpt>
      <trkpt lat="49.33711" lon="3.35498">
        <ele>146.7</ele>
        <time>2025-10-20T14:33:07.000Z</time>
      </trkpt>
      <trkpt lat="49.3371" lon="3.35499">
        <ele>146.5</ele>
        <time>2025-10-20T14:33:08.000Z</time>
      </trkpt>
      <trkpt lat="49.33709" lon="3.35501">
        <ele>146.1</ele>
        <time>2025-10-20T14:33:09.000Z</time>
      </trkpt>
      <trkpt lat="49.33708" lon="3.35502">
        <ele>145.9</ele>
        <time>2025-10-20T14:33:10.000Z</time>
      </trkpt>
      <trkpt lat="49.33707" lon="3.35503">
        <ele>145.8</ele>
        <time>2025-10-20T14:33:11.000Z</time>
      </trkpt>
      <trkpt lat="49.33705" lon="3.35505">
        <ele>145</ele>
        <time>2025-10-20T14:33:12.000Z</time>
      </trkpt>
      <trkpt lat="49.33705" lon="3.35506">
        <ele>144.7</ele>
        <time>2025-10-20T14:33:13.000Z</time>
      </trkpt>
      <trkpt lat="49.33704" lon="3.35508">
        <ele>144.3</ele>
        <time>2025-10-20T14:33:14.000Z</time>
      </trkpt>
      <trkpt lat="49.33703" lon="3.3551">
        <ele>143.8</ele>
        <time>2025-10-20T14:33:15.000Z</time>
      </trkpt>
      <trkpt lat="49.33702" lon="3.35513">
        <ele>143.3</ele>
        <time>2025-10-20T14:33:16.000Z</time>
      </trkpt>
      <trkpt lat="49.33702" lon="3.35515">
        <ele>143.1</ele>
        <time>2025-10-20T14:33:17.000Z</time>
      </trkpt>
      <trkpt lat="49.33701" lon="3.35517">
        <ele>142.9</ele>
        <time>2025-10-20T14:33:18.000Z</time>
      </trkpt>
      <trkpt lat="49.337" lon="3.35519">
        <ele>142.7</ele>
        <time>2025-10-20T14:33:19.000Z</time>
      </trkpt>
      <trkpt lat="49.337" lon="3.35522">
        <ele>142.4</ele>
        <time>2025-10-20T14:33:20.000Z</time>
      </trkpt>
      <trkpt lat="49.33698" lon="3.35524">
        <ele>141.7</ele>
        <time>2025-10-20T14:33:21.000Z</time>
      </trkpt>
      <trkpt lat="49.33698" lon="3.35526">
        <ele>141.8</ele>
        <time>2025-10-20T14:33:22.000Z</time>
      </trkpt>
      <trkpt lat="49.33697" lon="3.35527">
        <ele>141.6</ele>
        <time>2025-10-20T14:33:23.000Z</time>
      </trkpt>
      <trkpt lat="49.33697" lon="3.35529">
        <ele>141.3</ele>
        <time>2025-10-20T14:33:24.000Z</time>
      </trkpt>
      <trkpt lat="49.33695" lon="3.35531">
        <ele>140.9</ele>
        <time>2025-10-20T14:33:25.000Z</time>
      </trkpt>
      <trkpt lat="49.33694" lon="3.35532">
        <ele>140.7</ele>
        <time>2025-10-20T14:33:26.000Z</time>
      </trkpt>
      <trkpt lat="49.33693" lon="3.35533">
        <ele>140.4</ele>
        <time>2025-10-20T14:33:27.000Z</time>
      </trkpt>
      <trkpt lat="49.33693" lon="3.35534">
        <ele>140.1</ele>
        <time>2025-10-20T14:33:28.000Z</time>
      </trkpt>
      <trkpt lat="49.33692" lon="3.35535">
        <ele>139.8</ele>
        <time>2025-10-20T14:33:29.000Z</time>
      </trkpt>
      <trkpt lat="49.33691" lon="3.35537">
        <ele>139.5</ele>
        <time>2025-10-20T14:33:30.000Z</time>
      </trkpt>
      <trkpt lat="49.3369" lon="3.35538">
        <ele>139.1</ele>
        <time>2025-10-20T14:33:31.000Z</time>
      </trkpt>
      <trkpt lat="49.33688" lon="3.3554">
        <ele>138.9</ele>
        <time>2025-10-20T14:33:32.000Z</time>
      </trkpt>
      <trkpt lat="49.33687" lon="3.35541">
        <ele>138.5</ele>
        <time>2025-10-20T14:33:33.000Z</time>
      </trkpt>
      <trkpt lat="49.33686" lon="3.35543">
        <ele>138.2</ele>
        <time>2025-10-20T14:33:34.000Z</time>
      </trkpt>
      <trkpt lat="49.33685" lon="3.35545">
        <ele>137.9</ele>
        <time>2025-10-20T14:33:35.000Z</time>
      </trkpt>
      <trkpt lat="49.33684" lon="3.35546">
        <ele>137.6</ele>
        <time>2025-10-20T14:33:36.000Z</time>
      </trkpt>
      <trkpt lat="49.33683" lon="3.35548">
        <ele>137.4</ele>
        <time>2025-10-20T14:33:37.000Z</time>
      </trkpt>
      <trkpt lat="49.33682" lon="3.35549">
        <ele>137</ele>
        <time>2025-10-20T14:33:38.000Z</time>
      </trkpt>
      <trkpt lat="49.33681" lon="3.3555">
        <ele>136.7</ele>
        <time>2025-10-20T14:33:39.000Z</time>
      </trkpt>
      <trkpt lat="49.33681" lon="3.35552">
        <ele>136.6</ele>
        <time>2025-10-20T14:33:40.000Z</time>
      </trkpt>
      <trkpt lat="49.3368" lon="3.35553">
        <ele>136.6</ele>
        <time>2025-10-20T14:33:41.000Z</time>
      </trkpt>
      <trkpt lat="49.33679" lon="3.35555">
        <ele>136.7</ele>
        <time>2025-10-20T14:33:42.000Z</time>
      </trkpt>
      <trkpt lat="49.33679" lon="3.35556">
        <ele>136.8</ele>
        <time>2025-10-20T14:33:43.000Z</time>
      </trkpt>
      <trkpt lat="49.33678" lon="3.35557">
        <ele>137.1</ele>
        <time>2025-10-20T14:33:44.000Z</time>
      </trkpt>
      <trkpt lat="49.33677" lon="3.35559">
        <ele>137.1</ele>
        <time>2025-10-20T14:33:45.000Z</time>
      </trkpt>
      <trkpt lat="49.33675" lon="3.3556">
        <ele>136.8</ele>
        <time>2025-10-20T14:33:46.000Z</time>
      </trkpt>
      <trkpt lat="49.33674" lon="3.35562">
        <ele>136.8</ele>
        <time>2025-10-20T14:33:47.000Z</time>
      </trkpt>
      <trkpt lat="49.33672" lon="3.35563">
        <ele>136.8</ele>
        <time>2025-10-20T14:33:48.000Z</time>
      </trkpt>
      <trkpt lat="49.33671" lon="3.35564">
        <ele>137</ele>
        <time>2025-10-20T14:33:49.000Z</time>
      </trkpt>
      <trkpt lat="49.3367" lon="3.35565">
        <ele>137.2</ele>
        <time>2025-10-20T14:33:50.000Z</time>
      </trkpt>
      <trkpt lat="49.33668" lon="3.35566">
        <ele>137.5</ele>
        <time>2025-10-20T14:33:51.000Z</time>
      </trkpt>
      <trkpt lat="49.33667" lon="3.35567">
        <ele>137.6</ele>
        <time>2025-10-20T14:33:52.000Z</time>
      </trkpt>
      <trkpt lat="49.33665" lon="3.35569">
        <ele>137.5</ele>
        <time>2025-10-20T14:33:53.000Z</time>
      </trkpt>
      <trkpt lat="49.33663" lon="3.3557">
        <ele>137.9</ele>
        <time>2025-10-20T14:33:54.000Z</time>
      </trkpt>
      <trkpt lat="49.33662" lon="3.35572">
        <ele>138.1</ele>
        <time>2025-10-20T14:33:55.000Z</time>
      </trkpt>
      <trkpt lat="49.3366" lon="3.35573">
        <ele>137.6</ele>
        <time>2025-10-20T14:33:56.000Z</time>
      </trkpt>
      <trkpt lat="49.33658" lon="3.35575">
        <ele>137.7</ele>
        <time>2025-10-20T14:33:57.000Z</time>
      </trkpt>
      <trkpt lat="49.33657" lon="3.35576">
        <ele>137.7</ele>
        <time>2025-10-20T14:33:58.000Z</time>
      </trkpt>
      <trkpt lat="49.33655" lon="3.35577">
        <ele>137.9</ele>
        <time>2025-10-20T14:33:59.000Z</time>
      </trkpt>
      <trkpt lat="49.33654" lon="3.35578">
        <ele>138</ele>
        <time>2025-10-20T14:34:00.000Z</time>
      </trkpt>
      <trkpt lat="49.33653" lon="3.35579">
        <ele>138.6</ele>
        <time>2025-10-20T14:34:01.000Z</time>
      </trkpt>
      <trkpt lat="49.33652" lon="3.3558">
        <ele>139.4</ele>
        <time>2025-10-20T14:34:02.000Z</time>
      </trkpt>
      <trkpt lat="49.33651" lon="3.35581">
        <ele>140.1</ele>
        <time>2025-10-20T14:34:03.000Z</time>
      </trkpt>
      <trkpt lat="49.3365" lon="3.35582">
        <ele>140.3</ele>
        <time>2025-10-20T14:34:04.000Z</time>
      </trkpt>
      <trkpt lat="49.33649" lon="3.35582">
        <ele>141</ele>
        <time>2025-10-20T14:34:05.000Z</time>
      </trkpt>
      <trkpt lat="49.33647" lon="3.35583">
        <ele>141</ele>
        <time>2025-10-20T14:34:06.000Z</time>
      </trkpt>
      <trkpt lat="49.33646" lon="3.35584">
        <ele>140.3</ele>
        <time>2025-10-20T14:34:07.000Z</time>
      </trkpt>
      <trkpt lat="49.33644" lon="3.35586">
        <ele>139.7</ele>
        <time>2025-10-20T14:34:08.000Z</time>
      </trkpt>
      <trkpt lat="49.33643" lon="3.35587">
        <ele>139.2</ele>
        <time>2025-10-20T14:34:09.000Z</time>
      </trkpt>
      <trkpt lat="49.33642" lon="3.35587">
        <ele>138.6</ele>
        <time>2025-10-20T14:34:10.000Z</time>
      </trkpt>
      <trkpt lat="49.33641" lon="3.35587">
        <ele>138.6</ele>
        <time>2025-10-20T14:34:11.000Z</time>
      </trkpt>
      <trkpt lat="49.3364" lon="3.35588">
        <ele>138.6</ele>
        <time>2025-10-20T14:34:12.000Z</time>
      </trkpt>
      <trkpt lat="49.33639" lon="3.35589">
        <ele>139.1</ele>
        <time>2025-10-20T14:34:13.000Z</time>
      </trkpt>
      <trkpt lat="49.33639" lon="3.3559">
        <ele>139.9</ele>
        <time>2025-10-20T14:34:14.000Z</time>
      </trkpt>
      <trkpt lat="49.33637" lon="3.35592">
        <ele>139.9</ele>
        <time>2025-10-20T14:34:15.000Z</time>
      </trkpt>
      <trkpt lat="49.33636" lon="3.35593">
        <ele>139.2</ele>
        <time>2025-10-20T14:34:16.000Z</time>
      </trkpt>
      <trkpt lat="49.33634" lon="3.35594">
        <ele>138.6</ele>
        <time>2025-10-20T14:34:17.000Z</time>
      </trkpt>
      <trkpt lat="49.33633" lon="3.35595">
        <ele>137.9</ele>
        <time>2025-10-20T14:34:18.000Z</time>
      </trkpt>
      <trkpt lat="49.33633" lon="3.35596">
        <ele>137.4</ele>
        <time>2025-10-20T14:34:19.000Z</time>
      </trkpt>
      <trkpt lat="49.33632" lon="3.35597">
        <ele>137</ele>
        <time>2025-10-20T14:34:20.000Z</time>
      </trkpt>
      <trkpt lat="49.33631" lon="3.35599">
        <ele>136.9</ele>
        <time>2025-10-20T14:34:21.000Z</time>
      </trkpt>
      <trkpt lat="49.3363" lon="3.356">
        <ele>136.9</ele>
        <time>2025-10-20T14:34:22.000Z</time>
      </trkpt>
      <trkpt lat="49.3363" lon="3.35601">
        <ele>137.5</ele>
        <time>2025-10-20T14:34:23.000Z</time>
      </trkpt>
      <trkpt lat="49.33629" lon="3.35601">
        <ele>138.1</ele>
        <time>2025-10-20T14:34:24.000Z</time>
      </trkpt>
      <trkpt lat="49.33629" lon="3.35602">
        <ele>138.6</ele>
        <time>2025-10-20T14:34:25.000Z</time>
      </trkpt>
      <trkpt lat="49.33629" lon="3.35603">
        <ele>139.1</ele>
        <time>2025-10-20T14:34:26.000Z</time>
      </trkpt>
      <trkpt lat="49.33628" lon="3.35604">
        <ele>139.5</ele>
        <time>2025-10-20T14:34:27.000Z</time>
      </trkpt>
      <trkpt lat="49.33628" lon="3.35605">
        <ele>140.3</ele>
        <time>2025-10-20T14:34:28.000Z</time>
      </trkpt>
      <trkpt lat="49.33627" lon="3.35606">
        <ele>141.1</ele>
        <time>2025-10-20T14:34:29.000Z</time>
      </trkpt>
      <trkpt lat="49.33626" lon="3.35608">
        <ele>141.4</ele>
        <time>2025-10-20T14:34:30.000Z</time>
      </trkpt>
      <trkpt lat="49.33625" lon="3.35609">
        <ele>141.6</ele>
        <time>2025-10-20T14:34:31.000Z</time>
      </trkpt>
      <trkpt lat="49.33624" lon="3.35611">
        <ele>142</ele>
        <time>2025-10-20T14:34:32.000Z</time>
      </trkpt>
      <trkpt lat="49.33623" lon="3.35612">
        <ele>142.5</ele>
        <time>2025-10-20T14:34:33.000Z</time>
      </trkpt>
      <trkpt lat="49.33622" lon="3.35613">
        <ele>142.9</ele>
        <time>2025-10-20T14:34:34.000Z</time>
      </trkpt>
      <trkpt lat="49.33621" lon="3.35613">
        <ele>142.8</ele>
        <time>2025-10-20T14:34:35.000Z</time>
      </trkpt>
      <trkpt lat="49.3362" lon="3.35613">
        <ele>142.5</ele>
        <time>2025-10-20T14:34:36.000Z</time>
      </trkpt>
      <trkpt lat="49.33619" lon="3.35614">
        <ele>142.3</ele>
        <time>2025-10-20T14:34:37.000Z</time>
      </trkpt>
      <trkpt lat="49.33619" lon="3.35615">
        <ele>141.8</ele>
        <time>2025-10-20T14:34:38.000Z</time>
      </trkpt>
      <trkpt lat="49.33618" lon="3.35615">
        <ele>141.5</ele>
        <time>2025-10-20T14:34:39.000Z</time>
      </trkpt>
      <trkpt lat="49.33617" lon="3.35616">
        <ele>140.9</ele>
        <time>2025-10-20T14:34:40.000Z</time>
      </trkpt>
      <trkpt lat="49.33617" lon="3.35616">
        <ele>140.8</ele>
        <time>2025-10-20T14:34:41.000Z</time>
      </trkpt>
      <trkpt lat="49.33616" lon="3.35616">
        <ele>140.6</ele>
        <time>2025-10-20T14:34:42.000Z</time>
      </trkpt>
      <trkpt lat="49.33615" lon="3.35617">
        <ele>140.3</ele>
        <time>2025-10-20T14:34:43.000Z</time>
      </trkpt>
      <trkpt lat="49.33615" lon="3.35617">
        <ele>140.1</ele>
        <time>2025-10-20T14:34:44.000Z</time>
      </trkpt>
      <trkpt lat="49.33614" lon="3.35617">
        <ele>139.7</ele>
        <time>2025-10-20T14:34:45.000Z</time>
      </trkpt>
      <trkpt lat="49.33613" lon="3.35617">
        <ele>139.6</ele>
        <time>2025-10-20T14:34:46.000Z</time>
      </trkpt>
      <trkpt lat="49.33612" lon="3.35617">
        <ele>139.4</ele>
        <time>2025-10-20T14:34:47.000Z</time>
      </trkpt>
      <trkpt lat="49.33611" lon="3.35618">
        <ele>139.3</ele>
        <time>2025-10-20T14:34:48.000Z</time>
      </trkpt>
      <trkpt lat="49.3361" lon="3.35619">
        <ele>139.1</ele>
        <time>2025-10-20T14:34:49.000Z</time>
      </trkpt>
      <trkpt lat="49.33609" lon="3.3562">
        <ele>138.9</ele>
        <time>2025-10-20T14:34:50.000Z</time>
      </trkpt>
      <trkpt lat="49.33607" lon="3.35621">
        <ele>138.7</ele>
        <time>2025-10-20T14:34:51.000Z</time>
      </trkpt>
      <trkpt lat="49.33606" lon="3.35622">
        <ele>138.4</ele>
        <time>2025-10-20T14:34:52.000Z</time>
      </trkpt>
      <trkpt lat="49.33605" lon="3.35622">
        <ele>138.4</ele>
        <time>2025-10-20T14:34:53.000Z</time>
      </trkpt>
      <trkpt lat="49.33604" lon="3.35623">
        <ele>138.6</ele>
        <time>2025-10-20T14:34:54.000Z</time>
      </trkpt>
      <trkpt lat="49.33603" lon="3.35623">
        <ele>138.8</ele>
        <time>2025-10-20T14:34:55.000Z</time>
      </trkpt>
      <trkpt lat="49.33601" lon="3.35623">
        <ele>139.1</ele>
        <time>2025-10-20T14:34:56.000Z</time>
      </trkpt>
      <trkpt lat="49.336" lon="3.35623">
        <ele>138.9</ele>
        <time>2025-10-20T14:34:57.000Z</time>
      </trkpt>
      <trkpt lat="49.33599" lon="3.35624">
        <ele>138.6</ele>
        <time>2025-10-20T14:34:58.000Z</time>
      </trkpt>
      <trkpt lat="49.33597" lon="3.35625">
        <ele>138.3</ele>
        <time>2025-10-20T14:34:59.000Z</time>
      </trkpt>
      <trkpt lat="49.33595" lon="3.35626">
        <ele>138.1</ele>
        <time>2025-10-20T14:35:00.000Z</time>
      </trkpt>
      <trkpt lat="49.33594" lon="3.35627">
        <ele>137.6</ele>
        <time>2025-10-20T14:35:01.000Z</time>
      </trkpt>
      <trkpt lat="49.33593" lon="3.35628">
        <ele>137</ele>
        <time>2025-10-20T14:35:02.000Z</time>
      </trkpt>
      <trkpt lat="49.33591" lon="3.35629">
        <ele>136.5</ele>
        <time>2025-10-20T14:35:03.000Z</time>
      </trkpt>
      <trkpt lat="49.3359" lon="3.35629">
        <ele>136.3</ele>
        <time>2025-10-20T14:35:04.000Z</time>
      </trkpt>
      <trkpt lat="49.33589" lon="3.3563">
        <ele>135.8</ele>
        <time>2025-10-20T14:35:05.000Z</time>
      </trkpt>
      <trkpt lat="49.33588" lon="3.3563">
        <ele>135.9</ele>
        <time>2025-10-20T14:35:06.000Z</time>
      </trkpt>
      <trkpt lat="49.33587" lon="3.3563">
        <ele>136.1</ele>
        <time>2025-10-20T14:35:07.000Z</time>
      </trkpt>
      <trkpt lat="49.33586" lon="3.35631">
        <ele>136</ele>
        <time>2025-10-20T14:35:08.000Z</time>
      </trkpt>
      <trkpt lat="49.33584" lon="3.35632">
        <ele>135.7</ele>
        <time>2025-10-20T14:35:09.000Z</time>
      </trkpt>
      <trkpt lat="49.33583" lon="3.35632">
        <ele>135.7</ele>
        <time>2025-10-20T14:35:10.000Z</time>
      </trkpt>
      <trkpt lat="49.33581" lon="3.35634">
        <ele>135.4</ele>
        <time>2025-10-20T14:35:11.000Z</time>
      </trkpt>
      <trkpt lat="49.3358" lon="3.35635">
        <ele>134.5</ele>
        <time>2025-10-20T14:35:12.000Z</time>
      </trkpt>
      <trkpt lat="49.33579" lon="3.35636">
        <ele>134.1</ele>
        <time>2025-10-20T14:35:13.000Z</time>
      </trkpt>
      <trkpt lat="49.33578" lon="3.35638">
        <ele>133.5</ele>
        <time>2025-10-20T14:35:14.000Z</time>
      </trkpt>
      <trkpt lat="49.33578" lon="3.35639">
        <ele>133.2</ele>
        <time>2025-10-20T14:35:15.000Z</time>
      </trkpt>
      <trkpt lat="49.33577" lon="3.3564">
        <ele>133.1</ele>
        <time>2025-10-20T14:35:16.000Z</time>
      </trkpt>
      <trkpt lat="49.33576" lon="3.35641">
        <ele>133</ele>
        <time>2025-10-20T14:35:17.000Z</time>
      </trkpt>
      <trkpt lat="49.33575" lon="3.35641">
        <ele>133</ele>
        <time>2025-10-20T14:35:18.000Z</time>
      </trkpt>
      <trkpt lat="49.33574" lon="3.35642">
        <ele>133.3</ele>
        <time>2025-10-20T14:35:19.000Z</time>
      </trkpt>
      <trkpt lat="49.33573" lon="3.35643">
        <ele>133.5</ele>
        <time>2025-10-20T14:35:20.000Z</time>
      </trkpt>
      <trkpt lat="49.33573" lon="3.35644">
        <ele>133.4</ele>
        <time>2025-10-20T14:35:21.000Z</time>
      </trkpt>
      <trkpt lat="49.33572" lon="3.35644">
        <ele>133.3</ele>
        <time>2025-10-20T14:35:22.000Z</time>
      </trkpt>
      <trkpt lat="49.33571" lon="3.35645">
        <ele>133.4</ele>
        <time>2025-10-20T14:35:23.000Z</time>
      </trkpt>
      <trkpt lat="49.3357" lon="3.35646">
        <ele>133.9</ele>
        <time>2025-10-20T14:35:24.000Z</time>
      </trkpt>
      <trkpt lat="49.33569" lon="3.35647">
        <ele>134.4</ele>
        <time>2025-10-20T14:35:25.000Z</time>
      </trkpt>
      <trkpt lat="49.33568" lon="3.35648">
        <ele>134.2</ele>
        <time>2025-10-20T14:35:26.000Z</time>
      </trkpt>
      <trkpt lat="49.33567" lon="3.35649">
        <ele>134.3</ele>
        <time>2025-10-20T14:35:27.000Z</time>
      </trkpt>
      <trkpt lat="49.33566" lon="3.3565">
        <ele>134.4</ele>
        <time>2025-10-20T14:35:28.000Z</time>
      </trkpt>
      <trkpt lat="49.33564" lon="3.35652">
        <ele>134.4</ele>
        <time>2025-10-20T14:35:29.000Z</time>
      </trkpt>
      <trkpt lat="49.33563" lon="3.35652">
        <ele>134.7</ele>
        <time>2025-10-20T14:35:30.000Z</time>
      </trkpt>
      <trkpt lat="49.33562" lon="3.35653">
        <ele>134.7</ele>
        <time>2025-10-20T14:35:31.000Z</time>
      </trkpt>
      <trkpt lat="49.33561" lon="3.35654">
        <ele>134.4</ele>
        <time>2025-10-20T14:35:32.000Z</time>
      </trkpt>
      <trkpt lat="49.33559" lon="3.35655">
        <ele>134.1</ele>
        <time>2025-10-20T14:35:33.000Z</time>
      </trkpt>
      <trkpt lat="49.33558" lon="3.35656">
        <ele>134</ele>
        <time>2025-10-20T14:35:34.000Z</time>
      </trkpt>
      <trkpt lat="49.33556" lon="3.35657">
        <ele>133.4</ele>
        <time>2025-10-20T14:35:35.000Z</time>
      </trkpt>
      <trkpt lat="49.33555" lon="3.35657">
        <ele>133.5</ele>
        <time>2025-10-20T14:35:36.000Z</time>
      </trkpt>
      <trkpt lat="49.33555" lon="3.35658">
        <ele>133.7</ele>
        <time>2025-10-20T14:35:37.000Z</time>
      </trkpt>
      <trkpt lat="49.33554" lon="3.3566">
        <ele>133.4</ele>
        <time>2025-10-20T14:35:38.000Z</time>
      </trkpt>
      <trkpt lat="49.33554" lon="3.3566">
        <ele>133.5</ele>
        <time>2025-10-20T14:35:39.000Z</time>
      </trkpt>
      <trkpt lat="49.33553" lon="3.35662">
        <ele>133.4</ele>
        <time>2025-10-20T14:35:40.000Z</time>
      </trkpt>
      <trkpt lat="49.33552" lon="3.35663">
        <ele>133.1</ele>
        <time>2025-10-20T14:35:41.000Z</time>
      </trkpt>
      <trkpt lat="49.33551" lon="3.35664">
        <ele>132.9</ele>
        <time>2025-10-20T14:35:42.000Z</time>
      </trkpt>
      <trkpt lat="49.33551" lon="3.35665">
        <ele>133.3</ele>
        <time>2025-10-20T14:35:43.000Z</time>
      </trkpt>
      <trkpt lat="49.33551" lon="3.35666">
        <ele>133.9</ele>
        <time>2025-10-20T14:35:44.000Z</time>
      </trkpt>
      <trkpt lat="49.3355" lon="3.35666">
        <ele>134.9</ele>
        <time>2025-10-20T14:35:45.000Z</time>
      </trkpt>
      <trkpt lat="49.33549" lon="3.35666">
        <ele>135.8</ele>
        <time>2025-10-20T14:35:46.000Z</time>
      </trkpt>
      <trkpt lat="49.33548" lon="3.35666">
        <ele>136.7</ele>
        <time>2025-10-20T14:35:47.000Z</time>
      </trkpt>
      <trkpt lat="49.33548" lon="3.35666">
        <ele>137.6</ele>
        <time>2025-10-20T14:35:48.000Z</time>
      </trkpt>
      <trkpt lat="49.33547" lon="3.35666">
        <ele>138.6</ele>
        <time>2025-10-20T14:35:49.000Z</time>
      </trkpt>
      <trkpt lat="49.33546" lon="3.35665">
        <ele>139.5</ele>
        <time>2025-10-20T14:35:50.000Z</time>
      </trkpt>
      <trkpt lat="49.33546" lon="3.35665">
        <ele>140</ele>
        <time>2025-10-20T14:35:51.000Z</time>
      </trkpt>
      <trkpt lat="49.33545" lon="3.35665">
        <ele>140.6</ele>
        <time>2025-10-20T14:35:52.000Z</time>
      </trkpt>
      <trkpt lat="49.33545" lon="3.35667">
        <ele>141.3</ele>
        <time>2025-10-20T14:35:53.000Z</time>
      </trkpt>
      <trkpt lat="49.33544" lon="3.35667">
        <ele>142.2</ele>
        <time>2025-10-20T14:35:54.000Z</time>
      </trkpt>
      <trkpt lat="49.33543" lon="3.35669">
        <ele>143</ele>
        <time>2025-10-20T14:35:55.000Z</time>
      </trkpt>
      <trkpt lat="49.33543" lon="3.35673">
        <ele>143.4</ele>
        <time>2025-10-20T14:35:56.000Z</time>
      </trkpt>
      <trkpt lat="49.33542" lon="3.35675">
        <ele>144</ele>
        <time>2025-10-20T14:35:57.000Z</time>
      </trkpt>
      <trkpt lat="49.33541" lon="3.35676">
        <ele>144.5</ele>
        <time>2025-10-20T14:35:58.000Z</time>
      </trkpt>
      <trkpt lat="49.33541" lon="3.35678">
        <ele>145</ele>
        <time>2025-10-20T14:35:59.000Z</time>
      </trkpt>
      <trkpt lat="49.3354" lon="3.35679">
        <ele>145.3</ele>
        <time>2025-10-20T14:36:00.000Z</time>
      </trkpt>
      <trkpt lat="49.3354" lon="3.35679">
        <ele>145.5</ele>
        <time>2025-10-20T14:36:01.000Z</time>
      </trkpt>
      <trkpt lat="49.33539" lon="3.35681">
        <ele>145.8</ele>
        <time>2025-10-20T14:36:02.000Z</time>
      </trkpt>
      <trkpt lat="49.33539" lon="3.35683">
        <ele>146.2</ele>
        <time>2025-10-20T14:36:03.000Z</time>
      </trkpt>
      <trkpt lat="49.33538" lon="3.35685">
        <ele>146.3</ele>
        <time>2025-10-20T14:36:04.000Z</time>
      </trkpt>
      <trkpt lat="49.33538" lon="3.35688">
        <ele>146.4</ele>
        <time>2025-10-20T14:36:05.000Z</time>
      </trkpt>
      <trkpt lat="49.33537" lon="3.3569">
        <ele>146.7</ele>
        <time>2025-10-20T14:36:06.000Z</time>
      </trkpt>
      <trkpt lat="49.33537" lon="3.35692">
        <ele>146.9</ele>
        <time>2025-10-20T14:36:07.000Z</time>
      </trkpt>
      <trkpt lat="49.33537" lon="3.35694">
        <ele>147.3</ele>
        <time>2025-10-20T14:36:08.000Z</time>
      </trkpt>
      <trkpt lat="49.33536" lon="3.35696">
        <ele>147.6</ele>
        <time>2025-10-20T14:36:09.000Z</time>
      </trkpt>
      <trkpt lat="49.33536" lon="3.35697">
        <ele>147.9</ele>
        <time>2025-10-20T14:36:10.000Z</time>
      </trkpt>
      <trkpt lat="49.33536" lon="3.35699">
        <ele>148.1</ele>
        <time>2025-10-20T14:36:11.000Z</time>
      </trkpt>
      <trkpt lat="49.33536" lon="3.35701">
        <ele>147.9</ele>
        <time>2025-10-20T14:36:12.000Z</time>
      </trkpt>
      <trkpt lat="49.33535" lon="3.35705">
        <ele>147.8</ele>
        <time>2025-10-20T14:36:13.000Z</time>
      </trkpt>
      <trkpt lat="49.33535" lon="3.35707">
        <ele>148.1</ele>
        <time>2025-10-20T14:36:14.000Z</time>
      </trkpt>
      <trkpt lat="49.33534" lon="3.3571">
        <ele>148.1</ele>
        <time>2025-10-20T14:36:15.000Z</time>
      </trkpt>
      <trkpt lat="49.33534" lon="3.35712">
        <ele>148</ele>
        <time>2025-10-20T14:36:16.000Z</time>
      </trkpt>
      <trkpt lat="49.33534" lon="3.35714">
        <ele>148.2</ele>
        <time>2025-10-20T14:36:17.000Z</time>
      </trkpt>
      <trkpt lat="49.33534" lon="3.35717">
        <ele>148.5</ele>
        <time>2025-10-20T14:36:18.000Z</time>
      </trkpt>
      <trkpt lat="49.33533" lon="3.35718">
        <ele>148.6</ele>
        <time>2025-10-20T14:36:19.000Z</time>
      </trkpt>
      <trkpt lat="49.33533" lon="3.35721">
        <ele>148.8</ele>
        <time>2025-10-20T14:36:20.000Z</time>
      </trkpt>
      <trkpt lat="49.33533" lon="3.35724">
        <ele>148.7</ele>
        <time>2025-10-20T14:36:21.000Z</time>
      </trkpt>
      <trkpt lat="49.33532" lon="3.35727">
        <ele>148.7</ele>
        <time>2025-10-20T14:36:22.000Z</time>
      </trkpt>
      <trkpt lat="49.33532" lon="3.3573">
        <ele>148.6</ele>
        <time>2025-10-20T14:36:23.000Z</time>
      </trkpt>
      <trkpt lat="49.33531" lon="3.35732">
        <ele>148.6</ele>
        <time>2025-10-20T14:36:24.000Z</time>
      </trkpt>
      <trkpt lat="49.33532" lon="3.35734">
        <ele>148.3</ele>
        <time>2025-10-20T14:36:25.000Z</time>
      </trkpt>
      <trkpt lat="49.33531" lon="3.35737">
        <ele>147.6</ele>
        <time>2025-10-20T14:36:26.000Z</time>
      </trkpt>
      <trkpt lat="49.33531" lon="3.35739">
        <ele>147.2</ele>
        <time>2025-10-20T14:36:27.000Z</time>
      </trkpt>
      <trkpt lat="49.33531" lon="3.35742">
        <ele>146.7</ele>
        <time>2025-10-20T14:36:28.000Z</time>
      </trkpt>
      <trkpt lat="49.33531" lon="3.35745">
        <ele>145.7</ele>
        <time>2025-10-20T14:36:29.000Z</time>
      </trkpt>
      <trkpt lat="49.33531" lon="3.35747">
        <ele>144.9</ele>
        <time>2025-10-20T14:36:30.000Z</time>
      </trkpt>
      <trkpt lat="49.33532" lon="3.35749">
        <ele>144.7</ele>
        <time>2025-10-20T14:36:31.000Z</time>
      </trkpt>
      <trkpt lat="49.33532" lon="3.3575">
        <ele>145.1</ele>
        <time>2025-10-20T14:36:32.000Z</time>
      </trkpt>
      <trkpt lat="49.33531" lon="3.3575">
        <ele>145.5</ele>
        <time>2025-10-20T14:36:33.000Z</time>
      </trkpt>
      <trkpt lat="49.33531" lon="3.35752">
        <ele>145.5</ele>
        <time>2025-10-20T14:36:34.000Z</time>
      </trkpt>
      <trkpt lat="49.33531" lon="3.35753">
        <ele>145.3</ele>
        <time>2025-10-20T14:36:35.000Z</time>
      </trkpt>
      <trkpt lat="49.3353" lon="3.35754">
        <ele>145.4</ele>
        <time>2025-10-20T14:36:36.000Z</time>
      </trkpt>
      <trkpt lat="49.3353" lon="3.35755">
        <ele>145.6</ele>
        <time>2025-10-20T14:36:37.000Z</time>
      </trkpt>
      <trkpt lat="49.3353" lon="3.35757">
        <ele>145.6</ele>
        <time>2025-10-20T14:36:38.000Z</time>
      </trkpt>
      <trkpt lat="49.3353" lon="3.35759">
        <ele>145.5</ele>
        <time>2025-10-20T14:36:39.000Z</time>
      </trkpt>
      <trkpt lat="49.3353" lon="3.35761">
        <ele>145.3</ele>
        <time>2025-10-20T14:36:40.000Z</time>
      </trkpt>
      <trkpt lat="49.3353" lon="3.35763">
        <ele>145.5</ele>
        <time>2025-10-20T14:36:41.000Z</time>
      </trkpt>
      <trkpt lat="49.3353" lon="3.35764">
        <ele>145.5</ele>
        <time>2025-10-20T14:36:42.000Z</time>
      </trkpt>
      <trkpt lat="49.3353" lon="3.35766">
        <ele>145.5</ele>
        <time>2025-10-20T14:36:43.000Z</time>
      </trkpt>
      <trkpt lat="49.33529" lon="3.35768">
        <ele>145.5</ele>
        <time>2025-10-20T14:36:44.000Z</time>
      </trkpt>
      <trkpt lat="49.33528" lon="3.3577">
        <ele>145.2</ele>
        <time>2025-10-20T14:36:45.000Z</time>
      </trkpt>
      <trkpt lat="49.33527" lon="3.35772">
        <ele>144.9</ele>
        <time>2025-10-20T14:36:46.000Z</time>
      </trkpt>
      <trkpt lat="49.33526" lon="3.35775">
        <ele>143.7</ele>
        <time>2025-10-20T14:36:47.000Z</time>
      </trkpt>
      <trkpt lat="49.33525" lon="3.35776">
        <ele>143</ele>
        <time>2025-10-20T14:36:48.000Z</time>
      </trkpt>
      <trkpt lat="49.33524" lon="3.35779">
        <ele>142.2</ele>
        <time>2025-10-20T14:36:49.000Z</time>
      </trkpt>
      <trkpt lat="49.33524" lon="3.35781">
        <ele>141</ele>
        <time>2025-10-20T14:36:50.000Z</time>
      </trkpt>
      <trkpt lat="49.33523" lon="3.35784">
        <ele>139.9</ele>
        <time>2025-10-20T14:36:51.000Z</time>
      </trkpt>
      <trkpt lat="49.33524" lon="3.35787">
        <ele>139.4</ele>
        <time>2025-10-20T14:36:52.000Z</time>
      </trkpt>
      <trkpt lat="49.33524" lon="3.3579">
        <ele>138.7</ele>
        <time>2025-10-20T14:36:53.000Z</time>
      </trkpt>
      <trkpt lat="49.33524" lon="3.35791">
        <ele>138.4</ele>
        <time>2025-10-20T14:36:54.000Z</time>
      </trkpt>
      <trkpt lat="49.33523" lon="3.35793">
        <ele>138</ele>
        <time>2025-10-20T14:36:55.000Z</time>
      </trkpt>
      <trkpt lat="49.33524" lon="3.35796">
        <ele>137.2</ele>
        <time>2025-10-20T14:36:56.000Z</time>
      </trkpt>
      <trkpt lat="49.33523" lon="3.35798">
        <ele>136.7</ele>
        <time>2025-10-20T14:36:57.000Z</time>
      </trkpt>
      <trkpt lat="49.33523" lon="3.35801">
        <ele>136.5</ele>
        <time>2025-10-20T14:36:58.000Z</time>
      </trkpt>
      <trkpt lat="49.33523" lon="3.35802">
        <ele>135.9</ele>
        <time>2025-10-20T14:36:59.000Z</time>
      </trkpt>
      <trkpt lat="49.33522" lon="3.35804">
        <ele>135.1</ele>
        <time>2025-10-20T14:37:00.000Z</time>
      </trkpt>
      <trkpt lat="49.33521" lon="3.35805">
        <ele>134</ele>
        <time>2025-10-20T14:37:01.000Z</time>
      </trkpt>
      <trkpt lat="49.33521" lon="3.35806">
        <ele>132.8</ele>
        <time>2025-10-20T14:37:02.000Z</time>
      </trkpt>
      <trkpt lat="49.33521" lon="3.35807">
        <ele>131.5</ele>
        <time>2025-10-20T14:37:03.000Z</time>
      </trkpt>
      <trkpt lat="49.33521" lon="3.35807">
        <ele>130.8</ele>
        <time>2025-10-20T14:37:04.000Z</time>
      </trkpt>
      <trkpt lat="49.3352" lon="3.35807">
        <ele>130.6</ele>
        <time>2025-10-20T14:37:05.000Z</time>
      </trkpt>
      <trkpt lat="49.3352" lon="3.35807">
        <ele>130.4</ele>
        <time>2025-10-20T14:37:06.000Z</time>
      </trkpt>
      <trkpt lat="49.3352" lon="3.35807">
        <ele>130.1</ele>
        <time>2025-10-20T14:37:07.000Z</time>
      </trkpt>
      <trkpt lat="49.3352" lon="3.35808">
        <ele>129.5</ele>
        <time>2025-10-20T14:37:08.000Z</time>
      </trkpt>
      <trkpt lat="49.33519" lon="3.35808">
        <ele>128.7</ele>
        <time>2025-10-20T14:37:09.000Z</time>
      </trkpt>
      <trkpt lat="49.33519" lon="3.35809">
        <ele>128.3</ele>
        <time>2025-10-20T14:37:10.000Z</time>
      </trkpt>
      <trkpt lat="49.33519" lon="3.35809">
        <ele>127.9</ele>
        <time>2025-10-20T14:37:11.000Z</time>
      </trkpt>
      <trkpt lat="49.33519" lon="3.35809">
        <ele>127.9</ele>
        <time>2025-10-20T14:37:12.000Z</time>
      </trkpt>
      <trkpt lat="49.33518" lon="3.3581">
        <ele>127.3</ele>
        <time>2025-10-20T14:37:13.000Z</time>
      </trkpt>
      <trkpt lat="49.33518" lon="3.3581">
        <ele>127.1</ele>
        <time>2025-10-20T14:37:14.000Z</time>
      </trkpt>
      <trkpt lat="49.33517" lon="3.3581">
        <ele>127</ele>
        <time>2025-10-20T14:37:15.000Z</time>
      </trkpt>
      <trkpt lat="49.33517" lon="3.35811">
        <ele>126.7</ele>
        <time>2025-10-20T14:37:16.000Z</time>
      </trkpt>
      <trkpt lat="49.33516" lon="3.35811">
        <ele>126.8</ele>
        <time>2025-10-20T14:37:17.000Z</time>
      </trkpt>
      <trkpt lat="49.33515" lon="3.35812">
        <ele>126.7</ele>
        <time>2025-10-20T14:37:18.000Z</time>
      </trkpt>
      <trkpt lat="49.33515" lon="3.35812">
        <ele>127</ele>
        <time>2025-10-20T14:37:19.000Z</time>
      </trkpt>
      <trkpt lat="49.33515" lon="3.35813">
        <ele>127.2</ele>
        <time>2025-10-20T14:37:20.000Z</time>
      </trkpt>
      <trkpt lat="49.33514" lon="3.35813">
        <ele>127.5</ele>
        <time>2025-10-20T14:37:21.000Z</time>
      </trkpt>
      <trkpt lat="49.33514" lon="3.35813">
        <ele>127.7</ele>
        <time>2025-10-20T14:37:22.000Z</time>
      </trkpt>
      <trkpt lat="49.33513" lon="3.35814">
        <ele>128</ele>
        <time>2025-10-20T14:37:23.000Z</time>
      </trkpt>
      <trkpt lat="49.33512" lon="3.35815">
        <ele>128.2</ele>
        <time>2025-10-20T14:37:24.000Z</time>
      </trkpt>
      <trkpt lat="49.33512" lon="3.35815">
        <ele>128.5</ele>
        <time>2025-10-20T14:37:25.000Z</time>
      </trkpt>
      <trkpt lat="49.33511" lon="3.35816">
        <ele>128.9</ele>
        <time>2025-10-20T14:37:26.000Z</time>
      </trkpt>
      <trkpt lat="49.3351" lon="3.35817">
        <ele>129.4</ele>
        <time>2025-10-20T14:37:27.000Z</time>
      </trkpt>
      <trkpt lat="49.33509" lon="3.35818">
        <ele>129.6</ele>
        <time>2025-10-20T14:37:28.000Z</time>
      </trkpt>
      <trkpt lat="49.33508" lon="3.35819">
        <ele>129.8</ele>
        <time>2025-10-20T14:37:29.000Z</time>
      </trkpt>
      <trkpt lat="49.33508" lon="3.35819">
        <ele>129.8</ele>
        <time>2025-10-20T14:37:30.000Z</time>
      </trkpt>
      <trkpt lat="49.33507" lon="3.35819">
        <ele>129.7</ele>
        <time>2025-10-20T14:37:31.000Z</time>
      </trkpt>
      <trkpt lat="49.33507" lon="3.35819">
        <ele>130.2</ele>
        <time>2025-10-20T14:37:32.000Z</time>
      </trkpt>
      <trkpt lat="49.33507" lon="3.3582">
        <ele>130.3</ele>
        <time>2025-10-20T14:37:33.000Z</time>
      </trkpt>
      <trkpt lat="49.33506" lon="3.3582">
        <ele>130.3</ele>
        <time>2025-10-20T14:37:34.000Z</time>
      </trkpt>
      <trkpt lat="49.33505" lon="3.3582">
        <ele>130.2</ele>
        <time>2025-10-20T14:37:35.000Z</time>
      </trkpt>
      <trkpt lat="49.33504" lon="3.35819">
        <ele>130</ele>
        <time>2025-10-20T14:37:36.000Z</time>
      </trkpt>
      <trkpt lat="49.33504" lon="3.35819">
        <ele>129.9</ele>
        <time>2025-10-20T14:37:37.000Z</time>
      </trkpt>
      <trkpt lat="49.33503" lon="3.3582">
        <ele>129.7</ele>
        <time>2025-10-20T14:37:38.000Z</time>
      </trkpt>
      <trkpt lat="49.33502" lon="3.35819">
        <ele>129.4</ele>
        <time>2025-10-20T14:37:39.000Z</time>
      </trkpt>
      <trkpt lat="49.33502" lon="3.3582">
        <ele>129.2</ele>
        <time>2025-10-20T14:37:40.000Z</time>
      </trkpt>
      <trkpt lat="49.33501" lon="3.3582">
        <ele>129.2</ele>
        <time>2025-10-20T14:37:41.000Z</time>
      </trkpt>
      <trkpt lat="49.335" lon="3.35821">
        <ele>129</ele>
        <time>2025-10-20T14:37:42.000Z</time>
      </trkpt>
      <trkpt lat="49.335" lon="3.35822">
        <ele>128.9</ele>
        <time>2025-10-20T14:37:43.000Z</time>
      </trkpt>
      <trkpt lat="49.33499" lon="3.35824">
        <ele>128.6</ele>
        <time>2025-10-20T14:37:44.000Z</time>
      </trkpt>
      <trkpt lat="49.33499" lon="3.35826">
        <ele>128.8</ele>
        <time>2025-10-20T14:37:45.000Z</time>
      </trkpt>
      <trkpt lat="49.33499" lon="3.35828">
        <ele>128.7</ele>
        <time>2025-10-20T14:37:46.000Z</time>
      </trkpt>
      <trkpt lat="49.33499" lon="3.3583">
        <ele>128.3</ele>
        <time>2025-10-20T14:37:47.000Z</time>
      </trkpt>
      <trkpt lat="49.33499" lon="3.35832">
        <ele>128.2</ele>
        <time>2025-10-20T14:37:48.000Z</time>
      </trkpt>
      <trkpt lat="49.33498" lon="3.35833">
        <ele>127.9</ele>
        <time>2025-10-20T14:37:49.000Z</time>
      </trkpt>
      <trkpt lat="49.33497" lon="3.35835">
        <ele>127.6</ele>
        <time>2025-10-20T14:37:50.000Z</time>
      </trkpt>
      <trkpt lat="49.33496" lon="3.35836">
        <ele>127.8</ele>
        <time>2025-10-20T14:37:51.000Z</time>
      </trkpt>
      <trkpt lat="49.33496" lon="3.35837">
        <ele>127.6</ele>
        <time>2025-10-20T14:37:52.000Z</time>
      </trkpt>
      <trkpt lat="49.33495" lon="3.35838">
        <ele>127.4</ele>
        <time>2025-10-20T14:37:53.000Z</time>
      </trkpt>
      <trkpt lat="49.33495" lon="3.35839">
        <ele>127.5</ele>
        <time>2025-10-20T14:37:54.000Z</time>
      </trkpt>
      <trkpt lat="49.33494" lon="3.3584">
        <ele>127.6</ele>
        <time>2025-10-20T14:37:55.000Z</time>
      </trkpt>
      <trkpt lat="49.33493" lon="3.35841">
        <ele>127.6</ele>
        <time>2025-10-20T14:37:56.000Z</time>
      </trkpt>
      <trkpt lat="49.33492" lon="3.35842">
        <ele>127.5</ele>
        <time>2025-10-20T14:37:57.000Z</time>
      </trkpt>
      <trkpt lat="49.33491" lon="3.35843">
        <ele>127.5</ele>
        <time>2025-10-20T14:37:58.000Z</time>
      </trkpt>
      <trkpt lat="49.33489" lon="3.35844">
        <ele>127.4</ele>
        <time>2025-10-20T14:37:59.000Z</time>
      </trkpt>
      <trkpt lat="49.33488" lon="3.35844">
        <ele>127.5</ele>
        <time>2025-10-20T14:38:00.000Z</time>
      </trkpt>
      <trkpt lat="49.33488" lon="3.35844">
        <ele>127.3</ele>
        <time>2025-10-20T14:38:01.000Z</time>
      </trkpt>
      <trkpt lat="49.33487" lon="3.35844">
        <ele>127.3</ele>
        <time>2025-10-20T14:38:02.000Z</time>
      </trkpt>
      <trkpt lat="49.33487" lon="3.35845">
        <ele>127.5</ele>
        <time>2025-10-20T14:38:03.000Z</time>
      </trkpt>
      <trkpt lat="49.33486" lon="3.35845">
        <ele>127.5</ele>
        <time>2025-10-20T14:38:04.000Z</time>
      </trkpt>
      <trkpt lat="49.33486" lon="3.35846">
        <ele>127.5</ele>
        <time>2025-10-20T14:38:05.000Z</time>
      </trkpt>
      <trkpt lat="49.33485" lon="3.35846">
        <ele>127.4</ele>
        <time>2025-10-20T14:38:06.000Z</time>
      </trkpt>
      <trkpt lat="49.33485" lon="3.35846">
        <ele>127.5</ele>
        <time>2025-10-20T14:38:07.000Z</time>
      </trkpt>
      <trkpt lat="49.33484" lon="3.35846">
        <ele>127.5</ele>
        <time>2025-10-20T14:38:08.000Z</time>
      </trkpt>
      <trkpt lat="49.33483" lon="3.35846">
        <ele>127.5</ele>
        <time>2025-10-20T14:38:09.000Z</time>
      </trkpt>
      <trkpt lat="49.33483" lon="3.35846">
        <ele>127.5</ele>
        <time>2025-10-20T14:38:10.000Z</time>
      </trkpt>
      <trkpt lat="49.33482" lon="3.35846">
        <ele>127.5</ele>
        <time>2025-10-20T14:38:11.000Z</time>
      </trkpt>
      <trkpt lat="49.33481" lon="3.35846">
        <ele>127.6</ele>
        <time>2025-10-20T14:38:12.000Z</time>
      </trkpt>
      <trkpt lat="49.33481" lon="3.35846">
        <ele>127.7</ele>
        <time>2025-10-20T14:38:13.000Z</time>
      </trkpt>
      <trkpt lat="49.3348" lon="3.35846">
        <ele>127.3</ele>
        <time>2025-10-20T14:38:14.000Z</time>
      </trkpt>
      <trkpt lat="49.3348" lon="3.35846">
        <ele>127.2</ele>
        <time>2025-10-20T14:38:15.000Z</time>
      </trkpt>
      <trkpt lat="49.33479" lon="3.35846">
        <ele>127.1</ele>
        <time>2025-10-20T14:38:16.000Z</time>
      </trkpt>
      <trkpt lat="49.33479" lon="3.35846">
        <ele>127.1</ele>
        <time>2025-10-20T14:38:17.000Z</time>
      </trkpt>
      <trkpt lat="49.33478" lon="3.35846">
        <ele>127</ele>
        <time>2025-10-20T14:38:18.000Z</time>
      </trkpt>
      <trkpt lat="49.33478" lon="3.35846">
        <ele>126.9</ele>
        <time>2025-10-20T14:38:19.000Z</time>
      </trkpt>
      <trkpt lat="49.33478" lon="3.35846">
        <ele>127</ele>
        <time>2025-10-20T14:38:20.000Z</time>
      </trkpt>
      <trkpt lat="49.33478" lon="3.35846">
        <ele>126.7</ele>
        <time>2025-10-20T14:38:21.000Z</time>
      </trkpt>
      <trkpt lat="49.33477" lon="3.35846">
        <ele>126.7</ele>
        <time>2025-10-20T14:38:22.000Z</time>
      </trkpt>
      <trkpt lat="49.33477" lon="3.35845">
        <ele>126.5</ele>
        <time>2025-10-20T14:38:23.000Z</time>
      </trkpt>
      <trkpt lat="49.33477" lon="3.35845">
        <ele>126.3</ele>
        <time>2025-10-20T14:38:24.000Z</time>
      </trkpt>
      <trkpt lat="49.33476" lon="3.35845">
        <ele>126</ele>
        <time>2025-10-20T14:38:25.000Z</time>
      </trkpt>
      <trkpt lat="49.33476" lon="3.35845">
        <ele>125.9</ele>
        <time>2025-10-20T14:38:26.000Z</time>
      </trkpt>
      <trkpt lat="49.33476" lon="3.35846">
        <ele>125.9</ele>
        <time>2025-10-20T14:38:27.000Z</time>
      </trkpt>
      <trkpt lat="49.33476" lon="3.35846">
        <ele>125.9</ele>
        <time>2025-10-20T14:38:28.000Z</time>
      </trkpt>
      <trkpt lat="49.33476" lon="3.35846">
        <ele>125.9</ele>
        <time>2025-10-20T14:38:29.000Z</time>
      </trkpt>
      <trkpt lat="49.33476" lon="3.35846">
        <ele>125.9</ele>
        <time>2025-10-20T14:38:30.000Z</time>
      </trkpt>
      <trkpt lat="49.33476" lon="3.35846">
        <ele>125.9</ele>
        <time>2025-10-20T14:38:31.000Z</time>
      </trkpt>
      <trkpt lat="49.33476" lon="3.35846">
        <ele>125.9</ele>
        <time>2025-10-20T14:38:32.000Z</time>
      </trkpt>
      <trkpt lat="49.33476" lon="3.35846">
        <ele>125.9</ele>
        <time>2025-10-20T14:38:33.000Z</time>
      </trkpt>
      <trkpt lat="49.33476" lon="3.35846">
        <ele>125.9</ele>
        <time>2025-10-20T14:38:34.000Z</time>
      </trkpt>
      <trkpt lat="49.33476" lon="3.35846">
        <ele>125.9</ele>
        <time>2025-10-20T14:38:35.000Z</time>
      </trkpt>
      <trkpt lat="49.33476" lon="3.35846">
        <ele>125.9</ele>
        <time>2025-10-20T14:38:36.000Z</time>
      </trkpt>
      <trkpt lat="49.33476" lon="3.35846">
        <ele>125.9</ele>
        <time>2025-10-20T14:38:37.000Z</time>
      </trkpt>
      <trkpt lat="49.33476" lon="3.35846">
        <ele>125.9</ele>
        <time>2025-10-20T14:38:38.000Z</time>
      </trkpt>
      <trkpt lat="49.33476" lon="3.35846">
        <ele>125.9</ele>
        <time>2025-10-20T14:38:39.000Z</time>
      </trkpt>
      <trkpt lat="49.33476" lon="3.35846">
        <ele>125.9</ele>
        <time>2025-10-20T14:38:40.000Z</time>
      </trkpt>
      <trkpt lat="49.33476" lon="3.35846">
        <ele>125.9</ele>
        <time>2025-10-20T14:38:41.000Z</time>
      </trkpt>
      <trkpt lat="49.33476" lon="3.35846">
        <ele>125.9</ele>
        <time>2025-10-20T14:38:42.000Z</time>
      </trkpt>
      <trkpt lat="49.33476" lon="3.35846">
        <ele>125.9</ele>
        <time>2025-10-20T14:38:43.000Z</time>
      </trkpt>
      <trkpt lat="49.33476" lon="3.35846">
        <ele>125.9</ele>
        <time>2025-10-20T14:38:44.000Z</time>
      </trkpt>
      <trkpt lat="49.33476" lon="3.35846">
        <ele>122.8</ele>
        <time>2025-10-20T14:38:45.000Z</time>
      </trkpt>
      <trkpt lat="49.33476" lon="3.35846">
        <ele>122.8</ele>
        <time>2025-10-20T14:38:46.000Z</time>
      </trkpt>
      <trkpt lat="49.33476" lon="3.35846">
        <ele>122.8</ele>
        <time>2025-10-20T14:38:47.000Z</time>
      </trkpt>
      <trkpt lat="49.33476" lon="3.35846">
        <ele>122.8</ele>
        <time>2025-10-20T14:38:48.000Z</time>
      </trkpt>
      <trkpt lat="49.33476" lon="3.35846">
        <ele>122.8</ele>
        <time>2025-10-20T14:38:49.000Z</time>
      </trkpt>
      <trkpt lat="49.33476" lon="3.35846">
        <ele>122.8</ele>
        <time>2025-10-20T14:38:50.000Z</time>
      </trkpt>
      <trkpt lat="49.33476" lon="3.35846">
        <ele>122.8</ele>
        <time>2025-10-20T14:38:51.000Z</time>
      </trkpt>
      <trkpt lat="49.33476" lon="3.35846">
        <ele>122.8</ele>
        <time>2025-10-20T14:38:52.000Z</time>
      </trkpt>
      <trkpt lat="49.33476" lon="3.35846">
        <ele>122.8</ele>
        <time>2025-10-20T14:38:53.000Z</time>
      </trkpt>
      <trkpt lat="49.33476" lon="3.35846">
        <ele>122.8</ele>
        <time>2025-10-20T14:38:54.000Z</time>
      </trkpt>
      <trkpt lat="49.33476" lon="3.35846">
        <ele>122.8</ele>
        <time>2025-10-20T14:38:55.000Z</time>
      </trkpt>
      <trkpt lat="49.33476" lon="3.35846">
        <ele>122.8</ele>
        <time>2025-10-20T14:38:56.000Z</time>
      </trkpt>
      <trkpt lat="49.33476" lon="3.35846">
        <ele>122.8</ele>
        <time>2025-10-20T14:38:57.000Z</time>
      </trkpt>
      <trkpt lat="49.33476" lon="3.35846">
        <ele>122.8</ele>
        <time>2025-10-20T14:38:58.000Z</time>
      </trkpt>
      <trkpt lat="49.33476" lon="3.35846">
        <ele>122.8</ele>
        <time>2025-10-20T14:38:59.000Z</time>
      </trkpt>
      <trkpt lat="49.33476" lon="3.35846">
        <ele>122.8</ele>
        <time>2025-10-20T14:39:00.000Z</time>
      </trkpt>
      <trkpt lat="49.33476" lon="3.35846">
        <ele>122.8</ele>
        <time>2025-10-20T14:39:01.000Z</time>
      </trkpt>
      <trkpt lat="49.33476" lon="3.35846">
        <ele>122.8</ele>
        <time>2025-10-20T14:39:02.000Z</time>
      </trkpt>
      <trkpt lat="49.33476" lon="3.35846">
        <ele>122.8</ele>
        <time>2025-10-20T14:39:03.000Z</time>
      </trkpt>
      <trkpt lat="49.33476" lon="3.35846">
        <ele>122.8</ele>
        <time>2025-10-20T14:39:04.000Z</time>
      </trkpt>
      <trkpt lat="49.33476" lon="3.35846">
        <ele>122.8</ele>
        <time>2025-10-20T14:39:05.000Z</time>
      </trkpt>
      <trkpt lat="49.33476" lon="3.35846">
        <ele>122.8</ele>
        <time>2025-10-20T14:39:06.000Z</time>
      </trkpt>
      <trkpt lat="49.33476" lon="3.35846">
        <ele>122.8</ele>
        <time>2025-10-20T14:39:07.000Z</time>
      </trkpt>
      <trkpt lat="49.33476" lon="3.35846">
        <ele>122.8</ele>
        <time>2025-10-20T14:39:08.000Z</time>
      </trkpt>
      <trkpt lat="49.33476" lon="3.35846">
        <ele>122.8</ele>
        <time>2025-10-20T14:39:09.000Z</time>
      </trkpt>
      <trkpt lat="49.33476" lon="3.35846">
        <ele>122.8</ele>
        <time>2025-10-20T14:39:10.000Z</time>
      </trkpt>
      <trkpt lat="49.33476" lon="3.35846">
        <ele>122.8</ele>
        <time>2025-10-20T14:39:11.000Z</time>
      </trkpt>
      <trkpt lat="49.33476" lon="3.35846">
        <ele>122.8</ele>
        <time>2025-10-20T14:39:12.000Z</time>
      </trkpt>
      <trkpt lat="49.33476" lon="3.35846">
        <ele>122.8</ele>
        <time>2025-10-20T14:39:13.000Z</time>
      </trkpt>
      <trkpt lat="49.33476" lon="3.35846">
        <ele>122.8</ele>
        <time>2025-10-20T14:39:14.000Z</time>
      </trkpt>
      <trkpt lat="49.33476" lon="3.35846">
        <ele>122.8</ele>
        <time>2025-10-20T14:39:15.000Z</time>
      </trkpt>
      <trkpt lat="49.33476" lon="3.35846">
        <ele>122.8</ele>
        <time>2025-10-20T14:39:16.000Z</time>
      </trkpt>
      <trkpt lat="49.33476" lon="3.35846">
        <ele>119.8</ele>
        <time>2025-10-20T14:39:17.000Z</time>
      </trkpt>
      <trkpt lat="49.33476" lon="3.35846">
        <ele>119.8</ele>
        <time>2025-10-20T14:39:18.000Z</time>
      </trkpt>
      <trkpt lat="49.33476" lon="3.35846">
        <ele>119.8</ele>
        <time>2025-10-20T14:39:19.000Z</time>
      </trkpt>
      <trkpt lat="49.33476" lon="3.35846">
        <ele>119.8</ele>
        <time>2025-10-20T14:39:20.000Z</time>
      </trkpt>
      <trkpt lat="49.33476" lon="3.35846">
        <ele>119.8</ele>
        <time>2025-10-20T14:39:21.000Z</time>
      </trkpt>
      <trkpt lat="49.33476" lon="3.35846">
        <ele>119.8</ele>
        <time>2025-10-20T14:39:22.000Z</time>
      </trkpt>
      <trkpt lat="49.33476" lon="3.35846">
        <ele>119.8</ele>
        <time>2025-10-20T14:39:23.000Z</time>
      </trkpt>
      <trkpt lat="49.33476" lon="3.35846">
        <ele>119.8</ele>
        <time>2025-10-20T14:39:24.000Z</time>
      </trkpt>
      <trkpt lat="49.33476" lon="3.35846">
        <ele>119.8</ele>
        <time>2025-10-20T14:39:25.000Z</time>
      </trkpt>
      <trkpt lat="49.33476" lon="3.35846">
        <ele>119.8</ele>
        <time>2025-10-20T14:39:26.000Z</time>
      </trkpt>
      <trkpt lat="49.33476" lon="3.35846">
        <ele>119.8</ele>
        <time>2025-10-20T14:39:27.000Z</time>
      </trkpt>
      <trkpt lat="49.33476" lon="3.35846">
        <ele>119.8</ele>
        <time>2025-10-20T14:39:28.000Z</time>
      </trkpt>
      <trkpt lat="49.33476" lon="3.35846">
        <ele>119.8</ele>
        <time>2025-10-20T14:39:29.000Z</time>
      </trkpt>
      <trkpt lat="49.33476" lon="3.35846">
        <ele>119.8</ele>
        <time>2025-10-20T14:39:30.000Z</time>
      </trkpt>
      <trkpt lat="49.33476" lon="3.35846">
        <ele>119.8</ele>
        <time>2025-10-20T14:39:31.000Z</time>
      </trkpt>
      <trkpt lat="49.33476" lon="3.35846">
        <ele>119.8</ele>
        <time>2025-10-20T14:39:32.000Z</time>
      </trkpt>
      <trkpt lat="49.33476" lon="3.35846">
        <ele>119.8</ele>
        <time>2025-10-20T14:39:33.000Z</time>
      </trkpt>
      <trkpt lat="49.33476" lon="3.35846">
        <ele>119.8</ele>
        <time>2025-10-20T14:39:34.000Z</time>
      </trkpt>
      <trkpt lat="49.33476" lon="3.35846">
        <ele>119.8</ele>
        <time>2025-10-20T14:39:35.000Z</time>
      </trkpt>
      <trkpt lat="49.33476" lon="3.35846">
        <ele>119.8</ele>
        <time>2025-10-20T14:39:36.000Z</time>
      </trkpt>
      <trkpt lat="49.33476" lon="3.35846">
        <ele>119.8</ele>
        <time>2025-10-20T14:39:37.000Z</time>
      </trkpt>
      <trkpt lat="49.33476" lon="3.35846">
        <ele>119.8</ele>
        <time>2025-10-20T14:39:38.000Z</time>
      </trkpt>
      <trkpt lat="49.33476" lon="3.35846">
        <ele>119.8</ele>
        <time>2025-10-20T14:39:39.000Z</time>
      </trkpt>
      <trkpt lat="49.33476" lon="3.35846">
        <ele>119.8</ele>
        <time>2025-10-20T14:39:40.000Z</time>
      </trkpt>
      <trkpt lat="49.33476" lon="3.35846">
        <ele>119.8</ele>
        <time>2025-10-20T14:39:41.000Z</time>
      </trkpt>
      <trkpt lat="49.33476" lon="3.35846">
        <ele>119.8</ele>
        <time>2025-10-20T14:39:42.000Z</time>
      </trkpt>
      <trkpt lat="49.33476" lon="3.35846">
        <ele>119.8</ele>
        <time>2025-10-20T14:39:43.000Z</time>
      </trkpt>
      <trkpt lat="49.33476" lon="3.35846">
        <ele>119.8</ele>
        <time>2025-10-20T14:39:44.000Z</time>
      </trkpt>
      <trkpt lat="49.33476" lon="3.35846">
        <ele>119.8</ele>
        <time>2025-10-20T14:39:45.000Z</time>
      </trkpt>
      <trkpt lat="49.33476" lon="3.35846">
        <ele>119.8</ele>
        <time>2025-10-20T14:39:46.000Z</time>
      </trkpt>
      <trkpt lat="49.33476" lon="3.35846">
        <ele>119.8</ele>
        <time>2025-10-20T14:39:47.000Z</time>
      </trkpt>
      <trkpt lat="49.33476" lon="3.35846">
        <ele>119.8</ele>
        <time>2025-10-20T14:39:48.000Z</time>
      </trkpt>
      <trkpt lat="49.33476" lon="3.35846">
        <ele>119.8</ele>
        <time>2025-10-20T14:39:49.000Z</time>
      </trkpt>
      <trkpt lat="49.33476" lon="3.35846">
        <ele>119.8</ele>
        <time>2025-10-20T14:39:50.000Z</time>
      </trkpt>
      <trkpt lat="49.33476" lon="3.35846">
        <ele>119.8</ele>
        <time>2025-10-20T14:39:51.000Z</time>
      </trkpt>
      <trkpt lat="49.33476" lon="3.35846">
        <ele>119.8</ele>
        <time>2025-10-20T14:39:52.000Z</time>
      </trkpt>
      <trkpt lat="49.33476" lon="3.35846">
        <ele>119.8</ele>
        <time>2025-10-20T14:39:53.000Z</time>
      </trkpt>
      <trkpt lat="49.33476" lon="3.35846">
        <ele>119.8</ele>
        <time>2025-10-20T14:39:54.000Z</time>
      </trkpt>
      <trkpt lat="49.33476" lon="3.35846">
        <ele>119.8</ele>
        <time>2025-10-20T14:39:55.000Z</time>
      </trkpt>
      <trkpt lat="49.33476" lon="3.35846">
        <ele>119.8</ele>
        <time>2025-10-20T14:39:56.000Z</time>
      </trkpt>
      <trkpt lat="49.33476" lon="3.35846">
        <ele>119.8</ele>
        <time>2025-10-20T14:39:57.000Z</time>
      </trkpt>
      <trkpt lat="49.33476" lon="3.35846">
        <ele>119.8</ele>
        <time>2025-10-20T14:39:58.000Z</time>
      </trkpt>
      <trkpt lat="49.33476" lon="3.35846">
        <ele>119.8</ele>
        <time>2025-10-20T14:39:59.000Z</time>
      </trkpt>
      <trkpt lat="49.33476" lon="3.35846">
        <ele>119.8</ele>
        <time>2025-10-20T14:40:00.000Z</time>
      </trkpt>
      <trkpt lat="49.33476" lon="3.35846">
        <ele>119.8</ele>
        <time>2025-10-20T14:40:01.000Z</time>
      </trkpt>
      <trkpt lat="49.33476" lon="3.35846">
        <ele>119.8</ele>
        <time>2025-10-20T14:40:02.000Z</time>
      </trkpt>
      <trkpt lat="49.33476" lon="3.35846">
        <ele>119.8</ele>
        <time>2025-10-20T14:40:03.000Z</time>
      </trkpt>
      <trkpt lat="49.33476" lon="3.35846">
        <ele>119.8</ele>
        <time>2025-10-20T14:40:04.000Z</time>
      </trkpt>
      <trkpt lat="49.33476" lon="3.35846">
        <ele>119.8</ele>
        <time>2025-10-20T14:40:05.000Z</time>
      </trkpt>
      <trkpt lat="49.33467" lon="3.35845">
        <ele>117.6</ele>
        <time>2025-10-20T14:40:06.000Z</time>
      </trkpt>
      <trkpt lat="49.33467" lon="3.35845">
        <ele>117.8</ele>
        <time>2025-10-20T14:40:07.000Z</time>
      </trkpt>
      <trkpt lat="49.33467" lon="3.35845">
        <ele>117.9</ele>
        <time>2025-10-20T14:40:08.000Z</time>
      </trkpt>
      <trkpt lat="49.33467" lon="3.35846">
        <ele>118</ele>
        <time>2025-10-20T14:40:09.000Z</time>
      </trkpt>
      <trkpt lat="49.33467" lon="3.35846">
        <ele>117.9</ele>
        <time>2025-10-20T14:40:10.000Z</time>
      </trkpt>
      <trkpt lat="49.33466" lon="3.35846">
        <ele>117.8</ele>
        <time>2025-10-20T14:40:11.000Z</time>
      </trkpt>
      <trkpt lat="49.33465" lon="3.35846">
        <ele>117.8</ele>
        <time>2025-10-20T14:40:12.000Z</time>
      </trkpt>
      <trkpt lat="49.33465" lon="3.35846">
        <ele>117.9</ele>
        <time>2025-10-20T14:40:13.000Z</time>
      </trkpt>
      <trkpt lat="49.33464" lon="3.35847">
        <ele>117.9</ele>
        <time>2025-10-20T14:40:14.000Z</time>
      </trkpt>
      <trkpt lat="49.33463" lon="3.35847">
        <ele>118</ele>
        <time>2025-10-20T14:40:15.000Z</time>
      </trkpt>
      <trkpt lat="49.33462" lon="3.35847">
        <ele>118</ele>
        <time>2025-10-20T14:40:16.000Z</time>
      </trkpt>
      <trkpt lat="49.33462" lon="3.35847">
        <ele>118.1</ele>
        <time>2025-10-20T14:40:17.000Z</time>
      </trkpt>
      <trkpt lat="49.33461" lon="3.35847">
        <ele>118.2</ele>
        <time>2025-10-20T14:40:18.000Z</time>
      </trkpt>
      <trkpt lat="49.33461" lon="3.35847">
        <ele>118.3</ele>
        <time>2025-10-20T14:40:19.000Z</time>
      </trkpt>
      <trkpt lat="49.33461" lon="3.35847">
        <ele>118.4</ele>
        <time>2025-10-20T14:40:20.000Z</time>
      </trkpt>
      <trkpt lat="49.33461" lon="3.35847">
        <ele>118.4</ele>
        <time>2025-10-20T14:40:21.000Z</time>
      </trkpt>
      <trkpt lat="49.33461" lon="3.35847">
        <ele>118.4</ele>
        <time>2025-10-20T14:40:22.000Z</time>
      </trkpt>
      <trkpt lat="49.33461" lon="3.35846">
        <ele>118.5</ele>
        <time>2025-10-20T14:40:23.000Z</time>
      </trkpt>
      <trkpt lat="49.33461" lon="3.35846">
        <ele>118.6</ele>
        <time>2025-10-20T14:40:24.000Z</time>
      </trkpt>
      <trkpt lat="49.33461" lon="3.35846">
        <ele>118.7</ele>
        <time>2025-10-20T14:40:25.000Z</time>
      </trkpt>
      <trkpt lat="49.33461" lon="3.35846">
        <ele>118.7</ele>
        <time>2025-10-20T14:40:26.000Z</time>
      </trkpt>
      <trkpt lat="49.33461" lon="3.35846">
        <ele>118.7</ele>
        <time>2025-10-20T14:40:27.000Z</time>
      </trkpt>
      <trkpt lat="49.33461" lon="3.35846">
        <ele>118.7</ele>
        <time>2025-10-20T14:40:28.000Z</time>
      </trkpt>
      <trkpt lat="49.33461" lon="3.35846">
        <ele>118.7</ele>
        <time>2025-10-20T14:40:29.000Z</time>
      </trkpt>
      <trkpt lat="49.33461" lon="3.35846">
        <ele>118.7</ele>
        <time>2025-10-20T14:40:30.000Z</time>
      </trkpt>
      <trkpt lat="49.33461" lon="3.35846">
        <ele>118.7</ele>
        <time>2025-10-20T14:40:31.000Z</time>
      </trkpt>
      <trkpt lat="49.33461" lon="3.35846">
        <ele>118.7</ele>
        <time>2025-10-20T14:40:32.000Z</time>
      </trkpt>
      <trkpt lat="49.33461" lon="3.35846">
        <ele>118.7</ele>
        <time>2025-10-20T14:40:33.000Z</time>
      </trkpt>
      <trkpt lat="49.33461" lon="3.35846">
        <ele>118.7</ele>
        <time>2025-10-20T14:40:34.000Z</time>
      </trkpt>
      <trkpt lat="49.33461" lon="3.35846">
        <ele>118.7</ele>
        <time>2025-10-20T14:40:35.000Z</time>
      </trkpt>
      <trkpt lat="49.33461" lon="3.35846">
        <ele>118.7</ele>
        <time>2025-10-20T14:40:36.000Z</time>
      </trkpt>
      <trkpt lat="49.33461" lon="3.35846">
        <ele>118.7</ele>
        <time>2025-10-20T14:40:37.000Z</time>
      </trkpt>
      <trkpt lat="49.33461" lon="3.35846">
        <ele>118.7</ele>
        <time>2025-10-20T14:40:38.000Z</time>
      </trkpt>
      <trkpt lat="49.33461" lon="3.35846">
        <ele>118.7</ele>
        <time>2025-10-20T14:40:39.000Z</time>
      </trkpt>
      <trkpt lat="49.33461" lon="3.35846">
        <ele>118.7</ele>
        <time>2025-10-20T14:40:40.000Z</time>
      </trkpt>
      <trkpt lat="49.33461" lon="3.35846">
        <ele>118.7</ele>
        <time>2025-10-20T14:40:41.000Z</time>
      </trkpt>
      <trkpt lat="49.33461" lon="3.35846">
        <ele>117.9</ele>
        <time>2025-10-20T14:40:42.000Z</time>
      </trkpt>
      <trkpt lat="49.33461" lon="3.35846">
        <ele>117.8</ele>
        <time>2025-10-20T14:40:43.000Z</time>
      </trkpt>
      <trkpt lat="49.33461" lon="3.35847">
        <ele>117.7</ele>
        <time>2025-10-20T14:40:44.000Z</time>
      </trkpt>
      <trkpt lat="49.33461" lon="3.35847">
        <ele>117.6</ele>
        <time>2025-10-20T14:40:45.000Z</time>
      </trkpt>
      <trkpt lat="49.33461" lon="3.35847">
        <ele>117.5</ele>
        <time>2025-10-20T14:40:46.000Z</time>
      </trkpt>
      <trkpt lat="49.33461" lon="3.35847">
        <ele>117.5</ele>
        <time>2025-10-20T14:40:47.000Z</time>
      </trkpt>
      <trkpt lat="49.33461" lon="3.35847">
        <ele>117.5</ele>
        <time>2025-10-20T14:40:48.000Z</time>
      </trkpt>
      <trkpt lat="49.33461" lon="3.35847">
        <ele>117.4</ele>
        <time>2025-10-20T14:40:49.000Z</time>
      </trkpt>
      <trkpt lat="49.33462" lon="3.35847">
        <ele>117.4</ele>
        <time>2025-10-20T14:40:50.000Z</time>
      </trkpt>
      <trkpt lat="49.33462" lon="3.35847">
        <ele>117.4</ele>
        <time>2025-10-20T14:40:51.000Z</time>
      </trkpt>
      <trkpt lat="49.33462" lon="3.35848">
        <ele>117.3</ele>
        <time>2025-10-20T14:40:52.000Z</time>
      </trkpt>
      <trkpt lat="49.33462" lon="3.35847">
        <ele>117.2</ele>
        <time>2025-10-20T14:40:53.000Z</time>
      </trkpt>
      <trkpt lat="49.33462" lon="3.35847">
        <ele>117.1</ele>
        <time>2025-10-20T14:40:54.000Z</time>
      </trkpt>
      <trkpt lat="49.33462" lon="3.35847">
        <ele>117.1</ele>
        <time>2025-10-20T14:40:55.000Z</time>
      </trkpt>
      <trkpt lat="49.33462" lon="3.35847">
        <ele>117.1</ele>
        <time>2025-10-20T14:40:56.000Z</time>
      </trkpt>
      <trkpt lat="49.33462" lon="3.35847">
        <ele>117.1</ele>
        <time>2025-10-20T14:40:57.000Z</time>
      </trkpt>
      <trkpt lat="49.33462" lon="3.35847">
        <ele>117.1</ele>
        <time>2025-10-20T14:40:58.000Z</time>
      </trkpt>
      <trkpt lat="49.33462" lon="3.35847">
        <ele>117.1</ele>
        <time>2025-10-20T14:40:59.000Z</time>
      </trkpt>
      <trkpt lat="49.33462" lon="3.35847">
        <ele>117.1</ele>
        <time>2025-10-20T14:41:00.000Z</time>
      </trkpt>
      <trkpt lat="49.33462" lon="3.35847">
        <ele>117.1</ele>
        <time>2025-10-20T14:41:01.000Z</time>
      </trkpt>
      <trkpt lat="49.33462" lon="3.35847">
        <ele>117.1</ele>
        <time>2025-10-20T14:41:02.000Z</time>
      </trkpt>
      <trkpt lat="49.33462" lon="3.35847">
        <ele>117.1</ele>
        <time>2025-10-20T14:41:03.000Z</time>
      </trkpt>
      <trkpt lat="49.33462" lon="3.35847">
        <ele>117.1</ele>
        <time>2025-10-20T14:41:04.000Z</time>
      </trkpt>
      <trkpt lat="49.33462" lon="3.35847">
        <ele>117.1</ele>
        <time>2025-10-20T14:41:05.000Z</time>
      </trkpt>
      <trkpt lat="49.33462" lon="3.35847">
        <ele>117.1</ele>
        <time>2025-10-20T14:41:06.000Z</time>
      </trkpt>
      <trkpt lat="49.33462" lon="3.35847">
        <ele>117.1</ele>
        <time>2025-10-20T14:41:07.000Z</time>
      </trkpt>
      <trkpt lat="49.33462" lon="3.35847">
        <ele>117.1</ele>
        <time>2025-10-20T14:41:08.000Z</time>
      </trkpt>
      <trkpt lat="49.33462" lon="3.35847">
        <ele>117.1</ele>
        <time>2025-10-20T14:41:09.000Z</time>
      </trkpt>
      <trkpt lat="49.33462" lon="3.35847">
        <ele>117.1</ele>
        <time>2025-10-20T14:41:10.000Z</time>
      </trkpt>
      <trkpt lat="49.33462" lon="3.35847">
        <ele>117.1</ele>
        <time>2025-10-20T14:41:11.000Z</time>
      </trkpt>
      <trkpt lat="49.33462" lon="3.35847">
        <ele>117.1</ele>
        <time>2025-10-20T14:41:12.000Z</time>
      </trkpt>
      <trkpt lat="49.33462" lon="3.35847">
        <ele>117.1</ele>
        <time>2025-10-20T14:41:13.000Z</time>
      </trkpt>
      <trkpt lat="49.33462" lon="3.35847">
        <ele>117.1</ele>
        <time>2025-10-20T14:41:14.000Z</time>
      </trkpt>
      <trkpt lat="49.33462" lon="3.35847">
        <ele>117.1</ele>
        <time>2025-10-20T14:41:15.000Z</time>
      </trkpt>
      <trkpt lat="49.33462" lon="3.35847">
        <ele>117.1</ele>
        <time>2025-10-20T14:41:16.000Z</time>
      </trkpt>
      <trkpt lat="49.33462" lon="3.35848">
        <ele>116.3</ele>
        <time>2025-10-20T14:41:17.000Z</time>
      </trkpt>
      <trkpt lat="49.33462" lon="3.35848">
        <ele>116.3</ele>
        <time>2025-10-20T14:41:18.000Z</time>
      </trkpt>
      <trkpt lat="49.33461" lon="3.35848">
        <ele>116.2</ele>
        <time>2025-10-20T14:41:19.000Z</time>
      </trkpt>
      <trkpt lat="49.33461" lon="3.35848">
        <ele>116.3</ele>
        <time>2025-10-20T14:41:20.000Z</time>
      </trkpt>
      <trkpt lat="49.33461" lon="3.35848">
        <ele>116.3</ele>
        <time>2025-10-20T14:41:21.000Z</time>
      </trkpt>
      <trkpt lat="49.33461" lon="3.35848">
        <ele>116.4</ele>
        <time>2025-10-20T14:41:22.000Z</time>
      </trkpt>
      <trkpt lat="49.33461" lon="3.35848">
        <ele>116.4</ele>
        <time>2025-10-20T14:41:23.000Z</time>
      </trkpt>
      <trkpt lat="49.33461" lon="3.35848">
        <ele>116.4</ele>
        <time>2025-10-20T14:41:24.000Z</time>
      </trkpt>
      <trkpt lat="49.33461" lon="3.35848">
        <ele>116.4</ele>
        <time>2025-10-20T14:41:25.000Z</time>
      </trkpt>
      <trkpt lat="49.33461" lon="3.35848">
        <ele>116.4</ele>
        <time>2025-10-20T14:41:26.000Z</time>
      </trkpt>
      <trkpt lat="49.33461" lon="3.35848">
        <ele>116.4</ele>
        <time>2025-10-20T14:41:27.000Z</time>
      </trkpt>
      <trkpt lat="49.33461" lon="3.35848">
        <ele>116.4</ele>
        <time>2025-10-20T14:41:28.000Z</time>
      </trkpt>
      <trkpt lat="49.33461" lon="3.35848">
        <ele>116.4</ele>
        <time>2025-10-20T14:41:29.000Z</time>
      </trkpt>
      <trkpt lat="49.33461" lon="3.35848">
        <ele>116.4</ele>
        <time>2025-10-20T14:41:30.000Z</time>
      </trkpt>
    </trkseg>
  </trk>
</gpx>